<?xml version='1.0' encoding='UTF-8'?><gpx version="1.1" creator="JPX - https://github.com/jenetics/jpx" xmlns="http://www.topografix.com/GPX/1/1"><trk><trkseg><trkpt lat="46.052457265933676" lon="8.742149419234684"><ele>643.0</ele><time>2026-04-06T12:05:46.998Z</time></trkpt><trkpt lat="46.05252834780119" lon="8.742217528078827"><ele>643.0</ele><time>2026-04-06T12:05:49.998Z</time></trkpt><trkpt lat="46.05259249540201" lon="8.742168820842082"><ele>643.0</ele><time>2026-04-06T12:05:54.998Z</time></trkpt><trkpt lat="46.05252372977815" lon="8.742120859963382"><ele>643.0</ele><time>2026-04-06T12:05:58.998Z</time></trkpt><trkpt lat="46.0524480724337" lon="8.742114632948775"><ele>643.0</ele><time>2026-04-06T12:06:01.998Z</time></trkpt><trkpt lat="46.0524055767391" lon="8.742188911667155"><ele>643.0</ele><time>2026-04-06T12:06:10.998Z</time></trkpt><trkpt lat="46.05233371545047" lon="8.742254003274702"><ele>639.0</ele><time>2026-04-06T12:06:31.997Z</time></trkpt><trkpt lat="46.05223893679256" lon="8.742332768438576"><ele>635.0</ele><time>2026-04-06T12:06:33.997Z</time></trkpt><trkpt lat="46.052135498234605" lon="8.742376787140916"><ele>631.0</ele><time>2026-04-06T12:06:35.997Z</time></trkpt><trkpt lat="46.05207157822719" lon="8.742372564213023"><ele>627.0</ele><time>2026-04-06T12:06:36.997Z</time></trkpt><trkpt lat="46.052003394600526" lon="8.742352177664744"><ele>623.0</ele><time>2026-04-06T12:06:37.997Z</time></trkpt><trkpt lat="46.05189412108675" lon="8.74234723901295"><ele>623.0</ele><time>2026-04-06T12:06:39.997Z</time></trkpt><trkpt lat="46.0518025463922" lon="8.742404095314875"><ele>623.0</ele><time>2026-04-06T12:06:41.997Z</time></trkpt><trkpt lat="46.051701179480084" lon="8.742489240524801"><ele>623.0</ele><time>2026-04-06T12:06:43.997Z</time></trkpt><trkpt lat="46.05160268212922" lon="8.742468413447812"><ele>623.0</ele><time>2026-04-06T12:06:44.997Z</time></trkpt><trkpt lat="46.051547239985354" lon="8.742536140119359"><ele>623.0</ele><time>2026-04-06T12:06:45.997Z</time></trkpt><trkpt lat="46.05150643786251" lon="8.742636028575657"><ele>619.3333333333333</ele><time>2026-04-06T12:06:46.997Z</time></trkpt><trkpt lat="46.05148540684408" lon="8.74277520442451"><ele>615.6666666666666</ele><time>2026-04-06T12:06:47.997Z</time></trkpt><trkpt lat="46.05146279259329" lon="8.742873035705683"><ele>612.0</ele><time>2026-04-06T12:06:48.997Z</time></trkpt><trkpt lat="46.051419098403514" lon="8.742975289071866"><ele>608.3333333333334</ele><time>2026-04-06T12:06:49.997Z</time></trkpt><trkpt lat="46.0513635618621" lon="8.743053857366082"><ele>604.6666666666667</ele><time>2026-04-06T12:06:50.997Z</time></trkpt><trkpt lat="46.05130988958434" lon="8.743155926528472"><ele>601.0</ele><time>2026-04-06T12:06:51.997Z</time></trkpt><trkpt lat="46.051270625104856" lon="8.743253187800605"><ele>601.0</ele><time>2026-04-06T12:06:52.997Z</time></trkpt><trkpt lat="46.0512456337958" lon="8.743362731469563"><ele>601.0</ele><time>2026-04-06T12:06:53.997Z</time></trkpt><trkpt lat="46.05122092488776" lon="8.74345269740962"><ele>601.0</ele><time>2026-04-06T12:06:54.997Z</time></trkpt><trkpt lat="46.05119304092608" lon="8.743548247522117"><ele>601.0</ele><time>2026-04-06T12:06:55.997Z</time></trkpt><trkpt lat="46.05118267295106" lon="8.743645370596502"><ele>601.0</ele><time>2026-04-06T12:06:56.997Z</time></trkpt><trkpt lat="46.05113942191322" lon="8.743729379765812"><ele>601.0</ele><time>2026-04-06T12:06:57.997Z</time></trkpt><trkpt lat="46.051117050677384" lon="8.743817263332973"><ele>601.0</ele><time>2026-04-06T12:06:58.996Z</time></trkpt><trkpt lat="46.051097204227325" lon="8.743905017762682"><ele>601.8571428571428</ele><time>2026-04-06T12:06:59.996Z</time></trkpt><trkpt lat="46.05108553087579" lon="8.744000443947526"><ele>602.7142857142858</ele><time>2026-04-06T12:07:00.996Z</time></trkpt><trkpt lat="46.05107897377384" lon="8.74410030326339"><ele>603.5714285714286</ele><time>2026-04-06T12:07:01.996Z</time></trkpt><trkpt lat="46.0510672020383" lon="8.74419507796735"><ele>604.4285714285713</ele><time>2026-04-06T12:07:02.996Z</time></trkpt><trkpt lat="46.051038108233776" lon="8.744352553744301"><ele>605.2857142857142</ele><time>2026-04-06T12:07:04.996Z</time></trkpt><trkpt lat="46.050989241550305" lon="8.74442034844195"><ele>606.1428571428571</ele><time>2026-04-06T12:07:06.996Z</time></trkpt><trkpt lat="46.05093145362547" lon="8.744379663649937"><ele>607.0</ele><time>2026-04-06T12:07:08.996Z</time></trkpt><trkpt lat="46.050930084399724" lon="8.744248757476043"><ele>607.0</ele><time>2026-04-06T12:07:10.996Z</time></trkpt><trkpt lat="46.05095461832449" lon="8.744159838212033"><ele>607.0</ele><time>2026-04-06T12:07:11.996Z</time></trkpt><trkpt lat="46.05097686585716" lon="8.74407184151135"><ele>607.0</ele><time>2026-04-06T12:07:12.996Z</time></trkpt><trkpt lat="46.05101006073611" lon="8.74390914939938"><ele>607.0</ele><time>2026-04-06T12:07:14.996Z</time></trkpt><trkpt lat="46.05104509054312" lon="8.743751401481282"><ele>607.0</ele><time>2026-04-06T12:07:16.996Z</time></trkpt><trkpt lat="46.051066337915636" lon="8.743645608657959"><ele>607.0</ele><time>2026-04-06T12:07:17.996Z</time></trkpt><trkpt lat="46.05109182990284" lon="8.74352682935833"><ele>605.8000000000001</ele><time>2026-04-06T12:07:18.996Z</time></trkpt><trkpt lat="46.05110855943813" lon="8.743387140010748"><ele>604.6</ele><time>2026-04-06T12:07:19.996Z</time></trkpt><trkpt lat="46.05112517724812" lon="8.743244660269484"><ele>603.4000000000001</ele><time>2026-04-06T12:07:20.996Z</time></trkpt><trkpt lat="46.05113542815257" lon="8.743092131843099"><ele>602.2</ele><time>2026-04-06T12:07:21.996Z</time></trkpt><trkpt lat="46.05114526437806" lon="8.742937833213968"><ele>601.0</ele><time>2026-04-06T12:07:22.996Z</time></trkpt><trkpt lat="46.05115304408652" lon="8.742789826197866"><ele>599.5</ele><time>2026-04-06T12:07:23.996Z</time></trkpt><trkpt lat="46.05115950034032" lon="8.74264832028039"><ele>598.0</ele><time>2026-04-06T12:07:24.996Z</time></trkpt><trkpt lat="46.05117019348877" lon="8.742527611568708"><ele>596.5</ele><time>2026-04-06T12:07:25.996Z</time></trkpt><trkpt lat="46.051180757701154" lon="8.742420200021108"><ele>595.0</ele><time>2026-04-06T12:07:26.996Z</time></trkpt><trkpt lat="46.051197894127476" lon="8.742328918921892"><ele>593.5</ele><time>2026-04-06T12:07:27.996Z</time></trkpt><trkpt lat="46.05122430037928" lon="8.74223814636458"><ele>592.0</ele><time>2026-04-06T12:07:28.996Z</time></trkpt><trkpt lat="46.05126120865029" lon="8.742152949489057"><ele>592.0</ele><time>2026-04-06T12:07:29.996Z</time></trkpt><trkpt lat="46.05129713323474" lon="8.7420107300886"><ele>592.0</ele><time>2026-04-06T12:07:31.996Z</time></trkpt><trkpt lat="46.05120412784956" lon="8.741933243703308"><ele>592.0</ele><time>2026-04-06T12:07:33.996Z</time></trkpt><trkpt lat="46.05108587871509" lon="8.742009674343425"><ele>592.0</ele><time>2026-04-06T12:07:35.996Z</time></trkpt><trkpt lat="46.05106255194997" lon="8.74212290197349"><ele>592.0</ele><time>2026-04-06T12:07:36.996Z</time></trkpt><trkpt lat="46.051023929183195" lon="8.74225305873143"><ele>592.0</ele><time>2026-04-06T12:07:37.996Z</time></trkpt><trkpt lat="46.05098647830947" lon="8.742378481312075"><ele>592.0</ele><time>2026-04-06T12:07:38.996Z</time></trkpt><trkpt lat="46.05094444103645" lon="8.742516644378746"><ele>592.0</ele><time>2026-04-06T12:07:39.996Z</time></trkpt><trkpt lat="46.0509080239264" lon="8.742653627882229"><ele>592.0</ele><time>2026-04-06T12:07:40.996Z</time></trkpt><trkpt lat="46.05085874458734" lon="8.74278542118513"><ele>592.0</ele><time>2026-04-06T12:07:41.996Z</time></trkpt><trkpt lat="46.05081750130676" lon="8.742925944875992"><ele>588.2</ele><time>2026-04-06T12:07:42.996Z</time></trkpt><trkpt lat="46.05076954905095" lon="8.743061089319486"><ele>584.4000000000001</ele><time>2026-04-06T12:07:43.996Z</time></trkpt><trkpt lat="46.05070819479152" lon="8.743189060790884"><ele>580.5999999999999</ele><time>2026-04-06T12:07:44.996Z</time></trkpt><trkpt lat="46.05064011919206" lon="8.743321955044967"><ele>576.8</ele><time>2026-04-06T12:07:45.995Z</time></trkpt><trkpt lat="46.05056840254469" lon="8.743447940515997"><ele>573.0</ele><time>2026-04-06T12:07:46.995Z</time></trkpt><trkpt lat="46.05050543762853" lon="8.74356488405215"><ele>573.0</ele><time>2026-04-06T12:07:47.995Z</time></trkpt><trkpt lat="46.05045389405912" lon="8.743689166024078"><ele>573.0</ele><time>2026-04-06T12:07:48.995Z</time></trkpt><trkpt lat="46.0504175896569" lon="8.74383264527395"><ele>573.0</ele><time>2026-04-06T12:07:49.995Z</time></trkpt><trkpt lat="46.050367546665036" lon="8.743972117724626"><ele>573.0</ele><time>2026-04-06T12:07:50.995Z</time></trkpt><trkpt lat="46.050319668374144" lon="8.744111575633227"><ele>573.0</ele><time>2026-04-06T12:07:51.995Z</time></trkpt><trkpt lat="46.050272599668446" lon="8.744254818012216"><ele>574.0</ele><time>2026-04-06T12:07:52.995Z</time></trkpt><trkpt lat="46.050222367867555" lon="8.744389473685668"><ele>575.0</ele><time>2026-04-06T12:07:53.995Z</time></trkpt><trkpt lat="46.05016127577704" lon="8.744516108877585"><ele>576.0</ele><time>2026-04-06T12:07:54.995Z</time></trkpt><trkpt lat="46.05009385280323" lon="8.744620127076454"><ele>577.0</ele><time>2026-04-06T12:07:55.995Z</time></trkpt><trkpt lat="46.05003064715122" lon="8.744721726305142"><ele>578.0</ele><time>2026-04-06T12:07:56.995Z</time></trkpt><trkpt lat="46.04997004543207" lon="8.744807856431759"><ele>571.8333333333333</ele><time>2026-04-06T12:07:57.995Z</time></trkpt><trkpt lat="46.04992343128437" lon="8.744882814521832"><ele>565.6666666666666</ele><time>2026-04-06T12:07:58.995Z</time></trkpt><trkpt lat="46.04986707174793" lon="8.744953425967926"><ele>559.5</ele><time>2026-04-06T12:08:00.995Z</time></trkpt><trkpt lat="46.0497900155523" lon="8.744944196429143"><ele>553.3333333333334</ele><time>2026-04-06T12:08:02.995Z</time></trkpt><trkpt lat="46.049765805182936" lon="8.744804901080995"><ele>547.1666666666667</ele><time>2026-04-06T12:08:04.995Z</time></trkpt><trkpt lat="46.04981680252205" lon="8.744722140313907"><ele>541.0</ele><time>2026-04-06T12:08:05.995Z</time></trkpt><trkpt lat="46.0498566802454" lon="8.744613215592173"><ele>541.0</ele><time>2026-04-06T12:08:06.995Z</time></trkpt><trkpt lat="46.049883481606734" lon="8.744480658384813"><ele>541.0</ele><time>2026-04-06T12:08:07.995Z</time></trkpt><trkpt lat="46.049929365828646" lon="8.744337718713766"><ele>541.0</ele><time>2026-04-06T12:08:08.995Z</time></trkpt><trkpt lat="46.0499684879155" lon="8.74418365721274"><ele>541.0</ele><time>2026-04-06T12:08:09.995Z</time></trkpt><trkpt lat="46.04998455348" lon="8.744021684156758"><ele>541.0</ele><time>2026-04-06T12:08:10.995Z</time></trkpt><trkpt lat="46.04998203687117" lon="8.743853873954498"><ele>546.4</ele><time>2026-04-06T12:08:11.995Z</time></trkpt><trkpt lat="46.04997528115668" lon="8.743693912519122"><ele>551.8</ele><time>2026-04-06T12:08:12.995Z</time></trkpt><trkpt lat="46.04997039236552" lon="8.743523463974794"><ele>557.1999999999999</ele><time>2026-04-06T12:08:13.995Z</time></trkpt><trkpt lat="46.04997072461179" lon="8.74336176200053"><ele>562.6</ele><time>2026-04-06T12:08:14.995Z</time></trkpt><trkpt lat="46.04996196794411" lon="8.74320873064122"><ele>568.0</ele><time>2026-04-06T12:08:15.995Z</time></trkpt><trkpt lat="46.04996204861062" lon="8.743055019646023"><ele>568.0</ele><time>2026-04-06T12:08:16.995Z</time></trkpt><trkpt lat="46.04996105377545" lon="8.742908985772052"><ele>568.0</ele><time>2026-04-06T12:08:17.995Z</time></trkpt><trkpt lat="46.04996811334223" lon="8.742757291379561"><ele>568.0</ele><time>2026-04-06T12:08:18.995Z</time></trkpt><trkpt lat="46.0499935968009" lon="8.742607313095693"><ele>568.0</ele><time>2026-04-06T12:08:19.995Z</time></trkpt><trkpt lat="46.05004156796186" lon="8.742475392094569"><ele>568.0</ele><time>2026-04-06T12:08:20.995Z</time></trkpt><trkpt lat="46.05008123348036" lon="8.74234477441701"><ele>567.1666666666667</ele><time>2026-04-06T12:08:21.995Z</time></trkpt><trkpt lat="46.05011968975955" lon="8.74222915981353"><ele>566.3333333333334</ele><time>2026-04-06T12:08:22.995Z</time></trkpt><trkpt lat="46.050144204263475" lon="8.742137161962024"><ele>565.5</ele><time>2026-04-06T12:08:23.995Z</time></trkpt><trkpt lat="46.050144776970605" lon="8.742029188256469"><ele>564.6666666666666</ele><time>2026-04-06T12:08:24.995Z</time></trkpt><trkpt lat="46.05009489909195" lon="8.741935020392678"><ele>563.8333333333333</ele><time>2026-04-06T12:08:25.995Z</time></trkpt><trkpt lat="46.050027578855214" lon="8.741891738716381"><ele>563.0</ele><time>2026-04-06T12:08:26.995Z</time></trkpt><trkpt lat="46.04996346560937" lon="8.741927960356827"><ele>558.8</ele><time>2026-04-06T12:08:27.995Z</time></trkpt><trkpt lat="46.049901139558344" lon="8.741958755260542"><ele>554.5999999999999</ele><time>2026-04-06T12:08:28.995Z</time></trkpt><trkpt lat="46.04982165774389" lon="8.74199627459996"><ele>550.4000000000001</ele><time>2026-04-06T12:08:29.995Z</time></trkpt><trkpt lat="46.049726076445914" lon="8.742056444179696"><ele>546.2</ele><time>2026-04-06T12:08:30.995Z</time></trkpt><trkpt lat="46.049629955965514" lon="8.742119277102203"><ele>542.0</ele><time>2026-04-06T12:08:31.995Z</time></trkpt><trkpt lat="46.049548818882336" lon="8.742195966314302"><ele>542.0</ele><time>2026-04-06T12:08:32.994Z</time></trkpt><trkpt lat="46.049475843065274" lon="8.742302161775784"><ele>542.0</ele><time>2026-04-06T12:08:33.994Z</time></trkpt><trkpt lat="46.04940830432807" lon="8.74241122466865"><ele>542.0</ele><time>2026-04-06T12:08:34.994Z</time></trkpt><trkpt lat="46.049334042643665" lon="8.742535545318626"><ele>542.0</ele><time>2026-04-06T12:08:35.994Z</time></trkpt><trkpt lat="46.04926453386618" lon="8.742662306784359"><ele>542.0</ele><time>2026-04-06T12:08:36.994Z</time></trkpt><trkpt lat="46.04920459271685" lon="8.742786508046299"><ele>542.2</ele><time>2026-04-06T12:08:37.994Z</time></trkpt><trkpt lat="46.049153906357546" lon="8.742910546849817"><ele>542.4000000000001</ele><time>2026-04-06T12:08:38.994Z</time></trkpt><trkpt lat="46.04912046896874" lon="8.743038361125905"><ele>542.5999999999999</ele><time>2026-04-06T12:08:39.994Z</time></trkpt><trkpt lat="46.049100357950614" lon="8.743177714812322"><ele>542.8</ele><time>2026-04-06T12:08:40.994Z</time></trkpt><trkpt lat="46.04908949365913" lon="8.743326217334188"><ele>543.0</ele><time>2026-04-06T12:08:41.994Z</time></trkpt><trkpt lat="46.0490849192644" lon="8.743498909118516"><ele>534.0</ele><time>2026-04-06T12:08:42.994Z</time></trkpt><trkpt lat="46.049073945554035" lon="8.743667207219469"><ele>525.0</ele><time>2026-04-06T12:08:43.994Z</time></trkpt><trkpt lat="46.049067386301076" lon="8.743822091960583"><ele>516.0</ele><time>2026-04-06T12:08:44.994Z</time></trkpt><trkpt lat="46.0490734482278" lon="8.743979600241579"><ele>507.0</ele><time>2026-04-06T12:08:45.994Z</time></trkpt><trkpt lat="46.04908986804025" lon="8.74414248939276"><ele>498.0</ele><time>2026-04-06T12:08:46.994Z</time></trkpt><trkpt lat="46.04912357395861" lon="8.744328336891812"><ele>497.25</ele><time>2026-04-06T12:08:47.994Z</time></trkpt><trkpt lat="46.04911164053584" lon="8.744536593104995"><ele>496.5</ele><time>2026-04-06T12:08:48.994Z</time></trkpt><trkpt lat="46.04910783538729" lon="8.744723133965332"><ele>495.75</ele><time>2026-04-06T12:08:49.994Z</time></trkpt><trkpt lat="46.04910435754168" lon="8.744894249774676"><ele>495.0</ele><time>2026-04-06T12:08:50.994Z</time></trkpt><trkpt lat="46.04911920232239" lon="8.74504336448184"><ele>495.0</ele><time>2026-04-06T12:08:51.994Z</time></trkpt><trkpt lat="46.04912568374485" lon="8.745198096387869"><ele>495.0</ele><time>2026-04-06T12:08:52.994Z</time></trkpt><trkpt lat="46.04913395175591" lon="8.745356330897945"><ele>495.0</ele><time>2026-04-06T12:08:53.994Z</time></trkpt><trkpt lat="46.04912743557659" lon="8.74549786678616"><ele>495.0</ele><time>2026-04-06T12:08:54.994Z</time></trkpt><trkpt lat="46.04908712733866" lon="8.745651568277301"><ele>495.0</ele><time>2026-04-06T12:08:55.994Z</time></trkpt><trkpt lat="46.049040919652896" lon="8.745808891490233"><ele>496.0</ele><time>2026-04-06T12:08:56.994Z</time></trkpt><trkpt lat="46.04898922968559" lon="8.74597190291135"><ele>497.0</ele><time>2026-04-06T12:08:57.994Z</time></trkpt><trkpt lat="46.048932312179204" lon="8.746147669675404"><ele>498.0</ele><time>2026-04-06T12:08:58.994Z</time></trkpt><trkpt lat="46.04887098998259" lon="8.746341692200488"><ele>499.0</ele><time>2026-04-06T12:08:59.994Z</time></trkpt><trkpt lat="46.048791110901306" lon="8.746514887016989"><ele>498.2</ele><time>2026-04-06T12:09:00.994Z</time></trkpt><trkpt lat="46.048731902925184" lon="8.74666352215126"><ele>497.4</ele><time>2026-04-06T12:09:01.994Z</time></trkpt><trkpt lat="46.04868067287329" lon="8.746793858282583"><ele>496.6</ele><time>2026-04-06T12:09:02.994Z</time></trkpt><trkpt lat="46.048638224110306" lon="8.746921884951394"><ele>495.8</ele><time>2026-04-06T12:09:03.994Z</time></trkpt><trkpt lat="46.04861986650139" lon="8.747046098649156"><ele>495.0</ele><time>2026-04-06T12:09:04.994Z</time></trkpt><trkpt lat="46.04863016749056" lon="8.747169892316988"><ele>495.0</ele><time>2026-04-06T12:09:05.994Z</time></trkpt><trkpt lat="46.04864363754598" lon="8.747307704835178"><ele>495.0</ele><time>2026-04-06T12:09:06.994Z</time></trkpt><trkpt lat="46.04868510315016" lon="8.747450935891646"><ele>495.0</ele><time>2026-04-06T12:09:07.994Z</time></trkpt><trkpt lat="46.04874806363079" lon="8.747607769507775"><ele>495.0</ele><time>2026-04-06T12:09:08.994Z</time></trkpt><trkpt lat="46.048801102082976" lon="8.747773637206242"><ele>493.0</ele><time>2026-04-06T12:09:09.994Z</time></trkpt><trkpt lat="46.04885269707996" lon="8.747939540530188"><ele>491.0</ele><time>2026-04-06T12:09:10.994Z</time></trkpt><trkpt lat="46.0488869225981" lon="8.748107311709054"><ele>489.0</ele><time>2026-04-06T12:09:11.994Z</time></trkpt><trkpt lat="46.04893015553693" lon="8.748281842505842"><ele>487.0</ele><time>2026-04-06T12:09:12.994Z</time></trkpt><trkpt lat="46.04897199518717" lon="8.748462053286282"><ele>485.75</ele><time>2026-04-06T12:09:13.994Z</time></trkpt><trkpt lat="46.04900827205781" lon="8.748632000903786"><ele>484.5</ele><time>2026-04-06T12:09:14.994Z</time></trkpt><trkpt lat="46.04904358445901" lon="8.748826246448894"><ele>483.25</ele><time>2026-04-06T12:09:15.994Z</time></trkpt><trkpt lat="46.04907842431475" lon="8.749018094570484"><ele>482.0</ele><time>2026-04-06T12:09:16.994Z</time></trkpt><trkpt lat="46.049118162045026" lon="8.749207254794154"><ele>486.25</ele><time>2026-04-06T12:09:17.994Z</time></trkpt><trkpt lat="46.04914919163326" lon="8.74940951760886"><ele>490.5</ele><time>2026-04-06T12:09:18.994Z</time></trkpt><trkpt lat="46.04918295427493" lon="8.749614982530689"><ele>494.75</ele><time>2026-04-06T12:09:19.993Z</time></trkpt><trkpt lat="46.049218778676924" lon="8.749827160566431"><ele>499.0</ele><time>2026-04-06T12:09:20.993Z</time></trkpt><trkpt lat="46.04925053288049" lon="8.750033166517758"><ele>496.5</ele><time>2026-04-06T12:09:21.993Z</time></trkpt><trkpt lat="46.04928435210921" lon="8.75023400249128"><ele>494.0</ele><time>2026-04-06T12:09:22.993Z</time></trkpt><trkpt lat="46.04931575331459" lon="8.75041755962552"><ele>491.5</ele><time>2026-04-06T12:09:23.993Z</time></trkpt><trkpt lat="46.049344709861806" lon="8.750571040191284"><ele>489.0</ele><time>2026-04-06T12:09:24.993Z</time></trkpt><trkpt lat="46.049350556884804" lon="8.750731757916279"><ele>489.0</ele><time>2026-04-06T12:09:25.993Z</time></trkpt><trkpt lat="46.0493699867453" lon="8.75087261812374"><ele>489.0</ele><time>2026-04-06T12:09:26.993Z</time></trkpt><trkpt lat="46.04937525948014" lon="8.75101152570903"><ele>489.0</ele><time>2026-04-06T12:09:27.993Z</time></trkpt><trkpt lat="46.04936903051781" lon="8.751165117366163"><ele>489.0</ele><time>2026-04-06T12:09:28.993Z</time></trkpt><trkpt lat="46.04935615383144" lon="8.751304841338793"><ele>489.0</ele><time>2026-04-06T12:09:29.993Z</time></trkpt><trkpt lat="46.04934347856946" lon="8.751439096025589"><ele>488.1666666666667</ele><time>2026-04-06T12:09:30.993Z</time></trkpt><trkpt lat="46.04933175277621" lon="8.751551677193637"><ele>487.33333333333337</ele><time>2026-04-06T12:09:31.993Z</time></trkpt><trkpt lat="46.049322544321484" lon="8.75164942834328"><ele>486.5</ele><time>2026-04-06T12:09:32.993Z</time></trkpt><trkpt lat="46.049314112160914" lon="8.751798216111174"><ele>485.6666666666667</ele><time>2026-04-06T12:09:34.993Z</time></trkpt><trkpt lat="46.04927634765316" lon="8.751886935141794"><ele>484.83333333333337</ele><time>2026-04-06T12:09:37.993Z</time></trkpt><trkpt lat="46.049199006708015" lon="8.751795376770946"><ele>484.0</ele><time>2026-04-06T12:09:40.993Z</time></trkpt><trkpt lat="46.04920635720555" lon="8.751703888930424"><ele>484.00000000000006</ele><time>2026-04-06T12:09:41.993Z</time></trkpt><trkpt lat="46.04919897130364" lon="8.751609542878931"><ele>484.0</ele><time>2026-04-06T12:09:42.993Z</time></trkpt><trkpt lat="46.049190833587474" lon="8.751491523350394"><ele>484.0</ele><time>2026-04-06T12:09:43.993Z</time></trkpt><trkpt lat="46.04918353427846" lon="8.75135559697031"><ele>484.0</ele><time>2026-04-06T12:09:44.993Z</time></trkpt><trkpt lat="46.049177124330924" lon="8.75122816489504"><ele>484.00000000000006</ele><time>2026-04-06T12:09:45.993Z</time></trkpt><trkpt lat="46.0491702670492" lon="8.751105736091358"><ele>484.0</ele><time>2026-04-06T12:09:46.993Z</time></trkpt><trkpt lat="46.04916120582798" lon="8.75099397158927"><ele>479.0</ele><time>2026-04-06T12:09:47.993Z</time></trkpt><trkpt lat="46.04912051675788" lon="8.750889842361454"><ele>474.0</ele><time>2026-04-06T12:09:48.993Z</time></trkpt><trkpt lat="46.04906301001062" lon="8.750803253204664"><ele>469.0</ele><time>2026-04-06T12:09:49.993Z</time></trkpt><trkpt lat="46.04898787054417" lon="8.750706149171057"><ele>464.0</ele><time>2026-04-06T12:09:50.993Z</time></trkpt><trkpt lat="46.04889836379184" lon="8.750589965465844"><ele>459.0</ele><time>2026-04-06T12:09:51.993Z</time></trkpt><trkpt lat="46.048806521182534" lon="8.750465911899028"><ele>459.0</ele><time>2026-04-06T12:09:52.993Z</time></trkpt><trkpt lat="46.04872813951805" lon="8.750355958401522"><ele>459.0</ele><time>2026-04-06T12:09:53.993Z</time></trkpt><trkpt lat="46.04864936034646" lon="8.750255589266942"><ele>459.0</ele><time>2026-04-06T12:09:54.993Z</time></trkpt><trkpt lat="46.04854571068032" lon="8.750186459731474"><ele>459.0</ele><time>2026-04-06T12:09:55.993Z</time></trkpt><trkpt lat="46.04843687777054" lon="8.75014708727886"><ele>459.0</ele><time>2026-04-06T12:09:56.993Z</time></trkpt><trkpt lat="46.04832767032234" lon="8.750115902765636"><ele>456.4</ele><time>2026-04-06T12:09:57.993Z</time></trkpt><trkpt lat="46.048228995330305" lon="8.750076361363545"><ele>453.79999999999995</ele><time>2026-04-06T12:09:58.993Z</time></trkpt><trkpt lat="46.0481507553101" lon="8.750017458246516"><ele>451.20000000000005</ele><time>2026-04-06T12:09:59.993Z</time></trkpt><trkpt lat="46.04805446710772" lon="8.749989009489804"><ele>448.6</ele><time>2026-04-06T12:10:00.993Z</time></trkpt><trkpt lat="46.047982674402135" lon="8.749885607738472"><ele>446.0</ele><time>2026-04-06T12:10:01.993Z</time></trkpt><trkpt lat="46.04791280550631" lon="8.749767740687378"><ele>446.0</ele><time>2026-04-06T12:10:02.993Z</time></trkpt><trkpt lat="46.04784359370383" lon="8.749647080169716"><ele>446.0</ele><time>2026-04-06T12:10:03.993Z</time></trkpt><trkpt lat="46.04781394719003" lon="8.749487488980803"><ele>446.0</ele><time>2026-04-06T12:10:04.993Z</time></trkpt><trkpt lat="46.047754565409356" lon="8.749379876607023"><ele>446.0</ele><time>2026-04-06T12:10:05.993Z</time></trkpt><trkpt lat="46.04770426807772" lon="8.749268786402126"><ele>446.0</ele><time>2026-04-06T12:10:06.992Z</time></trkpt><trkpt lat="46.047662802959984" lon="8.749148088063404"><ele>446.6</ele><time>2026-04-06T12:10:07.992Z</time></trkpt><trkpt lat="46.04762506395641" lon="8.749027343015811"><ele>447.20000000000005</ele><time>2026-04-06T12:10:08.992Z</time></trkpt><trkpt lat="46.0475916269944" lon="8.748894982654374"><ele>447.79999999999995</ele><time>2026-04-06T12:10:09.992Z</time></trkpt><trkpt lat="46.047593259907416" lon="8.748736024127"><ele>448.4</ele><time>2026-04-06T12:10:10.992Z</time></trkpt><trkpt lat="46.047606444876784" lon="8.748563958573774"><ele>449.0</ele><time>2026-04-06T12:10:11.992Z</time></trkpt><trkpt lat="46.04761573283892" lon="8.748400259869136"><ele>449.0</ele><time>2026-04-06T12:10:12.992Z</time></trkpt><trkpt lat="46.047637867726074" lon="8.74825532232112"><ele>449.0</ele><time>2026-04-06T12:10:13.992Z</time></trkpt><trkpt lat="46.047679075429514" lon="8.748126240338063"><ele>449.0</ele><time>2026-04-06T12:10:14.992Z</time></trkpt><trkpt lat="46.04772067761262" lon="8.748004644319064"><ele>449.0</ele><time>2026-04-06T12:10:15.992Z</time></trkpt><trkpt lat="46.04774203002052" lon="8.747876271656931"><ele>449.0</ele><time>2026-04-06T12:10:16.992Z</time></trkpt><trkpt lat="46.047734129844194" lon="8.747744199450306"><ele>449.4</ele><time>2026-04-06T12:10:17.992Z</time></trkpt><trkpt lat="46.047709657458945" lon="8.747602551379476"><ele>449.79999999999995</ele><time>2026-04-06T12:10:18.992Z</time></trkpt><trkpt lat="46.04763572833935" lon="8.747476595262288"><ele>450.20000000000005</ele><time>2026-04-06T12:10:19.992Z</time></trkpt><trkpt lat="46.04760028111839" lon="8.747340647092082"><ele>450.6</ele><time>2026-04-06T12:10:20.992Z</time></trkpt><trkpt lat="46.047593433813354" lon="8.747210465994907"><ele>451.0</ele><time>2026-04-06T12:10:21.992Z</time></trkpt><trkpt lat="46.04760083756813" lon="8.74707014167468"><ele>451.0</ele><time>2026-04-06T12:10:22.992Z</time></trkpt><trkpt lat="46.04762774341416" lon="8.746927181683718"><ele>451.0</ele><time>2026-04-06T12:10:23.992Z</time></trkpt><trkpt lat="46.047648353533084" lon="8.74677857435776"><ele>451.0</ele><time>2026-04-06T12:10:24.992Z</time></trkpt><trkpt lat="46.0476503364382" lon="8.746619494034109"><ele>451.0</ele><time>2026-04-06T12:10:25.992Z</time></trkpt><trkpt lat="46.04762649170046" lon="8.746451593758193"><ele>451.0</ele><time>2026-04-06T12:10:26.992Z</time></trkpt><trkpt lat="46.04758437097821" lon="8.746294159780932"><ele>451.33333333333337</ele><time>2026-04-06T12:10:27.992Z</time></trkpt><trkpt lat="46.04754416906554" lon="8.746153225848895"><ele>451.6666666666667</ele><time>2026-04-06T12:10:28.992Z</time></trkpt><trkpt lat="46.047516863345386" lon="8.74602925829559"><ele>452.0</ele><time>2026-04-06T12:10:29.992Z</time></trkpt><trkpt lat="46.04751807627159" lon="8.745906681040237"><ele>452.33333333333337</ele><time>2026-04-06T12:10:30.992Z</time></trkpt><trkpt lat="46.04755559480342" lon="8.745796858201484"><ele>452.6666666666667</ele><time>2026-04-06T12:10:31.992Z</time></trkpt><trkpt lat="46.04760654668304" lon="8.745713106078854"><ele>453.0</ele><time>2026-04-06T12:10:32.992Z</time></trkpt><trkpt lat="46.04764950287092" lon="8.74563780073358"><ele>451.4</ele><time>2026-04-06T12:10:33.992Z</time></trkpt><trkpt lat="46.04763261801156" lon="8.745515647012637"><ele>449.79999999999995</ele><time>2026-04-06T12:10:35.992Z</time></trkpt><trkpt lat="46.047499646126724" lon="8.74550618937537"><ele>448.2</ele><time>2026-04-06T12:10:37.992Z</time></trkpt><trkpt lat="46.047450872049225" lon="8.745631460709351"><ele>446.6</ele><time>2026-04-06T12:10:38.992Z</time></trkpt><trkpt lat="46.0474303186148" lon="8.745749672892927"><ele>445.0</ele><time>2026-04-06T12:10:39.992Z</time></trkpt><trkpt lat="46.047419678439" lon="8.745882926975757"><ele>434.2</ele><time>2026-04-06T12:10:40.992Z</time></trkpt><trkpt lat="46.047405150675964" lon="8.746046036829673"><ele>423.4</ele><time>2026-04-06T12:10:41.992Z</time></trkpt><trkpt lat="46.04739015477995" lon="8.746205061084675"><ele>412.6</ele><time>2026-04-06T12:10:42.992Z</time></trkpt><trkpt lat="46.047373478801276" lon="8.746372943617752"><ele>401.8</ele><time>2026-04-06T12:10:43.992Z</time></trkpt><trkpt lat="46.04735844600948" lon="8.74652377618358"><ele>391.0</ele><time>2026-04-06T12:10:44.992Z</time></trkpt><trkpt lat="46.047345609214034" lon="8.746672003658716"><ele>391.0</ele><time>2026-04-06T12:10:45.992Z</time></trkpt><trkpt lat="46.04733286422848" lon="8.746818649717051"><ele>391.0</ele><time>2026-04-06T12:10:46.992Z</time></trkpt><trkpt lat="46.047320086781866" lon="8.746963912815184"><ele>391.0</ele><time>2026-04-06T12:10:47.992Z</time></trkpt><trkpt lat="46.0473067929253" lon="8.74711504683818"><ele>391.0</ele><time>2026-04-06T12:10:48.992Z</time></trkpt><trkpt lat="46.047292249786345" lon="8.747280383382748"><ele>391.0</ele><time>2026-04-06T12:10:49.992Z</time></trkpt><trkpt lat="46.04727649424863" lon="8.747459503505109"><ele>393.0</ele><time>2026-04-06T12:10:50.992Z</time></trkpt><trkpt lat="46.04726153322005" lon="8.747629590907076"><ele>395.0</ele><time>2026-04-06T12:10:51.992Z</time></trkpt><trkpt lat="46.04723515600301" lon="8.74778324045184"><ele>397.0</ele><time>2026-04-06T12:10:52.992Z</time></trkpt><trkpt lat="46.047195859024725" lon="8.747931250473851"><ele>399.0</ele><time>2026-04-06T12:10:53.991Z</time></trkpt><trkpt lat="46.04716323523805" lon="8.74804862458367"><ele>401.0</ele><time>2026-04-06T12:10:54.991Z</time></trkpt><trkpt lat="46.047122283261054" lon="8.748180231237374"><ele>403.0</ele><time>2026-04-06T12:10:55.991Z</time></trkpt><trkpt lat="46.047088875412975" lon="8.74832948534214"><ele>405.0</ele><time>2026-04-06T12:10:56.991Z</time></trkpt><trkpt lat="46.04703607713917" lon="8.748492957160167"><ele>407.0</ele><time>2026-04-06T12:10:57.991Z</time></trkpt><trkpt lat="46.04699298472222" lon="8.748668602024937"><ele>409.0</ele><time>2026-04-06T12:10:58.991Z</time></trkpt><trkpt lat="46.046955510246704" lon="8.748848011190878"><ele>409.75</ele><time>2026-04-06T12:10:59.991Z</time></trkpt><trkpt lat="46.04692114669565" lon="8.749022793561954"><ele>410.5</ele><time>2026-04-06T12:11:00.991Z</time></trkpt><trkpt lat="46.046888500886524" lon="8.749185488276883"><ele>411.25</ele><time>2026-04-06T12:11:01.991Z</time></trkpt><trkpt lat="46.04686020172277" lon="8.749347203324891"><ele>412.0</ele><time>2026-04-06T12:11:02.991Z</time></trkpt><trkpt lat="46.04684685009981" lon="8.749512353992433"><ele>412.0</ele><time>2026-04-06T12:11:03.991Z</time></trkpt><trkpt lat="46.04683437705337" lon="8.74967574771152"><ele>412.0</ele><time>2026-04-06T12:11:04.991Z</time></trkpt><trkpt lat="46.04683215933322" lon="8.749843165086325"><ele>412.0</ele><time>2026-04-06T12:11:05.991Z</time></trkpt><trkpt lat="46.046846961630976" lon="8.750017995946477"><ele>412.0</ele><time>2026-04-06T12:11:06.991Z</time></trkpt><trkpt lat="46.04686208779458" lon="8.750198916162178"><ele>410.0</ele><time>2026-04-06T12:11:07.991Z</time></trkpt><trkpt lat="46.046870211427766" lon="8.750385351282224"><ele>408.0</ele><time>2026-04-06T12:11:08.991Z</time></trkpt><trkpt lat="46.0468824765533" lon="8.75056576477614"><ele>406.0</ele><time>2026-04-06T12:11:09.991Z</time></trkpt><trkpt lat="46.04689465914455" lon="8.75072507153581"><ele>404.0</ele><time>2026-04-06T12:11:10.991Z</time></trkpt><trkpt lat="46.04692143434274" lon="8.750870041866213"><ele>404.0</ele><time>2026-04-06T12:11:11.991Z</time></trkpt><trkpt lat="46.04696134083076" lon="8.751004050906127"><ele>404.0</ele><time>2026-04-06T12:11:12.991Z</time></trkpt><trkpt lat="46.047014157494985" lon="8.751151642006574"><ele>404.0</ele><time>2026-04-06T12:11:13.991Z</time></trkpt><trkpt lat="46.047092648217294" lon="8.751299353506191"><ele>404.0</ele><time>2026-04-06T12:11:14.991Z</time></trkpt><trkpt lat="46.04717885495861" lon="8.751427952836274"><ele>403.79999999999995</ele><time>2026-04-06T12:11:15.991Z</time></trkpt><trkpt lat="46.04723346750361" lon="8.751563191634265"><ele>403.59999999999997</ele><time>2026-04-06T12:11:16.991Z</time></trkpt><trkpt lat="46.04728874924407" lon="8.75167559104415"><ele>403.4</ele><time>2026-04-06T12:11:17.991Z</time></trkpt><trkpt lat="46.047337704431136" lon="8.751765535809739"><ele>403.2</ele><time>2026-04-06T12:11:18.991Z</time></trkpt><trkpt lat="46.04735868006543" lon="8.751908270345249"><ele>403.0</ele><time>2026-04-06T12:11:20.991Z</time></trkpt><trkpt lat="46.047303634054934" lon="8.751980309875862"><ele>403.00000000000006</ele><time>2026-04-06T12:11:22.991Z</time></trkpt><trkpt lat="46.04722984802492" lon="8.751914147067811"><ele>403.0</ele><time>2026-04-06T12:11:23.991Z</time></trkpt><trkpt lat="46.04715040184272" lon="8.751895070234768"><ele>403.0</ele><time>2026-04-06T12:11:24.991Z</time></trkpt><trkpt lat="46.04708687215392" lon="8.751827831651019"><ele>403.0</ele><time>2026-04-06T12:11:25.991Z</time></trkpt><trkpt lat="46.04701803562816" lon="8.751794183424495"><ele>403.00000000000006</ele><time>2026-04-06T12:11:26.991Z</time></trkpt><trkpt lat="46.046963107834635" lon="8.751715229352198"><ele>403.0</ele><time>2026-04-06T12:11:27.991Z</time></trkpt><trkpt lat="46.046920908643436" lon="8.751595791644235"><ele>403.0</ele><time>2026-04-06T12:11:28.991Z</time></trkpt><trkpt lat="46.04685972387407" lon="8.751478299086259"><ele>403.0</ele><time>2026-04-06T12:11:29.991Z</time></trkpt><trkpt lat="46.0467817830552" lon="8.75135957890293"><ele>403.0</ele><time>2026-04-06T12:11:30.991Z</time></trkpt><trkpt lat="46.0467193282754" lon="8.751208985835742"><ele>403.0</ele><time>2026-04-06T12:11:31.991Z</time></trkpt><trkpt lat="46.04665191937353" lon="8.7510735601259"><ele>394.5</ele><time>2026-04-06T12:11:32.991Z</time></trkpt><trkpt lat="46.04657900504068" lon="8.75094167480807"><ele>386.0</ele><time>2026-04-06T12:11:33.991Z</time></trkpt><trkpt lat="46.04650999070629" lon="8.750809625561642"><ele>377.5</ele><time>2026-04-06T12:11:34.991Z</time></trkpt><trkpt lat="46.04644342455164" lon="8.750673358829307"><ele>369.0</ele><time>2026-04-06T12:11:35.991Z</time></trkpt><trkpt lat="46.046382502770456" lon="8.750532973458348"><ele>369.0</ele><time>2026-04-06T12:11:36.991Z</time></trkpt><trkpt lat="46.04632889959283" lon="8.750383743668564"><ele>369.0</ele><time>2026-04-06T12:11:37.991Z</time></trkpt><trkpt lat="46.046281258716384" lon="8.750222131836958"><ele>369.0</ele><time>2026-04-06T12:11:38.991Z</time></trkpt><trkpt lat="46.04624466543979" lon="8.750036164018175"><ele>369.0</ele><time>2026-04-06T12:11:39.991Z</time></trkpt><trkpt lat="46.046221796835034" lon="8.74984222318919"><ele>369.0</ele><time>2026-04-06T12:11:40.99Z</time></trkpt><trkpt lat="46.04620592063991" lon="8.749646810538097"><ele>369.0</ele><time>2026-04-06T12:11:41.99Z</time></trkpt><trkpt lat="46.04619269754653" lon="8.749453584493954"><ele>369.0</ele><time>2026-04-06T12:11:42.99Z</time></trkpt><trkpt lat="46.04619869339354" lon="8.749265666844156"><ele>369.0</ele><time>2026-04-06T12:11:43.99Z</time></trkpt><trkpt lat="46.046185499066205" lon="8.749095890811242"><ele>369.0</ele><time>2026-04-06T12:11:44.99Z</time></trkpt><trkpt lat="46.046176410635" lon="8.748957113328965"><ele>369.0</ele><time>2026-04-06T12:11:45.99Z</time></trkpt><trkpt lat="46.046162529384894" lon="8.748834502709009"><ele>369.0</ele><time>2026-04-06T12:11:46.99Z</time></trkpt><trkpt lat="46.04621262876104" lon="8.748720295711214"><ele>369.0</ele><time>2026-04-06T12:11:47.99Z</time></trkpt><trkpt lat="46.046249092583" lon="8.74857558393143"><ele>369.0</ele><time>2026-04-06T12:11:48.99Z</time></trkpt><trkpt lat="46.04626752389923" lon="8.748408410550509"><ele>368.5</ele><time>2026-04-06T12:11:49.99Z</time></trkpt><trkpt lat="46.04629443938326" lon="8.748224783707268"><ele>368.0</ele><time>2026-04-06T12:11:50.99Z</time></trkpt><trkpt lat="46.04632061179602" lon="8.748036720827866"><ele>367.5</ele><time>2026-04-06T12:11:51.99Z</time></trkpt><trkpt lat="46.046344031535675" lon="8.747855252293869"><ele>367.0</ele><time>2026-04-06T12:11:52.99Z</time></trkpt><trkpt lat="46.046369771692554" lon="8.747711379988147"><ele>366.3333333333333</ele><time>2026-04-06T12:11:53.99Z</time></trkpt><trkpt lat="46.04639551725874" lon="8.747589612058388"><ele>365.66666666666663</ele><time>2026-04-06T12:11:54.99Z</time></trkpt><trkpt lat="46.04642995006957" lon="8.747499061188849"><ele>365.0</ele><time>2026-04-06T12:11:55.99Z</time></trkpt><trkpt lat="46.04648263303438" lon="8.747400337656568"><ele>364.3333333333333</ele><time>2026-04-06T12:11:57.99Z</time></trkpt><trkpt lat="46.0465334679108" lon="8.747324260228162"><ele>363.6666666666667</ele><time>2026-04-06T12:11:59.99Z</time></trkpt><trkpt lat="46.046570555588524" lon="8.747225585109177"><ele>363.0</ele><time>2026-04-06T12:12:02.99Z</time></trkpt><trkpt lat="46.04657945068325" lon="8.74706858524911"><ele>363.0</ele><time>2026-04-06T12:12:05.99Z</time></trkpt><trkpt lat="46.04656358278907" lon="8.746951230206253"><ele>363.0</ele><time>2026-04-06T12:12:06.99Z</time></trkpt><trkpt lat="46.046552358943764" lon="8.746822994103953"><ele>363.0</ele><time>2026-04-06T12:12:07.99Z</time></trkpt><trkpt lat="46.04655020798775" lon="8.74669931507561"><ele>363.0</ele><time>2026-04-06T12:12:08.99Z</time></trkpt><trkpt lat="46.04654841143513" lon="8.746554004623656"><ele>363.0</ele><time>2026-04-06T12:12:09.99Z</time></trkpt><trkpt lat="46.046544641832824" lon="8.746401975793647"><ele>361.4</ele><time>2026-04-06T12:12:10.99Z</time></trkpt><trkpt lat="46.04654269316659" lon="8.746256553221254"><ele>359.79999999999995</ele><time>2026-04-06T12:12:11.99Z</time></trkpt><trkpt lat="46.04654349685714" lon="8.746114986528493"><ele>358.2</ele><time>2026-04-06T12:12:12.99Z</time></trkpt><trkpt lat="46.046544072516994" lon="8.745975566980091"><ele>356.6</ele><time>2026-04-06T12:12:13.99Z</time></trkpt><trkpt lat="46.04655645022719" lon="8.745842220131863"><ele>355.0</ele><time>2026-04-06T12:12:14.99Z</time></trkpt><trkpt lat="46.04656494760455" lon="8.745718696810869"><ele>354.0</ele><time>2026-04-06T12:12:15.99Z</time></trkpt><trkpt lat="46.04656010629862" lon="8.745594794837647"><ele>353.0</ele><time>2026-04-06T12:12:16.99Z</time></trkpt><trkpt lat="46.046542801961444" lon="8.745473018442128"><ele>352.0</ele><time>2026-04-06T12:12:17.99Z</time></trkpt><trkpt lat="46.04651454178699" lon="8.745343798891831"><ele>351.0</ele><time>2026-04-06T12:12:18.99Z</time></trkpt><trkpt lat="46.046490369958256" lon="8.745222950399855"><ele>350.0</ele><time>2026-04-06T12:12:19.99Z</time></trkpt><trkpt lat="46.04646825963124" lon="8.745103670636716"><ele>349.0</ele><time>2026-04-06T12:12:20.99Z</time></trkpt><trkpt lat="46.04644820854169" lon="8.744991607917829"><ele>348.5</ele><time>2026-04-06T12:12:21.99Z</time></trkpt><trkpt lat="46.046426120316696" lon="8.744874299927773"><ele>348.0</ele><time>2026-04-06T12:12:22.99Z</time></trkpt><trkpt lat="46.04640742266885" lon="8.744755184583871"><ele>347.5</ele><time>2026-04-06T12:12:23.99Z</time></trkpt><trkpt lat="46.04638344621566" lon="8.7446184027945"><ele>347.0</ele><time>2026-04-06T12:12:24.99Z</time></trkpt><trkpt lat="46.04636042397449" lon="8.744487120968135"><ele>346.5</ele><time>2026-04-06T12:12:25.99Z</time></trkpt><trkpt lat="46.04634020528991" lon="8.744365595088118"><ele>346.0</ele><time>2026-04-06T12:12:26.99Z</time></trkpt><trkpt lat="46.046321960805905" lon="8.744255280070368"><ele>346.0</ele><time>2026-04-06T12:12:27.989Z</time></trkpt><trkpt lat="46.046305614503886" lon="8.74415080884394"><ele>346.0</ele><time>2026-04-06T12:12:28.989Z</time></trkpt><trkpt lat="46.04625603695357" lon="8.744065846996929"><ele>346.0</ele><time>2026-04-06T12:12:29.989Z</time></trkpt><trkpt lat="46.04619691934982" lon="8.743989699552285"><ele>346.0</ele><time>2026-04-06T12:12:30.989Z</time></trkpt><trkpt lat="46.04613371128068" lon="8.743912130273117"><ele>346.0</ele><time>2026-04-06T12:12:31.989Z</time></trkpt><trkpt lat="46.046082300661475" lon="8.743831912643744"><ele>346.0</ele><time>2026-04-06T12:12:32.989Z</time></trkpt><trkpt lat="46.04603632197079" lon="8.743720264181334"><ele>346.0</ele><time>2026-04-06T12:12:33.989Z</time></trkpt><trkpt lat="46.04599725735001" lon="8.74359495731389"><ele>346.0</ele><time>2026-04-06T12:12:34.989Z</time></trkpt><trkpt lat="46.045987376266204" lon="8.743430831651892"><ele>346.0</ele><time>2026-04-06T12:12:35.989Z</time></trkpt><trkpt lat="46.04597233528985" lon="8.743262165783925"><ele>346.0</ele><time>2026-04-06T12:12:36.989Z</time></trkpt><trkpt lat="46.04595957563948" lon="8.743102444248992"><ele>346.0</ele><time>2026-04-06T12:12:37.989Z</time></trkpt><trkpt lat="46.04594085234533" lon="8.742949424943705"><ele>346.4</ele><time>2026-04-06T12:12:38.989Z</time></trkpt><trkpt lat="46.04593070025692" lon="8.742804076540278"><ele>346.8</ele><time>2026-04-06T12:12:39.989Z</time></trkpt><trkpt lat="46.04593102323612" lon="8.742652985137651"><ele>347.2</ele><time>2026-04-06T12:12:40.989Z</time></trkpt><trkpt lat="46.04593622999795" lon="8.742495936218434"><ele>347.59999999999997</ele><time>2026-04-06T12:12:41.989Z</time></trkpt><trkpt lat="46.04593673511738" lon="8.742345187386096"><ele>348.0</ele><time>2026-04-06T12:12:42.989Z</time></trkpt><trkpt lat="46.04594283248159" lon="8.742219264677722"><ele>348.0</ele><time>2026-04-06T12:12:43.989Z</time></trkpt><trkpt lat="46.0459515684023" lon="8.74211467327384"><ele>348.0</ele><time>2026-04-06T12:12:44.989Z</time></trkpt><trkpt lat="46.045972410396146" lon="8.741958259159492"><ele>348.0</ele><time>2026-04-06T12:12:46.989Z</time></trkpt><trkpt lat="46.045996540486996" lon="8.741798592922017"><ele>348.0</ele><time>2026-04-06T12:12:48.989Z</time></trkpt><trkpt lat="46.045945591757665" lon="8.741710230844788"><ele>348.0</ele><time>2026-04-06T12:12:50.989Z</time></trkpt><trkpt lat="46.04584805187358" lon="8.741718946417494"><ele>348.59999999999997</ele><time>2026-04-06T12:12:52.989Z</time></trkpt><trkpt lat="46.045799797150266" lon="8.741834740793179"><ele>349.2</ele><time>2026-04-06T12:12:53.989Z</time></trkpt><trkpt lat="46.04577296916585" lon="8.74194487548464"><ele>349.8</ele><time>2026-04-06T12:12:54.989Z</time></trkpt><trkpt lat="46.04574634515425" lon="8.742067471580434"><ele>350.4</ele><time>2026-04-06T12:12:55.989Z</time></trkpt><trkpt lat="46.04571436059907" lon="8.742205776910176"><ele>351.0</ele><time>2026-04-06T12:12:56.989Z</time></trkpt><trkpt lat="46.045677846115794" lon="8.742347562291688"><ele>345.0</ele><time>2026-04-06T12:12:57.989Z</time></trkpt><trkpt lat="46.04564287070776" lon="8.742483371565404"><ele>339.0</ele><time>2026-04-06T12:12:58.989Z</time></trkpt><trkpt lat="46.045612914625636" lon="8.742612192673677"><ele>333.0</ele><time>2026-04-06T12:12:59.989Z</time></trkpt><trkpt lat="46.04559243183761" lon="8.742727309408103"><ele>327.0</ele><time>2026-04-06T12:13:00.989Z</time></trkpt><trkpt lat="46.04559015704481" lon="8.742833473865687"><ele>321.0</ele><time>2026-04-06T12:13:01.989Z</time></trkpt><trkpt lat="46.04562317847267" lon="8.742996928164812"><ele>321.0</ele><time>2026-04-06T12:13:03.989Z</time></trkpt><trkpt lat="46.04564532383977" lon="8.743094189668867"><ele>321.0</ele><time>2026-04-06T12:13:05.989Z</time></trkpt><trkpt lat="46.04563717114099" lon="8.743186133188898"><ele>321.0</ele><time>2026-04-06T12:13:08.989Z</time></trkpt><trkpt lat="46.045562938648494" lon="8.743139574920695"><ele>321.0</ele><time>2026-04-06T12:13:10.989Z</time></trkpt><trkpt lat="46.045546272366224" lon="8.742963131051873"><ele>321.0</ele><time>2026-04-06T12:13:12.989Z</time></trkpt><trkpt lat="46.045539276569784" lon="8.742853320782126"><ele>321.0</ele><time>2026-04-06T12:13:13.989Z</time></trkpt><trkpt lat="46.04552809455483" lon="8.74274751355536"><ele>320.3333333333333</ele><time>2026-04-06T12:13:14.988Z</time></trkpt><trkpt lat="46.045518307203956" lon="8.742635591427812"><ele>319.6666666666667</ele><time>2026-04-06T12:13:15.988Z</time></trkpt><trkpt lat="46.04551082492785" lon="8.74252283379054"><ele>319.0</ele><time>2026-04-06T12:13:16.988Z</time></trkpt><trkpt lat="46.04550399850421" lon="8.742397740532107"><ele>318.33333333333337</ele><time>2026-04-06T12:13:17.988Z</time></trkpt><trkpt lat="46.045512191293504" lon="8.742255266272231"><ele>317.6666666666667</ele><time>2026-04-06T12:13:18.988Z</time></trkpt><trkpt lat="46.04553164657205" lon="8.74210929664736"><ele>317.0</ele><time>2026-04-06T12:13:19.988Z</time></trkpt><trkpt lat="46.04554709851933" lon="8.741957917911757"><ele>315.6</ele><time>2026-04-06T12:13:20.988Z</time></trkpt><trkpt lat="46.04555138514052" lon="8.741808040198912"><ele>314.2</ele><time>2026-04-06T12:13:21.988Z</time></trkpt><trkpt lat="46.045529197537505" lon="8.741667161762111"><ele>312.8</ele><time>2026-04-06T12:13:22.988Z</time></trkpt><trkpt lat="46.04549487427679" lon="8.741531607113371"><ele>311.4</ele><time>2026-04-06T12:13:23.988Z</time></trkpt><trkpt lat="46.04545772702997" lon="8.74139714986046"><ele>310.0</ele><time>2026-04-06T12:13:24.988Z</time></trkpt><trkpt lat="46.045418783048845" lon="8.7412593350109"><ele>310.0</ele><time>2026-04-06T12:13:25.988Z</time></trkpt><trkpt lat="46.04538925740234" lon="8.741131208190364"><ele>310.0</ele><time>2026-04-06T12:13:26.988Z</time></trkpt><trkpt lat="46.04537201994503" lon="8.741011510585412"><ele>310.0</ele><time>2026-04-06T12:13:27.988Z</time></trkpt><trkpt lat="46.04537244632047" lon="8.740904169381738"><ele>310.0</ele><time>2026-04-06T12:13:28.988Z</time></trkpt><trkpt lat="46.04538442955164" lon="8.740799282572839"><ele>310.0</ele><time>2026-04-06T12:13:29.988Z</time></trkpt><trkpt lat="46.04539912345779" lon="8.740697839382968"><ele>310.0</ele><time>2026-04-06T12:13:30.988Z</time></trkpt><trkpt lat="46.04540142093378" lon="8.740603788174932"><ele>309.7142857142857</ele><time>2026-04-06T12:13:31.988Z</time></trkpt><trkpt lat="46.04538804118075" lon="8.740510717784664"><ele>309.42857142857144</ele><time>2026-04-06T12:13:32.988Z</time></trkpt><trkpt lat="46.04535954389381" lon="8.740426308436117"><ele>309.1428571428571</ele><time>2026-04-06T12:13:33.988Z</time></trkpt><trkpt lat="46.04532756110357" lon="8.740343434426666"><ele>308.8571428571429</ele><time>2026-04-06T12:13:34.988Z</time></trkpt><trkpt lat="46.045298257659745" lon="8.740246481595438"><ele>308.57142857142856</ele><time>2026-04-06T12:13:35.988Z</time></trkpt><trkpt lat="46.045284601769346" lon="8.74013597730308"><ele>308.2857142857143</ele><time>2026-04-06T12:13:36.988Z</time></trkpt><trkpt lat="46.04529419761691" lon="8.740034341861138"><ele>308.0</ele><time>2026-04-06T12:13:37.988Z</time></trkpt><trkpt lat="46.04531794542645" lon="8.739936981236694"><ele>306.33333333333337</ele><time>2026-04-06T12:13:38.988Z</time></trkpt><trkpt lat="46.0453569482145" lon="8.739852204862272"><ele>304.6666666666667</ele><time>2026-04-06T12:13:39.988Z</time></trkpt><trkpt lat="46.04539944804593" lon="8.739771728948782"><ele>303.0</ele><time>2026-04-06T12:13:40.988Z</time></trkpt><trkpt lat="46.04543898794236" lon="8.73969414380987"><ele>301.3333333333333</ele><time>2026-04-06T12:13:41.988Z</time></trkpt><trkpt lat="46.045454320866256" lon="8.739552407394047"><ele>299.66666666666663</ele><time>2026-04-06T12:13:43.988Z</time></trkpt><trkpt lat="46.045331967180466" lon="8.739528003809488"><ele>298.0</ele><time>2026-04-06T12:13:46.988Z</time></trkpt><trkpt lat="46.04528624758247" lon="8.739592573195761"><ele>298.0</ele><time>2026-04-06T12:13:47.988Z</time></trkpt><trkpt lat="46.045252059959246" lon="8.739684941669926"><ele>298.0</ele><time>2026-04-06T12:13:48.988Z</time></trkpt><trkpt lat="46.04522885883385" lon="8.739795967212753"><ele>298.0</ele><time>2026-04-06T12:13:49.988Z</time></trkpt><trkpt lat="46.04520565676782" lon="8.739927427210445"><ele>298.0</ele><time>2026-04-06T12:13:50.988Z</time></trkpt><trkpt lat="46.04518235619037" lon="8.740062736599961"><ele>298.0</ele><time>2026-04-06T12:13:51.988Z</time></trkpt><trkpt lat="46.04516170332604" lon="8.740190522889216"><ele>298.0</ele><time>2026-04-06T12:13:52.988Z</time></trkpt><trkpt lat="46.04514250670741" lon="8.740315324477704"><ele>299.66666666666663</ele><time>2026-04-06T12:13:53.988Z</time></trkpt><trkpt lat="46.04512213188556" lon="8.740438303950949"><ele>301.3333333333333</ele><time>2026-04-06T12:13:54.988Z</time></trkpt><trkpt lat="46.04510651682395" lon="8.740545835828534"><ele>303.0</ele><time>2026-04-06T12:13:55.988Z</time></trkpt><trkpt lat="46.04506974334268" lon="8.740659797845094"><ele>304.6666666666667</ele><time>2026-04-06T12:13:56.988Z</time></trkpt><trkpt lat="46.045038089335264" lon="8.74077107876005"><ele>306.33333333333337</ele><time>2026-04-06T12:13:57.988Z</time></trkpt><trkpt lat="46.04501315924027" lon="8.740880286528302"><ele>308.0</ele><time>2026-04-06T12:13:58.988Z</time></trkpt><trkpt lat="46.04499159810085" lon="8.74099446637447"><ele>308.33333333333337</ele><time>2026-04-06T12:13:59.988Z</time></trkpt><trkpt lat="46.044975919914506" lon="8.741119802108573"><ele>308.6666666666667</ele><time>2026-04-06T12:14:00.988Z</time></trkpt><trkpt lat="46.04496354273935" lon="8.741246604838377"><ele>309.0</ele><time>2026-04-06T12:14:01.987Z</time></trkpt><trkpt lat="46.04495181502625" lon="8.741366436825077"><ele>309.3333333333333</ele><time>2026-04-06T12:14:02.987Z</time></trkpt><trkpt lat="46.04493934736718" lon="8.741472450987253"><ele>309.66666666666663</ele><time>2026-04-06T12:14:03.987Z</time></trkpt><trkpt lat="46.04492803804172" lon="8.741616996997552"><ele>310.0</ele><time>2026-04-06T12:14:05.987Z</time></trkpt><trkpt lat="46.04490984636092" lon="8.741727246351493"><ele>305.16666666666663</ele><time>2026-04-06T12:14:07.987Z</time></trkpt><trkpt lat="46.04486807374436" lon="8.741811023470754"><ele>300.3333333333333</ele><time>2026-04-06T12:14:09.987Z</time></trkpt><trkpt lat="46.04480705403851" lon="8.741784869550669"><ele>295.5</ele><time>2026-04-06T12:14:11.987Z</time></trkpt><trkpt lat="46.04480602190345" lon="8.741651367869554"><ele>290.6666666666667</ele><time>2026-04-06T12:14:13.987Z</time></trkpt><trkpt lat="46.04481039024677" lon="8.741546426722467"><ele>285.83333333333337</ele><time>2026-04-06T12:14:14.987Z</time></trkpt><trkpt lat="46.04480751536643" lon="8.741434272055871"><ele>281.0</ele><time>2026-04-06T12:14:15.987Z</time></trkpt><trkpt lat="46.04481683179926" lon="8.7413218908967"><ele>281.0</ele><time>2026-04-06T12:14:16.987Z</time></trkpt><trkpt lat="46.044818506297545" lon="8.74120617050641"><ele>281.0</ele><time>2026-04-06T12:14:17.987Z</time></trkpt><trkpt lat="46.044839713694834" lon="8.74109504781204"><ele>281.0</ele><time>2026-04-06T12:14:18.987Z</time></trkpt><trkpt lat="46.044839129639534" lon="8.74097588524981"><ele>281.0</ele><time>2026-04-06T12:14:19.987Z</time></trkpt><trkpt lat="46.0448368975978" lon="8.740855121097253"><ele>281.0</ele><time>2026-04-06T12:14:20.987Z</time></trkpt><trkpt lat="46.04483562814664" lon="8.740734645852424"><ele>281.0</ele><time>2026-04-06T12:14:21.987Z</time></trkpt><trkpt lat="46.04483621537085" lon="8.740609527863786"><ele>279.2</ele><time>2026-04-06T12:14:22.987Z</time></trkpt><trkpt lat="46.04484120234055" lon="8.740473605207821"><ele>277.40000000000003</ele><time>2026-04-06T12:14:23.987Z</time></trkpt><trkpt lat="46.04485004968683" lon="8.740329740967626"><ele>275.6</ele><time>2026-04-06T12:14:24.987Z</time></trkpt><trkpt lat="46.044859216044486" lon="8.740193357791663"><ele>273.8</ele><time>2026-04-06T12:14:25.987Z</time></trkpt><trkpt lat="46.04486822029997" lon="8.74006307512024"><ele>272.0</ele><time>2026-04-06T12:14:26.987Z</time></trkpt><trkpt lat="46.04487827386041" lon="8.739941200562534"><ele>273.5</ele><time>2026-04-06T12:14:27.987Z</time></trkpt><trkpt lat="46.04490186776656" lon="8.739826287837891"><ele>275.0</ele><time>2026-04-06T12:14:28.987Z</time></trkpt><trkpt lat="46.04494568108029" lon="8.739723679051066"><ele>276.5</ele><time>2026-04-06T12:14:29.987Z</time></trkpt><trkpt lat="46.04498110240302" lon="8.739607062011384"><ele>278.0</ele><time>2026-04-06T12:14:30.987Z</time></trkpt><trkpt lat="46.045013963935794" lon="8.739485202812642"><ele>279.5</ele><time>2026-04-06T12:14:31.987Z</time></trkpt><trkpt lat="46.045050911515986" lon="8.739368847438456"><ele>281.0</ele><time>2026-04-06T12:14:32.987Z</time></trkpt><trkpt lat="46.04509346593437" lon="8.73927184463919"><ele>281.0</ele><time>2026-04-06T12:14:33.987Z</time></trkpt><trkpt lat="46.04513307781144" lon="8.739191748326752"><ele>281.0</ele><time>2026-04-06T12:14:34.987Z</time></trkpt><trkpt lat="46.04520370003114" lon="8.73905634366052"><ele>281.0</ele><time>2026-04-06T12:14:36.987Z</time></trkpt><trkpt lat="46.045271739592735" lon="8.738951947946548"><ele>281.0</ele><time>2026-04-06T12:14:38.987Z</time></trkpt><trkpt lat="46.04528440293663" lon="8.738846292914156"><ele>281.0</ele><time>2026-04-06T12:14:40.987Z</time></trkpt><trkpt lat="46.04520478749895" lon="8.738822326027389"><ele>281.0</ele><time>2026-04-06T12:14:42.987Z</time></trkpt><trkpt lat="46.04512218619265" lon="8.738934091024541"><ele>281.0</ele><time>2026-04-06T12:14:44.987Z</time></trkpt><trkpt lat="46.04508277190268" lon="8.739030292685886"><ele>281.0</ele><time>2026-04-06T12:14:45.987Z</time></trkpt><trkpt lat="46.04503665989183" lon="8.739134656472087"><ele>281.0</ele><time>2026-04-06T12:14:46.987Z</time></trkpt><trkpt lat="46.04494930725692" lon="8.739278114854928"><ele>281.0</ele><time>2026-04-06T12:14:48.986Z</time></trkpt><trkpt lat="46.04488097718769" lon="8.739390342634668"><ele>281.0</ele><time>2026-04-06T12:14:49.986Z</time></trkpt><trkpt lat="46.04480720848609" lon="8.739502787031235"><ele>276.83333333333337</ele><time>2026-04-06T12:14:50.986Z</time></trkpt><trkpt lat="46.04474455043593" lon="8.739618446484094"><ele>272.6666666666667</ele><time>2026-04-06T12:14:51.986Z</time></trkpt><trkpt lat="46.04469068097957" lon="8.739733081353664"><ele>268.5</ele><time>2026-04-06T12:14:52.986Z</time></trkpt><trkpt lat="46.044634563059226" lon="8.73982464200916"><ele>264.3333333333333</ele><time>2026-04-06T12:14:53.986Z</time></trkpt><trkpt lat="46.04458249813976" lon="8.739915844369776"><ele>260.16666666666663</ele><time>2026-04-06T12:14:54.986Z</time></trkpt><trkpt lat="46.044529193237274" lon="8.740007413783136"><ele>256.0</ele><time>2026-04-06T12:14:55.986Z</time></trkpt><trkpt lat="46.04447758101519" lon="8.740102691596677"><ele>255.99999999999997</ele><time>2026-04-06T12:14:56.986Z</time></trkpt><trkpt lat="46.04443532484329" lon="8.740200888865829"><ele>256.0</ele><time>2026-04-06T12:14:57.986Z</time></trkpt><trkpt lat="46.04438860217244" lon="8.740303407259248"><ele>256.0</ele><time>2026-04-06T12:14:58.986Z</time></trkpt><trkpt lat="46.044337326782546" lon="8.740391272234914"><ele>256.0</ele><time>2026-04-06T12:14:59.986Z</time></trkpt><trkpt lat="46.044252796356325" lon="8.740411723254951"><ele>255.99999999999997</ele><time>2026-04-06T12:15:00.986Z</time></trkpt><trkpt lat="46.04418565803029" lon="8.740467300879109"><ele>256.0</ele><time>2026-04-06T12:15:01.986Z</time></trkpt><trkpt lat="46.044123748073694" lon="8.740535401742676"><ele>252.60000000000002</ele><time>2026-04-06T12:15:02.986Z</time></trkpt><trkpt lat="46.044084210422014" lon="8.740643473009"><ele>249.20000000000002</ele><time>2026-04-06T12:15:03.986Z</time></trkpt><trkpt lat="46.044039050265205" lon="8.740760726670374"><ele>245.79999999999998</ele><time>2026-04-06T12:15:04.986Z</time></trkpt><trkpt lat="46.043993342944624" lon="8.740899127035217"><ele>242.39999999999998</ele><time>2026-04-06T12:15:05.986Z</time></trkpt><trkpt lat="46.04392452351656" lon="8.741023566816454"><ele>239.0</ele><time>2026-04-06T12:15:06.986Z</time></trkpt><trkpt lat="46.04386704593575" lon="8.741145142773219"><ele>239.00000000000003</ele><time>2026-04-06T12:15:07.986Z</time></trkpt><trkpt lat="46.0438214225028" lon="8.741251229761938"><ele>239.0</ele><time>2026-04-06T12:15:08.986Z</time></trkpt><trkpt lat="46.04377854033926" lon="8.741343860197304"><ele>239.0</ele><time>2026-04-06T12:15:09.986Z</time></trkpt><trkpt lat="46.04372205806274" lon="8.741440474430254"><ele>239.0</ele><time>2026-04-06T12:15:11.986Z</time></trkpt><trkpt lat="46.043640932012856" lon="8.74140293574782"><ele>239.00000000000003</ele><time>2026-04-06T12:15:13.986Z</time></trkpt><trkpt lat="46.04365176800371" lon="8.741280614389382"><ele>239.0</ele><time>2026-04-06T12:15:15.986Z</time></trkpt><trkpt lat="46.043734487211815" lon="8.741237357444696"><ele>239.00000000000003</ele><time>2026-04-06T12:15:17.986Z</time></trkpt><trkpt lat="46.04378444043423" lon="8.741165443510225"><ele>239.0</ele><time>2026-04-06T12:15:19.986Z</time></trkpt><trkpt lat="46.04382313557891" lon="8.741068071591009"><ele>239.0</ele><time>2026-04-06T12:15:21.986Z</time></trkpt><trkpt lat="46.043867350742474" lon="8.740978274118897"><ele>239.0</ele><time>2026-04-06T12:15:23.986Z</time></trkpt><trkpt lat="46.04391291305068" lon="8.740860628561537"><ele>239.00000000000003</ele><time>2026-04-06T12:15:25.986Z</time></trkpt><trkpt lat="46.043960454887916" lon="8.740702074232978"><ele>239.0</ele><time>2026-04-06T12:15:27.986Z</time></trkpt><trkpt lat="46.04399018467563" lon="8.74061842363734"><ele>238.42857142857144</ele><time>2026-04-06T12:15:28.986Z</time></trkpt><trkpt lat="46.04402038086195" lon="8.740525471528262"><ele>237.85714285714286</ele><time>2026-04-06T12:15:29.986Z</time></trkpt><trkpt lat="46.04407152491211" lon="8.74045278919681"><ele>237.28571428571428</ele><time>2026-04-06T12:15:30.986Z</time></trkpt><trkpt lat="46.04413790697598" lon="8.74035205076175"><ele>236.71428571428572</ele><time>2026-04-06T12:15:32.986Z</time></trkpt><trkpt lat="46.04409239870638" lon="8.740279793556002"><ele>236.1428571428571</ele><time>2026-04-06T12:15:34.986Z</time></trkpt><trkpt lat="46.04401431758637" lon="8.74027574320704"><ele>235.57142857142856</ele><time>2026-04-06T12:15:36.985Z</time></trkpt><trkpt lat="46.04399659463386" lon="8.740363207692358"><ele>235.0</ele><time>2026-04-06T12:15:37.985Z</time></trkpt><trkpt lat="46.043944082865735" lon="8.740453196749995"><ele>235.0</ele><time>2026-04-06T12:15:38.985Z</time></trkpt><trkpt lat="46.04387390748752" lon="8.740553843065504"><ele>235.0</ele><time>2026-04-06T12:15:39.985Z</time></trkpt><trkpt lat="46.043799154211065" lon="8.740626971916615"><ele>235.0</ele><time>2026-04-06T12:15:40.985Z</time></trkpt><trkpt lat="46.04376753036559" lon="8.740743931641136"><ele>235.0</ele><time>2026-04-06T12:15:41.985Z</time></trkpt><trkpt lat="46.043699268974684" lon="8.740844144738588"><ele>235.0</ele><time>2026-04-06T12:15:42.985Z</time></trkpt><trkpt lat="46.043633340190894" lon="8.740923517892414"><ele>234.99999999999997</ele><time>2026-04-06T12:15:43.985Z</time></trkpt><trkpt lat="46.04357155423232" lon="8.740985738680425"><ele>235.0</ele><time>2026-04-06T12:15:44.985Z</time></trkpt><trkpt lat="46.04351783714165" lon="8.741040404474894"><ele>235.0</ele><time>2026-04-06T12:15:45.985Z</time></trkpt><trkpt lat="46.04347010229617" lon="8.741151321640858"><ele>235.0</ele><time>2026-04-06T12:15:47.985Z</time></trkpt><trkpt lat="46.04345762042699" lon="8.741240547973579"><ele>234.99999999999997</ele><time>2026-04-06T12:15:51.985Z</time></trkpt><trkpt lat="46.043461331294786" lon="8.741345737184968"><ele>235.0</ele><time>2026-04-06T12:15:53.985Z</time></trkpt><trkpt lat="46.043395549918706" lon="8.741166603532317"><ele>235.0</ele><time>2026-04-06T12:15:58.985Z</time></trkpt><trkpt lat="46.04342466795111" lon="8.741045495223707"><ele>235.0</ele><time>2026-04-06T12:15:59.985Z</time></trkpt><trkpt lat="46.043458162007" lon="8.740924945388661"><ele>235.0</ele><time>2026-04-06T12:16:00.985Z</time></trkpt><trkpt lat="46.04349398591262" lon="8.740799562142035"><ele>235.0</ele><time>2026-04-06T12:16:01.985Z</time></trkpt><trkpt lat="46.043536638745216" lon="8.740680964226362"><ele>235.0</ele><time>2026-04-06T12:16:02.985Z</time></trkpt><trkpt lat="46.043602854477314" lon="8.740592200196065"><ele>234.99999999999997</ele><time>2026-04-06T12:16:03.985Z</time></trkpt><trkpt lat="46.04366454526779" lon="8.74050672838849"><ele>235.0</ele><time>2026-04-06T12:16:04.985Z</time></trkpt><trkpt lat="46.04370579106711" lon="8.740414774783465"><ele>235.0</ele><time>2026-04-06T12:16:05.985Z</time></trkpt><trkpt lat="46.04374591767871" lon="8.740329998156266"><ele>235.0</ele><time>2026-04-06T12:16:06.985Z</time></trkpt><trkpt lat="46.043768548265135" lon="8.740242016718604"><ele>234.99999999999997</ele><time>2026-04-06T12:16:07.985Z</time></trkpt><trkpt lat="46.04378420016067" lon="8.740144447439297"><ele>235.0</ele><time>2026-04-06T12:16:08.985Z</time></trkpt><trkpt lat="46.04378352392146" lon="8.740016348728334"><ele>233.66666666666666</ele><time>2026-04-06T12:16:09.985Z</time></trkpt><trkpt lat="46.043798780481765" lon="8.739890883406213"><ele>232.33333333333331</ele><time>2026-04-06T12:16:10.985Z</time></trkpt><trkpt lat="46.04383556562785" lon="8.73978227107653"><ele>231.0</ele><time>2026-04-06T12:16:11.985Z</time></trkpt><trkpt lat="46.043881147345346" lon="8.739679703018776"><ele>229.66666666666669</ele><time>2026-04-06T12:16:12.985Z</time></trkpt><trkpt lat="46.04392722950147" lon="8.739596536464651"><ele>228.33333333333334</ele><time>2026-04-06T12:16:13.985Z</time></trkpt><trkpt lat="46.043975098561525" lon="8.73952674072461"><ele>227.0</ele><time>2026-04-06T12:16:14.985Z</time></trkpt><trkpt lat="46.04401585116003" lon="8.739447317878469"><ele>226.6</ele><time>2026-04-06T12:16:15.985Z</time></trkpt><trkpt lat="46.04405233151637" lon="8.739358498827315"><ele>226.2</ele><time>2026-04-06T12:16:16.985Z</time></trkpt><trkpt lat="46.04408683610987" lon="8.739270579201992"><ele>225.8</ele><time>2026-04-06T12:16:17.985Z</time></trkpt><trkpt lat="46.044126137786925" lon="8.7390972398175"><ele>225.4</ele><time>2026-04-06T12:16:19.985Z</time></trkpt><trkpt lat="46.04415138600274" lon="8.738952318205891"><ele>225.0</ele><time>2026-04-06T12:16:21.985Z</time></trkpt><trkpt lat="46.04417935373185" lon="8.738830589754958"><ele>225.0</ele><time>2026-04-06T12:16:23.984Z</time></trkpt><trkpt lat="46.04418909883308" lon="8.73873026115841"><ele>225.0</ele><time>2026-04-06T12:16:25.984Z</time></trkpt><trkpt lat="46.04419058653558" lon="8.738626405892823"><ele>225.0</ele><time>2026-04-06T12:16:27.984Z</time></trkpt><trkpt lat="46.044105355584556" lon="8.738604239587657"><ele>225.0</ele><time>2026-04-06T12:16:29.984Z</time></trkpt><trkpt lat="46.044030656001254" lon="8.73854517898273"><ele>225.0</ele><time>2026-04-06T12:16:33.984Z</time></trkpt><trkpt lat="46.04396495423657" lon="8.738495584421576"><ele>225.0</ele><time>2026-04-06T12:16:36.984Z</time></trkpt><trkpt lat="46.043905423579886" lon="8.73844054383191"><ele>224.66666666666666</ele><time>2026-04-06T12:16:44.984Z</time></trkpt><trkpt lat="46.04384803888946" lon="8.738381653081042"><ele>224.33333333333331</ele><time>2026-04-06T12:16:46.984Z</time></trkpt><trkpt lat="46.04378713150181" lon="8.738307720102302"><ele>224.0</ele><time>2026-04-06T12:16:51.984Z</time></trkpt><trkpt lat="46.04374074338095" lon="8.738236254909305"><ele>223.66666666666666</ele><time>2026-04-06T12:16:58.984Z</time></trkpt><trkpt lat="46.043644865590416" lon="8.738241166207176"><ele>223.33333333333331</ele><time>2026-04-06T12:16:59.984Z</time></trkpt><trkpt lat="46.043529048497" lon="8.73821471257065"><ele>223.0</ele><time>2026-04-06T12:17:01.984Z</time></trkpt><trkpt lat="46.04345589748106" lon="8.73821633270392"><ele>223.0</ele><time>2026-04-06T12:17:02.984Z</time></trkpt><trkpt lat="46.043389521386224" lon="8.738251622319977"><ele>223.0</ele><time>2026-04-06T12:17:03.984Z</time></trkpt><trkpt lat="46.04332829505853" lon="8.738330037667936"><ele>223.0</ele><time>2026-04-06T12:17:04.984Z</time></trkpt><trkpt lat="46.04319778138043" lon="8.738392588357808"><ele>223.0</ele><time>2026-04-06T12:17:06.984Z</time></trkpt><trkpt lat="46.04311480550917" lon="8.738440736408506"><ele>223.0</ele><time>2026-04-06T12:17:07.984Z</time></trkpt><trkpt lat="46.043043631919254" lon="8.738482035999468"><ele>222.85714285714286</ele><time>2026-04-06T12:17:08.984Z</time></trkpt><trkpt lat="46.042976411382185" lon="8.738520961665685"><ele>222.71428571428572</ele><time>2026-04-06T12:17:09.983Z</time></trkpt><trkpt lat="46.04291342464673" lon="8.738554652242126"><ele>222.57142857142856</ele><time>2026-04-06T12:17:10.983Z</time></trkpt><trkpt lat="46.042853513020304" lon="8.738586697835478"><ele>222.42857142857144</ele><time>2026-04-06T12:17:11.983Z</time></trkpt><trkpt lat="46.04278169824377" lon="8.738620192093462"><ele>222.2857142857143</ele><time>2026-04-06T12:17:12.983Z</time></trkpt><trkpt lat="46.04270675376626" lon="8.738646140514982"><ele>222.14285714285714</ele><time>2026-04-06T12:17:13.983Z</time></trkpt><trkpt lat="46.042638560785306" lon="8.738691087188325"><ele>222.0</ele><time>2026-04-06T12:17:14.983Z</time></trkpt><trkpt lat="46.04256830338351" lon="8.738749961856419"><ele>222.0</ele><time>2026-04-06T12:17:15.983Z</time></trkpt><trkpt lat="46.04247805632478" lon="8.738849582695654"><ele>222.0</ele><time>2026-04-06T12:17:16.983Z</time></trkpt><trkpt lat="46.04238605331895" lon="8.738943479513706"><ele>222.0</ele><time>2026-04-06T12:17:17.983Z</time></trkpt><trkpt lat="46.04230479041988" lon="8.739031447044862"><ele>222.0</ele><time>2026-04-06T12:17:18.983Z</time></trkpt><trkpt lat="46.042215881380756" lon="8.739113924262128"><ele>222.0</ele><time>2026-04-06T12:17:19.983Z</time></trkpt><trkpt lat="46.0421229012546" lon="8.739213587246793"><ele>220.8</ele><time>2026-04-06T12:17:20.983Z</time></trkpt><trkpt lat="46.04203011650828" lon="8.739305105882622"><ele>219.6</ele><time>2026-04-06T12:17:21.983Z</time></trkpt><trkpt lat="46.041937877570554" lon="8.73939767340587"><ele>218.40000000000003</ele><time>2026-04-06T12:17:22.983Z</time></trkpt><trkpt lat="46.04184831297712" lon="8.73948626061458"><ele>217.20000000000002</ele><time>2026-04-06T12:17:23.983Z</time></trkpt><trkpt lat="46.041761486175396" lon="8.739572526716367"><ele>216.0</ele><time>2026-04-06T12:17:24.983Z</time></trkpt><trkpt lat="46.041675610475494" lon="8.739652562000886"><ele>216.0</ele><time>2026-04-06T12:17:25.983Z</time></trkpt><trkpt lat="46.0415938003147" lon="8.739733039723651"><ele>216.00000000000003</ele><time>2026-04-06T12:17:26.983Z</time></trkpt><trkpt lat="46.04151258359686" lon="8.739816379822805"><ele>216.00000000000003</ele><time>2026-04-06T12:17:27.983Z</time></trkpt><trkpt lat="46.04143121655232" lon="8.739897630415506"><ele>216.0</ele><time>2026-04-06T12:17:28.983Z</time></trkpt><trkpt lat="46.0413482034714" lon="8.739983592971383"><ele>216.0</ele><time>2026-04-06T12:17:29.983Z</time></trkpt><trkpt lat="46.041261376469485" lon="8.740070954354849"><ele>216.0</ele><time>2026-04-06T12:17:30.983Z</time></trkpt><trkpt lat="46.04116654954699" lon="8.74013935731626"><ele>216.00000000000003</ele><time>2026-04-06T12:17:31.983Z</time></trkpt><trkpt lat="46.04106356402321" lon="8.740197882987895"><ele>216.00000000000003</ele><time>2026-04-06T12:17:32.983Z</time></trkpt><trkpt lat="46.04096002567606" lon="8.74023233719516"><ele>216.0</ele><time>2026-04-06T12:17:33.983Z</time></trkpt><trkpt lat="46.04085615351284" lon="8.740262308993566"><ele>216.0</ele><time>2026-04-06T12:17:34.983Z</time></trkpt><trkpt lat="46.04074764460909" lon="8.74028984512504"><ele>215.60000000000002</ele><time>2026-04-06T12:17:35.983Z</time></trkpt><trkpt lat="46.04063675688245" lon="8.740312904399415"><ele>215.20000000000002</ele><time>2026-04-06T12:17:36.983Z</time></trkpt><trkpt lat="46.04052585904038" lon="8.740341746950486"><ele>214.79999999999998</ele><time>2026-04-06T12:17:37.983Z</time></trkpt><trkpt lat="46.040415736557705" lon="8.74037007933895"><ele>214.39999999999998</ele><time>2026-04-06T12:17:38.983Z</time></trkpt><trkpt lat="46.040305400741595" lon="8.740398799859792"><ele>214.0</ele><time>2026-04-06T12:17:39.983Z</time></trkpt><trkpt lat="46.04021087434128" lon="8.740416056969423"><ele>214.0</ele><time>2026-04-06T12:17:40.983Z</time></trkpt><trkpt lat="46.040104381806735" lon="8.740434878303285"><ele>214.0</ele><time>2026-04-06T12:17:41.983Z</time></trkpt><trkpt lat="46.03998794424775" lon="8.74046770858464"><ele>214.0</ele><time>2026-04-06T12:17:42.983Z</time></trkpt><trkpt lat="46.03987137662903" lon="8.74050832404623"><ele>214.0</ele><time>2026-04-06T12:17:43.983Z</time></trkpt><trkpt lat="46.039754216679775" lon="8.740544058957447"><ele>213.25</ele><time>2026-04-06T12:17:44.983Z</time></trkpt><trkpt lat="46.039638788019886" lon="8.740566994291624"><ele>212.5</ele><time>2026-04-06T12:17:45.983Z</time></trkpt><trkpt lat="46.03952668521064" lon="8.740594861598835"><ele>211.75</ele><time>2026-04-06T12:17:46.983Z</time></trkpt><trkpt lat="46.039412060760135" lon="8.740625492050485"><ele>211.0</ele><time>2026-04-06T12:17:47.983Z</time></trkpt><trkpt lat="46.03929676934272" lon="8.74065058016414"><ele>211.0</ele><time>2026-04-06T12:17:48.983Z</time></trkpt><trkpt lat="46.0391886931314" lon="8.740677440776146"><ele>211.0</ele><time>2026-04-06T12:17:49.983Z</time></trkpt><trkpt lat="46.03908261965403" lon="8.740710017245341"><ele>211.0</ele><time>2026-04-06T12:17:50.983Z</time></trkpt><trkpt lat="46.038980189592586" lon="8.740742649086432"><ele>211.0</ele><time>2026-04-06T12:17:51.983Z</time></trkpt><trkpt lat="46.03887787340754" lon="8.740773047617441"><ele>211.0</ele><time>2026-04-06T12:17:52.983Z</time></trkpt><trkpt lat="46.03877475933035" lon="8.740799537769004"><ele>210.4</ele><time>2026-04-06T12:17:53.983Z</time></trkpt><trkpt lat="46.03866733010294" lon="8.740834848797475"><ele>209.8</ele><time>2026-04-06T12:17:54.983Z</time></trkpt><trkpt lat="46.038558690977446" lon="8.740873135096708"><ele>209.20000000000002</ele><time>2026-04-06T12:17:55.983Z</time></trkpt><trkpt lat="46.03845117921252" lon="8.740915261970903"><ele>208.60000000000002</ele><time>2026-04-06T12:17:56.982Z</time></trkpt><trkpt lat="46.03834474667214" lon="8.740908762989775"><ele>208.0</ele><time>2026-04-06T12:17:57.982Z</time></trkpt><trkpt lat="46.038240196271495" lon="8.74093513221765"><ele>207.8</ele><time>2026-04-06T12:17:58.982Z</time></trkpt><trkpt lat="46.03813122309012" lon="8.74096289332663"><ele>207.60000000000002</ele><time>2026-04-06T12:17:59.982Z</time></trkpt><trkpt lat="46.03801945677668" lon="8.74099165408983"><ele>207.39999999999998</ele><time>2026-04-06T12:18:00.982Z</time></trkpt><trkpt lat="46.03791004926019" lon="8.741019722152318"><ele>207.2</ele><time>2026-04-06T12:18:01.982Z</time></trkpt><trkpt lat="46.037800282070464" lon="8.741048726995151"><ele>207.0</ele><time>2026-04-06T12:18:02.982Z</time></trkpt><trkpt lat="46.03769012620345" lon="8.74108213611656"><ele>207.0</ele><time>2026-04-06T12:18:03.982Z</time></trkpt><trkpt lat="46.03758444682499" lon="8.74112831634441"><ele>207.0</ele><time>2026-04-06T12:18:04.982Z</time></trkpt><trkpt lat="46.037485357858074" lon="8.741183895164466"><ele>207.0</ele><time>2026-04-06T12:18:05.982Z</time></trkpt><trkpt lat="46.03738858487162" lon="8.741252098639837"><ele>207.0</ele><time>2026-04-06T12:18:06.982Z</time></trkpt><trkpt lat="46.03730446175873" lon="8.741322204404097"><ele>207.0</ele><time>2026-04-06T12:18:07.982Z</time></trkpt><trkpt lat="46.03721312933306" lon="8.741420433616923"><ele>205.5</ele><time>2026-04-06T12:18:08.982Z</time></trkpt><trkpt lat="46.037131080783546" lon="8.741516678725604"><ele>204.0</ele><time>2026-04-06T12:18:09.982Z</time></trkpt><trkpt lat="46.03703928699013" lon="8.741628097508004"><ele>202.5</ele><time>2026-04-06T12:18:10.982Z</time></trkpt><trkpt lat="46.036947556630004" lon="8.741726834969036"><ele>201.0</ele><time>2026-04-06T12:18:11.982Z</time></trkpt><trkpt lat="46.036848431270926" lon="8.741815142590717"><ele>201.0</ele><time>2026-04-06T12:18:12.982Z</time></trkpt><trkpt lat="46.03674326378606" lon="8.741880897948015"><ele>201.0</ele><time>2026-04-06T12:18:13.982Z</time></trkpt><trkpt lat="46.03663828533438" lon="8.741937578373355"><ele>201.0</ele><time>2026-04-06T12:18:14.982Z</time></trkpt><trkpt lat="46.03654572114778" lon="8.742045463595653"><ele>201.0</ele><time>2026-04-06T12:18:15.982Z</time></trkpt><trkpt lat="46.036471519913164" lon="8.74213383581299"><ele>201.0</ele><time>2026-04-06T12:18:16.982Z</time></trkpt><trkpt lat="46.03639548279743" lon="8.742211696554726"><ele>200.20000000000002</ele><time>2026-04-06T12:18:17.982Z</time></trkpt><trkpt lat="46.03631781871315" lon="8.742281964663317"><ele>199.4</ele><time>2026-04-06T12:18:18.982Z</time></trkpt><trkpt lat="46.0362364437805" lon="8.742353657710867"><ele>198.6</ele><time>2026-04-06T12:18:19.982Z</time></trkpt><trkpt lat="46.036163193852616" lon="8.742439119524597"><ele>197.8</ele><time>2026-04-06T12:18:20.982Z</time></trkpt><trkpt lat="46.0360865378296" lon="8.742506541096972"><ele>197.0</ele><time>2026-04-06T12:18:21.982Z</time></trkpt><trkpt lat="46.036004088303805" lon="8.742548002162984"><ele>197.0</ele><time>2026-04-06T12:18:22.982Z</time></trkpt><trkpt lat="46.035924414408285" lon="8.742622054422203"><ele>197.0</ele><time>2026-04-06T12:18:23.982Z</time></trkpt><trkpt lat="46.035839100562" lon="8.742692753830955"><ele>197.0</ele><time>2026-04-06T12:18:24.982Z</time></trkpt><trkpt lat="46.035752334403234" lon="8.742773797813499"><ele>197.0</ele><time>2026-04-06T12:18:25.982Z</time></trkpt><trkpt lat="46.035663282804364" lon="8.74287057969761"><ele>197.0</ele><time>2026-04-06T12:18:26.982Z</time></trkpt><trkpt lat="46.035572449537206" lon="8.742979720794207"><ele>201.0</ele><time>2026-04-06T12:18:27.982Z</time></trkpt><trkpt lat="46.03548018309197" lon="8.743103687284188"><ele>205.0</ele><time>2026-04-06T12:18:28.982Z</time></trkpt><trkpt lat="46.03538547048189" lon="8.743235906672119"><ele>209.0</ele><time>2026-04-06T12:18:29.982Z</time></trkpt><trkpt lat="46.03528446012815" lon="8.743376130118016"><ele>213.0</ele><time>2026-04-06T12:18:30.982Z</time></trkpt><trkpt lat="46.03518413654632" lon="8.743517539537534"><ele>212.5</ele><time>2026-04-06T12:18:31.982Z</time></trkpt><trkpt lat="46.035081959015876" lon="8.743663952406232"><ele>212.0</ele><time>2026-04-06T12:18:32.982Z</time></trkpt><trkpt lat="46.034978718982124" lon="8.74381019833637"><ele>211.5</ele><time>2026-04-06T12:18:33.982Z</time></trkpt><trkpt lat="46.03486721601981" lon="8.743966785981742"><ele>211.0</ele><time>2026-04-06T12:18:34.982Z</time></trkpt><trkpt lat="46.03473804846467" lon="8.744154477862747"><ele>211.0</ele><time>2026-04-06T12:18:36.13Z</time></trkpt><trkpt lat="46.03462390940736" lon="8.744324527037215"><ele>211.0</ele><time>2026-04-06T12:18:37.13Z</time></trkpt><trkpt lat="46.03346135971438" lon="8.746220863114534"><ele>215.0</ele><time>2026-04-06T12:18:41.063Z</time></trkpt><trkpt lat="46.03313209125562" lon="8.746663327725994"><ele>227.0</ele><time>2026-04-06T12:18:42.067Z</time></trkpt><trkpt lat="46.03272499811383" lon="8.74692866632672"><ele>239.0</ele><time>2026-04-06T12:18:43.064Z</time></trkpt><trkpt lat="46.03229738400323" lon="8.747125970929948"><ele>213.0</ele><time>2026-04-06T12:18:44.062Z</time></trkpt><trkpt lat="46.031519501508576" lon="8.747467304100988"><ele>239.0</ele><time>2026-04-06T12:18:45.067Z</time></trkpt><trkpt lat="46.03187494338759" lon="8.746898593519171"><ele>215.0</ele><time>2026-04-06T12:18:49.981Z</time></trkpt><trkpt lat="46.032879114022315" lon="8.746772614895736"><ele>215.0</ele><time>2026-04-06T12:18:50.981Z</time></trkpt><trkpt lat="46.0327862641345" lon="8.746741743188997"><ele>215.0</ele><time>2026-04-06T12:18:52.981Z</time></trkpt><trkpt lat="46.032649640365975" lon="8.746830728273784"><ele>215.0</ele><time>2026-04-06T12:18:53.981Z</time></trkpt><trkpt lat="46.0325264562722" lon="8.746949302564765"><ele>215.0</ele><time>2026-04-06T12:18:54.981Z</time></trkpt><trkpt lat="46.0323486357363" lon="8.7470009345496"><ele>223.0</ele><time>2026-04-06T12:18:55.981Z</time></trkpt><trkpt lat="46.03223459212766" lon="8.74710382650083"><ele>231.0</ele><time>2026-04-06T12:18:56.981Z</time></trkpt><trkpt lat="46.0320876380718" lon="8.74718157198122"><ele>239.0</ele><time>2026-04-06T12:18:57.981Z</time></trkpt><trkpt lat="46.031939675524775" lon="8.747272616687328"><ele>239.0</ele><time>2026-04-06T12:18:58.981Z</time></trkpt><trkpt lat="46.0317843049173" lon="8.74735515776559"><ele>239.0</ele><time>2026-04-06T12:18:59.981Z</time></trkpt><trkpt lat="46.03162802758977" lon="8.747402967092963"><ele>239.0</ele><time>2026-04-06T12:19:00.981Z</time></trkpt><trkpt lat="46.0314770049856" lon="8.747452373127574"><ele>230.33333333333334</ele><time>2026-04-06T12:19:01.981Z</time></trkpt><trkpt lat="46.03133119709088" lon="8.747516719608099"><ele>221.66666666666669</ele><time>2026-04-06T12:19:02.981Z</time></trkpt><trkpt lat="46.031185969236184" lon="8.74757338324026"><ele>213.0</ele><time>2026-04-06T12:19:03.981Z</time></trkpt><trkpt lat="46.031002054539364" lon="8.747611638871174"><ele>213.0</ele><time>2026-04-06T12:19:04.981Z</time></trkpt><trkpt lat="46.03081040570476" lon="8.747691395735037"><ele>213.0</ele><time>2026-04-06T12:19:05.981Z</time></trkpt><trkpt lat="46.03063430546468" lon="8.747813753832123"><ele>213.0</ele><time>2026-04-06T12:19:06.981Z</time></trkpt><trkpt lat="46.03047495492205" lon="8.747912380455164"><ele>221.33333333333331</ele><time>2026-04-06T12:19:07.981Z</time></trkpt><trkpt lat="46.030316512173044" lon="8.748017736478097"><ele>229.66666666666666</ele><time>2026-04-06T12:19:08.981Z</time></trkpt><trkpt lat="46.03015181587403" lon="8.748124100506192"><ele>238.0</ele><time>2026-04-06T12:19:09.981Z</time></trkpt><trkpt lat="46.029988893958276" lon="8.748209007565608"><ele>234.33333333333331</ele><time>2026-04-06T12:19:10.981Z</time></trkpt><trkpt lat="46.02982744637633" lon="8.748271808592776"><ele>230.66666666666669</ele><time>2026-04-06T12:19:11.981Z</time></trkpt><trkpt lat="46.029661254326335" lon="8.748336753317059"><ele>227.0</ele><time>2026-04-06T12:19:12.981Z</time></trkpt><trkpt lat="46.029524484961236" lon="8.748435656443661"><ele>227.0</ele><time>2026-04-06T12:19:13.981Z</time></trkpt><trkpt lat="46.029390838016596" lon="8.74851042668083"><ele>227.0</ele><time>2026-04-06T12:19:14.981Z</time></trkpt><trkpt lat="46.02925532598983" lon="8.748553655442123"><ele>227.0</ele><time>2026-04-06T12:19:15.981Z</time></trkpt><trkpt lat="46.02911839940552" lon="8.74851827533899"><ele>227.0</ele><time>2026-04-06T12:19:16.981Z</time></trkpt><trkpt lat="46.028973002038605" lon="8.748491316837763"><ele>224.75</ele><time>2026-04-06T12:19:17.981Z</time></trkpt><trkpt lat="46.02882918533407" lon="8.748477380528103"><ele>222.5</ele><time>2026-04-06T12:19:18.981Z</time></trkpt><trkpt lat="46.02868003886826" lon="8.748480967674013"><ele>220.25</ele><time>2026-04-06T12:19:19.981Z</time></trkpt><trkpt lat="46.02853495757051" lon="8.748527190546538"><ele>218.0</ele><time>2026-04-06T12:19:20.981Z</time></trkpt><trkpt lat="46.02840046861149" lon="8.748541724302182"><ele>225.25</ele><time>2026-04-06T12:19:21.981Z</time></trkpt><trkpt lat="46.028269890176304" lon="8.748597047189206"><ele>232.5</ele><time>2026-04-06T12:19:22.981Z</time></trkpt><trkpt lat="46.02814023031647" lon="8.748668342057458"><ele>239.75</ele><time>2026-04-06T12:19:23.981Z</time></trkpt><trkpt lat="46.02801567023127" lon="8.74875094694017"><ele>247.0</ele><time>2026-04-06T12:19:24.981Z</time></trkpt><trkpt lat="46.0278876679638" lon="8.74883219298291"><ele>247.0</ele><time>2026-04-06T12:19:25.981Z</time></trkpt><trkpt lat="46.02775725788865" lon="8.748914967315676"><ele>247.0</ele><time>2026-04-06T12:19:26.981Z</time></trkpt><trkpt lat="46.02762388180333" lon="8.749000652989741"><ele>247.0</ele><time>2026-04-06T12:19:27.981Z</time></trkpt><trkpt lat="46.02684830328982" lon="8.749532332918541"><ele>246.66666666666666</ele><time>2026-04-06T12:19:33.066Z</time></trkpt><trkpt lat="46.026707231409254" lon="8.749624251192804"><ele>246.33333333333331</ele><time>2026-04-06T12:19:34.063Z</time></trkpt><trkpt lat="46.02656586340958" lon="8.74971636240954"><ele>246.0</ele><time>2026-04-06T12:19:35.061Z</time></trkpt><trkpt lat="46.02642367591868" lon="8.749809007582574"><ele>232.0</ele><time>2026-04-06T12:19:36.066Z</time></trkpt><trkpt lat="46.02628351040293" lon="8.749903443052263"><ele>218.0</ele><time>2026-04-06T12:19:37.062Z</time></trkpt><trkpt lat="46.02614598215893" lon="8.750008455032253"><ele>204.0</ele><time>2026-04-06T12:19:38.064Z</time></trkpt><trkpt lat="46.026009733701066" lon="8.750165508307264"><ele>204.0</ele><time>2026-04-06T12:19:39.98Z</time></trkpt><trkpt lat="46.02608997255243" lon="8.750030252186606"><ele>204.0</ele><time>2026-04-06T12:19:40.98Z</time></trkpt><trkpt lat="46.025830180440884" lon="8.750364629405444"><ele>202.25</ele><time>2026-04-06T12:19:41.98Z</time></trkpt><trkpt lat="46.02569727792315" lon="8.750546769634093"><ele>200.5</ele><time>2026-04-06T12:19:42.98Z</time></trkpt><trkpt lat="46.025647745048296" lon="8.75067504945923"><ele>198.75</ele><time>2026-04-06T12:19:43.98Z</time></trkpt><trkpt lat="46.02559004445483" lon="8.750788920798803"><ele>197.0</ele><time>2026-04-06T12:19:44.98Z</time></trkpt><trkpt lat="46.02553790877435" lon="8.750888549603214"><ele>197.0</ele><time>2026-04-06T12:19:45.98Z</time></trkpt><trkpt lat="46.02548155087433" lon="8.750975489384961"><ele>197.0</ele><time>2026-04-06T12:19:46.98Z</time></trkpt><trkpt lat="46.02540573642771" lon="8.75102696413204"><ele>197.0</ele><time>2026-04-06T12:19:47.98Z</time></trkpt><trkpt lat="46.025310278157406" lon="8.75107776553368"><ele>197.0</ele><time>2026-04-06T12:19:48.98Z</time></trkpt><trkpt lat="46.025209237890685" lon="8.751148541344401"><ele>197.0</ele><time>2026-04-06T12:19:49.98Z</time></trkpt><trkpt lat="46.02511250144575" lon="8.751216005228045"><ele>198.2</ele><time>2026-04-06T12:19:50.98Z</time></trkpt><trkpt lat="46.02501254756082" lon="8.751272021289312"><ele>199.39999999999998</ele><time>2026-04-06T12:19:51.98Z</time></trkpt><trkpt lat="46.02491441266841" lon="8.751316140465743"><ele>200.60000000000002</ele><time>2026-04-06T12:19:52.98Z</time></trkpt><trkpt lat="46.024817340705816" lon="8.751362356845851"><ele>201.8</ele><time>2026-04-06T12:19:53.98Z</time></trkpt><trkpt lat="46.02471802449861" lon="8.751365730019321"><ele>203.0</ele><time>2026-04-06T12:19:54.98Z</time></trkpt><trkpt lat="46.024625190599465" lon="8.751403195636215"><ele>203.00000000000003</ele><time>2026-04-06T12:19:55.98Z</time></trkpt><trkpt lat="46.02453755717096" lon="8.751437006804544"><ele>203.0</ele><time>2026-04-06T12:19:56.98Z</time></trkpt><trkpt lat="46.0244566716197" lon="8.75147534439477"><ele>203.0</ele><time>2026-04-06T12:19:57.98Z</time></trkpt><trkpt lat="46.024380525058085" lon="8.751539167769213"><ele>203.0</ele><time>2026-04-06T12:19:58.98Z</time></trkpt><trkpt lat="46.02430830554343" lon="8.751613993688018"><ele>203.00000000000003</ele><time>2026-04-06T12:19:59.98Z</time></trkpt><trkpt lat="46.02424398723843" lon="8.75169435469997"><ele>203.0</ele><time>2026-04-06T12:20:00.98Z</time></trkpt><trkpt lat="46.02418471350837" lon="8.751788798400668"><ele>203.16666666666669</ele><time>2026-04-06T12:20:01.98Z</time></trkpt><trkpt lat="46.02412135892114" lon="8.751867859333665"><ele>203.33333333333334</ele><time>2026-04-06T12:20:02.98Z</time></trkpt><trkpt lat="46.02404933702772" lon="8.751915037140547"><ele>203.5</ele><time>2026-04-06T12:20:03.98Z</time></trkpt><trkpt lat="46.023965154793494" lon="8.751937000381746"><ele>203.66666666666669</ele><time>2026-04-06T12:20:04.98Z</time></trkpt><trkpt lat="46.02386958884579" lon="8.75193918510352"><ele>203.83333333333334</ele><time>2026-04-06T12:20:05.98Z</time></trkpt><trkpt lat="46.02376800903208" lon="8.75192083363526"><ele>204.0</ele><time>2026-04-06T12:20:06.98Z</time></trkpt><trkpt lat="46.02366346340024" lon="8.751891132554498"><ele>204.0</ele><time>2026-04-06T12:20:07.98Z</time></trkpt><trkpt lat="46.02356525623611" lon="8.751850947342842"><ele>204.0</ele><time>2026-04-06T12:20:08.98Z</time></trkpt><trkpt lat="46.023463602549484" lon="8.751811278355785"><ele>204.0</ele><time>2026-04-06T12:20:09.98Z</time></trkpt><trkpt lat="46.023361047949535" lon="8.751794966326159"><ele>204.0</ele><time>2026-04-06T12:20:10.98Z</time></trkpt><trkpt lat="46.02327095381871" lon="8.751799797739425"><ele>204.0</ele><time>2026-04-06T12:20:11.98Z</time></trkpt><trkpt lat="46.023187535345045" lon="8.751840857748677"><ele>213.0</ele><time>2026-04-06T12:20:12.98Z</time></trkpt><trkpt lat="46.023097973915306" lon="8.751887076180948"><ele>222.0</ele><time>2026-04-06T12:20:13.98Z</time></trkpt><trkpt lat="46.022989018702035" lon="8.75191561201132"><ele>231.0</ele><time>2026-04-06T12:20:14.98Z</time></trkpt><trkpt lat="46.022863564931306" lon="8.751929920802377"><ele>240.0</ele><time>2026-04-06T12:20:15.98Z</time></trkpt><trkpt lat="46.02272726233334" lon="8.751930043363629"><ele>240.0</ele><time>2026-04-06T12:20:16.98Z</time></trkpt><trkpt lat="46.022592187999024" lon="8.751923559634564"><ele>240.0</ele><time>2026-04-06T12:20:17.979Z</time></trkpt><trkpt lat="46.022451866881084" lon="8.751915582218906"><ele>240.0</ele><time>2026-04-06T12:20:18.979Z</time></trkpt><trkpt lat="46.022315728600745" lon="8.751920181002117"><ele>240.0</ele><time>2026-04-06T12:20:19.979Z</time></trkpt><trkpt lat="46.022186092806926" lon="8.751915520843568"><ele>246.5</ele><time>2026-04-06T12:20:20.979Z</time></trkpt><trkpt lat="46.022061162442256" lon="8.751916918861454"><ele>253.0</ele><time>2026-04-06T12:20:21.979Z</time></trkpt><trkpt lat="46.02193379777415" lon="8.751922167262292"><ele>259.5</ele><time>2026-04-06T12:20:22.979Z</time></trkpt><trkpt lat="46.02179095146785" lon="8.751893578045483"><ele>266.0</ele><time>2026-04-06T12:20:23.979Z</time></trkpt><trkpt lat="46.02164147759915" lon="8.751901866993208"><ele>269.33333333333337</ele><time>2026-04-06T12:20:24.979Z</time></trkpt><trkpt lat="46.02147761672653" lon="8.751915463080854"><ele>272.6666666666667</ele><time>2026-04-06T12:20:25.979Z</time></trkpt><trkpt lat="46.02130090065081" lon="8.751932306449131"><ele>276.0</ele><time>2026-04-06T12:20:26.979Z</time></trkpt><trkpt lat="46.021121190671366" lon="8.751949060572352"><ele>276.0</ele><time>2026-04-06T12:20:27.979Z</time></trkpt><trkpt lat="46.02094930388021" lon="8.751965743251937"><ele>276.0</ele><time>2026-04-06T12:20:28.979Z</time></trkpt><trkpt lat="46.02078209122295" lon="8.751978792301022"><ele>276.0</ele><time>2026-04-06T12:20:29.979Z</time></trkpt><trkpt lat="46.019187062116345" lon="8.752218871934517"><ele>219.0</ele><time>2026-04-06T12:20:35.063Z</time></trkpt><trkpt lat="46.01873865580434" lon="8.752268520563627"><ele>227.0</ele><time>2026-04-06T12:20:36.063Z</time></trkpt><trkpt lat="46.0180325346707" lon="8.752223138495973"><ele>227.0</ele><time>2026-04-06T12:20:47.979Z</time></trkpt><trkpt lat="46.01788778877447" lon="8.75225238121575"><ele>227.0</ele><time>2026-04-06T12:20:48.979Z</time></trkpt><trkpt lat="46.017735770270804" lon="8.7522572834566"><ele>227.0</ele><time>2026-04-06T12:20:49.979Z</time></trkpt><trkpt lat="46.01755065697446" lon="8.75220503001184"><ele>234.33333333333334</ele><time>2026-04-06T12:20:50.979Z</time></trkpt><trkpt lat="46.01734874041199" lon="8.7521172283269"><ele>241.66666666666669</ele><time>2026-04-06T12:20:51.979Z</time></trkpt><trkpt lat="46.017143103893794" lon="8.75205022066058"><ele>249.0</ele><time>2026-04-06T12:20:52.979Z</time></trkpt><trkpt lat="46.01693771138261" lon="8.75200498705633"><ele>249.0</ele><time>2026-04-06T12:20:53.979Z</time></trkpt><trkpt lat="46.01674228066576" lon="8.751933037264921"><ele>249.0</ele><time>2026-04-06T12:20:54.979Z</time></trkpt><trkpt lat="46.01655003815448" lon="8.75184408902264"><ele>249.0</ele><time>2026-04-06T12:20:55.979Z</time></trkpt><trkpt lat="46.016348937675694" lon="8.751717986400017"><ele>237.0</ele><time>2026-04-06T12:20:56.979Z</time></trkpt><trkpt lat="46.01612758504696" lon="8.751608426793918"><ele>225.0</ele><time>2026-04-06T12:20:57.979Z</time></trkpt><trkpt lat="46.01589177288451" lon="8.751492881682678"><ele>234.0</ele><time>2026-04-06T12:20:58.979Z</time></trkpt><trkpt lat="46.01566101898314" lon="8.751362157965158"><ele>243.0</ele><time>2026-04-06T12:20:59.979Z</time></trkpt><trkpt lat="46.01544097745745" lon="8.751246757209728"><ele>243.0</ele><time>2026-04-06T12:21:00.979Z</time></trkpt><trkpt lat="46.01521630805979" lon="8.751190206199379"><ele>243.0</ele><time>2026-04-06T12:21:01.979Z</time></trkpt><trkpt lat="46.01499796790291" lon="8.751092542671046"><ele>239.0</ele><time>2026-04-06T12:21:02.979Z</time></trkpt><trkpt lat="46.01478545386813" lon="8.750966377286709"><ele>235.0</ele><time>2026-04-06T12:21:03.979Z</time></trkpt><trkpt lat="46.01457905173192" lon="8.750846302192112"><ele>235.0</ele><time>2026-04-06T12:21:04.978Z</time></trkpt><trkpt lat="46.014380174464044" lon="8.750721406016847"><ele>235.0</ele><time>2026-04-06T12:21:05.978Z</time></trkpt><trkpt lat="46.01419473838046" lon="8.750605649048406"><ele>235.0</ele><time>2026-04-06T12:21:06.978Z</time></trkpt><trkpt lat="46.014025941702634" lon="8.750505663452868"><ele>231.0</ele><time>2026-04-06T12:21:07.978Z</time></trkpt><trkpt lat="46.01388635343537" lon="8.750369048450366"><ele>227.0</ele><time>2026-04-06T12:21:08.978Z</time></trkpt><trkpt lat="46.01376739898258" lon="8.750223490522316"><ele>223.0</ele><time>2026-04-06T12:21:09.978Z</time></trkpt><trkpt lat="46.013657844943445" lon="8.75005820615784"><ele>223.0</ele><time>2026-04-06T12:21:10.978Z</time></trkpt><trkpt lat="46.01352226535153" lon="8.749939670741789"><ele>223.0</ele><time>2026-04-06T12:21:11.978Z</time></trkpt><trkpt lat="46.01338259330445" lon="8.749826150870936"><ele>223.0</ele><time>2026-04-06T12:21:12.978Z</time></trkpt><trkpt lat="46.013205560771816" lon="8.749778424654078"><ele>230.33333333333331</ele><time>2026-04-06T12:21:13.978Z</time></trkpt><trkpt lat="46.01302814261018" lon="8.749731354367785"><ele>237.66666666666669</ele><time>2026-04-06T12:21:14.978Z</time></trkpt><trkpt lat="46.01284172015862" lon="8.74967421632183"><ele>245.0</ele><time>2026-04-06T12:21:15.978Z</time></trkpt><trkpt lat="46.01265083827698" lon="8.749605711349806"><ele>246.66666666666669</ele><time>2026-04-06T12:21:16.978Z</time></trkpt><trkpt lat="46.012458803946586" lon="8.749532352017932"><ele>248.33333333333331</ele><time>2026-04-06T12:21:17.978Z</time></trkpt><trkpt lat="46.012266584188566" lon="8.74946126040621"><ele>250.0</ele><time>2026-04-06T12:21:18.978Z</time></trkpt><trkpt lat="46.01208624587931" lon="8.74935925479259"><ele>239.0</ele><time>2026-04-06T12:21:19.978Z</time></trkpt><trkpt lat="46.011905461953035" lon="8.74925910786793"><ele>228.0</ele><time>2026-04-06T12:21:20.978Z</time></trkpt><trkpt lat="46.01172348118689" lon="8.749172328793414"><ele>217.0</ele><time>2026-04-06T12:21:21.978Z</time></trkpt><trkpt lat="46.01153720408619" lon="8.749107201427702"><ele>217.0</ele><time>2026-04-06T12:21:22.978Z</time></trkpt><trkpt lat="46.011351983437216" lon="8.749055058912623"><ele>217.0</ele><time>2026-04-06T12:21:23.978Z</time></trkpt><trkpt lat="46.01116593164962" lon="8.74900955390298"><ele>217.0</ele><time>2026-04-06T12:21:24.978Z</time></trkpt><trkpt lat="46.01098649718752" lon="8.748964567767853"><ele>218.66666666666666</ele><time>2026-04-06T12:21:25.978Z</time></trkpt><trkpt lat="46.01081007657885" lon="8.74891457140418"><ele>220.33333333333331</ele><time>2026-04-06T12:21:26.978Z</time></trkpt><trkpt lat="46.01063913515041" lon="8.748856897608265"><ele>222.0</ele><time>2026-04-06T12:21:27.978Z</time></trkpt><trkpt lat="46.010468065488375" lon="8.748790693108612"><ele>222.0</ele><time>2026-04-06T12:21:28.978Z</time></trkpt><trkpt lat="46.01029359920179" lon="8.748722238430936"><ele>222.0</ele><time>2026-04-06T12:21:29.978Z</time></trkpt><trkpt lat="46.010113967305436" lon="8.748654182770354"><ele>222.0</ele><time>2026-04-06T12:21:30.978Z</time></trkpt><trkpt lat="46.00993573202668" lon="8.748588020876454"><ele>218.33333333333331</ele><time>2026-04-06T12:21:31.978Z</time></trkpt><trkpt lat="46.00976054232897" lon="8.748524561003038"><ele>214.66666666666666</ele><time>2026-04-06T12:21:32.978Z</time></trkpt><trkpt lat="46.00959178940451" lon="8.74846592504117"><ele>211.0</ele><time>2026-04-06T12:21:33.978Z</time></trkpt><trkpt lat="46.00942992950518" lon="8.748407166808674"><ele>211.0</ele><time>2026-04-06T12:21:34.978Z</time></trkpt><trkpt lat="46.0092730563215" lon="8.748349913147267"><ele>211.0</ele><time>2026-04-06T12:21:35.978Z</time></trkpt><trkpt lat="46.009122336910345" lon="8.748286572871427"><ele>211.0</ele><time>2026-04-06T12:21:36.978Z</time></trkpt><trkpt lat="46.008975624978994" lon="8.748221314771222"><ele>217.75</ele><time>2026-04-06T12:21:37.978Z</time></trkpt><trkpt lat="46.00884013125526" lon="8.748154541557986"><ele>224.5</ele><time>2026-04-06T12:21:38.978Z</time></trkpt><trkpt lat="46.00871091471186" lon="8.748070645527077"><ele>231.25</ele><time>2026-04-06T12:21:39.978Z</time></trkpt><trkpt lat="46.008596969629544" lon="8.747966638447743"><ele>238.0</ele><time>2026-04-06T12:21:40.978Z</time></trkpt><trkpt lat="46.00848606422386" lon="8.747840186301847"><ele>238.5</ele><time>2026-04-06T12:21:41.978Z</time></trkpt><trkpt lat="46.008384040470204" lon="8.747692265788311"><ele>239.0</ele><time>2026-04-06T12:21:42.978Z</time></trkpt><trkpt lat="46.008294261871384" lon="8.747529425210544"><ele>239.5</ele><time>2026-04-06T12:21:43.978Z</time></trkpt><trkpt lat="46.00820345371506" lon="8.747381059587132"><ele>240.0</ele><time>2026-04-06T12:21:44.978Z</time></trkpt><trkpt lat="46.00812009560039" lon="8.747232800804516"><ele>240.0</ele><time>2026-04-06T12:21:45.978Z</time></trkpt><trkpt lat="46.00803634431166" lon="8.747085731048653"><ele>240.0</ele><time>2026-04-06T12:21:46.978Z</time></trkpt><trkpt lat="46.00795310096059" lon="8.746948533478712"><ele>240.0</ele><time>2026-04-06T12:21:47.978Z</time></trkpt><trkpt lat="46.00785224336436" lon="8.74682953847478"><ele>240.0</ele><time>2026-04-06T12:21:48.978Z</time></trkpt><trkpt lat="46.007748720870815" lon="8.746712177566977"><ele>239.25</ele><time>2026-04-06T12:21:49.978Z</time></trkpt><trkpt lat="46.00764422052608" lon="8.746597800724253"><ele>238.5</ele><time>2026-04-06T12:21:50.978Z</time></trkpt><trkpt lat="46.00754483895024" lon="8.74647602728627"><ele>237.75</ele><time>2026-04-06T12:21:51.977Z</time></trkpt><trkpt lat="46.00743840732484" lon="8.74635400200099"><ele>237.0</ele><time>2026-04-06T12:21:52.977Z</time></trkpt><trkpt lat="46.00733888590989" lon="8.746237428792172"><ele>237.0</ele><time>2026-04-06T12:21:53.977Z</time></trkpt><trkpt lat="46.00724819278368" lon="8.746117410092227"><ele>237.0</ele><time>2026-04-06T12:21:54.977Z</time></trkpt><trkpt lat="46.00715379790164" lon="8.746008628504528"><ele>237.0</ele><time>2026-04-06T12:21:55.977Z</time></trkpt><trkpt lat="46.00705275157285" lon="8.74590681672046"><ele>237.0</ele><time>2026-04-06T12:21:56.977Z</time></trkpt><trkpt lat="46.00693843399803" lon="8.745843942358249"><ele>234.0</ele><time>2026-04-06T12:21:57.977Z</time></trkpt><trkpt lat="46.0068158875303" lon="8.745787831667533"><ele>231.0</ele><time>2026-04-06T12:21:58.977Z</time></trkpt><trkpt lat="46.00668936634366" lon="8.745724066253855"><ele>228.0</ele><time>2026-04-06T12:21:59.977Z</time></trkpt><trkpt lat="46.006565164315184" lon="8.745658886576363"><ele>225.0</ele><time>2026-04-06T12:22:00.977Z</time></trkpt><trkpt lat="46.00644913151082" lon="8.74557299387249"><ele>225.0</ele><time>2026-04-06T12:22:01.977Z</time></trkpt><trkpt lat="46.00634061243701" lon="8.745465418970054"><ele>225.0</ele><time>2026-04-06T12:22:02.977Z</time></trkpt><trkpt lat="46.00623515228809" lon="8.745349760244338"><ele>225.0</ele><time>2026-04-06T12:22:03.977Z</time></trkpt><trkpt lat="46.00612645078133" lon="8.745236192731994"><ele>225.0</ele><time>2026-04-06T12:22:04.977Z</time></trkpt><trkpt lat="46.00601330906476" lon="8.74512525137276"><ele>222.0</ele><time>2026-04-06T12:22:05.977Z</time></trkpt><trkpt lat="46.005896369758474" lon="8.745025249728931"><ele>219.0</ele><time>2026-04-06T12:22:06.977Z</time></trkpt><trkpt lat="46.00578536104805" lon="8.744934139408395"><ele>216.0</ele><time>2026-04-06T12:22:07.977Z</time></trkpt><trkpt lat="46.00567920535163" lon="8.74484046653453"><ele>213.0</ele><time>2026-04-06T12:22:08.977Z</time></trkpt><trkpt lat="46.00557563557797" lon="8.744754357444616"><ele>213.0</ele><time>2026-04-06T12:22:09.977Z</time></trkpt><trkpt lat="46.00547721906354" lon="8.744674720220868"><ele>213.0</ele><time>2026-04-06T12:22:10.977Z</time></trkpt><trkpt lat="46.00538224425474" lon="8.744594986863971"><ele>213.0</ele><time>2026-04-06T12:22:11.977Z</time></trkpt><trkpt lat="46.005297329236186" lon="8.744512483758253"><ele>213.0</ele><time>2026-04-06T12:22:12.977Z</time></trkpt><trkpt lat="46.00521164409406" lon="8.744429455423848"><ele>213.0</ele><time>2026-04-06T12:22:13.977Z</time></trkpt><trkpt lat="46.005134442009606" lon="8.74435608344682"><ele>211.66666666666666</ele><time>2026-04-06T12:22:14.977Z</time></trkpt><trkpt lat="46.00506901349232" lon="8.744297479447148"><ele>210.33333333333331</ele><time>2026-04-06T12:22:15.977Z</time></trkpt><trkpt lat="46.0049912276122" lon="8.744219951751772"><ele>209.0</ele><time>2026-04-06T12:22:17.977Z</time></trkpt><trkpt lat="46.00494101693862" lon="8.744141771837718"><ele>207.66666666666666</ele><time>2026-04-06T12:22:21.977Z</time></trkpt><trkpt lat="46.00488281399468" lon="8.74405715898312"><ele>206.33333333333331</ele><time>2026-04-06T12:22:24.977Z</time></trkpt><trkpt lat="46.00480530273077" lon="8.743971812612706"><ele>205.0</ele><time>2026-04-06T12:22:26.977Z</time></trkpt><trkpt lat="46.00475319334581" lon="8.74385717622631"><ele>204.99999999999997</ele><time>2026-04-06T12:22:28.977Z</time></trkpt><trkpt lat="46.00470042422228" lon="8.743749977338851"><ele>205.0</ele><time>2026-04-06T12:22:30.977Z</time></trkpt><trkpt lat="46.0046148183098" lon="8.743677091828937"><ele>205.0</ele><time>2026-04-06T12:22:32.977Z</time></trkpt><trkpt lat="46.00456113147881" lon="8.743628411008965"><ele>205.0</ele><time>2026-04-06T12:22:33.977Z</time></trkpt><trkpt lat="46.004510979607055" lon="8.743564279796711"><ele>204.99999999999997</ele><time>2026-04-06T12:22:34.977Z</time></trkpt><trkpt lat="46.00442297234187" lon="8.7434485684029"><ele>205.0</ele><time>2026-04-06T12:22:36.977Z</time></trkpt><trkpt lat="46.00433315038126" lon="8.743326851906321"><ele>204.99999999999997</ele><time>2026-04-06T12:22:38.976Z</time></trkpt><trkpt lat="46.00428048868041" lon="8.743270766209646"><ele>205.0</ele><time>2026-04-06T12:22:39.976Z</time></trkpt><trkpt lat="46.00422687159667" lon="8.743205056919162"><ele>205.0</ele><time>2026-04-06T12:22:40.976Z</time></trkpt><trkpt lat="46.00416229189894" lon="8.743168309524593"><ele>205.0</ele><time>2026-04-06T12:22:41.976Z</time></trkpt><trkpt lat="46.004054263263704" lon="8.743172675964228"><ele>204.99999999999997</ele><time>2026-04-06T12:22:43.976Z</time></trkpt><trkpt lat="46.0039477491375" lon="8.743153891201743"><ele>205.0</ele><time>2026-04-06T12:22:45.976Z</time></trkpt><trkpt lat="46.00382575505862" lon="8.743145317714802"><ele>205.0</ele><time>2026-04-06T12:22:47.976Z</time></trkpt><trkpt lat="46.00371204291111" lon="8.74309637231376"><ele>205.0</ele><time>2026-04-06T12:22:49.976Z</time></trkpt><trkpt lat="46.00361829857061" lon="8.7430397811137"><ele>205.0</ele><time>2026-04-06T12:22:51.976Z</time></trkpt><trkpt lat="46.00353772653927" lon="8.742997057453493"><ele>205.0</ele><time>2026-04-06T12:22:54.976Z</time></trkpt><trkpt lat="46.00345860645844" lon="8.742952411074976"><ele>205.0</ele><time>2026-04-06T12:22:56.976Z</time></trkpt><trkpt lat="46.003363698011086" lon="8.742884703453774"><ele>205.33333333333331</ele><time>2026-04-06T12:22:58.976Z</time></trkpt><trkpt lat="46.00330896292594" lon="8.742832776805"><ele>205.66666666666666</ele><time>2026-04-06T12:22:59.976Z</time></trkpt><trkpt lat="46.0032524754664" lon="8.742784661969791"><ele>206.0</ele><time>2026-04-06T12:23:00.976Z</time></trkpt><trkpt lat="46.003147668583665" lon="8.742690950256893"><ele>206.33333333333331</ele><time>2026-04-06T12:23:02.976Z</time></trkpt><trkpt lat="46.00309457143163" lon="8.742637038896413"><ele>206.66666666666666</ele><time>2026-04-06T12:23:03.976Z</time></trkpt><trkpt lat="46.00304705367346" lon="8.742568940062624"><ele>207.0</ele><time>2026-04-06T12:23:04.976Z</time></trkpt><trkpt lat="46.00299266326868" lon="8.742522767052995"><ele>206.16666666666666</ele><time>2026-04-06T12:23:05.976Z</time></trkpt><trkpt lat="46.002938432752124" lon="8.742473701408352"><ele>205.33333333333331</ele><time>2026-04-06T12:23:06.976Z</time></trkpt><trkpt lat="46.002860289748625" lon="8.742401599302848"><ele>204.5</ele><time>2026-04-06T12:23:08.976Z</time></trkpt><trkpt lat="46.002800418852296" lon="8.74234195491314"><ele>203.66666666666666</ele><time>2026-04-06T12:23:10.976Z</time></trkpt><trkpt lat="46.00275626477279" lon="8.74227498206746"><ele>202.83333333333331</ele><time>2026-04-06T12:23:12.976Z</time></trkpt><trkpt lat="46.00268631228588" lon="8.742184833706931"><ele>202.0</ele><time>2026-04-06T12:23:15.976Z</time></trkpt><trkpt lat="46.002623926402144" lon="8.742105054355491"><ele>202.0</ele><time>2026-04-06T12:23:17.976Z</time></trkpt><trkpt lat="46.00255780394578" lon="8.742023794692102"><ele>202.0</ele><time>2026-04-06T12:23:19.976Z</time></trkpt><trkpt lat="46.00248076237381" lon="8.741930931232282"><ele>202.0</ele><time>2026-04-06T12:23:21.976Z</time></trkpt><trkpt lat="46.002406056321384" lon="8.741835414798306"><ele>202.0</ele><time>2026-04-06T12:23:23.976Z</time></trkpt><trkpt lat="46.002328716314686" lon="8.741737955214157"><ele>202.0</ele><time>2026-04-06T12:23:25.975Z</time></trkpt><trkpt lat="46.002239462755085" lon="8.741627181881807"><ele>202.2</ele><time>2026-04-06T12:23:27.975Z</time></trkpt><trkpt lat="46.00214656156713" lon="8.741511881421454"><ele>202.39999999999998</ele><time>2026-04-06T12:23:29.975Z</time></trkpt><trkpt lat="46.00206123699504" lon="8.741405984410111"><ele>202.60000000000002</ele><time>2026-04-06T12:23:31.975Z</time></trkpt><trkpt lat="46.002011170464776" lon="8.741341701543028"><ele>202.8</ele><time>2026-04-06T12:23:33.975Z</time></trkpt><trkpt lat="46.00193529642875" lon="8.74123951598361"><ele>203.0</ele><time>2026-04-06T12:23:36.975Z</time></trkpt><trkpt lat="46.001842730252896" lon="8.741155028832749"><ele>202.66666666666669</ele><time>2026-04-06T12:23:38.975Z</time></trkpt><trkpt lat="46.00177724068973" lon="8.741035987587653"><ele>202.33333333333334</ele><time>2026-04-06T12:23:40.975Z</time></trkpt><trkpt lat="46.001743104092085" lon="8.740958247670195"><ele>202.0</ele><time>2026-04-06T12:23:42.975Z</time></trkpt><trkpt lat="46.00169979089415" lon="8.74087086223962"><ele>201.66666666666669</ele><time>2026-04-06T12:23:45.975Z</time></trkpt><trkpt lat="46.00165461778766" lon="8.740774957487615"><ele>201.33333333333334</ele><time>2026-04-06T12:23:47.975Z</time></trkpt><trkpt lat="46.001579048400465" lon="8.740648414115531"><ele>201.0</ele><time>2026-04-06T12:23:49.975Z</time></trkpt><trkpt lat="46.00153777581913" lon="8.74056914077589"><ele>201.5</ele><time>2026-04-06T12:23:50.975Z</time></trkpt><trkpt lat="46.00149133755741" lon="8.740482793798963"><ele>202.0</ele><time>2026-04-06T12:23:51.975Z</time></trkpt><trkpt lat="46.00144430939769" lon="8.74039984124368"><ele>202.5</ele><time>2026-04-06T12:23:52.975Z</time></trkpt><trkpt lat="46.00140413476311" lon="8.740313786269683"><ele>203.0</ele><time>2026-04-06T12:23:53.975Z</time></trkpt><trkpt lat="46.00137081308794" lon="8.74022704606891"><ele>203.5</ele><time>2026-04-06T12:23:54.975Z</time></trkpt><trkpt lat="46.001333962608406" lon="8.74015171666225"><ele>204.0</ele><time>2026-04-06T12:23:55.975Z</time></trkpt><trkpt lat="46.00126370134287" lon="8.740041915381601"><ele>204.0</ele><time>2026-04-06T12:23:57.975Z</time></trkpt><trkpt lat="46.001209742881926" lon="8.739964055244299"><ele>204.0</ele><time>2026-04-06T12:24:00.975Z</time></trkpt><trkpt lat="46.0007739046703" lon="8.738960093017928"><ele>204.2</ele><time>2026-04-06T12:26:27.985Z</time></trkpt><trkpt lat="46.00073624219003" lon="8.738866635865461"><ele>204.39999999999998</ele><time>2026-04-06T12:26:28.985Z</time></trkpt><trkpt lat="46.000693509676" lon="8.738760671505904"><ele>204.6</ele><time>2026-04-06T12:26:29.985Z</time></trkpt><trkpt lat="46.00064746069632" lon="8.738646485244896"><ele>204.8</ele><time>2026-04-06T12:26:30.985Z</time></trkpt><trkpt lat="46.00059616971494" lon="8.738517365957536"><ele>205.0</ele><time>2026-04-06T12:26:31.985Z</time></trkpt><trkpt lat="46.00053908840961" lon="8.738374097750862"><ele>205.0</ele><time>2026-04-06T12:26:32.985Z</time></trkpt><trkpt lat="46.00047951551343" lon="8.738224953159593"><ele>205.0</ele><time>2026-04-06T12:26:33.985Z</time></trkpt><trkpt lat="46.00042075723873" lon="8.73807906984288"><ele>205.0</ele><time>2026-04-06T12:26:34.985Z</time></trkpt><trkpt lat="46.00036572928949" lon="8.737942448116963"><ele>205.0</ele><time>2026-04-06T12:26:35.985Z</time></trkpt><trkpt lat="46.00031483215559" lon="8.737816082277945"><ele>205.0</ele><time>2026-04-06T12:26:36.985Z</time></trkpt><trkpt lat="46.00026667589999" lon="8.737696521358169"><ele>205.4</ele><time>2026-04-06T12:26:37.985Z</time></trkpt><trkpt lat="46.000220977415104" lon="8.73758306250863"><ele>205.8</ele><time>2026-04-06T12:26:38.985Z</time></trkpt><trkpt lat="46.000172700455316" lon="8.73746320423733"><ele>206.2</ele><time>2026-04-06T12:26:39.985Z</time></trkpt><trkpt lat="46.00012323910253" lon="8.737344158368375"><ele>206.6</ele><time>2026-04-06T12:26:40.985Z</time></trkpt><trkpt lat="46.0000742296136" lon="8.737230574236028"><ele>207.0</ele><time>2026-04-06T12:26:41.985Z</time></trkpt><trkpt lat="46.00002664658191" lon="8.737119531195512"><ele>207.0</ele><time>2026-04-06T12:26:42.985Z</time></trkpt><trkpt lat="45.99997360700415" lon="8.736994349434951"><ele>207.0</ele><time>2026-04-06T12:26:43.985Z</time></trkpt><trkpt lat="45.999913842132514" lon="8.736854842680163"><ele>207.0</ele><time>2026-04-06T12:26:44.985Z</time></trkpt><trkpt lat="45.999844671651225" lon="8.736697823170676"><ele>207.0</ele><time>2026-04-06T12:26:45.984Z</time></trkpt><trkpt lat="45.99977582803934" lon="8.736551742725906"><ele>206.0</ele><time>2026-04-06T12:26:46.984Z</time></trkpt><trkpt lat="45.99969937620513" lon="8.736396068225618"><ele>205.0</ele><time>2026-04-06T12:26:47.984Z</time></trkpt><trkpt lat="45.99962269775018" lon="8.736273000689922"><ele>204.0</ele><time>2026-04-06T12:26:48.984Z</time></trkpt><trkpt lat="45.99957431082009" lon="8.736144756437623"><ele>203.0</ele><time>2026-04-06T12:26:49.984Z</time></trkpt><trkpt lat="45.999526196202574" lon="8.736051663610102"><ele>202.0</ele><time>2026-04-06T12:26:50.984Z</time></trkpt><trkpt lat="45.999463490210196" lon="8.735921319137525"><ele>202.6</ele><time>2026-04-06T12:26:52.984Z</time></trkpt><trkpt lat="45.999430449155405" lon="8.735791503982963"><ele>203.2</ele><time>2026-04-06T12:26:54.984Z</time></trkpt><trkpt lat="45.99937592778853" lon="8.735697747967773"><ele>203.8</ele><time>2026-04-06T12:26:56.984Z</time></trkpt><trkpt lat="45.999307872214686" lon="8.735620290618368"><ele>204.4</ele><time>2026-04-06T12:26:58.984Z</time></trkpt><trkpt lat="45.999224455008225" lon="8.735506368797294"><ele>205.0</ele><time>2026-04-06T12:27:00.984Z</time></trkpt><trkpt lat="45.99914759551181" lon="8.73536879114197"><ele>204.99999999999997</ele><time>2026-04-06T12:27:02.984Z</time></trkpt><trkpt lat="45.99909546756604" lon="8.735287782714794"><ele>205.0</ele><time>2026-04-06T12:27:03.984Z</time></trkpt><trkpt lat="45.99903045098951" lon="8.735208251285728"><ele>205.0</ele><time>2026-04-06T12:27:04.984Z</time></trkpt><trkpt lat="45.99895672179319" lon="8.735143996646645"><ele>205.0</ele><time>2026-04-06T12:27:05.984Z</time></trkpt><trkpt lat="45.998874393866515" lon="8.7350858538254"><ele>204.99999999999997</ele><time>2026-04-06T12:27:06.984Z</time></trkpt><trkpt lat="45.99878789751207" lon="8.735037156520061"><ele>205.0</ele><time>2026-04-06T12:27:07.984Z</time></trkpt><trkpt lat="45.99870367275855" lon="8.734993898520468"><ele>204.16666666666666</ele><time>2026-04-06T12:27:08.984Z</time></trkpt><trkpt lat="45.99862943640398" lon="8.734955424357342"><ele>203.33333333333331</ele><time>2026-04-06T12:27:09.984Z</time></trkpt><trkpt lat="45.99856300266292" lon="8.734922249124244"><ele>202.5</ele><time>2026-04-06T12:27:10.984Z</time></trkpt><trkpt lat="45.998448314330844" lon="8.734844042606628"><ele>201.66666666666669</ele><time>2026-04-06T12:27:12.984Z</time></trkpt><trkpt lat="45.99838404859362" lon="8.734810960039065"><ele>200.83333333333334</ele><time>2026-04-06T12:27:13.984Z</time></trkpt><trkpt lat="45.998313863619046" lon="8.734762200431453"><ele>200.0</ele><time>2026-04-06T12:27:14.984Z</time></trkpt><trkpt lat="45.99824033075786" lon="8.734724318885078"><ele>200.00000000000003</ele><time>2026-04-06T12:27:15.984Z</time></trkpt><trkpt lat="45.998167112782134" lon="8.73469196863512"><ele>200.0</ele><time>2026-04-06T12:27:16.984Z</time></trkpt><trkpt lat="45.99808978753994" lon="8.734654287864764"><ele>200.0</ele><time>2026-04-06T12:27:17.984Z</time></trkpt><trkpt lat="45.99801392093586" lon="8.734614205347707"><ele>200.0</ele><time>2026-04-06T12:27:18.984Z</time></trkpt><trkpt lat="45.99793695877725" lon="8.734573588206029"><ele>200.00000000000003</ele><time>2026-04-06T12:27:19.986Z</time></trkpt><trkpt lat="45.99786239063096" lon="8.734530085302405"><ele>200.0</ele><time>2026-04-06T12:27:20.986Z</time></trkpt><trkpt lat="45.99778516905811" lon="8.734485152257385"><ele>200.0</ele><time>2026-04-06T12:27:21.986Z</time></trkpt><trkpt lat="45.99770454704029" lon="8.734434111358993"><ele>200.0</ele><time>2026-04-06T12:27:22.986Z</time></trkpt><trkpt lat="45.997621868143774" lon="8.734380370565834"><ele>200.0</ele><time>2026-04-06T12:27:23.986Z</time></trkpt><trkpt lat="45.99753532115325" lon="8.734318708892172"><ele>200.0</ele><time>2026-04-06T12:27:24.986Z</time></trkpt><trkpt lat="45.997444708135276" lon="8.734239740421213"><ele>200.0</ele><time>2026-04-06T12:27:25.986Z</time></trkpt><trkpt lat="45.99735575102358" lon="8.734162904914509"><ele>199.75</ele><time>2026-04-06T12:27:26.986Z</time></trkpt><trkpt lat="45.997261215666114" lon="8.734088047621459"><ele>199.5</ele><time>2026-04-06T12:27:27.986Z</time></trkpt><trkpt lat="45.99716972576666" lon="8.734007880157137"><ele>199.25</ele><time>2026-04-06T12:27:28.986Z</time></trkpt><trkpt lat="45.99708282548876" lon="8.73390040600453"><ele>199.0</ele><time>2026-04-06T12:27:29.986Z</time></trkpt><trkpt lat="45.99697970506363" lon="8.733796695719063"><ele>199.0</ele><time>2026-04-06T12:27:30.986Z</time></trkpt><trkpt lat="45.996862813773134" lon="8.73367582517198"><ele>199.0</ele><time>2026-04-06T12:27:31.986Z</time></trkpt><trkpt lat="45.99674373632593" lon="8.733551773403368"><ele>199.0</ele><time>2026-04-06T12:27:32.986Z</time></trkpt><trkpt lat="45.996623907527855" lon="8.733426405766933"><ele>199.0</ele><time>2026-04-06T12:27:33.986Z</time></trkpt><trkpt lat="45.996514114475694" lon="8.733311537748335"><ele>200.0</ele><time>2026-04-06T12:27:34.986Z</time></trkpt><trkpt lat="45.99641257431687" lon="8.733205303966004"><ele>201.0</ele><time>2026-04-06T12:27:35.986Z</time></trkpt><trkpt lat="45.996316446732486" lon="8.733104489076538"><ele>202.0</ele><time>2026-04-06T12:27:36.986Z</time></trkpt><trkpt lat="45.9962297022239" lon="8.733012847241895"><ele>203.0</ele><time>2026-04-06T12:27:37.986Z</time></trkpt><trkpt lat="45.996146969590654" lon="8.73292239119829"><ele>203.00000000000003</ele><time>2026-04-06T12:27:38.986Z</time></trkpt><trkpt lat="45.99606994020339" lon="8.732846897873044"><ele>203.0</ele><time>2026-04-06T12:27:39.986Z</time></trkpt><trkpt lat="45.99600687193256" lon="8.732764072562595"><ele>203.0</ele><time>2026-04-06T12:27:40.986Z</time></trkpt><trkpt lat="45.99595138048284" lon="8.73268183643715"><ele>203.0</ele><time>2026-04-06T12:27:41.986Z</time></trkpt><trkpt lat="45.99590003629206" lon="8.732608039140672"><ele>203.00000000000003</ele><time>2026-04-06T12:27:42.986Z</time></trkpt><trkpt lat="45.995861772421485" lon="8.732518581315261"><ele>203.0</ele><time>2026-04-06T12:27:43.986Z</time></trkpt><trkpt lat="45.99583571633862" lon="8.732411874364326"><ele>202.60000000000002</ele><time>2026-04-06T12:27:44.986Z</time></trkpt><trkpt lat="45.99581494026771" lon="8.732282775333902"><ele>202.20000000000002</ele><time>2026-04-06T12:27:45.986Z</time></trkpt><trkpt lat="45.995789841977384" lon="8.73213913168541"><ele>201.8</ele><time>2026-04-06T12:27:46.986Z</time></trkpt><trkpt lat="45.99575792798683" lon="8.731986127322315"><ele>201.4</ele><time>2026-04-06T12:27:47.986Z</time></trkpt><trkpt lat="45.995708004588515" lon="8.731826508659662"><ele>201.0</ele><time>2026-04-06T12:27:48.986Z</time></trkpt><trkpt lat="45.99567136027141" lon="8.731656517904751"><ele>201.0</ele><time>2026-04-06T12:27:49.986Z</time></trkpt><trkpt lat="45.995647083454244" lon="8.731476920145049"><ele>201.0</ele><time>2026-04-06T12:27:50.986Z</time></trkpt><trkpt lat="45.995605791009744" lon="8.731298348546082"><ele>201.0</ele><time>2026-04-06T12:27:51.986Z</time></trkpt><trkpt lat="45.99556582658821" lon="8.731113101455556"><ele>201.0</ele><time>2026-04-06T12:27:52.986Z</time></trkpt><trkpt lat="45.995509273130885" lon="8.730929069502745"><ele>200.75</ele><time>2026-04-06T12:27:53.986Z</time></trkpt><trkpt lat="45.99547372333564" lon="8.730735607331145"><ele>200.5</ele><time>2026-04-06T12:27:54.986Z</time></trkpt><trkpt lat="45.99543133305423" lon="8.73055282659485"><ele>200.25</ele><time>2026-04-06T12:27:55.986Z</time></trkpt><trkpt lat="45.995392847363846" lon="8.73038632400236"><ele>200.0</ele><time>2026-04-06T12:27:56.986Z</time></trkpt><trkpt lat="45.99535860966936" lon="8.730228145895333"><ele>200.6</ele><time>2026-04-06T12:27:57.986Z</time></trkpt><trkpt lat="45.99532455818698" lon="8.730079277429743"><ele>201.2</ele><time>2026-04-06T12:27:58.986Z</time></trkpt><trkpt lat="45.99529747562401" lon="8.729935632590006"><ele>201.8</ele><time>2026-04-06T12:27:59.986Z</time></trkpt><trkpt lat="45.995264660797936" lon="8.729800891605047"><ele>202.4</ele><time>2026-04-06T12:28:00.986Z</time></trkpt><trkpt lat="45.9952302318821" lon="8.72966770564207"><ele>203.0</ele><time>2026-04-06T12:28:01.986Z</time></trkpt><trkpt lat="45.99519502484988" lon="8.729525907616598"><ele>202.8</ele><time>2026-04-06T12:28:02.986Z</time></trkpt><trkpt lat="45.99516082991232" lon="8.729383692354183"><ele>202.60000000000002</ele><time>2026-04-06T12:28:03.986Z</time></trkpt><trkpt lat="45.99513105310511" lon="8.729246169139824"><ele>202.39999999999998</ele><time>2026-04-06T12:28:04.986Z</time></trkpt><trkpt lat="45.995101102190475" lon="8.729110748786011"><ele>202.2</ele><time>2026-04-06T12:28:05.986Z</time></trkpt><trkpt lat="45.995072880212476" lon="8.72898090640207"><ele>202.0</ele><time>2026-04-06T12:28:06.985Z</time></trkpt><trkpt lat="45.995044950101075" lon="8.728859433938664"><ele>201.99999999999997</ele><time>2026-04-06T12:28:07.985Z</time></trkpt><trkpt lat="45.99501799692399" lon="8.728748039986984"><ele>202.0</ele><time>2026-04-06T12:28:08.985Z</time></trkpt><trkpt lat="45.99499266355272" lon="8.728640597807505"><ele>202.0</ele><time>2026-04-06T12:28:09.985Z</time></trkpt><trkpt lat="45.994967134506524" lon="8.728535967176631"><ele>202.0</ele><time>2026-04-06T12:28:10.985Z</time></trkpt><trkpt lat="45.9949393960553" lon="8.728425777488034"><ele>201.99999999999997</ele><time>2026-04-06T12:28:11.985Z</time></trkpt><trkpt lat="45.994927939318195" lon="8.7283067550111"><ele>202.0</ele><time>2026-04-06T12:28:12.985Z</time></trkpt><trkpt lat="45.99489737466288" lon="8.728186989095551"><ele>201.66666666666666</ele><time>2026-04-06T12:28:13.985Z</time></trkpt><trkpt lat="45.994866397112766" lon="8.72806613097347"><ele>201.33333333333331</ele><time>2026-04-06T12:28:14.985Z</time></trkpt><trkpt lat="45.99483822476293" lon="8.727957825986143"><ele>201.0</ele><time>2026-04-06T12:28:15.985Z</time></trkpt><trkpt lat="45.994814021904126" lon="8.727870677213502"><ele>200.66666666666669</ele><time>2026-04-06T12:28:16.985Z</time></trkpt><trkpt lat="45.99477393321804" lon="8.727767486533558"><ele>200.33333333333334</ele><time>2026-04-06T12:28:18.985Z</time></trkpt><trkpt lat="45.9947425378976" lon="8.727655090634777"><ele>200.0</ele><time>2026-04-06T12:28:20.985Z</time></trkpt><trkpt lat="45.994720160782585" lon="8.727536785849106"><ele>200.00000000000003</ele><time>2026-04-06T12:28:22.985Z</time></trkpt><trkpt lat="45.994744299208" lon="8.727398241212992"><ele>200.0</ele><time>2026-04-06T12:28:24.985Z</time></trkpt><trkpt lat="45.99477555558551" lon="8.727317341722957"><ele>200.0</ele><time>2026-04-06T12:28:25.985Z</time></trkpt><trkpt lat="45.99480489574473" lon="8.727227447385822"><ele>200.0</ele><time>2026-04-06T12:28:26.985Z</time></trkpt><trkpt lat="45.994844933531525" lon="8.727134056715999"><ele>200.00000000000003</ele><time>2026-04-06T12:28:27.985Z</time></trkpt><trkpt lat="45.994890477760116" lon="8.727029066300254"><ele>200.0</ele><time>2026-04-06T12:28:28.985Z</time></trkpt><trkpt lat="45.99493948301751" lon="8.726909681467188"><ele>200.4</ele><time>2026-04-06T12:28:29.985Z</time></trkpt><trkpt lat="45.99499552619929" lon="8.726785389303135"><ele>200.8</ele><time>2026-04-06T12:28:30.985Z</time></trkpt><trkpt lat="45.995055398325576" lon="8.726649729575557"><ele>201.2</ele><time>2026-04-06T12:28:31.985Z</time></trkpt><trkpt lat="45.99511537510143" lon="8.726504376998614"><ele>201.6</ele><time>2026-04-06T12:28:32.985Z</time></trkpt><trkpt lat="45.995173265477554" lon="8.726367322563462"><ele>202.0</ele><time>2026-04-06T12:28:33.985Z</time></trkpt><trkpt lat="45.995236261266896" lon="8.726222372446198"><ele>201.5</ele><time>2026-04-06T12:28:34.985Z</time></trkpt><trkpt lat="45.99530450010502" lon="8.726071236549144"><ele>201.0</ele><time>2026-04-06T12:28:35.985Z</time></trkpt><trkpt lat="45.995371183589675" lon="8.725911343657637"><ele>200.5</ele><time>2026-04-06T12:28:36.985Z</time></trkpt><trkpt lat="45.99543927505534" lon="8.725741001740005"><ele>200.0</ele><time>2026-04-06T12:28:37.985Z</time></trkpt><trkpt lat="45.995512141453865" lon="8.725573646216507"><ele>200.0</ele><time>2026-04-06T12:28:38.985Z</time></trkpt><trkpt lat="45.99558216912504" lon="8.725407781278504"><ele>200.0</ele><time>2026-04-06T12:28:39.985Z</time></trkpt><trkpt lat="45.99565285627813" lon="8.72525202929126"><ele>200.0</ele><time>2026-04-06T12:28:40.985Z</time></trkpt><trkpt lat="45.995714547444365" lon="8.725100888585478"><ele>200.0</ele><time>2026-04-06T12:28:41.985Z</time></trkpt><trkpt lat="45.99578952064992" lon="8.724984738080305"><ele>200.2</ele><time>2026-04-06T12:28:42.985Z</time></trkpt><trkpt lat="45.99582476668445" lon="8.724841467212078"><ele>200.4</ele><time>2026-04-06T12:28:43.985Z</time></trkpt><trkpt lat="45.99583971845853" lon="8.724697112338118"><ele>200.60000000000002</ele><time>2026-04-06T12:28:44.985Z</time></trkpt><trkpt lat="45.99583291167634" lon="8.72454745036238"><ele>200.8</ele><time>2026-04-06T12:28:45.985Z</time></trkpt><trkpt lat="45.99580794801703" lon="8.72440851292164"><ele>201.0</ele><time>2026-04-06T12:28:46.985Z</time></trkpt><trkpt lat="45.99576889462322" lon="8.724284838855635"><ele>201.0</ele><time>2026-04-06T12:28:47.985Z</time></trkpt><trkpt lat="45.99567975301092" lon="8.724159044737746"><ele>201.0</ele><time>2026-04-06T12:28:48.985Z</time></trkpt><trkpt lat="45.99559060345553" lon="8.723997286728732"><ele>201.0</ele><time>2026-04-06T12:28:49.985Z</time></trkpt><trkpt lat="45.99550488557277" lon="8.723842354266878"><ele>201.0</ele><time>2026-04-06T12:28:50.985Z</time></trkpt><trkpt lat="45.995420825396444" lon="8.723681433034422"><ele>200.25</ele><time>2026-04-06T12:28:51.985Z</time></trkpt><trkpt lat="45.99533573852331" lon="8.723525426276675"><ele>199.5</ele><time>2026-04-06T12:28:52.985Z</time></trkpt><trkpt lat="45.99525017655209" lon="8.723371220856531"><ele>198.75</ele><time>2026-04-06T12:28:53.984Z</time></trkpt><trkpt lat="45.9951706802022" lon="8.723217160298903"><ele>198.0</ele><time>2026-04-06T12:28:54.984Z</time></trkpt><trkpt lat="45.99509306552578" lon="8.723074360302244"><ele>198.0</ele><time>2026-04-06T12:28:55.984Z</time></trkpt><trkpt lat="45.99501151575036" lon="8.722933803289331"><ele>198.0</ele><time>2026-04-06T12:28:56.984Z</time></trkpt><trkpt lat="45.99493109851603" lon="8.722781180274232"><ele>198.0</ele><time>2026-04-06T12:28:57.984Z</time></trkpt><trkpt lat="45.99484913122665" lon="8.722625027711972"><ele>198.0</ele><time>2026-04-06T12:28:58.984Z</time></trkpt><trkpt lat="45.994760085028716" lon="8.722465324705096"><ele>198.0</ele><time>2026-04-06T12:28:59.984Z</time></trkpt><trkpt lat="45.99466863324326" lon="8.722299360083783"><ele>198.0</ele><time>2026-04-06T12:29:00.984Z</time></trkpt><trkpt lat="45.99457362861061" lon="8.72213830025811"><ele>198.0</ele><time>2026-04-06T12:29:01.984Z</time></trkpt><trkpt lat="45.99448173894245" lon="8.721977796913745"><ele>198.0</ele><time>2026-04-06T12:29:02.984Z</time></trkpt><trkpt lat="45.99438917317877" lon="8.721813667972725"><ele>198.25</ele><time>2026-04-06T12:29:03.984Z</time></trkpt><trkpt lat="45.99429804033346" lon="8.721647502250514"><ele>198.5</ele><time>2026-04-06T12:29:04.984Z</time></trkpt><trkpt lat="45.994204402742994" lon="8.721479483478838"><ele>198.75</ele><time>2026-04-06T12:29:05.984Z</time></trkpt><trkpt lat="45.99411169007638" lon="8.721309106793111"><ele>199.0</ele><time>2026-04-06T12:29:06.984Z</time></trkpt><trkpt lat="45.994017536372276" lon="8.721141157540147"><ele>198.5</ele><time>2026-04-06T12:29:07.984Z</time></trkpt><trkpt lat="45.993923828481634" lon="8.720976241572204"><ele>198.0</ele><time>2026-04-06T12:29:08.984Z</time></trkpt><trkpt lat="45.99383095012256" lon="8.720815884662503"><ele>197.5</ele><time>2026-04-06T12:29:09.984Z</time></trkpt><trkpt lat="45.993754124595064" lon="8.720642938069476"><ele>197.0</ele><time>2026-04-06T12:29:10.984Z</time></trkpt><trkpt lat="45.99365537009393" lon="8.720492194181624"><ele>197.0</ele><time>2026-04-06T12:29:11.984Z</time></trkpt><trkpt lat="45.9935495685966" lon="8.720356647119706"><ele>197.0</ele><time>2026-04-06T12:29:12.984Z</time></trkpt><trkpt lat="45.99343871773831" lon="8.720231962091471"><ele>197.0</ele><time>2026-04-06T12:29:13.984Z</time></trkpt><trkpt lat="45.99332524078495" lon="8.720119764038115"><ele>197.0</ele><time>2026-04-06T12:29:14.984Z</time></trkpt><trkpt lat="45.99320051053639" lon="8.72002126379554"><ele>196.33333333333334</ele><time>2026-04-06T12:29:15.984Z</time></trkpt><trkpt lat="45.993065248562026" lon="8.719932865789746"><ele>195.66666666666669</ele><time>2026-04-06T12:29:16.984Z</time></trkpt><trkpt lat="45.99292237046174" lon="8.719848508094767"><ele>195.0</ele><time>2026-04-06T12:29:17.984Z</time></trkpt><trkpt lat="45.99277441122122" lon="8.719765533198332"><ele>195.0</ele><time>2026-04-06T12:29:18.984Z</time></trkpt><trkpt lat="45.99262301993486" lon="8.719680633699381"><ele>195.0</ele><time>2026-04-06T12:29:19.984Z</time></trkpt><trkpt lat="45.992466020370024" lon="8.719592589109743"><ele>195.0</ele><time>2026-04-06T12:29:20.984Z</time></trkpt><trkpt lat="45.99230571425476" lon="8.719502690074052"><ele>194.33333333333331</ele><time>2026-04-06T12:29:21.984Z</time></trkpt><trkpt lat="45.992142532589966" lon="8.719410632979104"><ele>193.66666666666666</ele><time>2026-04-06T12:29:22.984Z</time></trkpt><trkpt lat="45.99198086476417" lon="8.719318423985731"><ele>193.0</ele><time>2026-04-06T12:29:23.984Z</time></trkpt><trkpt lat="45.99183008745433" lon="8.719232426641144"><ele>193.0</ele><time>2026-04-06T12:29:24.984Z</time></trkpt><trkpt lat="45.99168660253957" lon="8.719150588796586"><ele>193.0</ele><time>2026-04-06T12:29:25.985Z</time></trkpt><trkpt lat="45.991549415340856" lon="8.719071657222116"><ele>193.0</ele><time>2026-04-06T12:29:26.985Z</time></trkpt><trkpt lat="45.99141229320811" lon="8.718992531999625"><ele>194.25</ele><time>2026-04-06T12:29:27.985Z</time></trkpt><trkpt lat="45.991274470730886" lon="8.718913000619134"><ele>195.5</ele><time>2026-04-06T12:29:28.985Z</time></trkpt><trkpt lat="45.99113769836503" lon="8.718834075344217"><ele>196.75</ele><time>2026-04-06T12:29:29.984Z</time></trkpt><trkpt lat="45.99100357420588" lon="8.718754676230505"><ele>198.0</ele><time>2026-04-06T12:29:30.984Z</time></trkpt><trkpt lat="45.990874213162684" lon="8.71869718912234"><ele>197.0</ele><time>2026-04-06T12:29:31.985Z</time></trkpt><trkpt lat="45.990779708302526" lon="8.718614847595912"><ele>196.0</ele><time>2026-04-06T12:29:32.984Z</time></trkpt><trkpt lat="45.99069370422083" lon="8.718537434894916"><ele>195.0</ele><time>2026-04-06T12:29:33.984Z</time></trkpt><trkpt lat="45.99062245372821" lon="8.718465256599888"><ele>194.0</ele><time>2026-04-06T12:29:34.985Z</time></trkpt><trkpt lat="45.9905587297238" lon="8.718397474453516"><ele>193.0</ele><time>2026-04-06T12:29:35.984Z</time></trkpt><trkpt lat="45.99051313932638" lon="8.71831099045125"><ele>193.0</ele><time>2026-04-06T12:29:36.984Z</time></trkpt><trkpt lat="45.99045357331957" lon="8.718231764303042"><ele>193.0</ele><time>2026-04-06T12:29:37.984Z</time></trkpt><trkpt lat="45.99038962446563" lon="8.718145390342782"><ele>193.0</ele><time>2026-04-06T12:29:38.985Z</time></trkpt><trkpt lat="45.99032615298929" lon="8.718049326004857"><ele>193.0</ele><time>2026-04-06T12:29:39.985Z</time></trkpt><trkpt lat="45.9902697103048" lon="8.717931339238254"><ele>193.0</ele><time>2026-04-06T12:29:40.985Z</time></trkpt><trkpt lat="45.99020126501556" lon="8.717802015923493"><ele>192.75</ele><time>2026-04-06T12:29:41.985Z</time></trkpt><trkpt lat="45.990131056179244" lon="8.717649081530443"><ele>192.5</ele><time>2026-04-06T12:29:42.985Z</time></trkpt><trkpt lat="45.99005354498723" lon="8.717482026179795"><ele>192.25</ele><time>2026-04-06T12:29:43.985Z</time></trkpt><trkpt lat="45.989972652564454" lon="8.717299184371155"><ele>192.0</ele><time>2026-04-06T12:29:44.985Z</time></trkpt><trkpt lat="45.989906218820025" lon="8.717098557492914"><ele>194.33333333333331</ele><time>2026-04-06T12:29:45.985Z</time></trkpt><trkpt lat="45.98982166245633" lon="8.716895406755027"><ele>196.66666666666666</ele><time>2026-04-06T12:29:46.984Z</time></trkpt><trkpt lat="45.989740102182516" lon="8.716676661475274"><ele>199.0</ele><time>2026-04-06T12:29:47.984Z</time></trkpt><trkpt lat="45.98965917745457" lon="8.71645249458447"><ele>199.0</ele><time>2026-04-06T12:29:48.984Z</time></trkpt><trkpt lat="45.98956704803147" lon="8.716248335963035"><ele>199.0</ele><time>2026-04-06T12:29:49.984Z</time></trkpt><trkpt lat="45.989477411852555" lon="8.716041077647677"><ele>199.0</ele><time>2026-04-06T12:29:50.984Z</time></trkpt><trkpt lat="45.98938730024511" lon="8.715820978957177"><ele>199.33333333333331</ele><time>2026-04-06T12:29:51.984Z</time></trkpt><trkpt lat="45.98929800221497" lon="8.71559930469283"><ele>199.66666666666669</ele><time>2026-04-06T12:29:52.984Z</time></trkpt><trkpt lat="45.989209672298685" lon="8.715387470653864"><ele>200.0</ele><time>2026-04-06T12:29:53.984Z</time></trkpt><trkpt lat="45.98912794978201" lon="8.715176289888058"><ele>200.0</ele><time>2026-04-06T12:29:54.984Z</time></trkpt><trkpt lat="45.98906277559845" lon="8.714957046859858"><ele>200.0</ele><time>2026-04-06T12:29:55.984Z</time></trkpt><trkpt lat="45.98898157982601" lon="8.714750219749519"><ele>200.0</ele><time>2026-04-06T12:29:56.984Z</time></trkpt><trkpt lat="45.98889911622571" lon="8.714540294639502"><ele>199.33333333333334</ele><time>2026-04-06T12:29:57.984Z</time></trkpt><trkpt lat="45.988817772570215" lon="8.71433088792873"><ele>198.66666666666669</ele><time>2026-04-06T12:29:58.984Z</time></trkpt><trkpt lat="45.98873489282785" lon="8.714117178649696"><ele>198.0</ele><time>2026-04-06T12:29:59.984Z</time></trkpt><trkpt lat="45.9886383745849" lon="8.713907921384813"><ele>198.0</ele><time>2026-04-06T12:30:00.984Z</time></trkpt><trkpt lat="45.98855641646862" lon="8.713685988606915"><ele>198.0</ele><time>2026-04-06T12:30:01.984Z</time></trkpt><trkpt lat="45.98847828476304" lon="8.713475117050427"><ele>198.0</ele><time>2026-04-06T12:30:02.984Z</time></trkpt><trkpt lat="45.988407538476274" lon="8.713270222002043"><ele>200.66666666666669</ele><time>2026-04-06T12:30:03.984Z</time></trkpt><trkpt lat="45.98833904962534" lon="8.713076146378416"><ele>203.33333333333334</ele><time>2026-04-06T12:30:04.984Z</time></trkpt><trkpt lat="45.98826216848826" lon="8.712892015432192"><ele>206.0</ele><time>2026-04-06T12:30:05.984Z</time></trkpt><trkpt lat="45.9881717512176" lon="8.712717141460296"><ele>206.0</ele><time>2026-04-06T12:30:06.984Z</time></trkpt><trkpt lat="45.9880690662221" lon="8.71256018431953"><ele>206.0</ele><time>2026-04-06T12:30:07.984Z</time></trkpt><trkpt lat="45.987946657747585" lon="8.71244166939913"><ele>206.0</ele><time>2026-04-06T12:30:08.984Z</time></trkpt><trkpt lat="45.98780800921175" lon="8.712355975834603"><ele>206.0</ele><time>2026-04-06T12:30:09.984Z</time></trkpt><trkpt lat="45.9876598964542" lon="8.712285572094542"><ele>209.0</ele><time>2026-04-06T12:30:10.984Z</time></trkpt><trkpt lat="45.987501803965905" lon="8.71226156456082"><ele>212.0</ele><time>2026-04-06T12:30:11.984Z</time></trkpt><trkpt lat="45.98734600759603" lon="8.712246338512768"><ele>215.0</ele><time>2026-04-06T12:30:12.984Z</time></trkpt><trkpt lat="45.987202910176684" lon="8.712255392634429"><ele>215.0</ele><time>2026-04-06T12:30:13.984Z</time></trkpt><trkpt lat="45.987064293681954" lon="8.71223508438226"><ele>215.0</ele><time>2026-04-06T12:30:14.984Z</time></trkpt><trkpt lat="45.98692484742188" lon="8.71221198911837"><ele>215.0</ele><time>2026-04-06T12:30:15.984Z</time></trkpt><trkpt lat="45.98678608725976" lon="8.712186345548737"><ele>215.0</ele><time>2026-04-06T12:30:16.984Z</time></trkpt><trkpt lat="45.98664787019886" lon="8.712153293599272"><ele>220.75</ele><time>2026-04-06T12:30:17.984Z</time></trkpt><trkpt lat="45.98650924080448" lon="8.712115007011338"><ele>226.5</ele><time>2026-04-06T12:30:18.984Z</time></trkpt><trkpt lat="45.98636591328211" lon="8.712120046913752"><ele>232.25</ele><time>2026-04-06T12:30:19.984Z</time></trkpt><trkpt lat="45.98622382170176" lon="8.71216962521354"><ele>238.0</ele><time>2026-04-06T12:30:20.984Z</time></trkpt><trkpt lat="45.98608381227684" lon="8.712235964777172"><ele>238.0</ele><time>2026-04-06T12:30:21.984Z</time></trkpt><trkpt lat="45.98593290146843" lon="8.712295065503358"><ele>238.0</ele><time>2026-04-06T12:30:22.984Z</time></trkpt><trkpt lat="45.98578470766624" lon="8.712358380072676"><ele>238.0</ele><time>2026-04-06T12:30:23.984Z</time></trkpt><trkpt lat="45.98563834956828" lon="8.712418559591972"><ele>236.66666666666666</ele><time>2026-04-06T12:30:24.984Z</time></trkpt><trkpt lat="45.985490384910015" lon="8.71246446229321"><ele>235.33333333333331</ele><time>2026-04-06T12:30:25.984Z</time></trkpt><trkpt lat="45.98533774344908" lon="8.71249352150434"><ele>234.0</ele><time>2026-04-06T12:30:26.984Z</time></trkpt><trkpt lat="45.985174240712425" lon="8.712505824269016"><ele>231.66666666666669</ele><time>2026-04-06T12:30:27.984Z</time></trkpt><trkpt lat="45.985001094495836" lon="8.712503085281142"><ele>229.33333333333334</ele><time>2026-04-06T12:30:28.984Z</time></trkpt><trkpt lat="45.984829621410064" lon="8.7124950896657"><ele>227.0</ele><time>2026-04-06T12:30:29.984Z</time></trkpt><trkpt lat="45.98466529629335" lon="8.712496646774778"><ele>227.0</ele><time>2026-04-06T12:30:30.984Z</time></trkpt><trkpt lat="45.98448725578438" lon="8.71250457985242"><ele>227.0</ele><time>2026-04-06T12:30:31.984Z</time></trkpt><trkpt lat="45.98432540757117" lon="8.712511791435212"><ele>227.0</ele><time>2026-04-06T12:30:32.984Z</time></trkpt><trkpt lat="45.98416701840779" lon="8.71251491425177"><ele>224.66666666666669</ele><time>2026-04-06T12:30:33.983Z</time></trkpt><trkpt lat="45.98400883198551" lon="8.71250409043238"><ele>222.33333333333331</ele><time>2026-04-06T12:30:34.983Z</time></trkpt><trkpt lat="45.983834022389686" lon="8.712460878539794"><ele>220.0</ele><time>2026-04-06T12:30:35.983Z</time></trkpt><trkpt lat="45.98366321091224" lon="8.712377699120726"><ele>220.0</ele><time>2026-04-06T12:30:36.983Z</time></trkpt><trkpt lat="45.98349789579525" lon="8.712287974497336"><ele>220.0</ele><time>2026-04-06T12:30:37.983Z</time></trkpt><trkpt lat="45.98332739711902" lon="8.712202854144062"><ele>220.0</ele><time>2026-04-06T12:30:38.983Z</time></trkpt><trkpt lat="45.983153018525584" lon="8.712115002836743"><ele>222.33333333333331</ele><time>2026-04-06T12:30:39.983Z</time></trkpt><trkpt lat="45.98298067358601" lon="8.71200686259819"><ele>224.66666666666669</ele><time>2026-04-06T12:30:40.983Z</time></trkpt><trkpt lat="45.9828050982407" lon="8.711916881466506"><ele>227.0</ele><time>2026-04-06T12:30:41.983Z</time></trkpt><trkpt lat="45.98263517039114" lon="8.711829703700177"><ele>223.33333333333334</ele><time>2026-04-06T12:30:42.983Z</time></trkpt><trkpt lat="45.98247358905323" lon="8.711746772615614"><ele>219.66666666666669</ele><time>2026-04-06T12:30:43.983Z</time></trkpt><trkpt lat="45.982313967380044" lon="8.711659812964268"><ele>216.0</ele><time>2026-04-06T12:30:44.983Z</time></trkpt><trkpt lat="45.98216206144439" lon="8.711547003506222"><ele>216.0</ele><time>2026-04-06T12:30:45.983Z</time></trkpt><trkpt lat="45.982020415608574" lon="8.71143489085656"><ele>216.0</ele><time>2026-04-06T12:30:46.983Z</time></trkpt><trkpt lat="45.98188970560357" lon="8.71133878234508"><ele>216.0</ele><time>2026-04-06T12:30:47.983Z</time></trkpt><trkpt lat="45.98176904911484" lon="8.711260872513058"><ele>216.0</ele><time>2026-04-06T12:30:48.983Z</time></trkpt><trkpt lat="45.981645349032426" lon="8.711205949409973"><ele>221.75</ele><time>2026-04-06T12:30:49.983Z</time></trkpt><trkpt lat="45.981524947303924" lon="8.711185650733269"><ele>227.5</ele><time>2026-04-06T12:30:50.983Z</time></trkpt><trkpt lat="45.98138973565214" lon="8.7111781248314"><ele>233.25</ele><time>2026-04-06T12:30:51.983Z</time></trkpt><trkpt lat="45.98123652611036" lon="8.711173527394097"><ele>239.0</ele><time>2026-04-06T12:30:52.983Z</time></trkpt><trkpt lat="45.98108733243778" lon="8.711166796075505"><ele>239.0</ele><time>2026-04-06T12:30:53.983Z</time></trkpt><trkpt lat="45.9809469444941" lon="8.711144883871675"><ele>239.0</ele><time>2026-04-06T12:30:54.983Z</time></trkpt><trkpt lat="45.9808069529852" lon="8.711089575029941"><ele>239.0</ele><time>2026-04-06T12:30:55.983Z</time></trkpt><trkpt lat="45.98065829319001" lon="8.71102205016436"><ele>239.0</ele><time>2026-04-06T12:30:56.983Z</time></trkpt><trkpt lat="45.980497244277565" lon="8.710941020505262"><ele>228.0</ele><time>2026-04-06T12:30:57.983Z</time></trkpt><trkpt lat="45.98033014828717" lon="8.710850937620512"><ele>217.0</ele><time>2026-04-06T12:30:58.983Z</time></trkpt><trkpt lat="45.98015474511396" lon="8.71075068814549"><ele>206.0</ele><time>2026-04-06T12:30:59.983Z</time></trkpt><trkpt lat="45.979980666136655" lon="8.71065696655482"><ele>206.0</ele><time>2026-04-06T12:31:00.983Z</time></trkpt><trkpt lat="45.97980828464338" lon="8.710565514546488"><ele>206.0</ele><time>2026-04-06T12:31:01.983Z</time></trkpt><trkpt lat="45.979642981333456" lon="8.71047781763498"><ele>206.0</ele><time>2026-04-06T12:31:02.983Z</time></trkpt><trkpt lat="45.97947906810272" lon="8.710389304346208"><ele>206.0</ele><time>2026-04-06T12:31:03.983Z</time></trkpt><trkpt lat="45.97932583528691" lon="8.710307093323575"><ele>206.0</ele><time>2026-04-06T12:31:04.983Z</time></trkpt><trkpt lat="45.97918312974788" lon="8.710249084042749"><ele>206.0</ele><time>2026-04-06T12:31:05.983Z</time></trkpt><trkpt lat="45.97905636816227" lon="8.710152990760472"><ele>204.66666666666669</ele><time>2026-04-06T12:31:06.983Z</time></trkpt><trkpt lat="45.978953361100146" lon="8.710002003804897"><ele>203.33333333333331</ele><time>2026-04-06T12:31:07.983Z</time></trkpt><trkpt lat="45.97884713096744" lon="8.709842321067894"><ele>202.0</ele><time>2026-04-06T12:31:08.983Z</time></trkpt><trkpt lat="45.97875197371053" lon="8.709647823379806"><ele>202.0</ele><time>2026-04-06T12:31:09.983Z</time></trkpt><trkpt lat="45.97865044384174" lon="8.709445680531609"><ele>202.0</ele><time>2026-04-06T12:31:10.983Z</time></trkpt><trkpt lat="45.97855117943205" lon="8.709246839030968"><ele>202.0</ele><time>2026-04-06T12:31:11.983Z</time></trkpt><trkpt lat="45.97845272382965" lon="8.709055841773537"><ele>203.0</ele><time>2026-04-06T12:31:12.983Z</time></trkpt><trkpt lat="45.97835873182602" lon="8.708867287740368"><ele>204.0</ele><time>2026-04-06T12:31:13.983Z</time></trkpt><trkpt lat="45.978268119024804" lon="8.708687627561424"><ele>205.0</ele><time>2026-04-06T12:31:14.983Z</time></trkpt><trkpt lat="45.97817265837722" lon="8.708525773685578"><ele>202.33333333333331</ele><time>2026-04-06T12:31:15.983Z</time></trkpt><trkpt lat="45.97806277660791" lon="8.708375105195572"><ele>199.66666666666669</ele><time>2026-04-06T12:31:16.983Z</time></trkpt><trkpt lat="45.97793591365857" lon="8.708238247154618"><ele>197.0</ele><time>2026-04-06T12:31:17.983Z</time></trkpt><trkpt lat="45.97779870302759" lon="8.70810959579325"><ele>197.0</ele><time>2026-04-06T12:31:18.983Z</time></trkpt><trkpt lat="45.97766511106412" lon="8.707951657427463"><ele>197.0</ele><time>2026-04-06T12:31:19.983Z</time></trkpt><trkpt lat="45.97751785196435" lon="8.70780840548116"><ele>197.0</ele><time>2026-04-06T12:31:20.983Z</time></trkpt><trkpt lat="45.97737873122294" lon="8.707667429702482"><ele>197.33333333333334</ele><time>2026-04-06T12:31:21.982Z</time></trkpt><trkpt lat="45.97724564626141" lon="8.707500865538407"><ele>197.66666666666669</ele><time>2026-04-06T12:31:22.982Z</time></trkpt><trkpt lat="45.97710628823933" lon="8.70733460421711"><ele>198.0</ele><time>2026-04-06T12:31:23.982Z</time></trkpt><trkpt lat="45.97698180634956" lon="8.70715026900493"><ele>198.0</ele><time>2026-04-06T12:31:24.982Z</time></trkpt><trkpt lat="45.97686027932563" lon="8.706970160910148"><ele>198.0</ele><time>2026-04-06T12:31:25.982Z</time></trkpt><trkpt lat="45.97673280291823" lon="8.706797709599792"><ele>198.0</ele><time>2026-04-06T12:31:26.982Z</time></trkpt><trkpt lat="45.976605311240384" lon="8.706630823617663"><ele>199.0</ele><time>2026-04-06T12:31:27.982Z</time></trkpt><trkpt lat="45.976483849810506" lon="8.706455554831482"><ele>200.0</ele><time>2026-04-06T12:31:28.982Z</time></trkpt><trkpt lat="45.976341575670205" lon="8.706308641777694"><ele>201.0</ele><time>2026-04-06T12:31:29.982Z</time></trkpt><trkpt lat="45.976197298550154" lon="8.706167466678977"><ele>201.33333333333331</ele><time>2026-04-06T12:31:30.982Z</time></trkpt><trkpt lat="45.976048190853646" lon="8.706029722197112"><ele>201.66666666666666</ele><time>2026-04-06T12:31:31.984Z</time></trkpt><trkpt lat="45.97589593585462" lon="8.70590518842413"><ele>202.0</ele><time>2026-04-06T12:31:32.984Z</time></trkpt><trkpt lat="45.975746625610135" lon="8.70579136883457"><ele>202.0</ele><time>2026-04-06T12:31:33.984Z</time></trkpt><trkpt lat="45.97559418789728" lon="8.705671731216293"><ele>202.0</ele><time>2026-04-06T12:31:34.984Z</time></trkpt><trkpt lat="45.97545021791098" lon="8.705537842948774"><ele>202.0</ele><time>2026-04-06T12:31:35.985Z</time></trkpt><trkpt lat="45.97531977185007" lon="8.705380206114427"><ele>203.66666666666666</ele><time>2026-04-06T12:31:36.984Z</time></trkpt><trkpt lat="45.97520303648139" lon="8.705196370949796"><ele>205.33333333333331</ele><time>2026-04-06T12:31:37.984Z</time></trkpt><trkpt lat="45.97509197200413" lon="8.70500144980608"><ele>207.0</ele><time>2026-04-06T12:31:38.984Z</time></trkpt><trkpt lat="45.9749795631942" lon="8.704797212336363"><ele>207.0</ele><time>2026-04-06T12:31:39.984Z</time></trkpt><trkpt lat="45.97486090717136" lon="8.704588131853217"><ele>207.0</ele><time>2026-04-06T12:31:40.984Z</time></trkpt><trkpt lat="45.97473516224229" lon="8.704372971975808"><ele>207.0</ele><time>2026-04-06T12:31:41.984Z</time></trkpt><trkpt lat="45.974607326392366" lon="8.704154007745789"><ele>202.66666666666669</ele><time>2026-04-06T12:31:42.984Z</time></trkpt><trkpt lat="45.974479874187416" lon="8.703941207363194"><ele>198.33333333333334</ele><time>2026-04-06T12:31:43.985Z</time></trkpt><trkpt lat="45.97435519890023" lon="8.703732629452547"><ele>194.0</ele><time>2026-04-06T12:31:44.984Z</time></trkpt><trkpt lat="45.97423533840414" lon="8.703527875395123"><ele>198.66666666666669</ele><time>2026-04-06T12:31:45.984Z</time></trkpt><trkpt lat="45.974148040069245" lon="8.703299304248263"><ele>203.33333333333331</ele><time>2026-04-06T12:31:46.984Z</time></trkpt><trkpt lat="45.974057118633134" lon="8.70307916044994"><ele>208.0</ele><time>2026-04-06T12:31:47.984Z</time></trkpt><trkpt lat="45.973971415292226" lon="8.702865225040888"><ele>205.66666666666666</ele><time>2026-04-06T12:31:48.984Z</time></trkpt><trkpt lat="45.97388419404224" lon="8.702653139078214"><ele>203.33333333333331</ele><time>2026-04-06T12:31:49.984Z</time></trkpt><trkpt lat="45.973793367815226" lon="8.702443832800332"><ele>201.0</ele><time>2026-04-06T12:31:50.984Z</time></trkpt><trkpt lat="45.97368854025088" lon="8.702235754132197"><ele>201.0</ele><time>2026-04-06T12:31:51.984Z</time></trkpt><trkpt lat="45.973578810227956" lon="8.702028593678431"><ele>201.0</ele><time>2026-04-06T12:31:52.984Z</time></trkpt><trkpt lat="45.97346315887543" lon="8.701818235279475"><ele>201.0</ele><time>2026-04-06T12:31:53.984Z</time></trkpt><trkpt lat="45.97333831842611" lon="8.701601613035098"><ele>202.33333333333331</ele><time>2026-04-06T12:31:54.984Z</time></trkpt><trkpt lat="45.97319104454303" lon="8.701407957266275"><ele>203.66666666666666</ele><time>2026-04-06T12:31:55.984Z</time></trkpt><trkpt lat="45.97304644740194" lon="8.70119723622199"><ele>205.0</ele><time>2026-04-06T12:31:56.984Z</time></trkpt><trkpt lat="45.97289166865283" lon="8.700985293267294"><ele>205.0</ele><time>2026-04-06T12:31:57.984Z</time></trkpt><trkpt lat="45.97273172643613" lon="8.700766819648331"><ele>205.0</ele><time>2026-04-06T12:31:58.984Z</time></trkpt><trkpt lat="45.97256554216565" lon="8.700543767652405"><ele>205.0</ele><time>2026-04-06T12:31:59.984Z</time></trkpt><trkpt lat="45.97239526571775" lon="8.700308505292524"><ele>201.5</ele><time>2026-04-06T12:32:00.984Z</time></trkpt><trkpt lat="45.97222880306436" lon="8.70006862876154"><ele>198.0</ele><time>2026-04-06T12:32:01.984Z</time></trkpt><trkpt lat="45.97206567861357" lon="8.699835732667998"><ele>198.0</ele><time>2026-04-06T12:32:02.984Z</time></trkpt><trkpt lat="45.9719088814976" lon="8.699606858454677"><ele>198.0</ele><time>2026-04-06T12:32:03.984Z</time></trkpt><trkpt lat="45.971757273441646" lon="8.699383236595583"><ele>198.0</ele><time>2026-04-06T12:32:04.983Z</time></trkpt><trkpt lat="45.97161185598105" lon="8.699165394938875"><ele>198.33333333333331</ele><time>2026-04-06T12:32:05.983Z</time></trkpt><trkpt lat="45.97147302067937" lon="8.698950495066303"><ele>198.66666666666666</ele><time>2026-04-06T12:32:06.983Z</time></trkpt><trkpt lat="45.971335564447244" lon="8.69874846842526"><ele>199.0</ele><time>2026-04-06T12:32:07.983Z</time></trkpt><trkpt lat="45.9712078802977" lon="8.698540442036652"><ele>199.0</ele><time>2026-04-06T12:32:08.983Z</time></trkpt><trkpt lat="45.97108791708913" lon="8.698320579745682"><ele>199.0</ele><time>2026-04-06T12:32:09.983Z</time></trkpt><trkpt lat="45.97097034179285" lon="8.698099030284705"><ele>199.0</ele><time>2026-04-06T12:32:10.983Z</time></trkpt><trkpt lat="45.970854714369494" lon="8.697880668735447"><ele>200.0</ele><time>2026-04-06T12:32:11.983Z</time></trkpt><trkpt lat="45.97073703539666" lon="8.697669823943693"><ele>201.0</ele><time>2026-04-06T12:32:12.983Z</time></trkpt><trkpt lat="45.970608998053706" lon="8.697462810779557"><ele>202.0</ele><time>2026-04-06T12:32:13.983Z</time></trkpt><trkpt lat="45.97046787111847" lon="8.697264314344517"><ele>202.0</ele><time>2026-04-06T12:32:14.983Z</time></trkpt><trkpt lat="45.97032441378929" lon="8.697063659531002"><ele>202.0</ele><time>2026-04-06T12:32:15.983Z</time></trkpt><trkpt lat="45.97018084404668" lon="8.696867631281627"><ele>202.0</ele><time>2026-04-06T12:32:16.983Z</time></trkpt><trkpt lat="45.970037667414424" lon="8.696671998376333"><ele>203.66666666666666</ele><time>2026-04-06T12:32:17.983Z</time></trkpt><trkpt lat="45.969894718874315" lon="8.696479724469745"><ele>205.33333333333331</ele><time>2026-04-06T12:32:18.983Z</time></trkpt><trkpt lat="45.96975218263425" lon="8.696292774898012"><ele>207.0</ele><time>2026-04-06T12:32:19.983Z</time></trkpt><trkpt lat="45.9696031623818" lon="8.696116459058288"><ele>208.66666666666669</ele><time>2026-04-06T12:32:20.983Z</time></trkpt><trkpt lat="45.96944695756606" lon="8.695950207940207"><ele>210.33333333333334</ele><time>2026-04-06T12:32:21.983Z</time></trkpt><trkpt lat="45.96928457359226" lon="8.695791034117327"><ele>212.0</ele><time>2026-04-06T12:32:22.983Z</time></trkpt><trkpt lat="45.96912168545605" lon="8.695630550080656"><ele>212.0</ele><time>2026-04-06T12:32:23.983Z</time></trkpt><trkpt lat="45.96896192088449" lon="8.695456797807156"><ele>212.0</ele><time>2026-04-06T12:32:24.983Z</time></trkpt><trkpt lat="45.96880273668749" lon="8.695286353171214"><ele>212.0</ele><time>2026-04-06T12:32:25.983Z</time></trkpt><trkpt lat="45.9686480386618" lon="8.695111891919945"><ele>215.33333333333334</ele><time>2026-04-06T12:32:26.983Z</time></trkpt><trkpt lat="45.96850753620241" lon="8.69492892338428"><ele>218.66666666666669</ele><time>2026-04-06T12:32:27.983Z</time></trkpt><trkpt lat="45.968380478875865" lon="8.694738841819476"><ele>222.0</ele><time>2026-04-06T12:32:28.983Z</time></trkpt><trkpt lat="45.96826263002092" lon="8.69453752242375"><ele>217.0</ele><time>2026-04-06T12:32:29.983Z</time></trkpt><trkpt lat="45.968150279247354" lon="8.694329156542295"><ele>212.0</ele><time>2026-04-06T12:32:30.983Z</time></trkpt><trkpt lat="45.96803361738688" lon="8.694110451816433"><ele>207.0</ele><time>2026-04-06T12:32:31.983Z</time></trkpt><trkpt lat="45.96791340532708" lon="8.693884407488854"><ele>207.0</ele><time>2026-04-06T12:32:32.983Z</time></trkpt><trkpt lat="45.96778739015411" lon="8.693650370113467"><ele>207.0</ele><time>2026-04-06T12:32:33.983Z</time></trkpt><trkpt lat="45.96765517032361" lon="8.693407369109439"><ele>207.0</ele><time>2026-04-06T12:32:34.983Z</time></trkpt><trkpt lat="45.96752029671941" lon="8.693157494536704"><ele>206.0</ele><time>2026-04-06T12:32:35.983Z</time></trkpt><trkpt lat="45.967390005904804" lon="8.692903196416408"><ele>205.0</ele><time>2026-04-06T12:32:36.983Z</time></trkpt><trkpt lat="45.967265826583336" lon="8.692646698998708"><ele>204.0</ele><time>2026-04-06T12:32:37.983Z</time></trkpt><trkpt lat="45.96714830864307" lon="8.692392479724406"><ele>204.0</ele><time>2026-04-06T12:32:38.983Z</time></trkpt><trkpt lat="45.967041825664396" lon="8.69213622650778"><ele>204.0</ele><time>2026-04-06T12:32:39.983Z</time></trkpt><trkpt lat="45.966942565844064" lon="8.691883633656083"><ele>204.0</ele><time>2026-04-06T12:32:40.983Z</time></trkpt><trkpt lat="45.96684534229466" lon="8.691640646869923"><ele>204.33333333333331</ele><time>2026-04-06T12:32:41.983Z</time></trkpt><trkpt lat="45.966753539913334" lon="8.691399880945252"><ele>204.66666666666666</ele><time>2026-04-06T12:32:42.983Z</time></trkpt><trkpt lat="45.9666616301105" lon="8.691164573726265"><ele>205.0</ele><time>2026-04-06T12:32:43.983Z</time></trkpt><trkpt lat="45.96656791181801" lon="8.690926615459995"><ele>205.0</ele><time>2026-04-06T12:32:44.983Z</time></trkpt><trkpt lat="45.96647216099339" lon="8.690686734750434"><ele>205.0</ele><time>2026-04-06T12:32:45.983Z</time></trkpt><trkpt lat="45.9663904062553" lon="8.690433567693377"><ele>205.0</ele><time>2026-04-06T12:32:46.983Z</time></trkpt><trkpt lat="45.96629651214583" lon="8.690183910758877"><ele>202.0</ele><time>2026-04-06T12:32:47.983Z</time></trkpt><trkpt lat="45.966204653728184" lon="8.689937523649398"><ele>199.0</ele><time>2026-04-06T12:32:48.983Z</time></trkpt><trkpt lat="45.96611516081112" lon="8.6896973950607"><ele>196.0</ele><time>2026-04-06T12:32:49.983Z</time></trkpt><trkpt lat="45.966028589612144" lon="8.689465146289313"><ele>195.33333333333331</ele><time>2026-04-06T12:32:50.983Z</time></trkpt><trkpt lat="45.96594383674626" lon="8.689248874846818"><ele>194.66666666666669</ele><time>2026-04-06T12:32:51.983Z</time></trkpt><trkpt lat="45.965860291132955" lon="8.689040727681784"><ele>194.0</ele><time>2026-04-06T12:32:52.982Z</time></trkpt><trkpt lat="45.9657674514116" lon="8.688838370240253"><ele>196.33333333333334</ele><time>2026-04-06T12:32:53.982Z</time></trkpt><trkpt lat="45.96565386365275" lon="8.688652013882589"><ele>198.66666666666669</ele><time>2026-04-06T12:32:54.982Z</time></trkpt><trkpt lat="45.965510288693444" lon="8.688496379716092"><ele>201.0</ele><time>2026-04-06T12:32:55.982Z</time></trkpt><trkpt lat="45.96537751838853" lon="8.688311466251863"><ele>201.0</ele><time>2026-04-06T12:32:56.982Z</time></trkpt><trkpt lat="45.96522191427611" lon="8.688161588832136"><ele>201.0</ele><time>2026-04-06T12:32:57.982Z</time></trkpt><trkpt lat="45.96508295284466" lon="8.68797002779582"><ele>201.0</ele><time>2026-04-06T12:32:58.982Z</time></trkpt><trkpt lat="45.964922127124844" lon="8.687810171172417"><ele>201.66666666666669</ele><time>2026-04-06T12:32:59.982Z</time></trkpt><trkpt lat="45.964780719801034" lon="8.687617939696073"><ele>202.33333333333334</ele><time>2026-04-06T12:33:00.982Z</time></trkpt><trkpt lat="45.96461963085477" lon="8.68745945951306"><ele>203.0</ele><time>2026-04-06T12:33:01.982Z</time></trkpt><trkpt lat="45.96447088371778" lon="8.687277580259748"><ele>203.0</ele><time>2026-04-06T12:33:02.982Z</time></trkpt><trkpt lat="45.96432426711477" lon="8.687102079559256"><ele>203.0</ele><time>2026-04-06T12:33:03.982Z</time></trkpt><trkpt lat="45.96417084285384" lon="8.686942994828025"><ele>203.0</ele><time>2026-04-06T12:33:04.982Z</time></trkpt><trkpt lat="45.96401621998745" lon="8.686792948730403"><ele>204.66666666666669</ele><time>2026-04-06T12:33:05.982Z</time></trkpt><trkpt lat="45.963859154488354" lon="8.68665171603176"><ele>206.33333333333331</ele><time>2026-04-06T12:33:06.982Z</time></trkpt><trkpt lat="45.963726048408056" lon="8.68648797111252"><ele>208.0</ele><time>2026-04-06T12:33:07.982Z</time></trkpt><trkpt lat="45.96357908711606" lon="8.686350612471166"><ele>208.0</ele><time>2026-04-06T12:33:08.982Z</time></trkpt><trkpt lat="45.96343676385711" lon="8.68621488046164"><ele>208.0</ele><time>2026-04-06T12:33:09.982Z</time></trkpt><trkpt lat="45.96329547116901" lon="8.68607814832699"><ele>208.0</ele><time>2026-04-06T12:33:10.982Z</time></trkpt><trkpt lat="45.96316534531927" lon="8.685930961195957"><ele>207.66666666666666</ele><time>2026-04-06T12:33:11.982Z</time></trkpt><trkpt lat="45.963048705041786" lon="8.6857747677824"><ele>207.33333333333331</ele><time>2026-04-06T12:33:12.982Z</time></trkpt><trkpt lat="45.96294798662196" lon="8.685613028361843"><ele>207.0</ele><time>2026-04-06T12:33:13.982Z</time></trkpt><trkpt lat="45.9628632759138" lon="8.68545222725574"><ele>207.0</ele><time>2026-04-06T12:33:14.982Z</time></trkpt><trkpt lat="45.962787635395685" lon="8.68529132157372"><ele>207.0</ele><time>2026-04-06T12:33:15.982Z</time></trkpt><trkpt lat="45.962728893815836" lon="8.685119066582555"><ele>207.0</ele><time>2026-04-06T12:33:16.982Z</time></trkpt><trkpt lat="45.96267732697446" lon="8.684945384949069"><ele>207.0</ele><time>2026-04-06T12:33:17.982Z</time></trkpt><trkpt lat="45.962630495940914" lon="8.68476170809599"><ele>207.25</ele><time>2026-04-06T12:33:18.982Z</time></trkpt><trkpt lat="45.962588252486974" lon="8.684564319069608"><ele>207.5</ele><time>2026-04-06T12:33:19.982Z</time></trkpt><trkpt lat="45.962549452309986" lon="8.684372453876117"><ele>207.75</ele><time>2026-04-06T12:33:20.982Z</time></trkpt><trkpt lat="45.962520159422205" lon="8.684187213015512"><ele>208.0</ele><time>2026-04-06T12:33:21.982Z</time></trkpt><trkpt lat="45.96249569596036" lon="8.684009972777035"><ele>207.99999999999997</ele><time>2026-04-06T12:33:22.982Z</time></trkpt><trkpt lat="45.96247532335718" lon="8.683848264263737"><ele>208.0</ele><time>2026-04-06T12:33:23.982Z</time></trkpt><trkpt lat="45.96247045564503" lon="8.683705900313305"><ele>208.0</ele><time>2026-04-06T12:33:24.982Z</time></trkpt><trkpt lat="45.96247671695201" lon="8.683581588877074"><ele>208.0</ele><time>2026-04-06T12:33:25.982Z</time></trkpt><trkpt lat="45.96248987620038" lon="8.683481975907537"><ele>207.99999999999997</ele><time>2026-04-06T12:33:26.982Z</time></trkpt><trkpt lat="45.96250793149393" lon="8.683384782801213"><ele>208.0</ele><time>2026-04-06T12:33:27.982Z</time></trkpt><trkpt lat="45.9625293743557" lon="8.683291113520516"><ele>206.99999999999997</ele><time>2026-04-06T12:33:28.982Z</time></trkpt><trkpt lat="45.962566267524664" lon="8.683134903217185"><ele>206.0</ele><time>2026-04-06T12:33:30.982Z</time></trkpt><trkpt lat="45.962592250192664" lon="8.683010911958206"><ele>205.0</ele><time>2026-04-06T12:33:32.982Z</time></trkpt><trkpt lat="45.96261266774526" lon="8.68289360846147"><ele>204.0</ele><time>2026-04-06T12:33:34.982Z</time></trkpt><trkpt lat="45.962642522578086" lon="8.682813017148037"><ele>202.99999999999997</ele><time>2026-04-06T12:33:35.982Z</time></trkpt><trkpt lat="45.962678486213626" lon="8.682735878751213"><ele>202.0</ele><time>2026-04-06T12:33:36.982Z</time></trkpt><trkpt lat="45.96270659809068" lon="8.682618738808866"><ele>201.99999999999997</ele><time>2026-04-06T12:33:37.983Z</time></trkpt><trkpt lat="45.96272764606326" lon="8.682504470710043"><ele>202.0</ele><time>2026-04-06T12:33:38.983Z</time></trkpt><trkpt lat="45.96274506911931" lon="8.682394712432473"><ele>202.0</ele><time>2026-04-06T12:33:39.983Z</time></trkpt><trkpt lat="45.96274883246452" lon="8.682279115474323"><ele>202.0</ele><time>2026-04-06T12:33:40.983Z</time></trkpt><trkpt lat="45.96274513596366" lon="8.682163069214504"><ele>201.99999999999997</ele><time>2026-04-06T12:33:41.983Z</time></trkpt><trkpt lat="45.96273359115643" lon="8.682038145521744"><ele>202.0</ele><time>2026-04-06T12:33:42.983Z</time></trkpt><trkpt lat="45.96271859853252" lon="8.681914726104662"><ele>201.8</ele><time>2026-04-06T12:33:43.983Z</time></trkpt><trkpt lat="45.96270169704962" lon="8.681792473739103"><ele>201.6</ele><time>2026-04-06T12:33:44.984Z</time></trkpt><trkpt lat="45.96266906427509" lon="8.68167005154144"><ele>201.4</ele><time>2026-04-06T12:33:45.984Z</time></trkpt><trkpt lat="45.96262726765887" lon="8.681556818788323"><ele>201.20000000000002</ele><time>2026-04-06T12:33:46.984Z</time></trkpt><trkpt lat="45.96257079566157" lon="8.681418790050644"><ele>201.0</ele><time>2026-04-06T12:33:47.983Z</time></trkpt><trkpt lat="45.96253495975055" lon="8.681306367015717"><ele>200.83333333333334</ele><time>2026-04-06T12:33:48.983Z</time></trkpt><trkpt lat="45.96250500778815" lon="8.681219705926393"><ele>200.66666666666669</ele><time>2026-04-06T12:33:49.983Z</time></trkpt><trkpt lat="45.96247679486591" lon="8.681121531456341"><ele>200.5</ele><time>2026-04-06T12:33:51.983Z</time></trkpt><trkpt lat="45.96242288769269" lon="8.681002473795596"><ele>200.33333333333334</ele><time>2026-04-06T12:34:10.982Z</time></trkpt><trkpt lat="45.962376668898436" lon="8.680921165956452"><ele>200.16666666666669</ele><time>2026-04-06T12:34:11.982Z</time></trkpt><trkpt lat="45.96230093187262" lon="8.680848311556698"><ele>200.0</ele><time>2026-04-06T12:34:12.982Z</time></trkpt><trkpt lat="45.96223183036687" lon="8.68077019451793"><ele>200.0</ele><time>2026-04-06T12:34:13.982Z</time></trkpt><trkpt lat="45.962169820017856" lon="8.680682862582113"><ele>200.0</ele><time>2026-04-06T12:34:14.982Z</time></trkpt><trkpt lat="45.96208997443824" lon="8.680620246148898"><ele>200.0</ele><time>2026-04-06T12:34:15.982Z</time></trkpt><trkpt lat="45.96199004445194" lon="8.680591827511726"><ele>200.0</ele><time>2026-04-06T12:34:16.982Z</time></trkpt><trkpt lat="45.96189356413107" lon="8.680519260830355"><ele>200.0</ele><time>2026-04-06T12:34:17.982Z</time></trkpt><trkpt lat="45.96179098195703" lon="8.680467881883798"><ele>200.4</ele><time>2026-04-06T12:34:18.982Z</time></trkpt><trkpt lat="45.96168838454285" lon="8.680416495248558"><ele>200.8</ele><time>2026-04-06T12:34:19.982Z</time></trkpt><trkpt lat="45.96159003719785" lon="8.6803592402488"><ele>201.2</ele><time>2026-04-06T12:34:20.982Z</time></trkpt><trkpt lat="45.96149005179368" lon="8.680287337266051"><ele>201.6</ele><time>2026-04-06T12:34:21.982Z</time></trkpt><trkpt lat="45.96138944764912" lon="8.680218705567405"><ele>202.0</ele><time>2026-04-06T12:34:22.982Z</time></trkpt><trkpt lat="45.961302850701806" lon="8.680117621577905"><ele>201.0</ele><time>2026-04-06T12:34:23.982Z</time></trkpt><trkpt lat="45.9612258269344" lon="8.680007924456914"><ele>200.0</ele><time>2026-04-06T12:34:24.982Z</time></trkpt><trkpt lat="45.96116035863273" lon="8.679883122821717"><ele>199.0</ele><time>2026-04-06T12:34:25.982Z</time></trkpt><trkpt lat="45.96110457296268" lon="8.679743714536293"><ele>198.0</ele><time>2026-04-06T12:34:26.982Z</time></trkpt><trkpt lat="45.961055205593745" lon="8.679593372857877"><ele>197.0</ele><time>2026-04-06T12:34:27.982Z</time></trkpt><trkpt lat="45.96102155401793" lon="8.679433940243369"><ele>196.75</ele><time>2026-04-06T12:34:28.982Z</time></trkpt><trkpt lat="45.960997468758315" lon="8.679269280176648"><ele>196.5</ele><time>2026-04-06T12:34:29.982Z</time></trkpt><trkpt lat="45.96097736144702" lon="8.679101930956712"><ele>196.25</ele><time>2026-04-06T12:34:30.982Z</time></trkpt><trkpt lat="45.96096595367246" lon="8.678918936429508"><ele>196.0</ele><time>2026-04-06T12:34:31.982Z</time></trkpt><trkpt lat="45.96095724312159" lon="8.678721097503097"><ele>195.0</ele><time>2026-04-06T12:34:32.982Z</time></trkpt><trkpt lat="45.96094541024219" lon="8.67852072082698"><ele>194.0</ele><time>2026-04-06T12:34:33.982Z</time></trkpt><trkpt lat="45.960931871929326" lon="8.678317027547717"><ele>193.0</ele><time>2026-04-06T12:34:34.982Z</time></trkpt><trkpt lat="45.96091905194879" lon="8.678116344297488"><ele>192.0</ele><time>2026-04-06T12:34:35.982Z</time></trkpt><trkpt lat="45.9609089315736" lon="8.67792086950527"><ele>191.75</ele><time>2026-04-06T12:34:36.982Z</time></trkpt><trkpt lat="45.960899713158575" lon="8.67772305506569"><ele>191.5</ele><time>2026-04-06T12:34:37.982Z</time></trkpt><trkpt lat="45.96088452776044" lon="8.677526152422221"><ele>191.25</ele><time>2026-04-06T12:34:38.982Z</time></trkpt><trkpt lat="45.9608698812618" lon="8.677324289096095"><ele>191.0</ele><time>2026-04-06T12:34:39.982Z</time></trkpt><trkpt lat="45.96085794346291" lon="8.677112689782081"><ele>194.0</ele><time>2026-04-06T12:34:40.982Z</time></trkpt><trkpt lat="45.96084677787901" lon="8.67689354390301"><ele>197.0</ele><time>2026-04-06T12:34:41.982Z</time></trkpt><trkpt lat="45.96083718195311" lon="8.676671636558199"><ele>200.0</ele><time>2026-04-06T12:34:42.982Z</time></trkpt><trkpt lat="45.960820354023475" lon="8.676456635645266"><ele>200.0</ele><time>2026-04-06T12:34:43.982Z</time></trkpt><trkpt lat="45.96079704779148" lon="8.676242626851996"><ele>200.0</ele><time>2026-04-06T12:34:44.982Z</time></trkpt><trkpt lat="45.96075915802562" lon="8.676055033656336"><ele>200.0</ele><time>2026-04-06T12:34:45.982Z</time></trkpt><trkpt lat="45.96070996463298" lon="8.675901485732933"><ele>200.0</ele><time>2026-04-06T12:34:46.982Z</time></trkpt><trkpt lat="45.96063869656794" lon="8.67576133521548"><ele>199.0</ele><time>2026-04-06T12:34:47.982Z</time></trkpt><trkpt lat="45.960539061461944" lon="8.675648891062366"><ele>198.0</ele><time>2026-04-06T12:34:48.982Z</time></trkpt><trkpt lat="45.9604244285824" lon="8.67557463402723"><ele>197.0</ele><time>2026-04-06T12:34:49.982Z</time></trkpt><trkpt lat="45.96029590779477" lon="8.67555355179395"><ele>196.0</ele><time>2026-04-06T12:34:50.982Z</time></trkpt><trkpt lat="45.9601635266213" lon="8.675580023104105"><ele>198.0</ele><time>2026-04-06T12:34:51.982Z</time></trkpt><trkpt lat="45.960029639362354" lon="8.67562758838508"><ele>200.0</ele><time>2026-04-06T12:34:52.982Z</time></trkpt><trkpt lat="45.959886009448056" lon="8.675675806539937"><ele>202.0</ele><time>2026-04-06T12:34:53.982Z</time></trkpt><trkpt lat="45.95973478634803" lon="8.675724404677622"><ele>204.0</ele><time>2026-04-06T12:34:54.982Z</time></trkpt><trkpt lat="45.95958250830984" lon="8.675775072438592"><ele>204.0</ele><time>2026-04-06T12:34:55.982Z</time></trkpt><trkpt lat="45.95943749282921" lon="8.675829591548274"><ele>204.0</ele><time>2026-04-06T12:34:56.981Z</time></trkpt><trkpt lat="45.95928980285682" lon="8.675885819440389"><ele>204.0</ele><time>2026-04-06T12:34:57.981Z</time></trkpt><trkpt lat="45.95914725266363" lon="8.67593946495721"><ele>205.75</ele><time>2026-04-06T12:34:58.981Z</time></trkpt><trkpt lat="45.95901201668891" lon="8.67599226637708"><ele>207.5</ele><time>2026-04-06T12:34:59.981Z</time></trkpt><trkpt lat="45.958887615986015" lon="8.675998641618095"><ele>209.25</ele><time>2026-04-06T12:35:00.981Z</time></trkpt><trkpt lat="45.958772298868205" lon="8.676043151126986"><ele>211.0</ele><time>2026-04-06T12:35:01.981Z</time></trkpt><trkpt lat="45.9586625985218" lon="8.67609915242851"><ele>211.5</ele><time>2026-04-06T12:35:02.981Z</time></trkpt><trkpt lat="45.95853452596908" lon="8.67614323879656"><ele>212.0</ele><time>2026-04-06T12:35:03.981Z</time></trkpt><trkpt lat="45.95839986535341" lon="8.676131592573494"><ele>212.5</ele><time>2026-04-06T12:35:04.981Z</time></trkpt><trkpt lat="45.95826091038313" lon="8.676150206909123"><ele>213.0</ele><time>2026-04-06T12:35:05.981Z</time></trkpt><trkpt lat="45.9581299845444" lon="8.676201178692066"><ele>213.0</ele><time>2026-04-06T12:35:06.981Z</time></trkpt><trkpt lat="45.95799231242082" lon="8.67630680600846"><ele>213.0</ele><time>2026-04-06T12:35:07.981Z</time></trkpt><trkpt lat="45.95785851144117" lon="8.676439479117995"><ele>213.0</ele><time>2026-04-06T12:35:08.981Z</time></trkpt><trkpt lat="45.95773920108303" lon="8.676599968179548"><ele>213.0</ele><time>2026-04-06T12:35:09.981Z</time></trkpt><trkpt lat="45.95762596889926" lon="8.67675827605073"><ele>213.0</ele><time>2026-04-06T12:35:10.981Z</time></trkpt><trkpt lat="45.95753229153335" lon="8.676942302025004"><ele>213.0</ele><time>2026-04-06T12:35:11.981Z</time></trkpt><trkpt lat="45.95746485038152" lon="8.677154965326588"><ele>214.0</ele><time>2026-04-06T12:35:12.981Z</time></trkpt><trkpt lat="45.95740369588584" lon="8.67737040408654"><ele>215.0</ele><time>2026-04-06T12:35:13.981Z</time></trkpt><trkpt lat="45.95734369342364" lon="8.677580535337208"><ele>216.0</ele><time>2026-04-06T12:35:14.981Z</time></trkpt><trkpt lat="45.95728143607301" lon="8.677796388471107"><ele>216.0</ele><time>2026-04-06T12:35:15.981Z</time></trkpt><trkpt lat="45.95721978015968" lon="8.678010156541733"><ele>216.0</ele><time>2026-04-06T12:35:16.981Z</time></trkpt><trkpt lat="45.95717863077117" lon="8.678213686226384"><ele>216.0</ele><time>2026-04-06T12:35:17.981Z</time></trkpt><trkpt lat="45.95711198186819" lon="8.678392375496298"><ele>216.0</ele><time>2026-04-06T12:35:18.981Z</time></trkpt><trkpt lat="45.957077132036126" lon="8.678588466287064"><ele>218.0</ele><time>2026-04-06T12:35:19.981Z</time></trkpt><trkpt lat="45.95707419445299" lon="8.678806667327343"><ele>220.0</ele><time>2026-04-06T12:35:20.981Z</time></trkpt><trkpt lat="45.95707146800987" lon="8.679027760990484"><ele>222.0</ele><time>2026-04-06T12:35:21.981Z</time></trkpt><trkpt lat="45.95706884202109" lon="8.679249629119953"><ele>224.0</ele><time>2026-04-06T12:35:22.981Z</time></trkpt><trkpt lat="45.95708082769106" lon="8.679471369787287"><ele>226.0</ele><time>2026-04-06T12:35:23.981Z</time></trkpt><trkpt lat="45.95705171219877" lon="8.679689610266857"><ele>228.0</ele><time>2026-04-06T12:35:24.981Z</time></trkpt><trkpt lat="45.95704526582712" lon="8.679903015934336"><ele>228.0</ele><time>2026-04-06T12:35:25.981Z</time></trkpt><trkpt lat="45.95704590111026" lon="8.680114094304157"><ele>228.0</ele><time>2026-04-06T12:35:26.981Z</time></trkpt><trkpt lat="45.95706146437697" lon="8.680323079743955"><ele>228.0</ele><time>2026-04-06T12:35:27.981Z</time></trkpt><trkpt lat="45.95709093718692" lon="8.680531996960204"><ele>228.0</ele><time>2026-04-06T12:35:28.981Z</time></trkpt><trkpt lat="45.95712076853315" lon="8.680740568948927"><ele>230.66666666666669</ele><time>2026-04-06T12:35:29.981Z</time></trkpt><trkpt lat="45.95715573711882" lon="8.680954260071932"><ele>233.33333333333334</ele><time>2026-04-06T12:35:30.981Z</time></trkpt><trkpt lat="45.957194324744016" lon="8.681170505299937"><ele>236.0</ele><time>2026-04-06T12:35:31.981Z</time></trkpt><trkpt lat="45.95723383717083" lon="8.68137451726724"><ele>236.75</ele><time>2026-04-06T12:35:32.981Z</time></trkpt><trkpt lat="45.957268197348526" lon="8.681557392760116"><ele>237.5</ele><time>2026-04-06T12:35:33.981Z</time></trkpt><trkpt lat="45.957288898334326" lon="8.68172744712363"><ele>238.25</ele><time>2026-04-06T12:35:34.981Z</time></trkpt><trkpt lat="45.957282205112975" lon="8.681900722882995"><ele>239.0</ele><time>2026-04-06T12:35:35.981Z</time></trkpt><trkpt lat="45.957239938838626" lon="8.682073985064354"><ele>239.75</ele><time>2026-04-06T12:35:36.981Z</time></trkpt><trkpt lat="45.95716463624603" lon="8.682221781823005"><ele>240.5</ele><time>2026-04-06T12:35:37.981Z</time></trkpt><trkpt lat="45.95706414866441" lon="8.6823353742372"><ele>241.25</ele><time>2026-04-06T12:35:38.981Z</time></trkpt><trkpt lat="45.956943680288795" lon="8.682403275392629"><ele>242.0</ele><time>2026-04-06T12:35:39.981Z</time></trkpt><trkpt lat="45.956813032914226" lon="8.682405115899687"><ele>241.0</ele><time>2026-04-06T12:35:40.981Z</time></trkpt><trkpt lat="45.956681550909636" lon="8.682342072046513"><ele>240.0</ele><time>2026-04-06T12:35:41.981Z</time></trkpt><trkpt lat="45.956567687984176" lon="8.682219953538395"><ele>239.0</ele><time>2026-04-06T12:35:42.981Z</time></trkpt><trkpt lat="45.95646997537424" lon="8.682042593842855"><ele>238.0</ele><time>2026-04-06T12:35:43.982Z</time></trkpt><trkpt lat="45.956359845933484" lon="8.681862118385997"><ele>236.33333333333331</ele><time>2026-04-06T12:35:44.983Z</time></trkpt><trkpt lat="45.956244445867505" lon="8.68165678972421"><ele>234.66666666666669</ele><time>2026-04-06T12:35:45.983Z</time></trkpt><trkpt lat="45.9561221121049" lon="8.681446261377546"><ele>233.0</ele><time>2026-04-06T12:35:46.982Z</time></trkpt><trkpt lat="45.956002915684" lon="8.68125386161167"><ele>232.66666666666669</ele><time>2026-04-06T12:35:47.983Z</time></trkpt><trkpt lat="45.95589049020735" lon="8.681066259469896"><ele>232.33333333333331</ele><time>2026-04-06T12:35:48.983Z</time></trkpt><trkpt lat="45.95579054997671" lon="8.680877958839153"><ele>232.0</ele><time>2026-04-06T12:35:49.983Z</time></trkpt><trkpt lat="45.95570707297538" lon="8.680687150823157"><ele>236.0</ele><time>2026-04-06T12:35:50.983Z</time></trkpt><trkpt lat="45.9556509111439" lon="8.680491819385894"><ele>240.0</ele><time>2026-04-06T12:35:51.983Z</time></trkpt><trkpt lat="45.95561487795184" lon="8.680278259191107"><ele>244.0</ele><time>2026-04-06T12:35:52.982Z</time></trkpt><trkpt lat="45.955585733767734" lon="8.680051985499682"><ele>245.0</ele><time>2026-04-06T12:35:53.982Z</time></trkpt><trkpt lat="45.95555136953897" lon="8.679822663545522"><ele>246.0</ele><time>2026-04-06T12:35:54.982Z</time></trkpt><trkpt lat="45.95551073638601" lon="8.679582515652829"><ele>247.0</ele><time>2026-04-06T12:35:55.982Z</time></trkpt><trkpt lat="45.955472776873904" lon="8.679333162942637"><ele>247.33333333333331</ele><time>2026-04-06T12:35:56.982Z</time></trkpt><trkpt lat="45.95543683758458" lon="8.679078615248379"><ele>247.66666666666669</ele><time>2026-04-06T12:35:57.982Z</time></trkpt><trkpt lat="45.955398953411986" lon="8.678827455076377"><ele>248.0</ele><time>2026-04-06T12:35:58.982Z</time></trkpt><trkpt lat="45.95536300091822" lon="8.678590431513879"><ele>247.0</ele><time>2026-04-06T12:35:59.982Z</time></trkpt><trkpt lat="45.95533345314351" lon="8.678360305286164"><ele>246.0</ele><time>2026-04-06T12:36:00.982Z</time></trkpt><trkpt lat="45.9553203838593" lon="8.678123088006028"><ele>245.0</ele><time>2026-04-06T12:36:01.982Z</time></trkpt><trkpt lat="45.9552921947576" lon="8.677894913544934"><ele>247.0</ele><time>2026-04-06T12:36:02.982Z</time></trkpt><trkpt lat="45.95526377205025" lon="8.677664848208797"><ele>249.0</ele><time>2026-04-06T12:36:03.982Z</time></trkpt><trkpt lat="45.9552381953829" lon="8.677444661249046"><ele>251.0</ele><time>2026-04-06T12:36:04.982Z</time></trkpt><trkpt lat="45.95521214557596" lon="8.677229349644715"><ele>251.0</ele><time>2026-04-06T12:36:05.982Z</time></trkpt><trkpt lat="45.95519295934371" lon="8.677023025231566"><ele>251.0</ele><time>2026-04-06T12:36:06.982Z</time></trkpt><trkpt lat="45.9551676774693" lon="8.67682737636094"><ele>251.0</ele><time>2026-04-06T12:36:07.982Z</time></trkpt><trkpt lat="45.955117460005326" lon="8.676642406561324"><ele>251.0</ele><time>2026-04-06T12:36:08.982Z</time></trkpt><trkpt lat="45.955042396028986" lon="8.676474246429116"><ele>253.33333333333334</ele><time>2026-04-06T12:36:09.982Z</time></trkpt><trkpt lat="45.95494401159394" lon="8.676325116871345"><ele>255.66666666666669</ele><time>2026-04-06T12:36:10.982Z</time></trkpt><trkpt lat="45.9548245395486" lon="8.676166785370187"><ele>258.0</ele><time>2026-04-06T12:36:11.982Z</time></trkpt><trkpt lat="45.954695226980604" lon="8.675989279661403"><ele>258.0</ele><time>2026-04-06T12:36:12.982Z</time></trkpt><trkpt lat="45.95456674638292" lon="8.675826064853585"><ele>258.0</ele><time>2026-04-06T12:36:13.982Z</time></trkpt><trkpt lat="45.9544436039926" lon="8.675659332600645"><ele>258.0</ele><time>2026-04-06T12:36:14.982Z</time></trkpt><trkpt lat="45.95433679425335" lon="8.6754777947799"><ele>258.0</ele><time>2026-04-06T12:36:15.982Z</time></trkpt><trkpt lat="45.954261070699204" lon="8.675281240104402"><ele>258.0</ele><time>2026-04-06T12:36:16.982Z</time></trkpt><trkpt lat="45.95422099932153" lon="8.675070168352937"><ele>258.0</ele><time>2026-04-06T12:36:17.982Z</time></trkpt><trkpt lat="45.95419807631203" lon="8.674846139438568"><ele>257.75</ele><time>2026-04-06T12:36:18.982Z</time></trkpt><trkpt lat="45.954173388421154" lon="8.6746250621004"><ele>257.5</ele><time>2026-04-06T12:36:19.982Z</time></trkpt><trkpt lat="45.95414801344445" lon="8.674423101761612"><ele>257.25</ele><time>2026-04-06T12:36:20.982Z</time></trkpt><trkpt lat="45.95412073292956" lon="8.67424431058767"><ele>257.0</ele><time>2026-04-06T12:36:21.982Z</time></trkpt><trkpt lat="45.95409119250005" lon="8.67408661218842"><ele>257.6666666666667</ele><time>2026-04-06T12:36:22.982Z</time></trkpt><trkpt lat="45.954060318278216" lon="8.673946359773367"><ele>258.33333333333337</ele><time>2026-04-06T12:36:23.982Z</time></trkpt><trkpt lat="45.954014458979145" lon="8.673834304597394"><ele>259.0</ele><time>2026-04-06T12:36:24.982Z</time></trkpt><trkpt lat="45.95396520685152" lon="8.673757269214702"><ele>259.6666666666667</ele><time>2026-04-06T12:36:25.981Z</time></trkpt><trkpt lat="45.95392242068062" lon="8.673682503449855"><ele>260.3333333333333</ele><time>2026-04-06T12:36:26.981Z</time></trkpt><trkpt lat="45.95384140534614" lon="8.673658729698476"><ele>261.0</ele><time>2026-04-06T12:36:27.981Z</time></trkpt><trkpt lat="45.953761481877244" lon="8.673624201277448"><ele>261.0</ele><time>2026-04-06T12:36:28.981Z</time></trkpt><trkpt lat="45.95368098705765" lon="8.673571662887134"><ele>261.0</ele><time>2026-04-06T12:36:29.981Z</time></trkpt><trkpt lat="45.953589192254434" lon="8.673570761575949"><ele>261.0</ele><time>2026-04-06T12:36:30.981Z</time></trkpt><trkpt lat="45.95350553587358" lon="8.673518266571035"><ele>261.0</ele><time>2026-04-06T12:36:31.981Z</time></trkpt><trkpt lat="45.95341608631259" lon="8.673496025495304"><ele>261.0</ele><time>2026-04-06T12:36:32.981Z</time></trkpt><trkpt lat="45.95332292061941" lon="8.673481411101669"><ele>261.0</ele><time>2026-04-06T12:36:33.981Z</time></trkpt><trkpt lat="45.95321371481511" lon="8.673467683677641"><ele>261.0</ele><time>2026-04-06T12:36:34.981Z</time></trkpt><trkpt lat="45.95309008100925" lon="8.673439924469726"><ele>261.0</ele><time>2026-04-06T12:36:35.981Z</time></trkpt><trkpt lat="45.95295974383755" lon="8.673382236825015"><ele>261.0</ele><time>2026-04-06T12:36:36.981Z</time></trkpt><trkpt lat="45.95282269759224" lon="8.673350843844975"><ele>261.0</ele><time>2026-04-06T12:36:37.981Z</time></trkpt><trkpt lat="45.95270019758842" lon="8.673317580449904"><ele>261.0</ele><time>2026-04-06T12:36:38.981Z</time></trkpt><trkpt lat="45.952593025402244" lon="8.673288652254636"><ele>261.0</ele><time>2026-04-06T12:36:39.981Z</time></trkpt><trkpt lat="45.95249858031558" lon="8.673265745999517"><ele>261.0</ele><time>2026-04-06T12:36:40.981Z</time></trkpt><trkpt lat="45.952409491818955" lon="8.673245281576522"><ele>261.0</ele><time>2026-04-06T12:36:41.981Z</time></trkpt><trkpt lat="45.95232810700252" lon="8.673225857764999"><ele>260.2857142857143</ele><time>2026-04-06T12:36:42.981Z</time></trkpt><trkpt lat="45.95225389596561" lon="8.673205581086634"><ele>259.57142857142856</ele><time>2026-04-06T12:36:43.981Z</time></trkpt><trkpt lat="45.95218255040612" lon="8.673188806280361"><ele>258.85714285714283</ele><time>2026-04-06T12:36:44.981Z</time></trkpt><trkpt lat="45.952115868120316" lon="8.673170148457713"><ele>258.1428571428571</ele><time>2026-04-06T12:36:45.981Z</time></trkpt><trkpt lat="45.95205165109211" lon="8.673146626035068"><ele>257.4285714285714</ele><time>2026-04-06T12:36:46.981Z</time></trkpt><trkpt lat="45.95198263530178" lon="8.673126958150801"><ele>256.7142857142857</ele><time>2026-04-06T12:36:47.981Z</time></trkpt><trkpt lat="45.95190180686169" lon="8.673092088737794"><ele>256.0</ele><time>2026-04-06T12:36:48.981Z</time></trkpt><trkpt lat="45.95181886671734" lon="8.67304245581173"><ele>256.0</ele><time>2026-04-06T12:36:49.981Z</time></trkpt><trkpt lat="45.95173949859927" lon="8.672981966770841"><ele>256.0</ele><time>2026-04-06T12:36:50.981Z</time></trkpt><trkpt lat="45.95167183101458" lon="8.672896360104328"><ele>256.0</ele><time>2026-04-06T12:36:51.981Z</time></trkpt><trkpt lat="45.9515896187656" lon="8.672845684184278"><ele>256.0</ele><time>2026-04-06T12:36:52.981Z</time></trkpt><trkpt lat="45.951506186096864" lon="8.672767630183138"><ele>256.0</ele><time>2026-04-06T12:36:53.981Z</time></trkpt><trkpt lat="45.951416611709554" lon="8.672677714921472"><ele>255.66666666666666</ele><time>2026-04-06T12:36:54.981Z</time></trkpt><trkpt lat="45.95133018752041" lon="8.672579854191362"><ele>255.33333333333331</ele><time>2026-04-06T12:36:55.981Z</time></trkpt><trkpt lat="45.95125748020463" lon="8.67249327444728"><ele>255.0</ele><time>2026-04-06T12:36:56.981Z</time></trkpt><trkpt lat="45.95119086605256" lon="8.672420138139508"><ele>254.66666666666669</ele><time>2026-04-06T12:36:57.981Z</time></trkpt><trkpt lat="45.951132664569336" lon="8.672354426515035"><ele>254.33333333333334</ele><time>2026-04-06T12:36:58.981Z</time></trkpt><trkpt lat="45.95107682723103" lon="8.672292640846504"><ele>254.0</ele><time>2026-04-06T12:36:59.981Z</time></trkpt><trkpt lat="45.95102034501316" lon="8.67222544617824"><ele>254.00000000000003</ele><time>2026-04-06T12:37:00.981Z</time></trkpt><trkpt lat="45.950954984491695" lon="8.672152170700945"><ele>254.0</ele><time>2026-04-06T12:37:01.981Z</time></trkpt><trkpt lat="45.950881525226166" lon="8.672080291133245"><ele>254.0</ele><time>2026-04-06T12:37:02.981Z</time></trkpt><trkpt lat="45.950808663005844" lon="8.672009389007261"><ele>254.0</ele><time>2026-04-06T12:37:03.981Z</time></trkpt><trkpt lat="45.9507380155984" lon="8.671943063321883"><ele>254.00000000000003</ele><time>2026-04-06T12:37:04.981Z</time></trkpt><trkpt lat="45.95067215507322" lon="8.671873543016247"><ele>254.0</ele><time>2026-04-06T12:37:05.981Z</time></trkpt><trkpt lat="45.95060715010785" lon="8.67180679879645"><ele>253.33333333333334</ele><time>2026-04-06T12:37:06.981Z</time></trkpt><trkpt lat="45.95054682526142" lon="8.671732075472805"><ele>252.66666666666669</ele><time>2026-04-06T12:37:07.981Z</time></trkpt><trkpt lat="45.95049006273533" lon="8.67164537411829"><ele>252.0</ele><time>2026-04-06T12:37:08.981Z</time></trkpt><trkpt lat="45.95043742011749" lon="8.671557056929167"><ele>251.33333333333331</ele><time>2026-04-06T12:37:09.981Z</time></trkpt><trkpt lat="45.95039160748227" lon="8.671470409076926"><ele>250.66666666666666</ele><time>2026-04-06T12:37:10.981Z</time></trkpt><trkpt lat="45.950349031395426" lon="8.671388962955755"><ele>250.0</ele><time>2026-04-06T12:37:11.981Z</time></trkpt><trkpt lat="45.95031090450254" lon="8.671307524015212"><ele>249.99999999999997</ele><time>2026-04-06T12:37:12.98Z</time></trkpt><trkpt lat="45.950281582299674" lon="8.671215983117316"><ele>250.0</ele><time>2026-04-06T12:37:13.98Z</time></trkpt><trkpt lat="45.95024117549813" lon="8.671133854749664"><ele>250.0</ele><time>2026-04-06T12:37:14.98Z</time></trkpt><trkpt lat="45.950197928932354" lon="8.671045954432547"><ele>250.0</ele><time>2026-04-06T12:37:15.98Z</time></trkpt><trkpt lat="45.950151829466726" lon="8.67095225556699"><ele>249.99999999999997</ele><time>2026-04-06T12:37:16.98Z</time></trkpt><trkpt lat="45.95010482500269" lon="8.670856717184579"><ele>250.0</ele><time>2026-04-06T12:37:17.98Z</time></trkpt><trkpt lat="45.95005827782926" lon="8.670762108303322"><ele>249.42857142857142</ele><time>2026-04-06T12:37:18.98Z</time></trkpt><trkpt lat="45.950013618135934" lon="8.670671391972714"><ele>248.8571428571429</ele><time>2026-04-06T12:37:19.98Z</time></trkpt><trkpt lat="45.949970947181846" lon="8.670585198102787"><ele>248.2857142857143</ele><time>2026-04-06T12:37:20.98Z</time></trkpt><trkpt lat="45.94991692333082" lon="8.670512767869837"><ele>247.71428571428572</ele><time>2026-04-06T12:37:21.98Z</time></trkpt><trkpt lat="45.949877221722964" lon="8.670426321062429"><ele>247.14285714285717</ele><time>2026-04-06T12:37:22.98Z</time></trkpt><trkpt lat="45.94983192578711" lon="8.670340451591288"><ele>246.5714285714286</ele><time>2026-04-06T12:37:23.98Z</time></trkpt><trkpt lat="45.949788197964374" lon="8.670251740391299"><ele>246.00000000000003</ele><time>2026-04-06T12:37:24.98Z</time></trkpt><trkpt lat="45.94974544962083" lon="8.67015328583088"><ele>245.83333333333334</ele><time>2026-04-06T12:37:25.98Z</time></trkpt><trkpt lat="45.949723381681764" lon="8.670034881009023"><ele>245.66666666666669</ele><time>2026-04-06T12:37:26.98Z</time></trkpt><trkpt lat="45.94967767537049" lon="8.669925013689845"><ele>245.5</ele><time>2026-04-06T12:37:27.98Z</time></trkpt><trkpt lat="45.94965208637412" lon="8.669802298737448"><ele>245.33333333333334</ele><time>2026-04-06T12:37:28.98Z</time></trkpt><trkpt lat="45.94962073102597" lon="8.669673866397826"><ele>245.16666666666669</ele><time>2026-04-06T12:37:29.98Z</time></trkpt><trkpt lat="45.9496016300001" lon="8.669545116357297"><ele>245.0</ele><time>2026-04-06T12:37:30.98Z</time></trkpt><trkpt lat="45.94959172180895" lon="8.669423614516964"><ele>245.00000000000003</ele><time>2026-04-06T12:37:31.98Z</time></trkpt><trkpt lat="45.94958138350297" lon="8.66930641517077"><ele>245.0</ele><time>2026-04-06T12:37:32.98Z</time></trkpt><trkpt lat="45.94956658621316" lon="8.669193311844808"><ele>245.0</ele><time>2026-04-06T12:37:33.98Z</time></trkpt><trkpt lat="45.94955469921535" lon="8.66908622197803"><ele>245.0</ele><time>2026-04-06T12:37:34.98Z</time></trkpt><trkpt lat="45.94954206456456" lon="8.668982614536793"><ele>245.00000000000003</ele><time>2026-04-06T12:37:35.98Z</time></trkpt><trkpt lat="45.94952901416953" lon="8.66888071409769"><ele>245.0</ele><time>2026-04-06T12:37:36.98Z</time></trkpt><trkpt lat="45.949534792035486" lon="8.668770300868273"><ele>245.0</ele><time>2026-04-06T12:37:37.98Z</time></trkpt><trkpt lat="45.94951948767842" lon="8.66865543740837"><ele>245.0</ele><time>2026-04-06T12:37:38.98Z</time></trkpt><trkpt lat="45.94950389524263" lon="8.668536881745176"><ele>245.0</ele><time>2026-04-06T12:37:39.98Z</time></trkpt><trkpt lat="45.94947172424867" lon="8.668412770548182"><ele>245.0</ele><time>2026-04-06T12:37:40.98Z</time></trkpt><trkpt lat="45.94948392575501" lon="8.668275234852901"><ele>245.0</ele><time>2026-04-06T12:37:41.98Z</time></trkpt><trkpt lat="45.949460689253826" lon="8.668127549978166"><ele>244.4</ele><time>2026-04-06T12:37:42.98Z</time></trkpt><trkpt lat="45.94944469954662" lon="8.667981271320468"><ele>243.8</ele><time>2026-04-06T12:37:43.98Z</time></trkpt><trkpt lat="45.94943229168693" lon="8.667831343963783"><ele>243.2</ele><time>2026-04-06T12:37:44.98Z</time></trkpt><trkpt lat="45.949420661674715" lon="8.667689371309658"><ele>242.6</ele><time>2026-04-06T12:37:45.98Z</time></trkpt><trkpt lat="45.949403633892274" lon="8.66755014017559"><ele>242.0</ele><time>2026-04-06T12:37:46.98Z</time></trkpt><trkpt lat="45.94938787113626" lon="8.667419818189558"><ele>241.2</ele><time>2026-04-06T12:37:47.98Z</time></trkpt><trkpt lat="45.94937787139416" lon="8.667293811741727"><ele>240.39999999999998</ele><time>2026-04-06T12:37:48.98Z</time></trkpt><trkpt lat="45.949364237596896" lon="8.667160228397966"><ele>239.60000000000002</ele><time>2026-04-06T12:37:49.982Z</time></trkpt><trkpt lat="45.949349898910874" lon="8.66703105204856"><ele>238.8</ele><time>2026-04-06T12:37:50.981Z</time></trkpt><trkpt lat="45.949336789313364" lon="8.666906011164777"><ele>238.0</ele><time>2026-04-06T12:37:51.981Z</time></trkpt><trkpt lat="45.94931167201403" lon="8.666783207506175"><ele>237.0</ele><time>2026-04-06T12:37:52.981Z</time></trkpt><trkpt lat="45.949270097524334" lon="8.6666723004127"><ele>236.0</ele><time>2026-04-06T12:37:53.981Z</time></trkpt><trkpt lat="45.949216435509015" lon="8.666579014534529"><ele>235.0</ele><time>2026-04-06T12:37:54.981Z</time></trkpt><trkpt lat="45.94915984268151" lon="8.66647594701181"><ele>234.0</ele><time>2026-04-06T12:37:55.982Z</time></trkpt><trkpt lat="45.949077776333944" lon="8.666398438628311"><ele>233.0</ele><time>2026-04-06T12:37:56.982Z</time></trkpt><trkpt lat="45.94898297805411" lon="8.666345118631256"><ele>232.50000000000003</ele><time>2026-04-06T12:37:57.982Z</time></trkpt><trkpt lat="45.948890005953864" lon="8.666329636742342"><ele>232.0</ele><time>2026-04-06T12:37:58.982Z</time></trkpt><trkpt lat="45.94880589797514" lon="8.666334326761307"><ele>231.5</ele><time>2026-04-06T12:37:59.981Z</time></trkpt><trkpt lat="45.948728913599595" lon="8.666351330940032"><ele>231.0</ele><time>2026-04-06T12:38:00.981Z</time></trkpt><trkpt lat="45.948656166080355" lon="8.66636294911487"><ele>230.50000000000003</ele><time>2026-04-06T12:38:01.982Z</time></trkpt><trkpt lat="45.94858149981501" lon="8.666373753950884"><ele>230.0</ele><time>2026-04-06T12:38:02.982Z</time></trkpt><trkpt lat="45.94850232632846" lon="8.666385210422387"><ele>230.00000000000003</ele><time>2026-04-06T12:38:03.982Z</time></trkpt><trkpt lat="45.94841618249238" lon="8.666392879748626"><ele>230.0</ele><time>2026-04-06T12:38:04.982Z</time></trkpt><trkpt lat="45.94832957672315" lon="8.66641980222849"><ele>230.0</ele><time>2026-04-06T12:38:05.982Z</time></trkpt><trkpt lat="45.94824083003448" lon="8.666417762815442"><ele>230.0</ele><time>2026-04-06T12:38:06.982Z</time></trkpt><trkpt lat="45.94816233636002" lon="8.666417080036448"><ele>230.00000000000003</ele><time>2026-04-06T12:38:07.982Z</time></trkpt><trkpt lat="45.94809216569721" lon="8.666416918550837"><ele>230.0</ele><time>2026-04-06T12:38:08.982Z</time></trkpt><trkpt lat="45.94802451402726" lon="8.666426809725268"><ele>229.28571428571425</ele><time>2026-04-06T12:38:09.982Z</time></trkpt><trkpt lat="45.94795882603084" lon="8.666445943813281"><ele>228.57142857142856</ele><time>2026-04-06T12:38:10.982Z</time></trkpt><trkpt lat="45.94788982930608" lon="8.666454897878202"><ele>227.85714285714286</ele><time>2026-04-06T12:38:11.982Z</time></trkpt><trkpt lat="45.947809064463804" lon="8.666456330000388"><ele>227.14285714285714</ele><time>2026-04-06T12:38:12.982Z</time></trkpt><trkpt lat="45.947733124120596" lon="8.666443476369542"><ele>226.42857142857144</ele><time>2026-04-06T12:38:13.982Z</time></trkpt><trkpt lat="45.947655747757594" lon="8.666420732116586"><ele>225.71428571428575</ele><time>2026-04-06T12:38:14.982Z</time></trkpt><trkpt lat="45.94758182983606" lon="8.666393251779494"><ele>225.00000000000003</ele><time>2026-04-06T12:38:15.982Z</time></trkpt><trkpt lat="45.94751214375815" lon="8.666357968860655"><ele>224.8</ele><time>2026-04-06T12:38:16.982Z</time></trkpt><trkpt lat="45.947448312947024" lon="8.666314985912006"><ele>224.6</ele><time>2026-04-06T12:38:17.982Z</time></trkpt><trkpt lat="45.94738216370853" lon="8.666262441268115"><ele>224.39999999999998</ele><time>2026-04-06T12:38:18.982Z</time></trkpt><trkpt lat="45.94731560148461" lon="8.666179369364936"><ele>224.2</ele><time>2026-04-06T12:38:19.982Z</time></trkpt><trkpt lat="45.947233696900504" lon="8.666082889554572"><ele>224.0</ele><time>2026-04-06T12:38:20.982Z</time></trkpt><trkpt lat="45.94713252839233" lon="8.665959347467973"><ele>223.0</ele><time>2026-04-06T12:38:21.982Z</time></trkpt><trkpt lat="45.94701359459295" lon="8.665813697762616"><ele>222.0</ele><time>2026-04-06T12:38:22.982Z</time></trkpt><trkpt lat="45.946880161123595" lon="8.66566860882316"><ele>221.0</ele><time>2026-04-06T12:38:23.982Z</time></trkpt><trkpt lat="45.94675438196308" lon="8.665514365439636"><ele>220.33333333333334</ele><time>2026-04-06T12:38:24.982Z</time></trkpt><trkpt lat="45.94662332979137" lon="8.665361300063465"><ele>219.66666666666669</ele><time>2026-04-06T12:38:25.982Z</time></trkpt><trkpt lat="45.94649893458671" lon="8.665204851059238"><ele>219.0</ele><time>2026-04-06T12:38:26.982Z</time></trkpt><trkpt lat="45.94637730192904" lon="8.665052833009552"><ele>219.0</ele><time>2026-04-06T12:38:27.982Z</time></trkpt><trkpt lat="45.94625584899977" lon="8.664906149260089"><ele>219.0</ele><time>2026-04-06T12:38:28.982Z</time></trkpt><trkpt lat="45.94613211244492" lon="8.66475815702745"><ele>219.0</ele><time>2026-04-06T12:38:29.982Z</time></trkpt><trkpt lat="45.946023498286095" lon="8.664578485016627"><ele>220.0</ele><time>2026-04-06T12:38:30.982Z</time></trkpt><trkpt lat="45.94589109468389" lon="8.664413986658426"><ele>221.0</ele><time>2026-04-06T12:38:31.981Z</time></trkpt><trkpt lat="45.94576137581487" lon="8.66426062927749"><ele>222.0</ele><time>2026-04-06T12:38:32.981Z</time></trkpt><trkpt lat="45.94563899071092" lon="8.664113676913134"><ele>222.0</ele><time>2026-04-06T12:38:33.981Z</time></trkpt><trkpt lat="45.94552649065555" lon="8.663970115983515"><ele>222.0</ele><time>2026-04-06T12:38:34.981Z</time></trkpt><trkpt lat="45.94540860050952" lon="8.66385934655072"><ele>222.0</ele><time>2026-04-06T12:38:35.981Z</time></trkpt><trkpt lat="45.94528505648174" lon="8.663755194039076"><ele>222.0</ele><time>2026-04-06T12:38:36.981Z</time></trkpt><trkpt lat="45.94514813955594" lon="8.663667035418936"><ele>221.33333333333331</ele><time>2026-04-06T12:38:37.981Z</time></trkpt><trkpt lat="45.94498175110405" lon="8.663611944493848"><ele>220.66666666666666</ele><time>2026-04-06T12:38:38.981Z</time></trkpt><trkpt lat="45.94481383836905" lon="8.663557669211993"><ele>220.0</ele><time>2026-04-06T12:38:39.981Z</time></trkpt><trkpt lat="45.944656633777996" lon="8.663510158621893"><ele>220.0</ele><time>2026-04-06T12:38:40.981Z</time></trkpt><trkpt lat="45.94451107305407" lon="8.663456968564539"><ele>220.0</ele><time>2026-04-06T12:38:41.981Z</time></trkpt><trkpt lat="45.94436668416451" lon="8.66340638314175"><ele>220.0</ele><time>2026-04-06T12:38:42.981Z</time></trkpt><trkpt lat="45.94421919412379" lon="8.663345430727661"><ele>219.0</ele><time>2026-04-06T12:38:43.981Z</time></trkpt><trkpt lat="45.94407169205968" lon="8.663254828251386"><ele>218.0</ele><time>2026-04-06T12:38:44.981Z</time></trkpt><trkpt lat="45.943927769923846" lon="8.66313164323497"><ele>217.0</ele><time>2026-04-06T12:38:45.981Z</time></trkpt><trkpt lat="45.943794409244965" lon="8.662972884350538"><ele>217.0</ele><time>2026-04-06T12:38:46.981Z</time></trkpt><trkpt lat="45.943662685102375" lon="8.662796773957085"><ele>217.0</ele><time>2026-04-06T12:38:47.981Z</time></trkpt><trkpt lat="45.943529640935175" lon="8.662628088675584"><ele>217.0</ele><time>2026-04-06T12:38:48.981Z</time></trkpt><trkpt lat="45.94340180493857" lon="8.662472721348445"><ele>217.33333333333331</ele><time>2026-04-06T12:38:49.981Z</time></trkpt><trkpt lat="45.94326137919778" lon="8.66234227380891"><ele>217.66666666666669</ele><time>2026-04-06T12:38:50.981Z</time></trkpt><trkpt lat="45.94311149741561" lon="8.662200214662537"><ele>218.0</ele><time>2026-04-06T12:38:51.981Z</time></trkpt><trkpt lat="45.94294245913341" lon="8.662098395356614"><ele>218.0</ele><time>2026-04-06T12:38:52.981Z</time></trkpt><trkpt lat="45.942771569724066" lon="8.661976080896494"><ele>218.0</ele><time>2026-04-06T12:38:53.981Z</time></trkpt><trkpt lat="45.942597345278976" lon="8.661851530101979"><ele>218.0</ele><time>2026-04-06T12:38:54.981Z</time></trkpt><trkpt lat="45.94243184879306" lon="8.661733743620875"><ele>217.33333333333334</ele><time>2026-04-06T12:38:55.981Z</time></trkpt><trkpt lat="45.94227693866156" lon="8.661604645644996"><ele>216.66666666666669</ele><time>2026-04-06T12:38:56.981Z</time></trkpt><trkpt lat="45.9421376614445" lon="8.661453178763454"><ele>216.0</ele><time>2026-04-06T12:38:57.981Z</time></trkpt><trkpt lat="45.94201834986736" lon="8.661279197220074"><ele>219.0</ele><time>2026-04-06T12:38:58.981Z</time></trkpt><trkpt lat="45.941906961180244" lon="8.661081980193371"><ele>222.0</ele><time>2026-04-06T12:38:59.981Z</time></trkpt><trkpt lat="45.941794784387405" lon="8.66087533604892"><ele>225.0</ele><time>2026-04-06T12:39:00.981Z</time></trkpt><trkpt lat="45.941682697704366" lon="8.660675074163848"><ele>225.0</ele><time>2026-04-06T12:39:01.981Z</time></trkpt><trkpt lat="45.94157100831883" lon="8.660481368228435"><ele>225.0</ele><time>2026-04-06T12:39:02.981Z</time></trkpt><trkpt lat="45.94145816435885" lon="8.660302009500606"><ele>225.0</ele><time>2026-04-06T12:39:03.981Z</time></trkpt><trkpt lat="45.94135591559369" lon="8.66012995757996"><ele>220.66666666666669</ele><time>2026-04-06T12:39:04.981Z</time></trkpt><trkpt lat="45.94125793690695" lon="8.659962623345546"><ele>216.33333333333334</ele><time>2026-04-06T12:39:05.981Z</time></trkpt><trkpt lat="45.941164336945974" lon="8.659783808058794"><ele>212.0</ele><time>2026-04-06T12:39:06.981Z</time></trkpt><trkpt lat="45.941091102767274" lon="8.659576055790648"><ele>209.33333333333334</ele><time>2026-04-06T12:39:07.981Z</time></trkpt><trkpt lat="45.94101844957206" lon="8.659363197168556"><ele>206.66666666666669</ele><time>2026-04-06T12:39:08.981Z</time></trkpt><trkpt lat="45.94095101056846" lon="8.659160757639649"><ele>204.0</ele><time>2026-04-06T12:39:09.981Z</time></trkpt><trkpt lat="45.94087597497246" lon="8.658964387393493"><ele>207.0</ele><time>2026-04-06T12:39:10.981Z</time></trkpt><trkpt lat="45.94078041764654" lon="8.658767793562397"><ele>210.0</ele><time>2026-04-06T12:39:11.981Z</time></trkpt><trkpt lat="45.94065871617978" lon="8.658573549263492"><ele>213.0</ele><time>2026-04-06T12:39:12.981Z</time></trkpt><trkpt lat="45.94052943674017" lon="8.658369981416595"><ele>213.0</ele><time>2026-04-06T12:39:13.981Z</time></trkpt><trkpt lat="45.940387186225685" lon="8.658145389730914"><ele>213.0</ele><time>2026-04-06T12:39:14.981Z</time></trkpt><trkpt lat="45.940257402157734" lon="8.657906301723601"><ele>213.0</ele><time>2026-04-06T12:39:15.981Z</time></trkpt><trkpt lat="45.94014851833983" lon="8.657662303940732"><ele>214.0</ele><time>2026-04-06T12:39:16.981Z</time></trkpt><trkpt lat="45.940040523608936" lon="8.65741065031865"><ele>215.0</ele><time>2026-04-06T12:39:17.981Z</time></trkpt><trkpt lat="45.93993424019071" lon="8.657166766072688"><ele>216.0</ele><time>2026-04-06T12:39:18.98Z</time></trkpt><trkpt lat="45.93983686840913" lon="8.656933523692208"><ele>216.0</ele><time>2026-04-06T12:39:19.98Z</time></trkpt><trkpt lat="45.93974302347853" lon="8.656708120341996"><ele>216.0</ele><time>2026-04-06T12:39:20.98Z</time></trkpt><trkpt lat="45.93963937804812" lon="8.656498411300657"><ele>216.0</ele><time>2026-04-06T12:39:21.98Z</time></trkpt><trkpt lat="45.93952302010521" lon="8.656302945605859"><ele>212.66666666666669</ele><time>2026-04-06T12:39:22.98Z</time></trkpt><trkpt lat="45.939398601540844" lon="8.656119289021799"><ele>209.33333333333334</ele><time>2026-04-06T12:39:23.98Z</time></trkpt><trkpt lat="45.93927468312922" lon="8.655953244139065"><ele>206.0</ele><time>2026-04-06T12:39:24.98Z</time></trkpt><trkpt lat="45.939169352462244" lon="8.65577939129857"><ele>210.33333333333334</ele><time>2026-04-06T12:39:25.98Z</time></trkpt><trkpt lat="45.939082820715534" lon="8.65559847053907"><ele>214.66666666666669</ele><time>2026-04-06T12:39:26.98Z</time></trkpt><trkpt lat="45.93900605501457" lon="8.65540261059537"><ele>219.0</ele><time>2026-04-06T12:39:27.98Z</time></trkpt><trkpt lat="45.938946373389236" lon="8.655182985501655"><ele>219.0</ele><time>2026-04-06T12:39:28.98Z</time></trkpt><trkpt lat="45.93889176941352" lon="8.654963538936075"><ele>219.0</ele><time>2026-04-06T12:39:29.98Z</time></trkpt><trkpt lat="45.93884816129079" lon="8.654745702862657"><ele>219.0</ele><time>2026-04-06T12:39:30.98Z</time></trkpt><trkpt lat="45.9388182995775" lon="8.654533992392084"><ele>218.0</ele><time>2026-04-06T12:39:31.98Z</time></trkpt><trkpt lat="45.93881343069421" lon="8.65430948400227"><ele>217.0</ele><time>2026-04-06T12:39:32.98Z</time></trkpt><trkpt lat="45.93882797401324" lon="8.654072964749725"><ele>216.0</ele><time>2026-04-06T12:39:33.98Z</time></trkpt><trkpt lat="45.938860247763074" lon="8.653825159744256"><ele>218.66666666666669</ele><time>2026-04-06T12:39:34.98Z</time></trkpt><trkpt lat="45.93889384921763" lon="8.65357404544468"><ele>221.33333333333334</ele><time>2026-04-06T12:39:35.98Z</time></trkpt><trkpt lat="45.93893570889361" lon="8.653353328614605"><ele>224.0</ele><time>2026-04-06T12:39:36.98Z</time></trkpt><trkpt lat="45.9389940083238" lon="8.653165363482405"><ele>224.0</ele><time>2026-04-06T12:39:37.98Z</time></trkpt><trkpt lat="45.93906560914993" lon="8.653026312716387"><ele>224.0</ele><time>2026-04-06T12:39:38.98Z</time></trkpt><trkpt lat="45.93915040300198" lon="8.652923500250433"><ele>224.0</ele><time>2026-04-06T12:39:39.98Z</time></trkpt><trkpt lat="45.939253032141906" lon="8.652839679813532"><ele>224.0</ele><time>2026-04-06T12:39:40.98Z</time></trkpt><trkpt lat="45.93936650316251" lon="8.652757771124241"><ele>220.25</ele><time>2026-04-06T12:39:41.98Z</time></trkpt><trkpt lat="45.93945955777531" lon="8.652669067887432"><ele>216.5</ele><time>2026-04-06T12:39:42.98Z</time></trkpt><trkpt lat="45.939508179775245" lon="8.652549667091275"><ele>212.75</ele><time>2026-04-06T12:39:43.98Z</time></trkpt><trkpt lat="45.93951513196282" lon="8.652377624874557"><ele>209.0</ele><time>2026-04-06T12:39:44.98Z</time></trkpt><trkpt lat="45.93948228970991" lon="8.652172136791684"><ele>209.33333333333334</ele><time>2026-04-06T12:39:45.98Z</time></trkpt><trkpt lat="45.93945666291065" lon="8.65191621118749"><ele>209.66666666666669</ele><time>2026-04-06T12:39:46.98Z</time></trkpt><trkpt lat="45.93943868055478" lon="8.65163188015457"><ele>210.0</ele><time>2026-04-06T12:39:47.98Z</time></trkpt><trkpt lat="45.93941035104082" lon="8.651339258379581"><ele>205.33333333333331</ele><time>2026-04-06T12:39:48.98Z</time></trkpt><trkpt lat="45.93938940627889" lon="8.651057224915853"><ele>200.66666666666666</ele><time>2026-04-06T12:39:49.98Z</time></trkpt><trkpt lat="45.93937055596777" lon="8.650790921855737"><ele>196.0</ele><time>2026-04-06T12:39:50.98Z</time></trkpt><trkpt lat="45.9393475765052" lon="8.65052951163951"><ele>196.0</ele><time>2026-04-06T12:39:51.98Z</time></trkpt><trkpt lat="45.93933030116975" lon="8.650298968852026"><ele>196.0</ele><time>2026-04-06T12:39:52.98Z</time></trkpt><trkpt lat="45.93931685730624" lon="8.650081554884174"><ele>196.0</ele><time>2026-04-06T12:39:53.98Z</time></trkpt><trkpt lat="45.9392898934824" lon="8.649869072835852"><ele>195.75</ele><time>2026-04-06T12:39:54.98Z</time></trkpt><trkpt lat="45.93925062729181" lon="8.64966784400642"><ele>195.5</ele><time>2026-04-06T12:39:55.98Z</time></trkpt><trkpt lat="45.939192787181064" lon="8.649508906334436"><ele>195.25</ele><time>2026-04-06T12:39:56.981Z</time></trkpt><trkpt lat="45.93910777745518" lon="8.649346431340259"><ele>195.0</ele><time>2026-04-06T12:39:57.981Z</time></trkpt><trkpt lat="45.93899938304044" lon="8.649178162340151"><ele>196.0</ele><time>2026-04-06T12:39:58.981Z</time></trkpt><trkpt lat="45.93888017265725" lon="8.648972680495124"><ele>197.0</ele><time>2026-04-06T12:39:59.981Z</time></trkpt><trkpt lat="45.938748066100146" lon="8.648765252420038"><ele>198.0</ele><time>2026-04-06T12:40:00.981Z</time></trkpt><trkpt lat="45.93861653649142" lon="8.648558752401549"><ele>198.0</ele><time>2026-04-06T12:40:01.981Z</time></trkpt><trkpt lat="45.93848004059395" lon="8.648377366907592"><ele>198.0</ele><time>2026-04-06T12:40:02.981Z</time></trkpt><trkpt lat="45.938362164035674" lon="8.648184538177192"><ele>198.0</ele><time>2026-04-06T12:40:03.981Z</time></trkpt><trkpt lat="45.938246159805004" lon="8.647999698341241"><ele>198.66666666666669</ele><time>2026-04-06T12:40:04.981Z</time></trkpt><trkpt lat="45.938140503834646" lon="8.647801603769764"><ele>199.33333333333334</ele><time>2026-04-06T12:40:05.98Z</time></trkpt><trkpt lat="45.938022117499905" lon="8.647614032982661"><ele>200.0</ele><time>2026-04-06T12:40:06.98Z</time></trkpt><trkpt lat="45.93790380788247" lon="8.647427563099164"><ele>200.0</ele><time>2026-04-06T12:40:07.981Z</time></trkpt><trkpt lat="45.937787539987966" lon="8.647244058719155"><ele>200.0</ele><time>2026-04-06T12:40:08.981Z</time></trkpt><trkpt lat="45.93767636877856" lon="8.647068598547994"><ele>200.0</ele><time>2026-04-06T12:40:09.981Z</time></trkpt><trkpt lat="45.93756738109016" lon="8.646893349685811"><ele>201.5</ele><time>2026-04-06T12:40:10.981Z</time></trkpt><trkpt lat="45.937471105970864" lon="8.646732900812253"><ele>203.0</ele><time>2026-04-06T12:40:11.981Z</time></trkpt><trkpt lat="45.93739476343517" lon="8.64656994251927"><ele>204.5</ele><time>2026-04-06T12:40:12.981Z</time></trkpt><trkpt lat="45.93734480037029" lon="8.646390583055206"><ele>206.0</ele><time>2026-04-06T12:40:13.981Z</time></trkpt><trkpt lat="45.937304786672556" lon="8.646234672228685"><ele>204.33333333333334</ele><time>2026-04-06T12:40:14.981Z</time></trkpt><trkpt lat="45.93727104819451" lon="8.646095001986142"><ele>202.66666666666669</ele><time>2026-04-06T12:40:15.981Z</time></trkpt><trkpt lat="45.93724047930339" lon="8.645974623379384"><ele>201.0</ele><time>2026-04-06T12:40:16.981Z</time></trkpt><trkpt lat="45.93721339867108" lon="8.645871254229466"><ele>199.33333333333331</ele><time>2026-04-06T12:40:17.981Z</time></trkpt><trkpt lat="45.93718716801656" lon="8.645771757342988"><ele>197.66666666666666</ele><time>2026-04-06T12:40:18.981Z</time></trkpt><trkpt lat="45.93715826522319" lon="8.645663589396756"><ele>196.0</ele><time>2026-04-06T12:40:19.981Z</time></trkpt><trkpt lat="45.937126672088226" lon="8.645548172974767"><ele>196.0</ele><time>2026-04-06T12:40:20.981Z</time></trkpt><trkpt lat="45.93709524782728" lon="8.645433373156575"><ele>196.0</ele><time>2026-04-06T12:40:21.981Z</time></trkpt><trkpt lat="45.93705746702331" lon="8.645308634514128"><ele>196.0</ele><time>2026-04-06T12:40:22.981Z</time></trkpt><trkpt lat="45.93700989079608" lon="8.645182576393042"><ele>196.0</ele><time>2026-04-06T12:40:23.981Z</time></trkpt><trkpt lat="45.93694732845995" lon="8.645049968904376"><ele>196.0</ele><time>2026-04-06T12:40:24.981Z</time></trkpt><trkpt lat="45.93687188748062" lon="8.644919498094636"><ele>195.0</ele><time>2026-04-06T12:40:25.981Z</time></trkpt><trkpt lat="45.93677411114926" lon="8.644776474019048"><ele>194.0</ele><time>2026-04-06T12:40:26.981Z</time></trkpt><trkpt lat="45.936668061129154" lon="8.64463357989856"><ele>193.0</ele><time>2026-04-06T12:40:27.981Z</time></trkpt><trkpt lat="45.93655679148119" lon="8.644485188544778"><ele>192.0</ele><time>2026-04-06T12:40:28.981Z</time></trkpt><trkpt lat="45.93644216800134" lon="8.6443345994364"><ele>195.0</ele><time>2026-04-06T12:40:29.981Z</time></trkpt><trkpt lat="45.93633656186443" lon="8.644193232584643"><ele>198.0</ele><time>2026-04-06T12:40:30.981Z</time></trkpt><trkpt lat="45.9362251852481" lon="8.644050314720982"><ele>201.0</ele><time>2026-04-06T12:40:31.981Z</time></trkpt><trkpt lat="45.93614469343026" lon="8.643850341564322"><ele>201.0</ele><time>2026-04-06T12:40:32.981Z</time></trkpt><trkpt lat="45.936051768204706" lon="8.643660462115399"><ele>201.0</ele><time>2026-04-06T12:40:33.981Z</time></trkpt><trkpt lat="45.93595765884943" lon="8.643475230122151"><ele>201.0</ele><time>2026-04-06T12:40:34.981Z</time></trkpt><trkpt lat="45.935865851632094" lon="8.643294227090417"><ele>202.0</ele><time>2026-04-06T12:40:35.981Z</time></trkpt><trkpt lat="45.93577493433981" lon="8.64311458730048"><ele>203.0</ele><time>2026-04-06T12:40:36.98Z</time></trkpt><trkpt lat="45.935682679391284" lon="8.642945051630829"><ele>204.0</ele><time>2026-04-06T12:40:37.98Z</time></trkpt><trkpt lat="45.93558328007458" lon="8.642788364014397"><ele>204.0</ele><time>2026-04-06T12:40:38.98Z</time></trkpt><trkpt lat="45.935475524937864" lon="8.642629718415355"><ele>204.0</ele><time>2026-04-06T12:40:39.98Z</time></trkpt><trkpt lat="45.93536243528495" lon="8.642459709940699"><ele>204.0</ele><time>2026-04-06T12:40:40.98Z</time></trkpt><trkpt lat="45.935244882683115" lon="8.642280639813087"><ele>204.0</ele><time>2026-04-06T12:40:41.98Z</time></trkpt><trkpt lat="45.935121939743404" lon="8.642093358697867"><ele>204.0</ele><time>2026-04-06T12:40:42.98Z</time></trkpt><trkpt lat="45.93498453883069" lon="8.64191598511216"><ele>204.0</ele><time>2026-04-06T12:40:43.98Z</time></trkpt><trkpt lat="45.934859443946856" lon="8.641724837846013"><ele>204.33333333333331</ele><time>2026-04-06T12:40:44.98Z</time></trkpt><trkpt lat="45.93473555646761" lon="8.641539127420637"><ele>204.66666666666666</ele><time>2026-04-06T12:40:45.98Z</time></trkpt><trkpt lat="45.93460927130175" lon="8.641361644793673"><ele>205.0</ele><time>2026-04-06T12:40:46.98Z</time></trkpt><trkpt lat="45.934500132880125" lon="8.641173749947084"><ele>206.0</ele><time>2026-04-06T12:40:47.98Z</time></trkpt><trkpt lat="45.9343767330027" lon="8.641041115599457"><ele>207.0</ele><time>2026-04-06T12:40:48.98Z</time></trkpt><trkpt lat="45.934272610580585" lon="8.640917274671253"><ele>208.0</ele><time>2026-04-06T12:40:49.98Z</time></trkpt><trkpt lat="45.93417024664572" lon="8.64081108496046"><ele>209.0</ele><time>2026-04-06T12:40:50.98Z</time></trkpt><trkpt lat="45.93407289842545" lon="8.640702572018874"><ele>209.0</ele><time>2026-04-06T12:40:51.98Z</time></trkpt><trkpt lat="45.933995065119554" lon="8.640579686886309"><ele>209.0</ele><time>2026-04-06T12:40:52.98Z</time></trkpt><trkpt lat="45.933901535518" lon="8.640469735813461"><ele>209.0</ele><time>2026-04-06T12:40:53.98Z</time></trkpt><trkpt lat="45.93380113605091" lon="8.640362866750118"><ele>209.0</ele><time>2026-04-06T12:40:54.98Z</time></trkpt><trkpt lat="45.933688207256594" lon="8.640262709735616"><ele>208.5</ele><time>2026-04-06T12:40:55.98Z</time></trkpt><trkpt lat="45.93357193226093" lon="8.640174055259129"><ele>208.0</ele><time>2026-04-06T12:40:56.98Z</time></trkpt><trkpt lat="45.9334554893616" lon="8.640086821489016"><ele>207.5</ele><time>2026-04-06T12:40:57.98Z</time></trkpt><trkpt lat="45.93333163129026" lon="8.640007251660073"><ele>207.0</ele><time>2026-04-06T12:40:58.98Z</time></trkpt><trkpt lat="45.933199362789054" lon="8.639941691264697"><ele>207.0</ele><time>2026-04-06T12:40:59.98Z</time></trkpt><trkpt lat="45.93309723750964" lon="8.639832875239785"><ele>207.0</ele><time>2026-04-06T12:41:00.98Z</time></trkpt><trkpt lat="45.93297465290444" lon="8.639780915334674"><ele>207.0</ele><time>2026-04-06T12:41:01.98Z</time></trkpt><trkpt lat="45.932859963732405" lon="8.639717369103835"><ele>207.0</ele><time>2026-04-06T12:41:02.98Z</time></trkpt><trkpt lat="45.93273494994893" lon="8.639647881551566"><ele>207.0</ele><time>2026-04-06T12:41:03.98Z</time></trkpt><trkpt lat="45.932618434990715" lon="8.639586083122778"><ele>207.0</ele><time>2026-04-06T12:41:04.98Z</time></trkpt><trkpt lat="45.93250213910224" lon="8.639509585379956"><ele>207.0</ele><time>2026-04-06T12:41:05.98Z</time></trkpt><trkpt lat="45.9323900431912" lon="8.639425572996167"><ele>207.0</ele><time>2026-04-06T12:41:06.98Z</time></trkpt><trkpt lat="45.932266910600426" lon="8.639365193616321"><ele>205.5</ele><time>2026-04-06T12:41:07.98Z</time></trkpt><trkpt lat="45.932138163232146" lon="8.639291326164107"><ele>204.0</ele><time>2026-04-06T12:41:08.98Z</time></trkpt><trkpt lat="45.93200970085842" lon="8.639203317064261"><ele>202.5</ele><time>2026-04-06T12:41:09.98Z</time></trkpt><trkpt lat="45.931880835054365" lon="8.639091229936371"><ele>201.0</ele><time>2026-04-06T12:41:10.98Z</time></trkpt><trkpt lat="45.931749066280446" lon="8.638985967032895"><ele>201.25</ele><time>2026-04-06T12:41:11.98Z</time></trkpt><trkpt lat="45.93162000548028" lon="8.638887621469804"><ele>201.5</ele><time>2026-04-06T12:41:12.98Z</time></trkpt><trkpt lat="45.93149622567756" lon="8.638788718165552"><ele>201.75</ele><time>2026-04-06T12:41:13.98Z</time></trkpt><trkpt lat="45.931375137815834" lon="8.638678935247665"><ele>202.0</ele><time>2026-04-06T12:41:14.98Z</time></trkpt><trkpt lat="45.9312571404278" lon="8.638563148651722"><ele>202.0</ele><time>2026-04-06T12:41:15.98Z</time></trkpt><trkpt lat="45.93114051869966" lon="8.638441177920113"><ele>202.0</ele><time>2026-04-06T12:41:16.98Z</time></trkpt><trkpt lat="45.931021362123715" lon="8.638320089265225"><ele>202.0</ele><time>2026-04-06T12:41:17.98Z</time></trkpt><trkpt lat="45.930907046186235" lon="8.638196875747385"><ele>202.0</ele><time>2026-04-06T12:41:18.98Z</time></trkpt><trkpt lat="45.93079650614213" lon="8.6380725932156"><ele>211.5</ele><time>2026-04-06T12:41:19.98Z</time></trkpt><trkpt lat="45.93063749237829" lon="8.637927731779188"><ele>221.0</ele><time>2026-04-06T12:41:21.12Z</time></trkpt><trkpt lat="45.92940321497076" lon="8.63616007586437"><ele>220.0</ele><time>2026-04-06T12:41:25.038Z</time></trkpt><trkpt lat="45.92912849061558" lon="8.63564928025846"><ele>219.0</ele><time>2026-04-06T12:41:26.038Z</time></trkpt><trkpt lat="45.928782970008974" lon="8.635241654529136"><ele>227.5</ele><time>2026-04-06T12:41:27.038Z</time></trkpt><trkpt lat="45.92840925420198" lon="8.634884964799875"><ele>236.0</ele><time>2026-04-06T12:41:28.036Z</time></trkpt><trkpt lat="45.928034314875475" lon="8.634526723974284"><ele>229.0</ele><time>2026-04-06T12:41:29.038Z</time></trkpt><trkpt lat="45.92771070564598" lon="8.634088061484322"><ele>222.0</ele><time>2026-04-06T12:41:30.038Z</time></trkpt><trkpt lat="45.92747216284262" lon="8.633542896070168"><ele>222.0</ele><time>2026-04-06T12:41:31.036Z</time></trkpt><trkpt lat="45.9272400655365" lon="8.632990503910037"><ele>222.0</ele><time>2026-04-06T12:41:32.037Z</time></trkpt><trkpt lat="45.92696908709685" lon="8.632482922684705"><ele>263.0</ele><time>2026-04-06T12:41:33.037Z</time></trkpt><trkpt lat="45.92663137274694" lon="8.632056198349998"><ele>247.5</ele><time>2026-04-06T12:41:34.038Z</time></trkpt><trkpt lat="45.926475508777955" lon="8.63146333738457"><ele>232.0</ele><time>2026-04-06T12:41:35.036Z</time></trkpt><trkpt lat="45.9291128966927" lon="8.635447023698612"><ele>225.5</ele><time>2026-04-06T12:41:35.979Z</time></trkpt><trkpt lat="45.928911369522616" lon="8.63583864833402"><ele>219.0</ele><time>2026-04-06T12:41:36.979Z</time></trkpt><trkpt lat="45.928838679274264" lon="8.635266187380708"><ele>224.66666666666669</ele><time>2026-04-06T12:41:37.979Z</time></trkpt><trkpt lat="45.92864178870607" lon="8.635078248651988"><ele>230.33333333333334</ele><time>2026-04-06T12:41:38.979Z</time></trkpt><trkpt lat="45.92848891617061" lon="8.634932340526904"><ele>236.0</ele><time>2026-04-06T12:41:39.979Z</time></trkpt><trkpt lat="45.92831292259411" lon="8.634764365167685"><ele>236.0</ele><time>2026-04-06T12:41:40.979Z</time></trkpt><trkpt lat="45.92815013388116" lon="8.634609000964094"><ele>236.0</ele><time>2026-04-06T12:41:41.979Z</time></trkpt><trkpt lat="45.92802336649279" lon="8.634486416395212"><ele>236.0</ele><time>2026-04-06T12:41:42.979Z</time></trkpt><trkpt lat="45.92790770384161" lon="8.634367263093539"><ele>226.0</ele><time>2026-04-06T12:41:43.979Z</time></trkpt><trkpt lat="45.92780490131287" lon="8.63423677915168"><ele>216.0</ele><time>2026-04-06T12:41:44.979Z</time></trkpt><trkpt lat="45.92771574772983" lon="8.634056480353294"><ele>206.0</ele><time>2026-04-06T12:41:45.979Z</time></trkpt><trkpt lat="45.92762892788751" lon="8.633858430329903"><ele>211.33333333333334</ele><time>2026-04-06T12:41:46.979Z</time></trkpt><trkpt lat="45.92753775287072" lon="8.633650772996445"><ele>216.66666666666669</ele><time>2026-04-06T12:41:47.979Z</time></trkpt><trkpt lat="45.92746462737882" lon="8.633479565856662"><ele>222.0</ele><time>2026-04-06T12:41:48.979Z</time></trkpt><trkpt lat="45.9273378883993" lon="8.633181059611275"><ele>222.0</ele><time>2026-04-06T12:41:49.979Z</time></trkpt><trkpt lat="45.92725893499596" lon="8.63298939292782"><ele>222.0</ele><time>2026-04-06T12:41:51.979Z</time></trkpt><trkpt lat="45.927201028366945" lon="8.632848818894235"><ele>222.0</ele><time>2026-04-06T12:41:52.979Z</time></trkpt><trkpt lat="45.92704913366103" lon="8.632552645717858"><ele>216.33333333333331</ele><time>2026-04-06T12:41:54.121Z</time></trkpt><trkpt lat="45.92689993665025" lon="8.63236622930889"><ele>210.66666666666666</ele><time>2026-04-06T12:41:55.12Z</time></trkpt><trkpt lat="45.92674769687962" lon="8.632176077928156"><ele>205.0</ele><time>2026-04-06T12:41:56.12Z</time></trkpt><trkpt lat="45.926637582284556" lon="8.632035997494164"><ele>214.0</ele><time>2026-04-06T12:41:57.124Z</time></trkpt><trkpt lat="45.926546266566504" lon="8.631803815004321"><ele>223.0</ele><time>2026-04-06T12:41:58.121Z</time></trkpt><trkpt lat="45.92650491397494" lon="8.631572734728461"><ele>232.0</ele><time>2026-04-06T12:41:58.979Z</time></trkpt><trkpt lat="45.92647939241346" lon="8.631366394160843"><ele>225.66666666666666</ele><time>2026-04-06T12:41:59.979Z</time></trkpt><trkpt lat="45.92643717676494" lon="8.631062022431577"><ele>219.33333333333331</ele><time>2026-04-06T12:42:00.979Z</time></trkpt><trkpt lat="45.92639871888867" lon="8.630784742455074"><ele>213.0</ele><time>2026-04-06T12:42:01.979Z</time></trkpt><trkpt lat="45.926357221441066" lon="8.630473332409101"><ele>210.0</ele><time>2026-04-06T12:42:02.979Z</time></trkpt><trkpt lat="45.92631370827534" lon="8.630151963594118"><ele>207.0</ele><time>2026-04-06T12:42:03.979Z</time></trkpt><trkpt lat="45.92626087534197" lon="8.62986413309567"><ele>204.0</ele><time>2026-04-06T12:42:04.98Z</time></trkpt><trkpt lat="45.92615897091603" lon="8.62954057134836"><ele>199.66666666666666</ele><time>2026-04-06T12:42:05.98Z</time></trkpt><trkpt lat="45.926038584565134" lon="8.629281582622294"><ele>195.33333333333331</ele><time>2026-04-06T12:42:06.98Z</time></trkpt><trkpt lat="45.92593648362083" lon="8.629140394277718"><ele>191.0</ele><time>2026-04-06T12:42:07.98Z</time></trkpt><trkpt lat="45.92583832332912" lon="8.629033904785285"><ele>195.66666666666666</ele><time>2026-04-06T12:42:08.98Z</time></trkpt><trkpt lat="45.92572651902523" lon="8.62891310217121"><ele>200.33333333333331</ele><time>2026-04-06T12:42:09.98Z</time></trkpt><trkpt lat="45.92561753369911" lon="8.628796359288941"><ele>205.0</ele><time>2026-04-06T12:42:10.98Z</time></trkpt><trkpt lat="45.925473202332995" lon="8.628633337343988"><ele>205.0</ele><time>2026-04-06T12:42:11.98Z</time></trkpt><trkpt lat="45.92534837436711" lon="8.628467891194312"><ele>205.0</ele><time>2026-04-06T12:42:12.98Z</time></trkpt><trkpt lat="45.925263710263515" lon="8.628308459518122"><ele>205.0</ele><time>2026-04-06T12:42:13.98Z</time></trkpt><trkpt lat="45.92524993665995" lon="8.628173555573898"><ele>205.0</ele><time>2026-04-06T12:42:14.98Z</time></trkpt><trkpt lat="45.92520201039023" lon="8.62798545713427"><ele>202.75</ele><time>2026-04-06T12:42:15.98Z</time></trkpt><trkpt lat="45.92518751803557" lon="8.627808399355633"><ele>200.5</ele><time>2026-04-06T12:42:16.98Z</time></trkpt><trkpt lat="45.925220654137796" lon="8.62767012886989"><ele>198.25</ele><time>2026-04-06T12:42:17.98Z</time></trkpt><trkpt lat="45.92521023814428" lon="8.627434408055763"><ele>196.0</ele><time>2026-04-06T12:42:18.98Z</time></trkpt><trkpt lat="45.92514216106106" lon="8.627179840376183"><ele>196.0</ele><time>2026-04-06T12:42:19.98Z</time></trkpt><trkpt lat="45.92509261965407" lon="8.627049493063694"><ele>196.0</ele><time>2026-04-06T12:42:20.98Z</time></trkpt><trkpt lat="45.925019714743875" lon="8.626857677675467"><ele>196.0</ele><time>2026-04-06T12:42:21.98Z</time></trkpt><trkpt lat="45.9249331509023" lon="8.626629923582211"><ele>196.0</ele><time>2026-04-06T12:42:22.98Z</time></trkpt><trkpt lat="45.92485029192071" lon="8.626411918056915"><ele>198.33333333333331</ele><time>2026-04-06T12:42:23.98Z</time></trkpt><trkpt lat="45.92477079103091" lon="8.626182765647087"><ele>200.66666666666669</ele><time>2026-04-06T12:42:24.98Z</time></trkpt><trkpt lat="45.92468319942922" lon="8.625923481438553"><ele>203.0</ele><time>2026-04-06T12:42:25.98Z</time></trkpt><trkpt lat="45.92459613142581" lon="8.625665746271116"><ele>203.0</ele><time>2026-04-06T12:42:26.98Z</time></trkpt><trkpt lat="45.92451767035233" lon="8.62543349114728"><ele>203.0</ele><time>2026-04-06T12:42:27.98Z</time></trkpt><trkpt lat="45.92443738914512" lon="8.625195846816615"><ele>203.0</ele><time>2026-04-06T12:42:28.98Z</time></trkpt><trkpt lat="45.92436347882069" lon="8.62497862770574"><ele>201.25</ele><time>2026-04-06T12:42:29.98Z</time></trkpt><trkpt lat="45.924299849948206" lon="8.624784201552696"><ele>199.5</ele><time>2026-04-06T12:42:30.98Z</time></trkpt><trkpt lat="45.92425099525425" lon="8.624612543093043"><ele>197.75</ele><time>2026-04-06T12:42:31.98Z</time></trkpt><trkpt lat="45.92421537126684" lon="8.624468044986571"><ele>196.0</ele><time>2026-04-06T12:42:32.98Z</time></trkpt><trkpt lat="45.92418046178984" lon="8.62433276668102"><ele>201.75</ele><time>2026-04-06T12:42:33.98Z</time></trkpt><trkpt lat="45.924118433181874" lon="8.624156820267402"><ele>207.5</ele><time>2026-04-06T12:42:34.98Z</time></trkpt><trkpt lat="45.924104240210745" lon="8.623949845576504"><ele>213.25</ele><time>2026-04-06T12:42:35.98Z</time></trkpt><trkpt lat="45.92412464866386" lon="8.623779880438184"><ele>219.0</ele><time>2026-04-06T12:42:36.98Z</time></trkpt><trkpt lat="45.924133704730636" lon="8.623570917896151"><ele>219.0</ele><time>2026-04-06T12:42:37.979Z</time></trkpt><trkpt lat="45.9241695509845" lon="8.623411138123135"><ele>219.0</ele><time>2026-04-06T12:42:38.979Z</time></trkpt><trkpt lat="45.92420226910366" lon="8.623239319087133"><ele>219.0</ele><time>2026-04-06T12:42:39.979Z</time></trkpt><trkpt lat="45.92420933788908" lon="8.623073941154557"><ele>219.0</ele><time>2026-04-06T12:42:40.979Z</time></trkpt><trkpt lat="45.924202562599106" lon="8.62290794350029"><ele>216.0</ele><time>2026-04-06T12:42:41.979Z</time></trkpt><trkpt lat="45.92415244827704" lon="8.622733356207846"><ele>213.0</ele><time>2026-04-06T12:42:42.979Z</time></trkpt><trkpt lat="45.92407914144502" lon="8.622528074016572"><ele>210.0</ele><time>2026-04-06T12:42:43.979Z</time></trkpt><trkpt lat="45.92399619221878" lon="8.622294770531532"><ele>210.0</ele><time>2026-04-06T12:42:44.979Z</time></trkpt><trkpt lat="45.923921588140956" lon="8.622079548367731"><ele>210.0</ele><time>2026-04-06T12:42:45.979Z</time></trkpt><trkpt lat="45.92385119289274" lon="8.621875621064158"><ele>210.0</ele><time>2026-04-06T12:42:46.979Z</time></trkpt><trkpt lat="45.92378272318517" lon="8.621674417224844"><ele>207.33333333333331</ele><time>2026-04-06T12:42:47.979Z</time></trkpt><trkpt lat="45.92371086583543" lon="8.621472968692709"><ele>204.66666666666666</ele><time>2026-04-06T12:42:48.979Z</time></trkpt><trkpt lat="45.923627467766515" lon="8.621276255921387"><ele>202.0</ele><time>2026-04-06T12:42:49.979Z</time></trkpt><trkpt lat="45.923535327376754" lon="8.621089289243411"><ele>198.66666666666666</ele><time>2026-04-06T12:42:50.979Z</time></trkpt><trkpt lat="45.923438427061434" lon="8.620916204353236"><ele>195.33333333333331</ele><time>2026-04-06T12:42:51.979Z</time></trkpt><trkpt lat="45.923334871942956" lon="8.620757430889105"><ele>192.0</ele><time>2026-04-06T12:42:52.979Z</time></trkpt><trkpt lat="45.92322130785306" lon="8.620604661181954"><ele>195.75</ele><time>2026-04-06T12:42:53.979Z</time></trkpt><trkpt lat="45.923113931384655" lon="8.620474426527588"><ele>199.5</ele><time>2026-04-06T12:42:54.979Z</time></trkpt><trkpt lat="45.92302525648952" lon="8.620346476118012"><ele>203.25</ele><time>2026-04-06T12:42:55.979Z</time></trkpt><trkpt lat="45.922955877662815" lon="8.620196839104123"><ele>207.0</ele><time>2026-04-06T12:42:56.979Z</time></trkpt><trkpt lat="45.92290897069261" lon="8.620015612855367"><ele>207.0</ele><time>2026-04-06T12:42:57.979Z</time></trkpt><trkpt lat="45.922859384670645" lon="8.61981200345759"><ele>207.0</ele><time>2026-04-06T12:42:58.979Z</time></trkpt><trkpt lat="45.92280761570017" lon="8.619601186962802"><ele>207.0</ele><time>2026-04-06T12:42:59.979Z</time></trkpt><trkpt lat="45.922750365756166" lon="8.619379256040926"><ele>203.33333333333331</ele><time>2026-04-06T12:43:00.979Z</time></trkpt><trkpt lat="45.922679834488065" lon="8.61915728174236"><ele>199.66666666666666</ele><time>2026-04-06T12:43:01.979Z</time></trkpt><trkpt lat="45.92259561129372" lon="8.61894605737382"><ele>196.0</ele><time>2026-04-06T12:43:02.979Z</time></trkpt><trkpt lat="45.922508591672845" lon="8.618740109781841"><ele>201.66666666666666</ele><time>2026-04-06T12:43:03.979Z</time></trkpt><trkpt lat="45.92241885099758" lon="8.61852881188839"><ele>207.33333333333331</ele><time>2026-04-06T12:43:04.979Z</time></trkpt><trkpt lat="45.92232946915443" lon="8.618318540218034"><ele>213.0</ele><time>2026-04-06T12:43:05.979Z</time></trkpt><trkpt lat="45.922244741032685" lon="8.61812040746172"><ele>213.0</ele><time>2026-04-06T12:43:06.979Z</time></trkpt><trkpt lat="45.92215303714916" lon="8.617938363193682"><ele>213.0</ele><time>2026-04-06T12:43:07.979Z</time></trkpt><trkpt lat="45.92204596333674" lon="8.617767942398215"><ele>213.0</ele><time>2026-04-06T12:43:08.979Z</time></trkpt><trkpt lat="45.92190862528184" lon="8.61762578520351"><ele>214.0</ele><time>2026-04-06T12:43:09.979Z</time></trkpt><trkpt lat="45.921756133066026" lon="8.617499736790696"><ele>215.0</ele><time>2026-04-06T12:43:10.979Z</time></trkpt><trkpt lat="45.92160771615531" lon="8.617352614212475"><ele>216.0</ele><time>2026-04-06T12:43:11.979Z</time></trkpt><trkpt lat="45.92144849461333" lon="8.617206842291605"><ele>216.0</ele><time>2026-04-06T12:43:12.979Z</time></trkpt><trkpt lat="45.92129161696513" lon="8.61708250162155"><ele>216.0</ele><time>2026-04-06T12:43:13.979Z</time></trkpt><trkpt lat="45.92114960526217" lon="8.616952945331331"><ele>216.0</ele><time>2026-04-06T12:43:14.979Z</time></trkpt><trkpt lat="45.921016411834266" lon="8.616832882129083"><ele>216.5</ele><time>2026-04-06T12:43:15.979Z</time></trkpt><trkpt lat="45.92088220731666" lon="8.61671981024239"><ele>217.0</ele><time>2026-04-06T12:43:16.979Z</time></trkpt><trkpt lat="45.920761845469634" lon="8.616607356198537"><ele>217.5</ele><time>2026-04-06T12:43:17.979Z</time></trkpt><trkpt lat="45.92064409317097" lon="8.616514458680593"><ele>218.0</ele><time>2026-04-06T12:43:18.979Z</time></trkpt><trkpt lat="45.920514606893796" lon="8.616445759094084"><ele>218.0</ele><time>2026-04-06T12:43:19.979Z</time></trkpt><trkpt lat="45.92036820998445" lon="8.61640469890105"><ele>218.0</ele><time>2026-04-06T12:43:20.979Z</time></trkpt><trkpt lat="45.92020802845145" lon="8.61636727287772"><ele>218.0</ele><time>2026-04-06T12:43:21.979Z</time></trkpt><trkpt lat="45.920046521867675" lon="8.616321426350215"><ele>222.66666666666669</ele><time>2026-04-06T12:43:22.979Z</time></trkpt><trkpt lat="45.91988482386309" lon="8.616272465051969"><ele>227.33333333333331</ele><time>2026-04-06T12:43:23.979Z</time></trkpt><trkpt lat="45.919730519865055" lon="8.6162234355848"><ele>232.0</ele><time>2026-04-06T12:43:24.978Z</time></trkpt><trkpt lat="45.919576431244906" lon="8.616177621660045"><ele>232.0</ele><time>2026-04-06T12:43:25.978Z</time></trkpt><trkpt lat="45.91942286053444" lon="8.616167457863583"><ele>232.0</ele><time>2026-04-06T12:43:26.978Z</time></trkpt><trkpt lat="45.91928056943239" lon="8.616178486991274"><ele>232.0</ele><time>2026-04-06T12:43:27.978Z</time></trkpt><trkpt lat="45.91915308167764" lon="8.616223592707472"><ele>232.0</ele><time>2026-04-06T12:43:28.978Z</time></trkpt><trkpt lat="45.91903743567078" lon="8.616294480072149"><ele>230.5</ele><time>2026-04-06T12:43:29.978Z</time></trkpt><trkpt lat="45.91893594182728" lon="8.616397528840814"><ele>229.0</ele><time>2026-04-06T12:43:30.978Z</time></trkpt><trkpt lat="45.91883396503267" lon="8.616512346616467"><ele>227.5</ele><time>2026-04-06T12:43:31.978Z</time></trkpt><trkpt lat="45.91872114751657" lon="8.616627539155138"><ele>226.0</ele><time>2026-04-06T12:43:32.978Z</time></trkpt><trkpt lat="45.918603529253055" lon="8.616745004791772"><ele>226.0</ele><time>2026-04-06T12:43:33.978Z</time></trkpt><trkpt lat="45.918486507188945" lon="8.616860034217998"><ele>226.0</ele><time>2026-04-06T12:43:34.978Z</time></trkpt><trkpt lat="45.918366760419126" lon="8.61697457831378"><ele>226.0</ele><time>2026-04-06T12:43:35.978Z</time></trkpt><trkpt lat="45.91823992178275" lon="8.617078842494344"><ele>226.0</ele><time>2026-04-06T12:43:36.978Z</time></trkpt><trkpt lat="45.91810259196205" lon="8.617167619770198"><ele>225.0</ele><time>2026-04-06T12:43:37.978Z</time></trkpt><trkpt lat="45.91795585742945" lon="8.617250698145973"><ele>224.0</ele><time>2026-04-06T12:43:38.978Z</time></trkpt><trkpt lat="45.91779702367453" lon="8.617323343683841"><ele>223.0</ele><time>2026-04-06T12:43:39.978Z</time></trkpt><trkpt lat="45.917650403901284" lon="8.6173803289661"><ele>222.33333333333331</ele><time>2026-04-06T12:43:40.978Z</time></trkpt><trkpt lat="45.91750397825264" lon="8.61743300073759"><ele>221.66666666666669</ele><time>2026-04-06T12:43:41.978Z</time></trkpt><trkpt lat="45.917357370048386" lon="8.617489805729349"><ele>221.0</ele><time>2026-04-06T12:43:42.978Z</time></trkpt><trkpt lat="45.917211336651235" lon="8.617541659091291"><ele>221.0</ele><time>2026-04-06T12:43:43.978Z</time></trkpt><trkpt lat="45.91706366918431" lon="8.617592929347236"><ele>221.0</ele><time>2026-04-06T12:43:44.978Z</time></trkpt><trkpt lat="45.916914796298784" lon="8.617645067262606"><ele>221.0</ele><time>2026-04-06T12:43:45.978Z</time></trkpt><trkpt lat="45.91676310646537" lon="8.617704382446748"><ele>221.66666666666669</ele><time>2026-04-06T12:43:46.978Z</time></trkpt><trkpt lat="45.91661158018464" lon="8.61776060824757"><ele>222.33333333333331</ele><time>2026-04-06T12:43:47.978Z</time></trkpt><trkpt lat="45.916459452870406" lon="8.617814818923328"><ele>223.0</ele><time>2026-04-06T12:43:48.978Z</time></trkpt><trkpt lat="45.91630385264384" lon="8.617848759673276"><ele>222.75</ele><time>2026-04-06T12:43:49.978Z</time></trkpt><trkpt lat="45.916156027560945" lon="8.617903123429453"><ele>222.5</ele><time>2026-04-06T12:43:50.978Z</time></trkpt><trkpt lat="45.916022028960114" lon="8.617976576734195"><ele>222.25</ele><time>2026-04-06T12:43:51.978Z</time></trkpt><trkpt lat="45.91589047983633" lon="8.617996661529812"><ele>222.0</ele><time>2026-04-06T12:43:52.978Z</time></trkpt><trkpt lat="45.91577446608466" lon="8.618031033734965"><ele>222.0</ele><time>2026-04-06T12:43:53.978Z</time></trkpt><trkpt lat="45.91565209857368" lon="8.618026416247506"><ele>222.0</ele><time>2026-04-06T12:43:54.978Z</time></trkpt><trkpt lat="45.915538281629594" lon="8.617991771716921"><ele>222.0</ele><time>2026-04-06T12:43:55.978Z</time></trkpt><trkpt lat="45.91541799147439" lon="8.617960359452258"><ele>222.0</ele><time>2026-04-06T12:43:56.978Z</time></trkpt><trkpt lat="45.91528934853135" lon="8.617940406598319"><ele>222.0</ele><time>2026-04-06T12:43:57.978Z</time></trkpt><trkpt lat="45.91515668233929" lon="8.617932851882626"><ele>222.0</ele><time>2026-04-06T12:43:58.978Z</time></trkpt><trkpt lat="45.915021509427106" lon="8.617927884144091"><ele>222.0</ele><time>2026-04-06T12:43:59.978Z</time></trkpt><trkpt lat="45.91489851545985" lon="8.617887665095118"><ele>222.0</ele><time>2026-04-06T12:44:00.978Z</time></trkpt><trkpt lat="45.91476653771981" lon="8.617871540107846"><ele>221.25</ele><time>2026-04-06T12:44:01.978Z</time></trkpt><trkpt lat="45.91463764701701" lon="8.617860605843518"><ele>220.5</ele><time>2026-04-06T12:44:02.978Z</time></trkpt><trkpt lat="45.91451319592191" lon="8.617854469379292"><ele>219.75</ele><time>2026-04-06T12:44:03.978Z</time></trkpt><trkpt lat="45.91439781737079" lon="8.617843317603432"><ele>219.0</ele><time>2026-04-06T12:44:04.978Z</time></trkpt><trkpt lat="45.91429256208254" lon="8.617839574786847"><ele>218.5</ele><time>2026-04-06T12:44:05.978Z</time></trkpt><trkpt lat="45.91420391189204" lon="8.617835393584112"><ele>218.0</ele><time>2026-04-06T12:44:06.978Z</time></trkpt><trkpt lat="45.91413016255869" lon="8.61782700774384"><ele>217.5</ele><time>2026-04-06T12:44:07.978Z</time></trkpt><trkpt lat="45.91405510055592" lon="8.61780240055821"><ele>217.0</ele><time>2026-04-06T12:44:08.978Z</time></trkpt><trkpt lat="45.91398116864262" lon="8.617766949111994"><ele>216.5</ele><time>2026-04-06T12:44:09.98Z</time></trkpt><trkpt lat="45.913889142929186" lon="8.617723346252754"><ele>216.0</ele><time>2026-04-06T12:44:10.979Z</time></trkpt><trkpt lat="45.9137930540993" lon="8.617656167022531"><ele>215.25</ele><time>2026-04-06T12:44:11.979Z</time></trkpt><trkpt lat="45.91369788547338" lon="8.617566126398017"><ele>214.5</ele><time>2026-04-06T12:44:12.98Z</time></trkpt><trkpt lat="45.913590588904086" lon="8.617481997814748"><ele>213.75</ele><time>2026-04-06T12:44:13.98Z</time></trkpt><trkpt lat="45.91347504823123" lon="8.617411329623383"><ele>213.0</ele><time>2026-04-06T12:44:14.98Z</time></trkpt><trkpt lat="45.91335756890593" lon="8.617359376776113"><ele>212.25</ele><time>2026-04-06T12:44:15.98Z</time></trkpt><trkpt lat="45.9132377246642" lon="8.617316356912816"><ele>211.5</ele><time>2026-04-06T12:44:16.979Z</time></trkpt><trkpt lat="45.91311478177748" lon="8.617336892370638"><ele>210.75</ele><time>2026-04-06T12:44:17.979Z</time></trkpt><trkpt lat="45.91299278416964" lon="8.617399290952374"><ele>210.0</ele><time>2026-04-06T12:44:18.98Z</time></trkpt><trkpt lat="45.912876638125375" lon="8.617469050386806"><ele>210.0</ele><time>2026-04-06T12:44:19.98Z</time></trkpt><trkpt lat="45.91276626951314" lon="8.617556030532377"><ele>210.0</ele><time>2026-04-06T12:44:20.98Z</time></trkpt><trkpt lat="45.912647045738126" lon="8.617610759167233"><ele>210.0</ele><time>2026-04-06T12:44:21.98Z</time></trkpt><trkpt lat="45.912532924320814" lon="8.617687085030989"><ele>210.0</ele><time>2026-04-06T12:44:22.98Z</time></trkpt><trkpt lat="45.91241824880451" lon="8.617766295808996"><ele>211.8</ele><time>2026-04-06T12:44:23.98Z</time></trkpt><trkpt lat="45.91230788894199" lon="8.61783379760126"><ele>213.6</ele><time>2026-04-06T12:44:24.98Z</time></trkpt><trkpt lat="45.9122025960866" lon="8.617896255869407"><ele>215.39999999999998</ele><time>2026-04-06T12:44:25.98Z</time></trkpt><trkpt lat="45.91210062194354" lon="8.617951756361231"><ele>217.2</ele><time>2026-04-06T12:44:26.98Z</time></trkpt><trkpt lat="45.912004668748615" lon="8.61799870716133"><ele>219.0</ele><time>2026-04-06T12:44:27.98Z</time></trkpt><trkpt lat="45.91190161065562" lon="8.618047352543153"><ele>219.0</ele><time>2026-04-06T12:44:28.98Z</time></trkpt><trkpt lat="45.911815393460294" lon="8.618126222212023"><ele>218.99999999999997</ele><time>2026-04-06T12:44:29.98Z</time></trkpt><trkpt lat="45.911750407568256" lon="8.618219947989724"><ele>218.99999999999997</ele><time>2026-04-06T12:44:30.98Z</time></trkpt><trkpt lat="45.91167983104229" lon="8.618312145312208"><ele>219.0</ele><time>2026-04-06T12:44:31.98Z</time></trkpt><trkpt lat="45.91160734775092" lon="8.618387526573882"><ele>219.0</ele><time>2026-04-06T12:44:32.98Z</time></trkpt><trkpt lat="45.91152882790879" lon="8.618428732399526"><ele>217.16666666666666</ele><time>2026-04-06T12:44:33.98Z</time></trkpt><trkpt lat="45.911449023390205" lon="8.618460464993692"><ele>215.33333333333331</ele><time>2026-04-06T12:44:34.98Z</time></trkpt><trkpt lat="45.911363812372485" lon="8.618466273079438"><ele>213.5</ele><time>2026-04-06T12:44:35.98Z</time></trkpt><trkpt lat="45.91128588232808" lon="8.618425444166826"><ele>211.66666666666666</ele><time>2026-04-06T12:44:36.98Z</time></trkpt><trkpt lat="45.91121471018391" lon="8.618348867372758"><ele>209.83333333333331</ele><time>2026-04-06T12:44:37.98Z</time></trkpt><trkpt lat="45.91114550135052" lon="8.618276140457377"><ele>208.0</ele><time>2026-04-06T12:44:38.98Z</time></trkpt><trkpt lat="45.91107277831983" lon="8.618219229725492"><ele>207.99999999999997</ele><time>2026-04-06T12:44:39.98Z</time></trkpt><trkpt lat="45.91100845159679" lon="8.618169359325243"><ele>208.0</ele><time>2026-04-06T12:44:40.98Z</time></trkpt><trkpt lat="45.910942452761105" lon="8.618150329399747"><ele>208.0</ele><time>2026-04-06T12:44:41.98Z</time></trkpt><trkpt lat="45.91087167066879" lon="8.618150861666885"><ele>208.0</ele><time>2026-04-06T12:44:42.98Z</time></trkpt><trkpt lat="45.910773133273025" lon="8.618165879003342"><ele>207.99999999999997</ele><time>2026-04-06T12:44:44.98Z</time></trkpt><trkpt lat="45.91069355119353" lon="8.618220939980054"><ele>208.0</ele><time>2026-04-06T12:44:46.98Z</time></trkpt><trkpt lat="45.910601258512074" lon="8.61829526541688"><ele>207.4</ele><time>2026-04-06T12:44:48.979Z</time></trkpt><trkpt lat="45.91053523002644" lon="8.6184195831259"><ele>206.8</ele><time>2026-04-06T12:44:50.979Z</time></trkpt><trkpt lat="45.91048397672813" lon="8.618523930738544"><ele>206.2</ele><time>2026-04-06T12:44:52.979Z</time></trkpt><trkpt lat="45.9104339751402" lon="8.618623568118101"><ele>205.6</ele><time>2026-04-06T12:44:54.979Z</time></trkpt><trkpt lat="45.91039050603721" lon="8.618733403393588"><ele>205.0</ele><time>2026-04-06T12:44:56.979Z</time></trkpt><trkpt lat="45.91032515790318" lon="8.618844806209198"><ele>205.0</ele><time>2026-04-06T12:44:58.979Z</time></trkpt><trkpt lat="45.91025841337751" lon="8.61896497886292"><ele>205.0</ele><time>2026-04-06T12:45:00.979Z</time></trkpt><trkpt lat="45.91019527669366" lon="8.61907885745324"><ele>205.0</ele><time>2026-04-06T12:45:02.979Z</time></trkpt><trkpt lat="45.91013168781455" lon="8.61916559352783"><ele>205.0</ele><time>2026-04-06T12:45:04.979Z</time></trkpt><trkpt lat="45.910072317314516" lon="8.619246265035796"><ele>205.0</ele><time>2026-04-06T12:45:06.979Z</time></trkpt><trkpt lat="45.91000487492012" lon="8.61931347777602"><ele>203.4</ele><time>2026-04-06T12:45:08.979Z</time></trkpt><trkpt lat="45.90993875950101" lon="8.619337613308842"><ele>201.8</ele><time>2026-04-06T12:45:10.979Z</time></trkpt><trkpt lat="45.90985389942669" lon="8.619371035716437"><ele>200.2</ele><time>2026-04-06T12:45:12.979Z</time></trkpt><trkpt lat="45.90974377414715" lon="8.619375856985002"><ele>198.6</ele><time>2026-04-06T12:45:14.979Z</time></trkpt><trkpt lat="45.90963670813867" lon="8.6194460630672"><ele>197.0</ele><time>2026-04-06T12:45:16.979Z</time></trkpt><trkpt lat="45.90951536310925" lon="8.619406222366383"><ele>197.0</ele><time>2026-04-06T12:45:18.979Z</time></trkpt><trkpt lat="45.909407808324914" lon="8.619304264420014"><ele>197.0</ele><time>2026-04-06T12:45:20.979Z</time></trkpt><trkpt lat="45.909324780926255" lon="8.619268682930663"><ele>197.0</ele><time>2026-04-06T12:45:22.979Z</time></trkpt><trkpt lat="45.909262939452965" lon="8.619228342689086"><ele>197.0</ele><time>2026-04-06T12:45:24.979Z</time></trkpt><trkpt lat="45.90917096325034" lon="8.619173094691899"><ele>197.0</ele><time>2026-04-06T12:45:27.979Z</time></trkpt><trkpt lat="45.9091101687581" lon="8.619133800256284"><ele>197.16666666666669</ele><time>2026-04-06T12:45:29.979Z</time></trkpt><trkpt lat="45.90904746087771" lon="8.619092765153894"><ele>197.33333333333334</ele><time>2026-04-06T12:45:32.979Z</time></trkpt><trkpt lat="45.90898148492305" lon="8.619029514085012"><ele>197.5</ele><time>2026-04-06T12:45:35.978Z</time></trkpt><trkpt lat="45.90892126105091" lon="8.618969658179928"><ele>197.66666666666669</ele><time>2026-04-06T12:45:38.978Z</time></trkpt><trkpt lat="45.90887177531223" lon="8.618913083836034"><ele>197.83333333333334</ele><time>2026-04-06T12:45:40.978Z</time></trkpt><trkpt lat="45.908812502837925" lon="8.618812468466034"><ele>198.0</ele><time>2026-04-06T12:45:42.978Z</time></trkpt><trkpt lat="45.90875826606887" lon="8.618677576316509"><ele>197.60000000000002</ele><time>2026-04-06T12:45:44.978Z</time></trkpt><trkpt lat="45.908744220636585" lon="8.61852018723931"><ele>197.20000000000002</ele><time>2026-04-06T12:45:46.978Z</time></trkpt><trkpt lat="45.90873940719279" lon="8.618353917311518"><ele>196.8</ele><time>2026-04-06T12:45:48.978Z</time></trkpt><trkpt lat="45.90871794196495" lon="8.618197114663513"><ele>196.4</ele><time>2026-04-06T12:45:50.978Z</time></trkpt><trkpt lat="45.908670236548595" lon="8.618055630514217"><ele>196.0</ele><time>2026-04-06T12:45:52.978Z</time></trkpt><trkpt lat="45.90861253568091" lon="8.618010291589624"><ele>196.0</ele><time>2026-04-06T12:45:53.978Z</time></trkpt><trkpt lat="45.90851805451159" lon="8.61795093206686"><ele>196.0</ele><time>2026-04-06T12:45:55.978Z</time></trkpt><trkpt lat="45.90842831814561" lon="8.617862915800858"><ele>196.0</ele><time>2026-04-06T12:45:57.978Z</time></trkpt><trkpt lat="45.908329605810536" lon="8.61776987413457"><ele>196.0</ele><time>2026-04-06T12:45:59.978Z</time></trkpt><trkpt lat="45.908262132128804" lon="8.617749357115933"><ele>196.0</ele><time>2026-04-06T12:46:00.978Z</time></trkpt><trkpt lat="45.90819262089308" lon="8.617770578107807"><ele>196.33333333333331</ele><time>2026-04-06T12:46:01.978Z</time></trkpt><trkpt lat="45.908136988911444" lon="8.617829880737869"><ele>196.66666666666666</ele><time>2026-04-06T12:46:02.978Z</time></trkpt><trkpt lat="45.90807930732593" lon="8.617961531841738"><ele>197.0</ele><time>2026-04-06T12:46:04.978Z</time></trkpt><trkpt lat="45.908056755852655" lon="8.618096327848278"><ele>197.33333333333331</ele><time>2026-04-06T12:46:06.978Z</time></trkpt><trkpt lat="45.9080144249986" lon="8.618197348208021"><ele>197.66666666666666</ele><time>2026-04-06T12:46:08.978Z</time></trkpt><trkpt lat="45.90797601536572" lon="8.618289560781683"><ele>198.0</ele><time>2026-04-06T12:46:10.978Z</time></trkpt><trkpt lat="45.907934617002695" lon="8.618375601538572"><ele>198.0</ele><time>2026-04-06T12:46:12.978Z</time></trkpt><trkpt lat="45.907888475766356" lon="8.61848856302064"><ele>198.0</ele><time>2026-04-06T12:46:14.978Z</time></trkpt><trkpt lat="45.90782692808765" lon="8.61855670089323"><ele>198.0</ele><time>2026-04-06T12:46:16.979Z</time></trkpt><trkpt lat="45.907785565141545" lon="8.618653659815914"><ele>198.0</ele><time>2026-04-06T12:46:19.979Z</time></trkpt><trkpt lat="45.907769968256055" lon="8.61874254069693"><ele>198.0</ele><time>2026-04-06T12:46:21.979Z</time></trkpt><trkpt lat="45.90771809841535" lon="8.618865892897029"><ele>198.0</ele><time>2026-04-06T12:46:23.979Z</time></trkpt><trkpt lat="45.907668472561774" lon="8.618931370040919"><ele>198.0</ele><time>2026-04-06T12:46:24.979Z</time></trkpt><trkpt lat="45.9076283394496" lon="8.61902610842523"><ele>198.0</ele><time>2026-04-06T12:46:25.979Z</time></trkpt><trkpt lat="45.90758672650232" lon="8.619124340184849"><ele>198.0</ele><time>2026-04-06T12:46:26.979Z</time></trkpt><trkpt lat="45.907561782508445" lon="8.619228937184864"><ele>198.0</ele><time>2026-04-06T12:46:27.979Z</time></trkpt><trkpt lat="45.907507268795314" lon="8.619311974355012"><ele>198.0</ele><time>2026-04-06T12:46:28.979Z</time></trkpt><trkpt lat="45.907464648300646" lon="8.619412669146353"><ele>198.0</ele><time>2026-04-06T12:46:29.979Z</time></trkpt><trkpt lat="45.90742456084045" lon="8.619527483490526"><ele>197.8</ele><time>2026-04-06T12:46:30.979Z</time></trkpt><trkpt lat="45.907377464178616" lon="8.619644019539104"><ele>197.60000000000002</ele><time>2026-04-06T12:46:31.979Z</time></trkpt><trkpt lat="45.90733463440378" lon="8.619763267838781"><ele>197.39999999999998</ele><time>2026-04-06T12:46:32.979Z</time></trkpt><trkpt lat="45.907282923938745" lon="8.619882112906948"><ele>197.2</ele><time>2026-04-06T12:46:33.979Z</time></trkpt><trkpt lat="45.90725534211231" lon="8.620001238684017"><ele>197.0</ele><time>2026-04-06T12:46:34.979Z</time></trkpt><trkpt lat="45.90723001700136" lon="8.620111237734802"><ele>197.00000000000003</ele><time>2026-04-06T12:46:35.979Z</time></trkpt><trkpt lat="45.90720469757818" lon="8.62021747974544"><ele>197.0</ele><time>2026-04-06T12:46:36.979Z</time></trkpt><trkpt lat="45.90717873973079" lon="8.620320113398378"><ele>197.0</ele><time>2026-04-06T12:46:37.979Z</time></trkpt><trkpt lat="45.907153144765175" lon="8.620415633117167"><ele>197.0</ele><time>2026-04-06T12:46:38.979Z</time></trkpt><trkpt lat="45.90712787653249" lon="8.620506875575327"><ele>197.00000000000003</ele><time>2026-04-06T12:46:39.979Z</time></trkpt><trkpt lat="45.90710133100643" lon="8.620590452149665"><ele>197.0</ele><time>2026-04-06T12:46:40.979Z</time></trkpt><trkpt lat="45.90704662861544" lon="8.620738226538547"><ele>197.6</ele><time>2026-04-06T12:46:42.979Z</time></trkpt><trkpt lat="45.907011281015244" lon="8.620888694247583"><ele>198.2</ele><time>2026-04-06T12:46:44.979Z</time></trkpt><trkpt lat="45.90699835207004" lon="8.62105610764648"><ele>198.8</ele><time>2026-04-06T12:46:46.979Z</time></trkpt><trkpt lat="45.906991063669835" lon="8.621154788879936"><ele>199.4</ele><time>2026-04-06T12:46:47.979Z</time></trkpt><trkpt lat="45.90697443741082" lon="8.621250084317952"><ele>200.0</ele><time>2026-04-06T12:46:48.979Z</time></trkpt><trkpt lat="45.90694233292444" lon="8.621386637093385"><ele>200.33333333333334</ele><time>2026-04-06T12:46:50.979Z</time></trkpt><trkpt lat="45.90689263280271" lon="8.621493573947335"><ele>200.66666666666669</ele><time>2026-04-06T12:46:52.979Z</time></trkpt><trkpt lat="45.90686200358256" lon="8.62160141762894"><ele>201.0</ele><time>2026-04-06T12:46:54.979Z</time></trkpt><trkpt lat="45.906823600453" lon="8.621735319162987"><ele>201.33333333333331</ele><time>2026-04-06T12:46:56.979Z</time></trkpt><trkpt lat="45.90679437631333" lon="8.621818332693937"><ele>201.66666666666666</ele><time>2026-04-06T12:46:57.979Z</time></trkpt><trkpt lat="45.90676727011768" lon="8.621913676104224"><ele>202.0</ele><time>2026-04-06T12:46:58.979Z</time></trkpt><trkpt lat="45.90673680718606" lon="8.622020026485332"><ele>201.99999999999997</ele><time>2026-04-06T12:46:59.979Z</time></trkpt><trkpt lat="45.90669905338182" lon="8.622121307744937"><ele>202.0</ele><time>2026-04-06T12:47:00.979Z</time></trkpt><trkpt lat="45.90666296083647" lon="8.622209885618908"><ele>202.0</ele><time>2026-04-06T12:47:01.978Z</time></trkpt><trkpt lat="45.90660405121665" lon="8.622354251272144"><ele>202.0</ele><time>2026-04-06T12:47:03.978Z</time></trkpt><trkpt lat="45.906556612486824" lon="8.622465417530115"><ele>201.99999999999997</ele><time>2026-04-06T12:47:05.978Z</time></trkpt><trkpt lat="45.9064788431941" lon="8.622485294788673"><ele>202.0</ele><time>2026-04-06T12:47:07.978Z</time></trkpt><trkpt lat="45.90642045937516" lon="8.622439536993394"><ele>201.99999999999997</ele><time>2026-04-06T12:47:08.978Z</time></trkpt><trkpt lat="45.90635999361361" lon="8.622377873117019"><ele>202.0</ele><time>2026-04-06T12:47:09.978Z</time></trkpt><trkpt lat="45.90629469100069" lon="8.62234921618942"><ele>202.0</ele><time>2026-04-06T12:47:10.978Z</time></trkpt><trkpt lat="45.906231733359384" lon="8.622306757400747"><ele>202.0</ele><time>2026-04-06T12:47:11.978Z</time></trkpt><trkpt lat="45.90616599857018" lon="8.622259969655673"><ele>201.99999999999997</ele><time>2026-04-06T12:47:12.978Z</time></trkpt><trkpt lat="45.90609120902914" lon="8.622201094646341"><ele>202.0</ele><time>2026-04-06T12:47:13.978Z</time></trkpt><trkpt lat="45.90602527777552" lon="8.622119269050366"><ele>201.99999999999997</ele><time>2026-04-06T12:47:14.978Z</time></trkpt><trkpt lat="45.90594703211977" lon="8.622054556092849"><ele>202.0</ele><time>2026-04-06T12:47:15.978Z</time></trkpt><trkpt lat="45.905871496346215" lon="8.621996723415625"><ele>202.0</ele><time>2026-04-06T12:47:16.978Z</time></trkpt><trkpt lat="45.905805382537956" lon="8.621948855004081"><ele>202.0</ele><time>2026-04-06T12:47:17.978Z</time></trkpt><trkpt lat="45.9057133973678" lon="8.621899846500082"><ele>201.99999999999997</ele><time>2026-04-06T12:47:19.978Z</time></trkpt><trkpt lat="45.90564888105687" lon="8.62183522971843"><ele>202.0</ele><time>2026-04-06T12:47:21.978Z</time></trkpt><trkpt lat="45.905621481753194" lon="8.621714057746342"><ele>202.16666666666666</ele><time>2026-04-06T12:47:23.978Z</time></trkpt><trkpt lat="45.90564313990358" lon="8.62162775296581"><ele>202.33333333333331</ele><time>2026-04-06T12:47:24.978Z</time></trkpt><trkpt lat="45.905658595337016" lon="8.621512292661977"><ele>202.5</ele><time>2026-04-06T12:47:25.978Z</time></trkpt><trkpt lat="45.905696613509086" lon="8.621395938274578"><ele>202.66666666666669</ele><time>2026-04-06T12:47:26.978Z</time></trkpt><trkpt lat="45.905732951139356" lon="8.621284727120683"><ele>202.83333333333334</ele><time>2026-04-06T12:47:27.978Z</time></trkpt><trkpt lat="45.90578662856283" lon="8.621167785573208"><ele>203.0</ele><time>2026-04-06T12:47:28.978Z</time></trkpt><trkpt lat="45.90581728824347" lon="8.621021764788294"><ele>202.2</ele><time>2026-04-06T12:47:29.978Z</time></trkpt><trkpt lat="45.90585613634633" lon="8.620887436962843"><ele>201.4</ele><time>2026-04-06T12:47:30.978Z</time></trkpt><trkpt lat="45.905900313142865" lon="8.620760157124186"><ele>200.6</ele><time>2026-04-06T12:47:31.978Z</time></trkpt><trkpt lat="45.90594648784247" lon="8.620646334302483"><ele>199.79999999999998</ele><time>2026-04-06T12:47:32.978Z</time></trkpt><trkpt lat="45.90600116947672" lon="8.620551440068096"><ele>199.0</ele><time>2026-04-06T12:47:33.978Z</time></trkpt><trkpt lat="45.90606873508125" lon="8.620477439339183"><ele>198.99999999999997</ele><time>2026-04-06T12:47:34.978Z</time></trkpt><trkpt lat="45.90614644549034" lon="8.620425009875865"><ele>199.0</ele><time>2026-04-06T12:47:35.978Z</time></trkpt><trkpt lat="45.906231023013795" lon="8.620387543074651"><ele>199.0</ele><time>2026-04-06T12:47:36.978Z</time></trkpt><trkpt lat="45.906316918921235" lon="8.620370348870653"><ele>199.0</ele><time>2026-04-06T12:47:37.978Z</time></trkpt><trkpt lat="45.90639576073301" lon="8.620377957811828"><ele>198.99999999999997</ele><time>2026-04-06T12:47:38.978Z</time></trkpt><trkpt lat="45.90646023091616" lon="8.620394444247523"><ele>199.0</ele><time>2026-04-06T12:47:39.978Z</time></trkpt><trkpt lat="45.906578442092304" lon="8.620418874566043"><ele>198.99999999999997</ele><time>2026-04-06T12:47:41.978Z</time></trkpt><trkpt lat="45.906630356161735" lon="8.620505246990595"><ele>199.0</ele><time>2026-04-06T12:47:42.978Z</time></trkpt><trkpt lat="45.90669076323366" lon="8.620561260687147"><ele>199.0</ele><time>2026-04-06T12:47:43.978Z</time></trkpt><trkpt lat="45.90676226184409" lon="8.620617753171912"><ele>199.0</ele><time>2026-04-06T12:47:44.978Z</time></trkpt><trkpt lat="45.90683619132644" lon="8.620677449247983"><ele>198.99999999999997</ele><time>2026-04-06T12:47:45.978Z</time></trkpt><trkpt lat="45.90691213789591" lon="8.620738651996852"><ele>199.0</ele><time>2026-04-06T12:47:46.978Z</time></trkpt><trkpt lat="45.906988687491975" lon="8.620798916894872"><ele>199.16666666666666</ele><time>2026-04-06T12:47:47.978Z</time></trkpt><trkpt lat="45.90706325140791" lon="8.620866624623574"><ele>199.33333333333331</ele><time>2026-04-06T12:47:48.978Z</time></trkpt><trkpt lat="45.907141283587684" lon="8.620932789788032"><ele>199.5</ele><time>2026-04-06T12:47:49.977Z</time></trkpt><trkpt lat="45.9072191713921" lon="8.620999077901603"><ele>199.66666666666669</ele><time>2026-04-06T12:47:50.977Z</time></trkpt><trkpt lat="45.90729249522777" lon="8.621069930280566"><ele>199.83333333333334</ele><time>2026-04-06T12:47:51.977Z</time></trkpt><trkpt lat="45.90736686217037" lon="8.621130585138156"><ele>200.0</ele><time>2026-04-06T12:47:52.977Z</time></trkpt><trkpt lat="45.907430659609105" lon="8.6211804452815"><ele>200.2</ele><time>2026-04-06T12:47:53.977Z</time></trkpt><trkpt lat="45.90754777694101" lon="8.621191367329589"><ele>200.4</ele><time>2026-04-06T12:47:55.977Z</time></trkpt><trkpt lat="45.90764375459601" lon="8.62107841666326"><ele>200.60000000000002</ele><time>2026-04-06T12:47:57.977Z</time></trkpt><trkpt lat="45.907687968246584" lon="8.620979878240309"><ele>200.8</ele><time>2026-04-06T12:47:58.977Z</time></trkpt><trkpt lat="45.907744225227006" lon="8.620867295352005"><ele>201.0</ele><time>2026-04-06T12:47:59.977Z</time></trkpt><trkpt lat="45.90780372395848" lon="8.620741804677706"><ele>201.0</ele><time>2026-04-06T12:48:00.977Z</time></trkpt><trkpt lat="45.907865355297226" lon="8.62060985947458"><ele>201.0</ele><time>2026-04-06T12:48:01.977Z</time></trkpt><trkpt lat="45.9079251279606" lon="8.620476455150994"><ele>201.0</ele><time>2026-04-06T12:48:02.977Z</time></trkpt><trkpt lat="45.90798646191886" lon="8.620341420197645"><ele>201.0</ele><time>2026-04-06T12:48:03.977Z</time></trkpt><trkpt lat="45.908052569959246" lon="8.620201611094435"><ele>201.0</ele><time>2026-04-06T12:48:04.977Z</time></trkpt><trkpt lat="45.908117494594485" lon="8.620059715254914"><ele>201.0</ele><time>2026-04-06T12:48:05.977Z</time></trkpt><trkpt lat="45.90818395970131" lon="8.619922814521397"><ele>201.0</ele><time>2026-04-06T12:48:06.977Z</time></trkpt><trkpt lat="45.90824715863523" lon="8.619788542094435"><ele>201.0</ele><time>2026-04-06T12:48:07.977Z</time></trkpt><trkpt lat="45.90830710445522" lon="8.619659104167289"><ele>201.0</ele><time>2026-04-06T12:48:08.977Z</time></trkpt><trkpt lat="45.90836170175858" lon="8.619538704963668"><ele>201.0</ele><time>2026-04-06T12:48:09.977Z</time></trkpt><trkpt lat="45.908416020287284" lon="8.619426223611294"><ele>201.0</ele><time>2026-04-06T12:48:10.977Z</time></trkpt><trkpt lat="45.90846867281254" lon="8.619317432304543"><ele>201.0</ele><time>2026-04-06T12:48:11.977Z</time></trkpt><trkpt lat="45.908525183935" lon="8.619223644343396"><ele>201.0</ele><time>2026-04-06T12:48:12.977Z</time></trkpt><trkpt lat="45.908583752854305" lon="8.61914119882531"><ele>200.5</ele><time>2026-04-06T12:48:13.977Z</time></trkpt><trkpt lat="45.90864507311763" lon="8.619073988403613"><ele>200.0</ele><time>2026-04-06T12:48:14.977Z</time></trkpt><trkpt lat="45.9087027909977" lon="8.619012192228501"><ele>199.5</ele><time>2026-04-06T12:48:15.977Z</time></trkpt><trkpt lat="45.90875705461783" lon="8.618954636484464"><ele>199.0</ele><time>2026-04-06T12:48:16.977Z</time></trkpt><trkpt lat="45.9088185730829" lon="8.618824782617969"><ele>198.5</ele><time>2026-04-06T12:48:18.977Z</time></trkpt><trkpt lat="45.908781348949326" lon="8.618695180386654"><ele>198.0</ele><time>2026-04-06T12:48:20.977Z</time></trkpt><trkpt lat="45.90867794833269" lon="8.61874681627332"><ele>198.0</ele><time>2026-04-06T12:48:23.978Z</time></trkpt><trkpt lat="45.9086385181674" lon="8.618908858277406"><ele>198.0</ele><time>2026-04-06T12:48:25.979Z</time></trkpt><trkpt lat="45.90859106311139" lon="8.619023981366782"><ele>198.0</ele><time>2026-04-06T12:48:26.979Z</time></trkpt><trkpt lat="45.908537383925726" lon="8.619138070635083"><ele>198.0</ele><time>2026-04-06T12:48:27.978Z</time></trkpt><trkpt lat="45.9084859498514" lon="8.619256913480802"><ele>198.0</ele><time>2026-04-06T12:48:28.978Z</time></trkpt><trkpt lat="45.90844007967055" lon="8.619368404094477"><ele>198.5</ele><time>2026-04-06T12:48:29.978Z</time></trkpt><trkpt lat="45.908391531066115" lon="8.619470019754077"><ele>199.0</ele><time>2026-04-06T12:48:30.978Z</time></trkpt><trkpt lat="45.90834022551722" lon="8.619578818082365"><ele>199.5</ele><time>2026-04-06T12:48:31.979Z</time></trkpt><trkpt lat="45.90829638828535" lon="8.61968704833651"><ele>200.0</ele><time>2026-04-06T12:48:32.978Z</time></trkpt><trkpt lat="45.90825589177285" lon="8.619791705031671"><ele>200.5</ele><time>2026-04-06T12:48:33.978Z</time></trkpt><trkpt lat="45.90820997806187" lon="8.619890783987103"><ele>201.0</ele><time>2026-04-06T12:48:34.978Z</time></trkpt><trkpt lat="45.90817266694357" lon="8.619990108165707"><ele>201.0</ele><time>2026-04-06T12:48:35.978Z</time></trkpt><trkpt lat="45.90813481763259" lon="8.620086598800713"><ele>201.0</ele><time>2026-04-06T12:48:36.978Z</time></trkpt><trkpt lat="45.90809059585837" lon="8.62017814631579"><ele>201.0</ele><time>2026-04-06T12:48:37.978Z</time></trkpt><trkpt lat="45.90804422083527" lon="8.620269764173614"><ele>201.0</ele><time>2026-04-06T12:48:38.978Z</time></trkpt><trkpt lat="45.90800151204717" lon="8.620361594163167"><ele>201.0</ele><time>2026-04-06T12:48:39.978Z</time></trkpt><trkpt lat="45.90795940984161" lon="8.620453139046855"><ele>201.0</ele><time>2026-04-06T12:48:40.978Z</time></trkpt><trkpt lat="45.9079187135365" lon="8.620549037255728"><ele>201.0</ele><time>2026-04-06T12:48:41.978Z</time></trkpt><trkpt lat="45.907875775825026" lon="8.62064559813662"><ele>201.0</ele><time>2026-04-06T12:48:42.978Z</time></trkpt><trkpt lat="45.907829615524676" lon="8.620737588105708"><ele>201.0</ele><time>2026-04-06T12:48:43.978Z</time></trkpt><trkpt lat="45.90778377992724" lon="8.62082960634373"><ele>201.0</ele><time>2026-04-06T12:48:44.978Z</time></trkpt><trkpt lat="45.90774063681533" lon="8.62092031922947"><ele>201.0</ele><time>2026-04-06T12:48:45.978Z</time></trkpt><trkpt lat="45.90770008977414" lon="8.621005350119491"><ele>201.0</ele><time>2026-04-06T12:48:46.978Z</time></trkpt><trkpt lat="45.90763159322787" lon="8.62113872090473"><ele>200.8</ele><time>2026-04-06T12:48:48.978Z</time></trkpt><trkpt lat="45.907546174062745" lon="8.621195099787558"><ele>200.60000000000002</ele><time>2026-04-06T12:48:50.978Z</time></trkpt><trkpt lat="45.9074370945175" lon="8.621146544723702"><ele>200.4</ele><time>2026-04-06T12:48:52.978Z</time></trkpt><trkpt lat="45.907329362863926" lon="8.621053819583397"><ele>200.2</ele><time>2026-04-06T12:48:54.978Z</time></trkpt><trkpt lat="45.90726968114532" lon="8.620996346347567"><ele>200.0</ele><time>2026-04-06T12:48:55.978Z</time></trkpt><trkpt lat="45.907200060077116" lon="8.62094145518092"><ele>200.0</ele><time>2026-04-06T12:48:56.978Z</time></trkpt><trkpt lat="45.90712264627998" lon="8.62087791281328"><ele>200.0</ele><time>2026-04-06T12:48:57.978Z</time></trkpt><trkpt lat="45.90703922138977" lon="8.620805910656543"><ele>200.0</ele><time>2026-04-06T12:48:58.978Z</time></trkpt><trkpt lat="45.90695639389833" lon="8.620738869167678"><ele>200.0</ele><time>2026-04-06T12:48:59.978Z</time></trkpt><trkpt lat="45.90687453562949" lon="8.62067624556472"><ele>200.0</ele><time>2026-04-06T12:49:00.978Z</time></trkpt><trkpt lat="45.90680819465923" lon="8.620596862756175"><ele>199.8</ele><time>2026-04-06T12:49:01.978Z</time></trkpt><trkpt lat="45.90673445983861" lon="8.620537246043934"><ele>199.6</ele><time>2026-04-06T12:49:02.978Z</time></trkpt><trkpt lat="45.90665746752245" lon="8.620469730196188"><ele>199.39999999999998</ele><time>2026-04-06T12:49:03.978Z</time></trkpt><trkpt lat="45.90658298157872" lon="8.62039335384245"><ele>199.2</ele><time>2026-04-06T12:49:04.978Z</time></trkpt><trkpt lat="45.906516650965976" lon="8.620295068274492"><ele>199.0</ele><time>2026-04-06T12:49:05.978Z</time></trkpt><trkpt lat="45.906449803309286" lon="8.620189289561521"><ele>199.0</ele><time>2026-04-06T12:49:06.978Z</time></trkpt><trkpt lat="45.90638558218346" lon="8.620083459343036"><ele>199.0</ele><time>2026-04-06T12:49:07.978Z</time></trkpt><trkpt lat="45.90632187087094" lon="8.619984788732017"><ele>199.0</ele><time>2026-04-06T12:49:08.977Z</time></trkpt><trkpt lat="45.90625812128389" lon="8.619889349990048"><ele>199.0</ele><time>2026-04-06T12:49:09.977Z</time></trkpt><trkpt lat="45.90621382175188" lon="8.619768303735025"><ele>199.0</ele><time>2026-04-06T12:49:10.977Z</time></trkpt><trkpt lat="45.906147554937384" lon="8.619659309002055"><ele>199.0</ele><time>2026-04-06T12:49:11.977Z</time></trkpt><trkpt lat="45.906080790653185" lon="8.619540486680142"><ele>199.0</ele><time>2026-04-06T12:49:12.977Z</time></trkpt><trkpt lat="45.90602554107744" lon="8.619411697880935"><ele>199.0</ele><time>2026-04-06T12:49:13.977Z</time></trkpt><trkpt lat="45.90598123819685" lon="8.619290085164266"><ele>199.0</ele><time>2026-04-06T12:49:14.977Z</time></trkpt><trkpt lat="45.90595039705264" lon="8.619177268295026"><ele>199.0</ele><time>2026-04-06T12:49:15.977Z</time></trkpt><trkpt lat="45.90592066098846" lon="8.619072018476569"><ele>199.49999999999997</ele><time>2026-04-06T12:49:16.977Z</time></trkpt><trkpt lat="45.90590644550781" lon="8.618971474228523"><ele>200.0</ele><time>2026-04-06T12:49:17.977Z</time></trkpt><trkpt lat="45.90587160318386" lon="8.618872008596545"><ele>200.5</ele><time>2026-04-06T12:49:18.977Z</time></trkpt><trkpt lat="45.90587191299533" lon="8.618752409269753"><ele>201.0</ele><time>2026-04-06T12:49:19.977Z</time></trkpt><trkpt lat="45.905891189857975" lon="8.618627395308367"><ele>201.49999999999997</ele><time>2026-04-06T12:49:20.977Z</time></trkpt><trkpt lat="45.90589860411068" lon="8.618491400582887"><ele>202.0</ele><time>2026-04-06T12:49:21.977Z</time></trkpt><trkpt lat="45.90588304370878" lon="8.618349557224999"><ele>202.5</ele><time>2026-04-06T12:49:22.977Z</time></trkpt><trkpt lat="45.905947082651764" lon="8.618204326807557"><ele>203.0</ele><time>2026-04-06T12:49:23.977Z</time></trkpt><trkpt lat="45.90598505543302" lon="8.618062353305362"><ele>203.5</ele><time>2026-04-06T12:49:24.977Z</time></trkpt><trkpt lat="45.906026670463255" lon="8.617911378511463"><ele>204.0</ele><time>2026-04-06T12:49:25.977Z</time></trkpt><trkpt lat="45.906075836669565" lon="8.617741609822925"><ele>203.0</ele><time>2026-04-06T12:49:26.977Z</time></trkpt><trkpt lat="45.90613925870797" lon="8.617564315645879"><ele>202.0</ele><time>2026-04-06T12:49:27.977Z</time></trkpt><trkpt lat="45.906209372691144" lon="8.617387491824937"><ele>201.0</ele><time>2026-04-06T12:49:28.977Z</time></trkpt><trkpt lat="45.9062771835029" lon="8.617229849783843"><ele>200.0</ele><time>2026-04-06T12:49:29.977Z</time></trkpt><trkpt lat="45.906348164083" lon="8.617089106074584"><ele>200.75</ele><time>2026-04-06T12:49:30.977Z</time></trkpt><trkpt lat="45.90641107355825" lon="8.61694297255448"><ele>201.5</ele><time>2026-04-06T12:49:31.977Z</time></trkpt><trkpt lat="45.9064781064563" lon="8.61682178997821"><ele>202.25</ele><time>2026-04-06T12:49:32.977Z</time></trkpt><trkpt lat="45.906555364208906" lon="8.616707493921092"><ele>203.0</ele><time>2026-04-06T12:49:33.977Z</time></trkpt><trkpt lat="45.906644565257245" lon="8.616594970129697"><ele>201.5</ele><time>2026-04-06T12:49:34.977Z</time></trkpt><trkpt lat="45.90675233434894" lon="8.616487344172759"><ele>200.0</ele><time>2026-04-06T12:49:35.977Z</time></trkpt><trkpt lat="45.90685638743027" lon="8.616369397812417"><ele>198.5</ele><time>2026-04-06T12:49:36.977Z</time></trkpt><trkpt lat="45.90697092947737" lon="8.616256289895848"><ele>197.0</ele><time>2026-04-06T12:49:37.977Z</time></trkpt><trkpt lat="45.90706251465505" lon="8.616114166684536"><ele>196.66666666666669</ele><time>2026-04-06T12:49:38.977Z</time></trkpt><trkpt lat="45.907138789049405" lon="8.615937634224373"><ele>196.33333333333331</ele><time>2026-04-06T12:49:39.977Z</time></trkpt><trkpt lat="45.90720855932659" lon="8.61574546447737"><ele>196.0</ele><time>2026-04-06T12:49:40.977Z</time></trkpt><trkpt lat="45.90725413946519" lon="8.61553373403537"><ele>196.0</ele><time>2026-04-06T12:49:41.977Z</time></trkpt><trkpt lat="45.907298517732634" lon="8.615330709908632"><ele>196.0</ele><time>2026-04-06T12:49:42.977Z</time></trkpt><trkpt lat="45.90733472541792" lon="8.615137544333313"><ele>196.0</ele><time>2026-04-06T12:49:43.977Z</time></trkpt><trkpt lat="45.907354980223126" lon="8.614955253470555"><ele>196.0</ele><time>2026-04-06T12:49:44.977Z</time></trkpt><trkpt lat="45.90734938549015" lon="8.614787117441741"><ele>196.75</ele><time>2026-04-06T12:49:45.977Z</time></trkpt><trkpt lat="45.907311323542984" lon="8.614626218414978"><ele>197.5</ele><time>2026-04-06T12:49:46.977Z</time></trkpt><trkpt lat="45.9072462081844" lon="8.61447601877623"><ele>198.25</ele><time>2026-04-06T12:49:47.977Z</time></trkpt><trkpt lat="45.907160487150186" lon="8.61435236911977"><ele>199.0</ele><time>2026-04-06T12:49:48.977Z</time></trkpt><trkpt lat="45.90704487115332" lon="8.614246923732212"><ele>199.0</ele><time>2026-04-06T12:49:49.977Z</time></trkpt><trkpt lat="45.906929201233325" lon="8.614119257512758"><ele>199.0</ele><time>2026-04-06T12:49:50.977Z</time></trkpt><trkpt lat="45.9067971379784" lon="8.613995533161352"><ele>199.0</ele><time>2026-04-06T12:49:51.977Z</time></trkpt><trkpt lat="45.906694532248636" lon="8.613850955375353"><ele>199.0</ele><time>2026-04-06T12:49:52.977Z</time></trkpt><trkpt lat="45.90661364561173" lon="8.613689529550136"><ele>200.5</ele><time>2026-04-06T12:49:53.977Z</time></trkpt><trkpt lat="45.90655235925107" lon="8.613505964848144"><ele>202.0</ele><time>2026-04-06T12:49:54.977Z</time></trkpt><trkpt lat="45.90651256620287" lon="8.613295054914948"><ele>203.5</ele><time>2026-04-06T12:49:55.976Z</time></trkpt><trkpt lat="45.90647353961053" lon="8.613079468607161"><ele>205.0</ele><time>2026-04-06T12:49:56.976Z</time></trkpt><trkpt lat="45.906453009719904" lon="8.612854174345207"><ele>204.66666666666666</ele><time>2026-04-06T12:49:57.976Z</time></trkpt><trkpt lat="45.90645643123451" lon="8.612627561271777"><ele>204.33333333333331</ele><time>2026-04-06T12:49:58.976Z</time></trkpt><trkpt lat="45.906479671202355" lon="8.612389839579066"><ele>204.0</ele><time>2026-04-06T12:49:59.976Z</time></trkpt><trkpt lat="45.906502144161244" lon="8.612145270035686"><ele>206.66666666666669</ele><time>2026-04-06T12:50:00.976Z</time></trkpt><trkpt lat="45.906531062550556" lon="8.611900798860338"><ele>209.33333333333334</ele><time>2026-04-06T12:50:01.976Z</time></trkpt><trkpt lat="45.906546657891" lon="8.611645364178043"><ele>212.0</ele><time>2026-04-06T12:50:02.976Z</time></trkpt><trkpt lat="45.90655182959442" lon="8.611387363624441"><ele>213.66666666666669</ele><time>2026-04-06T12:50:03.976Z</time></trkpt><trkpt lat="45.90655083898571" lon="8.611135694064956"><ele>215.33333333333331</ele><time>2026-04-06T12:50:04.976Z</time></trkpt><trkpt lat="45.90654485617855" lon="8.610901286935043"><ele>217.0</ele><time>2026-04-06T12:50:05.976Z</time></trkpt><trkpt lat="45.90652817619348" lon="8.610685384731315"><ele>217.0</ele><time>2026-04-06T12:50:06.976Z</time></trkpt><trkpt lat="45.90650072099974" lon="8.610479826266136"><ele>217.0</ele><time>2026-04-06T12:50:07.976Z</time></trkpt><trkpt lat="45.90650197890274" lon="8.610279664602569"><ele>217.0</ele><time>2026-04-06T12:50:08.976Z</time></trkpt><trkpt lat="45.906512744042395" lon="8.610075850145634"><ele>217.0</ele><time>2026-04-06T12:50:09.976Z</time></trkpt><trkpt lat="45.90651305599908" lon="8.60986920750687"><ele>216.66666666666666</ele><time>2026-04-06T12:50:10.976Z</time></trkpt><trkpt lat="45.90649696643287" lon="8.609658429065677"><ele>216.33333333333331</ele><time>2026-04-06T12:50:11.976Z</time></trkpt><trkpt lat="45.90647162498063" lon="8.609424919362201"><ele>216.0</ele><time>2026-04-06T12:50:12.976Z</time></trkpt><trkpt lat="45.90643005579649" lon="8.609183245030215"><ele>214.0</ele><time>2026-04-06T12:50:13.976Z</time></trkpt><trkpt lat="45.90638245904342" lon="8.608921663629554"><ele>212.0</ele><time>2026-04-06T12:50:14.976Z</time></trkpt><trkpt lat="45.9063466671115" lon="8.608665066881372"><ele>210.0</ele><time>2026-04-06T12:50:15.976Z</time></trkpt><trkpt lat="45.90631734452603" lon="8.608410903147787"><ele>210.0</ele><time>2026-04-06T12:50:16.976Z</time></trkpt><trkpt lat="45.90631592429357" lon="8.608177561842032"><ele>210.0</ele><time>2026-04-06T12:50:17.976Z</time></trkpt><trkpt lat="45.90628539182209" lon="8.607962707839528"><ele>210.0</ele><time>2026-04-06T12:50:18.976Z</time></trkpt><trkpt lat="45.906271442254635" lon="8.607748273457263"><ele>211.25</ele><time>2026-04-06T12:50:19.976Z</time></trkpt><trkpt lat="45.906279643671084" lon="8.6075482439851"><ele>212.5</ele><time>2026-04-06T12:50:20.976Z</time></trkpt><trkpt lat="45.90629083791156" lon="8.607357988291952"><ele>213.75</ele><time>2026-04-06T12:50:21.976Z</time></trkpt><trkpt lat="45.9063269785555" lon="8.607177819317343"><ele>215.0</ele><time>2026-04-06T12:50:22.976Z</time></trkpt><trkpt lat="45.906384716117124" lon="8.606997060078426"><ele>215.75</ele><time>2026-04-06T12:50:23.976Z</time></trkpt><trkpt lat="45.906452402066215" lon="8.606814112443363"><ele>216.5</ele><time>2026-04-06T12:50:24.976Z</time></trkpt><trkpt lat="45.90651865060466" lon="8.60664197555379"><ele>217.25</ele><time>2026-04-06T12:50:25.976Z</time></trkpt><trkpt lat="45.90658245849288" lon="8.606470553435022"><ele>218.0</ele><time>2026-04-06T12:50:26.976Z</time></trkpt><trkpt lat="45.90662361646889" lon="8.606305045239944"><ele>219.0</ele><time>2026-04-06T12:50:27.976Z</time></trkpt><trkpt lat="45.90666381908148" lon="8.606138360513999"><ele>220.0</ele><time>2026-04-06T12:50:28.977Z</time></trkpt><trkpt lat="45.90669808973943" lon="8.605955195778101"><ele>221.0</ele><time>2026-04-06T12:50:29.977Z</time></trkpt><trkpt lat="45.906703343684015" lon="8.605765873959765"><ele>222.0</ele><time>2026-04-06T12:50:30.976Z</time></trkpt><trkpt lat="45.90668919680339" lon="8.605568978188037"><ele>222.0</ele><time>2026-04-06T12:50:31.977Z</time></trkpt><trkpt lat="45.90666227306709" lon="8.60538355802054"><ele>222.0</ele><time>2026-04-06T12:50:32.977Z</time></trkpt><trkpt lat="45.90663430968755" lon="8.605206937641922"><ele>222.0</ele><time>2026-04-06T12:50:33.977Z</time></trkpt><trkpt lat="45.90660564592866" lon="8.605025893027719"><ele>222.0</ele><time>2026-04-06T12:50:34.976Z</time></trkpt><trkpt lat="45.906578412344714" lon="8.60484959869614"><ele>220.25</ele><time>2026-04-06T12:50:35.976Z</time></trkpt><trkpt lat="45.90654951973404" lon="8.604661916034644"><ele>218.5</ele><time>2026-04-06T12:50:36.976Z</time></trkpt><trkpt lat="45.90651544764204" lon="8.60447047225315"><ele>216.75</ele><time>2026-04-06T12:50:37.976Z</time></trkpt><trkpt lat="45.90646513940282" lon="8.604280637769465"><ele>215.0</ele><time>2026-04-06T12:50:38.976Z</time></trkpt><trkpt lat="45.90639676227298" lon="8.604068529719033"><ele>214.33333333333334</ele><time>2026-04-06T12:50:39.977Z</time></trkpt><trkpt lat="45.90631352193136" lon="8.603863671656185"><ele>213.66666666666669</ele><time>2026-04-06T12:50:40.976Z</time></trkpt><trkpt lat="45.906218912202846" lon="8.603666653251114"><ele>213.0</ele><time>2026-04-06T12:50:41.976Z</time></trkpt><trkpt lat="45.906124558426775" lon="8.603499993293672"><ele>211.5</ele><time>2026-04-06T12:50:42.976Z</time></trkpt><trkpt lat="45.90604091619717" lon="8.603350108309376"><ele>210.0</ele><time>2026-04-06T12:50:43.976Z</time></trkpt><trkpt lat="45.90596420984846" lon="8.603196538794975"><ele>208.5</ele><time>2026-04-06T12:50:44.976Z</time></trkpt><trkpt lat="45.905891700253484" lon="8.603033333200969"><ele>207.0</ele><time>2026-04-06T12:50:45.976Z</time></trkpt><trkpt lat="45.90582643639375" lon="8.602860393017638"><ele>210.75</ele><time>2026-04-06T12:50:46.976Z</time></trkpt><trkpt lat="45.905767708324625" lon="8.602670344877072"><ele>214.5</ele><time>2026-04-06T12:50:47.976Z</time></trkpt><trkpt lat="45.90571849095893" lon="8.602465198031648"><ele>218.25</ele><time>2026-04-06T12:50:48.976Z</time></trkpt><trkpt lat="45.90568190016068" lon="8.602254109637432"><ele>222.0</ele><time>2026-04-06T12:50:49.976Z</time></trkpt><trkpt lat="45.90565312102635" lon="8.602038517387726"><ele>220.75</ele><time>2026-04-06T12:50:50.976Z</time></trkpt><trkpt lat="45.905616077120335" lon="8.601831088402887"><ele>219.5</ele><time>2026-04-06T12:50:51.976Z</time></trkpt><trkpt lat="45.90561924204653" lon="8.601626514237811"><ele>218.25</ele><time>2026-04-06T12:50:52.976Z</time></trkpt><trkpt lat="45.90561329206784" lon="8.60142947873545"><ele>217.0</ele><time>2026-04-06T12:50:53.976Z</time></trkpt><trkpt lat="45.905609623016716" lon="8.60123234205948"><ele>217.25</ele><time>2026-04-06T12:50:54.976Z</time></trkpt><trkpt lat="45.90560238692299" lon="8.601033033962617"><ele>217.5</ele><time>2026-04-06T12:50:55.976Z</time></trkpt><trkpt lat="45.90558613234146" lon="8.600837846279475"><ele>217.75</ele><time>2026-04-06T12:50:56.976Z</time></trkpt><trkpt lat="45.90554875066962" lon="8.600657529215471"><ele>218.0</ele><time>2026-04-06T12:50:57.976Z</time></trkpt><trkpt lat="45.9054994169634" lon="8.60049339221616"><ele>218.0</ele><time>2026-04-06T12:50:58.976Z</time></trkpt><trkpt lat="45.90544919707065" lon="8.60033810142563"><ele>218.0</ele><time>2026-04-06T12:50:59.976Z</time></trkpt><trkpt lat="45.905390957750555" lon="8.60018548984371"><ele>218.0</ele><time>2026-04-06T12:51:00.976Z</time></trkpt><trkpt lat="45.905309811531495" lon="8.600047885983079"><ele>218.0</ele><time>2026-04-06T12:51:01.976Z</time></trkpt><trkpt lat="45.90521055575485" lon="8.59991660163292"><ele>219.0</ele><time>2026-04-06T12:51:02.976Z</time></trkpt><trkpt lat="45.905103945517745" lon="8.599783202113716"><ele>220.0</ele><time>2026-04-06T12:51:03.976Z</time></trkpt><trkpt lat="45.90499100599135" lon="8.599650396524844"><ele>221.0</ele><time>2026-04-06T12:51:04.976Z</time></trkpt><trkpt lat="45.90488008612763" lon="8.599524443985658"><ele>222.0</ele><time>2026-04-06T12:51:05.976Z</time></trkpt><trkpt lat="45.904765784528216" lon="8.59940291936546"><ele>221.75</ele><time>2026-04-06T12:51:06.976Z</time></trkpt><trkpt lat="45.90464338098112" lon="8.599292519470904"><ele>221.5</ele><time>2026-04-06T12:51:07.976Z</time></trkpt><trkpt lat="45.90451093222765" lon="8.599194502046663"><ele>221.25</ele><time>2026-04-06T12:51:08.976Z</time></trkpt><trkpt lat="45.90437190780867" lon="8.599113750055482"><ele>221.0</ele><time>2026-04-06T12:51:09.976Z</time></trkpt><trkpt lat="45.90423549513448" lon="8.599037981704312"><ele>221.0</ele><time>2026-04-06T12:51:10.976Z</time></trkpt><trkpt lat="45.904104290158045" lon="8.598948945197808"><ele>221.0</ele><time>2026-04-06T12:51:11.976Z</time></trkpt><trkpt lat="45.90397515158239" lon="8.598902680293444"><ele>221.0</ele><time>2026-04-06T12:51:12.976Z</time></trkpt><trkpt lat="45.90386851660081" lon="8.598820249819056"><ele>221.0</ele><time>2026-04-06T12:51:13.976Z</time></trkpt><trkpt lat="45.90375505536857" lon="8.598773130523895"><ele>221.0</ele><time>2026-04-06T12:51:14.976Z</time></trkpt><trkpt lat="45.90362709002948" lon="8.598756021444439"><ele>221.0</ele><time>2026-04-06T12:51:15.976Z</time></trkpt><trkpt lat="45.903486515897555" lon="8.598769867526565"><ele>221.0</ele><time>2026-04-06T12:51:16.976Z</time></trkpt><trkpt lat="45.903336520227086" lon="8.59877790832792"><ele>221.0</ele><time>2026-04-06T12:51:17.976Z</time></trkpt><trkpt lat="45.903190708984" lon="8.59878994915456"><ele>222.0</ele><time>2026-04-06T12:51:18.976Z</time></trkpt><trkpt lat="45.90305856646789" lon="8.598814587118467"><ele>223.0</ele><time>2026-04-06T12:51:19.976Z</time></trkpt><trkpt lat="45.902927719451824" lon="8.598831857523002"><ele>224.0</ele><time>2026-04-06T12:51:20.976Z</time></trkpt><trkpt lat="45.90281291541912" lon="8.598857662534863"><ele>225.0</ele><time>2026-04-06T12:51:21.975Z</time></trkpt><trkpt lat="45.90268663274569" lon="8.598853227999484"><ele>227.5</ele><time>2026-04-06T12:51:22.975Z</time></trkpt><trkpt lat="45.90255403939604" lon="8.598801462959143"><ele>230.0</ele><time>2026-04-06T12:51:23.975Z</time></trkpt><trkpt lat="45.90241718766486" lon="8.598728071028614"><ele>232.5</ele><time>2026-04-06T12:51:24.975Z</time></trkpt><trkpt lat="45.902283768256105" lon="8.59862408575305"><ele>235.0</ele><time>2026-04-06T12:51:25.975Z</time></trkpt><trkpt lat="45.90213687028212" lon="8.598514127964728"><ele>232.0</ele><time>2026-04-06T12:51:26.975Z</time></trkpt><trkpt lat="45.90197941573039" lon="8.598399344205081"><ele>229.0</ele><time>2026-04-06T12:51:27.975Z</time></trkpt><trkpt lat="45.90181623210527" lon="8.598292356917076"><ele>226.0</ele><time>2026-04-06T12:51:28.975Z</time></trkpt><trkpt lat="45.90165353795859" lon="8.598188258057004"><ele>226.0</ele><time>2026-04-06T12:51:29.975Z</time></trkpt><trkpt lat="45.90148526498249" lon="8.598078042602378"><ele>226.0</ele><time>2026-04-06T12:51:30.975Z</time></trkpt><trkpt lat="45.901309987329434" lon="8.59798219434862"><ele>226.0</ele><time>2026-04-06T12:51:31.975Z</time></trkpt><trkpt lat="45.90112761856835" lon="8.597885498590287"><ele>221.66666666666666</ele><time>2026-04-06T12:51:32.975Z</time></trkpt><trkpt lat="45.900930273194525" lon="8.597799132051575"><ele>217.33333333333331</ele><time>2026-04-06T12:51:33.975Z</time></trkpt><trkpt lat="45.90070781433881" lon="8.597722508016211"><ele>213.0</ele><time>2026-04-06T12:51:34.975Z</time></trkpt><trkpt lat="45.90044702421368" lon="8.597635077547693"><ele>213.0</ele><time>2026-04-06T12:51:35.975Z</time></trkpt><trkpt lat="45.900190741089304" lon="8.597549466074547"><ele>213.0</ele><time>2026-04-06T12:51:36.975Z</time></trkpt><trkpt lat="45.8999644750888" lon="8.597460276733244"><ele>214.66666666666669</ele><time>2026-04-06T12:51:37.975Z</time></trkpt><trkpt lat="45.89974759510363" lon="8.597374447901364"><ele>216.33333333333334</ele><time>2026-04-06T12:51:38.975Z</time></trkpt><trkpt lat="45.899551908660996" lon="8.59731910802859"><ele>218.0</ele><time>2026-04-06T12:51:39.975Z</time></trkpt><trkpt lat="45.89937444506592" lon="8.597270372208303"><ele>218.66666666666669</ele><time>2026-04-06T12:51:40.975Z</time></trkpt><trkpt lat="45.8992128791152" lon="8.597229785090045"><ele>219.33333333333331</ele><time>2026-04-06T12:51:41.975Z</time></trkpt><trkpt lat="45.89905836760114" lon="8.597172008106563"><ele>220.0</ele><time>2026-04-06T12:51:42.975Z</time></trkpt><trkpt lat="45.89891462360469" lon="8.59718655931676"><ele>220.0</ele><time>2026-04-06T12:51:43.975Z</time></trkpt><trkpt lat="45.898751080134886" lon="8.597261846680059"><ele>220.0</ele><time>2026-04-06T12:51:44.975Z</time></trkpt><trkpt lat="45.89857643647177" lon="8.597360952874984"><ele>220.0</ele><time>2026-04-06T12:51:45.975Z</time></trkpt><trkpt lat="45.89841271711027" lon="8.59745379979878"><ele>217.0</ele><time>2026-04-06T12:51:46.975Z</time></trkpt><trkpt lat="45.898260499028744" lon="8.597536278256342"><ele>214.0</ele><time>2026-04-06T12:51:47.975Z</time></trkpt><trkpt lat="45.898125064074705" lon="8.597659486090357"><ele>211.0</ele><time>2026-04-06T12:51:48.975Z</time></trkpt><trkpt lat="45.89797328627656" lon="8.597753903381445"><ele>211.0</ele><time>2026-04-06T12:51:49.975Z</time></trkpt><trkpt lat="45.89781042559722" lon="8.59782653943259"><ele>211.0</ele><time>2026-04-06T12:51:50.975Z</time></trkpt><trkpt lat="45.89764030589524" lon="8.597884377378909"><ele>211.0</ele><time>2026-04-06T12:51:51.975Z</time></trkpt><trkpt lat="45.89747499113493" lon="8.597912833202145"><ele>212.0</ele><time>2026-04-06T12:51:52.975Z</time></trkpt><trkpt lat="45.897313376388034" lon="8.597982590015564"><ele>213.0</ele><time>2026-04-06T12:51:53.975Z</time></trkpt><trkpt lat="45.89715536893404" lon="8.598052309041377"><ele>214.0</ele><time>2026-04-06T12:51:54.975Z</time></trkpt><trkpt lat="45.896995671014146" lon="8.598122437330384"><ele>214.0</ele><time>2026-04-06T12:51:55.975Z</time></trkpt><trkpt lat="45.89683134181253" lon="8.598196935308179"><ele>214.0</ele><time>2026-04-06T12:51:56.975Z</time></trkpt><trkpt lat="45.89667123602115" lon="8.59826882113084"><ele>214.0</ele><time>2026-04-06T12:51:57.975Z</time></trkpt><trkpt lat="45.89651535009136" lon="8.598338812207896"><ele>213.0</ele><time>2026-04-06T12:51:58.975Z</time></trkpt><trkpt lat="45.89636148579362" lon="8.598406269291235"><ele>212.0</ele><time>2026-04-06T12:51:59.975Z</time></trkpt><trkpt lat="45.896208103703884" lon="8.59848982404467"><ele>211.0</ele><time>2026-04-06T12:52:00.975Z</time></trkpt><trkpt lat="45.89605232365387" lon="8.598514325606018"><ele>211.0</ele><time>2026-04-06T12:52:01.975Z</time></trkpt><trkpt lat="45.895897357670954" lon="8.598518952268432"><ele>211.0</ele><time>2026-04-06T12:52:02.975Z</time></trkpt><trkpt lat="45.895736049816826" lon="8.59849171540886"><ele>211.0</ele><time>2026-04-06T12:52:03.975Z</time></trkpt><trkpt lat="45.89557552609732" lon="8.59844411752554"><ele>211.0</ele><time>2026-04-06T12:52:04.975Z</time></trkpt><trkpt lat="45.89541272908791" lon="8.598391774710166"><ele>211.0</ele><time>2026-04-06T12:52:05.975Z</time></trkpt><trkpt lat="45.89525219755296" lon="8.598325311869834"><ele>211.0</ele><time>2026-04-06T12:52:06.975Z</time></trkpt><trkpt lat="45.89508398363072" lon="8.598270124619463"><ele>214.33333333333331</ele><time>2026-04-06T12:52:07.975Z</time></trkpt><trkpt lat="45.89491468723415" lon="8.598225170075487"><ele>217.66666666666669</ele><time>2026-04-06T12:52:08.974Z</time></trkpt><trkpt lat="45.894756201739085" lon="8.598149885152502"><ele>221.0</ele><time>2026-04-06T12:52:09.974Z</time></trkpt><trkpt lat="45.894594044177104" lon="8.598100101087992"><ele>221.0</ele><time>2026-04-06T12:52:10.974Z</time></trkpt><trkpt lat="45.89442821035258" lon="8.598079790410898"><ele>221.0</ele><time>2026-04-06T12:52:11.974Z</time></trkpt><trkpt lat="45.89426582283164" lon="8.598060017121933"><ele>221.0</ele><time>2026-04-06T12:52:12.974Z</time></trkpt><trkpt lat="45.8940942321063" lon="8.598048028943404"><ele>221.33333333333334</ele><time>2026-04-06T12:52:13.974Z</time></trkpt><trkpt lat="45.89392300998058" lon="8.598050619388962"><ele>221.66666666666669</ele><time>2026-04-06T12:52:14.974Z</time></trkpt><trkpt lat="45.89374734206168" lon="8.59806987937185"><ele>222.0</ele><time>2026-04-06T12:52:15.974Z</time></trkpt><trkpt lat="45.893570200817166" lon="8.598087577967904"><ele>222.0</ele><time>2026-04-06T12:52:16.974Z</time></trkpt><trkpt lat="45.89338502292347" lon="8.598096309713076"><ele>222.0</ele><time>2026-04-06T12:52:17.974Z</time></trkpt><trkpt lat="45.893201479861574" lon="8.598079159227758"><ele>222.0</ele><time>2026-04-06T12:52:18.974Z</time></trkpt><trkpt lat="45.893019379769775" lon="8.598077250234267"><ele>222.0</ele><time>2026-04-06T12:52:19.974Z</time></trkpt><trkpt lat="45.892842086323824" lon="8.598075612795796"><ele>222.0</ele><time>2026-04-06T12:52:20.974Z</time></trkpt><trkpt lat="45.892669808315084" lon="8.598072816820546"><ele>222.0</ele><time>2026-04-06T12:52:21.974Z</time></trkpt><trkpt lat="45.89249674596368" lon="8.598081706295776"><ele>220.33333333333331</ele><time>2026-04-06T12:52:22.974Z</time></trkpt><trkpt lat="45.89231409583101" lon="8.598085001942112"><ele>218.66666666666666</ele><time>2026-04-06T12:52:23.974Z</time></trkpt><trkpt lat="45.89213005102823" lon="8.598076070575486"><ele>217.0</ele><time>2026-04-06T12:52:24.974Z</time></trkpt><trkpt lat="45.89194878872964" lon="8.598069948953741"><ele>217.0</ele><time>2026-04-06T12:52:25.974Z</time></trkpt><trkpt lat="45.891760537288974" lon="8.59806810115346"><ele>217.0</ele><time>2026-04-06T12:52:26.974Z</time></trkpt><trkpt lat="45.89157647422564" lon="8.598068742955569"><ele>217.0</ele><time>2026-04-06T12:52:27.974Z</time></trkpt><trkpt lat="45.89140202981276" lon="8.598078247581931"><ele>215.66666666666666</ele><time>2026-04-06T12:52:28.974Z</time></trkpt><trkpt lat="45.89123318941985" lon="8.598105352950498"><ele>214.33333333333331</ele><time>2026-04-06T12:52:29.974Z</time></trkpt><trkpt lat="45.891060904618215" lon="8.598126886501658"><ele>213.0</ele><time>2026-04-06T12:52:30.974Z</time></trkpt><trkpt lat="45.89088106197173" lon="8.598184972285896"><ele>212.66666666666669</ele><time>2026-04-06T12:52:31.974Z</time></trkpt><trkpt lat="45.890702475601785" lon="8.598247366158073"><ele>212.33333333333334</ele><time>2026-04-06T12:52:32.974Z</time></trkpt><trkpt lat="45.89052328370943" lon="8.598312760408385"><ele>212.0</ele><time>2026-04-06T12:52:33.975Z</time></trkpt><trkpt lat="45.89033850131654" lon="8.598380194392643"><ele>212.0</ele><time>2026-04-06T12:52:34.976Z</time></trkpt><trkpt lat="45.89015947882095" lon="8.598470011231093"><ele>212.0</ele><time>2026-04-06T12:52:35.976Z</time></trkpt><trkpt lat="45.88997177300502" lon="8.598535073589165"><ele>212.0</ele><time>2026-04-06T12:52:36.975Z</time></trkpt><trkpt lat="45.889785860577" lon="8.598600726228398"><ele>212.66666666666669</ele><time>2026-04-06T12:52:37.976Z</time></trkpt><trkpt lat="45.8895979007528" lon="8.598660209166825"><ele>213.33333333333331</ele><time>2026-04-06T12:52:38.976Z</time></trkpt><trkpt lat="45.88941031504582" lon="8.598722951163396"><ele>214.0</ele><time>2026-04-06T12:52:39.975Z</time></trkpt><trkpt lat="45.889221554921235" lon="8.598793568246489"><ele>216.66666666666666</ele><time>2026-04-06T12:52:40.976Z</time></trkpt><trkpt lat="45.88903280411749" lon="8.598854135210466"><ele>219.33333333333331</ele><time>2026-04-06T12:52:41.976Z</time></trkpt><trkpt lat="45.88883989894467" lon="8.598919279497979"><ele>222.0</ele><time>2026-04-06T12:52:42.975Z</time></trkpt><trkpt lat="45.88865111116192" lon="8.599009148094828"><ele>222.0</ele><time>2026-04-06T12:52:43.975Z</time></trkpt><trkpt lat="45.88846288733025" lon="8.599064814458341"><ele>222.0</ele><time>2026-04-06T12:52:44.975Z</time></trkpt><trkpt lat="45.888281049631665" lon="8.5991306494628"><ele>222.0</ele><time>2026-04-06T12:52:45.975Z</time></trkpt><trkpt lat="45.888102615292226" lon="8.599195387051576"><ele>219.0</ele><time>2026-04-06T12:52:46.975Z</time></trkpt><trkpt lat="45.887929664054646" lon="8.599280748767947"><ele>216.0</ele><time>2026-04-06T12:52:47.975Z</time></trkpt><trkpt lat="45.88775068758213" lon="8.599365059044164"><ele>213.0</ele><time>2026-04-06T12:52:48.975Z</time></trkpt><trkpt lat="45.88754864567401" lon="8.599453970687849"><ele>216.0</ele><time>2026-04-06T12:52:49.975Z</time></trkpt><trkpt lat="45.88734309591932" lon="8.599563891630888"><ele>219.0</ele><time>2026-04-06T12:52:50.975Z</time></trkpt><trkpt lat="45.8871255125702" lon="8.599681658272246"><ele>219.0</ele><time>2026-04-06T12:52:51.975Z</time></trkpt><trkpt lat="45.886914384531224" lon="8.599816696011468"><ele>219.0</ele><time>2026-04-06T12:52:52.975Z</time></trkpt><trkpt lat="45.88670231081358" lon="8.599896821432628"><ele>217.66666666666669</ele><time>2026-04-06T12:52:53.975Z</time></trkpt><trkpt lat="45.88649787613733" lon="8.59999089774121"><ele>216.33333333333334</ele><time>2026-04-06T12:52:54.975Z</time></trkpt><trkpt lat="45.88630368677661" lon="8.60009614336899"><ele>215.0</ele><time>2026-04-06T12:52:55.975Z</time></trkpt><trkpt lat="45.88611512570608" lon="8.600206306302063"><ele>215.0</ele><time>2026-04-06T12:52:56.975Z</time></trkpt><trkpt lat="45.88593614717324" lon="8.600311006389783"><ele>215.0</ele><time>2026-04-06T12:52:57.975Z</time></trkpt><trkpt lat="45.88576797031206" lon="8.60040384403493"><ele>215.0</ele><time>2026-04-06T12:52:58.975Z</time></trkpt><trkpt lat="45.8856127836292" lon="8.600487640771751"><ele>217.66666666666669</ele><time>2026-04-06T12:52:59.975Z</time></trkpt><trkpt lat="45.88545450085107" lon="8.60057304180359"><ele>220.33333333333331</ele><time>2026-04-06T12:53:00.975Z</time></trkpt><trkpt lat="45.88530509529983" lon="8.600656192327133"><ele>223.0</ele><time>2026-04-06T12:53:01.975Z</time></trkpt><trkpt lat="45.885154965020554" lon="8.600733831873068"><ele>222.0</ele><time>2026-04-06T12:53:02.975Z</time></trkpt><trkpt lat="45.88499979729881" lon="8.600792383682903"><ele>221.0</ele><time>2026-04-06T12:53:03.975Z</time></trkpt><trkpt lat="45.88484252940561" lon="8.60083053396521"><ele>220.0</ele><time>2026-04-06T12:53:04.975Z</time></trkpt><trkpt lat="45.88468076654369" lon="8.600835466007895"><ele>220.0</ele><time>2026-04-06T12:53:05.975Z</time></trkpt><trkpt lat="45.88451917652109" lon="8.600819029909006"><ele>220.0</ele><time>2026-04-06T12:53:06.975Z</time></trkpt><trkpt lat="45.88436046482716" lon="8.60080497733005"><ele>220.0</ele><time>2026-04-06T12:53:07.975Z</time></trkpt><trkpt lat="45.88419731999963" lon="8.600799096840483"><ele>220.66666666666666</ele><time>2026-04-06T12:53:08.975Z</time></trkpt><trkpt lat="45.88404151261667" lon="8.600804472479094"><ele>221.33333333333331</ele><time>2026-04-06T12:53:09.974Z</time></trkpt><trkpt lat="45.883889102897726" lon="8.60080253340309"><ele>222.0</ele><time>2026-04-06T12:53:10.974Z</time></trkpt><trkpt lat="45.88374192996506" lon="8.600834135848752"><ele>222.0</ele><time>2026-04-06T12:53:11.974Z</time></trkpt><trkpt lat="45.88360492882868" lon="8.600873263551362"><ele>222.0</ele><time>2026-04-06T12:53:12.974Z</time></trkpt><trkpt lat="45.88347333661051" lon="8.600913599189367"><ele>222.0</ele><time>2026-04-06T12:53:13.974Z</time></trkpt><trkpt lat="45.88334429436289" lon="8.600954397992998"><ele>222.0</ele><time>2026-04-06T12:53:14.974Z</time></trkpt><trkpt lat="45.88322289302265" lon="8.600993336228614"><ele>219.25</ele><time>2026-04-06T12:53:15.974Z</time></trkpt><trkpt lat="45.88310389647129" lon="8.601031503147865"><ele>216.5</ele><time>2026-04-06T12:53:16.974Z</time></trkpt><trkpt lat="45.882989067768555" lon="8.601068333266241"><ele>213.75</ele><time>2026-04-06T12:53:17.974Z</time></trkpt><trkpt lat="45.882873265890076" lon="8.601105750232849"><ele>211.0</ele><time>2026-04-06T12:53:18.974Z</time></trkpt><trkpt lat="45.88275665090845" lon="8.601141243088483"><ele>209.75</ele><time>2026-04-06T12:53:19.974Z</time></trkpt><trkpt lat="45.88262954161699" lon="8.601168139213359"><ele>208.5</ele><time>2026-04-06T12:53:20.974Z</time></trkpt><trkpt lat="45.8825005442928" lon="8.60117526741825"><ele>207.25</ele><time>2026-04-06T12:53:21.974Z</time></trkpt><trkpt lat="45.88236997633556" lon="8.601166582139706"><ele>206.0</ele><time>2026-04-06T12:53:22.974Z</time></trkpt><trkpt lat="45.882242238289976" lon="8.60115173395846"><ele>206.0</ele><time>2026-04-06T12:53:23.974Z</time></trkpt><trkpt lat="45.88212113311069" lon="8.601137368607434"><ele>206.0</ele><time>2026-04-06T12:53:24.974Z</time></trkpt><trkpt lat="45.88200494101686" lon="8.60112443358408"><ele>206.0</ele><time>2026-04-06T12:53:25.974Z</time></trkpt><trkpt lat="45.88189373681511" lon="8.60111902814032"><ele>206.0</ele><time>2026-04-06T12:53:26.974Z</time></trkpt><trkpt lat="45.88178806101327" lon="8.601126086226763"><ele>207.20000000000002</ele><time>2026-04-06T12:53:27.974Z</time></trkpt><trkpt lat="45.8816849397077" lon="8.601156465569284"><ele>208.4</ele><time>2026-04-06T12:53:28.974Z</time></trkpt><trkpt lat="45.881597791496255" lon="8.601198262949438"><ele>209.6</ele><time>2026-04-06T12:53:29.974Z</time></trkpt><trkpt lat="45.88151654318407" lon="8.601282611838183"><ele>210.8</ele><time>2026-04-06T12:53:30.974Z</time></trkpt><trkpt lat="45.88144801585997" lon="8.60135726055932"><ele>212.0</ele><time>2026-04-06T12:53:31.974Z</time></trkpt><trkpt lat="45.881378800191975" lon="8.601444429192073"><ele>214.39999999999998</ele><time>2026-04-06T12:53:32.974Z</time></trkpt><trkpt lat="45.88130514052593" lon="8.60153656671672"><ele>216.79999999999998</ele><time>2026-04-06T12:53:33.974Z</time></trkpt><trkpt lat="45.88122693832256" lon="8.601633645421112"><ele>219.2</ele><time>2026-04-06T12:53:34.974Z</time></trkpt><trkpt lat="45.881149321162766" lon="8.601744353703795"><ele>221.6</ele><time>2026-04-06T12:53:35.974Z</time></trkpt><trkpt lat="45.88106640991568" lon="8.601853776531243"><ele>224.0</ele><time>2026-04-06T12:53:36.974Z</time></trkpt><trkpt lat="45.880981553299414" lon="8.6019687989047"><ele>223.5</ele><time>2026-04-06T12:53:37.974Z</time></trkpt><trkpt lat="45.88089435642312" lon="8.602078674163979"><ele>223.0</ele><time>2026-04-06T12:53:38.974Z</time></trkpt><trkpt lat="45.88080199238077" lon="8.60217943780147"><ele>222.5</ele><time>2026-04-06T12:53:39.974Z</time></trkpt><trkpt lat="45.880715448949694" lon="8.602286014812199"><ele>222.0</ele><time>2026-04-06T12:53:40.974Z</time></trkpt><trkpt lat="45.88061148171886" lon="8.602345352077831"><ele>222.0</ele><time>2026-04-06T12:53:41.974Z</time></trkpt><trkpt lat="45.88052774146788" lon="8.60243034738438"><ele>222.0</ele><time>2026-04-06T12:53:42.974Z</time></trkpt><trkpt lat="45.8804506800384" lon="8.602532174443564"><ele>222.0</ele><time>2026-04-06T12:53:43.974Z</time></trkpt><trkpt lat="45.88037366330546" lon="8.602655110320326"><ele>222.0</ele><time>2026-04-06T12:53:44.974Z</time></trkpt><trkpt lat="45.88030458239061" lon="8.602797615663077"><ele>222.0</ele><time>2026-04-06T12:53:45.974Z</time></trkpt><trkpt lat="45.88025459008861" lon="8.602968256154487"><ele>223.25</ele><time>2026-04-06T12:53:46.974Z</time></trkpt><trkpt lat="45.880212668493016" lon="8.603139474907017"><ele>224.5</ele><time>2026-04-06T12:53:47.974Z</time></trkpt><trkpt lat="45.88017232633244" lon="8.603306450315424"><ele>225.75</ele><time>2026-04-06T12:53:48.974Z</time></trkpt><trkpt lat="45.88013351010443" lon="8.603467109848303"><ele>227.0</ele><time>2026-04-06T12:53:49.974Z</time></trkpt><trkpt lat="45.88008967861054" lon="8.6036485273417"><ele>229.25</ele><time>2026-04-06T12:53:50.974Z</time></trkpt><trkpt lat="45.88004807085188" lon="8.603820741086754"><ele>231.5</ele><time>2026-04-06T12:53:51.974Z</time></trkpt><trkpt lat="45.88002146187783" lon="8.60400239805047"><ele>233.75</ele><time>2026-04-06T12:53:52.974Z</time></trkpt><trkpt lat="45.879964851378006" lon="8.604165184385705"><ele>236.0</ele><time>2026-04-06T12:53:53.974Z</time></trkpt><trkpt lat="45.879924901759594" lon="8.604330533513053"><ele>236.0</ele><time>2026-04-06T12:53:54.974Z</time></trkpt><trkpt lat="45.87988715322156" lon="8.604487244796154"><ele>236.00000000000003</ele><time>2026-04-06T12:53:55.974Z</time></trkpt><trkpt lat="45.879850431112416" lon="8.604626732219488"><ele>236.00000000000003</ele><time>2026-04-06T12:53:56.973Z</time></trkpt><trkpt lat="45.87981180165602" lon="8.604761563574115"><ele>236.0</ele><time>2026-04-06T12:53:57.973Z</time></trkpt><trkpt lat="45.879764199176854" lon="8.604896771456572"><ele>236.0</ele><time>2026-04-06T12:53:58.973Z</time></trkpt><trkpt lat="45.879699043327555" lon="8.605026847144355"><ele>236.5</ele><time>2026-04-06T12:53:59.973Z</time></trkpt><trkpt lat="45.879615040629965" lon="8.605148958472762"><ele>237.0</ele><time>2026-04-06T12:54:00.973Z</time></trkpt><trkpt lat="45.87951549219979" lon="8.605263235318525"><ele>237.5</ele><time>2026-04-06T12:54:01.973Z</time></trkpt><trkpt lat="45.87939072555542" lon="8.605371758095634"><ele>238.0</ele><time>2026-04-06T12:54:02.973Z</time></trkpt><trkpt lat="45.87924466591224" lon="8.60550068571485"><ele>236.33333333333331</ele><time>2026-04-06T12:54:03.973Z</time></trkpt><trkpt lat="45.879088719007946" lon="8.60564150185498"><ele>234.66666666666669</ele><time>2026-04-06T12:54:04.973Z</time></trkpt><trkpt lat="45.87892568227006" lon="8.605807608808222"><ele>233.0</ele><time>2026-04-06T12:54:05.973Z</time></trkpt><trkpt lat="45.878755253143716" lon="8.605924859484965"><ele>233.0</ele><time>2026-04-06T12:54:06.973Z</time></trkpt><trkpt lat="45.87860142243341" lon="8.606057792751736"><ele>233.0</ele><time>2026-04-06T12:54:07.973Z</time></trkpt><trkpt lat="45.878443956818614" lon="8.60620191288533"><ele>233.0</ele><time>2026-04-06T12:54:08.973Z</time></trkpt><trkpt lat="45.87828548121191" lon="8.606355551381418"><ele>232.66666666666669</ele><time>2026-04-06T12:54:09.973Z</time></trkpt><trkpt lat="45.87812088660362" lon="8.606506294413313"><ele>232.33333333333331</ele><time>2026-04-06T12:54:10.973Z</time></trkpt><trkpt lat="45.877960772972585" lon="8.60664645376838"><ele>232.0</ele><time>2026-04-06T12:54:11.973Z</time></trkpt><trkpt lat="45.877806722823706" lon="8.606781280576405"><ele>232.0</ele><time>2026-04-06T12:54:12.973Z</time></trkpt><trkpt lat="45.877652753232" lon="8.606912810907037"><ele>232.0</ele><time>2026-04-06T12:54:13.973Z</time></trkpt><trkpt lat="45.87750027506172" lon="8.607042014280845"><ele>232.0</ele><time>2026-04-06T12:54:14.973Z</time></trkpt><trkpt lat="45.87734919067329" lon="8.607166978674103"><ele>232.0</ele><time>2026-04-06T12:54:15.973Z</time></trkpt><trkpt lat="45.87719750814319" lon="8.607286049650547"><ele>232.0</ele><time>2026-04-06T12:54:16.973Z</time></trkpt><trkpt lat="45.87703961609264" lon="8.60740191486943"><ele>232.0</ele><time>2026-04-06T12:54:17.973Z</time></trkpt><trkpt lat="45.87688126468664" lon="8.60751005911789"><ele>233.33333333333331</ele><time>2026-04-06T12:54:18.973Z</time></trkpt><trkpt lat="45.87671917090119" lon="8.607608039889081"><ele>234.66666666666669</ele><time>2026-04-06T12:54:19.973Z</time></trkpt><trkpt lat="45.87655705792579" lon="8.607698659941747"><ele>236.0</ele><time>2026-04-06T12:54:20.973Z</time></trkpt><trkpt lat="45.8763970693024" lon="8.607777129216165"><ele>236.66666666666669</ele><time>2026-04-06T12:54:21.973Z</time></trkpt><trkpt lat="45.87623741165619" lon="8.607851764105224"><ele>237.33333333333331</ele><time>2026-04-06T12:54:22.973Z</time></trkpt><trkpt lat="45.87607618343162" lon="8.607927553496516"><ele>238.0</ele><time>2026-04-06T12:54:23.973Z</time></trkpt><trkpt lat="45.87591247770607" lon="8.60800632205532"><ele>238.33333333333331</ele><time>2026-04-06T12:54:24.973Z</time></trkpt><trkpt lat="45.875746660610034" lon="8.608082242897645"><ele>238.66666666666669</ele><time>2026-04-06T12:54:25.973Z</time></trkpt><trkpt lat="45.87558094658934" lon="8.608156528266788"><ele>239.0</ele><time>2026-04-06T12:54:26.973Z</time></trkpt><trkpt lat="45.875408079773955" lon="8.608233267278463"><ele>239.0</ele><time>2026-04-06T12:54:27.973Z</time></trkpt><trkpt lat="45.875234367534986" lon="8.608307530101605"><ele>239.0</ele><time>2026-04-06T12:54:28.973Z</time></trkpt><trkpt lat="45.875069652556554" lon="8.608379653033344"><ele>239.0</ele><time>2026-04-06T12:54:29.973Z</time></trkpt><trkpt lat="45.874914231927676" lon="8.608449377337589"><ele>239.0</ele><time>2026-04-06T12:54:30.973Z</time></trkpt><trkpt lat="45.87476340121798" lon="8.608517056895625"><ele>239.0</ele><time>2026-04-06T12:54:31.973Z</time></trkpt><trkpt lat="45.874616405139456" lon="8.608560341109786"><ele>239.0</ele><time>2026-04-06T12:54:32.973Z</time></trkpt><trkpt lat="45.87445927649042" lon="8.608627156313638"><ele>239.33333333333334</ele><time>2026-04-06T12:54:33.973Z</time></trkpt><trkpt lat="45.87429349087965" lon="8.60870252321078"><ele>239.66666666666669</ele><time>2026-04-06T12:54:34.973Z</time></trkpt><trkpt lat="45.874122270672615" lon="8.608780688020351"><ele>240.0</ele><time>2026-04-06T12:54:35.973Z</time></trkpt><trkpt lat="45.87394544645784" lon="8.608864443366496"><ele>240.0</ele><time>2026-04-06T12:54:36.973Z</time></trkpt><trkpt lat="45.87376189282396" lon="8.608953207851693"><ele>240.0</ele><time>2026-04-06T12:54:37.973Z</time></trkpt><trkpt lat="45.873573997540824" lon="8.609042604846763"><ele>240.0</ele><time>2026-04-06T12:54:38.973Z</time></trkpt><trkpt lat="45.87338487998703" lon="8.60913844216844"><ele>242.0</ele><time>2026-04-06T12:54:39.975Z</time></trkpt><trkpt lat="45.87319360796377" lon="8.609207796505855"><ele>244.0</ele><time>2026-04-06T12:54:40.974Z</time></trkpt><trkpt lat="45.873008179743366" lon="8.60929253151191"><ele>246.0</ele><time>2026-04-06T12:54:41.974Z</time></trkpt><trkpt lat="45.87282482703256" lon="8.609376106794686"><ele>246.0</ele><time>2026-04-06T12:54:42.974Z</time></trkpt><trkpt lat="45.87264125259725" lon="8.609459087034498"><ele>246.0</ele><time>2026-04-06T12:54:43.974Z</time></trkpt><trkpt lat="45.87246231732383" lon="8.609539970338286"><ele>246.0</ele><time>2026-04-06T12:54:44.974Z</time></trkpt><trkpt lat="45.87228464800342" lon="8.609620281316522"><ele>245.66666666666669</ele><time>2026-04-06T12:54:45.974Z</time></trkpt><trkpt lat="45.872108551882405" lon="8.609693342369386"><ele>245.33333333333334</ele><time>2026-04-06T12:54:46.975Z</time></trkpt><trkpt lat="45.87194378011306" lon="8.609769590858944"><ele>245.0</ele><time>2026-04-06T12:54:47.974Z</time></trkpt><trkpt lat="45.87177292291192" lon="8.609821541135181"><ele>245.0</ele><time>2026-04-06T12:54:48.974Z</time></trkpt><trkpt lat="45.87160385865919" lon="8.609884568413017"><ele>245.0</ele><time>2026-04-06T12:54:49.974Z</time></trkpt><trkpt lat="45.87143549315604" lon="8.609951723368562"><ele>245.0</ele><time>2026-04-06T12:54:50.974Z</time></trkpt><trkpt lat="45.87127429063019" lon="8.610005599757486"><ele>245.0</ele><time>2026-04-06T12:54:51.974Z</time></trkpt><trkpt lat="45.871110977667726" lon="8.610039217902978"><ele>245.0</ele><time>2026-04-06T12:54:52.974Z</time></trkpt><trkpt lat="45.870949382975404" lon="8.610054242607903"><ele>245.0</ele><time>2026-04-06T12:54:53.974Z</time></trkpt><trkpt lat="45.870789883057576" lon="8.610045905040907"><ele>245.33333333333334</ele><time>2026-04-06T12:54:54.974Z</time></trkpt><trkpt lat="45.8706437953955" lon="8.609963802239585"><ele>245.66666666666669</ele><time>2026-04-06T12:54:55.974Z</time></trkpt><trkpt lat="45.87048263387294" lon="8.609906632025533"><ele>246.0</ele><time>2026-04-06T12:54:56.974Z</time></trkpt><trkpt lat="45.87032591139763" lon="8.609827692909388"><ele>246.0</ele><time>2026-04-06T12:54:57.974Z</time></trkpt><trkpt lat="45.870169169089266" lon="8.609754392972956"><ele>246.0</ele><time>2026-04-06T12:54:58.974Z</time></trkpt><trkpt lat="45.87002148768965" lon="8.609680069605123"><ele>246.0</ele><time>2026-04-06T12:54:59.974Z</time></trkpt><trkpt lat="45.869877347055834" lon="8.60961144872925"><ele>245.5</ele><time>2026-04-06T12:55:00.974Z</time></trkpt><trkpt lat="45.86973713299513" lon="8.609543657820833"><ele>245.0</ele><time>2026-04-06T12:55:01.974Z</time></trkpt><trkpt lat="45.869598924260835" lon="8.609469161125395"><ele>244.5</ele><time>2026-04-06T12:55:02.974Z</time></trkpt><trkpt lat="45.86946181500756" lon="8.609398416610171"><ele>244.0</ele><time>2026-04-06T12:55:03.974Z</time></trkpt><trkpt lat="45.86932866223912" lon="8.609330016945039"><ele>244.75</ele><time>2026-04-06T12:55:04.974Z</time></trkpt><trkpt lat="45.869194987731206" lon="8.609273359992779"><ele>245.5</ele><time>2026-04-06T12:55:05.973Z</time></trkpt><trkpt lat="45.86905722154802" lon="8.609235311700063"><ele>246.25</ele><time>2026-04-06T12:55:06.973Z</time></trkpt><trkpt lat="45.868913248397945" lon="8.609206303562367"><ele>247.0</ele><time>2026-04-06T12:55:07.973Z</time></trkpt><trkpt lat="45.86877054394787" lon="8.609189249637751"><ele>247.0</ele><time>2026-04-06T12:55:08.973Z</time></trkpt><trkpt lat="45.868628617785774" lon="8.609185051029312"><ele>247.0</ele><time>2026-04-06T12:55:09.973Z</time></trkpt><trkpt lat="45.86848100300846" lon="8.609169369513515"><ele>247.0</ele><time>2026-04-06T12:55:10.973Z</time></trkpt><trkpt lat="45.868323370394876" lon="8.609181140362884"><ele>247.0</ele><time>2026-04-06T12:55:11.973Z</time></trkpt><trkpt lat="45.8681605797904" lon="8.609200675999787"><ele>247.66666666666666</ele><time>2026-04-06T12:55:12.973Z</time></trkpt><trkpt lat="45.867997613208814" lon="8.609245488431355"><ele>248.33333333333331</ele><time>2026-04-06T12:55:13.973Z</time></trkpt><trkpt lat="45.86782973965855" lon="8.609266429771393"><ele>249.0</ele><time>2026-04-06T12:55:14.973Z</time></trkpt><trkpt lat="45.867654602337026" lon="8.609301795128706"><ele>245.66666666666669</ele><time>2026-04-06T12:55:15.973Z</time></trkpt><trkpt lat="45.867463471052005" lon="8.60931454896486"><ele>242.33333333333334</ele><time>2026-04-06T12:55:16.973Z</time></trkpt><trkpt lat="45.86726310648349" lon="8.609344133153332"><ele>239.0</ele><time>2026-04-06T12:55:17.973Z</time></trkpt><trkpt lat="45.86706813258773" lon="8.609372173408238"><ele>239.0</ele><time>2026-04-06T12:55:18.973Z</time></trkpt><trkpt lat="45.866893347716406" lon="8.609390768698907"><ele>239.0</ele><time>2026-04-06T12:55:19.973Z</time></trkpt><trkpt lat="45.866728113093046" lon="8.60941235153442"><ele>239.0</ele><time>2026-04-06T12:55:20.973Z</time></trkpt><trkpt lat="45.866576457293604" lon="8.609441390193842"><ele>238.75</ele><time>2026-04-06T12:55:21.973Z</time></trkpt><trkpt lat="45.86643699179553" lon="8.60947085970026"><ele>238.5</ele><time>2026-04-06T12:55:22.973Z</time></trkpt><trkpt lat="45.866299746012025" lon="8.609494385662858"><ele>238.25</ele><time>2026-04-06T12:55:23.973Z</time></trkpt><trkpt lat="45.8661666593875" lon="8.609519542596344"><ele>238.0</ele><time>2026-04-06T12:55:24.973Z</time></trkpt><trkpt lat="45.86603146323636" lon="8.60954749802651"><ele>236.75</ele><time>2026-04-06T12:55:25.973Z</time></trkpt><trkpt lat="45.865886228137455" lon="8.609578195797061"><ele>235.5</ele><time>2026-04-06T12:55:26.973Z</time></trkpt><trkpt lat="45.86574842102213" lon="8.609614115806314"><ele>234.25</ele><time>2026-04-06T12:55:27.973Z</time></trkpt><trkpt lat="45.86560806592998" lon="8.60965678556807"><ele>233.0</ele><time>2026-04-06T12:55:28.973Z</time></trkpt><trkpt lat="45.86546179260609" lon="8.609704106233508"><ele>233.0</ele><time>2026-04-06T12:55:29.973Z</time></trkpt><trkpt lat="45.865306260668646" lon="8.60978066513244"><ele>233.0</ele><time>2026-04-06T12:55:30.973Z</time></trkpt><trkpt lat="45.865146790183175" lon="8.609920954161334"><ele>233.0</ele><time>2026-04-06T12:55:31.973Z</time></trkpt><trkpt lat="45.86497661201989" lon="8.610034406847507"><ele>232.0</ele><time>2026-04-06T12:55:32.973Z</time></trkpt><trkpt lat="45.86480555916754" lon="8.610138378917716"><ele>231.0</ele><time>2026-04-06T12:55:33.973Z</time></trkpt><trkpt lat="45.86464427352865" lon="8.610244033079239"><ele>230.0</ele><time>2026-04-06T12:55:34.973Z</time></trkpt><trkpt lat="45.86448829512974" lon="8.610346981572558"><ele>230.0</ele><time>2026-04-06T12:55:35.973Z</time></trkpt><trkpt lat="45.864350052312815" lon="8.61044278944967"><ele>230.0</ele><time>2026-04-06T12:55:36.973Z</time></trkpt><trkpt lat="45.864220077325726" lon="8.610548631933257"><ele>230.0</ele><time>2026-04-06T12:55:37.973Z</time></trkpt><trkpt lat="45.864099670383354" lon="8.610636098153952"><ele>230.0</ele><time>2026-04-06T12:55:38.973Z</time></trkpt><trkpt lat="45.86399092183494" lon="8.610676030967632"><ele>230.00000000000003</ele><time>2026-04-06T12:55:39.973Z</time></trkpt><trkpt lat="45.86391248485606" lon="8.610731351659192"><ele>230.0</ele><time>2026-04-06T12:55:40.973Z</time></trkpt><trkpt lat="45.863845915313156" lon="8.610774914655742"><ele>230.0</ele><time>2026-04-06T12:55:41.973Z</time></trkpt><trkpt lat="45.863781480692666" lon="8.610820281006278"><ele>230.0</ele><time>2026-04-06T12:55:43.973Z</time></trkpt><trkpt lat="45.86369778969889" lon="8.610876329516024"><ele>230.00000000000003</ele><time>2026-04-06T12:56:18.972Z</time></trkpt><trkpt lat="45.86360336563972" lon="8.610940506135233"><ele>230.0</ele><time>2026-04-06T12:56:20.972Z</time></trkpt><trkpt lat="45.86351609143315" lon="8.610976126945333"><ele>229.25</ele><time>2026-04-06T12:56:21.972Z</time></trkpt><trkpt lat="45.86340970742999" lon="8.61101855473841"><ele>228.5</ele><time>2026-04-06T12:56:22.972Z</time></trkpt><trkpt lat="45.86330051946062" lon="8.611066173107698"><ele>227.75</ele><time>2026-04-06T12:56:23.972Z</time></trkpt><trkpt lat="45.863163551617106" lon="8.611101269133707"><ele>227.0</ele><time>2026-04-06T12:56:24.972Z</time></trkpt><trkpt lat="45.86302115510285" lon="8.611159201976198"><ele>227.0</ele><time>2026-04-06T12:56:25.972Z</time></trkpt><trkpt lat="45.86287755611558" lon="8.611217624003178"><ele>227.0</ele><time>2026-04-06T12:56:26.972Z</time></trkpt><trkpt lat="45.86274367479624" lon="8.611272092460215"><ele>227.0</ele><time>2026-04-06T12:56:27.972Z</time></trkpt><trkpt lat="45.86261235809106" lon="8.611334363676036"><ele>227.0</ele><time>2026-04-06T12:56:28.972Z</time></trkpt><trkpt lat="45.86247966566436" lon="8.611419188315045"><ele>227.25</ele><time>2026-04-06T12:56:29.972Z</time></trkpt><trkpt lat="45.862359003280325" lon="8.611529636241963"><ele>227.5</ele><time>2026-04-06T12:56:30.972Z</time></trkpt><trkpt lat="45.8622452136749" lon="8.611670130147528"><ele>227.75</ele><time>2026-04-06T12:56:31.972Z</time></trkpt><trkpt lat="45.862137126854265" lon="8.61181709598892"><ele>228.0</ele><time>2026-04-06T12:56:32.972Z</time></trkpt><trkpt lat="45.86203129011675" lon="8.611967497264327"><ele>227.75</ele><time>2026-04-06T12:56:33.972Z</time></trkpt><trkpt lat="45.86192682637707" lon="8.612105317299843"><ele>227.5</ele><time>2026-04-06T12:56:34.972Z</time></trkpt><trkpt lat="45.86182127564055" lon="8.612236247763317"><ele>227.25</ele><time>2026-04-06T12:56:35.972Z</time></trkpt><trkpt lat="45.86171526418416" lon="8.612337935347954"><ele>227.0</ele><time>2026-04-06T12:56:36.972Z</time></trkpt><trkpt lat="45.86159855978652" lon="8.612392118484685"><ele>225.75</ele><time>2026-04-06T12:56:37.972Z</time></trkpt><trkpt lat="45.8614694625907" lon="8.612397800168754"><ele>224.5</ele><time>2026-04-06T12:56:38.972Z</time></trkpt><trkpt lat="45.86132369945566" lon="8.612364620081092"><ele>223.25</ele><time>2026-04-06T12:56:39.971Z</time></trkpt><trkpt lat="45.86116367620108" lon="8.612299222376771"><ele>222.0</ele><time>2026-04-06T12:56:40.971Z</time></trkpt><trkpt lat="45.86101553047597" lon="8.61221436205559"><ele>221.66666666666669</ele><time>2026-04-06T12:56:41.971Z</time></trkpt><trkpt lat="45.86088113702099" lon="8.6120957226865"><ele>221.33333333333334</ele><time>2026-04-06T12:56:42.971Z</time></trkpt><trkpt lat="45.86076575028305" lon="8.611940808924416"><ele>221.0</ele><time>2026-04-06T12:56:43.971Z</time></trkpt><trkpt lat="45.86064669556083" lon="8.61179593272335"><ele>221.0</ele><time>2026-04-06T12:56:44.971Z</time></trkpt><trkpt lat="45.86052376626618" lon="8.611682679722302"><ele>221.0</ele><time>2026-04-06T12:56:45.974Z</time></trkpt><trkpt lat="45.860377803636275" lon="8.611626256715295"><ele>221.0</ele><time>2026-04-06T12:56:46.973Z</time></trkpt><trkpt lat="45.86023703998314" lon="8.611594923160625"><ele>221.0</ele><time>2026-04-06T12:56:47.973Z</time></trkpt><trkpt lat="45.860104953609046" lon="8.611648094149192"><ele>219.33333333333334</ele><time>2026-04-06T12:56:48.974Z</time></trkpt><trkpt lat="45.85999589306206" lon="8.611774259020779"><ele>217.66666666666669</ele><time>2026-04-06T12:56:49.973Z</time></trkpt><trkpt lat="45.85988526032953" lon="8.611936456457496"><ele>216.0</ele><time>2026-04-06T12:56:50.973Z</time></trkpt><trkpt lat="45.85977936983386" lon="8.612132502426704"><ele>212.66666666666669</ele><time>2026-04-06T12:56:51.974Z</time></trkpt><trkpt lat="45.85965542433612" lon="8.612334511278034"><ele>209.33333333333334</ele><time>2026-04-06T12:56:52.973Z</time></trkpt><trkpt lat="45.859532659534445" lon="8.612567567669371"><ele>206.0</ele><time>2026-04-06T12:56:53.973Z</time></trkpt><trkpt lat="45.85941984677804" lon="8.612789684818788"><ele>206.0</ele><time>2026-04-06T12:56:54.973Z</time></trkpt><trkpt lat="45.85931568521969" lon="8.612995152982558"><ele>206.0</ele><time>2026-04-06T12:56:55.973Z</time></trkpt><trkpt lat="45.85921954591542" lon="8.613184673032096"><ele>206.0</ele><time>2026-04-06T12:56:56.973Z</time></trkpt><trkpt lat="45.85913096270075" lon="8.613352416541844"><ele>206.25</ele><time>2026-04-06T12:56:57.974Z</time></trkpt><trkpt lat="45.859045588998754" lon="8.613481070717821"><ele>206.5</ele><time>2026-04-06T12:56:58.973Z</time></trkpt><trkpt lat="45.85895524766391" lon="8.61353888305105"><ele>206.75</ele><time>2026-04-06T12:56:59.973Z</time></trkpt><trkpt lat="45.85884397029387" lon="8.613615912904722"><ele>207.0</ele><time>2026-04-06T12:57:00.973Z</time></trkpt><trkpt lat="45.858700824264744" lon="8.613601655737446"><ele>207.0</ele><time>2026-04-06T12:57:01.973Z</time></trkpt><trkpt lat="45.85854310186179" lon="8.613579456147363"><ele>207.0</ele><time>2026-04-06T12:57:02.973Z</time></trkpt><trkpt lat="45.85837246025936" lon="8.613543035225229"><ele>207.0</ele><time>2026-04-06T12:57:03.973Z</time></trkpt><trkpt lat="45.85819539190568" lon="8.613486828782335"><ele>206.33333333333331</ele><time>2026-04-06T12:57:04.973Z</time></trkpt><trkpt lat="45.858017958836605" lon="8.613458714426683"><ele>205.66666666666666</ele><time>2026-04-06T12:57:05.973Z</time></trkpt><trkpt lat="45.85783849225758" lon="8.613431138026883"><ele>205.0</ele><time>2026-04-06T12:57:06.973Z</time></trkpt><trkpt lat="45.85765706606808" lon="8.613408744349735"><ele>206.66666666666666</ele><time>2026-04-06T12:57:07.973Z</time></trkpt><trkpt lat="45.857472052659595" lon="8.613389764814741"><ele>208.33333333333331</ele><time>2026-04-06T12:57:08.973Z</time></trkpt><trkpt lat="45.85729341866387" lon="8.613374791436126"><ele>210.0</ele><time>2026-04-06T12:57:09.972Z</time></trkpt><trkpt lat="45.85711134790877" lon="8.613356447318075"><ele>210.0</ele><time>2026-04-06T12:57:10.972Z</time></trkpt><trkpt lat="45.8569275372375" lon="8.61334792740266"><ele>210.0</ele><time>2026-04-06T12:57:11.972Z</time></trkpt><trkpt lat="45.85674290667265" lon="8.61334130762604"><ele>210.0</ele><time>2026-04-06T12:57:12.972Z</time></trkpt><trkpt lat="45.856561128244344" lon="8.613333235852537"><ele>210.33333333333331</ele><time>2026-04-06T12:57:13.972Z</time></trkpt><trkpt lat="45.85638238591521" lon="8.61332537334482"><ele>210.66666666666666</ele><time>2026-04-06T12:57:14.972Z</time></trkpt><trkpt lat="45.85620363243371" lon="8.613310890912105"><ele>211.0</ele><time>2026-04-06T12:57:15.972Z</time></trkpt><trkpt lat="45.856030157099184" lon="8.613304735431765"><ele>211.0</ele><time>2026-04-06T12:57:16.972Z</time></trkpt><trkpt lat="45.855858178142796" lon="8.613294527308138"><ele>211.0</ele><time>2026-04-06T12:57:17.972Z</time></trkpt><trkpt lat="45.855683695038486" lon="8.613279585025742"><ele>211.0</ele><time>2026-04-06T12:57:18.972Z</time></trkpt><trkpt lat="45.85550995570706" lon="8.613264310130418"><ele>211.0</ele><time>2026-04-06T12:57:19.972Z</time></trkpt><trkpt lat="45.855337560699795" lon="8.613256973962677"><ele>211.0</ele><time>2026-04-06T12:57:20.972Z</time></trkpt><trkpt lat="45.85517384055262" lon="8.613259549870902"><ele>211.0</ele><time>2026-04-06T12:57:21.972Z</time></trkpt><trkpt lat="45.85500950839881" lon="8.613289840370712"><ele>211.0</ele><time>2026-04-06T12:57:22.972Z</time></trkpt><trkpt lat="45.85484970503538" lon="8.613343800983879"><ele>211.0</ele><time>2026-04-06T12:57:23.972Z</time></trkpt><trkpt lat="45.85469775391268" lon="8.613425563960016"><ele>211.0</ele><time>2026-04-06T12:57:24.972Z</time></trkpt><trkpt lat="45.85455748897399" lon="8.613544569619139"><ele>211.33333333333331</ele><time>2026-04-06T12:57:25.972Z</time></trkpt><trkpt lat="45.85442037623196" lon="8.613666721505172"><ele>211.66666666666669</ele><time>2026-04-06T12:57:26.972Z</time></trkpt><trkpt lat="45.854293348533375" lon="8.613781802745319"><ele>212.0</ele><time>2026-04-06T12:57:27.972Z</time></trkpt><trkpt lat="45.85417388034662" lon="8.613902451277264"><ele>212.0</ele><time>2026-04-06T12:57:28.972Z</time></trkpt><trkpt lat="45.85405221960339" lon="8.613986282102449"><ele>212.0</ele><time>2026-04-06T12:57:29.972Z</time></trkpt><trkpt lat="45.853950564243" lon="8.614078116541265"><ele>212.0</ele><time>2026-04-06T12:57:30.972Z</time></trkpt><trkpt lat="45.853856875162585" lon="8.614159499928618"><ele>212.0</ele><time>2026-04-06T12:57:31.972Z</time></trkpt><trkpt lat="45.85377027293787" lon="8.614236059248762"><ele>212.0</ele><time>2026-04-06T12:57:32.972Z</time></trkpt><trkpt lat="45.853695116783605" lon="8.614319959604636"><ele>212.0</ele><time>2026-04-06T12:57:33.972Z</time></trkpt><trkpt lat="45.853637895300494" lon="8.614412967223535"><ele>212.0</ele><time>2026-04-06T12:57:34.972Z</time></trkpt><trkpt lat="45.85360333924908" lon="8.614523500923797"><ele>212.0</ele><time>2026-04-06T12:57:35.972Z</time></trkpt><trkpt lat="45.853596254566504" lon="8.614647048021656"><ele>212.0</ele><time>2026-04-06T12:57:36.972Z</time></trkpt><trkpt lat="45.85360573010984" lon="8.614803618092637"><ele>215.0</ele><time>2026-04-06T12:57:37.972Z</time></trkpt><trkpt lat="45.853626748506194" lon="8.614960147710706"><ele>218.0</ele><time>2026-04-06T12:57:38.972Z</time></trkpt><trkpt lat="45.85365393800855" lon="8.615131553172047"><ele>221.0</ele><time>2026-04-06T12:57:39.972Z</time></trkpt><trkpt lat="45.8536838762379" lon="8.61530793125304"><ele>224.0</ele><time>2026-04-06T12:57:40.972Z</time></trkpt><trkpt lat="45.85372943391181" lon="8.615482645816787"><ele>224.25</ele><time>2026-04-06T12:57:41.972Z</time></trkpt><trkpt lat="45.853756609419555" lon="8.615670055794066"><ele>224.5</ele><time>2026-04-06T12:57:42.972Z</time></trkpt><trkpt lat="45.85379651385869" lon="8.615860152567336"><ele>224.75</ele><time>2026-04-06T12:57:43.972Z</time></trkpt><trkpt lat="45.853845960850784" lon="8.616054470018911"><ele>225.0</ele><time>2026-04-06T12:57:44.972Z</time></trkpt><trkpt lat="45.85390676956282" lon="8.616254925413731"><ele>225.0</ele><time>2026-04-06T12:57:45.972Z</time></trkpt><trkpt lat="45.853976921686076" lon="8.616466769318626"><ele>225.0</ele><time>2026-04-06T12:57:46.972Z</time></trkpt><trkpt lat="45.85405108821124" lon="8.616689732514535"><ele>225.0</ele><time>2026-04-06T12:57:47.972Z</time></trkpt><trkpt lat="45.854123712502556" lon="8.616905601239019"><ele>220.33333333333331</ele><time>2026-04-06T12:57:48.972Z</time></trkpt><trkpt lat="45.85419865112368" lon="8.617107378486073"><ele>215.66666666666666</ele><time>2026-04-06T12:57:49.972Z</time></trkpt><trkpt lat="45.85427254274831" lon="8.617300903113275"><ele>211.0</ele><time>2026-04-06T12:57:50.972Z</time></trkpt><trkpt lat="45.85433645232048" lon="8.617490852587489"><ele>214.75</ele><time>2026-04-06T12:57:51.972Z</time></trkpt><trkpt lat="45.85440276380747" lon="8.617671351339542"><ele>218.5</ele><time>2026-04-06T12:57:52.972Z</time></trkpt><trkpt lat="45.85447052326992" lon="8.617847612136375"><ele>222.25</ele><time>2026-04-06T12:57:53.972Z</time></trkpt><trkpt lat="45.85453958679266" lon="8.618017771440908"><ele>226.0</ele><time>2026-04-06T12:57:54.972Z</time></trkpt><trkpt lat="45.854630688449305" lon="8.618173703414842"><ele>226.0</ele><time>2026-04-06T12:57:55.972Z</time></trkpt><trkpt lat="45.854744213922984" lon="8.618326899174262"><ele>226.0</ele><time>2026-04-06T12:57:56.971Z</time></trkpt><trkpt lat="45.85486934455122" lon="8.61848979368819"><ele>226.0</ele><time>2026-04-06T12:57:57.971Z</time></trkpt><trkpt lat="45.85500790538292" lon="8.61868877992442"><ele>229.66666666666666</ele><time>2026-04-06T12:57:58.971Z</time></trkpt><trkpt lat="45.85516451953754" lon="8.618906487742587"><ele>233.33333333333331</ele><time>2026-04-06T12:57:59.971Z</time></trkpt><trkpt lat="45.85528343921113" lon="8.619138438870053"><ele>237.0</ele><time>2026-04-06T12:58:00.971Z</time></trkpt><trkpt lat="45.85541746643558" lon="8.619332468362826"><ele>230.66666666666669</ele><time>2026-04-06T12:58:01.971Z</time></trkpt><trkpt lat="45.85554435879438" lon="8.61952219960289"><ele>224.33333333333334</ele><time>2026-04-06T12:58:02.971Z</time></trkpt><trkpt lat="45.85565487375582" lon="8.619716536881212"><ele>218.0</ele><time>2026-04-06T12:58:03.971Z</time></trkpt><trkpt lat="45.855758044966365" lon="8.619921759468108"><ele>218.0</ele><time>2026-04-06T12:58:04.971Z</time></trkpt><trkpt lat="45.855852427597476" lon="8.620141988895021"><ele>218.0</ele><time>2026-04-06T12:58:05.971Z</time></trkpt><trkpt lat="45.85593193037574" lon="8.620371879760052"><ele>218.0</ele><time>2026-04-06T12:58:06.971Z</time></trkpt><trkpt lat="45.85599575936149" lon="8.620616137160908"><ele>223.66666666666669</ele><time>2026-04-06T12:58:07.971Z</time></trkpt><trkpt lat="45.856042396906325" lon="8.62086869520932"><ele>229.33333333333331</ele><time>2026-04-06T12:58:08.971Z</time></trkpt><trkpt lat="45.85606950688555" lon="8.621129957559596"><ele>235.0</ele><time>2026-04-06T12:58:09.971Z</time></trkpt><trkpt lat="45.85608006088426" lon="8.621398756251049"><ele>235.0</ele><time>2026-04-06T12:58:10.971Z</time></trkpt><trkpt lat="45.85607261809042" lon="8.621672467304473"><ele>235.0</ele><time>2026-04-06T12:58:11.971Z</time></trkpt><trkpt lat="45.856036822815014" lon="8.621949723863349"><ele>235.0</ele><time>2026-04-06T12:58:12.971Z</time></trkpt><trkpt lat="45.85599437000102" lon="8.62223085336362"><ele>226.66666666666666</ele><time>2026-04-06T12:58:13.971Z</time></trkpt><trkpt lat="45.855951406531695" lon="8.6225198536694"><ele>218.33333333333331</ele><time>2026-04-06T12:58:14.971Z</time></trkpt><trkpt lat="45.855897560314894" lon="8.62280977062413"><ele>210.0</ele><time>2026-04-06T12:58:15.971Z</time></trkpt><trkpt lat="45.85584887087862" lon="8.623087404114903"><ele>210.0</ele><time>2026-04-06T12:58:16.971Z</time></trkpt><trkpt lat="45.855807070327856" lon="8.623352694845257"><ele>210.0</ele><time>2026-04-06T12:58:17.971Z</time></trkpt><trkpt lat="45.855761381015384" lon="8.623598715392564"><ele>210.0</ele><time>2026-04-06T12:58:18.971Z</time></trkpt><trkpt lat="45.855705044599986" lon="8.623824639990463"><ele>209.66666666666669</ele><time>2026-04-06T12:58:19.971Z</time></trkpt><trkpt lat="45.85563963364334" lon="8.624030572761686"><ele>209.33333333333334</ele><time>2026-04-06T12:58:20.971Z</time></trkpt><trkpt lat="45.8555739343176" lon="8.624230054952047"><ele>209.0</ele><time>2026-04-06T12:58:21.971Z</time></trkpt><trkpt lat="45.85549624660613" lon="8.624423875893198"><ele>209.0</ele><time>2026-04-06T12:58:22.971Z</time></trkpt><trkpt lat="45.8553961309533" lon="8.62462224815371"><ele>209.0</ele><time>2026-04-06T12:58:23.971Z</time></trkpt><trkpt lat="45.855274385758605" lon="8.624820170517527"><ele>209.0</ele><time>2026-04-06T12:58:24.971Z</time></trkpt><trkpt lat="45.85513301527008" lon="8.625014565678502"><ele>209.33333333333334</ele><time>2026-04-06T12:58:25.971Z</time></trkpt><trkpt lat="45.85497414949301" lon="8.625197105494586"><ele>209.66666666666669</ele><time>2026-04-06T12:58:26.971Z</time></trkpt><trkpt lat="45.854797691699325" lon="8.62533441926945"><ele>210.0</ele><time>2026-04-06T12:58:27.971Z</time></trkpt><trkpt lat="45.85463565247322" lon="8.625464828068818"><ele>210.0</ele><time>2026-04-06T12:58:28.971Z</time></trkpt><trkpt lat="45.85447935107294" lon="8.625565369452291"><ele>210.0</ele><time>2026-04-06T12:58:29.971Z</time></trkpt><trkpt lat="45.85432174358621" lon="8.625642155741582"><ele>210.0</ele><time>2026-04-06T12:58:30.971Z</time></trkpt><trkpt lat="45.85416045102558" lon="8.625699741524475"><ele>210.33333333333331</ele><time>2026-04-06T12:58:31.971Z</time></trkpt><trkpt lat="45.85399025625358" lon="8.625739957494634"><ele>210.66666666666666</ele><time>2026-04-06T12:58:32.971Z</time></trkpt><trkpt lat="45.85381203792497" lon="8.625778288132427"><ele>211.0</ele><time>2026-04-06T12:58:33.971Z</time></trkpt><trkpt lat="45.85363190675039" lon="8.625817030025923"><ele>210.33333333333331</ele><time>2026-04-06T12:58:34.971Z</time></trkpt><trkpt lat="45.85344431528307" lon="8.625857376728685"><ele>209.66666666666669</ele><time>2026-04-06T12:58:35.971Z</time></trkpt><trkpt lat="45.85325740866008" lon="8.625900625324167"><ele>209.0</ele><time>2026-04-06T12:58:36.971Z</time></trkpt><trkpt lat="45.853067960003806" lon="8.625944724202682"><ele>209.0</ele><time>2026-04-06T12:58:37.971Z</time></trkpt><trkpt lat="45.85288068597802" lon="8.62598698122238"><ele>209.0</ele><time>2026-04-06T12:58:38.971Z</time></trkpt><trkpt lat="45.85269420986247" lon="8.626030430549825"><ele>209.0</ele><time>2026-04-06T12:58:39.971Z</time></trkpt><trkpt lat="45.85250711654902" lon="8.626072224558161"><ele>208.66666666666669</ele><time>2026-04-06T12:58:40.971Z</time></trkpt><trkpt lat="45.85232339863095" lon="8.626109610015556"><ele>208.33333333333331</ele><time>2026-04-06T12:58:41.971Z</time></trkpt><trkpt lat="45.85215444754469" lon="8.626142664798804"><ele>208.0</ele><time>2026-04-06T12:58:42.971Z</time></trkpt><trkpt lat="45.85200389925178" lon="8.626177662674914"><ele>208.4</ele><time>2026-04-06T12:58:43.97Z</time></trkpt><trkpt lat="45.851868061778404" lon="8.626208318953909"><ele>208.8</ele><time>2026-04-06T12:58:44.97Z</time></trkpt><trkpt lat="45.85175010971203" lon="8.626233629334068"><ele>209.2</ele><time>2026-04-06T12:58:45.97Z</time></trkpt><trkpt lat="45.8516499870244" lon="8.62625200722612"><ele>209.6</ele><time>2026-04-06T12:58:46.97Z</time></trkpt><trkpt lat="45.851563585458216" lon="8.626249020371736"><ele>210.0</ele><time>2026-04-06T12:58:47.97Z</time></trkpt><trkpt lat="45.851486689165995" lon="8.626214880240918"><ele>210.0</ele><time>2026-04-06T12:58:48.97Z</time></trkpt><trkpt lat="45.85141088733703" lon="8.626187090937565"><ele>210.0</ele><time>2026-04-06T12:58:49.97Z</time></trkpt><trkpt lat="45.851342850187045" lon="8.626188252825171"><ele>210.0</ele><time>2026-04-06T12:58:50.97Z</time></trkpt><trkpt lat="45.85128787356763" lon="8.62624320265872"><ele>210.0</ele><time>2026-04-06T12:58:51.972Z</time></trkpt><trkpt lat="45.85124605001492" lon="8.626316273174822"><ele>210.0</ele><time>2026-04-06T12:58:52.972Z</time></trkpt><trkpt lat="45.851192326824396" lon="8.62638424205134"><ele>210.0</ele><time>2026-04-06T12:58:53.972Z</time></trkpt><trkpt lat="45.851115843473295" lon="8.626439099359656"><ele>210.0</ele><time>2026-04-06T12:58:54.972Z</time></trkpt><trkpt lat="45.85101519856189" lon="8.626470121611955"><ele>209.25</ele><time>2026-04-06T12:58:55.972Z</time></trkpt><trkpt lat="45.85090466213133" lon="8.6265360621494"><ele>208.5</ele><time>2026-04-06T12:58:56.972Z</time></trkpt><trkpt lat="45.85079546302922" lon="8.62660883895766"><ele>207.75</ele><time>2026-04-06T12:58:57.972Z</time></trkpt><trkpt lat="45.850689961116714" lon="8.626746358560514"><ele>207.0</ele><time>2026-04-06T12:58:58.972Z</time></trkpt><trkpt lat="45.8505645967638" lon="8.626867124808928"><ele>207.0</ele><time>2026-04-06T12:58:59.972Z</time></trkpt><trkpt lat="45.85043400047435" lon="8.627001517058549"><ele>207.0</ele><time>2026-04-06T12:59:00.972Z</time></trkpt><trkpt lat="45.85029203589343" lon="8.627136391048488"><ele>207.0</ele><time>2026-04-06T12:59:01.972Z</time></trkpt><trkpt lat="45.85013510739191" lon="8.627229113206845"><ele>207.0</ele><time>2026-04-06T12:59:02.972Z</time></trkpt><trkpt lat="45.85000662836451" lon="8.62736242268494"><ele>207.0</ele><time>2026-04-06T12:59:03.972Z</time></trkpt><trkpt lat="45.84986914117728" lon="8.62750727380399"><ele>207.0</ele><time>2026-04-06T12:59:04.972Z</time></trkpt><trkpt lat="45.84973063272626" lon="8.627655248157756"><ele>208.0</ele><time>2026-04-06T12:59:05.972Z</time></trkpt><trkpt lat="45.84958491631992" lon="8.62781092808265"><ele>209.0</ele><time>2026-04-06T12:59:06.972Z</time></trkpt><trkpt lat="45.84943766370333" lon="8.627963730261"><ele>210.0</ele><time>2026-04-06T12:59:07.972Z</time></trkpt><trkpt lat="45.84930088708372" lon="8.628106573051605"><ele>209.0</ele><time>2026-04-06T12:59:08.972Z</time></trkpt><trkpt lat="45.84917110731761" lon="8.628243122516585"><ele>208.0</ele><time>2026-04-06T12:59:09.972Z</time></trkpt><trkpt lat="45.84905461118648" lon="8.628366690239128"><ele>207.0</ele><time>2026-04-06T12:59:10.972Z</time></trkpt><trkpt lat="45.84894430459635" lon="8.62848302405313"><ele>206.0</ele><time>2026-04-06T12:59:11.972Z</time></trkpt><trkpt lat="45.848835823807455" lon="8.628596807472608"><ele>206.25</ele><time>2026-04-06T12:59:12.972Z</time></trkpt><trkpt lat="45.84873211126548" lon="8.628704711558026"><ele>206.5</ele><time>2026-04-06T12:59:13.972Z</time></trkpt><trkpt lat="45.848619811743724" lon="8.62882302223944"><ele>206.75</ele><time>2026-04-06T12:59:14.971Z</time></trkpt><trkpt lat="45.84850581469147" lon="8.628944692930428"><ele>207.0</ele><time>2026-04-06T12:59:15.971Z</time></trkpt><trkpt lat="45.848391510327204" lon="8.629062196949013"><ele>207.0</ele><time>2026-04-06T12:59:16.971Z</time></trkpt><trkpt lat="45.84827715029801" lon="8.629167097520002"><ele>207.0</ele><time>2026-04-06T12:59:17.971Z</time></trkpt><trkpt lat="45.84816133714592" lon="8.629255369416208"><ele>207.0</ele><time>2026-04-06T12:59:18.971Z</time></trkpt><trkpt lat="45.84804796184525" lon="8.629340138409523"><ele>207.0</ele><time>2026-04-06T12:59:19.971Z</time></trkpt><trkpt lat="45.847918359522524" lon="8.629387396557037"><ele>207.0</ele><time>2026-04-06T12:59:20.971Z</time></trkpt><trkpt lat="45.84778447665835" lon="8.629421995711011"><ele>207.0</ele><time>2026-04-06T12:59:21.971Z</time></trkpt><trkpt lat="45.84765021013365" lon="8.629442999166626"><ele>207.0</ele><time>2026-04-06T12:59:22.971Z</time></trkpt><trkpt lat="45.84750974812319" lon="8.629447286440852"><ele>207.0</ele><time>2026-04-06T12:59:23.971Z</time></trkpt><trkpt lat="45.84737171950278" lon="8.629439842750823"><ele>209.0</ele><time>2026-04-06T12:59:24.971Z</time></trkpt><trkpt lat="45.847239214704786" lon="8.629421227722066"><ele>211.0</ele><time>2026-04-06T12:59:25.971Z</time></trkpt><trkpt lat="45.847108548713756" lon="8.629389180340128"><ele>213.0</ele><time>2026-04-06T12:59:26.971Z</time></trkpt><trkpt lat="45.84698371064125" lon="8.629354265604722"><ele>215.0</ele><time>2026-04-06T12:59:27.971Z</time></trkpt><trkpt lat="45.84687112463485" lon="8.629308348441239"><ele>214.75</ele><time>2026-04-06T12:59:28.971Z</time></trkpt><trkpt lat="45.84676642729901" lon="8.629261918827245"><ele>214.5</ele><time>2026-04-06T12:59:29.971Z</time></trkpt><trkpt lat="45.84665796233776" lon="8.629213227349156"><ele>214.25</ele><time>2026-04-06T12:59:30.971Z</time></trkpt><trkpt lat="45.84654250978486" lon="8.629160050267416"><ele>214.0</ele><time>2026-04-06T12:59:31.971Z</time></trkpt><trkpt lat="45.84641945076909" lon="8.629116888160365"><ele>214.0</ele><time>2026-04-06T12:59:32.971Z</time></trkpt><trkpt lat="45.84628987940198" lon="8.629079851956334"><ele>214.0</ele><time>2026-04-06T12:59:33.971Z</time></trkpt><trkpt lat="45.84617360981046" lon="8.629000718378746"><ele>214.0</ele><time>2026-04-06T12:59:34.971Z</time></trkpt><trkpt lat="45.84604631769965" lon="8.628962392802851"><ele>214.0</ele><time>2026-04-06T12:59:35.971Z</time></trkpt><trkpt lat="45.84592087321869" lon="8.628940780418606"><ele>213.25</ele><time>2026-04-06T12:59:36.971Z</time></trkpt><trkpt lat="45.84578874941631" lon="8.62892967832091"><ele>212.5</ele><time>2026-04-06T12:59:37.971Z</time></trkpt><trkpt lat="45.84565461823846" lon="8.628928694415318"><ele>211.75</ele><time>2026-04-06T12:59:38.971Z</time></trkpt><trkpt lat="45.84552069693741" lon="8.628929117199021"><ele>211.0</ele><time>2026-04-06T12:59:39.971Z</time></trkpt><trkpt lat="45.84538442037089" lon="8.628927439073292"><ele>211.0</ele><time>2026-04-06T12:59:40.971Z</time></trkpt><trkpt lat="45.84524734110539" lon="8.62893006784047"><ele>211.0</ele><time>2026-04-06T12:59:41.971Z</time></trkpt><trkpt lat="45.845110511054834" lon="8.62892879946572"><ele>211.0</ele><time>2026-04-06T12:59:42.971Z</time></trkpt><trkpt lat="45.844965257120386" lon="8.628943809599745"><ele>211.0</ele><time>2026-04-06T12:59:43.971Z</time></trkpt><trkpt lat="45.8447962406067" lon="8.628941484690472"><ele>210.66666666666666</ele><time>2026-04-06T12:59:44.971Z</time></trkpt><trkpt lat="45.84461447996495" lon="8.628933457172778"><ele>210.33333333333331</ele><time>2026-04-06T12:59:45.971Z</time></trkpt><trkpt lat="45.844411651463034" lon="8.628918560494002"><ele>210.0</ele><time>2026-04-06T12:59:46.971Z</time></trkpt><trkpt lat="45.84420760862918" lon="8.628913740958591"><ele>210.0</ele><time>2026-04-06T12:59:47.971Z</time></trkpt><trkpt lat="45.84399402270264" lon="8.628924443816691"><ele>210.0</ele><time>2026-04-06T12:59:48.971Z</time></trkpt><trkpt lat="45.843787193926865" lon="8.628935602375538"><ele>210.0</ele><time>2026-04-06T12:59:49.971Z</time></trkpt><trkpt lat="45.84358698691132" lon="8.628940954655542"><ele>210.0</ele><time>2026-04-06T12:59:50.971Z</time></trkpt><trkpt lat="45.84338410647009" lon="8.628942824793087"><ele>210.0</ele><time>2026-04-06T12:59:51.971Z</time></trkpt><trkpt lat="45.84318187515436" lon="8.628945524384264"><ele>210.0</ele><time>2026-04-06T12:59:52.971Z</time></trkpt><trkpt lat="45.84297641587042" lon="8.628951268587558"><ele>210.0</ele><time>2026-04-06T12:59:53.971Z</time></trkpt><trkpt lat="45.842769654168734" lon="8.628961540291993"><ele>210.0</ele><time>2026-04-06T12:59:54.971Z</time></trkpt><trkpt lat="45.8425641841392" lon="8.628971333963639"><ele>210.0</ele><time>2026-04-06T12:59:55.971Z</time></trkpt><trkpt lat="45.84236133353461" lon="8.628973502562856"><ele>208.66666666666669</ele><time>2026-04-06T12:59:56.971Z</time></trkpt><trkpt lat="45.84216157237506" lon="8.628974597969938"><ele>207.33333333333334</ele><time>2026-04-06T12:59:57.971Z</time></trkpt><trkpt lat="45.8419601498896" lon="8.628970760287785"><ele>206.0</ele><time>2026-04-06T12:59:58.971Z</time></trkpt><trkpt lat="45.84176061337672" lon="8.628958350019488"><ele>205.0</ele><time>2026-04-06T12:59:59.971Z</time></trkpt><trkpt lat="45.84156172871549" lon="8.62893820567815"><ele>204.0</ele><time>2026-04-06T13:00:00.971Z</time></trkpt><trkpt lat="45.84136419276942" lon="8.62892121646443"><ele>203.0</ele><time>2026-04-06T13:00:01.97Z</time></trkpt><trkpt lat="45.84117091065275" lon="8.628902414827358"><ele>202.33333333333334</ele><time>2026-04-06T13:00:02.97Z</time></trkpt><trkpt lat="45.84096123248279" lon="8.628893408819483"><ele>201.66666666666669</ele><time>2026-04-06T13:00:03.97Z</time></trkpt><trkpt lat="45.84073086720614" lon="8.628850253136942"><ele>201.0</ele><time>2026-04-06T13:00:04.97Z</time></trkpt><trkpt lat="45.840473848299574" lon="8.628825392509198"><ele>201.0</ele><time>2026-04-06T13:00:05.97Z</time></trkpt><trkpt lat="45.84019252711838" lon="8.628815609364981"><ele>201.0</ele><time>2026-04-06T13:00:06.97Z</time></trkpt><trkpt lat="45.83989904727931" lon="8.628781883749234"><ele>200.5</ele><time>2026-04-06T13:00:07.97Z</time></trkpt><trkpt lat="45.83960690700759" lon="8.628753359233734"><ele>200.0</ele><time>2026-04-06T13:00:08.97Z</time></trkpt><trkpt lat="45.839327848352355" lon="8.628725578321884"><ele>200.0</ele><time>2026-04-06T13:00:09.97Z</time></trkpt><trkpt lat="45.839058903988814" lon="8.628693959930581"><ele>200.0</ele><time>2026-04-06T13:00:10.97Z</time></trkpt><trkpt lat="45.838800117585" lon="8.628672570297471"><ele>200.0</ele><time>2026-04-06T13:00:11.97Z</time></trkpt><trkpt lat="45.83856067789714" lon="8.628653311350234"><ele>200.0</ele><time>2026-04-06T13:00:12.97Z</time></trkpt><trkpt lat="45.83833725719442" lon="8.628634886294604"><ele>200.33333333333334</ele><time>2026-04-06T13:00:13.97Z</time></trkpt><trkpt lat="45.83813660438272" lon="8.628614962568868"><ele>200.66666666666669</ele><time>2026-04-06T13:00:14.97Z</time></trkpt><trkpt lat="45.837959548532204" lon="8.628574966166674"><ele>201.0</ele><time>2026-04-06T13:00:15.97Z</time></trkpt><trkpt lat="45.83778581956851" lon="8.628568065407746"><ele>201.0</ele><time>2026-04-06T13:00:16.97Z</time></trkpt><trkpt lat="45.837611461850926" lon="8.628580587309141"><ele>201.0</ele><time>2026-04-06T13:00:17.97Z</time></trkpt><trkpt lat="45.83742643091216" lon="8.628612083563786"><ele>201.0</ele><time>2026-04-06T13:00:18.97Z</time></trkpt><trkpt lat="45.83723301419695" lon="8.628665716982573"><ele>201.0</ele><time>2026-04-06T13:00:19.97Z</time></trkpt><trkpt lat="45.83702772813217" lon="8.628732999806909"><ele>201.0</ele><time>2026-04-06T13:00:20.97Z</time></trkpt><trkpt lat="45.83681344402673" lon="8.628800418188078"><ele>201.0</ele><time>2026-04-06T13:00:21.97Z</time></trkpt><trkpt lat="45.836611870402336" lon="8.628896611379352"><ele>200.66666666666669</ele><time>2026-04-06T13:00:22.97Z</time></trkpt><trkpt lat="45.83641501147334" lon="8.628990416710463"><ele>200.33333333333334</ele><time>2026-04-06T13:00:23.97Z</time></trkpt><trkpt lat="45.83622023254623" lon="8.629063454810202"><ele>200.0</ele><time>2026-04-06T13:00:24.97Z</time></trkpt><trkpt lat="45.836018817688995" lon="8.629114793531349"><ele>200.0</ele><time>2026-04-06T13:00:25.97Z</time></trkpt><trkpt lat="45.835808902544215" lon="8.629145804957373"><ele>200.0</ele><time>2026-04-06T13:00:26.97Z</time></trkpt><trkpt lat="45.83559592974198" lon="8.62915806635189"><ele>200.0</ele><time>2026-04-06T13:00:27.97Z</time></trkpt><trkpt lat="45.835381347926074" lon="8.629144652331227"><ele>200.0</ele><time>2026-04-06T13:00:28.97Z</time></trkpt><trkpt lat="45.835162222551425" lon="8.629105845814431"><ele>200.0</ele><time>2026-04-06T13:00:29.97Z</time></trkpt><trkpt lat="45.83494194455853" lon="8.629050594121908"><ele>200.0</ele><time>2026-04-06T13:00:30.97Z</time></trkpt><trkpt lat="45.83472287693541" lon="8.628981702814864"><ele>200.0</ele><time>2026-04-06T13:00:31.97Z</time></trkpt><trkpt lat="45.83448853122275" lon="8.628907279645505"><ele>200.0</ele><time>2026-04-06T13:00:32.97Z</time></trkpt><trkpt lat="45.834259560250075" lon="8.628829345917268"><ele>200.5</ele><time>2026-04-06T13:00:33.97Z</time></trkpt><trkpt lat="45.83402912707781" lon="8.628752911515546"><ele>201.0</ele><time>2026-04-06T13:00:34.97Z</time></trkpt><trkpt lat="45.83380252310241" lon="8.628676316530164"><ele>199.0</ele><time>2026-04-06T13:00:35.97Z</time></trkpt><trkpt lat="45.83357789642197" lon="8.628599459555913"><ele>197.0</ele><time>2026-04-06T13:00:36.97Z</time></trkpt><trkpt lat="45.83335569913209" lon="8.628521979016249"><ele>197.0</ele><time>2026-04-06T13:00:37.97Z</time></trkpt><trkpt lat="45.8331352143108" lon="8.628449399906788"><ele>197.0</ele><time>2026-04-06T13:00:38.97Z</time></trkpt><trkpt lat="45.83291563445469" lon="8.628376839103687"><ele>197.0</ele><time>2026-04-06T13:00:39.97Z</time></trkpt><trkpt lat="45.83269493075525" lon="8.628302119079638"><ele>197.0</ele><time>2026-04-06T13:00:40.97Z</time></trkpt><trkpt lat="45.832481958114194" lon="8.628229412403174"><ele>197.0</ele><time>2026-04-06T13:00:41.97Z</time></trkpt><trkpt lat="45.83227254869133" lon="8.628144199794521"><ele>198.66666666666669</ele><time>2026-04-06T13:00:42.97Z</time></trkpt><trkpt lat="45.83207332791423" lon="8.628040257032954"><ele>200.33333333333331</ele><time>2026-04-06T13:00:43.97Z</time></trkpt><trkpt lat="45.83187984872708" lon="8.627923477095612"><ele>202.0</ele><time>2026-04-06T13:00:44.97Z</time></trkpt><trkpt lat="45.83169702844346" lon="8.62780679765973"><ele>202.0</ele><time>2026-04-06T13:00:45.97Z</time></trkpt><trkpt lat="45.83151871787026" lon="8.62770373901399"><ele>202.0</ele><time>2026-04-06T13:00:46.97Z</time></trkpt><trkpt lat="45.83135284604499" lon="8.627574633697522"><ele>202.0</ele><time>2026-04-06T13:00:47.97Z</time></trkpt><trkpt lat="45.831176576561674" lon="8.62747419620074"><ele>202.0</ele><time>2026-04-06T13:00:48.969Z</time></trkpt><trkpt lat="45.83098577425359" lon="8.627374051667855"><ele>202.0</ele><time>2026-04-06T13:00:49.969Z</time></trkpt><trkpt lat="45.83077586737259" lon="8.627291982112851"><ele>202.0</ele><time>2026-04-06T13:00:50.969Z</time></trkpt><trkpt lat="45.830583694968" lon="8.627229270021658"><ele>203.0</ele><time>2026-04-06T13:00:51.969Z</time></trkpt><trkpt lat="45.830401878561034" lon="8.627169919564674"><ele>204.0</ele><time>2026-04-06T13:00:52.969Z</time></trkpt><trkpt lat="45.83023593261184" lon="8.62712439479181"><ele>205.0</ele><time>2026-04-06T13:00:53.969Z</time></trkpt><trkpt lat="45.8300753260581" lon="8.627103159368822"><ele>206.0</ele><time>2026-04-06T13:00:54.969Z</time></trkpt><trkpt lat="45.82990968304048" lon="8.627118925935795"><ele>207.0</ele><time>2026-04-06T13:00:55.969Z</time></trkpt><trkpt lat="45.82974159145627" lon="8.627162289409613"><ele>208.0</ele><time>2026-04-06T13:00:56.971Z</time></trkpt><trkpt lat="45.829574039614194" lon="8.627211917039027"><ele>208.0</ele><time>2026-04-06T13:00:57.971Z</time></trkpt><trkpt lat="45.8294000966128" lon="8.627252054745986"><ele>208.0</ele><time>2026-04-06T13:00:58.971Z</time></trkpt><trkpt lat="45.82922758777893" lon="8.62727655688942"><ele>208.0</ele><time>2026-04-06T13:00:59.971Z</time></trkpt><trkpt lat="45.82903588463179" lon="8.627264812533562"><ele>208.0</ele><time>2026-04-06T13:01:00.971Z</time></trkpt><trkpt lat="45.82882430287915" lon="8.627257866127188"><ele>208.0</ele><time>2026-04-06T13:01:01.971Z</time></trkpt><trkpt lat="45.8285955850058" lon="8.627254394186014"><ele>208.0</ele><time>2026-04-06T13:01:02.971Z</time></trkpt><trkpt lat="45.82835678181517" lon="8.62725056244239"><ele>207.0</ele><time>2026-04-06T13:01:03.971Z</time></trkpt><trkpt lat="45.82810877500134" lon="8.627241305591609"><ele>206.0</ele><time>2026-04-06T13:01:04.971Z</time></trkpt><trkpt lat="45.82786989543807" lon="8.627234762471012"><ele>205.33333333333334</ele><time>2026-04-06T13:01:05.971Z</time></trkpt><trkpt lat="45.82764345161829" lon="8.627228879472987"><ele>204.66666666666669</ele><time>2026-04-06T13:01:06.971Z</time></trkpt><trkpt lat="45.82742172042058" lon="8.627223118904384"><ele>204.0</ele><time>2026-04-06T13:01:07.971Z</time></trkpt><trkpt lat="45.827199249737504" lon="8.627250890204088"><ele>204.0</ele><time>2026-04-06T13:01:08.971Z</time></trkpt><trkpt lat="45.82697604399241" lon="8.6272438564766"><ele>204.0</ele><time>2026-04-06T13:01:09.971Z</time></trkpt><trkpt lat="45.82676127793255" lon="8.627242275161358"><ele>204.0</ele><time>2026-04-06T13:01:10.971Z</time></trkpt><trkpt lat="45.82654742683328" lon="8.627239763955556"><ele>203.66666666666669</ele><time>2026-04-06T13:01:11.971Z</time></trkpt><trkpt lat="45.82633050090487" lon="8.6271958573569"><ele>203.33333333333334</ele><time>2026-04-06T13:01:12.971Z</time></trkpt><trkpt lat="45.82611578651554" lon="8.627190547400712"><ele>203.0</ele><time>2026-04-06T13:01:13.971Z</time></trkpt><trkpt lat="45.825899331638304" lon="8.62718654896092"><ele>203.0</ele><time>2026-04-06T13:01:14.971Z</time></trkpt><trkpt lat="45.82569079492743" lon="8.627201972566853"><ele>203.0</ele><time>2026-04-06T13:01:15.971Z</time></trkpt><trkpt lat="45.825487984144374" lon="8.627187359502924"><ele>203.0</ele><time>2026-04-06T13:01:16.971Z</time></trkpt><trkpt lat="45.825287688223185" lon="8.627166554364253"><ele>204.0</ele><time>2026-04-06T13:01:17.971Z</time></trkpt><trkpt lat="45.825089844729334" lon="8.62711563843741"><ele>205.0</ele><time>2026-04-06T13:01:18.971Z</time></trkpt><trkpt lat="45.82489247796476" lon="8.627040533132279"><ele>206.0</ele><time>2026-04-06T13:01:19.971Z</time></trkpt><trkpt lat="45.82469758752554" lon="8.626946569752503"><ele>204.33333333333334</ele><time>2026-04-06T13:01:20.971Z</time></trkpt><trkpt lat="45.824499710979545" lon="8.626844734952275"><ele>202.66666666666669</ele><time>2026-04-06T13:01:21.971Z</time></trkpt><trkpt lat="45.824310614905976" lon="8.626715224254163"><ele>201.0</ele><time>2026-04-06T13:01:22.971Z</time></trkpt><trkpt lat="45.82411133043971" lon="8.626625779458566"><ele>201.0</ele><time>2026-04-06T13:01:23.971Z</time></trkpt><trkpt lat="45.823924379269066" lon="8.62650122419873"><ele>201.0</ele><time>2026-04-06T13:01:24.971Z</time></trkpt><trkpt lat="45.82373144507885" lon="8.626391460878455"><ele>201.0</ele><time>2026-04-06T13:01:25.971Z</time></trkpt><trkpt lat="45.82353714654456" lon="8.626277715005548"><ele>201.33333333333331</ele><time>2026-04-06T13:01:26.971Z</time></trkpt><trkpt lat="45.82334505390292" lon="8.626167920489173"><ele>201.66666666666666</ele><time>2026-04-06T13:01:27.971Z</time></trkpt><trkpt lat="45.823154512366195" lon="8.626061538473122"><ele>202.0</ele><time>2026-04-06T13:01:28.971Z</time></trkpt><trkpt lat="45.82296433969732" lon="8.625951790479562"><ele>202.0</ele><time>2026-04-06T13:01:29.971Z</time></trkpt><trkpt lat="45.82277875636578" lon="8.62584598865434"><ele>202.0</ele><time>2026-04-06T13:01:30.97Z</time></trkpt><trkpt lat="45.82260136886223" lon="8.625747820037097"><ele>202.0</ele><time>2026-04-06T13:01:31.97Z</time></trkpt><trkpt lat="45.822430906733494" lon="8.625651610433547"><ele>202.66666666666666</ele><time>2026-04-06T13:01:32.97Z</time></trkpt><trkpt lat="45.82226663878811" lon="8.625558222911282"><ele>203.33333333333331</ele><time>2026-04-06T13:01:33.97Z</time></trkpt><trkpt lat="45.82210397157114" lon="8.625464647288224"><ele>204.0</ele><time>2026-04-06T13:01:34.97Z</time></trkpt><trkpt lat="45.821945504167196" lon="8.625372624630588"><ele>204.0</ele><time>2026-04-06T13:01:35.97Z</time></trkpt><trkpt lat="45.82178680756133" lon="8.625280563235107"><ele>204.0</ele><time>2026-04-06T13:01:36.97Z</time></trkpt><trkpt lat="45.821628458806096" lon="8.625191612052227"><ele>204.0</ele><time>2026-04-06T13:01:37.97Z</time></trkpt><trkpt lat="45.821468627978135" lon="8.625098319692535"><ele>204.0</ele><time>2026-04-06T13:01:38.97Z</time></trkpt><trkpt lat="45.82130857829959" lon="8.624998787267248"><ele>204.0</ele><time>2026-04-06T13:01:39.97Z</time></trkpt><trkpt lat="45.8211477688988" lon="8.624901888086795"><ele>204.0</ele><time>2026-04-06T13:01:40.97Z</time></trkpt><trkpt lat="45.82098798632204" lon="8.624794857073807"><ele>204.0</ele><time>2026-04-06T13:01:41.97Z</time></trkpt><trkpt lat="45.82082788192672" lon="8.624688104302912"><ele>204.0</ele><time>2026-04-06T13:01:42.97Z</time></trkpt><trkpt lat="45.820667292592944" lon="8.624582924813767"><ele>204.0</ele><time>2026-04-06T13:01:43.97Z</time></trkpt><trkpt lat="45.8205091913035" lon="8.624485078678825"><ele>203.66666666666669</ele><time>2026-04-06T13:01:44.97Z</time></trkpt><trkpt lat="45.82035243901882" lon="8.624392499704589"><ele>203.33333333333334</ele><time>2026-04-06T13:01:45.97Z</time></trkpt><trkpt lat="45.82019977298452" lon="8.62430012751068"><ele>203.0</ele><time>2026-04-06T13:01:46.97Z</time></trkpt><trkpt lat="45.82005253324946" lon="8.624212882445153"><ele>203.75</ele><time>2026-04-06T13:01:47.97Z</time></trkpt><trkpt lat="45.81992052230357" lon="8.62412215834673"><ele>204.5</ele><time>2026-04-06T13:01:48.97Z</time></trkpt><trkpt lat="45.81979201072812" lon="8.624027128196353"><ele>205.25</ele><time>2026-04-06T13:01:49.97Z</time></trkpt><trkpt lat="45.81967051664584" lon="8.623928129973105"><ele>206.0</ele><time>2026-04-06T13:01:50.97Z</time></trkpt><trkpt lat="45.819561479848645" lon="8.623828133394694"><ele>206.0</ele><time>2026-04-06T13:01:51.97Z</time></trkpt><trkpt lat="45.81947230509366" lon="8.623730554143759"><ele>206.0</ele><time>2026-04-06T13:01:52.97Z</time></trkpt><trkpt lat="45.81939041970702" lon="8.623636774263284"><ele>206.0</ele><time>2026-04-06T13:01:53.97Z</time></trkpt><trkpt lat="45.81931167544187" lon="8.62355492198788"><ele>206.0</ele><time>2026-04-06T13:01:54.97Z</time></trkpt><trkpt lat="45.81922561480569" lon="8.623490598812566"><ele>206.0</ele><time>2026-04-06T13:01:55.97Z</time></trkpt><trkpt lat="45.81912205764684" lon="8.623446797863544"><ele>206.25</ele><time>2026-04-06T13:01:56.97Z</time></trkpt><trkpt lat="45.819008149929076" lon="8.623406163911353"><ele>206.5</ele><time>2026-04-06T13:01:57.97Z</time></trkpt><trkpt lat="45.818886256191426" lon="8.62337828300984"><ele>206.75</ele><time>2026-04-06T13:01:58.97Z</time></trkpt><trkpt lat="45.818750998900896" lon="8.623356209167573"><ele>207.0</ele><time>2026-04-06T13:01:59.97Z</time></trkpt><trkpt lat="45.81860470850365" lon="8.623346817662217"><ele>207.0</ele><time>2026-04-06T13:02:00.97Z</time></trkpt><trkpt lat="45.818452591529145" lon="8.623333874830763"><ele>207.0</ele><time>2026-04-06T13:02:01.97Z</time></trkpt><trkpt lat="45.818286478675454" lon="8.623321993758443"><ele>207.0</ele><time>2026-04-06T13:02:02.97Z</time></trkpt><trkpt lat="45.81810881192606" lon="8.623305297213971"><ele>207.0</ele><time>2026-04-06T13:02:03.97Z</time></trkpt><trkpt lat="45.81792250530778" lon="8.623284164782785"><ele>207.0</ele><time>2026-04-06T13:02:04.97Z</time></trkpt><trkpt lat="45.81773840369658" lon="8.623261841980623"><ele>207.0</ele><time>2026-04-06T13:02:05.97Z</time></trkpt><trkpt lat="45.817563533602836" lon="8.623235556010624"><ele>207.33333333333331</ele><time>2026-04-06T13:02:06.97Z</time></trkpt><trkpt lat="45.81739052132616" lon="8.623204630757634"><ele>207.66666666666666</ele><time>2026-04-06T13:02:07.97Z</time></trkpt><trkpt lat="45.81721458974379" lon="8.623158370196297"><ele>208.0</ele><time>2026-04-06T13:02:08.97Z</time></trkpt><trkpt lat="45.81703763716598" lon="8.623096096288217"><ele>208.0</ele><time>2026-04-06T13:02:09.97Z</time></trkpt><trkpt lat="45.81686075007181" lon="8.623021821400782"><ele>208.0</ele><time>2026-04-06T13:02:10.97Z</time></trkpt><trkpt lat="45.81668311500361" lon="8.6229355939661"><ele>208.0</ele><time>2026-04-06T13:02:11.97Z</time></trkpt><trkpt lat="45.81650774353303" lon="8.622833355565941"><ele>208.0</ele><time>2026-04-06T13:02:12.97Z</time></trkpt><trkpt lat="45.81633447545147" lon="8.622721842298914"><ele>208.0</ele><time>2026-04-06T13:02:13.97Z</time></trkpt><trkpt lat="45.81616424063439" lon="8.622602421532344"><ele>208.0</ele><time>2026-04-06T13:02:14.97Z</time></trkpt><trkpt lat="45.81600336198958" lon="8.622491005725214"><ele>209.33333333333331</ele><time>2026-04-06T13:02:15.97Z</time></trkpt><trkpt lat="45.815838821942435" lon="8.622375671878952"><ele>210.66666666666669</ele><time>2026-04-06T13:02:16.97Z</time></trkpt><trkpt lat="45.81567364516514" lon="8.622256259972255"><ele>212.0</ele><time>2026-04-06T13:02:17.969Z</time></trkpt><trkpt lat="45.815506153179015" lon="8.62214291236324"><ele>212.0</ele><time>2026-04-06T13:02:18.969Z</time></trkpt><trkpt lat="45.815339689641625" lon="8.622021962573486"><ele>212.0</ele><time>2026-04-06T13:02:19.969Z</time></trkpt><trkpt lat="45.815173905458764" lon="8.62190729220491"><ele>212.0</ele><time>2026-04-06T13:02:20.969Z</time></trkpt><trkpt lat="45.815010557713414" lon="8.621793842178667"><ele>211.0</ele><time>2026-04-06T13:02:21.969Z</time></trkpt><trkpt lat="45.81484439813777" lon="8.621681776670155"><ele>210.0</ele><time>2026-04-06T13:02:22.969Z</time></trkpt><trkpt lat="45.81468520633884" lon="8.621543927596367"><ele>209.0</ele><time>2026-04-06T13:02:23.969Z</time></trkpt><trkpt lat="45.81450663190021" lon="8.621464043604034"><ele>209.0</ele><time>2026-04-06T13:02:24.969Z</time></trkpt><trkpt lat="45.81434264857574" lon="8.621348328602291"><ele>209.0</ele><time>2026-04-06T13:02:25.969Z</time></trkpt><trkpt lat="45.814179854550595" lon="8.62123104910259"><ele>209.0</ele><time>2026-04-06T13:02:26.969Z</time></trkpt><trkpt lat="45.81401894565195" lon="8.62111878531034"><ele>209.33333333333334</ele><time>2026-04-06T13:02:27.969Z</time></trkpt><trkpt lat="45.81387458843494" lon="8.620972193681274"><ele>209.66666666666669</ele><time>2026-04-06T13:02:28.969Z</time></trkpt><trkpt lat="45.8137219795133" lon="8.620861021633393"><ele>210.0</ele><time>2026-04-06T13:02:29.969Z</time></trkpt><trkpt lat="45.8135731692264" lon="8.620749901861524"><ele>210.33333333333331</ele><time>2026-04-06T13:02:30.969Z</time></trkpt><trkpt lat="45.81343088115822" lon="8.620636689854358"><ele>210.66666666666666</ele><time>2026-04-06T13:02:31.969Z</time></trkpt><trkpt lat="45.813290497456414" lon="8.620521811432925"><ele>211.0</ele><time>2026-04-06T13:02:32.969Z</time></trkpt><trkpt lat="45.81315656577884" lon="8.62040364440935"><ele>211.75</ele><time>2026-04-06T13:02:33.969Z</time></trkpt><trkpt lat="45.813014113407796" lon="8.620313643732054"><ele>212.5</ele><time>2026-04-06T13:02:34.969Z</time></trkpt><trkpt lat="45.81289322202785" lon="8.620196588683317"><ele>213.25</ele><time>2026-04-06T13:02:35.969Z</time></trkpt><trkpt lat="45.81278024901386" lon="8.620086728876192"><ele>214.0</ele><time>2026-04-06T13:02:36.969Z</time></trkpt><trkpt lat="45.81267509344175" lon="8.619983975744594"><ele>213.6</ele><time>2026-04-06T13:02:37.969Z</time></trkpt><trkpt lat="45.812584343642634" lon="8.6198609186478"><ele>213.2</ele><time>2026-04-06T13:02:38.969Z</time></trkpt><trkpt lat="45.81248750921212" lon="8.619786804495966"><ele>212.79999999999998</ele><time>2026-04-06T13:02:39.969Z</time></trkpt><trkpt lat="45.81241095330334" lon="8.619706207535264"><ele>212.39999999999998</ele><time>2026-04-06T13:02:40.969Z</time></trkpt><trkpt lat="45.81234533205121" lon="8.619637035983851"><ele>212.0</ele><time>2026-04-06T13:02:41.969Z</time></trkpt><trkpt lat="45.81229278820268" lon="8.619568702915425"><ele>212.00000000000003</ele><time>2026-04-06T13:02:42.969Z</time></trkpt><trkpt lat="45.81224842886941" lon="8.61949608927207"><ele>212.0</ele><time>2026-04-06T13:02:43.969Z</time></trkpt><trkpt lat="45.812160369490336" lon="8.619377357009226"><ele>212.0</ele><time>2026-04-06T13:02:45.969Z</time></trkpt><trkpt lat="45.812114347113315" lon="8.619311937738274"><ele>212.0</ele><time>2026-04-06T13:02:46.969Z</time></trkpt><trkpt lat="45.81203924265322" lon="8.619311562160414"><ele>212.00000000000003</ele><time>2026-04-06T13:02:47.969Z</time></trkpt><trkpt lat="45.81196607268144" lon="8.619371848575502"><ele>212.0</ele><time>2026-04-06T13:02:48.969Z</time></trkpt><trkpt lat="45.81188232284751" lon="8.619402454747307"><ele>211.8</ele><time>2026-04-06T13:02:49.969Z</time></trkpt><trkpt lat="45.81178805500058" lon="8.619437171535166"><ele>211.6</ele><time>2026-04-06T13:02:50.969Z</time></trkpt><trkpt lat="45.811681730948536" lon="8.619481704095655"><ele>211.4</ele><time>2026-04-06T13:02:51.969Z</time></trkpt><trkpt lat="45.81156710572571" lon="8.619532090376975"><ele>211.20000000000002</ele><time>2026-04-06T13:02:52.969Z</time></trkpt><trkpt lat="45.81145822765235" lon="8.619583717788304"><ele>211.0</ele><time>2026-04-06T13:02:53.969Z</time></trkpt><trkpt lat="45.81135562824861" lon="8.619634253169604"><ele>211.0</ele><time>2026-04-06T13:02:54.969Z</time></trkpt><trkpt lat="45.811259300305245" lon="8.619668631332758"><ele>211.0</ele><time>2026-04-06T13:02:55.969Z</time></trkpt><trkpt lat="45.81117020953421" lon="8.619691718947617"><ele>211.0</ele><time>2026-04-06T13:02:56.969Z</time></trkpt><trkpt lat="45.81107227429571" lon="8.619692331595008"><ele>211.0</ele><time>2026-04-06T13:02:57.969Z</time></trkpt><trkpt lat="45.81096827587258" lon="8.619673635569626"><ele>211.0</ele><time>2026-04-06T13:02:58.969Z</time></trkpt><trkpt lat="45.81085750736998" lon="8.619651084029028"><ele>211.0</ele><time>2026-04-06T13:02:59.969Z</time></trkpt><trkpt lat="45.81073830343735" lon="8.619631127205393"><ele>211.0</ele><time>2026-04-06T13:03:00.969Z</time></trkpt><trkpt lat="45.810615862638194" lon="8.619635487003737"><ele>211.0</ele><time>2026-04-06T13:03:01.969Z</time></trkpt><trkpt lat="45.81047924701981" lon="8.619579150338623"><ele>211.0</ele><time>2026-04-06T13:03:02.97Z</time></trkpt><trkpt lat="45.81034013675825" lon="8.619545585576592"><ele>211.0</ele><time>2026-04-06T13:03:03.97Z</time></trkpt><trkpt lat="45.810195954108046" lon="8.619513871026477"><ele>211.0</ele><time>2026-04-06T13:03:04.97Z</time></trkpt><trkpt lat="45.81004749626803" lon="8.619465111753655"><ele>211.0</ele><time>2026-04-06T13:03:05.97Z</time></trkpt><trkpt lat="45.809897604823036" lon="8.619399022187137"><ele>211.66666666666666</ele><time>2026-04-06T13:03:06.97Z</time></trkpt><trkpt lat="45.80974531750002" lon="8.61931864081899"><ele>212.33333333333331</ele><time>2026-04-06T13:03:07.97Z</time></trkpt><trkpt lat="45.80959444703188" lon="8.619218395353355"><ele>213.0</ele><time>2026-04-06T13:03:08.97Z</time></trkpt><trkpt lat="45.809455461903255" lon="8.619109454020295"><ele>213.33333333333331</ele><time>2026-04-06T13:03:09.97Z</time></trkpt><trkpt lat="45.80932300097514" lon="8.618982284158397"><ele>213.66666666666666</ele><time>2026-04-06T13:03:10.97Z</time></trkpt><trkpt lat="45.809196465786535" lon="8.618835134801751"><ele>214.0</ele><time>2026-04-06T13:03:11.97Z</time></trkpt><trkpt lat="45.80907546116469" lon="8.618674852859098"><ele>213.33333333333331</ele><time>2026-04-06T13:03:12.969Z</time></trkpt><trkpt lat="45.80895988289941" lon="8.61850253994681"><ele>212.66666666666669</ele><time>2026-04-06T13:03:13.969Z</time></trkpt><trkpt lat="45.80885235391154" lon="8.618316519748484"><ele>212.0</ele><time>2026-04-06T13:03:14.97Z</time></trkpt><trkpt lat="45.80875102507446" lon="8.618119495825267"><ele>212.0</ele><time>2026-04-06T13:03:15.97Z</time></trkpt><trkpt lat="45.808662158527945" lon="8.617906350339288"><ele>212.0</ele><time>2026-04-06T13:03:16.97Z</time></trkpt><trkpt lat="45.808585208035254" lon="8.617679283036804"><ele>212.0</ele><time>2026-04-06T13:03:17.97Z</time></trkpt><trkpt lat="45.80852030972881" lon="8.617444599413643"><ele>212.0</ele><time>2026-04-06T13:03:18.97Z</time></trkpt><trkpt lat="45.80845707706802" lon="8.617200885916697"><ele>212.0</ele><time>2026-04-06T13:03:19.97Z</time></trkpt><trkpt lat="45.80839741338541" lon="8.616952577155525"><ele>212.0</ele><time>2026-04-06T13:03:20.97Z</time></trkpt><trkpt lat="45.80834306333364" lon="8.616718092861223"><ele>212.0</ele><time>2026-04-06T13:03:21.97Z</time></trkpt><trkpt lat="45.808287178694826" lon="8.616494636369996"><ele>212.0</ele><time>2026-04-06T13:03:22.97Z</time></trkpt><trkpt lat="45.808230756045766" lon="8.616268884068177"><ele>212.0</ele><time>2026-04-06T13:03:23.97Z</time></trkpt><trkpt lat="45.808172516899866" lon="8.61603495425936"><ele>212.0</ele><time>2026-04-06T13:03:24.97Z</time></trkpt><trkpt lat="45.80811155008467" lon="8.615797056517795"><ele>212.0</ele><time>2026-04-06T13:03:25.97Z</time></trkpt><trkpt lat="45.808052705653076" lon="8.615553459256402"><ele>212.0</ele><time>2026-04-06T13:03:26.97Z</time></trkpt><trkpt lat="45.80799110309808" lon="8.61530575773535"><ele>211.66666666666669</ele><time>2026-04-06T13:03:27.97Z</time></trkpt><trkpt lat="45.80793322256158" lon="8.615053690234097"><ele>211.33333333333331</ele><time>2026-04-06T13:03:28.97Z</time></trkpt><trkpt lat="45.80787008275993" lon="8.6147988931067"><ele>211.0</ele><time>2026-04-06T13:03:29.97Z</time></trkpt><trkpt lat="45.80780718599905" lon="8.614544620608243"><ele>210.33333333333331</ele><time>2026-04-06T13:03:30.97Z</time></trkpt><trkpt lat="45.80774282096767" lon="8.61428918346106"><ele>209.66666666666669</ele><time>2026-04-06T13:03:31.97Z</time></trkpt><trkpt lat="45.80769527342991" lon="8.614029478765563"><ele>209.0</ele><time>2026-04-06T13:03:32.97Z</time></trkpt><trkpt lat="45.80763441452836" lon="8.613777174445104"><ele>209.33333333333334</ele><time>2026-04-06T13:03:33.97Z</time></trkpt><trkpt lat="45.80755843573806" lon="8.613531024607378"><ele>209.66666666666669</ele><time>2026-04-06T13:03:34.97Z</time></trkpt><trkpt lat="45.80750453601823" lon="8.613274630339356"><ele>210.0</ele><time>2026-04-06T13:03:35.97Z</time></trkpt><trkpt lat="45.807447499894444" lon="8.61302798026208"><ele>210.66666666666669</ele><time>2026-04-06T13:03:36.97Z</time></trkpt><trkpt lat="45.80738925601344" lon="8.612790076559936"><ele>211.33333333333334</ele><time>2026-04-06T13:03:37.97Z</time></trkpt><trkpt lat="45.80733744127179" lon="8.61256056826787"><ele>212.0</ele><time>2026-04-06T13:03:38.97Z</time></trkpt><trkpt lat="45.80728599921776" lon="8.612335525366532"><ele>212.0</ele><time>2026-04-06T13:03:39.97Z</time></trkpt><trkpt lat="45.807234543875005" lon="8.612120906302867"><ele>212.0</ele><time>2026-04-06T13:03:40.97Z</time></trkpt><trkpt lat="45.807181245697656" lon="8.611905074321319"><ele>212.0</ele><time>2026-04-06T13:03:41.969Z</time></trkpt><trkpt lat="45.807118133674706" lon="8.611693220302634"><ele>212.0</ele><time>2026-04-06T13:03:42.969Z</time></trkpt><trkpt lat="45.807042459164265" lon="8.611486705591505"><ele>212.0</ele><time>2026-04-06T13:03:43.969Z</time></trkpt><trkpt lat="45.80696263207265" lon="8.611287171869362"><ele>212.0</ele><time>2026-04-06T13:03:44.969Z</time></trkpt><trkpt lat="45.80689384951393" lon="8.611085904608473"><ele>210.66666666666669</ele><time>2026-04-06T13:03:45.969Z</time></trkpt><trkpt lat="45.80679786533955" lon="8.61090550702007"><ele>209.33333333333331</ele><time>2026-04-06T13:03:46.969Z</time></trkpt><trkpt lat="45.806693756613285" lon="8.610725845755521"><ele>208.0</ele><time>2026-04-06T13:03:47.969Z</time></trkpt><trkpt lat="45.806580478076825" lon="8.610557845920122"><ele>208.0</ele><time>2026-04-06T13:03:48.969Z</time></trkpt><trkpt lat="45.80646456462556" lon="8.610408985384781"><ele>208.0</ele><time>2026-04-06T13:03:49.969Z</time></trkpt><trkpt lat="45.806345043183164" lon="8.610272852879946"><ele>208.0</ele><time>2026-04-06T13:03:50.969Z</time></trkpt><trkpt lat="45.806218038605685" lon="8.610144288225294"><ele>208.0</ele><time>2026-04-06T13:03:51.969Z</time></trkpt><trkpt lat="45.80608762972315" lon="8.610027458214534"><ele>208.0</ele><time>2026-04-06T13:03:52.969Z</time></trkpt><trkpt lat="45.80595889618358" lon="8.60992547713665"><ele>208.0</ele><time>2026-04-06T13:03:53.969Z</time></trkpt><trkpt lat="45.80582872528858" lon="8.60983420282392"><ele>208.0</ele><time>2026-04-06T13:03:54.969Z</time></trkpt><trkpt lat="45.80569368854026" lon="8.609747598904722"><ele>207.75</ele><time>2026-04-06T13:03:55.969Z</time></trkpt><trkpt lat="45.80555701045781" lon="8.609671742038788"><ele>207.5</ele><time>2026-04-06T13:03:56.969Z</time></trkpt><trkpt lat="45.80542089797377" lon="8.609603574951182"><ele>207.25</ele><time>2026-04-06T13:03:57.969Z</time></trkpt><trkpt lat="45.80528329167474" lon="8.609558822029069"><ele>207.0</ele><time>2026-04-06T13:03:58.969Z</time></trkpt><trkpt lat="45.80515103608883" lon="8.609532228827868"><ele>207.5</ele><time>2026-04-06T13:03:59.969Z</time></trkpt><trkpt lat="45.805020973353564" lon="8.609514955237277"><ele>208.0</ele><time>2026-04-06T13:04:00.969Z</time></trkpt><trkpt lat="45.8048864727788" lon="8.609502234149655"><ele>208.5</ele><time>2026-04-06T13:04:01.969Z</time></trkpt><trkpt lat="45.80474618537464" lon="8.609493982603698"><ele>209.0</ele><time>2026-04-06T13:04:02.969Z</time></trkpt><trkpt lat="45.80460260715706" lon="8.609489559343734"><ele>209.0</ele><time>2026-04-06T13:04:03.969Z</time></trkpt><trkpt lat="45.804463433687175" lon="8.60949069258756"><ele>209.0</ele><time>2026-04-06T13:04:04.969Z</time></trkpt><trkpt lat="45.80432897873555" lon="8.609497068549288"><ele>209.0</ele><time>2026-04-06T13:04:05.969Z</time></trkpt><trkpt lat="45.80420085239656" lon="8.609503081458545"><ele>209.0</ele><time>2026-04-06T13:04:06.969Z</time></trkpt><trkpt lat="45.80407775622012" lon="8.609508759070746"><ele>209.5</ele><time>2026-04-06T13:04:07.969Z</time></trkpt><trkpt lat="45.80395088906256" lon="8.609510712803731"><ele>210.0</ele><time>2026-04-06T13:04:08.969Z</time></trkpt><trkpt lat="45.80382004920269" lon="8.609487852273393"><ele>210.5</ele><time>2026-04-06T13:04:09.969Z</time></trkpt><trkpt lat="45.803677520268465" lon="8.609495842086334"><ele>211.0</ele><time>2026-04-06T13:04:10.969Z</time></trkpt><trkpt lat="45.803528926559366" lon="8.609504634294403"><ele>211.25</ele><time>2026-04-06T13:04:11.969Z</time></trkpt><trkpt lat="45.80338295445959" lon="8.609509507517856"><ele>211.5</ele><time>2026-04-06T13:04:12.969Z</time></trkpt><trkpt lat="45.80324538197881" lon="8.609514598679532"><ele>211.75</ele><time>2026-04-06T13:04:13.969Z</time></trkpt><trkpt lat="45.80312167517556" lon="8.609519450286722"><ele>212.0</ele><time>2026-04-06T13:04:14.969Z</time></trkpt><trkpt lat="45.80300801645139" lon="8.609520582813225"><ele>212.00000000000003</ele><time>2026-04-06T13:04:15.969Z</time></trkpt><trkpt lat="45.80290422564661" lon="8.609521872017758"><ele>212.0</ele><time>2026-04-06T13:04:16.969Z</time></trkpt><trkpt lat="45.80281279006664" lon="8.609523916843951"><ele>212.0</ele><time>2026-04-06T13:04:17.969Z</time></trkpt><trkpt lat="45.80273164270865" lon="8.609526813401335"><ele>212.0</ele><time>2026-04-06T13:04:18.969Z</time></trkpt><trkpt lat="45.802656391976434" lon="8.609530729397067"><ele>212.00000000000003</ele><time>2026-04-06T13:04:19.969Z</time></trkpt><trkpt lat="45.80258081086746" lon="8.609535955864585"><ele>212.0</ele><time>2026-04-06T13:04:20.969Z</time></trkpt><trkpt lat="45.80249468823828" lon="8.609542230598072"><ele>212.66666666666669</ele><time>2026-04-06T13:04:21.969Z</time></trkpt><trkpt lat="45.80239813534687" lon="8.609549723555059"><ele>213.33333333333334</ele><time>2026-04-06T13:04:22.969Z</time></trkpt><trkpt lat="45.802301914883316" lon="8.609555001932879"><ele>214.0</ele><time>2026-04-06T13:04:23.969Z</time></trkpt><trkpt lat="45.80221364288854" lon="8.609557386909733"><ele>214.66666666666669</ele><time>2026-04-06T13:04:24.969Z</time></trkpt><trkpt lat="45.802138062937225" lon="8.609535651458856"><ele>215.33333333333334</ele><time>2026-04-06T13:04:25.969Z</time></trkpt><trkpt lat="45.80205615125279" lon="8.609540362911149"><ele>216.0</ele><time>2026-04-06T13:04:26.969Z</time></trkpt><trkpt lat="45.801964941485124" lon="8.609542149883008"><ele>216.0</ele><time>2026-04-06T13:04:27.969Z</time></trkpt><trkpt lat="45.80186105293584" lon="8.609541002567065"><ele>216.0</ele><time>2026-04-06T13:04:28.968Z</time></trkpt><trkpt lat="45.80174218189844" lon="8.60955041008659"><ele>216.0</ele><time>2026-04-06T13:04:29.968Z</time></trkpt><trkpt lat="45.801613060220106" lon="8.609557903361482"><ele>216.0</ele><time>2026-04-06T13:04:30.968Z</time></trkpt><trkpt lat="45.80147388008334" lon="8.609559018676514"><ele>216.0</ele><time>2026-04-06T13:04:31.968Z</time></trkpt><trkpt lat="45.801333013148046" lon="8.609567889550712"><ele>216.0</ele><time>2026-04-06T13:04:32.968Z</time></trkpt><trkpt lat="45.80119679481016" lon="8.60957305935833"><ele>216.0</ele><time>2026-04-06T13:04:33.968Z</time></trkpt><trkpt lat="45.80106882372737" lon="8.609575995992001"><ele>216.0</ele><time>2026-04-06T13:04:34.968Z</time></trkpt><trkpt lat="45.80095192539295" lon="8.60958150589717"><ele>216.0</ele><time>2026-04-06T13:04:35.968Z</time></trkpt><trkpt lat="45.800838134522074" lon="8.60958524771963"><ele>216.0</ele><time>2026-04-06T13:04:36.968Z</time></trkpt><trkpt lat="45.800727616037264" lon="8.60958655830959"><ele>216.0</ele><time>2026-04-06T13:04:37.968Z</time></trkpt><trkpt lat="45.80061289029917" lon="8.60958190702227"><ele>216.0</ele><time>2026-04-06T13:04:38.968Z</time></trkpt><trkpt lat="45.80049555185565" lon="8.609557192700732"><ele>216.0</ele><time>2026-04-06T13:04:39.968Z</time></trkpt><trkpt lat="45.800372649811656" lon="8.609516109610746"><ele>216.0</ele><time>2026-04-06T13:04:40.968Z</time></trkpt><trkpt lat="45.800249847193015" lon="8.609449465817157"><ele>216.0</ele><time>2026-04-06T13:04:41.968Z</time></trkpt><trkpt lat="45.80012750029071" lon="8.609354677161335"><ele>216.0</ele><time>2026-04-06T13:04:42.968Z</time></trkpt><trkpt lat="45.800009780898044" lon="8.609230435340006"><ele>215.33333333333331</ele><time>2026-04-06T13:04:43.968Z</time></trkpt><trkpt lat="45.79989035232899" lon="8.609091997442123"><ele>214.66666666666666</ele><time>2026-04-06T13:04:44.968Z</time></trkpt><trkpt lat="45.799770701426866" lon="8.608945766783703"><ele>214.0</ele><time>2026-04-06T13:04:45.968Z</time></trkpt><trkpt lat="45.79965414275694" lon="8.608803063254872"><ele>213.33333333333331</ele><time>2026-04-06T13:04:46.968Z</time></trkpt><trkpt lat="45.799533207558476" lon="8.608649937963138"><ele>212.66666666666669</ele><time>2026-04-06T13:04:47.968Z</time></trkpt><trkpt lat="45.79940976615292" lon="8.608494175056125"><ele>212.0</ele><time>2026-04-06T13:04:48.968Z</time></trkpt><trkpt lat="45.799289318748905" lon="8.60833734845524"><ele>211.66666666666669</ele><time>2026-04-06T13:04:49.968Z</time></trkpt><trkpt lat="45.79916753463517" lon="8.608183075167476"><ele>211.33333333333331</ele><time>2026-04-06T13:04:50.968Z</time></trkpt><trkpt lat="45.79904390757903" lon="8.608025857476997"><ele>211.0</ele><time>2026-04-06T13:04:51.968Z</time></trkpt><trkpt lat="45.79891542079581" lon="8.607874753537558"><ele>211.66666666666666</ele><time>2026-04-06T13:04:52.968Z</time></trkpt><trkpt lat="45.79880440100096" lon="8.607702753278334"><ele>212.33333333333331</ele><time>2026-04-06T13:04:53.968Z</time></trkpt><trkpt lat="45.79867812178523" lon="8.607544850991255"><ele>213.0</ele><time>2026-04-06T13:04:54.968Z</time></trkpt><trkpt lat="45.79855079666474" lon="8.607393002946639"><ele>213.0</ele><time>2026-04-06T13:04:55.968Z</time></trkpt><trkpt lat="45.798424449751934" lon="8.607243320635979"><ele>213.0</ele><time>2026-04-06T13:04:56.968Z</time></trkpt><trkpt lat="45.798295676863056" lon="8.607098187879732"><ele>213.0</ele><time>2026-04-06T13:04:57.968Z</time></trkpt><trkpt lat="45.79818385538498" lon="8.606927469677666"><ele>214.0</ele><time>2026-04-06T13:04:58.968Z</time></trkpt><trkpt lat="45.79806097316759" lon="8.606772031713916"><ele>215.0</ele><time>2026-04-06T13:04:59.968Z</time></trkpt><trkpt lat="45.797931747333664" lon="8.606608552178882"><ele>216.0</ele><time>2026-04-06T13:05:00.968Z</time></trkpt><trkpt lat="45.797788660847225" lon="8.606427537869687"><ele>215.33333333333331</ele><time>2026-04-06T13:05:01.968Z</time></trkpt><trkpt lat="45.797637077190934" lon="8.60623577409392"><ele>214.66666666666666</ele><time>2026-04-06T13:05:02.968Z</time></trkpt><trkpt lat="45.79748405792712" lon="8.606042194285786"><ele>214.0</ele><time>2026-04-06T13:05:03.968Z</time></trkpt><trkpt lat="45.79733679321479" lon="8.605853960871377"><ele>214.0</ele><time>2026-04-06T13:05:04.968Z</time></trkpt><trkpt lat="45.797194401405264" lon="8.60567309834622"><ele>214.0</ele><time>2026-04-06T13:05:05.968Z</time></trkpt><trkpt lat="45.79705813851247" lon="8.605500885621861"><ele>214.0</ele><time>2026-04-06T13:05:06.968Z</time></trkpt><trkpt lat="45.79692943876933" lon="8.605336557217946"><ele>213.33333333333331</ele><time>2026-04-06T13:05:07.968Z</time></trkpt><trkpt lat="45.79679612746071" lon="8.60517157388134"><ele>212.66666666666669</ele><time>2026-04-06T13:05:08.969Z</time></trkpt><trkpt lat="45.796647371269366" lon="8.605005563777066"><ele>212.0</ele><time>2026-04-06T13:05:09.969Z</time></trkpt><trkpt lat="45.79647723555318" lon="8.604831998540023"><ele>212.0</ele><time>2026-04-06T13:05:10.969Z</time></trkpt><trkpt lat="45.79629093852236" lon="8.604657329259563"><ele>212.0</ele><time>2026-04-06T13:05:11.969Z</time></trkpt><trkpt lat="45.79610780790133" lon="8.60449617773514"><ele>212.0</ele><time>2026-04-06T13:05:12.969Z</time></trkpt><trkpt lat="45.79592615489085" lon="8.604333456068016"><ele>212.66666666666669</ele><time>2026-04-06T13:05:13.969Z</time></trkpt><trkpt lat="45.79575075568449" lon="8.604178109225636"><ele>213.33333333333331</ele><time>2026-04-06T13:05:14.969Z</time></trkpt><trkpt lat="45.79558163002205" lon="8.60402928023859"><ele>214.0</ele><time>2026-04-06T13:05:15.968Z</time></trkpt><trkpt lat="45.79541038646604" lon="8.603878493331743"><ele>214.0</ele><time>2026-04-06T13:05:16.968Z</time></trkpt><trkpt lat="45.79523810849451" lon="8.603726362666203"><ele>214.0</ele><time>2026-04-06T13:05:17.968Z</time></trkpt><trkpt lat="45.79506375547267" lon="8.603572399612752"><ele>214.0</ele><time>2026-04-06T13:05:18.968Z</time></trkpt><trkpt lat="45.79488141161661" lon="8.603435598698542"><ele>214.33333333333331</ele><time>2026-04-06T13:05:19.968Z</time></trkpt><trkpt lat="45.794705473821615" lon="8.603281681465297"><ele>214.66666666666669</ele><time>2026-04-06T13:05:20.968Z</time></trkpt><trkpt lat="45.794537184535855" lon="8.60310740921974"><ele>215.0</ele><time>2026-04-06T13:05:21.969Z</time></trkpt><trkpt lat="45.794360931036074" lon="8.602951767897888"><ele>215.33333333333334</ele><time>2026-04-06T13:05:22.969Z</time></trkpt><trkpt lat="45.79418424068828" lon="8.602795740851922"><ele>215.66666666666669</ele><time>2026-04-06T13:05:23.969Z</time></trkpt><trkpt lat="45.79400389698874" lon="8.60263648771761"><ele>216.0</ele><time>2026-04-06T13:05:24.969Z</time></trkpt><trkpt lat="45.79381908411127" lon="8.602473288010836"><ele>216.0</ele><time>2026-04-06T13:05:25.969Z</time></trkpt><trkpt lat="45.7936239619474" lon="8.60230098471301"><ele>216.0</ele><time>2026-04-06T13:05:26.969Z</time></trkpt><trkpt lat="45.79342043147651" lon="8.60212051731174"><ele>215.0</ele><time>2026-04-06T13:05:27.969Z</time></trkpt><trkpt lat="45.793207265518824" lon="8.601953855704497"><ele>214.0</ele><time>2026-04-06T13:05:28.969Z</time></trkpt><trkpt lat="45.793023936256844" lon="8.601745592467893"><ele>214.0</ele><time>2026-04-06T13:05:29.969Z</time></trkpt><trkpt lat="45.79283377230532" lon="8.601575146036552"><ele>214.0</ele><time>2026-04-06T13:05:30.968Z</time></trkpt><trkpt lat="45.79265056215727" lon="8.601418617121098"><ele>214.0</ele><time>2026-04-06T13:05:31.968Z</time></trkpt><trkpt lat="45.79247849470022" lon="8.601248074810352"><ele>214.66666666666666</ele><time>2026-04-06T13:05:32.968Z</time></trkpt><trkpt lat="45.792324569734376" lon="8.601064659265615"><ele>215.33333333333331</ele><time>2026-04-06T13:05:33.968Z</time></trkpt><trkpt lat="45.792180930117716" lon="8.600876269669286"><ele>216.0</ele><time>2026-04-06T13:05:34.968Z</time></trkpt><trkpt lat="45.79205052368517" lon="8.600684315330497"><ele>216.0</ele><time>2026-04-06T13:05:35.968Z</time></trkpt><trkpt lat="45.79192539885057" lon="8.600497056323022"><ele>216.0</ele><time>2026-04-06T13:05:36.968Z</time></trkpt><trkpt lat="45.791802447720755" lon="8.600316307820243"><ele>216.0</ele><time>2026-04-06T13:05:37.968Z</time></trkpt><trkpt lat="45.791679479995764" lon="8.600135806397937"><ele>214.33333333333331</ele><time>2026-04-06T13:05:38.968Z</time></trkpt><trkpt lat="45.791563469986215" lon="8.5999362621603"><ele>212.66666666666666</ele><time>2026-04-06T13:05:39.968Z</time></trkpt><trkpt lat="45.79144606105546" lon="8.599747260719278"><ele>211.0</ele><time>2026-04-06T13:05:40.968Z</time></trkpt><trkpt lat="45.791325902655764" lon="8.599564286234079"><ele>211.0</ele><time>2026-04-06T13:05:41.968Z</time></trkpt><trkpt lat="45.791205055682674" lon="8.59938648921"><ele>211.0</ele><time>2026-04-06T13:05:42.968Z</time></trkpt><trkpt lat="45.79108876777766" lon="8.599214915617967"><ele>211.0</ele><time>2026-04-06T13:05:43.968Z</time></trkpt><trkpt lat="45.79097442007178" lon="8.59904995770121"><ele>210.33333333333331</ele><time>2026-04-06T13:05:44.968Z</time></trkpt><trkpt lat="45.79085989549502" lon="8.598882312705113"><ele>209.66666666666669</ele><time>2026-04-06T13:05:45.968Z</time></trkpt><trkpt lat="45.790743387489236" lon="8.598715840339857"><ele>209.0</ele><time>2026-04-06T13:05:46.968Z</time></trkpt><trkpt lat="45.79061804404234" lon="8.598543471043133"><ele>209.0</ele><time>2026-04-06T13:05:47.968Z</time></trkpt><trkpt lat="45.79049232393489" lon="8.59836357509817"><ele>209.0</ele><time>2026-04-06T13:05:48.968Z</time></trkpt><trkpt lat="45.790372702960795" lon="8.598183091940367"><ele>209.0</ele><time>2026-04-06T13:05:49.968Z</time></trkpt><trkpt lat="45.79026150353769" lon="8.59800563629755"><ele>209.25</ele><time>2026-04-06T13:05:50.968Z</time></trkpt><trkpt lat="45.79015572105438" lon="8.597842196321896"><ele>209.5</ele><time>2026-04-06T13:05:51.968Z</time></trkpt><trkpt lat="45.79005441663251" lon="8.597689999687068"><ele>209.75</ele><time>2026-04-06T13:05:52.968Z</time></trkpt><trkpt lat="45.78995730289642" lon="8.597543591469451"><ele>210.0</ele><time>2026-04-06T13:05:53.968Z</time></trkpt><trkpt lat="45.78985584227744" lon="8.597387898278535"><ele>210.0</ele><time>2026-04-06T13:05:54.968Z</time></trkpt><trkpt lat="45.78975044989609" lon="8.597226100908959"><ele>210.0</ele><time>2026-04-06T13:05:55.968Z</time></trkpt><trkpt lat="45.78964164431861" lon="8.597066636654446"><ele>210.0</ele><time>2026-04-06T13:05:56.968Z</time></trkpt><trkpt lat="45.78953507824033" lon="8.596916550742952"><ele>210.0</ele><time>2026-04-06T13:05:57.968Z</time></trkpt><trkpt lat="45.78943178875198" lon="8.596768725009076"><ele>210.0</ele><time>2026-04-06T13:05:58.968Z</time></trkpt><trkpt lat="45.78932910926377" lon="8.596616752009782"><ele>210.0</ele><time>2026-04-06T13:05:59.968Z</time></trkpt><trkpt lat="45.789224632948475" lon="8.596462589948569"><ele>210.0</ele><time>2026-04-06T13:06:00.968Z</time></trkpt><trkpt lat="45.78912330831841" lon="8.596312156427727"><ele>209.75</ele><time>2026-04-06T13:06:01.968Z</time></trkpt><trkpt lat="45.78902480459139" lon="8.596164524455862"><ele>209.5</ele><time>2026-04-06T13:06:02.968Z</time></trkpt><trkpt lat="45.7889306672634" lon="8.596021836629296"><ele>209.25</ele><time>2026-04-06T13:06:03.968Z</time></trkpt><trkpt lat="45.78883994934541" lon="8.595884896459836"><ele>209.0</ele><time>2026-04-06T13:06:04.968Z</time></trkpt><trkpt lat="45.788765008382256" lon="8.595736127718371"><ele>209.0</ele><time>2026-04-06T13:06:05.968Z</time></trkpt><trkpt lat="45.7886711918478" lon="8.595603900009458"><ele>209.0</ele><time>2026-04-06T13:06:06.968Z</time></trkpt><trkpt lat="45.78857652575077" lon="8.595467911592642"><ele>209.0</ele><time>2026-04-06T13:06:07.968Z</time></trkpt><trkpt lat="45.788481682187744" lon="8.595327188298526"><ele>209.0</ele><time>2026-04-06T13:06:08.968Z</time></trkpt><trkpt lat="45.78837959132017" lon="8.595189597401383"><ele>209.5</ele><time>2026-04-06T13:06:09.968Z</time></trkpt><trkpt lat="45.788270841360045" lon="8.595059672930631"><ele>210.0</ele><time>2026-04-06T13:06:10.968Z</time></trkpt><trkpt lat="45.78815407606804" lon="8.594938340144134"><ele>210.5</ele><time>2026-04-06T13:06:11.968Z</time></trkpt><trkpt lat="45.78802781936065" lon="8.59483130513091"><ele>211.0</ele><time>2026-04-06T13:06:12.968Z</time></trkpt><trkpt lat="45.7878937562731" lon="8.594740204792872"><ele>211.0</ele><time>2026-04-06T13:06:13.968Z</time></trkpt><trkpt lat="45.787753163613445" lon="8.594664979970707"><ele>211.0</ele><time>2026-04-06T13:06:14.968Z</time></trkpt><trkpt lat="45.78760379060598" lon="8.594604911263833"><ele>211.0</ele><time>2026-04-06T13:06:15.968Z</time></trkpt><trkpt lat="45.78744810579101" lon="8.594549728955426"><ele>212.0</ele><time>2026-04-06T13:06:16.968Z</time></trkpt><trkpt lat="45.78729239367886" lon="8.594491043585512"><ele>213.0</ele><time>2026-04-06T13:06:17.968Z</time></trkpt><trkpt lat="45.78714133925186" lon="8.594433344203589"><ele>214.0</ele><time>2026-04-06T13:06:18.967Z</time></trkpt><trkpt lat="45.78699561221184" lon="8.594388397608444"><ele>214.0</ele><time>2026-04-06T13:06:19.967Z</time></trkpt><trkpt lat="45.78686012624925" lon="8.594349504318469"><ele>214.0</ele><time>2026-04-06T13:06:20.967Z</time></trkpt><trkpt lat="45.78673768279248" lon="8.594316909656484"><ele>214.0</ele><time>2026-04-06T13:06:21.967Z</time></trkpt><trkpt lat="45.78663017706598" lon="8.594287464642585"><ele>214.0</ele><time>2026-04-06T13:06:22.967Z</time></trkpt><trkpt lat="45.786532015299215" lon="8.594263565306836"><ele>213.99999999999997</ele><time>2026-04-06T13:06:23.967Z</time></trkpt><trkpt lat="45.78645224991093" lon="8.594246760539969"><ele>214.0</ele><time>2026-04-06T13:06:24.967Z</time></trkpt><trkpt lat="45.78638030542464" lon="8.59422704479385"><ele>214.0</ele><time>2026-04-06T13:06:25.967Z</time></trkpt><trkpt lat="45.78632276004747" lon="8.59418590317652"><ele>214.0</ele><time>2026-04-06T13:06:26.967Z</time></trkpt><trkpt lat="45.78624701078411" lon="8.59406682232497"><ele>213.99999999999997</ele><time>2026-04-06T13:06:28.967Z</time></trkpt><trkpt lat="45.78619752255163" lon="8.594007401493636"><ele>214.0</ele><time>2026-04-06T13:06:29.967Z</time></trkpt><trkpt lat="45.78612729761041" lon="8.59398056371815"><ele>213.99999999999997</ele><time>2026-04-06T13:06:30.967Z</time></trkpt><trkpt lat="45.78605822082235" lon="8.593976064648466"><ele>214.0</ele><time>2026-04-06T13:06:31.967Z</time></trkpt><trkpt lat="45.78598960144247" lon="8.59403026705485"><ele>214.0</ele><time>2026-04-06T13:06:32.967Z</time></trkpt><trkpt lat="45.78589651606134" lon="8.593990131769976"><ele>214.0</ele><time>2026-04-06T13:06:33.967Z</time></trkpt><trkpt lat="45.785813650012564" lon="8.593967458702702"><ele>213.99999999999997</ele><time>2026-04-06T13:06:34.967Z</time></trkpt><trkpt lat="45.78573300760546" lon="8.593942248754956"><ele>214.0</ele><time>2026-04-06T13:06:35.967Z</time></trkpt><trkpt lat="45.78564294355914" lon="8.593906778186089"><ele>214.0</ele><time>2026-04-06T13:06:36.967Z</time></trkpt><trkpt lat="45.78554231685171" lon="8.593865461541268"><ele>214.0</ele><time>2026-04-06T13:06:37.967Z</time></trkpt><trkpt lat="45.7854331277614" lon="8.593814933930313"><ele>214.0</ele><time>2026-04-06T13:06:38.967Z</time></trkpt><trkpt lat="45.78531964744059" lon="8.593750972209133"><ele>214.0</ele><time>2026-04-06T13:06:39.967Z</time></trkpt><trkpt lat="45.785204642431616" lon="8.593672500217215"><ele>214.75</ele><time>2026-04-06T13:06:40.967Z</time></trkpt><trkpt lat="45.785090501801065" lon="8.593579556971921"><ele>215.5</ele><time>2026-04-06T13:06:41.967Z</time></trkpt><trkpt lat="45.78497626633114" lon="8.59347205176006"><ele>216.25</ele><time>2026-04-06T13:06:42.967Z</time></trkpt><trkpt lat="45.78485739829948" lon="8.59336369053666"><ele>217.0</ele><time>2026-04-06T13:06:43.967Z</time></trkpt><trkpt lat="45.78474528500873" lon="8.59326311199071"><ele>217.0</ele><time>2026-04-06T13:06:44.967Z</time></trkpt><trkpt lat="45.784637015673155" lon="8.593166944983423"><ele>217.0</ele><time>2026-04-06T13:06:45.967Z</time></trkpt><trkpt lat="45.784516131175806" lon="8.593064008693261"><ele>217.0</ele><time>2026-04-06T13:06:46.967Z</time></trkpt><trkpt lat="45.78438444970055" lon="8.592959986878942"><ele>217.0</ele><time>2026-04-06T13:06:47.967Z</time></trkpt><trkpt lat="45.784242052459824" lon="8.5928306065886"><ele>218.66666666666666</ele><time>2026-04-06T13:06:48.967Z</time></trkpt><trkpt lat="45.784089934481166" lon="8.592688293406198"><ele>220.33333333333331</ele><time>2026-04-06T13:06:49.967Z</time></trkpt><trkpt lat="45.78394116972604" lon="8.592530515477339"><ele>222.0</ele><time>2026-04-06T13:06:50.967Z</time></trkpt><trkpt lat="45.78378540616342" lon="8.59238838549288"><ele>222.0</ele><time>2026-04-06T13:06:51.967Z</time></trkpt><trkpt lat="45.78363142238104" lon="8.592256880217787"><ele>222.0</ele><time>2026-04-06T13:06:52.967Z</time></trkpt><trkpt lat="45.783487515776855" lon="8.59212838450575"><ele>222.0</ele><time>2026-04-06T13:06:53.967Z</time></trkpt><trkpt lat="45.78335150293976" lon="8.592003632439697"><ele>222.66666666666669</ele><time>2026-04-06T13:06:54.967Z</time></trkpt><trkpt lat="45.783222674115244" lon="8.591866039388869"><ele>223.33333333333334</ele><time>2026-04-06T13:06:55.967Z</time></trkpt><trkpt lat="45.78309792323084" lon="8.591711462474615"><ele>224.0</ele><time>2026-04-06T13:06:56.967Z</time></trkpt><trkpt lat="45.782978737163276" lon="8.591544418426153"><ele>224.0</ele><time>2026-04-06T13:06:57.967Z</time></trkpt><trkpt lat="45.782877844906444" lon="8.591359604647057"><ele>224.0</ele><time>2026-04-06T13:06:58.967Z</time></trkpt><trkpt lat="45.78275557343798" lon="8.591184845773132"><ele>224.0</ele><time>2026-04-06T13:06:59.967Z</time></trkpt><trkpt lat="45.78263401181373" lon="8.591007078852382"><ele>223.66666666666669</ele><time>2026-04-06T13:07:00.967Z</time></trkpt><trkpt lat="45.782512172707555" lon="8.590832113906805"><ele>223.33333333333331</ele><time>2026-04-06T13:07:01.967Z</time></trkpt><trkpt lat="45.78239276391176" lon="8.59066238716455"><ele>223.0</ele><time>2026-04-06T13:07:02.967Z</time></trkpt><trkpt lat="45.78227513510798" lon="8.59049751439521"><ele>222.66666666666666</ele><time>2026-04-06T13:07:03.967Z</time></trkpt><trkpt lat="45.78215688658977" lon="8.590336465859716"><ele>222.33333333333331</ele><time>2026-04-06T13:07:04.967Z</time></trkpt><trkpt lat="45.782041925903854" lon="8.590175952700832"><ele>222.0</ele><time>2026-04-06T13:07:05.966Z</time></trkpt><trkpt lat="45.78193050759292" lon="8.590017919595752"><ele>222.0</ele><time>2026-04-06T13:07:06.966Z</time></trkpt><trkpt lat="45.78182009096298" lon="8.589863908858657"><ele>222.0</ele><time>2026-04-06T13:07:07.966Z</time></trkpt><trkpt lat="45.781711955230286" lon="8.58971191184744"><ele>222.0</ele><time>2026-04-06T13:07:08.966Z</time></trkpt><trkpt lat="45.78160549875548" lon="8.589556123080188"><ele>222.66666666666669</ele><time>2026-04-06T13:07:09.966Z</time></trkpt><trkpt lat="45.78149799075211" lon="8.589400750973727"><ele>223.33333333333334</ele><time>2026-04-06T13:07:10.966Z</time></trkpt><trkpt lat="45.781387154558495" lon="8.58924621262947"><ele>224.0</ele><time>2026-04-06T13:07:11.966Z</time></trkpt><trkpt lat="45.781279777705436" lon="8.589090644236501"><ele>224.0</ele><time>2026-04-06T13:07:12.966Z</time></trkpt><trkpt lat="45.781172077729714" lon="8.58893221962246"><ele>224.0</ele><time>2026-04-06T13:07:13.966Z</time></trkpt><trkpt lat="45.78106147203109" lon="8.58877815924352"><ele>224.0</ele><time>2026-04-06T13:07:14.967Z</time></trkpt><trkpt lat="45.78095363844697" lon="8.588626794934374"><ele>223.75</ele><time>2026-04-06T13:07:15.967Z</time></trkpt><trkpt lat="45.78086731134449" lon="8.588464430942178"><ele>223.5</ele><time>2026-04-06T13:07:16.967Z</time></trkpt><trkpt lat="45.780767576750875" lon="8.588323631903542"><ele>223.25</ele><time>2026-04-06T13:07:17.967Z</time></trkpt><trkpt lat="45.78066403136546" lon="8.58818522854072"><ele>223.0</ele><time>2026-04-06T13:07:18.967Z</time></trkpt><trkpt lat="45.780562227724566" lon="8.588039414490247"><ele>223.0</ele><time>2026-04-06T13:07:19.967Z</time></trkpt><trkpt lat="45.78046786573195" lon="8.587905611557836"><ele>223.0</ele><time>2026-04-06T13:07:20.967Z</time></trkpt><trkpt lat="45.78037995977552" lon="8.587780387809897"><ele>223.0</ele><time>2026-04-06T13:07:21.967Z</time></trkpt><trkpt lat="45.780295886618596" lon="8.587656163979423"><ele>223.0</ele><time>2026-04-06T13:07:22.967Z</time></trkpt><trkpt lat="45.780212033089995" lon="8.587534664811345"><ele>222.75</ele><time>2026-04-06T13:07:23.967Z</time></trkpt><trkpt lat="45.78012623348344" lon="8.5874175245194"><ele>222.5</ele><time>2026-04-06T13:07:24.967Z</time></trkpt><trkpt lat="45.780039452000935" lon="8.587295593863901"><ele>222.25</ele><time>2026-04-06T13:07:25.967Z</time></trkpt><trkpt lat="45.77995181388369" lon="8.587170487487723"><ele>222.0</ele><time>2026-04-06T13:07:26.967Z</time></trkpt><trkpt lat="45.77985786857482" lon="8.58704857809511"><ele>222.0</ele><time>2026-04-06T13:07:27.967Z</time></trkpt><trkpt lat="45.77975743659984" lon="8.586938152714678"><ele>222.0</ele><time>2026-04-06T13:07:28.967Z</time></trkpt><trkpt lat="45.77964992850513" lon="8.586846829918878"><ele>222.0</ele><time>2026-04-06T13:07:29.967Z</time></trkpt><trkpt lat="45.77952704410935" lon="8.586790714761518"><ele>222.0</ele><time>2026-04-06T13:07:30.967Z</time></trkpt><trkpt lat="45.77938821362349" lon="8.586773621275333"><ele>221.33333333333331</ele><time>2026-04-06T13:07:31.967Z</time></trkpt><trkpt lat="45.77923999972355" lon="8.586778591602323"><ele>220.66666666666666</ele><time>2026-04-06T13:07:32.967Z</time></trkpt><trkpt lat="45.77908425223986" lon="8.586799457374122"><ele>220.0</ele><time>2026-04-06T13:07:33.967Z</time></trkpt><trkpt lat="45.778927682804806" lon="8.586837883345753"><ele>220.0</ele><time>2026-04-06T13:07:34.967Z</time></trkpt><trkpt lat="45.778771629871784" lon="8.586899594129777"><ele>220.0</ele><time>2026-04-06T13:07:35.967Z</time></trkpt><trkpt lat="45.778615962723855" lon="8.586993087725288"><ele>220.0</ele><time>2026-04-06T13:07:36.967Z</time></trkpt><trkpt lat="45.77845681898007" lon="8.58709387611435"><ele>219.66666666666666</ele><time>2026-04-06T13:07:37.966Z</time></trkpt><trkpt lat="45.778292511669704" lon="8.587191757749128"><ele>219.33333333333331</ele><time>2026-04-06T13:07:38.966Z</time></trkpt><trkpt lat="45.77813076947567" lon="8.587285395259858"><ele>219.0</ele><time>2026-04-06T13:07:39.966Z</time></trkpt><trkpt lat="45.7779690688656" lon="8.587379241775539"><ele>219.0</ele><time>2026-04-06T13:07:40.966Z</time></trkpt><trkpt lat="45.777803621164274" lon="8.587475903413292"><ele>219.0</ele><time>2026-04-06T13:07:41.966Z</time></trkpt><trkpt lat="45.77763758608434" lon="8.587573379965118"><ele>219.0</ele><time>2026-04-06T13:07:42.966Z</time></trkpt><trkpt lat="45.777469472544674" lon="8.587672327043112"><ele>218.66666666666669</ele><time>2026-04-06T13:07:43.966Z</time></trkpt><trkpt lat="45.777299974593504" lon="8.587773683413735"><ele>218.33333333333334</ele><time>2026-04-06T13:07:44.966Z</time></trkpt><trkpt lat="45.77713076553931" lon="8.587875172490465"><ele>218.0</ele><time>2026-04-06T13:07:45.966Z</time></trkpt><trkpt lat="45.77695885554254" lon="8.587977442184446"><ele>217.0</ele><time>2026-04-06T13:07:46.966Z</time></trkpt><trkpt lat="45.776790089989255" lon="8.588084883087815"><ele>216.0</ele><time>2026-04-06T13:07:47.966Z</time></trkpt><trkpt lat="45.77662353496886" lon="8.588194415320224"><ele>215.0</ele><time>2026-04-06T13:07:48.966Z</time></trkpt><trkpt lat="45.7764578794004" lon="8.588302549015998"><ele>215.0</ele><time>2026-04-06T13:07:49.966Z</time></trkpt><trkpt lat="45.77629458983106" lon="8.588405371561247"><ele>215.0</ele><time>2026-04-06T13:07:50.966Z</time></trkpt><trkpt lat="45.77613518924792" lon="8.588502953987438"><ele>215.0</ele><time>2026-04-06T13:07:51.966Z</time></trkpt><trkpt lat="45.776005111383945" lon="8.588628708487674"><ele>214.0</ele><time>2026-04-06T13:07:52.966Z</time></trkpt><trkpt lat="45.77589476113746" lon="8.588757467939459"><ele>213.0</ele><time>2026-04-06T13:07:53.966Z</time></trkpt><trkpt lat="45.77578633004383" lon="8.58889336483203"><ele>212.0</ele><time>2026-04-06T13:07:54.966Z</time></trkpt><trkpt lat="45.775613317704455" lon="8.588800380104798"><ele>212.0</ele><time>2026-04-06T13:07:55.966Z</time></trkpt><trkpt lat="45.775509407220774" lon="8.588863391733849"><ele>212.0</ele><time>2026-04-06T13:07:56.966Z</time></trkpt><trkpt lat="45.775422827025366" lon="8.58895139075474"><ele>212.0</ele><time>2026-04-06T13:07:57.966Z</time></trkpt><trkpt lat="45.775356255356414" lon="8.58929819212866"><ele>210.66666666666669</ele><time>2026-04-06T13:07:58.966Z</time></trkpt><trkpt lat="45.77511996419981" lon="8.589327586341446"><ele>209.33333333333331</ele><time>2026-04-06T13:08:01.966Z</time></trkpt><trkpt lat="45.77501877494972" lon="8.589385054866097"><ele>208.0</ele><time>2026-04-06T13:08:02.966Z</time></trkpt><trkpt lat="45.77491967927453" lon="8.589473382605927"><ele>208.0</ele><time>2026-04-06T13:08:03.966Z</time></trkpt><trkpt lat="45.77469450805747" lon="8.58949294430911"><ele>208.0</ele><time>2026-04-06T13:08:04.966Z</time></trkpt><trkpt lat="45.77463435664884" lon="8.589622564936468"><ele>208.0</ele><time>2026-04-06T13:08:05.966Z</time></trkpt><trkpt lat="45.7745746256817" lon="8.58976524467463"><ele>207.75</ele><time>2026-04-06T13:08:06.966Z</time></trkpt><trkpt lat="45.774511015790736" lon="8.589929380349384"><ele>207.5</ele><time>2026-04-06T13:08:07.966Z</time></trkpt><trkpt lat="45.774450244230714" lon="8.590111084301697"><ele>207.25</ele><time>2026-04-06T13:08:08.966Z</time></trkpt><trkpt lat="45.77438847373024" lon="8.590291758962186"><ele>207.0</ele><time>2026-04-06T13:08:09.966Z</time></trkpt><trkpt lat="45.77432891743005" lon="8.590472789133171"><ele>207.0</ele><time>2026-04-06T13:08:10.966Z</time></trkpt><trkpt lat="45.77426586570625" lon="8.59065342657526"><ele>207.0</ele><time>2026-04-06T13:08:11.966Z</time></trkpt><trkpt lat="45.774199358683816" lon="8.590838203249112"><ele>207.0</ele><time>2026-04-06T13:08:12.966Z</time></trkpt><trkpt lat="45.77413465239595" lon="8.591029994089062"><ele>207.0</ele><time>2026-04-06T13:08:13.966Z</time></trkpt><trkpt lat="45.774061590036766" lon="8.591214656649486"><ele>207.25</ele><time>2026-04-06T13:08:14.966Z</time></trkpt><trkpt lat="45.77398007536492" lon="8.591393207813962"><ele>207.5</ele><time>2026-04-06T13:08:15.966Z</time></trkpt><trkpt lat="45.77389413266881" lon="8.591564594238111"><ele>207.75</ele><time>2026-04-06T13:08:16.966Z</time></trkpt><trkpt lat="45.77379782408475" lon="8.591720424431172"><ele>208.0</ele><time>2026-04-06T13:08:17.966Z</time></trkpt><trkpt lat="45.77369759718074" lon="8.591871319065712"><ele>207.75</ele><time>2026-04-06T13:08:18.966Z</time></trkpt><trkpt lat="45.77359150391399" lon="8.592013538760161"><ele>207.5</ele><time>2026-04-06T13:08:19.966Z</time></trkpt><trkpt lat="45.77347612704643" lon="8.59214221957496"><ele>207.25</ele><time>2026-04-06T13:08:20.966Z</time></trkpt><trkpt lat="45.77335698779632" lon="8.592259275346441"><ele>207.0</ele><time>2026-04-06T13:08:21.966Z</time></trkpt><trkpt lat="45.77323100460079" lon="8.592364448410038"><ele>207.0</ele><time>2026-04-06T13:08:22.966Z</time></trkpt><trkpt lat="45.77309696484358" lon="8.59246518765313"><ele>207.0</ele><time>2026-04-06T13:08:23.966Z</time></trkpt><trkpt lat="45.77295911951874" lon="8.5925562927049"><ele>207.0</ele><time>2026-04-06T13:08:24.965Z</time></trkpt><trkpt lat="45.772820268458005" lon="8.592640596525474"><ele>207.33333333333331</ele><time>2026-04-06T13:08:25.965Z</time></trkpt><trkpt lat="45.77267781851211" lon="8.592738195795912"><ele>207.66666666666666</ele><time>2026-04-06T13:08:26.965Z</time></trkpt><trkpt lat="45.77252225128595" lon="8.5928259081707"><ele>208.0</ele><time>2026-04-06T13:08:27.965Z</time></trkpt><trkpt lat="45.77237919590555" lon="8.592931358148656"><ele>208.33333333333331</ele><time>2026-04-06T13:08:28.965Z</time></trkpt><trkpt lat="45.77223230818716" lon="8.593029301798756"><ele>208.66666666666669</ele><time>2026-04-06T13:08:29.965Z</time></trkpt><trkpt lat="45.77208249967964" lon="8.593130614998696"><ele>209.0</ele><time>2026-04-06T13:08:30.965Z</time></trkpt><trkpt lat="45.771933334473516" lon="8.59323892567853"><ele>209.33333333333334</ele><time>2026-04-06T13:08:31.965Z</time></trkpt><trkpt lat="45.77178535256276" lon="8.59334040187825"><ele>209.66666666666669</ele><time>2026-04-06T13:08:32.965Z</time></trkpt><trkpt lat="45.77164097668526" lon="8.593443565732349"><ele>210.0</ele><time>2026-04-06T13:08:33.965Z</time></trkpt><trkpt lat="45.77150265290512" lon="8.593539977796727"><ele>210.0</ele><time>2026-04-06T13:08:34.965Z</time></trkpt><trkpt lat="45.7713594008396" lon="8.593639512255024"><ele>210.0</ele><time>2026-04-06T13:08:35.965Z</time></trkpt><trkpt lat="45.77121470236527" lon="8.593745656910906"><ele>210.0</ele><time>2026-04-06T13:08:36.965Z</time></trkpt><trkpt lat="45.77106295374901" lon="8.593850259769573"><ele>210.0</ele><time>2026-04-06T13:08:37.965Z</time></trkpt><trkpt lat="45.770911521801686" lon="8.59395400740292"><ele>210.0</ele><time>2026-04-06T13:08:38.965Z</time></trkpt><trkpt lat="45.7707603819617" lon="8.594062308688736"><ele>210.0</ele><time>2026-04-06T13:08:39.965Z</time></trkpt><trkpt lat="45.770610006012404" lon="8.594171742565283"><ele>210.0</ele><time>2026-04-06T13:08:40.965Z</time></trkpt><trkpt lat="45.77046201068917" lon="8.59427843835007"><ele>210.0</ele><time>2026-04-06T13:08:41.965Z</time></trkpt><trkpt lat="45.77030691020913" lon="8.594381079111004"><ele>210.0</ele><time>2026-04-06T13:08:42.965Z</time></trkpt><trkpt lat="45.770151265197924" lon="8.594482809529737"><ele>209.66666666666669</ele><time>2026-04-06T13:08:43.965Z</time></trkpt><trkpt lat="45.76999548013777" lon="8.594583802190169"><ele>209.33333333333334</ele><time>2026-04-06T13:08:44.965Z</time></trkpt><trkpt lat="45.7698420294695" lon="8.594688595780243"><ele>209.0</ele><time>2026-04-06T13:08:45.965Z</time></trkpt><trkpt lat="45.76968748042093" lon="8.594791862928426"><ele>209.0</ele><time>2026-04-06T13:08:46.965Z</time></trkpt><trkpt lat="45.769531975075" lon="8.594887968631339"><ele>209.0</ele><time>2026-04-06T13:08:47.965Z</time></trkpt><trkpt lat="45.76937776944403" lon="8.594969700936845"><ele>209.0</ele><time>2026-04-06T13:08:48.965Z</time></trkpt><trkpt lat="45.76922118219705" lon="8.595039263620667"><ele>209.0</ele><time>2026-04-06T13:08:49.965Z</time></trkpt><trkpt lat="45.76906322846083" lon="8.595090624993766"><ele>209.0</ele><time>2026-04-06T13:08:50.965Z</time></trkpt><trkpt lat="45.76889960992457" lon="8.595137970457836"><ele>209.0</ele><time>2026-04-06T13:08:51.965Z</time></trkpt><trkpt lat="45.768737648869084" lon="8.595185485765064"><ele>209.0</ele><time>2026-04-06T13:08:52.965Z</time></trkpt><trkpt lat="45.76857373793114" lon="8.59523717757824"><ele>209.0</ele><time>2026-04-06T13:08:53.965Z</time></trkpt><trkpt lat="45.7684087656972" lon="8.595287166593117"><ele>209.0</ele><time>2026-04-06T13:08:54.965Z</time></trkpt><trkpt lat="45.76824436634994" lon="8.595333627724965"><ele>209.0</ele><time>2026-04-06T13:08:55.965Z</time></trkpt><trkpt lat="45.76808078678971" lon="8.595382520425703"><ele>209.0</ele><time>2026-04-06T13:08:56.965Z</time></trkpt><trkpt lat="45.76791905356986" lon="8.595431120547088"><ele>209.0</ele><time>2026-04-06T13:08:57.965Z</time></trkpt><trkpt lat="45.76775825415414" lon="8.595481074464647"><ele>208.66666666666669</ele><time>2026-04-06T13:08:58.965Z</time></trkpt><trkpt lat="45.76759778476517" lon="8.595529176511901"><ele>208.33333333333331</ele><time>2026-04-06T13:08:59.965Z</time></trkpt><trkpt lat="45.767429135547566" lon="8.595572515186738"><ele>208.0</ele><time>2026-04-06T13:09:00.965Z</time></trkpt><trkpt lat="45.76726168327766" lon="8.595618645708658"><ele>208.0</ele><time>2026-04-06T13:09:01.965Z</time></trkpt><trkpt lat="45.76708334143447" lon="8.59567250054063"><ele>208.0</ele><time>2026-04-06T13:09:02.965Z</time></trkpt><trkpt lat="45.76690122466121" lon="8.595731957879535"><ele>208.0</ele><time>2026-04-06T13:09:03.965Z</time></trkpt><trkpt lat="45.76672128158522" lon="8.595792660531966"><ele>207.33333333333331</ele><time>2026-04-06T13:09:04.965Z</time></trkpt><trkpt lat="45.766535899563884" lon="8.595870593933238"><ele>206.66666666666669</ele><time>2026-04-06T13:09:05.965Z</time></trkpt><trkpt lat="45.76635006273933" lon="8.595961130059608"><ele>206.0</ele><time>2026-04-06T13:09:06.965Z</time></trkpt><trkpt lat="45.76616135626386" lon="8.596061079386773"><ele>207.0</ele><time>2026-04-06T13:09:07.965Z</time></trkpt><trkpt lat="45.76599175192297" lon="8.596181825149676"><ele>208.0</ele><time>2026-04-06T13:09:08.965Z</time></trkpt><trkpt lat="45.76582389655371" lon="8.59631035855485"><ele>209.0</ele><time>2026-04-06T13:09:09.965Z</time></trkpt><trkpt lat="45.76566311660331" lon="8.596439154257583"><ele>209.0</ele><time>2026-04-06T13:09:10.965Z</time></trkpt><trkpt lat="45.765504945569376" lon="8.596587580946249"><ele>209.0</ele><time>2026-04-06T13:09:11.964Z</time></trkpt><trkpt lat="45.7653392313814" lon="8.596742677590305"><ele>209.0</ele><time>2026-04-06T13:09:12.964Z</time></trkpt><trkpt lat="45.76517783753403" lon="8.596883741435287"><ele>209.66666666666669</ele><time>2026-04-06T13:09:13.964Z</time></trkpt><trkpt lat="45.765021981734925" lon="8.597026656232359"><ele>210.33333333333331</ele><time>2026-04-06T13:09:14.964Z</time></trkpt><trkpt lat="45.76487150055872" lon="8.597162426684683"><ele>211.0</ele><time>2026-04-06T13:09:15.964Z</time></trkpt><trkpt lat="45.764718133692675" lon="8.597298621517037"><ele>211.0</ele><time>2026-04-06T13:09:16.964Z</time></trkpt><trkpt lat="45.764566811978206" lon="8.597431422337666"><ele>211.0</ele><time>2026-04-06T13:09:17.964Z</time></trkpt><trkpt lat="45.764424865285015" lon="8.597559619148626"><ele>211.0</ele><time>2026-04-06T13:09:18.964Z</time></trkpt><trkpt lat="45.76428022411186" lon="8.597687639735168"><ele>210.33333333333331</ele><time>2026-04-06T13:09:19.964Z</time></trkpt><trkpt lat="45.76413891893304" lon="8.597815311562584"><ele>209.66666666666669</ele><time>2026-04-06T13:09:20.966Z</time></trkpt><trkpt lat="45.76400090718301" lon="8.597942949263807"><ele>209.0</ele><time>2026-04-06T13:09:21.966Z</time></trkpt><trkpt lat="45.763857748177536" lon="8.598072113951432"><ele>209.0</ele><time>2026-04-06T13:09:22.966Z</time></trkpt><trkpt lat="45.76371833472694" lon="8.598201267397853"><ele>209.0</ele><time>2026-04-06T13:09:23.966Z</time></trkpt><trkpt lat="45.76357445371424" lon="8.598331465344527"><ele>209.0</ele><time>2026-04-06T13:09:24.966Z</time></trkpt><trkpt lat="45.76342752629448" lon="8.598461951029035"><ele>209.0</ele><time>2026-04-06T13:09:25.966Z</time></trkpt><trkpt lat="45.76328237198482" lon="8.598594960833891"><ele>209.0</ele><time>2026-04-06T13:09:26.965Z</time></trkpt><trkpt lat="45.763130386230934" lon="8.59872551005444"><ele>209.0</ele><time>2026-04-06T13:09:27.965Z</time></trkpt><trkpt lat="45.762982752028556" lon="8.59885580709315"><ele>209.0</ele><time>2026-04-06T13:09:28.965Z</time></trkpt><trkpt lat="45.76282933654542" lon="8.598989274109702"><ele>209.0</ele><time>2026-04-06T13:09:29.965Z</time></trkpt><trkpt lat="45.76267367891449" lon="8.599114807935079"><ele>209.0</ele><time>2026-04-06T13:09:30.966Z</time></trkpt><trkpt lat="45.76251622566464" lon="8.59923753943064"><ele>209.66666666666669</ele><time>2026-04-06T13:09:31.966Z</time></trkpt><trkpt lat="45.762355802568635" lon="8.599356424796355"><ele>210.33333333333331</ele><time>2026-04-06T13:09:32.965Z</time></trkpt><trkpt lat="45.762189462722354" lon="8.599456020232285"><ele>211.0</ele><time>2026-04-06T13:09:33.965Z</time></trkpt><trkpt lat="45.76202518891341" lon="8.599541086520349"><ele>210.33333333333331</ele><time>2026-04-06T13:09:34.965Z</time></trkpt><trkpt lat="45.76185768797488" lon="8.599621488901759"><ele>209.66666666666669</ele><time>2026-04-06T13:09:35.965Z</time></trkpt><trkpt lat="45.7616883232595" lon="8.599697757678886"><ele>209.0</ele><time>2026-04-06T13:09:36.965Z</time></trkpt><trkpt lat="45.76151613159044" lon="8.599766163394882"><ele>209.0</ele><time>2026-04-06T13:09:37.965Z</time></trkpt><trkpt lat="45.76134333825123" lon="8.599823956545592"><ele>209.0</ele><time>2026-04-06T13:09:38.965Z</time></trkpt><trkpt lat="45.76117354440848" lon="8.599871686742418"><ele>209.0</ele><time>2026-04-06T13:09:39.965Z</time></trkpt><trkpt lat="45.76100061513237" lon="8.599912095186744"><ele>208.33333333333334</ele><time>2026-04-06T13:09:40.965Z</time></trkpt><trkpt lat="45.76082417101888" lon="8.599948114464805"><ele>207.66666666666669</ele><time>2026-04-06T13:09:41.965Z</time></trkpt><trkpt lat="45.76065065999052" lon="8.599965540891672"><ele>207.0</ele><time>2026-04-06T13:09:42.965Z</time></trkpt><trkpt lat="45.760471329428356" lon="8.59999419652183"><ele>207.0</ele><time>2026-04-06T13:09:43.965Z</time></trkpt><trkpt lat="45.76028961558423" lon="8.600017430416715"><ele>207.0</ele><time>2026-04-06T13:09:44.965Z</time></trkpt><trkpt lat="45.76010725770279" lon="8.60003058119323"><ele>207.0</ele><time>2026-04-06T13:09:45.965Z</time></trkpt><trkpt lat="45.759924537929855" lon="8.600031264968177"><ele>207.33333333333331</ele><time>2026-04-06T13:09:46.965Z</time></trkpt><trkpt lat="45.759745969663015" lon="8.600015169723298"><ele>207.66666666666666</ele><time>2026-04-06T13:09:47.965Z</time></trkpt><trkpt lat="45.759569157282264" lon="8.599995313735425"><ele>208.0</ele><time>2026-04-06T13:09:48.965Z</time></trkpt><trkpt lat="45.75939179618612" lon="8.599976938769299"><ele>208.66666666666666</ele><time>2026-04-06T13:09:49.965Z</time></trkpt><trkpt lat="45.75921538888955" lon="8.599960335374224"><ele>209.33333333333331</ele><time>2026-04-06T13:09:50.965Z</time></trkpt><trkpt lat="45.75903733699966" lon="8.599943998314998"><ele>210.0</ele><time>2026-04-06T13:09:51.965Z</time></trkpt><trkpt lat="45.75885635485428" lon="8.599928742247828"><ele>210.0</ele><time>2026-04-06T13:09:52.965Z</time></trkpt><trkpt lat="45.75867582046418" lon="8.599911619447811"><ele>210.0</ele><time>2026-04-06T13:09:53.965Z</time></trkpt><trkpt lat="45.758496262019534" lon="8.599895019492195"><ele>210.0</ele><time>2026-04-06T13:09:54.965Z</time></trkpt><trkpt lat="45.75831863285422" lon="8.599878946448184"><ele>210.33333333333331</ele><time>2026-04-06T13:09:55.965Z</time></trkpt><trkpt lat="45.75814137877844" lon="8.599857023937014"><ele>210.66666666666666</ele><time>2026-04-06T13:09:56.965Z</time></trkpt><trkpt lat="45.7579641035114" lon="8.599839715891457"><ele>211.0</ele><time>2026-04-06T13:09:57.965Z</time></trkpt><trkpt lat="45.757784602260465" lon="8.599824498653856"><ele>210.66666666666666</ele><time>2026-04-06T13:09:58.965Z</time></trkpt><trkpt lat="45.75760689450717" lon="8.599806577035922"><ele>210.33333333333331</ele><time>2026-04-06T13:09:59.965Z</time></trkpt><trkpt lat="45.75742888811557" lon="8.599785554352437"><ele>210.0</ele><time>2026-04-06T13:10:00.965Z</time></trkpt><trkpt lat="45.75726044662272" lon="8.599741741969188"><ele>210.0</ele><time>2026-04-06T13:10:01.965Z</time></trkpt><trkpt lat="45.75708128517035" lon="8.599725349244734"><ele>210.0</ele><time>2026-04-06T13:10:02.965Z</time></trkpt><trkpt lat="45.756905061568915" lon="8.599707503513866"><ele>210.0</ele><time>2026-04-06T13:10:03.965Z</time></trkpt><trkpt lat="45.756728980735836" lon="8.599681330642424"><ele>210.66666666666669</ele><time>2026-04-06T13:10:04.965Z</time></trkpt><trkpt lat="45.75655484605686" lon="8.599648808289004"><ele>211.33333333333334</ele><time>2026-04-06T13:10:05.965Z</time></trkpt><trkpt lat="45.756384534025095" lon="8.599606003929697"><ele>212.0</ele><time>2026-04-06T13:10:06.965Z</time></trkpt><trkpt lat="45.75621658686947" lon="8.59955535280951"><ele>212.0</ele><time>2026-04-06T13:10:07.965Z</time></trkpt><trkpt lat="45.75604542141163" lon="8.599501270855084"><ele>212.0</ele><time>2026-04-06T13:10:08.965Z</time></trkpt><trkpt lat="45.75587450348471" lon="8.599435295072182"><ele>212.0</ele><time>2026-04-06T13:10:09.965Z</time></trkpt><trkpt lat="45.75569522213585" lon="8.599363415380576"><ele>212.0</ele><time>2026-04-06T13:10:10.965Z</time></trkpt><trkpt lat="45.75551890787845" lon="8.599280350521475"><ele>212.0</ele><time>2026-04-06T13:10:11.965Z</time></trkpt><trkpt lat="45.7553367324487" lon="8.599199353669585"><ele>212.0</ele><time>2026-04-06T13:10:12.965Z</time></trkpt><trkpt lat="45.75514137816959" lon="8.599113904300033"><ele>212.5</ele><time>2026-04-06T13:10:13.965Z</time></trkpt><trkpt lat="45.75493196135265" lon="8.598997422205024"><ele>213.0</ele><time>2026-04-06T13:10:14.965Z</time></trkpt><trkpt lat="45.754713933049" lon="8.598894518290306"><ele>213.0</ele><time>2026-04-06T13:10:15.965Z</time></trkpt><trkpt lat="45.75448198861285" lon="8.59878553069545"><ele>213.0</ele><time>2026-04-06T13:10:16.965Z</time></trkpt><trkpt lat="45.75426310753527" lon="8.598682681431253"><ele>211.66666666666669</ele><time>2026-04-06T13:10:17.965Z</time></trkpt><trkpt lat="45.754053928629496" lon="8.598606104557227"><ele>210.33333333333334</ele><time>2026-04-06T13:10:18.964Z</time></trkpt><trkpt lat="45.75386470672815" lon="8.598510114028109"><ele>209.0</ele><time>2026-04-06T13:10:19.964Z</time></trkpt><trkpt lat="45.753696861623325" lon="8.598431658728236"><ele>209.0</ele><time>2026-04-06T13:10:20.964Z</time></trkpt><trkpt lat="45.7535606896674" lon="8.598367873396917"><ele>209.0</ele><time>2026-04-06T13:10:21.964Z</time></trkpt><trkpt lat="45.753440168183744" lon="8.598308227153215"><ele>209.0</ele><time>2026-04-06T13:10:22.964Z</time></trkpt><trkpt lat="45.753316360706506" lon="8.598250092761479"><ele>209.0</ele><time>2026-04-06T13:10:23.964Z</time></trkpt><trkpt lat="45.75318997131596" lon="8.598192502151218"><ele>209.25</ele><time>2026-04-06T13:10:24.964Z</time></trkpt><trkpt lat="45.75305300759456" lon="8.598128819113873"><ele>209.5</ele><time>2026-04-06T13:10:25.964Z</time></trkpt><trkpt lat="45.752911725370645" lon="8.598057803584053"><ele>209.75</ele><time>2026-04-06T13:10:26.964Z</time></trkpt><trkpt lat="45.75276541058486" lon="8.59798515450782"><ele>210.0</ele><time>2026-04-06T13:10:27.964Z</time></trkpt><trkpt lat="45.7526161204958" lon="8.597914133229734"><ele>210.5</ele><time>2026-04-06T13:10:28.964Z</time></trkpt><trkpt lat="45.752475402441036" lon="8.597848438360794"><ele>211.0</ele><time>2026-04-06T13:10:29.964Z</time></trkpt><trkpt lat="45.75233866389173" lon="8.597788080808119"><ele>211.5</ele><time>2026-04-06T13:10:30.964Z</time></trkpt><trkpt lat="45.75220244646144" lon="8.597720913409912"><ele>212.0</ele><time>2026-04-06T13:10:31.964Z</time></trkpt><trkpt lat="45.75206182190712" lon="8.59765474881633"><ele>210.75</ele><time>2026-04-06T13:10:32.964Z</time></trkpt><trkpt lat="45.75192736918328" lon="8.597586372949733"><ele>209.5</ele><time>2026-04-06T13:10:33.964Z</time></trkpt><trkpt lat="45.751794064566624" lon="8.597521221847247"><ele>208.25</ele><time>2026-04-06T13:10:34.964Z</time></trkpt><trkpt lat="45.75166237145615" lon="8.59746528618914"><ele>207.0</ele><time>2026-04-06T13:10:35.964Z</time></trkpt><trkpt lat="45.75153490566878" lon="8.597408007203342"><ele>207.0</ele><time>2026-04-06T13:10:36.964Z</time></trkpt><trkpt lat="45.75141393090506" lon="8.597352071666059"><ele>207.0</ele><time>2026-04-06T13:10:37.964Z</time></trkpt><trkpt lat="45.75129154687612" lon="8.597292753064455"><ele>207.0</ele><time>2026-04-06T13:10:38.964Z</time></trkpt><trkpt lat="45.751175412395476" lon="8.597233749491537"><ele>207.0</ele><time>2026-04-06T13:10:39.964Z</time></trkpt><trkpt lat="45.751052668938605" lon="8.597174594565395"><ele>207.0</ele><time>2026-04-06T13:10:40.964Z</time></trkpt><trkpt lat="45.750929973949916" lon="8.597119085559303"><ele>207.0</ele><time>2026-04-06T13:10:41.964Z</time></trkpt><trkpt lat="45.7508080462188" lon="8.597062802643304"><ele>207.0</ele><time>2026-04-06T13:10:42.964Z</time></trkpt><trkpt lat="45.75069421956829" lon="8.5970055538158"><ele>207.0</ele><time>2026-04-06T13:10:43.964Z</time></trkpt><trkpt lat="45.750585819582376" lon="8.596953095510832"><ele>207.0</ele><time>2026-04-06T13:10:44.964Z</time></trkpt><trkpt lat="45.75048292564512" lon="8.596903849888466"><ele>207.0</ele><time>2026-04-06T13:10:45.964Z</time></trkpt><trkpt lat="45.75037818632849" lon="8.596861090231776"><ele>207.0</ele><time>2026-04-06T13:10:46.964Z</time></trkpt><trkpt lat="45.750266004166114" lon="8.59683273663205"><ele>207.0</ele><time>2026-04-06T13:10:47.964Z</time></trkpt><trkpt lat="45.75015322778182" lon="8.596823124480185"><ele>207.0</ele><time>2026-04-06T13:10:48.964Z</time></trkpt><trkpt lat="45.7500329727569" lon="8.59680692787977"><ele>207.0</ele><time>2026-04-06T13:10:49.964Z</time></trkpt><trkpt lat="45.74990862552641" lon="8.596830994813779"><ele>207.0</ele><time>2026-04-06T13:10:50.964Z</time></trkpt><trkpt lat="45.74978481202" lon="8.596871769728523"><ele>207.0</ele><time>2026-04-06T13:10:51.964Z</time></trkpt><trkpt lat="45.74966471490964" lon="8.596927749283239"><ele>207.0</ele><time>2026-04-06T13:10:52.964Z</time></trkpt><trkpt lat="45.74955879184219" lon="8.597010172901703"><ele>207.0</ele><time>2026-04-06T13:10:53.964Z</time></trkpt><trkpt lat="45.749452707736786" lon="8.597071468736836"><ele>207.0</ele><time>2026-04-06T13:10:54.964Z</time></trkpt><trkpt lat="45.74934706804675" lon="8.59713285352977"><ele>207.0</ele><time>2026-04-06T13:10:55.964Z</time></trkpt><trkpt lat="45.749230423429765" lon="8.597176717965828"><ele>207.0</ele><time>2026-04-06T13:10:56.964Z</time></trkpt><trkpt lat="45.749112585160155" lon="8.59724544787245"><ele>207.0</ele><time>2026-04-06T13:10:57.964Z</time></trkpt><trkpt lat="45.74898704983032" lon="8.597318390426897"><ele>207.0</ele><time>2026-04-06T13:10:58.964Z</time></trkpt><trkpt lat="45.748855829228" lon="8.597394490557944"><ele>207.0</ele><time>2026-04-06T13:10:59.964Z</time></trkpt><trkpt lat="45.74871135446652" lon="8.597478277300564"><ele>207.0</ele><time>2026-04-06T13:11:00.964Z</time></trkpt><trkpt lat="45.74855992832595" lon="8.5975660955182"><ele>206.66666666666669</ele><time>2026-04-06T13:11:01.964Z</time></trkpt><trkpt lat="45.74840506130696" lon="8.597655909134987"><ele>206.33333333333334</ele><time>2026-04-06T13:11:02.964Z</time></trkpt><trkpt lat="45.74825135480164" lon="8.597745025405011"><ele>206.0</ele><time>2026-04-06T13:11:03.964Z</time></trkpt><trkpt lat="45.74810007174462" lon="8.597832735351213"><ele>206.0</ele><time>2026-04-06T13:11:04.964Z</time></trkpt><trkpt lat="45.74794801343155" lon="8.59794504443977"><ele>206.0</ele><time>2026-04-06T13:11:05.963Z</time></trkpt><trkpt lat="45.747791951116675" lon="8.598027994074865"><ele>206.0</ele><time>2026-04-06T13:11:06.963Z</time></trkpt><trkpt lat="45.74762953244681" lon="8.598087430429876"><ele>206.0</ele><time>2026-04-06T13:11:07.963Z</time></trkpt><trkpt lat="45.747476120107095" lon="8.598163816481668"><ele>206.0</ele><time>2026-04-06T13:11:08.963Z</time></trkpt><trkpt lat="45.74733120186891" lon="8.598248651763535"><ele>206.0</ele><time>2026-04-06T13:11:09.963Z</time></trkpt><trkpt lat="45.74718784314781" lon="8.598337471065978"><ele>206.0</ele><time>2026-04-06T13:11:10.963Z</time></trkpt><trkpt lat="45.747047040668456" lon="8.598417197560547"><ele>206.0</ele><time>2026-04-06T13:11:11.963Z</time></trkpt><trkpt lat="45.74691233112468" lon="8.598511490841705"><ele>206.0</ele><time>2026-04-06T13:11:12.963Z</time></trkpt><trkpt lat="45.74677889495267" lon="8.598595558382117"><ele>206.0</ele><time>2026-04-06T13:11:13.963Z</time></trkpt><trkpt lat="45.746648754471046" lon="8.598668099129597"><ele>206.0</ele><time>2026-04-06T13:11:14.963Z</time></trkpt><trkpt lat="45.74651061587241" lon="8.598741533117344"><ele>206.0</ele><time>2026-04-06T13:11:15.963Z</time></trkpt><trkpt lat="45.746366718084474" lon="8.59882055150317"><ele>206.0</ele><time>2026-04-06T13:11:16.963Z</time></trkpt><trkpt lat="45.74621738114338" lon="8.598898450077229"><ele>206.0</ele><time>2026-04-06T13:11:17.963Z</time></trkpt><trkpt lat="45.74605986872261" lon="8.598986659608597"><ele>206.0</ele><time>2026-04-06T13:11:18.963Z</time></trkpt><trkpt lat="45.74590524483335" lon="8.59908595617041"><ele>206.0</ele><time>2026-04-06T13:11:19.963Z</time></trkpt><trkpt lat="45.74575691713795" lon="8.599186151428402"><ele>206.33333333333334</ele><time>2026-04-06T13:11:20.963Z</time></trkpt><trkpt lat="45.74560370997166" lon="8.59928540623607"><ele>206.66666666666669</ele><time>2026-04-06T13:11:21.963Z</time></trkpt><trkpt lat="45.74544894142268" lon="8.599373776728944"><ele>207.0</ele><time>2026-04-06T13:11:22.963Z</time></trkpt><trkpt lat="45.74529211766747" lon="8.599468142449526"><ele>208.0</ele><time>2026-04-06T13:11:23.963Z</time></trkpt><trkpt lat="45.745137430602846" lon="8.599563473540055"><ele>209.0</ele><time>2026-04-06T13:11:24.963Z</time></trkpt><trkpt lat="45.74498415186651" lon="8.599656419689696"><ele>210.0</ele><time>2026-04-06T13:11:25.963Z</time></trkpt><trkpt lat="45.744835165836676" lon="8.599746132550768"><ele>210.0</ele><time>2026-04-06T13:11:26.964Z</time></trkpt><trkpt lat="45.744681007487856" lon="8.599813819096484"><ele>210.0</ele><time>2026-04-06T13:11:27.965Z</time></trkpt><trkpt lat="45.7445359001974" lon="8.599901139589132"><ele>210.0</ele><time>2026-04-06T13:11:28.965Z</time></trkpt><trkpt lat="45.74438255128554" lon="8.599984227852472"><ele>210.33333333333331</ele><time>2026-04-06T13:11:29.964Z</time></trkpt><trkpt lat="45.744229285465636" lon="8.60007441492508"><ele>210.66666666666666</ele><time>2026-04-06T13:11:30.965Z</time></trkpt><trkpt lat="45.74408108878484" lon="8.600162954999709"><ele>211.0</ele><time>2026-04-06T13:11:31.965Z</time></trkpt><trkpt lat="45.74393964992854" lon="8.600250570787606"><ele>211.0</ele><time>2026-04-06T13:11:32.964Z</time></trkpt><trkpt lat="45.74380727329607" lon="8.600329451858814"><ele>211.0</ele><time>2026-04-06T13:11:33.964Z</time></trkpt><trkpt lat="45.743671384452156" lon="8.600397581352228"><ele>211.0</ele><time>2026-04-06T13:11:34.964Z</time></trkpt><trkpt lat="45.74353618401035" lon="8.600470606918947"><ele>211.0</ele><time>2026-04-06T13:11:35.964Z</time></trkpt><trkpt lat="45.74340901593649" lon="8.600547979865446"><ele>211.0</ele><time>2026-04-06T13:11:36.964Z</time></trkpt><trkpt lat="45.74329004624739" lon="8.600621689365463"><ele>211.0</ele><time>2026-04-06T13:11:37.964Z</time></trkpt><trkpt lat="45.74317596829994" lon="8.600695409615566"><ele>211.0</ele><time>2026-04-06T13:11:38.964Z</time></trkpt><trkpt lat="45.74306950997463" lon="8.600758219299184"><ele>211.0</ele><time>2026-04-06T13:11:39.964Z</time></trkpt><trkpt lat="45.74296349720299" lon="8.600815097896517"><ele>211.0</ele><time>2026-04-06T13:11:40.964Z</time></trkpt><trkpt lat="45.74285708197197" lon="8.600872075963617"><ele>211.0</ele><time>2026-04-06T13:11:41.964Z</time></trkpt><trkpt lat="45.74275919051575" lon="8.600934247614397"><ele>211.0</ele><time>2026-04-06T13:11:42.964Z</time></trkpt><trkpt lat="45.742674298144735" lon="8.60099029085918"><ele>211.0</ele><time>2026-04-06T13:11:43.964Z</time></trkpt><trkpt lat="45.74259679778311" lon="8.601041151458253"><ele>211.0</ele><time>2026-04-06T13:11:44.964Z</time></trkpt><trkpt lat="45.74252793433261" lon="8.601056535449452"><ele>211.20000000000002</ele><time>2026-04-06T13:11:45.964Z</time></trkpt><trkpt lat="45.742421097453196" lon="8.601124170442333"><ele>211.4</ele><time>2026-04-06T13:11:47.964Z</time></trkpt><trkpt lat="45.74234380225049" lon="8.601165573450231"><ele>211.6</ele><time>2026-04-06T13:11:49.964Z</time></trkpt><trkpt lat="45.74223361814383" lon="8.60122207601536"><ele>211.8</ele><time>2026-04-06T13:11:51.964Z</time></trkpt><trkpt lat="45.742154021005476" lon="8.60126807281676"><ele>212.0</ele><time>2026-04-06T13:11:52.964Z</time></trkpt><trkpt lat="45.74206279377062" lon="8.601320812104252"><ele>212.0</ele><time>2026-04-06T13:11:53.964Z</time></trkpt><trkpt lat="45.74196869551033" lon="8.601381616765408"><ele>212.0</ele><time>2026-04-06T13:11:54.964Z</time></trkpt><trkpt lat="45.74187746391114" lon="8.601436789158887"><ele>212.0</ele><time>2026-04-06T13:11:55.964Z</time></trkpt><trkpt lat="45.74179188943297" lon="8.60148579122447"><ele>212.0</ele><time>2026-04-06T13:11:56.964Z</time></trkpt><trkpt lat="45.74171172203515" lon="8.601534897070671"><ele>212.0</ele><time>2026-04-06T13:11:57.964Z</time></trkpt><trkpt lat="45.74163414455632" lon="8.601585095002244"><ele>212.0</ele><time>2026-04-06T13:11:58.964Z</time></trkpt><trkpt lat="45.74155093862897" lon="8.601637902244759"><ele>212.0</ele><time>2026-04-06T13:11:59.964Z</time></trkpt><trkpt lat="45.741458442978185" lon="8.6016855758608"><ele>212.0</ele><time>2026-04-06T13:12:00.964Z</time></trkpt><trkpt lat="45.74136713942161" lon="8.601784800968536"><ele>212.0</ele><time>2026-04-06T13:12:01.964Z</time></trkpt><trkpt lat="45.74128372457513" lon="8.601877966338137"><ele>212.0</ele><time>2026-04-06T13:12:02.964Z</time></trkpt><trkpt lat="45.74120820404659" lon="8.60197925476243"><ele>212.0</ele><time>2026-04-06T13:12:03.964Z</time></trkpt><trkpt lat="45.741132363000105" lon="8.602076043971715"><ele>212.0</ele><time>2026-04-06T13:12:04.964Z</time></trkpt><trkpt lat="45.741058937281004" lon="8.602169750517858"><ele>212.0</ele><time>2026-04-06T13:12:05.964Z</time></trkpt><trkpt lat="45.74099933789984" lon="8.602277314604986"><ele>212.0</ele><time>2026-04-06T13:12:06.964Z</time></trkpt><trkpt lat="45.74092710613224" lon="8.602368043488612"><ele>212.0</ele><time>2026-04-06T13:12:07.964Z</time></trkpt><trkpt lat="45.74085080467073" lon="8.602463246835622"><ele>212.0</ele><time>2026-04-06T13:12:08.964Z</time></trkpt><trkpt lat="45.740777947389354" lon="8.602559091415111"><ele>212.0</ele><time>2026-04-06T13:12:09.964Z</time></trkpt><trkpt lat="45.74069070316967" lon="8.60262376482045"><ele>212.0</ele><time>2026-04-06T13:12:10.964Z</time></trkpt><trkpt lat="45.74061363882551" lon="8.602720110053328"><ele>212.0</ele><time>2026-04-06T13:12:11.964Z</time></trkpt><trkpt lat="45.7405326379206" lon="8.602829318893628"><ele>212.0</ele><time>2026-04-06T13:12:12.964Z</time></trkpt><trkpt lat="45.74044796186019" lon="8.602949693336212"><ele>212.0</ele><time>2026-04-06T13:12:13.964Z</time></trkpt><trkpt lat="45.74035962117005" lon="8.603073425640467"><ele>212.0</ele><time>2026-04-06T13:12:14.964Z</time></trkpt><trkpt lat="45.740267483077574" lon="8.60319482525252"><ele>212.0</ele><time>2026-04-06T13:12:15.964Z</time></trkpt><trkpt lat="45.740169031641955" lon="8.603318848367964"><ele>212.0</ele><time>2026-04-06T13:12:16.964Z</time></trkpt><trkpt lat="45.74006671985902" lon="8.603443713476652"><ele>212.0</ele><time>2026-04-06T13:12:17.964Z</time></trkpt><trkpt lat="45.73996611054535" lon="8.603562729910507"><ele>212.0</ele><time>2026-04-06T13:12:18.964Z</time></trkpt><trkpt lat="45.73987113420738" lon="8.603682934237314"><ele>212.0</ele><time>2026-04-06T13:12:19.964Z</time></trkpt><trkpt lat="45.73977865862713" lon="8.603808128490256"><ele>212.0</ele><time>2026-04-06T13:12:20.964Z</time></trkpt><trkpt lat="45.73968553730557" lon="8.603932964644299"><ele>212.25</ele><time>2026-04-06T13:12:21.964Z</time></trkpt><trkpt lat="45.73958903295213" lon="8.604057885463792"><ele>212.5</ele><time>2026-04-06T13:12:22.964Z</time></trkpt><trkpt lat="45.739490914186646" lon="8.604185811738791"><ele>212.75</ele><time>2026-04-06T13:12:23.963Z</time></trkpt><trkpt lat="45.73939306115379" lon="8.60431724865559"><ele>213.0</ele><time>2026-04-06T13:12:24.963Z</time></trkpt><trkpt lat="45.73929439584137" lon="8.604446861099046"><ele>212.5</ele><time>2026-04-06T13:12:25.963Z</time></trkpt><trkpt lat="45.73919503513444" lon="8.604578099531446"><ele>212.0</ele><time>2026-04-06T13:12:26.963Z</time></trkpt><trkpt lat="45.73909377038583" lon="8.604719446758963"><ele>211.5</ele><time>2026-04-06T13:12:27.963Z</time></trkpt><trkpt lat="45.738976926156" lon="8.604830920327181"><ele>211.0</ele><time>2026-04-06T13:12:28.963Z</time></trkpt><trkpt lat="45.738873313418225" lon="8.604965852371967"><ele>211.0</ele><time>2026-04-06T13:12:29.963Z</time></trkpt><trkpt lat="45.73877309041573" lon="8.6050986261014"><ele>211.0</ele><time>2026-04-06T13:12:30.963Z</time></trkpt><trkpt lat="45.7386770862212" lon="8.605225064240228"><ele>211.0</ele><time>2026-04-06T13:12:31.963Z</time></trkpt><trkpt lat="45.73858333147438" lon="8.605348111980483"><ele>211.0</ele><time>2026-04-06T13:12:32.963Z</time></trkpt><trkpt lat="45.738489884053635" lon="8.605470802923323"><ele>211.5</ele><time>2026-04-06T13:12:33.963Z</time></trkpt><trkpt lat="45.73839926327902" lon="8.605598937724146"><ele>212.0</ele><time>2026-04-06T13:12:34.963Z</time></trkpt><trkpt lat="45.7383060119901" lon="8.60572109290844"><ele>212.5</ele><time>2026-04-06T13:12:35.963Z</time></trkpt><trkpt lat="45.738208740916896" lon="8.605846479773009"><ele>213.0</ele><time>2026-04-06T13:12:36.963Z</time></trkpt><trkpt lat="45.73811032044257" lon="8.605968665810876"><ele>213.0</ele><time>2026-04-06T13:12:37.963Z</time></trkpt><trkpt lat="45.73801077257764" lon="8.606099815669506"><ele>213.0</ele><time>2026-04-06T13:12:38.963Z</time></trkpt><trkpt lat="45.73790339074959" lon="8.606245755701288"><ele>213.0</ele><time>2026-04-06T13:12:39.963Z</time></trkpt><trkpt lat="45.73779549653985" lon="8.60638997537831"><ele>213.0</ele><time>2026-04-06T13:12:40.963Z</time></trkpt><trkpt lat="45.737678119700504" lon="8.606542370157138"><ele>212.66666666666669</ele><time>2026-04-06T13:12:41.963Z</time></trkpt><trkpt lat="45.73755420690632" lon="8.606700583340643"><ele>212.33333333333334</ele><time>2026-04-06T13:12:42.963Z</time></trkpt><trkpt lat="45.73742845732522" lon="8.606848722456443"><ele>212.0</ele><time>2026-04-06T13:12:43.963Z</time></trkpt><trkpt lat="45.737295295259194" lon="8.607003181189596"><ele>212.0</ele><time>2026-04-06T13:12:44.963Z</time></trkpt><trkpt lat="45.73715989739773" lon="8.607164953727287"><ele>212.0</ele><time>2026-04-06T13:12:45.963Z</time></trkpt><trkpt lat="45.737009926777134" lon="8.607307453020592"><ele>212.0</ele><time>2026-04-06T13:12:46.963Z</time></trkpt><trkpt lat="45.736870496606144" lon="8.607472076082137"><ele>212.0</ele><time>2026-04-06T13:12:47.963Z</time></trkpt><trkpt lat="45.736728737038305" lon="8.60763014769503"><ele>212.0</ele><time>2026-04-06T13:12:48.963Z</time></trkpt><trkpt lat="45.73659388007377" lon="8.607783934072883"><ele>212.0</ele><time>2026-04-06T13:12:49.963Z</time></trkpt><trkpt lat="45.7364722685612" lon="8.607939067650703"><ele>212.25</ele><time>2026-04-06T13:12:50.963Z</time></trkpt><trkpt lat="45.73636062709284" lon="8.608080806245203"><ele>212.5</ele><time>2026-04-06T13:12:51.963Z</time></trkpt><trkpt lat="45.73625397520984" lon="8.608210177492138"><ele>212.75</ele><time>2026-04-06T13:12:52.963Z</time></trkpt><trkpt lat="45.7361473816804" lon="8.608329902197536"><ele>213.0</ele><time>2026-04-06T13:12:53.963Z</time></trkpt><trkpt lat="45.7360389747436" lon="8.608445172867567"><ele>213.0</ele><time>2026-04-06T13:12:54.963Z</time></trkpt><trkpt lat="45.7359267788165" lon="8.608558290999198"><ele>213.0</ele><time>2026-04-06T13:12:55.963Z</time></trkpt><trkpt lat="45.73580537568391" lon="8.608685830457418"><ele>213.0</ele><time>2026-04-06T13:12:56.963Z</time></trkpt><trkpt lat="45.735680936697094" lon="8.608823179558785"><ele>213.0</ele><time>2026-04-06T13:12:57.963Z</time></trkpt><trkpt lat="45.73554439618631" lon="8.608977410842941"><ele>212.66666666666669</ele><time>2026-04-06T13:12:58.963Z</time></trkpt><trkpt lat="45.73539849296957" lon="8.609136400419208"><ele>212.33333333333334</ele><time>2026-04-06T13:12:59.963Z</time></trkpt><trkpt lat="45.73524476016624" lon="8.609298636314177"><ele>212.0</ele><time>2026-04-06T13:13:00.963Z</time></trkpt><trkpt lat="45.73509433328692" lon="8.609456274825094"><ele>212.66666666666669</ele><time>2026-04-06T13:13:01.963Z</time></trkpt><trkpt lat="45.73494703534333" lon="8.609614770578467"><ele>213.33333333333331</ele><time>2026-04-06T13:13:02.963Z</time></trkpt><trkpt lat="45.73480399804843" lon="8.609779882743128"><ele>214.0</ele><time>2026-04-06T13:13:03.963Z</time></trkpt><trkpt lat="45.73467035066027" lon="8.609949645173247"><ele>214.0</ele><time>2026-04-06T13:13:04.963Z</time></trkpt><trkpt lat="45.73454441509109" lon="8.610128430595422"><ele>214.0</ele><time>2026-04-06T13:13:05.963Z</time></trkpt><trkpt lat="45.73443044266439" lon="8.610307667621576"><ele>214.0</ele><time>2026-04-06T13:13:06.963Z</time></trkpt><trkpt lat="45.73432203102387" lon="8.61048992351868"><ele>213.0</ele><time>2026-04-06T13:13:07.963Z</time></trkpt><trkpt lat="45.73422348613377" lon="8.61068045665766"><ele>212.0</ele><time>2026-04-06T13:13:08.963Z</time></trkpt><trkpt lat="45.734109742746845" lon="8.610871094233604"><ele>211.0</ele><time>2026-04-06T13:13:09.963Z</time></trkpt><trkpt lat="45.7340092009903" lon="8.611087998674968"><ele>213.0</ele><time>2026-04-06T13:13:10.962Z</time></trkpt><trkpt lat="45.733905719897024" lon="8.611321453323768"><ele>215.0</ele><time>2026-04-06T13:13:11.962Z</time></trkpt><trkpt lat="45.7337992120244" lon="8.611562896096265"><ele>217.0</ele><time>2026-04-06T13:13:12.962Z</time></trkpt><trkpt lat="45.733700579541726" lon="8.611816898520583"><ele>218.33333333333331</ele><time>2026-04-06T13:13:13.962Z</time></trkpt><trkpt lat="45.73359061512974" lon="8.612055578076529"><ele>219.66666666666669</ele><time>2026-04-06T13:13:14.962Z</time></trkpt><trkpt lat="45.73349269698221" lon="8.612284731667838"><ele>221.0</ele><time>2026-04-06T13:13:15.962Z</time></trkpt><trkpt lat="45.73339419151735" lon="8.612507514732277"><ele>218.0</ele><time>2026-04-06T13:13:16.962Z</time></trkpt><trkpt lat="45.73330032192248" lon="8.612720223537499"><ele>215.0</ele><time>2026-04-06T13:13:17.962Z</time></trkpt><trkpt lat="45.73320485868984" lon="8.612934170151078"><ele>212.0</ele><time>2026-04-06T13:13:18.962Z</time></trkpt><trkpt lat="45.733112578241474" lon="8.613146109982237"><ele>211.66666666666669</ele><time>2026-04-06T13:13:19.962Z</time></trkpt><trkpt lat="45.73301973260204" lon="8.613358317545506"><ele>211.33333333333331</ele><time>2026-04-06T13:13:20.962Z</time></trkpt><trkpt lat="45.73292742136221" lon="8.613571921810735"><ele>211.0</ele><time>2026-04-06T13:13:21.962Z</time></trkpt><trkpt lat="45.732834468829694" lon="8.613782371831793"><ele>210.66666666666666</ele><time>2026-04-06T13:13:22.962Z</time></trkpt><trkpt lat="45.73274267535706" lon="8.613986476212991"><ele>210.33333333333331</ele><time>2026-04-06T13:13:23.962Z</time></trkpt><trkpt lat="45.732653423150325" lon="8.614187746423749"><ele>210.0</ele><time>2026-04-06T13:13:24.962Z</time></trkpt><trkpt lat="45.73256586533355" lon="8.614390406670239"><ele>209.33333333333331</ele><time>2026-04-06T13:13:25.962Z</time></trkpt><trkpt lat="45.73248175501073" lon="8.614585893510583"><ele>208.66666666666666</ele><time>2026-04-06T13:13:26.962Z</time></trkpt><trkpt lat="45.73238197117571" lon="8.614766232335386"><ele>208.0</ele><time>2026-04-06T13:13:27.962Z</time></trkpt><trkpt lat="45.73230092716273" lon="8.614951792264005"><ele>208.0</ele><time>2026-04-06T13:13:28.962Z</time></trkpt><trkpt lat="45.73222615360007" lon="8.615124868070426"><ele>208.0</ele><time>2026-04-06T13:13:29.962Z</time></trkpt><trkpt lat="45.73215504485347" lon="8.61529609060453"><ele>208.0</ele><time>2026-04-06T13:13:30.962Z</time></trkpt><trkpt lat="45.73208586586007" lon="8.615461600840069"><ele>208.0</ele><time>2026-04-06T13:13:31.962Z</time></trkpt><trkpt lat="45.73201983831602" lon="8.615617828593775"><ele>207.75</ele><time>2026-04-06T13:13:32.962Z</time></trkpt><trkpt lat="45.73195827106867" lon="8.615766960221045"><ele>207.5</ele><time>2026-04-06T13:13:33.963Z</time></trkpt><trkpt lat="45.731893916661015" lon="8.615911206677643"><ele>207.25</ele><time>2026-04-06T13:13:34.963Z</time></trkpt><trkpt lat="45.731829390810475" lon="8.616059623098485"><ele>207.0</ele><time>2026-04-06T13:13:35.963Z</time></trkpt><trkpt lat="45.73174202923778" lon="8.616204771496767"><ele>206.75</ele><time>2026-04-06T13:13:36.962Z</time></trkpt><trkpt lat="45.731674464930116" lon="8.61637792473636"><ele>206.5</ele><time>2026-04-06T13:13:37.962Z</time></trkpt><trkpt lat="45.73159536188894" lon="8.616556336325942"><ele>206.25</ele><time>2026-04-06T13:13:38.962Z</time></trkpt><trkpt lat="45.731514740297044" lon="8.61674299128028"><ele>206.0</ele><time>2026-04-06T13:13:39.963Z</time></trkpt><trkpt lat="45.73143053489365" lon="8.616936346706813"><ele>206.66666666666669</ele><time>2026-04-06T13:13:40.962Z</time></trkpt><trkpt lat="45.73134312618136" lon="8.61713603693232"><ele>207.33333333333331</ele><time>2026-04-06T13:13:41.963Z</time></trkpt><trkpt lat="45.73125392881722" lon="8.617331787972168"><ele>208.0</ele><time>2026-04-06T13:13:42.962Z</time></trkpt><trkpt lat="45.73117155365138" lon="8.617520558238748"><ele>208.0</ele><time>2026-04-06T13:13:43.962Z</time></trkpt><trkpt lat="45.731094356994284" lon="8.617701370373418"><ele>208.0</ele><time>2026-04-06T13:13:44.963Z</time></trkpt><trkpt lat="45.73101703535574" lon="8.61788404552769"><ele>208.0</ele><time>2026-04-06T13:13:45.963Z</time></trkpt><trkpt lat="45.73094092391665" lon="8.618064581262457"><ele>208.0</ele><time>2026-04-06T13:13:46.963Z</time></trkpt><trkpt lat="45.730866033718016" lon="8.618240770368569"><ele>207.0</ele><time>2026-04-06T13:13:47.963Z</time></trkpt><trkpt lat="45.730774724669956" lon="8.61839354021249"><ele>206.0</ele><time>2026-04-06T13:13:48.963Z</time></trkpt><trkpt lat="45.73070788728042" lon="8.618542003184201"><ele>205.0</ele><time>2026-04-06T13:13:49.963Z</time></trkpt><trkpt lat="45.730641882045" lon="8.618685747254615"><ele>204.0</ele><time>2026-04-06T13:13:50.963Z</time></trkpt><trkpt lat="45.730575065907274" lon="8.618829258850974"><ele>203.75</ele><time>2026-04-06T13:13:51.963Z</time></trkpt><trkpt lat="45.73051179395049" lon="8.618970978464851"><ele>203.5</ele><time>2026-04-06T13:13:52.963Z</time></trkpt><trkpt lat="45.73044997989663" lon="8.619112555156395"><ele>203.25</ele><time>2026-04-06T13:13:53.963Z</time></trkpt><trkpt lat="45.73038971959293" lon="8.61925869999032"><ele>203.0</ele><time>2026-04-06T13:13:54.963Z</time></trkpt><trkpt lat="45.730324157951486" lon="8.619406174771399"><ele>203.5</ele><time>2026-04-06T13:13:55.963Z</time></trkpt><trkpt lat="45.73025722971314" lon="8.619554341127085"><ele>204.0</ele><time>2026-04-06T13:13:56.963Z</time></trkpt><trkpt lat="45.730193400356775" lon="8.61970447087153"><ele>204.5</ele><time>2026-04-06T13:13:57.963Z</time></trkpt><trkpt lat="45.730126531284824" lon="8.61985895776588"><ele>205.0</ele><time>2026-04-06T13:13:58.963Z</time></trkpt><trkpt lat="45.73005456144684" lon="8.620023698141582"><ele>204.33333333333331</ele><time>2026-04-06T13:13:59.962Z</time></trkpt><trkpt lat="45.729979907257544" lon="8.620203696870547"><ele>203.66666666666669</ele><time>2026-04-06T13:14:00.962Z</time></trkpt><trkpt lat="45.72989880722262" lon="8.620391736261123"><ele>203.0</ele><time>2026-04-06T13:14:01.962Z</time></trkpt><trkpt lat="45.7298120538232" lon="8.620593812576905"><ele>203.0</ele><time>2026-04-06T13:14:02.962Z</time></trkpt><trkpt lat="45.729725407565866" lon="8.62079469898494"><ele>203.0</ele><time>2026-04-06T13:14:03.962Z</time></trkpt><trkpt lat="45.72963902400727" lon="8.620990822222831"><ele>203.0</ele><time>2026-04-06T13:14:04.962Z</time></trkpt><trkpt lat="45.72955659346151" lon="8.621172585161057"><ele>203.0</ele><time>2026-04-06T13:14:05.962Z</time></trkpt><trkpt lat="45.729481016233976" lon="8.621345359318648"><ele>203.0</ele><time>2026-04-06T13:14:06.962Z</time></trkpt><trkpt lat="45.72940921920968" lon="8.621508926494032"><ele>203.0</ele><time>2026-04-06T13:14:07.962Z</time></trkpt><trkpt lat="45.7293427182216" lon="8.621669374120735"><ele>203.0</ele><time>2026-04-06T13:14:08.962Z</time></trkpt><trkpt lat="45.729274502713245" lon="8.621831383307459"><ele>203.0</ele><time>2026-04-06T13:14:09.962Z</time></trkpt><trkpt lat="45.729201619845476" lon="8.621996040526547"><ele>203.0</ele><time>2026-04-06T13:14:10.962Z</time></trkpt><trkpt lat="45.729124790868944" lon="8.622167515793064"><ele>203.0</ele><time>2026-04-06T13:14:11.962Z</time></trkpt><trkpt lat="45.72904736607838" lon="8.622341632822408"><ele>203.0</ele><time>2026-04-06T13:14:12.962Z</time></trkpt><trkpt lat="45.728971290211405" lon="8.622513518421941"><ele>203.0</ele><time>2026-04-06T13:14:13.962Z</time></trkpt><trkpt lat="45.7288954683591" lon="8.62268787895148"><ele>203.0</ele><time>2026-04-06T13:14:14.962Z</time></trkpt><trkpt lat="45.728820080183915" lon="8.622862142547373"><ele>203.0</ele><time>2026-04-06T13:14:15.962Z</time></trkpt><trkpt lat="45.72874559307079" lon="8.623035037410387"><ele>203.0</ele><time>2026-04-06T13:14:16.962Z</time></trkpt><trkpt lat="45.72866846194916" lon="8.623203741046177"><ele>203.0</ele><time>2026-04-06T13:14:17.962Z</time></trkpt><trkpt lat="45.72858877518875" lon="8.623371975780167"><ele>203.0</ele><time>2026-04-06T13:14:18.962Z</time></trkpt><trkpt lat="45.72850338562321" lon="8.623538014236221"><ele>203.0</ele><time>2026-04-06T13:14:19.962Z</time></trkpt><trkpt lat="45.72841200166325" lon="8.623696122405361"><ele>203.0</ele><time>2026-04-06T13:14:20.962Z</time></trkpt><trkpt lat="45.728312341583056" lon="8.623849541559075"><ele>202.5</ele><time>2026-04-06T13:14:21.962Z</time></trkpt><trkpt lat="45.728207278210704" lon="8.623997103320075"><ele>202.0</ele><time>2026-04-06T13:14:22.962Z</time></trkpt><trkpt lat="45.72809840038649" lon="8.624140797689396"><ele>201.5</ele><time>2026-04-06T13:14:23.962Z</time></trkpt><trkpt lat="45.727984274477016" lon="8.624272812902888"><ele>201.0</ele><time>2026-04-06T13:14:24.962Z</time></trkpt><trkpt lat="45.72786477766329" lon="8.624396164361679"><ele>200.75</ele><time>2026-04-06T13:14:25.962Z</time></trkpt><trkpt lat="45.727739519747054" lon="8.624511888555881"><ele>200.5</ele><time>2026-04-06T13:14:26.962Z</time></trkpt><trkpt lat="45.727613536759854" lon="8.624620867124623"><ele>200.25</ele><time>2026-04-06T13:14:27.962Z</time></trkpt><trkpt lat="45.727481423540006" lon="8.624719092405385"><ele>200.0</ele><time>2026-04-06T13:14:28.962Z</time></trkpt><trkpt lat="45.72735110857883" lon="8.62480811213963"><ele>200.0</ele><time>2026-04-06T13:14:29.962Z</time></trkpt><trkpt lat="45.727216340999746" lon="8.624893975586476"><ele>200.0</ele><time>2026-04-06T13:14:30.962Z</time></trkpt><trkpt lat="45.72707968154519" lon="8.624977634613684"><ele>200.0</ele><time>2026-04-06T13:14:31.962Z</time></trkpt><trkpt lat="45.726942114950525" lon="8.625063774383667"><ele>200.0</ele><time>2026-04-06T13:14:32.962Z</time></trkpt><trkpt lat="45.72679898772904" lon="8.625152987768086"><ele>200.33333333333334</ele><time>2026-04-06T13:14:33.962Z</time></trkpt><trkpt lat="45.72665343271928" lon="8.62524315616441"><ele>200.66666666666669</ele><time>2026-04-06T13:14:34.962Z</time></trkpt><trkpt lat="45.72649538281856" lon="8.625315457498388"><ele>201.0</ele><time>2026-04-06T13:14:35.962Z</time></trkpt><trkpt lat="45.72633315577282" lon="8.625415081768468"><ele>201.0</ele><time>2026-04-06T13:14:36.962Z</time></trkpt><trkpt lat="45.726162647035956" lon="8.625519791668609"><ele>201.0</ele><time>2026-04-06T13:14:37.962Z</time></trkpt><trkpt lat="45.725990736401066" lon="8.625641082423211"><ele>201.0</ele><time>2026-04-06T13:14:38.962Z</time></trkpt><trkpt lat="45.725812315708495" lon="8.625735986499372"><ele>200.66666666666669</ele><time>2026-04-06T13:14:39.962Z</time></trkpt><trkpt lat="45.72564030291336" lon="8.62583637700735"><ele>200.33333333333334</ele><time>2026-04-06T13:14:40.962Z</time></trkpt><trkpt lat="45.72548099178729" lon="8.625934397535937"><ele>200.0</ele><time>2026-04-06T13:14:41.962Z</time></trkpt><trkpt lat="45.72533047698849" lon="8.626034370120365"><ele>199.66666666666669</ele><time>2026-04-06T13:14:42.962Z</time></trkpt><trkpt lat="45.72518877621953" lon="8.626129373697234"><ele>199.33333333333331</ele><time>2026-04-06T13:14:43.962Z</time></trkpt><trkpt lat="45.7250517091884" lon="8.62621704279837"><ele>199.0</ele><time>2026-04-06T13:14:44.962Z</time></trkpt><trkpt lat="45.724917167940305" lon="8.626302820481778"><ele>199.0</ele><time>2026-04-06T13:14:45.962Z</time></trkpt><trkpt lat="45.72478504402383" lon="8.62638600525462"><ele>199.0</ele><time>2026-04-06T13:14:46.961Z</time></trkpt><trkpt lat="45.724660881172746" lon="8.626467725060223"><ele>199.0</ele><time>2026-04-06T13:14:47.961Z</time></trkpt><trkpt lat="45.724545226690445" lon="8.626540208437294"><ele>199.0</ele><time>2026-04-06T13:14:48.961Z</time></trkpt><trkpt lat="45.724441484116944" lon="8.626606444588228"><ele>198.6</ele><time>2026-04-06T13:14:49.961Z</time></trkpt><trkpt lat="45.724336567821894" lon="8.626665888194134"><ele>198.2</ele><time>2026-04-06T13:14:50.961Z</time></trkpt><trkpt lat="45.7242371314416" lon="8.626724344248455"><ele>197.79999999999998</ele><time>2026-04-06T13:14:51.961Z</time></trkpt><trkpt lat="45.72414979366054" lon="8.626769643968517"><ele>197.39999999999998</ele><time>2026-04-06T13:14:52.961Z</time></trkpt><trkpt lat="45.72406514426368" lon="8.626820474185678"><ele>197.0</ele><time>2026-04-06T13:14:53.961Z</time></trkpt><trkpt lat="45.72398289934716" lon="8.626877827287139"><ele>197.0</ele><time>2026-04-06T13:14:54.961Z</time></trkpt><trkpt lat="45.72390222181073" lon="8.626939519592991"><ele>197.0</ele><time>2026-04-06T13:14:55.961Z</time></trkpt><trkpt lat="45.72383131180793" lon="8.62701874391803"><ele>197.0</ele><time>2026-04-06T13:14:56.961Z</time></trkpt><trkpt lat="45.7237801887084" lon="8.627128910964736"><ele>197.0</ele><time>2026-04-06T13:14:57.961Z</time></trkpt><trkpt lat="45.72372344458196" lon="8.62724608726575"><ele>197.0</ele><time>2026-04-06T13:14:58.961Z</time></trkpt><trkpt lat="45.72369509249721" lon="8.62738613393462"><ele>197.83333333333334</ele><time>2026-04-06T13:14:59.961Z</time></trkpt><trkpt lat="45.72368989553636" lon="8.62752064652726"><ele>198.66666666666669</ele><time>2026-04-06T13:15:00.961Z</time></trkpt><trkpt lat="45.723633977102615" lon="8.627630895378418"><ele>199.5</ele><time>2026-04-06T13:15:01.961Z</time></trkpt><trkpt lat="45.723604503082115" lon="8.627725114311872"><ele>200.33333333333331</ele><time>2026-04-06T13:15:02.961Z</time></trkpt><trkpt lat="45.723578486071894" lon="8.627816871977"><ele>201.16666666666666</ele><time>2026-04-06T13:15:03.961Z</time></trkpt><trkpt lat="45.72356453825277" lon="8.627950714348206"><ele>202.0</ele><time>2026-04-06T13:15:05.961Z</time></trkpt><trkpt lat="45.72358972955892" lon="8.628065553061429"><ele>202.39999999999998</ele><time>2026-04-06T13:15:07.961Z</time></trkpt><trkpt lat="45.723597201599034" lon="8.628167085467318"><ele>202.79999999999998</ele><time>2026-04-06T13:15:09.961Z</time></trkpt><trkpt lat="45.72360095919652" lon="8.628335497261775"><ele>203.2</ele><time>2026-04-06T13:15:11.961Z</time></trkpt><trkpt lat="45.72360667336757" lon="8.628493962566171"><ele>203.6</ele><time>2026-04-06T13:15:13.961Z</time></trkpt><trkpt lat="45.72363447003493" lon="8.628615207186362"><ele>204.0</ele><time>2026-04-06T13:15:15.961Z</time></trkpt><trkpt lat="45.72364924366066" lon="8.628718612316103"><ele>204.0</ele><time>2026-04-06T13:15:18.961Z</time></trkpt><trkpt lat="45.7236842740685" lon="8.628836672741153"><ele>204.0</ele><time>2026-04-06T13:15:22.961Z</time></trkpt><trkpt lat="45.723710043814314" lon="8.628923522687124"><ele>204.0</ele><time>2026-04-06T13:15:24.961Z</time></trkpt><trkpt lat="45.723751747816884" lon="8.6289981809643"><ele>204.0</ele><time>2026-04-06T13:15:26.961Z</time></trkpt><trkpt lat="45.723788557795565" lon="8.629092618358875"><ele>204.0</ele><time>2026-04-06T13:15:29.961Z</time></trkpt><trkpt lat="45.723833605658655" lon="8.629187092292112"><ele>204.0</ele><time>2026-04-06T13:15:32.961Z</time></trkpt><trkpt lat="45.72386435142436" lon="8.629329951007989"><ele>204.0</ele><time>2026-04-06T13:15:34.96Z</time></trkpt><trkpt lat="45.723898602102246" lon="8.629409038565866"><ele>204.0</ele><time>2026-04-06T13:15:35.96Z</time></trkpt><trkpt lat="45.72393736791475" lon="8.629482909307914"><ele>204.0</ele><time>2026-04-06T13:15:36.96Z</time></trkpt><trkpt lat="45.72398917594359" lon="8.629594553906982"><ele>204.0</ele><time>2026-04-06T13:15:38.961Z</time></trkpt><trkpt lat="45.724029786448476" lon="8.629690271295862"><ele>204.0</ele><time>2026-04-06T13:15:40.961Z</time></trkpt><trkpt lat="45.7240759848898" lon="8.629791751811155"><ele>204.0</ele><time>2026-04-06T13:15:42.961Z</time></trkpt><trkpt lat="45.72412096870689" lon="8.629862073077113"><ele>203.66666666666666</ele><time>2026-04-06T13:15:44.961Z</time></trkpt><trkpt lat="45.724213511388456" lon="8.629819446090458"><ele>203.33333333333331</ele><time>2026-04-06T13:15:46.96Z</time></trkpt><trkpt lat="45.724276222635964" lon="8.62977719082591"><ele>203.0</ele><time>2026-04-06T13:15:48.961Z</time></trkpt><trkpt lat="45.72433632784908" lon="8.629746073612514"><ele>202.66666666666666</ele><time>2026-04-06T13:15:50.961Z</time></trkpt><trkpt lat="45.72441373815845" lon="8.629717522072736"><ele>202.33333333333331</ele><time>2026-04-06T13:15:54.961Z</time></trkpt><trkpt lat="45.724505117499625" lon="8.629728453291927"><ele>202.0</ele><time>2026-04-06T13:15:56.961Z</time></trkpt><trkpt lat="45.72458700615017" lon="8.629718953017688"><ele>202.83333333333331</ele><time>2026-04-06T13:15:58.961Z</time></trkpt><trkpt lat="45.724657955137985" lon="8.629625266233337"><ele>203.66666666666666</ele><time>2026-04-06T13:16:00.961Z</time></trkpt><trkpt lat="45.7245996533916" lon="8.629464383835272"><ele>204.5</ele><time>2026-04-06T13:16:02.961Z</time></trkpt><trkpt lat="45.72455350848468" lon="8.629387490285419"><ele>205.33333333333331</ele><time>2026-04-06T13:16:03.961Z</time></trkpt><trkpt lat="45.72451773622168" lon="8.629291409360821"><ele>206.16666666666666</ele><time>2026-04-06T13:16:04.961Z</time></trkpt><trkpt lat="45.72448980886174" lon="8.629197874152377"><ele>207.0</ele><time>2026-04-06T13:16:05.961Z</time></trkpt><trkpt lat="45.724458399369475" lon="8.629088564402648"><ele>207.2</ele><time>2026-04-06T13:16:06.961Z</time></trkpt><trkpt lat="45.724420413202736" lon="8.628961252717163"><ele>207.39999999999998</ele><time>2026-04-06T13:16:07.961Z</time></trkpt><trkpt lat="45.72437756806175" lon="8.628816543419267"><ele>207.60000000000002</ele><time>2026-04-06T13:16:08.961Z</time></trkpt><trkpt lat="45.724330795420904" lon="8.628659671397893"><ele>207.8</ele><time>2026-04-06T13:16:09.961Z</time></trkpt><trkpt lat="45.72428623685076" lon="8.628503297220046"><ele>208.0</ele><time>2026-04-06T13:16:10.961Z</time></trkpt><trkpt lat="45.724247293021826" lon="8.628353873486075"><ele>207.2</ele><time>2026-04-06T13:16:11.961Z</time></trkpt><trkpt lat="45.724209047811726" lon="8.628205990171434"><ele>206.4</ele><time>2026-04-06T13:16:12.961Z</time></trkpt><trkpt lat="45.72416621281193" lon="8.628058328762048"><ele>205.6</ele><time>2026-04-06T13:16:13.961Z</time></trkpt><trkpt lat="45.72411685158497" lon="8.627924548996164"><ele>204.79999999999998</ele><time>2026-04-06T13:16:14.961Z</time></trkpt><trkpt lat="45.7240579955737" lon="8.627807597381937"><ele>204.0</ele><time>2026-04-06T13:16:15.961Z</time></trkpt><trkpt lat="45.72398110803135" lon="8.627709476395461"><ele>203.5</ele><time>2026-04-06T13:16:16.961Z</time></trkpt><trkpt lat="45.723896897589476" lon="8.627608108066223"><ele>203.0</ele><time>2026-04-06T13:16:17.961Z</time></trkpt><trkpt lat="45.72378271204586" lon="8.6275773652965"><ele>202.5</ele><time>2026-04-06T13:16:18.96Z</time></trkpt><trkpt lat="45.72367384288632" lon="8.627542785675836"><ele>202.0</ele><time>2026-04-06T13:16:19.96Z</time></trkpt><trkpt lat="45.72355793301301" lon="8.62749371407657"><ele>200.75</ele><time>2026-04-06T13:16:20.96Z</time></trkpt><trkpt lat="45.72343899788603" lon="8.62746722688419"><ele>199.5</ele><time>2026-04-06T13:16:21.96Z</time></trkpt><trkpt lat="45.723312284001885" lon="8.62743195645103"><ele>198.25</ele><time>2026-04-06T13:16:22.96Z</time></trkpt><trkpt lat="45.723193028785396" lon="8.627396975418586"><ele>197.0</ele><time>2026-04-06T13:16:23.96Z</time></trkpt><trkpt lat="45.723070520258084" lon="8.627371392275315"><ele>197.0</ele><time>2026-04-06T13:16:24.96Z</time></trkpt><trkpt lat="45.72295958864159" lon="8.627341099881308"><ele>197.0</ele><time>2026-04-06T13:16:25.96Z</time></trkpt><trkpt lat="45.722849615103584" lon="8.627313751607215"><ele>197.0</ele><time>2026-04-06T13:16:26.96Z</time></trkpt><trkpt lat="45.722738662041735" lon="8.62728667469067"><ele>197.0</ele><time>2026-04-06T13:16:27.96Z</time></trkpt><trkpt lat="45.72262348100016" lon="8.627253834192379"><ele>195.5</ele><time>2026-04-06T13:16:28.96Z</time></trkpt><trkpt lat="45.72249925275673" lon="8.62722568491134"><ele>194.0</ele><time>2026-04-06T13:16:29.96Z</time></trkpt><trkpt lat="45.72236992277749" lon="8.627192292426175"><ele>192.5</ele><time>2026-04-06T13:16:30.96Z</time></trkpt><trkpt lat="45.722236669201465" lon="8.62715102968996"><ele>191.0</ele><time>2026-04-06T13:16:31.96Z</time></trkpt><trkpt lat="45.722099559657224" lon="8.627114921778684"><ele>191.0</ele><time>2026-04-06T13:16:32.96Z</time></trkpt><trkpt lat="45.72195939159446" lon="8.627079991235963"><ele>191.0</ele><time>2026-04-06T13:16:33.96Z</time></trkpt><trkpt lat="45.721824165997724" lon="8.627042953213795"><ele>191.0</ele><time>2026-04-06T13:16:34.96Z</time></trkpt><trkpt lat="45.72169791245309" lon="8.627011576156017"><ele>191.0</ele><time>2026-04-06T13:16:35.96Z</time></trkpt><trkpt lat="45.72158176673845" lon="8.626981726388038"><ele>192.4</ele><time>2026-04-06T13:16:36.96Z</time></trkpt><trkpt lat="45.72147503721437" lon="8.62695192940843"><ele>193.8</ele><time>2026-04-06T13:16:37.96Z</time></trkpt><trkpt lat="45.72137783009299" lon="8.626911050313243"><ele>195.20000000000002</ele><time>2026-04-06T13:16:38.96Z</time></trkpt><trkpt lat="45.72128246132992" lon="8.626839320323537"><ele>196.60000000000002</ele><time>2026-04-06T13:16:39.96Z</time></trkpt><trkpt lat="45.721192296148125" lon="8.626743630162721"><ele>198.0</ele><time>2026-04-06T13:16:40.96Z</time></trkpt><trkpt lat="45.72109657015479" lon="8.626642970171762"><ele>199.75</ele><time>2026-04-06T13:16:41.96Z</time></trkpt><trkpt lat="45.72098595690595" lon="8.626552877594232"><ele>201.5</ele><time>2026-04-06T13:16:42.96Z</time></trkpt><trkpt lat="45.72086420944163" lon="8.626472600575248"><ele>203.25</ele><time>2026-04-06T13:16:43.96Z</time></trkpt><trkpt lat="45.72073235361486" lon="8.626398058330002"><ele>205.0</ele><time>2026-04-06T13:16:44.96Z</time></trkpt><trkpt lat="45.72059619561531" lon="8.626313419435158"><ele>205.0</ele><time>2026-04-06T13:16:45.96Z</time></trkpt><trkpt lat="45.720468943679975" lon="8.626215744141165"><ele>205.0</ele><time>2026-04-06T13:16:46.96Z</time></trkpt><trkpt lat="45.72035605280792" lon="8.626109230552158"><ele>205.0</ele><time>2026-04-06T13:16:47.96Z</time></trkpt><trkpt lat="45.72025374841781" lon="8.626012925127341"><ele>205.0</ele><time>2026-04-06T13:16:48.96Z</time></trkpt><trkpt lat="45.72016600915798" lon="8.625927863563255"><ele>205.16666666666666</ele><time>2026-04-06T13:16:49.96Z</time></trkpt><trkpt lat="45.720103088184224" lon="8.625847530415072"><ele>205.33333333333331</ele><time>2026-04-06T13:16:50.96Z</time></trkpt><trkpt lat="45.720057928208135" lon="8.625781372370952"><ele>205.5</ele><time>2026-04-06T13:16:51.96Z</time></trkpt><trkpt lat="45.72000425817017" lon="8.6256294823049"><ele>205.66666666666669</ele><time>2026-04-06T13:16:53.96Z</time></trkpt><trkpt lat="45.7199867819806" lon="8.625528648677394"><ele>205.83333333333334</ele><time>2026-04-06T13:16:54.96Z</time></trkpt><trkpt lat="45.71995119425594" lon="8.625418296858802"><ele>206.0</ele><time>2026-04-06T13:16:55.96Z</time></trkpt><trkpt lat="45.719920410980244" lon="8.625286951507013"><ele>206.75</ele><time>2026-04-06T13:16:56.96Z</time></trkpt><trkpt lat="45.719906092787205" lon="8.62513620128131"><ele>207.5</ele><time>2026-04-06T13:16:57.96Z</time></trkpt><trkpt lat="45.71990037220168" lon="8.624966657675687"><ele>208.25</ele><time>2026-04-06T13:16:58.96Z</time></trkpt><trkpt lat="45.719896011004344" lon="8.624794045534676"><ele>209.0</ele><time>2026-04-06T13:16:59.96Z</time></trkpt><trkpt lat="45.719888246248466" lon="8.624628101335082"><ele>209.5</ele><time>2026-04-06T13:17:00.96Z</time></trkpt><trkpt lat="45.719883258054516" lon="8.624451440113337"><ele>210.0</ele><time>2026-04-06T13:17:01.96Z</time></trkpt><trkpt lat="45.71987814369103" lon="8.624270854946836"><ele>210.5</ele><time>2026-04-06T13:17:02.96Z</time></trkpt><trkpt lat="45.719869371321195" lon="8.624086459184525"><ele>211.0</ele><time>2026-04-06T13:17:03.96Z</time></trkpt><trkpt lat="45.719863144473955" lon="8.623893638471031"><ele>211.0</ele><time>2026-04-06T13:17:04.96Z</time></trkpt><trkpt lat="45.71986092739787" lon="8.623697426732516"><ele>211.0</ele><time>2026-04-06T13:17:05.96Z</time></trkpt><trkpt lat="45.719855676586846" lon="8.623498619342248"><ele>211.0</ele><time>2026-04-06T13:17:06.96Z</time></trkpt><trkpt lat="45.71984854738819" lon="8.623300629305678"><ele>211.0</ele><time>2026-04-06T13:17:07.96Z</time></trkpt><trkpt lat="45.719841445409976" lon="8.623105365782958"><ele>210.75</ele><time>2026-04-06T13:17:08.96Z</time></trkpt><trkpt lat="45.719837174664534" lon="8.622914151831631"><ele>210.5</ele><time>2026-04-06T13:17:09.96Z</time></trkpt><trkpt lat="45.719832793123935" lon="8.622729495170928"><ele>210.25</ele><time>2026-04-06T13:17:10.961Z</time></trkpt><trkpt lat="45.71982057938922" lon="8.622547368305753"><ele>210.0</ele><time>2026-04-06T13:17:11.961Z</time></trkpt><trkpt lat="45.71981533216349" lon="8.62236039024271"><ele>210.0</ele><time>2026-04-06T13:17:12.961Z</time></trkpt><trkpt lat="45.719819421343814" lon="8.622167416103684"><ele>210.0</ele><time>2026-04-06T13:17:13.961Z</time></trkpt><trkpt lat="45.7198165262903" lon="8.621985261804438"><ele>210.0</ele><time>2026-04-06T13:17:14.961Z</time></trkpt><trkpt lat="45.71980886406476" lon="8.62180029754828"><ele>210.0</ele><time>2026-04-06T13:17:15.961Z</time></trkpt><trkpt lat="45.719809648326965" lon="8.621610528767832"><ele>209.75</ele><time>2026-04-06T13:17:16.961Z</time></trkpt><trkpt lat="45.71981190084543" lon="8.621413206230002"><ele>209.5</ele><time>2026-04-06T13:17:17.961Z</time></trkpt><trkpt lat="45.7198102214496" lon="8.621218107011575"><ele>209.25</ele><time>2026-04-06T13:17:18.961Z</time></trkpt><trkpt lat="45.71980446832142" lon="8.621027251651773"><ele>209.0</ele><time>2026-04-06T13:17:19.961Z</time></trkpt><trkpt lat="45.71979765737546" lon="8.620829628270808"><ele>209.0</ele><time>2026-04-06T13:17:20.961Z</time></trkpt><trkpt lat="45.71979330120017" lon="8.620630369742305"><ele>209.0</ele><time>2026-04-06T13:17:21.961Z</time></trkpt><trkpt lat="45.71979129288327" lon="8.620440596316305"><ele>209.0</ele><time>2026-04-06T13:17:22.961Z</time></trkpt><trkpt lat="45.719793966658024" lon="8.62025354069871"><ele>209.0</ele><time>2026-04-06T13:17:23.961Z</time></trkpt><trkpt lat="45.719794081324245" lon="8.620072725060473"><ele>209.0</ele><time>2026-04-06T13:17:24.961Z</time></trkpt><trkpt lat="45.71979592046023" lon="8.619896454512276"><ele>209.0</ele><time>2026-04-06T13:17:25.961Z</time></trkpt><trkpt lat="45.71979127357364" lon="8.61972492123207"><ele>209.0</ele><time>2026-04-06T13:17:26.961Z</time></trkpt><trkpt lat="45.719789998968864" lon="8.619564780490668"><ele>209.0</ele><time>2026-04-06T13:17:27.961Z</time></trkpt><trkpt lat="45.719789150660006" lon="8.619411779185846"><ele>209.00000000000003</ele><time>2026-04-06T13:17:28.961Z</time></trkpt><trkpt lat="45.71979011936423" lon="8.61926561234795"><ele>209.0</ele><time>2026-04-06T13:17:29.961Z</time></trkpt><trkpt lat="45.719786704639056" lon="8.61913065417559"><ele>209.0</ele><time>2026-04-06T13:17:30.961Z</time></trkpt><trkpt lat="45.71978328656519" lon="8.619003671942929"><ele>209.0</ele><time>2026-04-06T13:17:31.961Z</time></trkpt><trkpt lat="45.719779441479844" lon="8.618884784713423"><ele>209.00000000000003</ele><time>2026-04-06T13:17:32.961Z</time></trkpt><trkpt lat="45.7197751782721" lon="8.618772830781538"><ele>209.0</ele><time>2026-04-06T13:17:33.961Z</time></trkpt><trkpt lat="45.71977692921355" lon="8.618660959894363"><ele>209.16666666666669</ele><time>2026-04-06T13:17:34.961Z</time></trkpt><trkpt lat="45.71977973365092" lon="8.618544507712313"><ele>209.33333333333334</ele><time>2026-04-06T13:17:35.961Z</time></trkpt><trkpt lat="45.71977527817962" lon="8.618419673178684"><ele>209.5</ele><time>2026-04-06T13:17:36.961Z</time></trkpt><trkpt lat="45.719770193542075" lon="8.618295309352149"><ele>209.66666666666669</ele><time>2026-04-06T13:17:37.961Z</time></trkpt><trkpt lat="45.7197623292397" lon="8.618172503946766"><ele>209.83333333333334</ele><time>2026-04-06T13:17:38.961Z</time></trkpt><trkpt lat="45.71975850301909" lon="8.618051447537333"><ele>210.0</ele><time>2026-04-06T13:17:39.961Z</time></trkpt><trkpt lat="45.719749667629834" lon="8.617932895092963"><ele>210.0</ele><time>2026-04-06T13:17:40.961Z</time></trkpt><trkpt lat="45.7197414782913" lon="8.61781533809948"><ele>210.0</ele><time>2026-04-06T13:17:41.961Z</time></trkpt><trkpt lat="45.71973987385932" lon="8.617695523998368"><ele>210.0</ele><time>2026-04-06T13:17:42.961Z</time></trkpt><trkpt lat="45.7197412675936" lon="8.61757613531899"><ele>210.0</ele><time>2026-04-06T13:17:43.961Z</time></trkpt><trkpt lat="45.719740155875556" lon="8.617456773493734"><ele>210.0</ele><time>2026-04-06T13:17:44.961Z</time></trkpt><trkpt lat="45.7197400569665" lon="8.617335405611652"><ele>210.0</ele><time>2026-04-06T13:17:45.961Z</time></trkpt><trkpt lat="45.71973737309507" lon="8.61721564485872"><ele>210.0</ele><time>2026-04-06T13:17:46.961Z</time></trkpt><trkpt lat="45.71972814949639" lon="8.617100478705893"><ele>210.0</ele><time>2026-04-06T13:17:47.962Z</time></trkpt><trkpt lat="45.71971498659265" lon="8.617004046902265"><ele>210.0</ele><time>2026-04-06T13:17:48.961Z</time></trkpt><trkpt lat="45.71969102991585" lon="8.616846412704751"><ele>210.0</ele><time>2026-04-06T13:17:50.962Z</time></trkpt><trkpt lat="45.71969738940029" lon="8.61668416788324"><ele>210.0</ele><time>2026-04-06T13:17:52.961Z</time></trkpt><trkpt lat="45.719702513451" lon="8.616581317311507"><ele>210.0</ele><time>2026-04-06T13:17:53.961Z</time></trkpt><trkpt lat="45.71969913350287" lon="8.616473040691632"><ele>209.8</ele><time>2026-04-06T13:17:54.961Z</time></trkpt><trkpt lat="45.7197258074659" lon="8.616358057575704"><ele>209.6</ele><time>2026-04-06T13:17:55.961Z</time></trkpt><trkpt lat="45.71969942710357" lon="8.616245750491396"><ele>209.39999999999998</ele><time>2026-04-06T13:17:56.961Z</time></trkpt><trkpt lat="45.71970762681184" lon="8.616120178938198"><ele>209.2</ele><time>2026-04-06T13:17:57.961Z</time></trkpt><trkpt lat="45.71970899894922" lon="8.615980249550697"><ele>209.0</ele><time>2026-04-06T13:17:58.961Z</time></trkpt><trkpt lat="45.71970726729879" lon="8.615837950608794"><ele>209.2</ele><time>2026-04-06T13:17:59.961Z</time></trkpt><trkpt lat="45.71970602193746" lon="8.615701496261515"><ele>209.39999999999998</ele><time>2026-04-06T13:18:00.961Z</time></trkpt><trkpt lat="45.719705149407076" lon="8.61555045850632"><ele>209.6</ele><time>2026-04-06T13:18:01.961Z</time></trkpt><trkpt lat="45.71970895116014" lon="8.615384436165236"><ele>209.8</ele><time>2026-04-06T13:18:02.961Z</time></trkpt><trkpt lat="45.719706629519024" lon="8.615210199310033"><ele>210.0</ele><time>2026-04-06T13:18:03.961Z</time></trkpt><trkpt lat="45.71970454686486" lon="8.615034401752789"><ele>210.0</ele><time>2026-04-06T13:18:04.961Z</time></trkpt><trkpt lat="45.71970093056544" lon="8.614850834376218"><ele>210.0</ele><time>2026-04-06T13:18:05.961Z</time></trkpt><trkpt lat="45.71969888926603" lon="8.614677140831459"><ele>210.0</ele><time>2026-04-06T13:18:06.961Z</time></trkpt><trkpt lat="45.71969500730211" lon="8.614507291485712"><ele>210.0</ele><time>2026-04-06T13:18:07.961Z</time></trkpt><trkpt lat="45.71969127586305" lon="8.614340411798024"><ele>209.75</ele><time>2026-04-06T13:18:08.961Z</time></trkpt><trkpt lat="45.71968783062985" lon="8.614166037594092"><ele>209.5</ele><time>2026-04-06T13:18:09.961Z</time></trkpt><trkpt lat="45.7196795480096" lon="8.613986259584212"><ele>209.25</ele><time>2026-04-06T13:18:10.961Z</time></trkpt><trkpt lat="45.719673154481626" lon="8.61380974299539"><ele>209.0</ele><time>2026-04-06T13:18:11.961Z</time></trkpt><trkpt lat="45.71966875061086" lon="8.613632518416885"><ele>209.0</ele><time>2026-04-06T13:18:12.961Z</time></trkpt><trkpt lat="45.71966477445048" lon="8.613455989365393"><ele>209.0</ele><time>2026-04-06T13:18:13.961Z</time></trkpt><trkpt lat="45.71965921385671" lon="8.61328376800971"><ele>209.0</ele><time>2026-04-06T13:18:14.961Z</time></trkpt><trkpt lat="45.71965220578401" lon="8.613135440302875"><ele>209.0</ele><time>2026-04-06T13:18:15.961Z</time></trkpt><trkpt lat="45.71964779286598" lon="8.613014994784987"><ele>209.0</ele><time>2026-04-06T13:18:16.961Z</time></trkpt><trkpt lat="45.71964458946062" lon="8.61291909875303"><ele>209.00000000000003</ele><time>2026-04-06T13:18:17.961Z</time></trkpt><trkpt lat="45.71964233498745" lon="8.612760276597127"><ele>209.0</ele><time>2026-04-06T13:18:19.961Z</time></trkpt><trkpt lat="45.71964328339907" lon="8.61262266089551"><ele>209.0</ele><time>2026-04-06T13:18:21.961Z</time></trkpt><trkpt lat="45.719648261152095" lon="8.61251274742212"><ele>209.0</ele><time>2026-04-06T13:18:23.961Z</time></trkpt><trkpt lat="45.71964980496906" lon="8.612404595162138"><ele>209.00000000000003</ele><time>2026-04-06T13:18:25.961Z</time></trkpt><trkpt lat="45.719668692951416" lon="8.612298883417777"><ele>209.0</ele><time>2026-04-06T13:18:27.961Z</time></trkpt><trkpt lat="45.719711038662275" lon="8.61219022925501"><ele>209.0</ele><time>2026-04-06T13:18:29.961Z</time></trkpt><trkpt lat="45.71978249930255" lon="8.612077437783508"><ele>209.0</ele><time>2026-04-06T13:18:31.961Z</time></trkpt><trkpt lat="45.71983043132991" lon="8.611933480796925"><ele>209.0</ele><time>2026-04-06T13:18:33.961Z</time></trkpt><trkpt lat="45.719797270090226" lon="8.611778097751214"><ele>209.0</ele><time>2026-04-06T13:18:35.961Z</time></trkpt><trkpt lat="45.71971401415546" lon="8.61168041256509"><ele>209.0</ele><time>2026-04-06T13:18:37.96Z</time></trkpt><trkpt lat="45.71963394165992" lon="8.611639627645229"><ele>209.0</ele><time>2026-04-06T13:18:39.96Z</time></trkpt><trkpt lat="45.71962450155606" lon="8.611500262416282"><ele>209.0</ele><time>2026-04-06T13:18:40.96Z</time></trkpt><trkpt lat="45.71960460677554" lon="8.611327812548195"><ele>209.0</ele><time>2026-04-06T13:18:42.96Z</time></trkpt><trkpt lat="45.719601963403335" lon="8.611219063378213"><ele>209.0</ele><time>2026-04-06T13:18:43.96Z</time></trkpt><trkpt lat="45.71959487196545" lon="8.61109217562949"><ele>209.0</ele><time>2026-04-06T13:18:44.96Z</time></trkpt><trkpt lat="45.71958775732221" lon="8.61095287919251"><ele>209.0</ele><time>2026-04-06T13:18:45.96Z</time></trkpt><trkpt lat="45.71958079090896" lon="8.610799393984783"><ele>209.0</ele><time>2026-04-06T13:18:46.96Z</time></trkpt><trkpt lat="45.71957523625062" lon="8.61063357022874"><ele>209.0</ele><time>2026-04-06T13:18:47.96Z</time></trkpt><trkpt lat="45.71957123483884" lon="8.610472383594683"><ele>209.0</ele><time>2026-04-06T13:18:48.96Z</time></trkpt><trkpt lat="45.71956927704331" lon="8.610313580297216"><ele>209.0</ele><time>2026-04-06T13:18:49.96Z</time></trkpt><trkpt lat="45.71956916546365" lon="8.610153127496003"><ele>208.75</ele><time>2026-04-06T13:18:50.96Z</time></trkpt><trkpt lat="45.71956380243877" lon="8.609988838660534"><ele>208.5</ele><time>2026-04-06T13:18:51.96Z</time></trkpt><trkpt lat="45.71955988737532" lon="8.609819020099575"><ele>208.25</ele><time>2026-04-06T13:18:52.96Z</time></trkpt><trkpt lat="45.7195549213138" lon="8.609647794656754"><ele>208.0</ele><time>2026-04-06T13:18:53.96Z</time></trkpt><trkpt lat="45.71954994646839" lon="8.609470444598422"><ele>208.5</ele><time>2026-04-06T13:18:54.96Z</time></trkpt><trkpt lat="45.71954606899926" lon="8.609290779762414"><ele>209.0</ele><time>2026-04-06T13:18:55.96Z</time></trkpt><trkpt lat="45.719543630584816" lon="8.609110740762338"><ele>209.5</ele><time>2026-04-06T13:18:56.96Z</time></trkpt><trkpt lat="45.71954236416831" lon="8.608934362627231"><ele>210.0</ele><time>2026-04-06T13:18:57.96Z</time></trkpt><trkpt lat="45.719540279355144" lon="8.60875892559199"><ele>210.75</ele><time>2026-04-06T13:18:58.96Z</time></trkpt><trkpt lat="45.71953704005598" lon="8.608586724102045"><ele>211.5</ele><time>2026-04-06T13:18:59.96Z</time></trkpt><trkpt lat="45.71953328553485" lon="8.608420197301383"><ele>212.25</ele><time>2026-04-06T13:19:00.96Z</time></trkpt><trkpt lat="45.719530256570955" lon="8.608253424955764"><ele>213.0</ele><time>2026-04-06T13:19:01.96Z</time></trkpt><trkpt lat="45.719527430970665" lon="8.608086446507336"><ele>213.0</ele><time>2026-04-06T13:19:02.96Z</time></trkpt><trkpt lat="45.71952401082861" lon="8.607915457755565"><ele>213.0</ele><time>2026-04-06T13:19:03.96Z</time></trkpt><trkpt lat="45.719519906066154" lon="8.607737622567255"><ele>213.0</ele><time>2026-04-06T13:19:04.96Z</time></trkpt><trkpt lat="45.71951404892825" lon="8.607561570140895"><ele>213.0</ele><time>2026-04-06T13:19:05.96Z</time></trkpt><trkpt lat="45.71951175646269" lon="8.607381648390806"><ele>213.25</ele><time>2026-04-06T13:19:06.96Z</time></trkpt><trkpt lat="45.719510518017515" lon="8.607195426318698"><ele>213.5</ele><time>2026-04-06T13:19:07.96Z</time></trkpt><trkpt lat="45.719509316900464" lon="8.607002172423465"><ele>213.75</ele><time>2026-04-06T13:19:08.96Z</time></trkpt><trkpt lat="45.719505221404106" lon="8.606809179511641"><ele>214.0</ele><time>2026-04-06T13:19:09.96Z</time></trkpt><trkpt lat="45.71950004601007" lon="8.606615993269168"><ele>213.5</ele><time>2026-04-06T13:19:10.96Z</time></trkpt><trkpt lat="45.71949574940417" lon="8.606422584717103"><ele>213.0</ele><time>2026-04-06T13:19:11.96Z</time></trkpt><trkpt lat="45.71950018864022" lon="8.6062302240203"><ele>212.5</ele><time>2026-04-06T13:19:12.96Z</time></trkpt><trkpt lat="45.719500595336605" lon="8.606036865814467"><ele>212.0</ele><time>2026-04-06T13:19:13.96Z</time></trkpt><trkpt lat="45.71949570803878" lon="8.605840723396607"><ele>212.0</ele><time>2026-04-06T13:19:14.96Z</time></trkpt><trkpt lat="45.71948926569531" lon="8.605649868564113"><ele>212.0</ele><time>2026-04-06T13:19:15.96Z</time></trkpt><trkpt lat="45.71948519505122" lon="8.605466416883758"><ele>212.0</ele><time>2026-04-06T13:19:16.96Z</time></trkpt><trkpt lat="45.71947579466265" lon="8.605291838702088"><ele>212.0</ele><time>2026-04-06T13:19:17.96Z</time></trkpt><trkpt lat="45.7194709440985" lon="8.605125489714727"><ele>211.8</ele><time>2026-04-06T13:19:18.96Z</time></trkpt><trkpt lat="45.71945889533173" lon="8.60496558777212"><ele>211.6</ele><time>2026-04-06T13:19:19.96Z</time></trkpt><trkpt lat="45.7194495091292" lon="8.60480927873797"><ele>211.4</ele><time>2026-04-06T13:19:20.96Z</time></trkpt><trkpt lat="45.719441853685275" lon="8.604658973039939"><ele>211.20000000000002</ele><time>2026-04-06T13:19:21.96Z</time></trkpt><trkpt lat="45.719434999536034" lon="8.604511250594166"><ele>211.0</ele><time>2026-04-06T13:19:22.96Z</time></trkpt><trkpt lat="45.71942561439166" lon="8.604366527075356"><ele>210.49999999999997</ele><time>2026-04-06T13:19:23.96Z</time></trkpt><trkpt lat="45.7194210699447" lon="8.604232229294691"><ele>210.0</ele><time>2026-04-06T13:19:24.96Z</time></trkpt><trkpt lat="45.71945552206014" lon="8.604100313985793"><ele>209.5</ele><time>2026-04-06T13:19:25.959Z</time></trkpt><trkpt lat="45.719454644256814" lon="8.603974130109835"><ele>209.0</ele><time>2026-04-06T13:19:26.959Z</time></trkpt><trkpt lat="45.71945588871843" lon="8.603854456566005"><ele>208.49999999999997</ele><time>2026-04-06T13:19:27.959Z</time></trkpt><trkpt lat="45.71946052154615" lon="8.6037547977359"><ele>208.0</ele><time>2026-04-06T13:19:28.959Z</time></trkpt><trkpt lat="45.71946820686013" lon="8.603663977021103"><ele>207.83333333333331</ele><time>2026-04-06T13:19:29.959Z</time></trkpt><trkpt lat="45.7194817743346" lon="8.603573430009957"><ele>207.66666666666666</ele><time>2026-04-06T13:19:30.959Z</time></trkpt><trkpt lat="45.71951639128174" lon="8.60349255689002"><ele>207.5</ele><time>2026-04-06T13:19:31.959Z</time></trkpt><trkpt lat="45.71956564965479" lon="8.603400158448943"><ele>207.33333333333331</ele><time>2026-04-06T13:19:32.959Z</time></trkpt><trkpt lat="45.71961667428382" lon="8.603297983033007"><ele>207.16666666666666</ele><time>2026-04-06T13:19:33.959Z</time></trkpt><trkpt lat="45.719652173499455" lon="8.603190180449298"><ele>207.0</ele><time>2026-04-06T13:19:34.959Z</time></trkpt><trkpt lat="45.71961921642848" lon="8.603080322468541"><ele>207.0</ele><time>2026-04-06T13:19:35.959Z</time></trkpt><trkpt lat="45.719570400230936" lon="8.602985464296113"><ele>207.0</ele><time>2026-04-06T13:19:36.959Z</time></trkpt><trkpt lat="45.71949684697418" lon="8.602903450638301"><ele>207.0</ele><time>2026-04-06T13:19:37.959Z</time></trkpt><trkpt lat="45.71943737827041" lon="8.6027814691528"><ele>207.0</ele><time>2026-04-06T13:19:38.959Z</time></trkpt><trkpt lat="45.71940382879632" lon="8.602623402132703"><ele>207.0</ele><time>2026-04-06T13:19:39.959Z</time></trkpt><trkpt lat="45.71941206299306" lon="8.602434054798826"><ele>206.5</ele><time>2026-04-06T13:19:40.959Z</time></trkpt><trkpt lat="45.719392557992165" lon="8.602229462517746"><ele>206.0</ele><time>2026-04-06T13:19:41.959Z</time></trkpt><trkpt lat="45.71939095919088" lon="8.602019815919366"><ele>205.5</ele><time>2026-04-06T13:19:42.959Z</time></trkpt><trkpt lat="45.71938705997037" lon="8.601820360393072"><ele>205.0</ele><time>2026-04-06T13:19:43.959Z</time></trkpt><trkpt lat="45.71938481222336" lon="8.601622083063349"><ele>205.0</ele><time>2026-04-06T13:19:44.959Z</time></trkpt><trkpt lat="45.71938373977864" lon="8.601425228100405"><ele>205.0</ele><time>2026-04-06T13:19:45.959Z</time></trkpt><trkpt lat="45.71937974783983" lon="8.60123661404148"><ele>205.0</ele><time>2026-04-06T13:19:46.959Z</time></trkpt><trkpt lat="45.71937685230907" lon="8.601050449449668"><ele>205.0</ele><time>2026-04-06T13:19:47.959Z</time></trkpt><trkpt lat="45.719375958226706" lon="8.600866334999516"><ele>204.5</ele><time>2026-04-06T13:19:48.959Z</time></trkpt><trkpt lat="45.71937634762691" lon="8.600684282414083"><ele>204.0</ele><time>2026-04-06T13:19:49.959Z</time></trkpt><trkpt lat="45.71937301561691" lon="8.600497037989031"><ele>203.5</ele><time>2026-04-06T13:19:50.96Z</time></trkpt><trkpt lat="45.71936569908141" lon="8.60030884181863"><ele>203.0</ele><time>2026-04-06T13:19:51.96Z</time></trkpt><trkpt lat="45.71936296331182" lon="8.600114449484563"><ele>202.5</ele><time>2026-04-06T13:19:52.96Z</time></trkpt><trkpt lat="45.71935785701993" lon="8.599917050302516"><ele>202.0</ele><time>2026-04-06T13:19:53.96Z</time></trkpt><trkpt lat="45.71935248310832" lon="8.599717956181161"><ele>201.5</ele><time>2026-04-06T13:19:54.96Z</time></trkpt><trkpt lat="45.71934857827951" lon="8.59951012921182"><ele>201.0</ele><time>2026-04-06T13:19:55.96Z</time></trkpt><trkpt lat="45.71936990312344" lon="8.599310201336383"><ele>201.0</ele><time>2026-04-06T13:19:56.96Z</time></trkpt><trkpt lat="45.71937023498526" lon="8.599119212788915"><ele>201.0</ele><time>2026-04-06T13:19:57.96Z</time></trkpt><trkpt lat="45.719369332766185" lon="8.59894837277631"><ele>201.0</ele><time>2026-04-06T13:19:58.96Z</time></trkpt><trkpt lat="45.71936704196368" lon="8.598793612272221"><ele>201.0</ele><time>2026-04-06T13:19:59.96Z</time></trkpt><trkpt lat="45.719363953792765" lon="8.59864533372902"><ele>201.20000000000002</ele><time>2026-04-06T13:20:00.96Z</time></trkpt><trkpt lat="45.719359506374495" lon="8.59850316234106"><ele>201.4</ele><time>2026-04-06T13:20:01.96Z</time></trkpt><trkpt lat="45.71935570071566" lon="8.598361161809695"><ele>201.6</ele><time>2026-04-06T13:20:02.96Z</time></trkpt><trkpt lat="45.71935131715176" lon="8.598217480182456"><ele>201.8</ele><time>2026-04-06T13:20:03.959Z</time></trkpt><trkpt lat="45.719350009870624" lon="8.59806873392574"><ele>202.0</ele><time>2026-04-06T13:20:04.959Z</time></trkpt><trkpt lat="45.71935141530049" lon="8.597911959069153"><ele>202.25</ele><time>2026-04-06T13:20:05.959Z</time></trkpt><trkpt lat="45.7193531832353" lon="8.597748557418297"><ele>202.5</ele><time>2026-04-06T13:20:06.959Z</time></trkpt><trkpt lat="45.719351049737604" lon="8.597579464886007"><ele>202.75</ele><time>2026-04-06T13:20:07.959Z</time></trkpt><trkpt lat="45.71935120885819" lon="8.59741534707218"><ele>203.0</ele><time>2026-04-06T13:20:08.959Z</time></trkpt><trkpt lat="45.71935367231911" lon="8.597257222684224"><ele>203.0</ele><time>2026-04-06T13:20:09.959Z</time></trkpt><trkpt lat="45.7193576272119" lon="8.597104446764968"><ele>203.0</ele><time>2026-04-06T13:20:10.959Z</time></trkpt><trkpt lat="45.71936697822545" lon="8.596961217408051"><ele>203.0</ele><time>2026-04-06T13:20:11.959Z</time></trkpt><trkpt lat="45.71937393369086" lon="8.596811952324854"><ele>203.0</ele><time>2026-04-06T13:20:12.959Z</time></trkpt><trkpt lat="45.71937926385938" lon="8.596652432381415"><ele>203.0</ele><time>2026-04-06T13:20:13.959Z</time></trkpt><trkpt lat="45.71938721203588" lon="8.596491406977142"><ele>203.0</ele><time>2026-04-06T13:20:14.959Z</time></trkpt><trkpt lat="45.71939652805804" lon="8.596324393218643"><ele>203.0</ele><time>2026-04-06T13:20:15.959Z</time></trkpt><trkpt lat="45.71940753604083" lon="8.596154219985534"><ele>203.0</ele><time>2026-04-06T13:20:16.959Z</time></trkpt><trkpt lat="45.71941900201483" lon="8.595975994387432"><ele>203.0</ele><time>2026-04-06T13:20:17.959Z</time></trkpt><trkpt lat="45.719429215642286" lon="8.595795425710937"><ele>203.5</ele><time>2026-04-06T13:20:18.959Z</time></trkpt><trkpt lat="45.719436233676795" lon="8.595607280130746"><ele>204.0</ele><time>2026-04-06T13:20:19.959Z</time></trkpt><trkpt lat="45.71944802463993" lon="8.595417945356889"><ele>204.5</ele><time>2026-04-06T13:20:20.959Z</time></trkpt><trkpt lat="45.71946116857958" lon="8.5952204095736"><ele>205.0</ele><time>2026-04-06T13:20:21.959Z</time></trkpt><trkpt lat="45.719474025129145" lon="8.595028582274756"><ele>205.0</ele><time>2026-04-06T13:20:22.959Z</time></trkpt><trkpt lat="45.71948908750015" lon="8.594832235458384"><ele>205.0</ele><time>2026-04-06T13:20:23.959Z</time></trkpt><trkpt lat="45.71950564520382" lon="8.59463161979482"><ele>205.0</ele><time>2026-04-06T13:20:24.959Z</time></trkpt><trkpt lat="45.71952104765687" lon="8.594430624937564"><ele>205.0</ele><time>2026-04-06T13:20:25.959Z</time></trkpt><trkpt lat="45.71953742153771" lon="8.594235060370234"><ele>205.0</ele><time>2026-04-06T13:20:26.959Z</time></trkpt><trkpt lat="45.719551935959835" lon="8.594043205538242"><ele>205.0</ele><time>2026-04-06T13:20:27.959Z</time></trkpt><trkpt lat="45.71956432189454" lon="8.593853941345364"><ele>205.0</ele><time>2026-04-06T13:20:28.959Z</time></trkpt><trkpt lat="45.71957742296325" lon="8.593670172508363"><ele>205.0</ele><time>2026-04-06T13:20:29.959Z</time></trkpt><trkpt lat="45.71959071178039" lon="8.593488172948799"><ele>205.0</ele><time>2026-04-06T13:20:30.959Z</time></trkpt><trkpt lat="45.71960511705505" lon="8.59330410767137"><ele>205.0</ele><time>2026-04-06T13:20:31.959Z</time></trkpt><trkpt lat="45.71962010119139" lon="8.593117196746245"><ele>205.0</ele><time>2026-04-06T13:20:32.959Z</time></trkpt><trkpt lat="45.71963033002233" lon="8.592932617377874"><ele>205.0</ele><time>2026-04-06T13:20:33.959Z</time></trkpt><trkpt lat="45.719641191313414" lon="8.592754336349454"><ele>205.5</ele><time>2026-04-06T13:20:34.959Z</time></trkpt><trkpt lat="45.719650549972854" lon="8.592582220280985"><ele>206.0</ele><time>2026-04-06T13:20:35.959Z</time></trkpt><trkpt lat="45.71966130400101" lon="8.59241930485037"><ele>206.5</ele><time>2026-04-06T13:20:36.959Z</time></trkpt><trkpt lat="45.71966897442914" lon="8.592258024696644"><ele>207.0</ele><time>2026-04-06T13:20:37.959Z</time></trkpt><trkpt lat="45.71967366707902" lon="8.592107719067707"><ele>206.83333333333334</ele><time>2026-04-06T13:20:38.959Z</time></trkpt><trkpt lat="45.71967603272624" lon="8.591969708768637"><ele>206.66666666666669</ele><time>2026-04-06T13:20:39.959Z</time></trkpt><trkpt lat="45.719675791103796" lon="8.591839959629889"><ele>206.5</ele><time>2026-04-06T13:20:40.959Z</time></trkpt><trkpt lat="45.71967722244713" lon="8.5917278895162"><ele>206.33333333333334</ele><time>2026-04-06T13:20:41.959Z</time></trkpt><trkpt lat="45.71967450002792" lon="8.591629831561672"><ele>206.16666666666669</ele><time>2026-04-06T13:20:42.959Z</time></trkpt><trkpt lat="45.71967470904314" lon="8.591480565299095"><ele>206.0</ele><time>2026-04-06T13:20:44.959Z</time></trkpt><trkpt lat="45.71968108515886" lon="8.591351763529067"><ele>206.00000000000003</ele><time>2026-04-06T13:20:46.959Z</time></trkpt><trkpt lat="45.719721648809895" lon="8.59119831242635"><ele>206.0</ele><time>2026-04-06T13:20:48.959Z</time></trkpt><trkpt lat="45.71973966566911" lon="8.591099022567363"><ele>206.0</ele><time>2026-04-06T13:20:49.958Z</time></trkpt><trkpt lat="45.719748278894166" lon="8.590992306620212"><ele>206.0</ele><time>2026-04-06T13:20:50.958Z</time></trkpt><trkpt lat="45.71973291348564" lon="8.590894669757764"><ele>206.00000000000003</ele><time>2026-04-06T13:20:51.958Z</time></trkpt><trkpt lat="45.719700421277835" lon="8.590815410405162"><ele>206.0</ele><time>2026-04-06T13:20:52.958Z</time></trkpt><trkpt lat="45.719646530888305" lon="8.590700112664223"><ele>205.8</ele><time>2026-04-06T13:20:54.958Z</time></trkpt><trkpt lat="45.71949424384854" lon="8.590756145509564"><ele>205.60000000000002</ele><time>2026-04-06T13:20:56.958Z</time></trkpt><trkpt lat="45.71942034366531" lon="8.590796277914185"><ele>205.4</ele><time>2026-04-06T13:20:57.958Z</time></trkpt><trkpt lat="45.719333930519056" lon="8.590840234573102"><ele>205.2</ele><time>2026-04-06T13:20:58.958Z</time></trkpt><trkpt lat="45.71923521269297" lon="8.590870244308668"><ele>205.0</ele><time>2026-04-06T13:20:59.958Z</time></trkpt><trkpt lat="45.71913743591225" lon="8.590880547315447"><ele>204.99999999999997</ele><time>2026-04-06T13:21:00.958Z</time></trkpt><trkpt lat="45.71904760463735" lon="8.59089256840588"><ele>205.0</ele><time>2026-04-06T13:21:01.958Z</time></trkpt><trkpt lat="45.718960554405385" lon="8.59090635693558"><ele>205.0</ele><time>2026-04-06T13:21:02.958Z</time></trkpt><trkpt lat="45.71887828128058" lon="8.590923111193957"><ele>205.0</ele><time>2026-04-06T13:21:03.958Z</time></trkpt><trkpt lat="45.718796450054874" lon="8.590941131280777"><ele>204.99999999999997</ele><time>2026-04-06T13:21:04.958Z</time></trkpt><trkpt lat="45.71871189111726" lon="8.590960238541047"><ele>205.0</ele><time>2026-04-06T13:21:05.958Z</time></trkpt><trkpt lat="45.718626329350705" lon="8.590979235988357"><ele>205.2</ele><time>2026-04-06T13:21:06.958Z</time></trkpt><trkpt lat="45.718543108209396" lon="8.590998727689966"><ele>205.4</ele><time>2026-04-06T13:21:07.958Z</time></trkpt><trkpt lat="45.718454854436985" lon="8.591020255001979"><ele>205.60000000000002</ele><time>2026-04-06T13:21:08.958Z</time></trkpt><trkpt lat="45.71836168964256" lon="8.591041937652353"><ele>205.8</ele><time>2026-04-06T13:21:09.958Z</time></trkpt><trkpt lat="45.71825943627328" lon="8.591071718659858"><ele>206.0</ele><time>2026-04-06T13:21:10.958Z</time></trkpt><trkpt lat="45.71815235848103" lon="8.591100169484271"><ele>206.0</ele><time>2026-04-06T13:21:11.958Z</time></trkpt><trkpt lat="45.7180421666478" lon="8.591127182556688"><ele>206.0</ele><time>2026-04-06T13:21:12.958Z</time></trkpt><trkpt lat="45.71792791152769" lon="8.59115747248395"><ele>206.0</ele><time>2026-04-06T13:21:13.958Z</time></trkpt><trkpt lat="45.717804627507874" lon="8.591189191289796"><ele>206.0</ele><time>2026-04-06T13:21:14.958Z</time></trkpt><trkpt lat="45.717677415576645" lon="8.591226173721752"><ele>207.25</ele><time>2026-04-06T13:21:15.958Z</time></trkpt><trkpt lat="45.71755265761535" lon="8.591263501913367"><ele>208.5</ele><time>2026-04-06T13:21:16.958Z</time></trkpt><trkpt lat="45.717426132218066" lon="8.591293893545219"><ele>209.75</ele><time>2026-04-06T13:21:17.958Z</time></trkpt><trkpt lat="45.717304960813834" lon="8.591325823526049"><ele>211.0</ele><time>2026-04-06T13:21:18.958Z</time></trkpt><trkpt lat="45.7171846426409" lon="8.591355078071858"><ele>211.0</ele><time>2026-04-06T13:21:19.958Z</time></trkpt><trkpt lat="45.71706179497726" lon="8.591384593761829"><ele>211.0</ele><time>2026-04-06T13:21:20.958Z</time></trkpt><trkpt lat="45.71694007026202" lon="8.591424053912391"><ele>211.0</ele><time>2026-04-06T13:21:21.958Z</time></trkpt><trkpt lat="45.71681684752712" lon="8.591458599646742"><ele>211.0</ele><time>2026-04-06T13:21:22.958Z</time></trkpt><trkpt lat="45.71669154094068" lon="8.591492685620807"><ele>210.25</ele><time>2026-04-06T13:21:23.958Z</time></trkpt><trkpt lat="45.71656277706552" lon="8.591525724872996"><ele>209.5</ele><time>2026-04-06T13:21:24.958Z</time></trkpt><trkpt lat="45.71643468283106" lon="8.59155451561506"><ele>208.75</ele><time>2026-04-06T13:21:25.958Z</time></trkpt><trkpt lat="45.71630735129594" lon="8.591589718146901"><ele>208.0</ele><time>2026-04-06T13:21:26.958Z</time></trkpt><trkpt lat="45.71618500940789" lon="8.591628214854465"><ele>208.25</ele><time>2026-04-06T13:21:27.958Z</time></trkpt><trkpt lat="45.71606256357608" lon="8.59166240836831"><ele>208.5</ele><time>2026-04-06T13:21:28.958Z</time></trkpt><trkpt lat="45.715943091904485" lon="8.591691083123399"><ele>208.75</ele><time>2026-04-06T13:21:29.958Z</time></trkpt><trkpt lat="45.71581732417456" lon="8.59172175789729"><ele>209.0</ele><time>2026-04-06T13:21:30.958Z</time></trkpt><trkpt lat="45.71568982684868" lon="8.591755292420594"><ele>209.0</ele><time>2026-04-06T13:21:31.958Z</time></trkpt><trkpt lat="45.7155593269229" lon="8.591789318658407"><ele>209.0</ele><time>2026-04-06T13:21:32.958Z</time></trkpt><trkpt lat="45.71542582991673" lon="8.591820799124488"><ele>209.0</ele><time>2026-04-06T13:21:33.958Z</time></trkpt><trkpt lat="45.71529009484149" lon="8.591852684409897"><ele>209.0</ele><time>2026-04-06T13:21:34.958Z</time></trkpt><trkpt lat="45.71515413674305" lon="8.591875069232497"><ele>209.5</ele><time>2026-04-06T13:21:35.958Z</time></trkpt><trkpt lat="45.71501878081672" lon="8.591891415408032"><ele>210.0</ele><time>2026-04-06T13:21:36.958Z</time></trkpt><trkpt lat="45.71488687605445" lon="8.59189874117578"><ele>210.5</ele><time>2026-04-06T13:21:37.958Z</time></trkpt><trkpt lat="45.714754690100094" lon="8.591893768751477"><ele>211.0</ele><time>2026-04-06T13:21:38.957Z</time></trkpt><trkpt lat="45.71462436632184" lon="8.591884345512204"><ele>211.0</ele><time>2026-04-06T13:21:39.957Z</time></trkpt><trkpt lat="45.714495189500944" lon="8.591868553743907"><ele>211.0</ele><time>2026-04-06T13:21:40.957Z</time></trkpt><trkpt lat="45.71436823687905" lon="8.5918408384449"><ele>211.0</ele><time>2026-04-06T13:21:41.957Z</time></trkpt><trkpt lat="45.71423982489624" lon="8.591811758316119"><ele>211.0</ele><time>2026-04-06T13:21:42.957Z</time></trkpt><trkpt lat="45.71411325544954" lon="8.591773158877249"><ele>211.0</ele><time>2026-04-06T13:21:43.957Z</time></trkpt><trkpt lat="45.713980469202596" lon="8.591730938141103"><ele>211.0</ele><time>2026-04-06T13:21:44.957Z</time></trkpt><trkpt lat="45.7138438413168" lon="8.591680845571483"><ele>211.0</ele><time>2026-04-06T13:21:45.957Z</time></trkpt><trkpt lat="45.713701893919136" lon="8.591626113563873"><ele>211.0</ele><time>2026-04-06T13:21:46.957Z</time></trkpt><trkpt lat="45.71355579826476" lon="8.591570778355452"><ele>210.66666666666666</ele><time>2026-04-06T13:21:47.957Z</time></trkpt><trkpt lat="45.713408835845954" lon="8.591514538199084"><ele>210.33333333333331</ele><time>2026-04-06T13:21:48.957Z</time></trkpt><trkpt lat="45.7132715832143" lon="8.591424744590345"><ele>210.0</ele><time>2026-04-06T13:21:49.957Z</time></trkpt><trkpt lat="45.71312313967539" lon="8.591366530904546"><ele>210.0</ele><time>2026-04-06T13:21:50.957Z</time></trkpt><trkpt lat="45.71297353299801" lon="8.591307292798108"><ele>210.0</ele><time>2026-04-06T13:21:51.957Z</time></trkpt><trkpt lat="45.71282085376429" lon="8.59124315838919"><ele>210.0</ele><time>2026-04-06T13:21:52.957Z</time></trkpt><trkpt lat="45.71266600399372" lon="8.591178778530375"><ele>211.0</ele><time>2026-04-06T13:21:53.957Z</time></trkpt><trkpt lat="45.712509143401554" lon="8.591113219890223"><ele>212.0</ele><time>2026-04-06T13:21:54.957Z</time></trkpt><trkpt lat="45.71234796102788" lon="8.591049818026148"><ele>213.0</ele><time>2026-04-06T13:21:55.957Z</time></trkpt><trkpt lat="45.712182178536956" lon="8.590979960800512"><ele>213.0</ele><time>2026-04-06T13:21:56.959Z</time></trkpt><trkpt lat="45.71201497449431" lon="8.59090731394709"><ele>213.0</ele><time>2026-04-06T13:21:57.958Z</time></trkpt><trkpt lat="45.71184615137982" lon="8.590836206404653"><ele>213.0</ele><time>2026-04-06T13:21:58.958Z</time></trkpt><trkpt lat="45.71167727761177" lon="8.590763122681867"><ele>214.66666666666669</ele><time>2026-04-06T13:21:59.959Z</time></trkpt><trkpt lat="45.71151617255245" lon="8.590697317789871"><ele>216.33333333333334</ele><time>2026-04-06T13:22:00.958Z</time></trkpt><trkpt lat="45.71135336766074" lon="8.590630605212175"><ele>218.0</ele><time>2026-04-06T13:22:01.958Z</time></trkpt><trkpt lat="45.71119028738752" lon="8.590562972669538"><ele>218.33333333333334</ele><time>2026-04-06T13:22:02.958Z</time></trkpt><trkpt lat="45.7110298958603" lon="8.590491875003499"><ele>218.66666666666669</ele><time>2026-04-06T13:22:03.958Z</time></trkpt><trkpt lat="45.71087097893561" lon="8.5904209530736"><ele>219.0</ele><time>2026-04-06T13:22:04.958Z</time></trkpt><trkpt lat="45.710714679199974" lon="8.590337088666038"><ele>219.66666666666669</ele><time>2026-04-06T13:22:05.958Z</time></trkpt><trkpt lat="45.7105642206951" lon="8.59023622473838"><ele>220.33333333333334</ele><time>2026-04-06T13:22:06.958Z</time></trkpt><trkpt lat="45.710423066014684" lon="8.590108249698988"><ele>221.0</ele><time>2026-04-06T13:22:07.958Z</time></trkpt><trkpt lat="45.710282971636445" lon="8.589976985385544"><ele>220.0</ele><time>2026-04-06T13:22:08.958Z</time></trkpt><trkpt lat="45.710142556015356" lon="8.589847282738335"><ele>219.0</ele><time>2026-04-06T13:22:09.958Z</time></trkpt><trkpt lat="45.70999679798245" lon="8.589728594726335"><ele>218.0</ele><time>2026-04-06T13:22:10.958Z</time></trkpt><trkpt lat="45.70984955676108" lon="8.589609685965875"><ele>219.33333333333334</ele><time>2026-04-06T13:22:11.958Z</time></trkpt><trkpt lat="45.709703819980255" lon="8.58948741237755"><ele>220.66666666666669</ele><time>2026-04-06T13:22:12.958Z</time></trkpt><trkpt lat="45.70956430862386" lon="8.589367837719163"><ele>222.0</ele><time>2026-04-06T13:22:13.958Z</time></trkpt><trkpt lat="45.709436465490725" lon="8.589252882746338"><ele>222.75</ele><time>2026-04-06T13:22:14.958Z</time></trkpt><trkpt lat="45.7093136322069" lon="8.589142529837739"><ele>223.5</ele><time>2026-04-06T13:22:15.958Z</time></trkpt><trkpt lat="45.70919544583802" lon="8.589033065970751"><ele>224.25</ele><time>2026-04-06T13:22:16.958Z</time></trkpt><trkpt lat="45.70907653052906" lon="8.58892196553403"><ele>225.0</ele><time>2026-04-06T13:22:17.958Z</time></trkpt><trkpt lat="45.70895994034985" lon="8.588806059348865"><ele>225.0</ele><time>2026-04-06T13:22:18.958Z</time></trkpt><trkpt lat="45.70884495107657" lon="8.588692518944448"><ele>225.0</ele><time>2026-04-06T13:22:19.958Z</time></trkpt><trkpt lat="45.70872144559733" lon="8.588573450101668"><ele>225.0</ele><time>2026-04-06T13:22:20.958Z</time></trkpt><trkpt lat="45.70859195408347" lon="8.588459130160773"><ele>225.0</ele><time>2026-04-06T13:22:21.958Z</time></trkpt><trkpt lat="45.70846182065471" lon="8.588342275037773"><ele>227.0</ele><time>2026-04-06T13:22:22.958Z</time></trkpt><trkpt lat="45.70832655509007" lon="8.588227434535794"><ele>229.0</ele><time>2026-04-06T13:22:23.958Z</time></trkpt><trkpt lat="45.708187989909405" lon="8.58811310538474"><ele>231.0</ele><time>2026-04-06T13:22:24.958Z</time></trkpt><trkpt lat="45.7080557698234" lon="8.58799404593889"><ele>231.0</ele><time>2026-04-06T13:22:25.958Z</time></trkpt><trkpt lat="45.70792979438967" lon="8.587881237319653"><ele>231.0</ele><time>2026-04-06T13:22:26.958Z</time></trkpt><trkpt lat="45.70781551269467" lon="8.587775958163736"><ele>231.0</ele><time>2026-04-06T13:22:27.958Z</time></trkpt><trkpt lat="45.707704045663185" lon="8.587686830190588"><ele>231.0</ele><time>2026-04-06T13:22:28.958Z</time></trkpt><trkpt lat="45.70758824807643" lon="8.587596381214949"><ele>232.5</ele><time>2026-04-06T13:22:29.958Z</time></trkpt><trkpt lat="45.707469887713444" lon="8.58750639643938"><ele>234.0</ele><time>2026-04-06T13:22:30.958Z</time></trkpt><trkpt lat="45.70735624235863" lon="8.587417743833166"><ele>235.5</ele><time>2026-04-06T13:22:31.958Z</time></trkpt><trkpt lat="45.70724121294182" lon="8.587327659934775"><ele>237.0</ele><time>2026-04-06T13:22:32.958Z</time></trkpt><trkpt lat="45.707128617178746" lon="8.587199184957827"><ele>237.0</ele><time>2026-04-06T13:22:33.957Z</time></trkpt><trkpt lat="45.70698955432843" lon="8.587098304454813"><ele>237.0</ele><time>2026-04-06T13:22:34.957Z</time></trkpt><trkpt lat="45.70684152960067" lon="8.58700673841657"><ele>237.0</ele><time>2026-04-06T13:22:35.957Z</time></trkpt><trkpt lat="45.706688936106076" lon="8.586949589159605"><ele>239.33333333333331</ele><time>2026-04-06T13:22:36.957Z</time></trkpt><trkpt lat="45.70654310345042" lon="8.586886514689152"><ele>241.66666666666666</ele><time>2026-04-06T13:22:37.957Z</time></trkpt><trkpt lat="45.706385526700316" lon="8.586801081570245"><ele>244.0</ele><time>2026-04-06T13:22:38.957Z</time></trkpt><trkpt lat="45.70620783938147" lon="8.586746461606127"><ele>242.33333333333331</ele><time>2026-04-06T13:22:39.957Z</time></trkpt><trkpt lat="45.70601769128929" lon="8.586680574174494"><ele>240.66666666666669</ele><time>2026-04-06T13:22:40.957Z</time></trkpt><trkpt lat="45.705820539483824" lon="8.586693464088242"><ele>239.0</ele><time>2026-04-06T13:22:41.957Z</time></trkpt><trkpt lat="45.70561787711791" lon="8.586663927459371"><ele>239.0</ele><time>2026-04-06T13:22:42.957Z</time></trkpt><trkpt lat="45.70542368224459" lon="8.586654415231719"><ele>239.0</ele><time>2026-04-06T13:22:43.957Z</time></trkpt><trkpt lat="45.7052441728963" lon="8.586651243773193"><ele>239.0</ele><time>2026-04-06T13:22:44.957Z</time></trkpt><trkpt lat="45.70506216556687" lon="8.586645623969515"><ele>237.33333333333334</ele><time>2026-04-06T13:22:45.957Z</time></trkpt><trkpt lat="45.70488435301563" lon="8.586623515988025"><ele>235.66666666666669</ele><time>2026-04-06T13:22:46.957Z</time></trkpt><trkpt lat="45.704710473381034" lon="8.586576479904481"><ele>234.0</ele><time>2026-04-06T13:22:47.957Z</time></trkpt><trkpt lat="45.70454390487419" lon="8.586500868640583"><ele>235.0</ele><time>2026-04-06T13:22:48.957Z</time></trkpt><trkpt lat="45.70438710378538" lon="8.586391756743193"><ele>236.0</ele><time>2026-04-06T13:22:49.957Z</time></trkpt><trkpt lat="45.704251934797064" lon="8.586240182120871"><ele>237.0</ele><time>2026-04-06T13:22:50.957Z</time></trkpt><trkpt lat="45.704139491593786" lon="8.58604278325447"><ele>240.33333333333331</ele><time>2026-04-06T13:22:51.957Z</time></trkpt><trkpt lat="45.704042531331375" lon="8.585819540763767"><ele>243.66666666666666</ele><time>2026-04-06T13:22:52.957Z</time></trkpt><trkpt lat="45.70394366708973" lon="8.585585861825223"><ele>247.0</ele><time>2026-04-06T13:22:53.957Z</time></trkpt><trkpt lat="45.703856937706945" lon="8.585337033567077"><ele>248.66666666666666</ele><time>2026-04-06T13:22:54.957Z</time></trkpt><trkpt lat="45.70377602641258" lon="8.585093223940143"><ele>250.33333333333331</ele><time>2026-04-06T13:22:55.957Z</time></trkpt><trkpt lat="45.7036939883375" lon="8.584852963182225"><ele>252.0</ele><time>2026-04-06T13:22:56.957Z</time></trkpt><trkpt lat="45.70362125222127" lon="8.584610430009588"><ele>251.0</ele><time>2026-04-06T13:22:57.957Z</time></trkpt><trkpt lat="45.70356652272654" lon="8.584355434124994"><ele>250.0</ele><time>2026-04-06T13:22:58.957Z</time></trkpt><trkpt lat="45.70353656971596" lon="8.584088513079745"><ele>249.0</ele><time>2026-04-06T13:22:59.957Z</time></trkpt><trkpt lat="45.703526818781555" lon="8.583814524747854"><ele>249.0</ele><time>2026-04-06T13:23:00.957Z</time></trkpt><trkpt lat="45.703531112017075" lon="8.583533350030342"><ele>249.0</ele><time>2026-04-06T13:23:01.957Z</time></trkpt><trkpt lat="45.70354285741782" lon="8.583245424498235"><ele>249.0</ele><time>2026-04-06T13:23:02.957Z</time></trkpt><trkpt lat="45.70355739113914" lon="8.582970274473647"><ele>248.0</ele><time>2026-04-06T13:23:03.957Z</time></trkpt><trkpt lat="45.70357318488778" lon="8.582704195828157"><ele>247.0</ele><time>2026-04-06T13:23:04.957Z</time></trkpt><trkpt lat="45.70360849036145" lon="8.582442184722193"><ele>246.0</ele><time>2026-04-06T13:23:05.957Z</time></trkpt><trkpt lat="45.70367425981696" lon="8.582198698173098"><ele>248.33333333333331</ele><time>2026-04-06T13:23:06.957Z</time></trkpt><trkpt lat="45.70377009573425" lon="8.581977857263619"><ele>250.66666666666666</ele><time>2026-04-06T13:23:07.957Z</time></trkpt><trkpt lat="45.70390049203979" lon="8.581787097508034"><ele>253.0</ele><time>2026-04-06T13:23:08.957Z</time></trkpt><trkpt lat="45.7040573037679" lon="8.581625832476531"><ele>253.0</ele><time>2026-04-06T13:23:09.957Z</time></trkpt><trkpt lat="45.70423091206395" lon="8.581487802224606"><ele>253.0</ele><time>2026-04-06T13:23:10.957Z</time></trkpt><trkpt lat="45.70441245097861" lon="8.581352016308305"><ele>253.0</ele><time>2026-04-06T13:23:11.957Z</time></trkpt><trkpt lat="45.704598868971175" lon="8.581214171383422"><ele>252.0</ele><time>2026-04-06T13:23:12.957Z</time></trkpt><trkpt lat="45.70478931097004" lon="8.581072599176526"><ele>251.0</ele><time>2026-04-06T13:23:13.957Z</time></trkpt><trkpt lat="45.70497782404573" lon="8.580920293138044"><ele>250.0</ele><time>2026-04-06T13:23:14.957Z</time></trkpt><trkpt lat="45.705161929901806" lon="8.580742970804671"><ele>253.0</ele><time>2026-04-06T13:23:15.957Z</time></trkpt><trkpt lat="45.70534758331529" lon="8.580557802821243"><ele>256.0</ele><time>2026-04-06T13:23:16.957Z</time></trkpt><trkpt lat="45.7055220184118" lon="8.580353450970959"><ele>254.0</ele><time>2026-04-06T13:23:17.957Z</time></trkpt><trkpt lat="45.705682884282886" lon="8.580125851888578"><ele>252.0</ele><time>2026-04-06T13:23:18.957Z</time></trkpt><trkpt lat="45.705818300336624" lon="8.579879240469783"><ele>250.0</ele><time>2026-04-06T13:23:19.957Z</time></trkpt><trkpt lat="45.70593195234961" lon="8.579623524365172"><ele>250.0</ele><time>2026-04-06T13:23:20.957Z</time></trkpt><trkpt lat="45.70602517940213" lon="8.579362660411817"><ele>250.0</ele><time>2026-04-06T13:23:21.957Z</time></trkpt><trkpt lat="45.70609996119204" lon="8.579086952902884"><ele>250.0</ele><time>2026-04-06T13:23:22.956Z</time></trkpt><trkpt lat="45.706153126883954" lon="8.578799499161798"><ele>250.0</ele><time>2026-04-06T13:23:23.956Z</time></trkpt><trkpt lat="45.706193248663055" lon="8.578500625833472"><ele>250.0</ele><time>2026-04-06T13:23:24.956Z</time></trkpt><trkpt lat="45.70622238021767" lon="8.578192211956347"><ele>250.0</ele><time>2026-04-06T13:23:25.956Z</time></trkpt><trkpt lat="45.70624381847726" lon="8.577874463057396"><ele>251.0</ele><time>2026-04-06T13:23:26.956Z</time></trkpt><trkpt lat="45.70626478053921" lon="8.577557801335338"><ele>252.0</ele><time>2026-04-06T13:23:27.956Z</time></trkpt><trkpt lat="45.7062872035114" lon="8.577242199725092"><ele>253.0</ele><time>2026-04-06T13:23:28.956Z</time></trkpt><trkpt lat="45.70630800699214" lon="8.576922930714524"><ele>254.0</ele><time>2026-04-06T13:23:29.956Z</time></trkpt><trkpt lat="45.70632637732403" lon="8.576600664143854"><ele>255.0</ele><time>2026-04-06T13:23:30.956Z</time></trkpt><trkpt lat="45.70634236474321" lon="8.576275657025475"><ele>254.5</ele><time>2026-04-06T13:23:31.956Z</time></trkpt><trkpt lat="45.70635848523202" lon="8.575950050908897"><ele>254.0</ele><time>2026-04-06T13:23:32.956Z</time></trkpt><trkpt lat="45.70637839160033" lon="8.575621670669324"><ele>253.0</ele><time>2026-04-06T13:23:33.956Z</time></trkpt><trkpt lat="45.70639911868275" lon="8.575300259750989"><ele>252.0</ele><time>2026-04-06T13:23:34.956Z</time></trkpt><trkpt lat="45.70641451031492" lon="8.57497920194429"><ele>252.0</ele><time>2026-04-06T13:23:35.956Z</time></trkpt><trkpt lat="45.70643022973535" lon="8.574661534718677"><ele>252.0</ele><time>2026-04-06T13:23:36.956Z</time></trkpt><trkpt lat="45.70644491673372" lon="8.574351181812455"><ele>252.0</ele><time>2026-04-06T13:23:37.956Z</time></trkpt><trkpt lat="45.706463984240216" lon="8.57404684436171"><ele>252.33333333333331</ele><time>2026-04-06T13:23:38.956Z</time></trkpt><trkpt lat="45.70648794034935" lon="8.573750046746522"><ele>252.66666666666666</ele><time>2026-04-06T13:23:39.956Z</time></trkpt><trkpt lat="45.706524627417615" lon="8.573455717755689"><ele>253.0</ele><time>2026-04-06T13:23:40.956Z</time></trkpt><trkpt lat="45.70656987009617" lon="8.573159678976365"><ele>253.66666666666666</ele><time>2026-04-06T13:23:41.956Z</time></trkpt><trkpt lat="45.70662685510507" lon="8.572868031316132"><ele>254.33333333333331</ele><time>2026-04-06T13:23:42.956Z</time></trkpt><trkpt lat="45.70670201784436" lon="8.572588605383112"><ele>255.0</ele><time>2026-04-06T13:23:43.956Z</time></trkpt><trkpt lat="45.70679725552278" lon="8.572324846686506"><ele>256.0</ele><time>2026-04-06T13:23:44.956Z</time></trkpt><trkpt lat="45.70690911982167" lon="8.572072171404674"><ele>257.0</ele><time>2026-04-06T13:23:45.956Z</time></trkpt><trkpt lat="45.707032916412416" lon="8.571829294310666"><ele>258.0</ele><time>2026-04-06T13:23:46.956Z</time></trkpt><trkpt lat="45.707160734519455" lon="8.571591278187952"><ele>258.0</ele><time>2026-04-06T13:23:47.956Z</time></trkpt><trkpt lat="45.707290203233754" lon="8.571350227595993"><ele>258.0</ele><time>2026-04-06T13:23:48.956Z</time></trkpt><trkpt lat="45.70742032320616" lon="8.571103014043961"><ele>258.0</ele><time>2026-04-06T13:23:49.956Z</time></trkpt><trkpt lat="45.707549874316264" lon="8.57086026023491"><ele>258.3333333333333</ele><time>2026-04-06T13:23:50.956Z</time></trkpt><trkpt lat="45.707685781403455" lon="8.570615631080786"><ele>258.66666666666663</ele><time>2026-04-06T13:23:51.956Z</time></trkpt><trkpt lat="45.707817164603966" lon="8.570373604777554"><ele>259.0</ele><time>2026-04-06T13:23:52.956Z</time></trkpt><trkpt lat="45.70794304314183" lon="8.570133326475293"><ele>258.0</ele><time>2026-04-06T13:23:53.956Z</time></trkpt><trkpt lat="45.70807128352636" lon="8.569894005544292"><ele>257.0</ele><time>2026-04-06T13:23:54.956Z</time></trkpt><trkpt lat="45.70819938730922" lon="8.569654349954048"><ele>256.0</ele><time>2026-04-06T13:23:55.956Z</time></trkpt><trkpt lat="45.708323377817436" lon="8.569417604179472"><ele>256.0</ele><time>2026-04-06T13:23:56.956Z</time></trkpt><trkpt lat="45.70844764598846" lon="8.569183448032186"><ele>256.0</ele><time>2026-04-06T13:23:57.956Z</time></trkpt><trkpt lat="45.70856797468389" lon="8.568943090071617"><ele>256.0</ele><time>2026-04-06T13:23:58.956Z</time></trkpt><trkpt lat="45.708677297292894" lon="8.568690156294583"><ele>256.3333333333333</ele><time>2026-04-06T13:23:59.956Z</time></trkpt><trkpt lat="45.70878066414375" lon="8.568426103159082"><ele>256.6666666666667</ele><time>2026-04-06T13:24:00.956Z</time></trkpt><trkpt lat="45.70887158520256" lon="8.568147964526444"><ele>257.0</ele><time>2026-04-06T13:24:01.956Z</time></trkpt><trkpt lat="45.70895035799303" lon="8.567858401590163"><ele>258.0</ele><time>2026-04-06T13:24:02.957Z</time></trkpt><trkpt lat="45.70902036084333" lon="8.567564937894096"><ele>259.0</ele><time>2026-04-06T13:24:03.957Z</time></trkpt><trkpt lat="45.7090809170233" lon="8.567263135511466"><ele>260.0</ele><time>2026-04-06T13:24:04.957Z</time></trkpt><trkpt lat="45.70913904133986" lon="8.566961595576887"><ele>260.0</ele><time>2026-04-06T13:24:05.957Z</time></trkpt><trkpt lat="45.70920043824561" lon="8.566661382629766"><ele>260.0</ele><time>2026-04-06T13:24:06.957Z</time></trkpt><trkpt lat="45.70926239220604" lon="8.566361269771232"><ele>260.0</ele><time>2026-04-06T13:24:07.957Z</time></trkpt><trkpt lat="45.70932723203457" lon="8.5660626962414"><ele>261.33333333333337</ele><time>2026-04-06T13:24:08.956Z</time></trkpt><trkpt lat="45.70939270707651" lon="8.565757056787913"><ele>262.6666666666667</ele><time>2026-04-06T13:24:09.956Z</time></trkpt><trkpt lat="45.709455274754305" lon="8.565451607299917"><ele>264.0</ele><time>2026-04-06T13:24:10.956Z</time></trkpt><trkpt lat="45.70951827464351" lon="8.565146314397346"><ele>264.3333333333333</ele><time>2026-04-06T13:24:11.957Z</time></trkpt><trkpt lat="45.709582621891855" lon="8.564842563863701"><ele>264.66666666666663</ele><time>2026-04-06T13:24:12.957Z</time></trkpt><trkpt lat="45.70964608272073" lon="8.564537854908"><ele>265.0</ele><time>2026-04-06T13:24:13.957Z</time></trkpt><trkpt lat="45.70970962003645" lon="8.56423713304471"><ele>265.66666666666663</ele><time>2026-04-06T13:24:14.956Z</time></trkpt><trkpt lat="45.70977239855479" lon="8.563937727283014"><ele>266.3333333333333</ele><time>2026-04-06T13:24:15.957Z</time></trkpt><trkpt lat="45.70982918722744" lon="8.563640454329729"><ele>267.0</ele><time>2026-04-06T13:24:16.957Z</time></trkpt><trkpt lat="45.70988807386128" lon="8.563350139540985"><ele>268.3333333333333</ele><time>2026-04-06T13:24:17.957Z</time></trkpt><trkpt lat="45.70994574119441" lon="8.563070893472279"><ele>269.66666666666663</ele><time>2026-04-06T13:24:18.957Z</time></trkpt><trkpt lat="45.71000042517984" lon="8.562796994174343"><ele>271.0</ele><time>2026-04-06T13:24:19.956Z</time></trkpt><trkpt lat="45.710056934863076" lon="8.562532853960613"><ele>273.66666666666663</ele><time>2026-04-06T13:24:20.956Z</time></trkpt><trkpt lat="45.710119212823386" lon="8.562280534842754"><ele>276.3333333333333</ele><time>2026-04-06T13:24:21.956Z</time></trkpt><trkpt lat="45.71019515144053" lon="8.562046843712679"><ele>279.0</ele><time>2026-04-06T13:24:22.956Z</time></trkpt><trkpt lat="45.710288217571375" lon="8.561829476577012"><ele>279.0</ele><time>2026-04-06T13:24:23.956Z</time></trkpt><trkpt lat="45.710404004025406" lon="8.561638985489866"><ele>279.0</ele><time>2026-04-06T13:24:24.956Z</time></trkpt><trkpt lat="45.710544908993484" lon="8.561471382684717"><ele>279.0</ele><time>2026-04-06T13:24:25.956Z</time></trkpt><trkpt lat="45.71069654754902" lon="8.561311645971827"><ele>281.0</ele><time>2026-04-06T13:24:26.956Z</time></trkpt><trkpt lat="45.71084857503537" lon="8.561141127322117"><ele>283.0</ele><time>2026-04-06T13:24:27.956Z</time></trkpt><trkpt lat="45.71099625519041" lon="8.560963382811051"><ele>285.0</ele><time>2026-04-06T13:24:28.956Z</time></trkpt><trkpt lat="45.711133528274566" lon="8.560777767400785"><ele>285.0</ele><time>2026-04-06T13:24:29.956Z</time></trkpt><trkpt lat="45.711265770832256" lon="8.56058076412357"><ele>285.0</ele><time>2026-04-06T13:24:30.956Z</time></trkpt><trkpt lat="45.71138732327889" lon="8.560371571159239"><ele>285.0</ele><time>2026-04-06T13:24:31.956Z</time></trkpt><trkpt lat="45.711481026098234" lon="8.560138780144925"><ele>286.6666666666667</ele><time>2026-04-06T13:24:32.956Z</time></trkpt><trkpt lat="45.71154625119214" lon="8.559886120716357"><ele>288.33333333333337</ele><time>2026-04-06T13:24:33.956Z</time></trkpt><trkpt lat="45.711588368832665" lon="8.559617810084067"><ele>290.0</ele><time>2026-04-06T13:24:34.956Z</time></trkpt><trkpt lat="45.711605733208295" lon="8.559339896727169"><ele>290.6666666666667</ele><time>2026-04-06T13:24:35.956Z</time></trkpt><trkpt lat="45.71159122178402" lon="8.559061094640583"><ele>291.3333333333333</ele><time>2026-04-06T13:24:36.956Z</time></trkpt><trkpt lat="45.711549409100314" lon="8.558779858691333"><ele>292.0</ele><time>2026-04-06T13:24:37.956Z</time></trkpt><trkpt lat="45.711507490300804" lon="8.558494048030349"><ele>292.3333333333333</ele><time>2026-04-06T13:24:38.956Z</time></trkpt><trkpt lat="45.711464078130206" lon="8.55820166824403"><ele>292.6666666666667</ele><time>2026-04-06T13:24:39.956Z</time></trkpt><trkpt lat="45.711418234798536" lon="8.557912910365555"><ele>293.0</ele><time>2026-04-06T13:24:40.956Z</time></trkpt><trkpt lat="45.71137377969212" lon="8.557629044504028"><ele>295.0</ele><time>2026-04-06T13:24:41.956Z</time></trkpt><trkpt lat="45.711331747391114" lon="8.557351992318939"><ele>297.0</ele><time>2026-04-06T13:24:42.956Z</time></trkpt><trkpt lat="45.711291399998984" lon="8.557081130746027"><ele>299.0</ele><time>2026-04-06T13:24:43.956Z</time></trkpt><trkpt lat="45.711248851657956" lon="8.556816525180077"><ele>300.33333333333337</ele><time>2026-04-06T13:24:44.956Z</time></trkpt><trkpt lat="45.71121156776702" lon="8.556566944142036"><ele>301.6666666666667</ele><time>2026-04-06T13:24:45.956Z</time></trkpt><trkpt lat="45.71117256626498" lon="8.55632643719713"><ele>303.0</ele><time>2026-04-06T13:24:46.956Z</time></trkpt><trkpt lat="45.711134525666566" lon="8.556099638011599"><ele>304.0</ele><time>2026-04-06T13:24:47.956Z</time></trkpt><trkpt lat="45.711099141029585" lon="8.555872565338884"><ele>305.0</ele><time>2026-04-06T13:24:48.956Z</time></trkpt><trkpt lat="45.71106504022783" lon="8.555646768303367"><ele>306.0</ele><time>2026-04-06T13:24:49.956Z</time></trkpt><trkpt lat="45.711030508267605" lon="8.555416025233725"><ele>303.6666666666667</ele><time>2026-04-06T13:24:50.956Z</time></trkpt><trkpt lat="45.71099160271414" lon="8.555189086558052"><ele>301.33333333333337</ele><time>2026-04-06T13:24:51.956Z</time></trkpt><trkpt lat="45.7109573886297" lon="8.554960955088092"><ele>299.0</ele><time>2026-04-06T13:24:52.956Z</time></trkpt><trkpt lat="45.71092185608606" lon="8.554735019359207"><ele>300.0</ele><time>2026-04-06T13:24:53.956Z</time></trkpt><trkpt lat="45.71088645122824" lon="8.55450894742911"><ele>301.0</ele><time>2026-04-06T13:24:54.956Z</time></trkpt><trkpt lat="45.710853404771406" lon="8.554275754916993"><ele>302.0</ele><time>2026-04-06T13:24:55.956Z</time></trkpt><trkpt lat="45.71081855621934" lon="8.55403945548256"><ele>302.0</ele><time>2026-04-06T13:24:56.956Z</time></trkpt><trkpt lat="45.71078448924485" lon="8.553805544930047"><ele>302.0</ele><time>2026-04-06T13:24:57.956Z</time></trkpt><trkpt lat="45.71075204277861" lon="8.553581855402799"><ele>302.0</ele><time>2026-04-06T13:24:58.956Z</time></trkpt><trkpt lat="45.71071559669184" lon="8.553371352900031"><ele>302.0</ele><time>2026-04-06T13:24:59.956Z</time></trkpt><trkpt lat="45.710684140181364" lon="8.553159282367721"><ele>302.0</ele><time>2026-04-06T13:25:00.956Z</time></trkpt><trkpt lat="45.710651130757135" lon="8.55294524758776"><ele>302.0</ele><time>2026-04-06T13:25:01.956Z</time></trkpt><trkpt lat="45.71061426641144" lon="8.552735857277817"><ele>302.33333333333337</ele><time>2026-04-06T13:25:02.956Z</time></trkpt><trkpt lat="45.71058022244555" lon="8.552526630181998"><ele>302.6666666666667</ele><time>2026-04-06T13:25:03.956Z</time></trkpt><trkpt lat="45.710547259001146" lon="8.552312686136503"><ele>303.0</ele><time>2026-04-06T13:25:04.956Z</time></trkpt><trkpt lat="45.71051249898958" lon="8.552096713155187"><ele>304.3333333333333</ele><time>2026-04-06T13:25:05.956Z</time></trkpt><trkpt lat="45.710489290310996" lon="8.551874193571777"><ele>305.66666666666663</ele><time>2026-04-06T13:25:06.956Z</time></trkpt><trkpt lat="45.710470489527154" lon="8.551648862524573"><ele>307.0</ele><time>2026-04-06T13:25:07.956Z</time></trkpt><trkpt lat="45.710454976584415" lon="8.551423495802402"><ele>308.0</ele><time>2026-04-06T13:25:08.955Z</time></trkpt><trkpt lat="45.710441710709766" lon="8.551193520162599"><ele>309.0</ele><time>2026-04-06T13:25:09.955Z</time></trkpt><trkpt lat="45.71042712952666" lon="8.55095721811714"><ele>310.0</ele><time>2026-04-06T13:25:10.955Z</time></trkpt><trkpt lat="45.71041338026549" lon="8.550717323791833"><ele>310.0</ele><time>2026-04-06T13:25:11.955Z</time></trkpt><trkpt lat="45.7103986558052" lon="8.550471458790478"><ele>310.0</ele><time>2026-04-06T13:25:12.955Z</time></trkpt><trkpt lat="45.71038468967227" lon="8.550224130555954"><ele>310.0</ele><time>2026-04-06T13:25:13.955Z</time></trkpt><trkpt lat="45.71036858452339" lon="8.549973856951253"><ele>309.3333333333333</ele><time>2026-04-06T13:25:14.955Z</time></trkpt><trkpt lat="45.71035306450963" lon="8.549723080157975"><ele>308.6666666666667</ele><time>2026-04-06T13:25:15.955Z</time></trkpt><trkpt lat="45.7103395289849" lon="8.549469918813982"><ele>308.0</ele><time>2026-04-06T13:25:16.955Z</time></trkpt><trkpt lat="45.710327337623795" lon="8.549212766528573"><ele>308.0</ele><time>2026-04-06T13:25:17.955Z</time></trkpt><trkpt lat="45.71031246562804" lon="8.548954259947644"><ele>308.0</ele><time>2026-04-06T13:25:18.955Z</time></trkpt><trkpt lat="45.71029333334223" lon="8.548696239546855"><ele>308.0</ele><time>2026-04-06T13:25:19.955Z</time></trkpt><trkpt lat="45.7102642934522" lon="8.54843999014745"><ele>308.33333333333337</ele><time>2026-04-06T13:25:20.955Z</time></trkpt><trkpt lat="45.710222688697456" lon="8.548188153949216"><ele>308.6666666666667</ele><time>2026-04-06T13:25:21.955Z</time></trkpt><trkpt lat="45.7101625850022" lon="8.54794050440964"><ele>309.0</ele><time>2026-04-06T13:25:22.955Z</time></trkpt><trkpt lat="45.71009596850174" lon="8.547693893915943"><ele>308.0</ele><time>2026-04-06T13:25:23.955Z</time></trkpt><trkpt lat="45.71002926131538" lon="8.547449549215061"><ele>307.0</ele><time>2026-04-06T13:25:24.955Z</time></trkpt><trkpt lat="45.70996300359278" lon="8.547206174937253"><ele>306.0</ele><time>2026-04-06T13:25:25.955Z</time></trkpt><trkpt lat="45.709892953115165" lon="8.546967050979337"><ele>305.6666666666667</ele><time>2026-04-06T13:25:26.955Z</time></trkpt><trkpt lat="45.709824588861196" lon="8.546720561561592"><ele>305.33333333333337</ele><time>2026-04-06T13:25:27.955Z</time></trkpt><trkpt lat="45.70975280550882" lon="8.546468686583292"><ele>305.0</ele><time>2026-04-06T13:25:28.955Z</time></trkpt><trkpt lat="45.70968201415433" lon="8.546211704749117"><ele>305.6666666666667</ele><time>2026-04-06T13:25:29.955Z</time></trkpt><trkpt lat="45.70960684280146" lon="8.545953727036427"><ele>306.3333333333333</ele><time>2026-04-06T13:25:30.955Z</time></trkpt><trkpt lat="45.709533190237075" lon="8.54569580302117"><ele>307.0</ele><time>2026-04-06T13:25:31.955Z</time></trkpt><trkpt lat="45.70946766109338" lon="8.545443898215336"><ele>309.3333333333333</ele><time>2026-04-06T13:25:32.955Z</time></trkpt><trkpt lat="45.70940191743137" lon="8.545193301881545"><ele>311.6666666666667</ele><time>2026-04-06T13:25:33.955Z</time></trkpt><trkpt lat="45.70934113354287" lon="8.544941352562963"><ele>314.0</ele><time>2026-04-06T13:25:34.955Z</time></trkpt><trkpt lat="45.70928326434231" lon="8.544698068056158"><ele>314.33333333333337</ele><time>2026-04-06T13:25:35.955Z</time></trkpt><trkpt lat="45.709245323024" lon="8.54445373834817"><ele>314.6666666666667</ele><time>2026-04-06T13:25:36.955Z</time></trkpt><trkpt lat="45.709226951358794" lon="8.544212448077191"><ele>315.0</ele><time>2026-04-06T13:25:37.955Z</time></trkpt><trkpt lat="45.70923348614397" lon="8.543967476893986"><ele>315.0</ele><time>2026-04-06T13:25:38.955Z</time></trkpt><trkpt lat="45.70922681184995" lon="8.543737470368287"><ele>315.0</ele><time>2026-04-06T13:25:39.955Z</time></trkpt><trkpt lat="45.709232627048976" lon="8.543511864267467"><ele>315.0</ele><time>2026-04-06T13:25:40.955Z</time></trkpt><trkpt lat="45.709257003535996" lon="8.543281305108811"><ele>315.3333333333333</ele><time>2026-04-06T13:25:41.955Z</time></trkpt><trkpt lat="45.70927913299524" lon="8.543048545073042"><ele>315.66666666666663</ele><time>2026-04-06T13:25:42.955Z</time></trkpt><trkpt lat="45.70931593236331" lon="8.542817191528568"><ele>316.0</ele><time>2026-04-06T13:25:43.955Z</time></trkpt><trkpt lat="45.70933723801715" lon="8.542587733796138"><ele>317.0</ele><time>2026-04-06T13:25:44.955Z</time></trkpt><trkpt lat="45.709359028506285" lon="8.542358400433406"><ele>318.0</ele><time>2026-04-06T13:25:45.955Z</time></trkpt><trkpt lat="45.70938231452118" lon="8.542125346513002"><ele>319.0</ele><time>2026-04-06T13:25:46.955Z</time></trkpt><trkpt lat="45.70940584156207" lon="8.541889880389512"><ele>319.66666666666663</ele><time>2026-04-06T13:25:47.955Z</time></trkpt><trkpt lat="45.70942951454196" lon="8.541651220584148"><ele>320.3333333333333</ele><time>2026-04-06T13:25:48.955Z</time></trkpt><trkpt lat="45.70943796138174" lon="8.541402630869456"><ele>321.0</ele><time>2026-04-06T13:25:49.955Z</time></trkpt><trkpt lat="45.709463039618164" lon="8.541156009037937"><ele>323.0</ele><time>2026-04-06T13:25:50.955Z</time></trkpt><trkpt lat="45.70948762266637" lon="8.540911460681345"><ele>325.0</ele><time>2026-04-06T13:25:51.955Z</time></trkpt><trkpt lat="45.70951051695939" lon="8.540671495309969"><ele>327.0</ele><time>2026-04-06T13:25:52.955Z</time></trkpt><trkpt lat="45.709532903166284" lon="8.540437348777344"><ele>325.6666666666667</ele><time>2026-04-06T13:25:53.955Z</time></trkpt><trkpt lat="45.709555507133516" lon="8.540211140943397"><ele>324.33333333333337</ele><time>2026-04-06T13:25:54.955Z</time></trkpt><trkpt lat="45.70957970964855" lon="8.539996160602316"><ele>323.0</ele><time>2026-04-06T13:25:55.955Z</time></trkpt><trkpt lat="45.70960066792968" lon="8.539794237411193"><ele>323.0</ele><time>2026-04-06T13:25:56.955Z</time></trkpt><trkpt lat="45.70961974561687" lon="8.539597256973863"><ele>323.0</ele><time>2026-04-06T13:25:57.954Z</time></trkpt><trkpt lat="45.70964233602236" lon="8.53940943715689"><ele>323.0</ele><time>2026-04-06T13:25:58.954Z</time></trkpt><trkpt lat="45.70966162643412" lon="8.539224282362392"><ele>323.0</ele><time>2026-04-06T13:25:59.954Z</time></trkpt><trkpt lat="45.70968118765219" lon="8.539045996401846"><ele>322.79999999999995</ele><time>2026-04-06T13:26:00.954Z</time></trkpt><trkpt lat="45.70969933378163" lon="8.538875460104586"><ele>322.6</ele><time>2026-04-06T13:26:01.954Z</time></trkpt><trkpt lat="45.70972191334854" lon="8.538715953470856"><ele>322.4</ele><time>2026-04-06T13:26:02.954Z</time></trkpt><trkpt lat="45.70975102748351" lon="8.538566985437619"><ele>322.20000000000005</ele><time>2026-04-06T13:26:03.954Z</time></trkpt><trkpt lat="45.70978787411169" lon="8.538431837944183"><ele>322.0</ele><time>2026-04-06T13:26:04.954Z</time></trkpt><trkpt lat="45.70982122232545" lon="8.538306859772456"><ele>322.0</ele><time>2026-04-06T13:26:05.954Z</time></trkpt><trkpt lat="45.70983450684183" lon="8.53818331981219"><ele>322.0</ele><time>2026-04-06T13:26:06.954Z</time></trkpt><trkpt lat="45.709830231977705" lon="8.538038443688029"><ele>322.0</ele><time>2026-04-06T13:26:07.954Z</time></trkpt><trkpt lat="45.709818680503105" lon="8.537888996184897"><ele>322.0</ele><time>2026-04-06T13:26:08.956Z</time></trkpt><trkpt lat="45.70981440627076" lon="8.537729154909632"><ele>322.0</ele><time>2026-04-06T13:26:09.957Z</time></trkpt><trkpt lat="45.709819470999825" lon="8.537549493333797"><ele>322.3333333333333</ele><time>2026-04-06T13:26:10.957Z</time></trkpt><trkpt lat="45.70982949608535" lon="8.537347520928991"><ele>322.6666666666667</ele><time>2026-04-06T13:26:11.957Z</time></trkpt><trkpt lat="45.70985065697989" lon="8.537124813100926"><ele>323.0</ele><time>2026-04-06T13:26:12.956Z</time></trkpt><trkpt lat="45.70988660815609" lon="8.536892849031197"><ele>324.0</ele><time>2026-04-06T13:26:13.956Z</time></trkpt><trkpt lat="45.709907082177715" lon="8.536636734749694"><ele>325.0</ele><time>2026-04-06T13:26:14.956Z</time></trkpt><trkpt lat="45.70992834586215" lon="8.536360778813977"><ele>326.0</ele><time>2026-04-06T13:26:15.956Z</time></trkpt><trkpt lat="45.709953086113806" lon="8.536084634230379"><ele>326.0</ele><time>2026-04-06T13:26:16.956Z</time></trkpt><trkpt lat="45.709986481785236" lon="8.535830484853024"><ele>326.0</ele><time>2026-04-06T13:26:17.956Z</time></trkpt><trkpt lat="45.71001529075432" lon="8.535589617206348"><ele>326.0</ele><time>2026-04-06T13:26:18.956Z</time></trkpt><trkpt lat="45.71004243078541" lon="8.535356315231253"><ele>326.33333333333337</ele><time>2026-04-06T13:26:19.956Z</time></trkpt><trkpt lat="45.710062349008695" lon="8.535117848718604"><ele>326.6666666666667</ele><time>2026-04-06T13:26:20.957Z</time></trkpt><trkpt lat="45.710085578686474" lon="8.534877003762194"><ele>327.0</ele><time>2026-04-06T13:26:21.957Z</time></trkpt><trkpt lat="45.710111664658875" lon="8.534642890832236"><ele>327.3333333333333</ele><time>2026-04-06T13:26:22.957Z</time></trkpt><trkpt lat="45.71013572339409" lon="8.534415487667953"><ele>327.66666666666663</ele><time>2026-04-06T13:26:23.957Z</time></trkpt><trkpt lat="45.71015687525567" lon="8.534187555928595"><ele>328.0</ele><time>2026-04-06T13:26:24.957Z</time></trkpt><trkpt lat="45.710176120379124" lon="8.533961826375414"><ele>328.0</ele><time>2026-04-06T13:26:25.957Z</time></trkpt><trkpt lat="45.71019648147684" lon="8.53373921902147"><ele>328.0</ele><time>2026-04-06T13:26:26.957Z</time></trkpt><trkpt lat="45.71021649657976" lon="8.533518182225565"><ele>328.0</ele><time>2026-04-06T13:26:27.957Z</time></trkpt><trkpt lat="45.710236119747485" lon="8.533304310296977"><ele>328.3333333333333</ele><time>2026-04-06T13:26:28.957Z</time></trkpt><trkpt lat="45.710254607829555" lon="8.533093169601152"><ele>328.6666666666667</ele><time>2026-04-06T13:26:29.957Z</time></trkpt><trkpt lat="45.71027503605528" lon="8.532881416034417"><ele>329.0</ele><time>2026-04-06T13:26:30.957Z</time></trkpt><trkpt lat="45.71029788405809" lon="8.53265378002116"><ele>329.6666666666667</ele><time>2026-04-06T13:26:31.957Z</time></trkpt><trkpt lat="45.71032082017514" lon="8.532392324003997"><ele>330.3333333333333</ele><time>2026-04-06T13:26:32.956Z</time></trkpt><trkpt lat="45.71034733653355" lon="8.532123624114355"><ele>331.0</ele><time>2026-04-06T13:26:33.956Z</time></trkpt><trkpt lat="45.71037915504174" lon="8.531852002320539"><ele>331.3333333333333</ele><time>2026-04-06T13:26:34.956Z</time></trkpt><trkpt lat="45.710410383245964" lon="8.531590064680811"><ele>331.6666666666667</ele><time>2026-04-06T13:26:35.956Z</time></trkpt><trkpt lat="45.71043100921015" lon="8.531340441186881"><ele>332.0</ele><time>2026-04-06T13:26:36.956Z</time></trkpt><trkpt lat="45.710449626919626" lon="8.53110878017332"><ele>332.6666666666667</ele><time>2026-04-06T13:26:37.956Z</time></trkpt><trkpt lat="45.710454786264165" lon="8.530882866875404"><ele>333.3333333333333</ele><time>2026-04-06T13:26:38.956Z</time></trkpt><trkpt lat="45.7104387894751" lon="8.530646495003491"><ele>334.0</ele><time>2026-04-06T13:26:39.956Z</time></trkpt><trkpt lat="45.71041345378061" lon="8.530405592275631"><ele>333.3333333333333</ele><time>2026-04-06T13:26:40.956Z</time></trkpt><trkpt lat="45.71037497134137" lon="8.530164616650262"><ele>332.6666666666667</ele><time>2026-04-06T13:26:41.956Z</time></trkpt><trkpt lat="45.710329579990585" lon="8.52993610945948"><ele>332.0</ele><time>2026-04-06T13:26:42.956Z</time></trkpt><trkpt lat="45.710275962906614" lon="8.529711205030493"><ele>334.6666666666667</ele><time>2026-04-06T13:26:43.956Z</time></trkpt><trkpt lat="45.710216296494856" lon="8.529486587211512"><ele>337.3333333333333</ele><time>2026-04-06T13:26:44.956Z</time></trkpt><trkpt lat="45.710154790929735" lon="8.529265203554617"><ele>340.0</ele><time>2026-04-06T13:26:45.956Z</time></trkpt><trkpt lat="45.7100898583036" lon="8.52903852705875"><ele>340.0</ele><time>2026-04-06T13:26:46.956Z</time></trkpt><trkpt lat="45.710024693854756" lon="8.52880511312706"><ele>340.0</ele><time>2026-04-06T13:26:47.956Z</time></trkpt><trkpt lat="45.70995686618477" lon="8.52856159292294"><ele>340.0</ele><time>2026-04-06T13:26:48.956Z</time></trkpt><trkpt lat="45.7098987120337" lon="8.528297856731385"><ele>340.3333333333333</ele><time>2026-04-06T13:26:49.956Z</time></trkpt><trkpt lat="45.70984067825767" lon="8.528024395517305"><ele>340.6666666666667</ele><time>2026-04-06T13:26:50.956Z</time></trkpt><trkpt lat="45.70977917380238" lon="8.527774845916184"><ele>341.0</ele><time>2026-04-06T13:26:51.956Z</time></trkpt><trkpt lat="45.709710615958926" lon="8.527544044857938"><ele>341.6666666666667</ele><time>2026-04-06T13:26:52.956Z</time></trkpt><trkpt lat="45.70965001292689" lon="8.527320137905889"><ele>342.3333333333333</ele><time>2026-04-06T13:26:53.956Z</time></trkpt><trkpt lat="45.70959133087106" lon="8.527103545219907"><ele>343.0</ele><time>2026-04-06T13:26:54.956Z</time></trkpt><trkpt lat="45.70953300078264" lon="8.52689248209809"><ele>343.0</ele><time>2026-04-06T13:26:55.956Z</time></trkpt><trkpt lat="45.70947447383288" lon="8.526682272680587"><ele>343.0</ele><time>2026-04-06T13:26:56.956Z</time></trkpt><trkpt lat="45.709415320063215" lon="8.526463466667497"><ele>343.0</ele><time>2026-04-06T13:26:57.956Z</time></trkpt><trkpt lat="45.70935565873132" lon="8.526241552968969"><ele>342.66666666666663</ele><time>2026-04-06T13:26:58.956Z</time></trkpt><trkpt lat="45.709294982521726" lon="8.5260124329469"><ele>342.3333333333333</ele><time>2026-04-06T13:26:59.956Z</time></trkpt><trkpt lat="45.709234047554055" lon="8.525778278182772"><ele>342.0</ele><time>2026-04-06T13:27:00.956Z</time></trkpt><trkpt lat="45.70917109926126" lon="8.525540050575271"><ele>343.0</ele><time>2026-04-06T13:27:01.956Z</time></trkpt><trkpt lat="45.70910201633383" lon="8.525292325718363"><ele>344.0</ele><time>2026-04-06T13:27:02.956Z</time></trkpt><trkpt lat="45.7090345939023" lon="8.525049641824625"><ele>345.0</ele><time>2026-04-06T13:27:03.956Z</time></trkpt><trkpt lat="45.70896083038455" lon="8.524816137345882"><ele>345.0</ele><time>2026-04-06T13:27:04.956Z</time></trkpt><trkpt lat="45.708909386386395" lon="8.524581833114237"><ele>345.0</ele><time>2026-04-06T13:27:05.956Z</time></trkpt><trkpt lat="45.708866936270475" lon="8.524368632066238"><ele>345.0</ele><time>2026-04-06T13:27:06.956Z</time></trkpt><trkpt lat="45.70883675013001" lon="8.52414483027196"><ele>348.0</ele><time>2026-04-06T13:27:07.956Z</time></trkpt><trkpt lat="45.7088665283537" lon="8.52391974383579"><ele>351.0</ele><time>2026-04-06T13:27:08.956Z</time></trkpt><trkpt lat="45.70891750125942" lon="8.523689649359037"><ele>354.0</ele><time>2026-04-06T13:27:09.956Z</time></trkpt><trkpt lat="45.708987604585985" lon="8.523454966495095"><ele>354.75</ele><time>2026-04-06T13:27:10.956Z</time></trkpt><trkpt lat="45.70905125590278" lon="8.523238821191823"><ele>355.5</ele><time>2026-04-06T13:27:11.956Z</time></trkpt><trkpt lat="45.70910204411244" lon="8.523050784598"><ele>356.25</ele><time>2026-04-06T13:27:12.956Z</time></trkpt><trkpt lat="45.70914566552428" lon="8.522880533461406"><ele>357.0</ele><time>2026-04-06T13:27:13.956Z</time></trkpt><trkpt lat="45.70914086469044" lon="8.522699568350326"><ele>358.25</ele><time>2026-04-06T13:27:14.956Z</time></trkpt><trkpt lat="45.709085999303326" lon="8.522526603811562"><ele>359.5</ele><time>2026-04-06T13:27:15.956Z</time></trkpt><trkpt lat="45.70897931124892" lon="8.522393482439272"><ele>360.75</ele><time>2026-04-06T13:27:16.956Z</time></trkpt><trkpt lat="45.7088361810165" lon="8.522342297850303"><ele>362.0</ele><time>2026-04-06T13:27:17.956Z</time></trkpt><trkpt lat="45.708697190076116" lon="8.522362869828477"><ele>363.6666666666667</ele><time>2026-04-06T13:27:18.956Z</time></trkpt><trkpt lat="45.70854827748381" lon="8.522390973647743"><ele>365.3333333333333</ele><time>2026-04-06T13:27:19.956Z</time></trkpt><trkpt lat="45.70838544015662" lon="8.522390019352677"><ele>367.0</ele><time>2026-04-06T13:27:20.956Z</time></trkpt><trkpt lat="45.70824403934571" lon="8.52240834125689"><ele>367.0</ele><time>2026-04-06T13:27:21.955Z</time></trkpt><trkpt lat="45.708117343484574" lon="8.522409612006385"><ele>367.0</ele><time>2026-04-06T13:27:22.955Z</time></trkpt><trkpt lat="45.70799494820197" lon="8.522376395670877"><ele>367.0</ele><time>2026-04-06T13:27:23.955Z</time></trkpt><trkpt lat="45.70788657768233" lon="8.522314387140446"><ele>367.0</ele><time>2026-04-06T13:27:24.955Z</time></trkpt><trkpt lat="45.70779058450785" lon="8.52222116150853"><ele>367.0</ele><time>2026-04-06T13:27:25.955Z</time></trkpt><trkpt lat="45.70771775247318" lon="8.522096602946416"><ele>367.0</ele><time>2026-04-06T13:27:26.955Z</time></trkpt><trkpt lat="45.707670875871734" lon="8.521951101722792"><ele>367.0</ele><time>2026-04-06T13:27:27.955Z</time></trkpt><trkpt lat="45.70765599879373" lon="8.52179304889659"><ele>367.0</ele><time>2026-04-06T13:27:28.955Z</time></trkpt><trkpt lat="45.707669660752224" lon="8.52163506614582"><ele>367.0</ele><time>2026-04-06T13:27:29.955Z</time></trkpt><trkpt lat="45.70771478314192" lon="8.521481242222999"><ele>369.25</ele><time>2026-04-06T13:27:30.955Z</time></trkpt><trkpt lat="45.70778618504823" lon="8.521348161800052"><ele>371.5</ele><time>2026-04-06T13:27:31.955Z</time></trkpt><trkpt lat="45.707888063083026" lon="8.52126888262893"><ele>373.75</ele><time>2026-04-06T13:27:32.955Z</time></trkpt><trkpt lat="45.70798250987647" lon="8.521173112339559"><ele>376.0</ele><time>2026-04-06T13:27:33.955Z</time></trkpt><trkpt lat="45.708066237514934" lon="8.521089896211825"><ele>376.20000000000005</ele><time>2026-04-06T13:27:34.955Z</time></trkpt><trkpt lat="45.70813629466859" lon="8.520996434648069"><ele>376.40000000000003</ele><time>2026-04-06T13:27:35.955Z</time></trkpt><trkpt lat="45.70822215584732" lon="8.520940544194525"><ele>376.6</ele><time>2026-04-06T13:27:36.955Z</time></trkpt><trkpt lat="45.708301493303956" lon="8.520880751179044"><ele>376.8</ele><time>2026-04-06T13:27:37.955Z</time></trkpt><trkpt lat="45.708374335269305" lon="8.520808351078756"><ele>377.0</ele><time>2026-04-06T13:27:38.955Z</time></trkpt><trkpt lat="45.708443253631465" lon="8.520733519408305"><ele>377.0</ele><time>2026-04-06T13:27:39.955Z</time></trkpt><trkpt lat="45.70850440210902" lon="8.520658868439279"><ele>377.0</ele><time>2026-04-06T13:27:40.955Z</time></trkpt><trkpt lat="45.708574303762376" lon="8.520585074996113"><ele>377.0</ele><time>2026-04-06T13:27:41.955Z</time></trkpt><trkpt lat="45.7086493864961" lon="8.520511947364716"><ele>377.0</ele><time>2026-04-06T13:27:42.955Z</time></trkpt><trkpt lat="45.708725642685735" lon="8.52044118510166"><ele>377.0</ele><time>2026-04-06T13:27:43.955Z</time></trkpt><trkpt lat="45.708800147020476" lon="8.520369085965978"><ele>377.0</ele><time>2026-04-06T13:27:44.955Z</time></trkpt><trkpt lat="45.70887507747652" lon="8.520300801472423"><ele>377.40000000000003</ele><time>2026-04-06T13:27:45.955Z</time></trkpt><trkpt lat="45.708948427421504" lon="8.520228592413863"><ele>377.8</ele><time>2026-04-06T13:27:46.955Z</time></trkpt><trkpt lat="45.709022089929114" lon="8.520150185390525"><ele>378.2</ele><time>2026-04-06T13:27:47.955Z</time></trkpt><trkpt lat="45.70910074810646" lon="8.52006938357385"><ele>378.6</ele><time>2026-04-06T13:27:48.955Z</time></trkpt><trkpt lat="45.709181277830375" lon="8.519985235714962"><ele>379.0</ele><time>2026-04-06T13:27:49.955Z</time></trkpt><trkpt lat="45.70925724720717" lon="8.519902981701188"><ele>379.0</ele><time>2026-04-06T13:27:50.955Z</time></trkpt><trkpt lat="45.70932931262455" lon="8.519817710084173"><ele>379.0</ele><time>2026-04-06T13:27:51.955Z</time></trkpt><trkpt lat="45.70940816432618" lon="8.519740305562246"><ele>379.0</ele><time>2026-04-06T13:27:52.955Z</time></trkpt><trkpt lat="45.70948698767071" lon="8.519662094639505"><ele>379.0</ele><time>2026-04-06T13:27:53.955Z</time></trkpt><trkpt lat="45.70956660424353" lon="8.519587732850475"><ele>379.0</ele><time>2026-04-06T13:27:54.955Z</time></trkpt><trkpt lat="45.70965000383875" lon="8.519510191341414"><ele>379.2</ele><time>2026-04-06T13:27:55.955Z</time></trkpt><trkpt lat="45.7097242196264" lon="8.51941756020947"><ele>379.4</ele><time>2026-04-06T13:27:56.955Z</time></trkpt><trkpt lat="45.70979403058935" lon="8.519336585045385"><ele>379.6</ele><time>2026-04-06T13:27:57.955Z</time></trkpt><trkpt lat="45.70986172837908" lon="8.519269775803096"><ele>379.8</ele><time>2026-04-06T13:27:58.955Z</time></trkpt><trkpt lat="45.70992123594063" lon="8.519205235631565"><ele>380.0</ele><time>2026-04-06T13:27:59.955Z</time></trkpt><trkpt lat="45.71000013514911" lon="8.519094941322345"><ele>380.0</ele><time>2026-04-06T13:28:01.955Z</time></trkpt><trkpt lat="45.71002656048626" lon="8.519010925921537"><ele>380.0</ele><time>2026-04-06T13:28:02.955Z</time></trkpt><trkpt lat="45.71004794174844" lon="8.518915859715392"><ele>380.0</ele><time>2026-04-06T13:28:03.955Z</time></trkpt><trkpt lat="45.71000258124069" lon="8.5187944805468"><ele>380.0</ele><time>2026-04-06T13:28:04.955Z</time></trkpt><trkpt lat="45.70996787018347" lon="8.518679822923403"><ele>380.0</ele><time>2026-04-06T13:28:05.955Z</time></trkpt><trkpt lat="45.709923013564286" lon="8.518543096644182"><ele>380.0</ele><time>2026-04-06T13:28:06.955Z</time></trkpt><trkpt lat="45.709878659353265" lon="8.518417601218948"><ele>380.6</ele><time>2026-04-06T13:28:07.955Z</time></trkpt><trkpt lat="45.70983463641682" lon="8.51828036383625"><ele>381.2</ele><time>2026-04-06T13:28:08.955Z</time></trkpt><trkpt lat="45.70980454436375" lon="8.51812878879298"><ele>381.79999999999995</ele><time>2026-04-06T13:28:09.955Z</time></trkpt><trkpt lat="45.70975836225864" lon="8.517982743988878"><ele>382.4</ele><time>2026-04-06T13:28:10.954Z</time></trkpt><trkpt lat="45.709697195282324" lon="8.51783790184477"><ele>383.0</ele><time>2026-04-06T13:28:11.954Z</time></trkpt><trkpt lat="45.70964854278779" lon="8.517684759323785"><ele>383.0</ele><time>2026-04-06T13:28:12.954Z</time></trkpt><trkpt lat="45.7096002643129" lon="8.517525515032126"><ele>383.0</ele><time>2026-04-06T13:28:13.954Z</time></trkpt><trkpt lat="45.7095523655441" lon="8.517357292016722"><ele>383.0</ele><time>2026-04-06T13:28:14.956Z</time></trkpt><trkpt lat="45.709499571624875" lon="8.517186114018054"><ele>383.0</ele><time>2026-04-06T13:28:15.957Z</time></trkpt><trkpt lat="45.709447098351376" lon="8.517012917815563"><ele>382.25</ele><time>2026-04-06T13:28:16.957Z</time></trkpt><trkpt lat="45.70938989127536" lon="8.516846195321499"><ele>381.5</ele><time>2026-04-06T13:28:17.956Z</time></trkpt><trkpt lat="45.70933759882335" lon="8.516676770126946"><ele>380.75</ele><time>2026-04-06T13:28:18.956Z</time></trkpt><trkpt lat="45.70930703652619" lon="8.516503180056155"><ele>380.0</ele><time>2026-04-06T13:28:19.956Z</time></trkpt><trkpt lat="45.709301600748915" lon="8.516320075634932"><ele>378.6666666666667</ele><time>2026-04-06T13:28:20.956Z</time></trkpt><trkpt lat="45.70931805135722" lon="8.516110457580266"><ele>377.3333333333333</ele><time>2026-04-06T13:28:21.956Z</time></trkpt><trkpt lat="45.70935420519446" lon="8.515897539453194"><ele>376.0</ele><time>2026-04-06T13:28:22.956Z</time></trkpt><trkpt lat="45.709385752250384" lon="8.515678855125428"><ele>374.66666666666663</ele><time>2026-04-06T13:28:23.956Z</time></trkpt><trkpt lat="45.709418962539296" lon="8.51545495392869"><ele>373.3333333333333</ele><time>2026-04-06T13:28:24.956Z</time></trkpt><trkpt lat="45.70945236067952" lon="8.51522693709211"><ele>372.0</ele><time>2026-04-06T13:28:25.956Z</time></trkpt><trkpt lat="45.70948723570486" lon="8.514996558208491"><ele>370.0</ele><time>2026-04-06T13:28:26.956Z</time></trkpt><trkpt lat="45.709525570745804" lon="8.514770969142896"><ele>368.0</ele><time>2026-04-06T13:28:27.956Z</time></trkpt><trkpt lat="45.709561117048" lon="8.514545617671235"><ele>366.0</ele><time>2026-04-06T13:28:28.956Z</time></trkpt><trkpt lat="45.70959238556061" lon="8.514317920337474"><ele>365.0</ele><time>2026-04-06T13:28:29.956Z</time></trkpt><trkpt lat="45.709628312758" lon="8.514084471089417"><ele>364.0</ele><time>2026-04-06T13:28:30.956Z</time></trkpt><trkpt lat="45.70966370156096" lon="8.513846294176613"><ele>363.0</ele><time>2026-04-06T13:28:31.956Z</time></trkpt><trkpt lat="45.70970432556528" lon="8.513604921747827"><ele>362.6666666666667</ele><time>2026-04-06T13:28:32.956Z</time></trkpt><trkpt lat="45.70974249693375" lon="8.513360065547454"><ele>362.33333333333337</ele><time>2026-04-06T13:28:33.956Z</time></trkpt><trkpt lat="45.70978538213219" lon="8.513114994587571"><ele>362.0</ele><time>2026-04-06T13:28:34.956Z</time></trkpt><trkpt lat="45.70982595990133" lon="8.512865458480459"><ele>361.6666666666667</ele><time>2026-04-06T13:28:35.956Z</time></trkpt><trkpt lat="45.70986389441923" lon="8.512611790063954"><ele>361.3333333333333</ele><time>2026-04-06T13:28:36.956Z</time></trkpt><trkpt lat="45.709900700431746" lon="8.512353684078418"><ele>361.0</ele><time>2026-04-06T13:28:37.955Z</time></trkpt><trkpt lat="45.70993629286465" lon="8.512103329641567"><ele>361.66666666666663</ele><time>2026-04-06T13:28:38.955Z</time></trkpt><trkpt lat="45.709970431473316" lon="8.511865472578421"><ele>362.3333333333333</ele><time>2026-04-06T13:28:39.955Z</time></trkpt><trkpt lat="45.71000461693808" lon="8.511630728996515"><ele>363.0</ele><time>2026-04-06T13:28:40.955Z</time></trkpt><trkpt lat="45.71003699280315" lon="8.51139788403549"><ele>363.0</ele><time>2026-04-06T13:28:41.955Z</time></trkpt><trkpt lat="45.71007291519311" lon="8.511162602766632"><ele>363.0</ele><time>2026-04-06T13:28:42.955Z</time></trkpt><trkpt lat="45.710112630357756" lon="8.510930175710604"><ele>363.0</ele><time>2026-04-06T13:28:43.955Z</time></trkpt><trkpt lat="45.710145360290696" lon="8.51069600915924"><ele>363.0</ele><time>2026-04-06T13:28:44.955Z</time></trkpt><trkpt lat="45.71018177005326" lon="8.51046273050055"><ele>363.0</ele><time>2026-04-06T13:28:45.955Z</time></trkpt><trkpt lat="45.71021961218508" lon="8.510230035899292"><ele>363.0</ele><time>2026-04-06T13:28:46.955Z</time></trkpt><trkpt lat="45.710257129466925" lon="8.509999186032756"><ele>365.0</ele><time>2026-04-06T13:28:47.955Z</time></trkpt><trkpt lat="45.7102906944338" lon="8.509768674333003"><ele>367.0</ele><time>2026-04-06T13:28:48.955Z</time></trkpt><trkpt lat="45.71032096264658" lon="8.509536291611774"><ele>369.0</ele><time>2026-04-06T13:28:49.955Z</time></trkpt><trkpt lat="45.71033759742546" lon="8.509305723703262"><ele>370.3333333333333</ele><time>2026-04-06T13:28:50.955Z</time></trkpt><trkpt lat="45.710350426077746" lon="8.509072321509226"><ele>371.66666666666663</ele><time>2026-04-06T13:28:51.955Z</time></trkpt><trkpt lat="45.71035648451592" lon="8.50883458972504"><ele>373.0</ele><time>2026-04-06T13:28:52.955Z</time></trkpt><trkpt lat="45.71035762204756" lon="8.508596122838416"><ele>374.0</ele><time>2026-04-06T13:28:53.955Z</time></trkpt><trkpt lat="45.71035919756267" lon="8.508363065234967"><ele>375.0</ele><time>2026-04-06T13:28:54.955Z</time></trkpt><trkpt lat="45.71035878933434" lon="8.508131717636779"><ele>376.0</ele><time>2026-04-06T13:28:55.955Z</time></trkpt><trkpt lat="45.71035586408096" lon="8.507899635550535"><ele>376.66666666666663</ele><time>2026-04-06T13:28:56.955Z</time></trkpt><trkpt lat="45.710354857136075" lon="8.507670717611559"><ele>377.3333333333333</ele><time>2026-04-06T13:28:57.955Z</time></trkpt><trkpt lat="45.71035337730369" lon="8.507442367250087"><ele>378.0</ele><time>2026-04-06T13:28:58.955Z</time></trkpt><trkpt lat="45.710351543116104" lon="8.507209431424894"><ele>377.6666666666667</ele><time>2026-04-06T13:28:59.955Z</time></trkpt><trkpt lat="45.71034261127847" lon="8.506970787404166"><ele>377.33333333333337</ele><time>2026-04-06T13:29:00.955Z</time></trkpt><trkpt lat="45.71032855043991" lon="8.506737185519668"><ele>377.0</ele><time>2026-04-06T13:29:01.955Z</time></trkpt><trkpt lat="45.71029981159222" lon="8.506532104996904"><ele>377.0</ele><time>2026-04-06T13:29:02.955Z</time></trkpt><trkpt lat="45.71026933550094" lon="8.506347335607964"><ele>377.0</ele><time>2026-04-06T13:29:03.955Z</time></trkpt><trkpt lat="45.71022465715591" lon="8.506179022885284"><ele>377.0</ele><time>2026-04-06T13:29:04.955Z</time></trkpt><trkpt lat="45.71018431973226" lon="8.506009739244957"><ele>377.0</ele><time>2026-04-06T13:29:05.955Z</time></trkpt><trkpt lat="45.710139243810296" lon="8.505842041524962"><ele>374.75</ele><time>2026-04-06T13:29:06.955Z</time></trkpt><trkpt lat="45.7100860129102" lon="8.505662734943071"><ele>372.5</ele><time>2026-04-06T13:29:07.955Z</time></trkpt><trkpt lat="45.71002759183658" lon="8.505475764772255"><ele>370.25</ele><time>2026-04-06T13:29:08.955Z</time></trkpt><trkpt lat="45.709961195771584" lon="8.50527879544023"><ele>368.0</ele><time>2026-04-06T13:29:09.955Z</time></trkpt><trkpt lat="45.70988946284888" lon="8.505069584384174"><ele>367.0</ele><time>2026-04-06T13:29:10.955Z</time></trkpt><trkpt lat="45.70981979335805" lon="8.50485346809126"><ele>366.0</ele><time>2026-04-06T13:29:11.955Z</time></trkpt><trkpt lat="45.70975122250706" lon="8.504641548454094"><ele>365.0</ele><time>2026-04-06T13:29:12.955Z</time></trkpt><trkpt lat="45.70968092910821" lon="8.504435102290335"><ele>363.6666666666667</ele><time>2026-04-06T13:29:13.955Z</time></trkpt><trkpt lat="45.70960809802079" lon="8.50422895338231"><ele>362.3333333333333</ele><time>2026-04-06T13:29:14.955Z</time></trkpt><trkpt lat="45.70953657074026" lon="8.50402135941291"><ele>361.0</ele><time>2026-04-06T13:29:15.955Z</time></trkpt><trkpt lat="45.70946505153928" lon="8.503816554178906"><ele>361.3333333333333</ele><time>2026-04-06T13:29:16.955Z</time></trkpt><trkpt lat="45.709394374526546" lon="8.503611679823496"><ele>361.6666666666667</ele><time>2026-04-06T13:29:17.955Z</time></trkpt><trkpt lat="45.709325284268594" lon="8.503403111010444"><ele>362.0</ele><time>2026-04-06T13:29:18.955Z</time></trkpt><trkpt lat="45.70925604870523" lon="8.503187476992286"><ele>362.0</ele><time>2026-04-06T13:29:19.955Z</time></trkpt><trkpt lat="45.70918302544825" lon="8.502967297824885"><ele>362.0</ele><time>2026-04-06T13:29:20.955Z</time></trkpt><trkpt lat="45.70911340944587" lon="8.502743616686995"><ele>362.0</ele><time>2026-04-06T13:29:21.955Z</time></trkpt><trkpt lat="45.7090349924711" lon="8.50251891277954"><ele>361.33333333333337</ele><time>2026-04-06T13:29:22.955Z</time></trkpt><trkpt lat="45.708955336419685" lon="8.502297078160215"><ele>360.6666666666667</ele><time>2026-04-06T13:29:23.955Z</time></trkpt><trkpt lat="45.708879779671115" lon="8.502075738889259"><ele>360.0</ele><time>2026-04-06T13:29:24.955Z</time></trkpt><trkpt lat="45.70880302032892" lon="8.50185706291627"><ele>359.0</ele><time>2026-04-06T13:29:25.955Z</time></trkpt><trkpt lat="45.70872494101871" lon="8.501642339396733"><ele>358.0</ele><time>2026-04-06T13:29:26.954Z</time></trkpt><trkpt lat="45.70865082674312" lon="8.501432562071255"><ele>357.0</ele><time>2026-04-06T13:29:27.954Z</time></trkpt><trkpt lat="45.70857870336075" lon="8.501221956545074"><ele>356.3333333333333</ele><time>2026-04-06T13:29:28.954Z</time></trkpt><trkpt lat="45.70850805246526" lon="8.501009267276471"><ele>355.66666666666663</ele><time>2026-04-06T13:29:29.954Z</time></trkpt><trkpt lat="45.70843505795802" lon="8.500798850789504"><ele>355.0</ele><time>2026-04-06T13:29:30.954Z</time></trkpt><trkpt lat="45.7083637962606" lon="8.50059141604565"><ele>354.0</ele><time>2026-04-06T13:29:31.954Z</time></trkpt><trkpt lat="45.70829298139608" lon="8.50038390691985"><ele>353.0</ele><time>2026-04-06T13:29:32.954Z</time></trkpt><trkpt lat="45.70821895761324" lon="8.5001752439891"><ele>352.0</ele><time>2026-04-06T13:29:33.954Z</time></trkpt><trkpt lat="45.70814341830005" lon="8.499958452957408"><ele>352.0</ele><time>2026-04-06T13:29:34.954Z</time></trkpt><trkpt lat="45.70806519144033" lon="8.499738650984721"><ele>352.0</ele><time>2026-04-06T13:29:35.954Z</time></trkpt><trkpt lat="45.70800364419351" lon="8.499509351746118"><ele>352.0</ele><time>2026-04-06T13:29:36.954Z</time></trkpt><trkpt lat="45.70791981991265" lon="8.4992773445059"><ele>350.66666666666663</ele><time>2026-04-06T13:29:37.954Z</time></trkpt><trkpt lat="45.7078380580966" lon="8.49903713284327"><ele>349.3333333333333</ele><time>2026-04-06T13:29:38.954Z</time></trkpt><trkpt lat="45.707763935415166" lon="8.498803740501748"><ele>348.0</ele><time>2026-04-06T13:29:39.954Z</time></trkpt><trkpt lat="45.70768662150581" lon="8.498562384373939"><ele>348.0</ele><time>2026-04-06T13:29:40.954Z</time></trkpt><trkpt lat="45.707610779314265" lon="8.498341781945415"><ele>348.0</ele><time>2026-04-06T13:29:41.954Z</time></trkpt><trkpt lat="45.70754690456627" lon="8.498147568926248"><ele>348.0</ele><time>2026-04-06T13:29:42.954Z</time></trkpt><trkpt lat="45.70748752051603" lon="8.497994201574354"><ele>348.0</ele><time>2026-04-06T13:29:43.954Z</time></trkpt><trkpt lat="45.707423519447964" lon="8.497864377503685"><ele>348.0</ele><time>2026-04-06T13:29:44.954Z</time></trkpt><trkpt lat="45.70736244367034" lon="8.497747062673312"><ele>348.0</ele><time>2026-04-06T13:29:45.954Z</time></trkpt><trkpt lat="45.70729563590953" lon="8.497636540587552"><ele>348.0</ele><time>2026-04-06T13:29:46.954Z</time></trkpt><trkpt lat="45.70722907591699" lon="8.497521499695056"><ele>348.0</ele><time>2026-04-06T13:29:47.954Z</time></trkpt><trkpt lat="45.70715101439201" lon="8.497398019560219"><ele>348.0</ele><time>2026-04-06T13:29:48.954Z</time></trkpt><trkpt lat="45.70706264809629" lon="8.49726319529082"><ele>348.0</ele><time>2026-04-06T13:29:49.954Z</time></trkpt><trkpt lat="45.70697065819038" lon="8.49712192804202"><ele>348.0</ele><time>2026-04-06T13:29:50.954Z</time></trkpt><trkpt lat="45.70687904512808" lon="8.496973161874273"><ele>348.0</ele><time>2026-04-06T13:29:51.954Z</time></trkpt><trkpt lat="45.70679140079334" lon="8.496808389084734"><ele>348.0</ele><time>2026-04-06T13:29:52.954Z</time></trkpt><trkpt lat="45.70671049532259" lon="8.496630517621032"><ele>348.25</ele><time>2026-04-06T13:29:53.954Z</time></trkpt><trkpt lat="45.70664724030144" lon="8.496434864232892"><ele>348.5</ele><time>2026-04-06T13:29:54.954Z</time></trkpt><trkpt lat="45.706604310462744" lon="8.496223343591117"><ele>348.75</ele><time>2026-04-06T13:29:55.954Z</time></trkpt><trkpt lat="45.70658392444344" lon="8.49603019543858"><ele>349.0</ele><time>2026-04-06T13:29:56.954Z</time></trkpt><trkpt lat="45.70656632623469" lon="8.495892279131283"><ele>349.0</ele><time>2026-04-06T13:29:57.954Z</time></trkpt><trkpt lat="45.70655799223063" lon="8.495781671998314"><ele>349.0</ele><time>2026-04-06T13:29:58.954Z</time></trkpt><trkpt lat="45.70655201545231" lon="8.495670542766895"><ele>349.0</ele><time>2026-04-06T13:29:59.954Z</time></trkpt><trkpt lat="45.70655306809736" lon="8.495556179734885"><ele>349.0</ele><time>2026-04-06T13:30:00.954Z</time></trkpt><trkpt lat="45.7065440034198" lon="8.495428678791784"><ele>349.0</ele><time>2026-04-06T13:30:01.954Z</time></trkpt><trkpt lat="45.70650787600945" lon="8.495295726276069"><ele>349.0</ele><time>2026-04-06T13:30:02.954Z</time></trkpt><trkpt lat="45.70645898066233" lon="8.495154919960479"><ele>348.5</ele><time>2026-04-06T13:30:03.954Z</time></trkpt><trkpt lat="45.70639204123334" lon="8.495017864044787"><ele>348.0</ele><time>2026-04-06T13:30:04.954Z</time></trkpt><trkpt lat="45.70631106038183" lon="8.494888630285597"><ele>347.5</ele><time>2026-04-06T13:30:05.954Z</time></trkpt><trkpt lat="45.7062176616316" lon="8.494760726513329"><ele>347.0</ele><time>2026-04-06T13:30:06.954Z</time></trkpt><trkpt lat="45.70611427844707" lon="8.494640244854054"><ele>346.25</ele><time>2026-04-06T13:30:07.954Z</time></trkpt><trkpt lat="45.70600860436901" lon="8.494518036132702"><ele>345.5</ele><time>2026-04-06T13:30:08.954Z</time></trkpt><trkpt lat="45.705903669507755" lon="8.494388835946204"><ele>344.75</ele><time>2026-04-06T13:30:09.954Z</time></trkpt><trkpt lat="45.70580431286632" lon="8.494246302199281"><ele>344.0</ele><time>2026-04-06T13:30:10.954Z</time></trkpt><trkpt lat="45.705710838193916" lon="8.4940882761235"><ele>344.0</ele><time>2026-04-06T13:30:11.954Z</time></trkpt><trkpt lat="45.705623271509566" lon="8.493922410583806"><ele>344.0</ele><time>2026-04-06T13:30:12.954Z</time></trkpt><trkpt lat="45.70554507694162" lon="8.493749751323307"><ele>344.0</ele><time>2026-04-06T13:30:13.954Z</time></trkpt><trkpt lat="45.70547714126535" lon="8.493567057015333"><ele>344.0</ele><time>2026-04-06T13:30:14.954Z</time></trkpt><trkpt lat="45.70541987513063" lon="8.493375497836295"><ele>342.25</ele><time>2026-04-06T13:30:15.953Z</time></trkpt><trkpt lat="45.70537265266091" lon="8.493179089823268"><ele>340.5</ele><time>2026-04-06T13:30:16.953Z</time></trkpt><trkpt lat="45.70533511246513" lon="8.492976567580945"><ele>338.75</ele><time>2026-04-06T13:30:17.953Z</time></trkpt><trkpt lat="45.70529933921462" lon="8.492762996645213"><ele>337.0</ele><time>2026-04-06T13:30:18.953Z</time></trkpt><trkpt lat="45.705260699388944" lon="8.492537863963909"><ele>336.0</ele><time>2026-04-06T13:30:19.953Z</time></trkpt><trkpt lat="45.70522694948125" lon="8.49230715122801"><ele>335.0</ele><time>2026-04-06T13:30:20.956Z</time></trkpt><trkpt lat="45.705192722778" lon="8.492072175196164"><ele>334.0</ele><time>2026-04-06T13:30:21.955Z</time></trkpt><trkpt lat="45.70515958325768" lon="8.491836692705903"><ele>332.66666666666663</ele><time>2026-04-06T13:30:22.955Z</time></trkpt><trkpt lat="45.705122072480826" lon="8.491604104746338"><ele>331.3333333333333</ele><time>2026-04-06T13:30:23.956Z</time></trkpt><trkpt lat="45.70508229355926" lon="8.491376832481986"><ele>330.0</ele><time>2026-04-06T13:30:24.955Z</time></trkpt><trkpt lat="45.705045793140776" lon="8.491144438831007"><ele>328.6666666666667</ele><time>2026-04-06T13:30:25.955Z</time></trkpt><trkpt lat="45.7050145747366" lon="8.490915278821229"><ele>327.33333333333337</ele><time>2026-04-06T13:30:26.956Z</time></trkpt><trkpt lat="45.70497778876169" lon="8.49068757973901"><ele>326.0</ele><time>2026-04-06T13:30:27.956Z</time></trkpt><trkpt lat="45.70494332223391" lon="8.490459403190489"><ele>325.6666666666667</ele><time>2026-04-06T13:30:28.956Z</time></trkpt><trkpt lat="45.70490714028631" lon="8.4902343963"><ele>325.3333333333333</ele><time>2026-04-06T13:30:29.956Z</time></trkpt><trkpt lat="45.70487559448196" lon="8.490010544378045"><ele>325.0</ele><time>2026-04-06T13:30:30.955Z</time></trkpt><trkpt lat="45.70483983663475" lon="8.489787622282918"><ele>325.66666666666663</ele><time>2026-04-06T13:30:31.955Z</time></trkpt><trkpt lat="45.70480419598595" lon="8.489566885752135"><ele>326.3333333333333</ele><time>2026-04-06T13:30:32.955Z</time></trkpt><trkpt lat="45.704768079660035" lon="8.489348525941429"><ele>327.0</ele><time>2026-04-06T13:30:33.956Z</time></trkpt><trkpt lat="45.704731960211994" lon="8.489130451405346"><ele>327.0</ele><time>2026-04-06T13:30:34.956Z</time></trkpt><trkpt lat="45.70469943756742" lon="8.488909137129403"><ele>327.0</ele><time>2026-04-06T13:30:35.956Z</time></trkpt><trkpt lat="45.704669459474694" lon="8.488684046092752"><ele>327.0</ele><time>2026-04-06T13:30:36.956Z</time></trkpt><trkpt lat="45.704635620464984" lon="8.48845894345011"><ele>326.0</ele><time>2026-04-06T13:30:37.956Z</time></trkpt><trkpt lat="45.70459854732037" lon="8.488238377261299"><ele>325.0</ele><time>2026-04-06T13:30:38.955Z</time></trkpt><trkpt lat="45.70456358013069" lon="8.488016626475128"><ele>324.0</ele><time>2026-04-06T13:30:39.955Z</time></trkpt><trkpt lat="45.704528680090476" lon="8.487788689434687"><ele>323.0</ele><time>2026-04-06T13:30:40.955Z</time></trkpt><trkpt lat="45.7044925380009" lon="8.487555437528608"><ele>322.0</ele><time>2026-04-06T13:30:41.955Z</time></trkpt><trkpt lat="45.704453442389294" lon="8.487320950078406"><ele>321.0</ele><time>2026-04-06T13:30:42.955Z</time></trkpt><trkpt lat="45.704413041505276" lon="8.48708646512117"><ele>320.6666666666667</ele><time>2026-04-06T13:30:43.955Z</time></trkpt><trkpt lat="45.70437263404267" lon="8.486854900167945"><ele>320.33333333333337</ele><time>2026-04-06T13:30:44.955Z</time></trkpt><trkpt lat="45.704332835375794" lon="8.486620819988142"><ele>320.0</ele><time>2026-04-06T13:30:45.955Z</time></trkpt><trkpt lat="45.70429748471611" lon="8.486386852961092"><ele>319.0</ele><time>2026-04-06T13:30:46.955Z</time></trkpt><trkpt lat="45.704258346485304" lon="8.486154604712782"><ele>318.0</ele><time>2026-04-06T13:30:47.955Z</time></trkpt><trkpt lat="45.70421754884384" lon="8.48591804892363"><ele>317.0</ele><time>2026-04-06T13:30:48.955Z</time></trkpt><trkpt lat="45.70417729919712" lon="8.48568166320255"><ele>317.0</ele><time>2026-04-06T13:30:49.955Z</time></trkpt><trkpt lat="45.704137858027316" lon="8.485441772111251"><ele>317.0</ele><time>2026-04-06T13:30:50.955Z</time></trkpt><trkpt lat="45.70409699969766" lon="8.485202643038411"><ele>317.0</ele><time>2026-04-06T13:30:51.955Z</time></trkpt><trkpt lat="45.704055358999206" lon="8.484961425731637"><ele>317.0</ele><time>2026-04-06T13:30:52.955Z</time></trkpt><trkpt lat="45.704014933583316" lon="8.484717784741463"><ele>317.0</ele><time>2026-04-06T13:30:53.955Z</time></trkpt><trkpt lat="45.70397539151368" lon="8.484477050539962"><ele>317.0</ele><time>2026-04-06T13:30:54.955Z</time></trkpt><trkpt lat="45.70393241398988" lon="8.484236405019022"><ele>317.0</ele><time>2026-04-06T13:30:55.955Z</time></trkpt><trkpt lat="45.7038913542407" lon="8.483998679301328"><ele>317.0</ele><time>2026-04-06T13:30:56.955Z</time></trkpt><trkpt lat="45.70384960251661" lon="8.48376355880518"><ele>317.0</ele><time>2026-04-06T13:30:57.955Z</time></trkpt><trkpt lat="45.70380522322006" lon="8.483532396388352"><ele>318.0</ele><time>2026-04-06T13:30:58.955Z</time></trkpt><trkpt lat="45.70376016688951" lon="8.483301123554183"><ele>319.0</ele><time>2026-04-06T13:30:59.955Z</time></trkpt><trkpt lat="45.70371492102175" lon="8.48307300122186"><ele>320.0</ele><time>2026-04-06T13:31:00.955Z</time></trkpt><trkpt lat="45.703673186225124" lon="8.482842737300984"><ele>320.0</ele><time>2026-04-06T13:31:01.955Z</time></trkpt><trkpt lat="45.70363067639532" lon="8.48260596200118"><ele>320.0</ele><time>2026-04-06T13:31:02.955Z</time></trkpt><trkpt lat="45.7035902057201" lon="8.482367103614685"><ele>320.0</ele><time>2026-04-06T13:31:03.955Z</time></trkpt><trkpt lat="45.70354754369477" lon="8.482128687420431"><ele>318.33333333333337</ele><time>2026-04-06T13:31:04.955Z</time></trkpt><trkpt lat="45.70351087102518" lon="8.481889512589822"><ele>316.6666666666667</ele><time>2026-04-06T13:31:05.955Z</time></trkpt><trkpt lat="45.70347361964562" lon="8.481650419532533"><ele>315.0</ele><time>2026-04-06T13:31:06.955Z</time></trkpt><trkpt lat="45.7034374015202" lon="8.481412343127788"><ele>314.3333333333333</ele><time>2026-04-06T13:31:07.955Z</time></trkpt><trkpt lat="45.70340250471241" lon="8.481172229490536"><ele>313.66666666666663</ele><time>2026-04-06T13:31:08.955Z</time></trkpt><trkpt lat="45.70336891580454" lon="8.480930697981224"><ele>313.0</ele><time>2026-04-06T13:31:09.955Z</time></trkpt><trkpt lat="45.70332879598843" lon="8.48069505757049"><ele>313.0</ele><time>2026-04-06T13:31:10.955Z</time></trkpt><trkpt lat="45.70329764671002" lon="8.48045135484632"><ele>313.0</ele><time>2026-04-06T13:31:11.955Z</time></trkpt><trkpt lat="45.703269291129004" lon="8.48020180903252"><ele>313.0</ele><time>2026-04-06T13:31:12.955Z</time></trkpt><trkpt lat="45.703236502908545" lon="8.47995057106292"><ele>313.0</ele><time>2026-04-06T13:31:13.955Z</time></trkpt><trkpt lat="45.70320060109887" lon="8.479699452037384"><ele>313.0</ele><time>2026-04-06T13:31:14.955Z</time></trkpt><trkpt lat="45.70315989876309" lon="8.479445194870898"><ele>313.0</ele><time>2026-04-06T13:31:15.955Z</time></trkpt><trkpt lat="45.7031205607696" lon="8.479188543441872"><ele>313.0</ele><time>2026-04-06T13:31:16.955Z</time></trkpt><trkpt lat="45.703079169369474" lon="8.478934057453793"><ele>313.0</ele><time>2026-04-06T13:31:17.955Z</time></trkpt><trkpt lat="45.70303396322982" lon="8.478683985712564"><ele>313.0</ele><time>2026-04-06T13:31:18.955Z</time></trkpt><trkpt lat="45.702989759317774" lon="8.478437233468785"><ele>313.0</ele><time>2026-04-06T13:31:19.955Z</time></trkpt><trkpt lat="45.70294938987202" lon="8.47819822520928"><ele>313.0</ele><time>2026-04-06T13:31:20.955Z</time></trkpt><trkpt lat="45.70290865429398" lon="8.477966362482885"><ele>313.0</ele><time>2026-04-06T13:31:21.955Z</time></trkpt><trkpt lat="45.70286739942681" lon="8.47773851199641"><ele>314.0</ele><time>2026-04-06T13:31:22.955Z</time></trkpt><trkpt lat="45.70283090917764" lon="8.477516792354152"><ele>315.0</ele><time>2026-04-06T13:31:23.955Z</time></trkpt><trkpt lat="45.70279448212049" lon="8.477296838061505"><ele>316.0</ele><time>2026-04-06T13:31:24.955Z</time></trkpt><trkpt lat="45.702758545834534" lon="8.477075955459302"><ele>316.3333333333333</ele><time>2026-04-06T13:31:25.955Z</time></trkpt><trkpt lat="45.70271987053035" lon="8.476852940379928"><ele>316.6666666666667</ele><time>2026-04-06T13:31:26.955Z</time></trkpt><trkpt lat="45.70268116751745" lon="8.47662531456979"><ele>317.0</ele><time>2026-04-06T13:31:27.954Z</time></trkpt><trkpt lat="45.702645506285705" lon="8.47639595692001"><ele>315.0</ele><time>2026-04-06T13:31:28.954Z</time></trkpt><trkpt lat="45.70260933603301" lon="8.476164791478025"><ele>313.0</ele><time>2026-04-06T13:31:29.954Z</time></trkpt><trkpt lat="45.70257169959114" lon="8.475931931889317"><ele>311.0</ele><time>2026-04-06T13:31:30.954Z</time></trkpt><trkpt lat="45.702535611773186" lon="8.475697562318588"><ele>311.0</ele><time>2026-04-06T13:31:31.954Z</time></trkpt><trkpt lat="45.70249949545727" lon="8.475468110344028"><ele>311.0</ele><time>2026-04-06T13:31:32.954Z</time></trkpt><trkpt lat="45.7024668065653" lon="8.475245181770225"><ele>311.0</ele><time>2026-04-06T13:31:33.954Z</time></trkpt><trkpt lat="45.70243119858687" lon="8.475027778329416"><ele>310.75</ele><time>2026-04-06T13:31:34.954Z</time></trkpt><trkpt lat="45.702396611118715" lon="8.474825485083242"><ele>310.5</ele><time>2026-04-06T13:31:35.954Z</time></trkpt><trkpt lat="45.70236671008531" lon="8.474634599838902"><ele>310.25</ele><time>2026-04-06T13:31:36.954Z</time></trkpt><trkpt lat="45.702338394423606" lon="8.474449089246866"><ele>310.0</ele><time>2026-04-06T13:31:37.954Z</time></trkpt><trkpt lat="45.70231022940055" lon="8.474268402583654"><ele>310.5</ele><time>2026-04-06T13:31:38.954Z</time></trkpt><trkpt lat="45.702276752514045" lon="8.474086055899031"><ele>311.0</ele><time>2026-04-06T13:31:39.954Z</time></trkpt><trkpt lat="45.70224951150375" lon="8.473904729885472"><ele>311.5</ele><time>2026-04-06T13:31:40.954Z</time></trkpt><trkpt lat="45.70221666943993" lon="8.473722434633995"><ele>312.0</ele><time>2026-04-06T13:31:41.954Z</time></trkpt><trkpt lat="45.702185038567464" lon="8.473538649429338"><ele>312.2</ele><time>2026-04-06T13:31:42.954Z</time></trkpt><trkpt lat="45.70215507728031" lon="8.473362840057012"><ele>312.4</ele><time>2026-04-06T13:31:43.954Z</time></trkpt><trkpt lat="45.70213470077748" lon="8.473206048862577"><ele>312.6</ele><time>2026-04-06T13:31:44.954Z</time></trkpt><trkpt lat="45.70211653874398" lon="8.473071584652846"><ele>312.8</ele><time>2026-04-06T13:31:45.954Z</time></trkpt><trkpt lat="45.70209962226647" lon="8.47295122840519"><ele>313.0</ele><time>2026-04-06T13:31:46.954Z</time></trkpt><trkpt lat="45.70208385652076" lon="8.472833265527653"><ele>313.0</ele><time>2026-04-06T13:31:47.954Z</time></trkpt><trkpt lat="45.70205903087413" lon="8.47271053484233"><ele>313.0</ele><time>2026-04-06T13:31:48.954Z</time></trkpt><trkpt lat="45.70203464350579" lon="8.47257708502237"><ele>313.0</ele><time>2026-04-06T13:31:49.954Z</time></trkpt><trkpt lat="45.70200706315157" lon="8.47243616658765"><ele>313.0</ele><time>2026-04-06T13:31:50.954Z</time></trkpt><trkpt lat="45.70199950964237" lon="8.472287644625293"><ele>313.0</ele><time>2026-04-06T13:31:51.954Z</time></trkpt><trkpt lat="45.70197500127781" lon="8.472136658020302"><ele>312.75</ele><time>2026-04-06T13:31:52.954Z</time></trkpt><trkpt lat="45.70194906223512" lon="8.471980435456821"><ele>312.5</ele><time>2026-04-06T13:31:53.954Z</time></trkpt><trkpt lat="45.70192616899998" lon="8.471820716476685"><ele>312.25</ele><time>2026-04-06T13:31:54.954Z</time></trkpt><trkpt lat="45.701898648740716" lon="8.47165506092154"><ele>312.0</ele><time>2026-04-06T13:31:55.954Z</time></trkpt><trkpt lat="45.70186843575381" lon="8.471484350260347"><ele>312.0</ele><time>2026-04-06T13:31:56.954Z</time></trkpt><trkpt lat="45.70183984896313" lon="8.471314785194389"><ele>312.0</ele><time>2026-04-06T13:31:57.954Z</time></trkpt><trkpt lat="45.701813010272446" lon="8.471142749742013"><ele>312.0</ele><time>2026-04-06T13:31:58.954Z</time></trkpt><trkpt lat="45.7017888157077" lon="8.470964588210531"><ele>312.0</ele><time>2026-04-06T13:31:59.954Z</time></trkpt><trkpt lat="45.70176074895405" lon="8.470784461129542"><ele>312.0</ele><time>2026-04-06T13:32:00.954Z</time></trkpt><trkpt lat="45.7017295962081" lon="8.470613775334867"><ele>312.0</ele><time>2026-04-06T13:32:01.954Z</time></trkpt><trkpt lat="45.701706225484045" lon="8.47046690482809"><ele>312.0</ele><time>2026-04-06T13:32:02.954Z</time></trkpt><trkpt lat="45.701691530490386" lon="8.4703569582428"><ele>312.0</ele><time>2026-04-06T13:32:03.954Z</time></trkpt><trkpt lat="45.70168027179871" lon="8.470265934906648"><ele>312.0</ele><time>2026-04-06T13:32:04.954Z</time></trkpt><trkpt lat="45.70165512357389" lon="8.470098419032146"><ele>312.1666666666667</ele><time>2026-04-06T13:32:06.954Z</time></trkpt><trkpt lat="45.70162579214767" lon="8.469925526221122"><ele>312.3333333333333</ele><time>2026-04-06T13:32:08.954Z</time></trkpt><trkpt lat="45.70161560044845" lon="8.469824921953592"><ele>312.5</ele><time>2026-04-06T13:32:09.954Z</time></trkpt><trkpt lat="45.70160389656121" lon="8.469717090470928"><ele>312.66666666666663</ele><time>2026-04-06T13:32:10.955Z</time></trkpt><trkpt lat="45.70158457672423" lon="8.469606997084583"><ele>312.8333333333333</ele><time>2026-04-06T13:32:11.956Z</time></trkpt><trkpt lat="45.70156322630064" lon="8.469496916968046"><ele>313.0</ele><time>2026-04-06T13:32:12.956Z</time></trkpt><trkpt lat="45.70154683633817" lon="8.469391404943032"><ele>313.0</ele><time>2026-04-06T13:32:13.957Z</time></trkpt><trkpt lat="45.70153569723656" lon="8.46929489065251"><ele>313.0</ele><time>2026-04-06T13:32:14.958Z</time></trkpt><trkpt lat="45.70152772027612" lon="8.469200431828266"><ele>313.0</ele><time>2026-04-06T13:32:15.958Z</time></trkpt><trkpt lat="45.701487032980374" lon="8.46907571069746"><ele>313.0</ele><time>2026-04-06T13:32:17.959Z</time></trkpt><trkpt lat="45.70141236946893" lon="8.469055793896347"><ele>313.0</ele><time>2026-04-06T13:32:19.96Z</time></trkpt><trkpt lat="45.701343706579614" lon="8.469109698568904"><ele>313.0</ele><time>2026-04-06T13:32:20.961Z</time></trkpt><trkpt lat="45.70122133024638" lon="8.469190828469975"><ele>313.0</ele><time>2026-04-06T13:32:22.962Z</time></trkpt><trkpt lat="45.70114011495407" lon="8.469204595980246"><ele>313.0</ele><time>2026-04-06T13:32:23.962Z</time></trkpt><trkpt lat="45.701047198386945" lon="8.469219551211305"><ele>313.0</ele><time>2026-04-06T13:32:24.962Z</time></trkpt><trkpt lat="45.70095106958269" lon="8.469232265906864"><ele>313.0</ele><time>2026-04-06T13:32:25.963Z</time></trkpt><trkpt lat="45.70084533363035" lon="8.469250023127808"><ele>313.0</ele><time>2026-04-06T13:32:26.964Z</time></trkpt><trkpt lat="45.700743420356176" lon="8.469266810834807"><ele>313.0</ele><time>2026-04-06T13:32:27.964Z</time></trkpt><trkpt lat="45.70064091800726" lon="8.469280042579173"><ele>313.0</ele><time>2026-04-06T13:32:28.964Z</time></trkpt><trkpt lat="45.700542880491135" lon="8.469295754630322"><ele>313.0</ele><time>2026-04-06T13:32:29.964Z</time></trkpt><trkpt lat="45.70044143973688" lon="8.469315116321933"><ele>313.0</ele><time>2026-04-06T13:32:30.964Z</time></trkpt><trkpt lat="45.70033245324369" lon="8.469330418872632"><ele>313.0</ele><time>2026-04-06T13:32:31.965Z</time></trkpt><trkpt lat="45.70021626393874" lon="8.469350081324006"><ele>312.5</ele><time>2026-04-06T13:32:32.965Z</time></trkpt><trkpt lat="45.700097820151484" lon="8.469376790451927"><ele>312.0</ele><time>2026-04-06T13:32:33.966Z</time></trkpt><trkpt lat="45.69997731584588" lon="8.469407192510484"><ele>311.5</ele><time>2026-04-06T13:32:34.966Z</time></trkpt><trkpt lat="45.69985684467926" lon="8.469448066996808"><ele>311.0</ele><time>2026-04-06T13:32:35.965Z</time></trkpt><trkpt lat="45.69973452284013" lon="8.46949515440992"><ele>311.0</ele><time>2026-04-06T13:32:36.966Z</time></trkpt><trkpt lat="45.699610350479226" lon="8.469519932517"><ele>311.0</ele><time>2026-04-06T13:32:37.966Z</time></trkpt><trkpt lat="45.699480194545885" lon="8.469574407656538"><ele>311.0</ele><time>2026-04-06T13:32:38.966Z</time></trkpt><trkpt lat="45.6993548248466" lon="8.46963001624026"><ele>311.0</ele><time>2026-04-06T13:32:39.966Z</time></trkpt><trkpt lat="45.69923298279555" lon="8.46969101200004"><ele>310.75</ele><time>2026-04-06T13:32:40.966Z</time></trkpt><trkpt lat="45.699114559896806" lon="8.469749968616098"><ele>310.5</ele><time>2026-04-06T13:32:41.966Z</time></trkpt><trkpt lat="45.69899715914407" lon="8.469810683305274"><ele>310.25</ele><time>2026-04-06T13:32:42.966Z</time></trkpt><trkpt lat="45.69888392419143" lon="8.4698736415663"><ele>310.0</ele><time>2026-04-06T13:32:43.966Z</time></trkpt><trkpt lat="45.69876978790684" lon="8.469934162822495"><ele>310.0</ele><time>2026-04-06T13:32:44.966Z</time></trkpt><trkpt lat="45.698656602756685" lon="8.469992013211053"><ele>310.0</ele><time>2026-04-06T13:32:45.967Z</time></trkpt><trkpt lat="45.69853998605734" lon="8.470049510921212"><ele>310.0</ele><time>2026-04-06T13:32:46.967Z</time></trkpt><trkpt lat="45.698422157000465" lon="8.470119598999231"><ele>310.0</ele><time>2026-04-06T13:32:47.967Z</time></trkpt><trkpt lat="45.69830599429772" lon="8.47017227015098"><ele>310.0</ele><time>2026-04-06T13:32:48.967Z</time></trkpt><trkpt lat="45.69818676459116" lon="8.470236656913015"><ele>310.0</ele><time>2026-04-06T13:32:49.967Z</time></trkpt><trkpt lat="45.6980621805326" lon="8.470310137911847"><ele>310.0</ele><time>2026-04-06T13:32:50.967Z</time></trkpt><trkpt lat="45.69793660834721" lon="8.470371955408998"><ele>310.0</ele><time>2026-04-06T13:32:51.967Z</time></trkpt><trkpt lat="45.69781573061711" lon="8.470441663193599"><ele>309.75</ele><time>2026-04-06T13:32:52.967Z</time></trkpt><trkpt lat="45.697698379740345" lon="8.470507621855294"><ele>309.5</ele><time>2026-04-06T13:32:53.967Z</time></trkpt><trkpt lat="45.69758640442193" lon="8.470573518810284"><ele>309.25</ele><time>2026-04-06T13:32:54.967Z</time></trkpt><trkpt lat="45.69747943829248" lon="8.470638822327283"><ele>309.0</ele><time>2026-04-06T13:32:55.967Z</time></trkpt><trkpt lat="45.69737567109608" lon="8.470697106622815"><ele>309.0</ele><time>2026-04-06T13:32:56.967Z</time></trkpt><trkpt lat="45.69728290893799" lon="8.470748133441182"><ele>309.0</ele><time>2026-04-06T13:32:57.967Z</time></trkpt><trkpt lat="45.69719530083829" lon="8.470796309954672"><ele>309.0</ele><time>2026-04-06T13:32:58.967Z</time></trkpt><trkpt lat="45.69711002430743" lon="8.470830839594907"><ele>309.0</ele><time>2026-04-06T13:32:59.967Z</time></trkpt><trkpt lat="45.69703237810628" lon="8.47084504835425"><ele>309.0</ele><time>2026-04-06T13:33:00.967Z</time></trkpt><trkpt lat="45.696936068209126" lon="8.470878998324428"><ele>308.59999999999997</ele><time>2026-04-06T13:33:02.967Z</time></trkpt><trkpt lat="45.69688629162698" lon="8.470705666574991"><ele>308.2</ele><time>2026-04-06T13:33:04.967Z</time></trkpt><trkpt lat="45.69684141887278" lon="8.470548988843781"><ele>307.79999999999995</ele><time>2026-04-06T13:33:06.967Z</time></trkpt><trkpt lat="45.696799356861845" lon="8.470410440060517"><ele>307.4</ele><time>2026-04-06T13:33:07.967Z</time></trkpt><trkpt lat="45.69678010385113" lon="8.47029436151826"><ele>307.0</ele><time>2026-04-06T13:33:08.967Z</time></trkpt><trkpt lat="45.69675524944245" lon="8.470203489748204"><ele>307.0</ele><time>2026-04-06T13:33:09.967Z</time></trkpt><trkpt lat="45.696781646343325" lon="8.470097159284464"><ele>307.0</ele><time>2026-04-06T13:33:10.967Z</time></trkpt><trkpt lat="45.696704425984954" lon="8.469995153810437"><ele>307.0</ele><time>2026-04-06T13:33:12.967Z</time></trkpt><trkpt lat="45.696601641689924" lon="8.470010006276377"><ele>307.0</ele><time>2026-04-06T13:33:14.967Z</time></trkpt><trkpt lat="45.69653500461916" lon="8.470001175058982"><ele>307.0</ele><time>2026-04-06T13:33:15.967Z</time></trkpt><trkpt lat="45.69650382093249" lon="8.470186944611049"><ele>307.0</ele><time>2026-04-06T13:33:17.967Z</time></trkpt><trkpt lat="45.6964106007276" lon="8.470171651834194"><ele>307.0</ele><time>2026-04-06T13:33:18.967Z</time></trkpt><trkpt lat="45.69634429974202" lon="8.470155493962812"><ele>307.0</ele><time>2026-04-06T13:33:19.967Z</time></trkpt><trkpt lat="45.6962614379513" lon="8.470148985166981"><ele>307.0</ele><time>2026-04-06T13:33:20.967Z</time></trkpt><trkpt lat="45.69616126954851" lon="8.470144109920108"><ele>307.0</ele><time>2026-04-06T13:33:21.967Z</time></trkpt><trkpt lat="45.696050913872064" lon="8.470134505522092"><ele>307.2</ele><time>2026-04-06T13:33:22.967Z</time></trkpt><trkpt lat="45.6959428980612" lon="8.470126009998596"><ele>307.4</ele><time>2026-04-06T13:33:23.967Z</time></trkpt><trkpt lat="45.695842790174986" lon="8.470118222462098"><ele>307.6</ele><time>2026-04-06T13:33:24.967Z</time></trkpt><trkpt lat="45.695738185257525" lon="8.470111528167275"><ele>307.8</ele><time>2026-04-06T13:33:25.967Z</time></trkpt><trkpt lat="45.69562392606633" lon="8.470096639574296"><ele>308.0</ele><time>2026-04-06T13:33:26.967Z</time></trkpt><trkpt lat="45.695499120803035" lon="8.47008299472014"><ele>308.0</ele><time>2026-04-06T13:33:27.967Z</time></trkpt><trkpt lat="45.695366825424706" lon="8.470074198635032"><ele>308.0</ele><time>2026-04-06T13:33:28.967Z</time></trkpt><trkpt lat="45.69522959998178" lon="8.470062311356275"><ele>308.0</ele><time>2026-04-06T13:33:29.967Z</time></trkpt><trkpt lat="45.69508840366022" lon="8.470041413067266"><ele>308.0</ele><time>2026-04-06T13:33:30.967Z</time></trkpt><trkpt lat="45.69495080427853" lon="8.470027366858218"><ele>307.25</ele><time>2026-04-06T13:33:31.967Z</time></trkpt><trkpt lat="45.69481762181901" lon="8.470016410429801"><ele>306.5</ele><time>2026-04-06T13:33:32.967Z</time></trkpt><trkpt lat="45.694686810678895" lon="8.470005732324038"><ele>305.75</ele><time>2026-04-06T13:33:33.967Z</time></trkpt><trkpt lat="45.6945542020142" lon="8.469992638296254"><ele>305.0</ele><time>2026-04-06T13:33:34.967Z</time></trkpt><trkpt lat="45.69442340283992" lon="8.469980940710498"><ele>305.25</ele><time>2026-04-06T13:33:35.967Z</time></trkpt><trkpt lat="45.69429695354259" lon="8.469964072998305"><ele>305.5</ele><time>2026-04-06T13:33:36.967Z</time></trkpt><trkpt lat="45.694171465802555" lon="8.469948550004892"><ele>305.75</ele><time>2026-04-06T13:33:37.967Z</time></trkpt><trkpt lat="45.694042230002296" lon="8.469920628918263"><ele>306.0</ele><time>2026-04-06T13:33:38.967Z</time></trkpt><trkpt lat="45.69391936319753" lon="8.469877853378978"><ele>306.0</ele><time>2026-04-06T13:33:39.967Z</time></trkpt><trkpt lat="45.693805461738506" lon="8.469826931253463"><ele>306.0</ele><time>2026-04-06T13:33:40.967Z</time></trkpt><trkpt lat="45.69370106489423" lon="8.469765779502124"><ele>306.0</ele><time>2026-04-06T13:33:41.967Z</time></trkpt><trkpt lat="45.693608543388876" lon="8.469693487966298"><ele>306.0</ele><time>2026-04-06T13:33:42.967Z</time></trkpt><trkpt lat="45.693530746436004" lon="8.469613855772444"><ele>306.0</ele><time>2026-04-06T13:33:43.967Z</time></trkpt><trkpt lat="45.69346244663401" lon="8.469534706855702"><ele>305.6</ele><time>2026-04-06T13:33:44.967Z</time></trkpt><trkpt lat="45.693410057803284" lon="8.469467678410936"><ele>305.20000000000005</ele><time>2026-04-06T13:33:45.967Z</time></trkpt><trkpt lat="45.69334886864568" lon="8.469391992284983"><ele>304.79999999999995</ele><time>2026-04-06T13:33:47.967Z</time></trkpt><trkpt lat="45.69329681513356" lon="8.469320834358403"><ele>304.4</ele><time>2026-04-06T13:33:49.967Z</time></trkpt><trkpt lat="45.69322311728729" lon="8.469215245955095"><ele>304.0</ele><time>2026-04-06T13:33:51.967Z</time></trkpt><trkpt lat="45.69314034098011" lon="8.46907402293043"><ele>304.0</ele><time>2026-04-06T13:33:53.967Z</time></trkpt><trkpt lat="45.69309296795487" lon="8.468991941153343"><ele>304.0</ele><time>2026-04-06T13:33:54.967Z</time></trkpt><trkpt lat="45.693064693007734" lon="8.46888442953129"><ele>304.0</ele><time>2026-04-06T13:33:55.967Z</time></trkpt><trkpt lat="45.69300208729517" lon="8.468784974230658"><ele>304.0</ele><time>2026-04-06T13:33:56.967Z</time></trkpt><trkpt lat="45.69295527043019" lon="8.468669598643906"><ele>304.0</ele><time>2026-04-06T13:33:57.967Z</time></trkpt><trkpt lat="45.69290928946719" lon="8.468560873375848"><ele>304.0</ele><time>2026-04-06T13:33:58.967Z</time></trkpt><trkpt lat="45.692879308214934" lon="8.468446776198439"><ele>304.2</ele><time>2026-04-06T13:33:59.967Z</time></trkpt><trkpt lat="45.69283121711184" lon="8.468339932814784"><ele>304.4</ele><time>2026-04-06T13:34:00.967Z</time></trkpt><trkpt lat="45.69277963121467" lon="8.46822356902463"><ele>304.6</ele><time>2026-04-06T13:34:01.967Z</time></trkpt><trkpt lat="45.6927268551026" lon="8.468099668726229"><ele>304.8</ele><time>2026-04-06T13:34:02.967Z</time></trkpt><trkpt lat="45.6926670059323" lon="8.467972628791813"><ele>305.0</ele><time>2026-04-06T13:34:03.967Z</time></trkpt><trkpt lat="45.69260391309058" lon="8.467842701897569"><ele>305.0</ele><time>2026-04-06T13:34:04.967Z</time></trkpt><trkpt lat="45.692542103643774" lon="8.467699907136893"><ele>305.0</ele><time>2026-04-06T13:34:05.967Z</time></trkpt><trkpt lat="45.692477668129044" lon="8.467559383546023"><ele>305.0</ele><time>2026-04-06T13:34:06.967Z</time></trkpt><trkpt lat="45.6924120292632" lon="8.467411792111124"><ele>305.0</ele><time>2026-04-06T13:34:07.966Z</time></trkpt><trkpt lat="45.69235562508556" lon="8.467255256934616"><ele>304.75</ele><time>2026-04-06T13:34:08.966Z</time></trkpt><trkpt lat="45.692297774112" lon="8.467102911202275"><ele>304.5</ele><time>2026-04-06T13:34:09.966Z</time></trkpt><trkpt lat="45.692237659399936" lon="8.46696222875607"><ele>304.25</ele><time>2026-04-06T13:34:10.966Z</time></trkpt><trkpt lat="45.69217955354112" lon="8.466828368600648"><ele>304.0</ele><time>2026-04-06T13:34:11.966Z</time></trkpt><trkpt lat="45.69211702084257" lon="8.466700551537192"><ele>304.0</ele><time>2026-04-06T13:34:12.966Z</time></trkpt><trkpt lat="45.69205558069087" lon="8.466569463271666"><ele>304.0</ele><time>2026-04-06T13:34:13.966Z</time></trkpt><trkpt lat="45.691996844543056" lon="8.4664311770485"><ele>304.0</ele><time>2026-04-06T13:34:14.966Z</time></trkpt><trkpt lat="45.69193946775569" lon="8.466287641527224"><ele>304.0</ele><time>2026-04-06T13:34:15.966Z</time></trkpt><trkpt lat="45.69188665141708" lon="8.46613997347466"><ele>303.8</ele><time>2026-04-06T13:34:16.966Z</time></trkpt><trkpt lat="45.691842734488745" lon="8.465985988227137"><ele>303.59999999999997</ele><time>2026-04-06T13:34:17.966Z</time></trkpt><trkpt lat="45.69182083618304" lon="8.4658259403259"><ele>303.4</ele><time>2026-04-06T13:34:18.966Z</time></trkpt><trkpt lat="45.69181183746643" lon="8.465667739265"><ele>303.2</ele><time>2026-04-06T13:34:19.966Z</time></trkpt><trkpt lat="45.69181378846972" lon="8.465517162987462"><ele>303.0</ele><time>2026-04-06T13:34:20.966Z</time></trkpt><trkpt lat="45.691820780799496" lon="8.465379719846789"><ele>303.0</ele><time>2026-04-06T13:34:21.966Z</time></trkpt><trkpt lat="45.69183604436233" lon="8.465253221339397"><ele>303.0</ele><time>2026-04-06T13:34:22.966Z</time></trkpt><trkpt lat="45.69185916423397" lon="8.465134982104386"><ele>303.0</ele><time>2026-04-06T13:34:23.966Z</time></trkpt><trkpt lat="45.69188871797801" lon="8.46502896230145"><ele>303.0</ele><time>2026-04-06T13:34:24.966Z</time></trkpt><trkpt lat="45.69191355977001" lon="8.464932142665875"><ele>303.0</ele><time>2026-04-06T13:34:25.966Z</time></trkpt><trkpt lat="45.691897958575815" lon="8.464748626123166"><ele>303.0</ele><time>2026-04-06T13:34:27.966Z</time></trkpt><trkpt lat="45.69182980572614" lon="8.464712560724346"><ele>303.0</ele><time>2026-04-06T13:34:28.966Z</time></trkpt><trkpt lat="45.69175935451176" lon="8.464689747190908"><ele>303.0</ele><time>2026-04-06T13:34:29.966Z</time></trkpt><trkpt lat="45.69168240339817" lon="8.464661376450314"><ele>303.0</ele><time>2026-04-06T13:34:30.966Z</time></trkpt><trkpt lat="45.69160360477702" lon="8.464602242194692"><ele>303.0</ele><time>2026-04-06T13:34:31.966Z</time></trkpt><trkpt lat="45.69152061349473" lon="8.46453153635899"><ele>303.0</ele><time>2026-04-06T13:34:32.968Z</time></trkpt><trkpt lat="45.69143469294464" lon="8.46444964514749"><ele>303.0</ele><time>2026-04-06T13:34:33.968Z</time></trkpt><trkpt lat="45.69134826044821" lon="8.464345183418782"><ele>303.0</ele><time>2026-04-06T13:34:34.968Z</time></trkpt><trkpt lat="45.69126626849095" lon="8.464245297362385"><ele>303.0</ele><time>2026-04-06T13:34:35.968Z</time></trkpt><trkpt lat="45.69118693156994" lon="8.46414647856711"><ele>303.0</ele><time>2026-04-06T13:34:36.968Z</time></trkpt><trkpt lat="45.69109989473268" lon="8.464036096357344"><ele>303.0</ele><time>2026-04-06T13:34:37.968Z</time></trkpt><trkpt lat="45.69100249147348" lon="8.463917151191595"><ele>303.0</ele><time>2026-04-06T13:34:38.967Z</time></trkpt><trkpt lat="45.690902441930156" lon="8.463788674154145"><ele>303.0</ele><time>2026-04-06T13:34:39.968Z</time></trkpt><trkpt lat="45.69079438209497" lon="8.463653830716646"><ele>303.0</ele><time>2026-04-06T13:34:40.968Z</time></trkpt><trkpt lat="45.69069201830199" lon="8.463517474138738"><ele>303.0</ele><time>2026-04-06T13:34:41.968Z</time></trkpt><trkpt lat="45.69059147439159" lon="8.463381899611216"><ele>302.75</ele><time>2026-04-06T13:34:42.968Z</time></trkpt><trkpt lat="45.69048620226045" lon="8.46324017883291"><ele>302.5</ele><time>2026-04-06T13:34:43.968Z</time></trkpt><trkpt lat="45.69038041810283" lon="8.463091979097788"><ele>302.25</ele><time>2026-04-06T13:34:44.968Z</time></trkpt><trkpt lat="45.69028423949106" lon="8.462926552868492"><ele>302.0</ele><time>2026-04-06T13:34:45.967Z</time></trkpt><trkpt lat="45.69019479688973" lon="8.462745492300867"><ele>301.6666666666667</ele><time>2026-04-06T13:34:46.967Z</time></trkpt><trkpt lat="45.690112494033144" lon="8.462556695481146"><ele>301.3333333333333</ele><time>2026-04-06T13:34:47.967Z</time></trkpt><trkpt lat="45.69004581452249" lon="8.462349081700626"><ele>301.0</ele><time>2026-04-06T13:34:48.967Z</time></trkpt><trkpt lat="45.68998251474164" lon="8.462132633515509"><ele>300.66666666666663</ele><time>2026-04-06T13:34:49.967Z</time></trkpt><trkpt lat="45.68993072747646" lon="8.461907426725046"><ele>300.3333333333333</ele><time>2026-04-06T13:34:50.967Z</time></trkpt><trkpt lat="45.68989310817262" lon="8.461686017913243"><ele>300.0</ele><time>2026-04-06T13:34:51.967Z</time></trkpt><trkpt lat="45.68986636823237" lon="8.461466275202794"><ele>300.6666666666667</ele><time>2026-04-06T13:34:52.967Z</time></trkpt><trkpt lat="45.68983914730596" lon="8.461249163433656"><ele>301.33333333333337</ele><time>2026-04-06T13:34:53.967Z</time></trkpt><trkpt lat="45.6898108133713" lon="8.461025620611867"><ele>302.0</ele><time>2026-04-06T13:34:54.967Z</time></trkpt><trkpt lat="45.689781525068824" lon="8.460795548692383"><ele>302.0</ele><time>2026-04-06T13:34:55.967Z</time></trkpt><trkpt lat="45.689749845299296" lon="8.460564920298633"><ele>302.0</ele><time>2026-04-06T13:34:56.967Z</time></trkpt><trkpt lat="45.68971707013641" lon="8.460336895287217"><ele>302.0</ele><time>2026-04-06T13:34:57.967Z</time></trkpt><trkpt lat="45.689689497075754" lon="8.460106587585777"><ele>302.0</ele><time>2026-04-06T13:34:58.967Z</time></trkpt><trkpt lat="45.68966763687942" lon="8.459871762931861"><ele>302.0</ele><time>2026-04-06T13:34:59.967Z</time></trkpt><trkpt lat="45.68964145213432" lon="8.45963982356559"><ele>302.0</ele><time>2026-04-06T13:35:00.967Z</time></trkpt><trkpt lat="45.689612257748685" lon="8.459410112215014"><ele>302.0</ele><time>2026-04-06T13:35:01.967Z</time></trkpt><trkpt lat="45.68957171276165" lon="8.459188490620077"><ele>302.0</ele><time>2026-04-06T13:35:02.967Z</time></trkpt><trkpt lat="45.68951960942763" lon="8.458981846386484"><ele>302.0</ele><time>2026-04-06T13:35:03.967Z</time></trkpt><trkpt lat="45.689462040063965" lon="8.458780732326662"><ele>302.0</ele><time>2026-04-06T13:35:04.967Z</time></trkpt><trkpt lat="45.689400749265786" lon="8.458588311376328"><ele>302.0</ele><time>2026-04-06T13:35:05.967Z</time></trkpt><trkpt lat="45.68934342037435" lon="8.458400481474728"><ele>302.0</ele><time>2026-04-06T13:35:06.967Z</time></trkpt><trkpt lat="45.68929521128002" lon="8.458217607136493"><ele>302.0</ele><time>2026-04-06T13:35:07.967Z</time></trkpt><trkpt lat="45.689249327087865" lon="8.458047394878804"><ele>302.1666666666667</ele><time>2026-04-06T13:35:08.967Z</time></trkpt><trkpt lat="45.689202914128785" lon="8.457905859296734"><ele>302.33333333333337</ele><time>2026-04-06T13:35:09.967Z</time></trkpt><trkpt lat="45.6891522652431" lon="8.457790472891654"><ele>302.5</ele><time>2026-04-06T13:35:10.967Z</time></trkpt><trkpt lat="45.68909930511418" lon="8.457697413011948"><ele>302.6666666666667</ele><time>2026-04-06T13:35:11.967Z</time></trkpt><trkpt lat="45.68906096503291" lon="8.45760184869343"><ele>302.8333333333333</ele><time>2026-04-06T13:35:12.967Z</time></trkpt><trkpt lat="45.689046161347584" lon="8.457504938813763"><ele>303.0</ele><time>2026-04-06T13:35:13.967Z</time></trkpt><trkpt lat="45.6890722428377" lon="8.457322260475184"><ele>303.0</ele><time>2026-04-06T13:35:15.967Z</time></trkpt><trkpt lat="45.689102498786745" lon="8.457158934456777"><ele>303.0</ele><time>2026-04-06T13:35:17.967Z</time></trkpt><trkpt lat="45.68911195656252" lon="8.457062458851464"><ele>303.0</ele><time>2026-04-06T13:35:20.967Z</time></trkpt><trkpt lat="45.68910014229967" lon="8.456971693321773"><ele>303.0</ele><time>2026-04-06T13:35:23.967Z</time></trkpt><trkpt lat="45.68912291089962" lon="8.456830188437864"><ele>303.0</ele><time>2026-04-06T13:35:25.967Z</time></trkpt><trkpt lat="45.68908723692376" lon="8.456700943803963"><ele>303.0</ele><time>2026-04-06T13:35:27.967Z</time></trkpt><trkpt lat="45.689000424756074" lon="8.45667949631406"><ele>303.3333333333333</ele><time>2026-04-06T13:35:29.967Z</time></trkpt><trkpt lat="45.688905966298904" lon="8.456768362070617"><ele>303.6666666666667</ele><time>2026-04-06T13:35:31.967Z</time></trkpt><trkpt lat="45.68885476081711" lon="8.456825147524036"><ele>304.0</ele><time>2026-04-06T13:35:32.967Z</time></trkpt><trkpt lat="45.68878924103986" lon="8.456857893357588"><ele>304.33333333333337</ele><time>2026-04-06T13:35:33.967Z</time></trkpt><trkpt lat="45.68871549863058" lon="8.456864815311869"><ele>304.6666666666667</ele><time>2026-04-06T13:35:34.967Z</time></trkpt><trkpt lat="45.688634261853494" lon="8.456859510921012"><ele>305.0</ele><time>2026-04-06T13:35:35.967Z</time></trkpt><trkpt lat="45.68855009704881" lon="8.45684589507395"><ele>305.2</ele><time>2026-04-06T13:35:36.967Z</time></trkpt><trkpt lat="45.688462897230835" lon="8.456831229487289"><ele>305.4</ele><time>2026-04-06T13:35:37.967Z</time></trkpt><trkpt lat="45.68837403284723" lon="8.456825662991372"><ele>305.6</ele><time>2026-04-06T13:35:38.967Z</time></trkpt><trkpt lat="45.68827264946483" lon="8.4568245098208"><ele>305.8</ele><time>2026-04-06T13:35:39.967Z</time></trkpt><trkpt lat="45.688174058342675" lon="8.456816901485475"><ele>306.0</ele><time>2026-04-06T13:35:40.966Z</time></trkpt><trkpt lat="45.6880828969537" lon="8.45680814271493"><ele>306.0</ele><time>2026-04-06T13:35:41.966Z</time></trkpt><trkpt lat="45.687965843315986" lon="8.456808609879433"><ele>306.0</ele><time>2026-04-06T13:35:42.966Z</time></trkpt><trkpt lat="45.6878424058086" lon="8.456801200040555"><ele>306.0</ele><time>2026-04-06T13:35:43.966Z</time></trkpt><trkpt lat="45.6877094030474" lon="8.456793058573444"><ele>306.0</ele><time>2026-04-06T13:35:44.966Z</time></trkpt><trkpt lat="45.68757366938866" lon="8.456788219238428"><ele>305.75</ele><time>2026-04-06T13:35:45.966Z</time></trkpt><trkpt lat="45.68743367574992" lon="8.456782216689632"><ele>305.5</ele><time>2026-04-06T13:35:46.966Z</time></trkpt><trkpt lat="45.687304236323875" lon="8.456773151955307"><ele>305.25</ele><time>2026-04-06T13:35:47.966Z</time></trkpt><trkpt lat="45.687175521470095" lon="8.456767228517473"><ele>305.0</ele><time>2026-04-06T13:35:48.966Z</time></trkpt><trkpt lat="45.68703692135925" lon="8.456759152723649"><ele>304.5</ele><time>2026-04-06T13:35:49.966Z</time></trkpt><trkpt lat="45.68690116134139" lon="8.45675158025318"><ele>304.0</ele><time>2026-04-06T13:35:50.966Z</time></trkpt><trkpt lat="45.68676786000878" lon="8.456746328997857"><ele>303.5</ele><time>2026-04-06T13:35:51.966Z</time></trkpt><trkpt lat="45.68664805732511" lon="8.456741521446116"><ele>303.0</ele><time>2026-04-06T13:35:52.966Z</time></trkpt><trkpt lat="45.68653587643628" lon="8.456735377340545"><ele>303.0</ele><time>2026-04-06T13:35:53.966Z</time></trkpt><trkpt lat="45.68642923699459" lon="8.456728925216218"><ele>303.0</ele><time>2026-04-06T13:35:54.966Z</time></trkpt><trkpt lat="45.68633019748768" lon="8.456721933597551"><ele>303.0</ele><time>2026-04-06T13:35:55.966Z</time></trkpt><trkpt lat="45.686239255666784" lon="8.456716965707704"><ele>303.0</ele><time>2026-04-06T13:35:56.966Z</time></trkpt><trkpt lat="45.68615387029397" lon="8.456713526252496"><ele>303.0</ele><time>2026-04-06T13:35:57.966Z</time></trkpt><trkpt lat="45.68607341269683" lon="8.456709873650022"><ele>303.0</ele><time>2026-04-06T13:35:58.966Z</time></trkpt><trkpt lat="45.6859902545861" lon="8.456702966839005"><ele>303.0</ele><time>2026-04-06T13:35:59.966Z</time></trkpt><trkpt lat="45.68589594694659" lon="8.456693463927799"><ele>303.0</ele><time>2026-04-06T13:36:00.966Z</time></trkpt><trkpt lat="45.68579222043962" lon="8.45668752778074"><ele>303.0</ele><time>2026-04-06T13:36:01.966Z</time></trkpt><trkpt lat="45.68568140229841" lon="8.45667912816281"><ele>303.0</ele><time>2026-04-06T13:36:02.966Z</time></trkpt><trkpt lat="45.685562533326205" lon="8.456676098910012"><ele>303.0</ele><time>2026-04-06T13:36:03.966Z</time></trkpt><trkpt lat="45.685433246405175" lon="8.456672280022334"><ele>303.0</ele><time>2026-04-06T13:36:04.966Z</time></trkpt><trkpt lat="45.685299429159144" lon="8.456659182768687"><ele>303.0</ele><time>2026-04-06T13:36:05.966Z</time></trkpt><trkpt lat="45.6851692014212" lon="8.456652226340031"><ele>303.0</ele><time>2026-04-06T13:36:06.966Z</time></trkpt><trkpt lat="45.685038547084524" lon="8.456647723850198"><ele>302.5</ele><time>2026-04-06T13:36:07.966Z</time></trkpt><trkpt lat="45.684907762359124" lon="8.456634865351951"><ele>302.0</ele><time>2026-04-06T13:36:08.966Z</time></trkpt><trkpt lat="45.684776326140174" lon="8.45662374449152"><ele>301.5</ele><time>2026-04-06T13:36:09.966Z</time></trkpt><trkpt lat="45.68465048250513" lon="8.456615415561084"><ele>301.0</ele><time>2026-04-06T13:36:10.966Z</time></trkpt><trkpt lat="45.684530863993324" lon="8.45660879953428"><ele>300.8333333333333</ele><time>2026-04-06T13:36:11.966Z</time></trkpt><trkpt lat="45.68441977644851" lon="8.456605223202633"><ele>300.66666666666663</ele><time>2026-04-06T13:36:12.966Z</time></trkpt><trkpt lat="45.68433169313804" lon="8.456595986977998"><ele>300.5</ele><time>2026-04-06T13:36:13.966Z</time></trkpt><trkpt lat="45.68426385796495" lon="8.456597107640905"><ele>300.3333333333333</ele><time>2026-04-06T13:36:14.966Z</time></trkpt><trkpt lat="45.684188891463506" lon="8.456594860595159"><ele>300.1666666666667</ele><time>2026-04-06T13:36:15.966Z</time></trkpt><trkpt lat="45.68410906335053" lon="8.456590037442"><ele>300.0</ele><time>2026-04-06T13:36:16.966Z</time></trkpt><trkpt lat="45.68402561803396" lon="8.456578258769294"><ele>300.0</ele><time>2026-04-06T13:36:17.966Z</time></trkpt><trkpt lat="45.683928774251996" lon="8.45657205870625"><ele>300.0</ele><time>2026-04-06T13:36:18.966Z</time></trkpt><trkpt lat="45.68382248241433" lon="8.456561094782614"><ele>300.0</ele><time>2026-04-06T13:36:19.966Z</time></trkpt><trkpt lat="45.683710242199425" lon="8.456549958569662"><ele>300.0</ele><time>2026-04-06T13:36:20.966Z</time></trkpt><trkpt lat="45.6835899116544" lon="8.456539706663415"><ele>300.0</ele><time>2026-04-06T13:36:21.966Z</time></trkpt><trkpt lat="45.68346871328352" lon="8.456532053394755"><ele>300.0</ele><time>2026-04-06T13:36:22.966Z</time></trkpt><trkpt lat="45.683345363034064" lon="8.456526612498475"><ele>300.0</ele><time>2026-04-06T13:36:23.966Z</time></trkpt><trkpt lat="45.68322400517654" lon="8.456515973812065"><ele>300.0</ele><time>2026-04-06T13:36:24.966Z</time></trkpt><trkpt lat="45.68310513865739" lon="8.456505809845039"><ele>300.0</ele><time>2026-04-06T13:36:25.966Z</time></trkpt><trkpt lat="45.682994429898216" lon="8.456495276703357"><ele>300.0</ele><time>2026-04-06T13:36:26.966Z</time></trkpt><trkpt lat="45.68287965278827" lon="8.456487425786301"><ele>300.0</ele><time>2026-04-06T13:36:27.966Z</time></trkpt><trkpt lat="45.68276289419422" lon="8.456477639537766"><ele>300.0</ele><time>2026-04-06T13:36:28.966Z</time></trkpt><trkpt lat="45.68263770609028" lon="8.456466110248096"><ele>300.0</ele><time>2026-04-06T13:36:29.966Z</time></trkpt><trkpt lat="45.68250276122411" lon="8.456456249427353"><ele>300.25</ele><time>2026-04-06T13:36:30.966Z</time></trkpt><trkpt lat="45.68236417280125" lon="8.456446292316848"><ele>300.5</ele><time>2026-04-06T13:36:31.966Z</time></trkpt><trkpt lat="45.68222160274635" lon="8.45643536964812"><ele>300.75</ele><time>2026-04-06T13:36:32.966Z</time></trkpt><trkpt lat="45.682075163377" lon="8.456426265891526"><ele>301.0</ele><time>2026-04-06T13:36:33.966Z</time></trkpt><trkpt lat="45.68192936113814" lon="8.456414489971833"><ele>301.0</ele><time>2026-04-06T13:36:34.966Z</time></trkpt><trkpt lat="45.68177829299276" lon="8.456403392884816"><ele>301.0</ele><time>2026-04-06T13:36:35.966Z</time></trkpt><trkpt lat="45.6816261650863" lon="8.456392266973571"><ele>301.0</ele><time>2026-04-06T13:36:36.966Z</time></trkpt><trkpt lat="45.68147436028709" lon="8.456382999174087"><ele>301.0</ele><time>2026-04-06T13:36:37.966Z</time></trkpt><trkpt lat="45.68132691895982" lon="8.45638109484833"><ele>301.0</ele><time>2026-04-06T13:36:38.967Z</time></trkpt><trkpt lat="45.68117942753682" lon="8.456368434798085"><ele>301.0</ele><time>2026-04-06T13:36:39.967Z</time></trkpt><trkpt lat="45.681038520631745" lon="8.456358994857133"><ele>301.0</ele><time>2026-04-06T13:36:40.967Z</time></trkpt><trkpt lat="45.68089954250273" lon="8.456347967287229"><ele>300.5</ele><time>2026-04-06T13:36:41.967Z</time></trkpt><trkpt lat="45.680767851160034" lon="8.456338345698482"><ele>300.0</ele><time>2026-04-06T13:36:42.967Z</time></trkpt><trkpt lat="45.68064325186058" lon="8.456330535380452"><ele>299.5</ele><time>2026-04-06T13:36:43.967Z</time></trkpt><trkpt lat="45.68052458169328" lon="8.456318951230548"><ele>299.0</ele><time>2026-04-06T13:36:44.967Z</time></trkpt><trkpt lat="45.680410657219994" lon="8.456311271919727"><ele>299.0</ele><time>2026-04-06T13:36:45.967Z</time></trkpt><trkpt lat="45.68030156029704" lon="8.456304841252605"><ele>299.0</ele><time>2026-04-06T13:36:46.967Z</time></trkpt><trkpt lat="45.68020099428486" lon="8.45629931856904"><ele>299.0</ele><time>2026-04-06T13:36:47.967Z</time></trkpt><trkpt lat="45.68010661092422" lon="8.456299840325041"><ele>299.0</ele><time>2026-04-06T13:36:48.967Z</time></trkpt><trkpt lat="45.68001712381812" lon="8.456296601982995"><ele>299.0</ele><time>2026-04-06T13:36:49.967Z</time></trkpt><trkpt lat="45.67992257518973" lon="8.45629012483573"><ele>298.75</ele><time>2026-04-06T13:36:50.967Z</time></trkpt><trkpt lat="45.67982055385993" lon="8.456290393409882"><ele>298.5</ele><time>2026-04-06T13:36:51.967Z</time></trkpt><trkpt lat="45.679707418856296" lon="8.456290988878163"><ele>298.25</ele><time>2026-04-06T13:36:52.967Z</time></trkpt><trkpt lat="45.679588633858245" lon="8.456282248152945"><ele>298.0</ele><time>2026-04-06T13:36:53.967Z</time></trkpt><trkpt lat="45.67947132851163" lon="8.45626929151847"><ele>297.75</ele><time>2026-04-06T13:36:54.967Z</time></trkpt><trkpt lat="45.679353154836086" lon="8.456262776093949"><ele>297.5</ele><time>2026-04-06T13:36:55.967Z</time></trkpt><trkpt lat="45.67923278268461" lon="8.456257709661788"><ele>297.25</ele><time>2026-04-06T13:36:56.967Z</time></trkpt><trkpt lat="45.6791117619794" lon="8.45625402395067"><ele>297.0</ele><time>2026-04-06T13:36:57.967Z</time></trkpt><trkpt lat="45.67899632352323" lon="8.456248809340293"><ele>297.0</ele><time>2026-04-06T13:36:58.967Z</time></trkpt><trkpt lat="45.6788825270058" lon="8.456244966291104"><ele>297.0</ele><time>2026-04-06T13:36:59.967Z</time></trkpt><trkpt lat="45.678771923328995" lon="8.456235511159266"><ele>297.0</ele><time>2026-04-06T13:37:00.967Z</time></trkpt><trkpt lat="45.678669823231516" lon="8.45619458403903"><ele>297.0</ele><time>2026-04-06T13:37:01.967Z</time></trkpt><trkpt lat="45.678577858263175" lon="8.456188833966026"><ele>297.0</ele><time>2026-04-06T13:37:02.967Z</time></trkpt><trkpt lat="45.67849453066304" lon="8.456182889195365"><ele>297.0</ele><time>2026-04-06T13:37:03.967Z</time></trkpt><trkpt lat="45.678410392019124" lon="8.456178315529051"><ele>297.0</ele><time>2026-04-06T13:37:04.967Z</time></trkpt><trkpt lat="45.678329133998645" lon="8.45617388194118"><ele>297.0</ele><time>2026-04-06T13:37:05.967Z</time></trkpt><trkpt lat="45.67825206097904" lon="8.45618576552686"><ele>297.0</ele><time>2026-04-06T13:37:06.967Z</time></trkpt><trkpt lat="45.67817077764726" lon="8.456182096889108"><ele>297.0</ele><time>2026-04-06T13:37:07.967Z</time></trkpt><trkpt lat="45.678085017651505" lon="8.456173008032962"><ele>297.0</ele><time>2026-04-06T13:37:08.967Z</time></trkpt><trkpt lat="45.67799347520584" lon="8.456169501111495"><ele>297.0</ele><time>2026-04-06T13:37:09.967Z</time></trkpt><trkpt lat="45.67790040078969" lon="8.45614559892253"><ele>297.0</ele><time>2026-04-06T13:37:10.967Z</time></trkpt><trkpt lat="45.677801471794076" lon="8.45613897582071"><ele>297.0</ele><time>2026-04-06T13:37:11.967Z</time></trkpt><trkpt lat="45.677693645737975" lon="8.456131549815646"><ele>297.0</ele><time>2026-04-06T13:37:12.967Z</time></trkpt><trkpt lat="45.67755856922889" lon="8.45612228071912"><ele>297.0</ele><time>2026-04-06T13:37:13.967Z</time></trkpt><trkpt lat="45.67740701359066" lon="8.45611187858104"><ele>296.6666666666667</ele><time>2026-04-06T13:37:14.967Z</time></trkpt><trkpt lat="45.677253950996274" lon="8.456101373001049"><ele>296.33333333333337</ele><time>2026-04-06T13:37:15.967Z</time></trkpt><trkpt lat="45.67709768572824" lon="8.45609042388799"><ele>296.0</ele><time>2026-04-06T13:37:16.967Z</time></trkpt><trkpt lat="45.67694592845456" lon="8.456101644299885"><ele>296.0</ele><time>2026-04-06T13:37:17.967Z</time></trkpt><trkpt lat="45.67678477155628" lon="8.456067685213075"><ele>296.0</ele><time>2026-04-06T13:37:18.967Z</time></trkpt><trkpt lat="45.67660945268007" lon="8.456055086035253"><ele>296.0</ele><time>2026-04-06T13:37:19.967Z</time></trkpt><trkpt lat="45.676431592597986" lon="8.456029077443356"><ele>296.0</ele><time>2026-04-06T13:37:20.967Z</time></trkpt><trkpt lat="45.67624724583124" lon="8.456012702104328"><ele>296.0</ele><time>2026-04-06T13:37:21.967Z</time></trkpt><trkpt lat="45.67605534026831" lon="8.456003406072323"><ele>296.0</ele><time>2026-04-06T13:37:22.967Z</time></trkpt><trkpt lat="45.67587164994692" lon="8.455986474356557"><ele>295.6666666666667</ele><time>2026-04-06T13:37:23.966Z</time></trkpt><trkpt lat="45.6756969596531" lon="8.455972782037334"><ele>295.3333333333333</ele><time>2026-04-06T13:37:24.966Z</time></trkpt><trkpt lat="45.675527543537925" lon="8.455963053512642"><ele>295.0</ele><time>2026-04-06T13:37:25.966Z</time></trkpt><trkpt lat="45.67536073371423" lon="8.45594815815324"><ele>295.0</ele><time>2026-04-06T13:37:26.966Z</time></trkpt><trkpt lat="45.675201178232825" lon="8.45594117357915"><ele>295.0</ele><time>2026-04-06T13:37:27.966Z</time></trkpt><trkpt lat="45.67505493269722" lon="8.455931686497163"><ele>295.0</ele><time>2026-04-06T13:37:28.966Z</time></trkpt><trkpt lat="45.674916443681695" lon="8.455924889202361"><ele>295.0</ele><time>2026-04-06T13:37:29.966Z</time></trkpt><trkpt lat="45.67478624619335" lon="8.455920480553551"><ele>295.0</ele><time>2026-04-06T13:37:30.966Z</time></trkpt><trkpt lat="45.6746690377521" lon="8.455914560497698"><ele>295.0</ele><time>2026-04-06T13:37:31.966Z</time></trkpt><trkpt lat="45.674567397446154" lon="8.455901485404555"><ele>295.0</ele><time>2026-04-06T13:37:32.966Z</time></trkpt><trkpt lat="45.67447368964105" lon="8.455887947523514"><ele>295.0</ele><time>2026-04-06T13:37:33.966Z</time></trkpt><trkpt lat="45.674393024101" lon="8.455876276801806"><ele>295.0</ele><time>2026-04-06T13:37:34.966Z</time></trkpt><trkpt lat="45.67431665583821" lon="8.45585017559385"><ele>295.0</ele><time>2026-04-06T13:37:35.966Z</time></trkpt><trkpt lat="45.67424137422681" lon="8.455837568015344"><ele>295.0</ele><time>2026-04-06T13:37:36.966Z</time></trkpt><trkpt lat="45.67416557390691" lon="8.455851512312991"><ele>295.0</ele><time>2026-04-06T13:37:37.966Z</time></trkpt><trkpt lat="45.67407767811863" lon="8.455864881799481"><ele>295.0</ele><time>2026-04-06T13:37:38.966Z</time></trkpt><trkpt lat="45.67397467516824" lon="8.455867103713441"><ele>295.0</ele><time>2026-04-06T13:37:39.966Z</time></trkpt><trkpt lat="45.673855547817766" lon="8.455862627468168"><ele>295.0</ele><time>2026-04-06T13:37:40.966Z</time></trkpt><trkpt lat="45.67372451189233" lon="8.455858818272393"><ele>295.0</ele><time>2026-04-06T13:37:41.966Z</time></trkpt><trkpt lat="45.67358382391979" lon="8.455856855130357"><ele>295.0</ele><time>2026-04-06T13:37:42.966Z</time></trkpt><trkpt lat="45.67343908799026" lon="8.455835256649733"><ele>295.0</ele><time>2026-04-06T13:37:43.966Z</time></trkpt><trkpt lat="45.67328698451929" lon="8.455822932594145"><ele>295.0</ele><time>2026-04-06T13:37:44.966Z</time></trkpt><trkpt lat="45.67312838337516" lon="8.455809128841658"><ele>295.0</ele><time>2026-04-06T13:37:45.966Z</time></trkpt><trkpt lat="45.67296461176419" lon="8.455789937958933"><ele>295.0</ele><time>2026-04-06T13:37:46.966Z</time></trkpt><trkpt lat="45.67279705392719" lon="8.455762707440021"><ele>294.66666666666663</ele><time>2026-04-06T13:37:47.966Z</time></trkpt><trkpt lat="45.67263818932007" lon="8.455701331819617"><ele>294.3333333333333</ele><time>2026-04-06T13:37:48.966Z</time></trkpt><trkpt lat="45.672488489644486" lon="8.455638738959486"><ele>294.0</ele><time>2026-04-06T13:37:49.966Z</time></trkpt><trkpt lat="45.67233370226853" lon="8.455564912518877"><ele>294.0</ele><time>2026-04-06T13:37:50.966Z</time></trkpt><trkpt lat="45.672177456408384" lon="8.45547690552404"><ele>294.0</ele><time>2026-04-06T13:37:51.966Z</time></trkpt><trkpt lat="45.672020557742414" lon="8.455371215790661"><ele>294.0</ele><time>2026-04-06T13:37:52.966Z</time></trkpt><trkpt lat="45.67185990766906" lon="8.455251439831494"><ele>294.0</ele><time>2026-04-06T13:37:53.966Z</time></trkpt><trkpt lat="45.67169511181308" lon="8.455121661251468"><ele>294.0</ele><time>2026-04-06T13:37:54.966Z</time></trkpt><trkpt lat="45.67152757080677" lon="8.454989720703654"><ele>294.0</ele><time>2026-04-06T13:37:55.966Z</time></trkpt><trkpt lat="45.671352220428986" lon="8.454852144448237"><ele>294.0</ele><time>2026-04-06T13:37:56.966Z</time></trkpt><trkpt lat="45.67116030526321" lon="8.454725950345875"><ele>294.0</ele><time>2026-04-06T13:37:57.966Z</time></trkpt><trkpt lat="45.670987103846755" lon="8.454544324986596"><ele>294.0</ele><time>2026-04-06T13:37:58.966Z</time></trkpt><trkpt lat="45.670801056319334" lon="8.454375967772728"><ele>294.5</ele><time>2026-04-06T13:37:59.966Z</time></trkpt><trkpt lat="45.670602464341385" lon="8.454207140108934"><ele>295.0</ele><time>2026-04-06T13:38:00.966Z</time></trkpt><trkpt lat="45.670387517248976" lon="8.454041829767345"><ele>294.5</ele><time>2026-04-06T13:38:01.966Z</time></trkpt><trkpt lat="45.67017388416517" lon="8.4538925163622"><ele>294.0</ele><time>2026-04-06T13:38:02.966Z</time></trkpt><trkpt lat="45.66997182639598" lon="8.453737282641386"><ele>294.0</ele><time>2026-04-06T13:38:03.966Z</time></trkpt><trkpt lat="45.66976818810166" lon="8.453582456445474"><ele>294.0</ele><time>2026-04-06T13:38:04.966Z</time></trkpt><trkpt lat="45.66956910181879" lon="8.453420919350544"><ele>295.0</ele><time>2026-04-06T13:38:05.966Z</time></trkpt><trkpt lat="45.66937183072425" lon="8.453257770831634"><ele>296.0</ele><time>2026-04-06T13:38:06.966Z</time></trkpt><trkpt lat="45.66917493109877" lon="8.45309837559497"><ele>295.6666666666667</ele><time>2026-04-06T13:38:07.966Z</time></trkpt><trkpt lat="45.66898978956335" lon="8.4529491815848"><ele>295.3333333333333</ele><time>2026-04-06T13:38:08.966Z</time></trkpt><trkpt lat="45.66881075055409" lon="8.452810422550995"><ele>295.0</ele><time>2026-04-06T13:38:09.966Z</time></trkpt><trkpt lat="45.66864701135219" lon="8.45267779356098"><ele>295.66666666666663</ele><time>2026-04-06T13:38:10.966Z</time></trkpt><trkpt lat="45.66849839964005" lon="8.452551884404242"><ele>296.3333333333333</ele><time>2026-04-06T13:38:11.966Z</time></trkpt><trkpt lat="45.66835786285296" lon="8.452419611969184"><ele>297.0</ele><time>2026-04-06T13:38:12.966Z</time></trkpt><trkpt lat="45.66823935823137" lon="8.452255266460043"><ele>297.6666666666667</ele><time>2026-04-06T13:38:13.966Z</time></trkpt><trkpt lat="45.668152140246114" lon="8.452055836833877"><ele>298.33333333333337</ele><time>2026-04-06T13:38:14.966Z</time></trkpt><trkpt lat="45.668084572541204" lon="8.451831726649068"><ele>299.0</ele><time>2026-04-06T13:38:15.966Z</time></trkpt><trkpt lat="45.66803854239228" lon="8.451590587452444"><ele>299.0</ele><time>2026-04-06T13:38:16.966Z</time></trkpt><trkpt lat="45.66802634533988" lon="8.451333935944175"><ele>299.0</ele><time>2026-04-06T13:38:17.966Z</time></trkpt><trkpt lat="45.66805531855452" lon="8.451064310577724"><ele>299.0</ele><time>2026-04-06T13:38:18.966Z</time></trkpt><trkpt lat="45.668108039364995" lon="8.450793239607567"><ele>300.6666666666667</ele><time>2026-04-06T13:38:19.966Z</time></trkpt><trkpt lat="45.668194269319315" lon="8.450524062647512"><ele>302.3333333333333</ele><time>2026-04-06T13:38:20.966Z</time></trkpt><trkpt lat="45.66829995122618" lon="8.45025449544295"><ele>304.0</ele><time>2026-04-06T13:38:21.966Z</time></trkpt><trkpt lat="45.66839766185526" lon="8.449964617403044"><ele>306.0</ele><time>2026-04-06T13:38:22.966Z</time></trkpt><trkpt lat="45.668496872397476" lon="8.4496760388504"><ele>308.0</ele><time>2026-04-06T13:38:23.965Z</time></trkpt><trkpt lat="45.668592589276464" lon="8.449402365300534"><ele>310.0</ele><time>2026-04-06T13:38:24.965Z</time></trkpt><trkpt lat="45.66868454311479" lon="8.449125885296278"><ele>311.3333333333333</ele><time>2026-04-06T13:38:25.965Z</time></trkpt><trkpt lat="45.66877868166061" lon="8.448850836316527"><ele>312.6666666666667</ele><time>2026-04-06T13:38:26.965Z</time></trkpt><trkpt lat="45.668875405895655" lon="8.448573508259626"><ele>314.0</ele><time>2026-04-06T13:38:27.965Z</time></trkpt><trkpt lat="45.66897181671239" lon="8.448291521495708"><ele>315.6666666666667</ele><time>2026-04-06T13:38:28.965Z</time></trkpt><trkpt lat="45.66906954425357" lon="8.448011300772576"><ele>317.3333333333333</ele><time>2026-04-06T13:38:29.965Z</time></trkpt><trkpt lat="45.66916244671004" lon="8.447736618447562"><ele>319.0</ele><time>2026-04-06T13:38:30.965Z</time></trkpt><trkpt lat="45.66925259310098" lon="8.447463191016688"><ele>321.66666666666663</ele><time>2026-04-06T13:38:31.965Z</time></trkpt><trkpt lat="45.66934311725212" lon="8.44720579089739"><ele>324.3333333333333</ele><time>2026-04-06T13:38:32.965Z</time></trkpt><trkpt lat="45.669429602352935" lon="8.446966074449"><ele>327.0</ele><time>2026-04-06T13:38:33.965Z</time></trkpt><trkpt lat="45.669509673640285" lon="8.44674549315435"><ele>327.0</ele><time>2026-04-06T13:38:34.965Z</time></trkpt><trkpt lat="45.66958063491927" lon="8.446542336722096"><ele>327.0</ele><time>2026-04-06T13:38:35.965Z</time></trkpt><trkpt lat="45.669634301367765" lon="8.446345356507877"><ele>327.0</ele><time>2026-04-06T13:38:36.965Z</time></trkpt><trkpt lat="45.669661161213554" lon="8.446135017565716"><ele>330.3333333333333</ele><time>2026-04-06T13:38:37.965Z</time></trkpt><trkpt lat="45.66965041763596" lon="8.445903931710815"><ele>333.66666666666663</ele><time>2026-04-06T13:38:38.965Z</time></trkpt><trkpt lat="45.669593380886056" lon="8.445676438596387"><ele>337.0</ele><time>2026-04-06T13:38:39.965Z</time></trkpt><trkpt lat="45.66949739550742" lon="8.445463166236863"><ele>336.66666666666663</ele><time>2026-04-06T13:38:40.965Z</time></trkpt><trkpt lat="45.66937143168544" lon="8.445292491808942"><ele>336.3333333333333</ele><time>2026-04-06T13:38:41.965Z</time></trkpt><trkpt lat="45.66922033734574" lon="8.445172788030133"><ele>336.0</ele><time>2026-04-06T13:38:42.965Z</time></trkpt><trkpt lat="45.66904949616886" lon="8.445112379011027"><ele>336.0</ele><time>2026-04-06T13:38:43.965Z</time></trkpt><trkpt lat="45.668866565313984" lon="8.445119130288074"><ele>336.0</ele><time>2026-04-06T13:38:44.967Z</time></trkpt><trkpt lat="45.6686734791853" lon="8.445137667335132"><ele>336.0</ele><time>2026-04-06T13:38:45.968Z</time></trkpt><trkpt lat="45.66847107905447" lon="8.4451682730394"><ele>335.6666666666667</ele><time>2026-04-06T13:38:46.968Z</time></trkpt><trkpt lat="45.66825712148412" lon="8.445198082076558"><ele>335.33333333333337</ele><time>2026-04-06T13:38:47.967Z</time></trkpt><trkpt lat="45.668033314813535" lon="8.445224487361129"><ele>335.0</ele><time>2026-04-06T13:38:48.967Z</time></trkpt><trkpt lat="45.66781674047143" lon="8.445240164184044"><ele>337.6666666666667</ele><time>2026-04-06T13:38:49.967Z</time></trkpt><trkpt lat="45.66762073000145" lon="8.445261973639695"><ele>340.3333333333333</ele><time>2026-04-06T13:38:50.967Z</time></trkpt><trkpt lat="45.66744299531027" lon="8.445290077854267"><ele>343.0</ele><time>2026-04-06T13:38:51.967Z</time></trkpt><trkpt lat="45.66728172696129" lon="8.445296506651063"><ele>343.0</ele><time>2026-04-06T13:38:52.967Z</time></trkpt><trkpt lat="45.66712937726892" lon="8.445275200571775"><ele>343.0</ele><time>2026-04-06T13:38:53.967Z</time></trkpt><trkpt lat="45.66697245065362" lon="8.44522926997494"><ele>343.0</ele><time>2026-04-06T13:38:54.967Z</time></trkpt><trkpt lat="45.6668111487962" lon="8.445160914512456"><ele>344.66666666666663</ele><time>2026-04-06T13:38:55.967Z</time></trkpt><trkpt lat="45.66665882517177" lon="8.445061681557407"><ele>346.3333333333333</ele><time>2026-04-06T13:38:56.967Z</time></trkpt><trkpt lat="45.66652323449024" lon="8.44493078737859"><ele>348.0</ele><time>2026-04-06T13:38:57.968Z</time></trkpt><trkpt lat="45.66640864236923" lon="8.444774446686987"><ele>347.6666666666667</ele><time>2026-04-06T13:38:58.968Z</time></trkpt><trkpt lat="45.66630449563129" lon="8.444603133900149"><ele>347.33333333333337</ele><time>2026-04-06T13:38:59.968Z</time></trkpt><trkpt lat="45.666203178852484" lon="8.444436920528386"><ele>347.0</ele><time>2026-04-06T13:39:00.968Z</time></trkpt><trkpt lat="45.666103178863665" lon="8.444278700190123"><ele>347.0</ele><time>2026-04-06T13:39:01.967Z</time></trkpt><trkpt lat="45.66601099831077" lon="8.444140103761093"><ele>347.0</ele><time>2026-04-06T13:39:02.967Z</time></trkpt><trkpt lat="45.66594279594646" lon="8.444029609597871"><ele>347.0</ele><time>2026-04-06T13:39:03.967Z</time></trkpt><trkpt lat="45.66589682256331" lon="8.443936934066409"><ele>347.0</ele><time>2026-04-06T13:39:04.967Z</time></trkpt><trkpt lat="45.665869352697236" lon="8.443846336156874"><ele>347.0</ele><time>2026-04-06T13:39:05.967Z</time></trkpt><trkpt lat="45.6658513046715" lon="8.443752934451682"><ele>347.0</ele><time>2026-04-06T13:39:06.967Z</time></trkpt><trkpt lat="45.66581206238399" lon="8.44367042605994"><ele>347.0</ele><time>2026-04-06T13:39:07.967Z</time></trkpt><trkpt lat="45.66573962575203" lon="8.443598913722646"><ele>347.0</ele><time>2026-04-06T13:39:08.967Z</time></trkpt><trkpt lat="45.665659734790715" lon="8.443523665297247"><ele>347.0</ele><time>2026-04-06T13:39:09.967Z</time></trkpt><trkpt lat="45.66557525823292" lon="8.443423546587004"><ele>347.0</ele><time>2026-04-06T13:39:10.967Z</time></trkpt><trkpt lat="45.66549118864626" lon="8.443290561761449"><ele>347.0</ele><time>2026-04-06T13:39:11.967Z</time></trkpt><trkpt lat="45.665408569278895" lon="8.443122262836583"><ele>347.0</ele><time>2026-04-06T13:39:12.967Z</time></trkpt><trkpt lat="45.665313710368686" lon="8.442960587977915"><ele>347.0</ele><time>2026-04-06T13:39:13.967Z</time></trkpt><trkpt lat="45.66522066247908" lon="8.44280583024494"><ele>347.0</ele><time>2026-04-06T13:39:14.967Z</time></trkpt><trkpt lat="45.665122952693665" lon="8.44264074436578"><ele>346.33333333333337</ele><time>2026-04-06T13:39:15.967Z</time></trkpt><trkpt lat="45.66501946794243" lon="8.44246884584317"><ele>345.6666666666667</ele><time>2026-04-06T13:39:16.967Z</time></trkpt><trkpt lat="45.664908774539676" lon="8.442294061323373"><ele>345.0</ele><time>2026-04-06T13:39:17.967Z</time></trkpt><trkpt lat="45.664794955748775" lon="8.442109398808327"><ele>345.0</ele><time>2026-04-06T13:39:18.967Z</time></trkpt><trkpt lat="45.6646773904478" lon="8.441913091440286"><ele>345.0</ele><time>2026-04-06T13:39:19.967Z</time></trkpt><trkpt lat="45.66455609761407" lon="8.441712370302046"><ele>345.0</ele><time>2026-04-06T13:39:20.967Z</time></trkpt><trkpt lat="45.66442759931428" lon="8.441503012376339"><ele>346.0</ele><time>2026-04-06T13:39:21.967Z</time></trkpt><trkpt lat="45.66429243606699" lon="8.44128334959153"><ele>347.0</ele><time>2026-04-06T13:39:22.967Z</time></trkpt><trkpt lat="45.66415607272653" lon="8.441055437282095"><ele>348.0</ele><time>2026-04-06T13:39:23.967Z</time></trkpt><trkpt lat="45.66402306222236" lon="8.440839432354347"><ele>348.0</ele><time>2026-04-06T13:39:24.967Z</time></trkpt><trkpt lat="45.66389128142458" lon="8.440632856326236"><ele>348.0</ele><time>2026-04-06T13:39:25.967Z</time></trkpt><trkpt lat="45.663758649877515" lon="8.440425382686227"><ele>348.0</ele><time>2026-04-06T13:39:26.967Z</time></trkpt><trkpt lat="45.663626234410636" lon="8.440213273079957"><ele>348.0</ele><time>2026-04-06T13:39:27.967Z</time></trkpt><trkpt lat="45.6634939903164" lon="8.439995894068224"><ele>348.0</ele><time>2026-04-06T13:39:28.967Z</time></trkpt><trkpt lat="45.66336046383866" lon="8.439774499757021"><ele>348.0</ele><time>2026-04-06T13:39:29.967Z</time></trkpt><trkpt lat="45.66322594108344" lon="8.439549009036977"><ele>348.0</ele><time>2026-04-06T13:39:30.967Z</time></trkpt><trkpt lat="45.66309000898033" lon="8.439321168226131"><ele>348.0</ele><time>2026-04-06T13:39:31.967Z</time></trkpt><trkpt lat="45.662952055151585" lon="8.43909827612828"><ele>348.0</ele><time>2026-04-06T13:39:32.967Z</time></trkpt><trkpt lat="45.66281722641116" lon="8.438873667321555"><ele>348.3333333333333</ele><time>2026-04-06T13:39:33.967Z</time></trkpt><trkpt lat="45.6626818787363" lon="8.438649862381835"><ele>348.66666666666663</ele><time>2026-04-06T13:39:34.967Z</time></trkpt><trkpt lat="45.66254847797879" lon="8.438424003209791"><ele>349.0</ele><time>2026-04-06T13:39:35.967Z</time></trkpt><trkpt lat="45.66241657569473" lon="8.438199087589398"><ele>349.0</ele><time>2026-04-06T13:39:36.967Z</time></trkpt><trkpt lat="45.66228524410246" lon="8.437979512421274"><ele>349.0</ele><time>2026-04-06T13:39:37.967Z</time></trkpt><trkpt lat="45.662153422390745" lon="8.437764345291892"><ele>349.0</ele><time>2026-04-06T13:39:38.967Z</time></trkpt><trkpt lat="45.662027398290284" lon="8.437554990208394"><ele>348.66666666666663</ele><time>2026-04-06T13:39:39.967Z</time></trkpt><trkpt lat="45.66190591218307" lon="8.437354503290619"><ele>348.3333333333333</ele><time>2026-04-06T13:39:40.967Z</time></trkpt><trkpt lat="45.661782157891096" lon="8.437159935343319"><ele>348.0</ele><time>2026-04-06T13:39:41.967Z</time></trkpt><trkpt lat="45.66166370364799" lon="8.43697046543243"><ele>347.3333333333333</ele><time>2026-04-06T13:39:42.967Z</time></trkpt><trkpt lat="45.66154601115729" lon="8.436782970481945"><ele>346.66666666666663</ele><time>2026-04-06T13:39:43.967Z</time></trkpt><trkpt lat="45.66143132410402" lon="8.43659553436512"><ele>346.0</ele><time>2026-04-06T13:39:44.967Z</time></trkpt><trkpt lat="45.66131894552899" lon="8.43640989094234"><ele>346.0</ele><time>2026-04-06T13:39:45.967Z</time></trkpt><trkpt lat="45.66120650674056" lon="8.436224479711308"><ele>346.0</ele><time>2026-04-06T13:39:46.967Z</time></trkpt><trkpt lat="45.661089078507416" lon="8.43603496153301"><ele>346.0</ele><time>2026-04-06T13:39:47.967Z</time></trkpt><trkpt lat="45.660971101985666" lon="8.435842962575498"><ele>346.0</ele><time>2026-04-06T13:39:48.967Z</time></trkpt><trkpt lat="45.66085398492262" lon="8.43564733203388"><ele>346.0</ele><time>2026-04-06T13:39:49.967Z</time></trkpt><trkpt lat="45.660735163565725" lon="8.435455743391907"><ele>346.0</ele><time>2026-04-06T13:39:50.967Z</time></trkpt><trkpt lat="45.66061725327114" lon="8.435261986380347"><ele>345.3333333333333</ele><time>2026-04-06T13:39:51.967Z</time></trkpt><trkpt lat="45.66049960412247" lon="8.435064785339495"><ele>344.6666666666667</ele><time>2026-04-06T13:39:52.967Z</time></trkpt><trkpt lat="45.66038346049485" lon="8.43486568790922"><ele>344.0</ele><time>2026-04-06T13:39:53.967Z</time></trkpt><trkpt lat="45.66026831840842" lon="8.434665014735012"><ele>344.0</ele><time>2026-04-06T13:39:54.967Z</time></trkpt><trkpt lat="45.66014802275319" lon="8.434460924049526"><ele>344.0</ele><time>2026-04-06T13:39:55.967Z</time></trkpt><trkpt lat="45.66002466798879" lon="8.434258268570865"><ele>344.0</ele><time>2026-04-06T13:39:56.967Z</time></trkpt><trkpt lat="45.65990118785799" lon="8.434058220484193"><ele>344.0</ele><time>2026-04-06T13:39:57.967Z</time></trkpt><trkpt lat="45.65977805469077" lon="8.433855441710827"><ele>344.0</ele><time>2026-04-06T13:39:58.967Z</time></trkpt><trkpt lat="45.65965124240639" lon="8.433648797701085"><ele>344.0</ele><time>2026-04-06T13:39:59.967Z</time></trkpt><trkpt lat="45.659524264579375" lon="8.433446564179562"><ele>344.0</ele><time>2026-04-06T13:40:00.967Z</time></trkpt><trkpt lat="45.6593922127015" lon="8.433245864197685"><ele>344.0</ele><time>2026-04-06T13:40:01.966Z</time></trkpt><trkpt lat="45.65926134731571" lon="8.433042348423832"><ele>344.0</ele><time>2026-04-06T13:40:02.966Z</time></trkpt><trkpt lat="45.659128792303626" lon="8.432831806607457"><ele>344.0</ele><time>2026-04-06T13:40:03.966Z</time></trkpt><trkpt lat="45.658998338573305" lon="8.432615975084342"><ele>344.0</ele><time>2026-04-06T13:40:04.966Z</time></trkpt><trkpt lat="45.658870371031504" lon="8.432396282478363"><ele>344.0</ele><time>2026-04-06T13:40:05.966Z</time></trkpt><trkpt lat="45.65874416097422" lon="8.4321731982696"><ele>343.6666666666667</ele><time>2026-04-06T13:40:06.966Z</time></trkpt><trkpt lat="45.658631394165965" lon="8.431932940738418"><ele>343.3333333333333</ele><time>2026-04-06T13:40:07.966Z</time></trkpt><trkpt lat="45.65853027086163" lon="8.43168077339756"><ele>343.0</ele><time>2026-04-06T13:40:08.966Z</time></trkpt><trkpt lat="45.658436820106665" lon="8.431418400015671"><ele>342.66666666666663</ele><time>2026-04-06T13:40:09.966Z</time></trkpt><trkpt lat="45.65834756151611" lon="8.431149026873381"><ele>342.3333333333333</ele><time>2026-04-06T13:40:10.966Z</time></trkpt><trkpt lat="45.658264644360536" lon="8.43088110056291"><ele>342.0</ele><time>2026-04-06T13:40:11.966Z</time></trkpt><trkpt lat="45.658183189087204" lon="8.430612164948455"><ele>342.0</ele><time>2026-04-06T13:40:12.966Z</time></trkpt><trkpt lat="45.65809843907735" lon="8.43034305064335"><ele>342.0</ele><time>2026-04-06T13:40:13.966Z</time></trkpt><trkpt lat="45.65801581214216" lon="8.43007541886523"><ele>342.0</ele><time>2026-04-06T13:40:14.966Z</time></trkpt><trkpt lat="45.657938150232326" lon="8.429815869899006"><ele>342.3333333333333</ele><time>2026-04-06T13:40:15.966Z</time></trkpt><trkpt lat="45.65785949093211" lon="8.429566909994922"><ele>342.66666666666663</ele><time>2026-04-06T13:40:16.966Z</time></trkpt><trkpt lat="45.65779151768482" lon="8.429324103706286"><ele>343.0</ele><time>2026-04-06T13:40:17.966Z</time></trkpt><trkpt lat="45.65772562904258" lon="8.42909135859942"><ele>343.0</ele><time>2026-04-06T13:40:18.966Z</time></trkpt><trkpt lat="45.65766112080584" lon="8.428862642805885"><ele>343.0</ele><time>2026-04-06T13:40:19.966Z</time></trkpt><trkpt lat="45.65759492062938" lon="8.428642771304549"><ele>343.0</ele><time>2026-04-06T13:40:20.966Z</time></trkpt><trkpt lat="45.65753689208806" lon="8.428449003296206"><ele>343.0</ele><time>2026-04-06T13:40:21.966Z</time></trkpt><trkpt lat="45.65748896156956" lon="8.428290355943522"><ele>343.0</ele><time>2026-04-06T13:40:22.966Z</time></trkpt><trkpt lat="45.65744973210611" lon="8.428155460379397"><ele>343.0</ele><time>2026-04-06T13:40:23.966Z</time></trkpt><trkpt lat="45.65741478872649" lon="8.428034399916596"><ele>343.0</ele><time>2026-04-06T13:40:24.966Z</time></trkpt><trkpt lat="45.65738196924152" lon="8.427924790382487"><ele>343.0</ele><time>2026-04-06T13:40:25.966Z</time></trkpt><trkpt lat="45.65735211763566" lon="8.427822803102345"><ele>343.4</ele><time>2026-04-06T13:40:26.966Z</time></trkpt><trkpt lat="45.65732513208907" lon="8.427724950153296"><ele>343.79999999999995</ele><time>2026-04-06T13:40:27.966Z</time></trkpt><trkpt lat="45.65729401768359" lon="8.427614348572048"><ele>344.2</ele><time>2026-04-06T13:40:28.966Z</time></trkpt><trkpt lat="45.65725712733712" lon="8.427489805534982"><ele>344.6</ele><time>2026-04-06T13:40:29.966Z</time></trkpt><trkpt lat="45.65721469992026" lon="8.427357553371777"><ele>345.0</ele><time>2026-04-06T13:40:30.966Z</time></trkpt><trkpt lat="45.6571706698709" lon="8.427215595115033"><ele>344.5</ele><time>2026-04-06T13:40:31.966Z</time></trkpt><trkpt lat="45.657125969366625" lon="8.42706460629438"><ele>344.0</ele><time>2026-04-06T13:40:32.966Z</time></trkpt><trkpt lat="45.65708176978798" lon="8.426911764537172"><ele>343.5</ele><time>2026-04-06T13:40:33.966Z</time></trkpt><trkpt lat="45.65703413020033" lon="8.426754935943263"><ele>343.0</ele><time>2026-04-06T13:40:34.966Z</time></trkpt><trkpt lat="45.65698529339416" lon="8.426595181091534"><ele>342.5</ele><time>2026-04-06T13:40:35.966Z</time></trkpt><trkpt lat="45.656935168843916" lon="8.42642815484102"><ele>342.0</ele><time>2026-04-06T13:40:36.966Z</time></trkpt><trkpt lat="45.65687732813122" lon="8.426251144093083"><ele>341.5</ele><time>2026-04-06T13:40:37.966Z</time></trkpt><trkpt lat="45.656820247487765" lon="8.426063162564827"><ele>341.0</ele><time>2026-04-06T13:40:38.966Z</time></trkpt><trkpt lat="45.65676487317345" lon="8.425861467906667"><ele>341.0</ele><time>2026-04-06T13:40:39.966Z</time></trkpt><trkpt lat="45.656703683102705" lon="8.425646585821097"><ele>341.0</ele><time>2026-04-06T13:40:40.966Z</time></trkpt><trkpt lat="45.65663818751537" lon="8.425420511277142"><ele>341.0</ele><time>2026-04-06T13:40:41.966Z</time></trkpt><trkpt lat="45.65656803688028" lon="8.425180922319507"><ele>341.33333333333337</ele><time>2026-04-06T13:40:42.966Z</time></trkpt><trkpt lat="45.656490948910644" lon="8.424930517304016"><ele>341.6666666666667</ele><time>2026-04-06T13:40:43.966Z</time></trkpt><trkpt lat="45.656421639403824" lon="8.424688053633659"><ele>342.0</ele><time>2026-04-06T13:40:44.966Z</time></trkpt><trkpt lat="45.656349880293824" lon="8.424440826043309"><ele>342.3333333333333</ele><time>2026-04-06T13:40:45.966Z</time></trkpt><trkpt lat="45.65627015955478" lon="8.424188440186777"><ele>342.66666666666663</ele><time>2026-04-06T13:40:46.966Z</time></trkpt><trkpt lat="45.65618374552757" lon="8.423930041858867"><ele>343.0</ele><time>2026-04-06T13:40:47.966Z</time></trkpt><trkpt lat="45.656122434209564" lon="8.42366802992893"><ele>342.66666666666663</ele><time>2026-04-06T13:40:48.966Z</time></trkpt><trkpt lat="45.65604228606572" lon="8.423411968419607"><ele>342.3333333333333</ele><time>2026-04-06T13:40:49.966Z</time></trkpt><trkpt lat="45.6559655585968" lon="8.423160133979621"><ele>342.0</ele><time>2026-04-06T13:40:50.968Z</time></trkpt><trkpt lat="45.65588946239035" lon="8.422908160356796"><ele>342.0</ele><time>2026-04-06T13:40:51.967Z</time></trkpt><trkpt lat="45.65581269893934" lon="8.422654192671851"><ele>342.0</ele><time>2026-04-06T13:40:52.967Z</time></trkpt><trkpt lat="45.655738029344334" lon="8.422403303984305"><ele>342.0</ele><time>2026-04-06T13:40:53.967Z</time></trkpt><trkpt lat="45.65565903728585" lon="8.42214201648759"><ele>342.0</ele><time>2026-04-06T13:40:54.967Z</time></trkpt><trkpt lat="45.65557606686967" lon="8.42186741470879"><ele>342.0</ele><time>2026-04-06T13:40:55.967Z</time></trkpt><trkpt lat="45.65549498414916" lon="8.421570388950986"><ele>342.0</ele><time>2026-04-06T13:40:56.967Z</time></trkpt><trkpt lat="45.65541141075214" lon="8.421258915514963"><ele>342.0</ele><time>2026-04-06T13:40:57.967Z</time></trkpt><trkpt lat="45.65532607782798" lon="8.420965789435677"><ele>342.0</ele><time>2026-04-06T13:40:58.967Z</time></trkpt><trkpt lat="45.65523899410938" lon="8.420684563490292"><ele>342.0</ele><time>2026-04-06T13:40:59.968Z</time></trkpt><trkpt lat="45.65515252032225" lon="8.420395200003268"><ele>341.5</ele><time>2026-04-06T13:41:00.967Z</time></trkpt><trkpt lat="45.65506263082449" lon="8.420092822300361"><ele>341.0</ele><time>2026-04-06T13:41:01.967Z</time></trkpt><trkpt lat="45.65496698798288" lon="8.419781239309799"><ele>340.0</ele><time>2026-04-06T13:41:02.967Z</time></trkpt><trkpt lat="45.65486623793647" lon="8.419460081219464"><ele>339.0</ele><time>2026-04-06T13:41:03.967Z</time></trkpt><trkpt lat="45.654764423289734" lon="8.419125213634848"><ele>339.5</ele><time>2026-04-06T13:41:04.967Z</time></trkpt><trkpt lat="45.65465986771043" lon="8.418781270439844"><ele>340.0</ele><time>2026-04-06T13:41:05.967Z</time></trkpt><trkpt lat="45.65455868611446" lon="8.418426403158941"><ele>340.0</ele><time>2026-04-06T13:41:06.967Z</time></trkpt><trkpt lat="45.654466751607714" lon="8.418079426612831"><ele>340.0</ele><time>2026-04-06T13:41:07.967Z</time></trkpt><trkpt lat="45.65437476834569" lon="8.417750661288798"><ele>339.5</ele><time>2026-04-06T13:41:08.967Z</time></trkpt><trkpt lat="45.65428239861827" lon="8.417434606814902"><ele>339.0</ele><time>2026-04-06T13:41:09.967Z</time></trkpt><trkpt lat="45.65419165825321" lon="8.41713301005534"><ele>339.0</ele><time>2026-04-06T13:41:10.967Z</time></trkpt><trkpt lat="45.65410445616047" lon="8.416832602805098"><ele>339.0</ele><time>2026-04-06T13:41:11.967Z</time></trkpt><trkpt lat="45.65401662821853" lon="8.41652862834649"><ele>340.0</ele><time>2026-04-06T13:41:12.967Z</time></trkpt><trkpt lat="45.6539234079875" lon="8.41622077820273"><ele>341.0</ele><time>2026-04-06T13:41:13.967Z</time></trkpt><trkpt lat="45.653828483785475" lon="8.415911412407214"><ele>341.0</ele><time>2026-04-06T13:41:14.967Z</time></trkpt><trkpt lat="45.65373547569673" lon="8.415604060452768"><ele>341.0</ele><time>2026-04-06T13:41:15.967Z</time></trkpt><trkpt lat="45.65364385434775" lon="8.415300121808475"><ele>340.0</ele><time>2026-04-06T13:41:16.967Z</time></trkpt><trkpt lat="45.653553353767116" lon="8.414997961918766"><ele>339.0</ele><time>2026-04-06T13:41:17.967Z</time></trkpt><trkpt lat="45.653475687310745" lon="8.414684918597368"><ele>339.0</ele><time>2026-04-06T13:41:18.967Z</time></trkpt><trkpt lat="45.653421345129956" lon="8.414348180562216"><ele>339.0</ele><time>2026-04-06T13:41:19.967Z</time></trkpt><trkpt lat="45.653385941709026" lon="8.414001007607324"><ele>338.0</ele><time>2026-04-06T13:41:20.967Z</time></trkpt><trkpt lat="45.65337731488813" lon="8.413634389138672"><ele>337.0</ele><time>2026-04-06T13:41:21.966Z</time></trkpt><trkpt lat="45.65342296002924" lon="8.413253170766316"><ele>334.0</ele><time>2026-04-06T13:41:22.966Z</time></trkpt><trkpt lat="45.65348199609388" lon="8.412865847080909"><ele>331.0</ele><time>2026-04-06T13:41:23.966Z</time></trkpt><trkpt lat="45.65357024164176" lon="8.412457626082642"><ele>330.5</ele><time>2026-04-06T13:41:24.966Z</time></trkpt><trkpt lat="45.65367535911165" lon="8.412020614981124"><ele>330.0</ele><time>2026-04-06T13:41:25.966Z</time></trkpt><trkpt lat="45.65378471455" lon="8.41156249796913"><ele>329.5</ele><time>2026-04-06T13:41:26.966Z</time></trkpt><trkpt lat="45.65388294218664" lon="8.411092350897079"><ele>329.0</ele><time>2026-04-06T13:41:27.966Z</time></trkpt><trkpt lat="45.65399101559148" lon="8.410661761839888"><ele>330.0</ele><time>2026-04-06T13:41:28.966Z</time></trkpt><trkpt lat="45.654091350093424" lon="8.410260123565333"><ele>331.0</ele><time>2026-04-06T13:41:29.966Z</time></trkpt><trkpt lat="45.65418479462713" lon="8.409887019920276"><ele>335.0</ele><time>2026-04-06T13:41:30.966Z</time></trkpt><trkpt lat="45.65426780841775" lon="8.40952919246811"><ele>339.0</ele><time>2026-04-06T13:41:31.966Z</time></trkpt><trkpt lat="45.65433736510863" lon="8.409187329475571"><ele>339.0</ele><time>2026-04-06T13:41:32.966Z</time></trkpt><trkpt lat="45.65439251304398" lon="8.408855508598208"><ele>339.0</ele><time>2026-04-06T13:41:33.966Z</time></trkpt><trkpt lat="45.65442247198316" lon="8.40852155474515"><ele>341.0</ele><time>2026-04-06T13:41:34.966Z</time></trkpt><trkpt lat="45.6544275724272" lon="8.408180534734049"><ele>343.0</ele><time>2026-04-06T13:41:35.966Z</time></trkpt><trkpt lat="45.65440566932505" lon="8.40783631927827"><ele>344.0</ele><time>2026-04-06T13:41:36.966Z</time></trkpt><trkpt lat="45.65436129574217" lon="8.407506140698736"><ele>345.0</ele><time>2026-04-06T13:41:37.966Z</time></trkpt><trkpt lat="45.6542939312262" lon="8.407185543625898"><ele>346.0</ele><time>2026-04-06T13:41:38.966Z</time></trkpt><trkpt lat="45.654202671352266" lon="8.406878744302096"><ele>347.0</ele><time>2026-04-06T13:41:39.966Z</time></trkpt><trkpt lat="45.65409227818613" lon="8.406581728752487"><ele>346.5</ele><time>2026-04-06T13:41:40.966Z</time></trkpt><trkpt lat="45.65396468805446" lon="8.406297848439374"><ele>346.0</ele><time>2026-04-06T13:41:41.966Z</time></trkpt><trkpt lat="45.65381857862678" lon="8.406024789558419"><ele>346.0</ele><time>2026-04-06T13:41:42.966Z</time></trkpt><trkpt lat="45.65366325722178" lon="8.405761125147663"><ele>346.0</ele><time>2026-04-06T13:41:43.966Z</time></trkpt><trkpt lat="45.653509067900536" lon="8.405500181771393"><ele>345.5</ele><time>2026-04-06T13:41:44.966Z</time></trkpt><trkpt lat="45.6533530772795" lon="8.405249296122047"><ele>345.0</ele><time>2026-04-06T13:41:45.966Z</time></trkpt><trkpt lat="45.653193660408434" lon="8.405001605818551"><ele>345.0</ele><time>2026-04-06T13:41:46.966Z</time></trkpt><trkpt lat="45.65303970447284" lon="8.404753997040526"><ele>345.0</ele><time>2026-04-06T13:41:47.966Z</time></trkpt><trkpt lat="45.652885030427846" lon="8.40450298465422"><ele>345.5</ele><time>2026-04-06T13:41:48.966Z</time></trkpt><trkpt lat="45.652730056549245" lon="8.404252843954966"><ele>346.0</ele><time>2026-04-06T13:41:49.966Z</time></trkpt><trkpt lat="45.65257399061677" lon="8.404002606661827"><ele>346.5</ele><time>2026-04-06T13:41:50.966Z</time></trkpt><trkpt lat="45.65241775093797" lon="8.403743802722959"><ele>347.0</ele><time>2026-04-06T13:41:51.966Z</time></trkpt><trkpt lat="45.652255955649416" lon="8.403482954477493"><ele>347.0</ele><time>2026-04-06T13:41:52.966Z</time></trkpt><trkpt lat="45.65209198354422" lon="8.403223159271235"><ele>347.0</ele><time>2026-04-06T13:41:53.966Z</time></trkpt><trkpt lat="45.65192732415377" lon="8.402959945326291"><ele>343.5</ele><time>2026-04-06T13:41:54.966Z</time></trkpt><trkpt lat="45.651765272997835" lon="8.402691305715443"><ele>340.0</ele><time>2026-04-06T13:41:55.966Z</time></trkpt><trkpt lat="45.651597195756054" lon="8.402426323485663"><ele>338.0</ele><time>2026-04-06T13:41:56.966Z</time></trkpt><trkpt lat="45.65142630938485" lon="8.402160287430606"><ele>336.0</ele><time>2026-04-06T13:41:57.966Z</time></trkpt><trkpt lat="45.6512562038034" lon="8.401889835799485"><ele>335.5</ele><time>2026-04-06T13:41:58.966Z</time></trkpt><trkpt lat="45.65108730958505" lon="8.401617413278037"><ele>335.0</ele><time>2026-04-06T13:41:59.966Z</time></trkpt><trkpt lat="45.65092132660667" lon="8.401342862791564"><ele>337.5</ele><time>2026-04-06T13:42:00.966Z</time></trkpt><trkpt lat="45.65075617535569" lon="8.401069178947713"><ele>340.0</ele><time>2026-04-06T13:42:01.966Z</time></trkpt><trkpt lat="45.65059342778065" lon="8.4007967917938"><ele>340.0</ele><time>2026-04-06T13:42:02.966Z</time></trkpt><trkpt lat="45.65043164646422" lon="8.40052427562734"><ele>340.0</ele><time>2026-04-06T13:42:03.966Z</time></trkpt><trkpt lat="45.65027490156044" lon="8.400250452355088"><ele>337.5</ele><time>2026-04-06T13:42:04.966Z</time></trkpt><trkpt lat="45.65011175301359" lon="8.399984350016178"><ele>335.0</ele><time>2026-04-06T13:42:05.966Z</time></trkpt><trkpt lat="45.6499474630291" lon="8.399718731803521"><ele>335.5</ele><time>2026-04-06T13:42:06.966Z</time></trkpt><trkpt lat="45.64978316084025" lon="8.399448776019682"><ele>336.0</ele><time>2026-04-06T13:42:07.966Z</time></trkpt><trkpt lat="45.64962166686109" lon="8.39917930828401"><ele>336.5</ele><time>2026-04-06T13:42:08.966Z</time></trkpt><trkpt lat="45.649457908904374" lon="8.398917212931408"><ele>337.0</ele><time>2026-04-06T13:42:09.966Z</time></trkpt><trkpt lat="45.649296667118904" lon="8.398649256951805"><ele>337.5</ele><time>2026-04-06T13:42:10.966Z</time></trkpt><trkpt lat="45.64913484065919" lon="8.398381538101912"><ele>338.0</ele><time>2026-04-06T13:42:11.966Z</time></trkpt><trkpt lat="45.648969331186954" lon="8.398115076770337"><ele>336.5</ele><time>2026-04-06T13:42:12.966Z</time></trkpt><trkpt lat="45.64880625987754" lon="8.39784693216899"><ele>335.0</ele><time>2026-04-06T13:42:13.966Z</time></trkpt><trkpt lat="45.648643336880475" lon="8.397576748252014"><ele>335.0</ele><time>2026-04-06T13:42:14.966Z</time></trkpt><trkpt lat="45.64847632229883" lon="8.39730735583578"><ele>335.0</ele><time>2026-04-06T13:42:15.966Z</time></trkpt><trkpt lat="45.648312006159635" lon="8.39703725808142"><ele>335.0</ele><time>2026-04-06T13:42:16.966Z</time></trkpt><trkpt lat="45.6481446001513" lon="8.39676466901801"><ele>335.0</ele><time>2026-04-06T13:42:17.966Z</time></trkpt><trkpt lat="45.64798356755566" lon="8.39650150596254"><ele>335.0</ele><time>2026-04-06T13:42:18.966Z</time></trkpt><trkpt lat="45.6478343243716" lon="8.396258452555202"><ele>335.0</ele><time>2026-04-06T13:42:19.966Z</time></trkpt><trkpt lat="45.64770472120035" lon="8.39604727897392"><ele>335.0</ele><time>2026-04-06T13:42:20.966Z</time></trkpt><trkpt lat="45.64760225117568" lon="8.395875034148888"><ele>334.5</ele><time>2026-04-06T13:42:21.966Z</time></trkpt><trkpt lat="45.6475145124803" lon="8.395729734253607"><ele>334.0</ele><time>2026-04-06T13:42:22.965Z</time></trkpt><trkpt lat="45.64742756444012" lon="8.395597145441812"><ele>333.5</ele><time>2026-04-06T13:42:23.965Z</time></trkpt><trkpt lat="45.64734374670761" lon="8.395464976280296"><ele>333.0</ele><time>2026-04-06T13:42:24.965Z</time></trkpt><trkpt lat="45.64726509808806" lon="8.395332273683136"><ele>333.0</ele><time>2026-04-06T13:42:25.965Z</time></trkpt><trkpt lat="45.64718601494992" lon="8.395196370084212"><ele>333.0</ele><time>2026-04-06T13:42:26.965Z</time></trkpt><trkpt lat="45.64709675149826" lon="8.395049337292804"><ele>333.0</ele><time>2026-04-06T13:42:27.965Z</time></trkpt><trkpt lat="45.64700166913661" lon="8.394890230002588"><ele>333.0</ele><time>2026-04-06T13:42:28.965Z</time></trkpt><trkpt lat="45.64689795279871" lon="8.394720635773634"><ele>332.6666666666667</ele><time>2026-04-06T13:42:29.965Z</time></trkpt><trkpt lat="45.64678767897477" lon="8.394535931737414"><ele>332.33333333333337</ele><time>2026-04-06T13:42:30.965Z</time></trkpt><trkpt lat="45.64666855899347" lon="8.394339576566786"><ele>332.0</ele><time>2026-04-06T13:42:31.965Z</time></trkpt><trkpt lat="45.646542465832056" lon="8.394129871944628"><ele>332.0</ele><time>2026-04-06T13:42:32.965Z</time></trkpt><trkpt lat="45.646409976495725" lon="8.393911185831797"><ele>332.0</ele><time>2026-04-06T13:42:33.965Z</time></trkpt><trkpt lat="45.646270371664706" lon="8.393681871105283"><ele>332.0</ele><time>2026-04-06T13:42:34.965Z</time></trkpt><trkpt lat="45.64612509241958" lon="8.393448975689603"><ele>333.0</ele><time>2026-04-06T13:42:35.965Z</time></trkpt><trkpt lat="45.64598279394846" lon="8.39321025145101"><ele>334.0</ele><time>2026-04-06T13:42:36.965Z</time></trkpt><trkpt lat="45.645843680834396" lon="8.392980978564756"><ele>335.0</ele><time>2026-04-06T13:42:37.965Z</time></trkpt><trkpt lat="45.64570301617937" lon="8.39275390964461"><ele>335.0</ele><time>2026-04-06T13:42:38.965Z</time></trkpt><trkpt lat="45.64556316549845" lon="8.392528108667381"><ele>335.0</ele><time>2026-04-06T13:42:39.965Z</time></trkpt><trkpt lat="45.645422535058294" lon="8.392297931416357"><ele>335.0</ele><time>2026-04-06T13:42:40.965Z</time></trkpt><trkpt lat="45.64528279976114" lon="8.392074697022634"><ele>334.6666666666667</ele><time>2026-04-06T13:42:41.965Z</time></trkpt><trkpt lat="45.64515183009359" lon="8.391843598972558"><ele>334.3333333333333</ele><time>2026-04-06T13:42:42.965Z</time></trkpt><trkpt lat="45.645013430832286" lon="8.391613144019413"><ele>334.0</ele><time>2026-04-06T13:42:43.965Z</time></trkpt><trkpt lat="45.644874324918625" lon="8.39137893235538"><ele>333.66666666666663</ele><time>2026-04-06T13:42:44.965Z</time></trkpt><trkpt lat="45.6447361857594" lon="8.391143436825764"><ele>333.3333333333333</ele><time>2026-04-06T13:42:45.965Z</time></trkpt><trkpt lat="45.644600265567504" lon="8.3909133697177"><ele>333.0</ele><time>2026-04-06T13:42:46.965Z</time></trkpt><trkpt lat="45.64446218435215" lon="8.390684883787811"><ele>333.6666666666667</ele><time>2026-04-06T13:42:47.965Z</time></trkpt><trkpt lat="45.64432584698519" lon="8.390461024015318"><ele>334.33333333333337</ele><time>2026-04-06T13:42:48.965Z</time></trkpt><trkpt lat="45.644190036745506" lon="8.3902431600387"><ele>335.0</ele><time>2026-04-06T13:42:49.965Z</time></trkpt><trkpt lat="45.64405843151871" lon="8.390031137472363"><ele>335.0</ele><time>2026-04-06T13:42:50.965Z</time></trkpt><trkpt lat="45.64393552620379" lon="8.389824635125063"><ele>335.0</ele><time>2026-04-06T13:42:51.965Z</time></trkpt><trkpt lat="45.64381767679737" lon="8.389639112917278"><ele>335.0</ele><time>2026-04-06T13:42:52.965Z</time></trkpt><trkpt lat="45.64370807387501" lon="8.389462740085431"><ele>334.5</ele><time>2026-04-06T13:42:53.965Z</time></trkpt><trkpt lat="45.64361095363369" lon="8.389296976831508"><ele>334.0</ele><time>2026-04-06T13:42:54.965Z</time></trkpt><trkpt lat="45.643524162746544" lon="8.389149065874356"><ele>333.5</ele><time>2026-04-06T13:42:55.965Z</time></trkpt><trkpt lat="45.64345592144174" lon="8.389021419378974"><ele>333.0</ele><time>2026-04-06T13:42:56.966Z</time></trkpt><trkpt lat="45.64340368085473" lon="8.388898438032728"><ele>332.59999999999997</ele><time>2026-04-06T13:42:57.966Z</time></trkpt><trkpt lat="45.64338458645752" lon="8.38877088357557"><ele>332.2</ele><time>2026-04-06T13:42:58.966Z</time></trkpt><trkpt lat="45.64339157372627" lon="8.388621393059973"><ele>331.8</ele><time>2026-04-06T13:42:59.966Z</time></trkpt><trkpt lat="45.64340349692796" lon="8.388464534710602"><ele>331.4</ele><time>2026-04-06T13:43:00.966Z</time></trkpt><trkpt lat="45.643418988005315" lon="8.388321521662842"><ele>331.0</ele><time>2026-04-06T13:43:01.966Z</time></trkpt><trkpt lat="45.64346461377207" lon="8.388197620852482"><ele>331.0</ele><time>2026-04-06T13:43:02.966Z</time></trkpt><trkpt lat="45.64354551977667" lon="8.388088087348057"><ele>331.0</ele><time>2026-04-06T13:43:03.966Z</time></trkpt><trkpt lat="45.64365166489834" lon="8.38798881984073"><ele>331.0</ele><time>2026-04-06T13:43:04.966Z</time></trkpt><trkpt lat="45.643773048476234" lon="8.387888908617802"><ele>331.0</ele><time>2026-04-06T13:43:05.966Z</time></trkpt><trkpt lat="45.64390352373436" lon="8.387779473524597"><ele>331.66666666666663</ele><time>2026-04-06T13:43:06.966Z</time></trkpt><trkpt lat="45.64404214063111" lon="8.387666706356141"><ele>332.3333333333333</ele><time>2026-04-06T13:43:07.966Z</time></trkpt><trkpt lat="45.6441923094775" lon="8.387547508037821"><ele>333.0</ele><time>2026-04-06T13:43:08.966Z</time></trkpt><trkpt lat="45.64435413746261" lon="8.387425753721926"><ele>333.6666666666667</ele><time>2026-04-06T13:43:09.967Z</time></trkpt><trkpt lat="45.644528236986474" lon="8.387297147365683"><ele>334.33333333333337</ele><time>2026-04-06T13:43:10.967Z</time></trkpt><trkpt lat="45.644709629285856" lon="8.387171930351421"><ele>335.0</ele><time>2026-04-06T13:43:11.967Z</time></trkpt><trkpt lat="45.644902357899916" lon="8.387045717136393"><ele>335.6666666666667</ele><time>2026-04-06T13:43:12.967Z</time></trkpt><trkpt lat="45.64509610945261" lon="8.386923554520353"><ele>336.3333333333333</ele><time>2026-04-06T13:43:13.967Z</time></trkpt><trkpt lat="45.645282870639356" lon="8.386815274157476"><ele>337.0</ele><time>2026-04-06T13:43:14.967Z</time></trkpt><trkpt lat="45.64547480351758" lon="8.386706284624442"><ele>337.0</ele><time>2026-04-06T13:43:15.967Z</time></trkpt><trkpt lat="45.64567139745612" lon="8.386602938965108"><ele>337.0</ele><time>2026-04-06T13:43:16.967Z</time></trkpt><trkpt lat="45.64587519583857" lon="8.386503469413665"><ele>337.0</ele><time>2026-04-06T13:43:17.967Z</time></trkpt><trkpt lat="45.64608506341175" lon="8.386406818551073"><ele>337.0</ele><time>2026-04-06T13:43:18.967Z</time></trkpt><trkpt lat="45.64630282378845" lon="8.386315487547005"><ele>337.0</ele><time>2026-04-06T13:43:19.967Z</time></trkpt><trkpt lat="45.64652669892017" lon="8.386230624054157"><ele>337.0</ele><time>2026-04-06T13:43:20.967Z</time></trkpt><trkpt lat="45.64674867490547" lon="8.386154440926942"><ele>337.0</ele><time>2026-04-06T13:43:21.967Z</time></trkpt><trkpt lat="45.6469621617544" lon="8.386085861229962"><ele>337.0</ele><time>2026-04-06T13:43:22.967Z</time></trkpt><trkpt lat="45.64717372197954" lon="8.386019807855385"><ele>336.66666666666663</ele><time>2026-04-06T13:43:23.967Z</time></trkpt><trkpt lat="45.647386764155655" lon="8.3859571451157"><ele>336.3333333333333</ele><time>2026-04-06T13:43:24.967Z</time></trkpt><trkpt lat="45.64760272344251" lon="8.385907904791049"><ele>336.0</ele><time>2026-04-06T13:43:25.967Z</time></trkpt><trkpt lat="45.647820220255795" lon="8.385863644547412"><ele>337.6666666666667</ele><time>2026-04-06T13:43:26.966Z</time></trkpt><trkpt lat="45.648035682638444" lon="8.385827154070121"><ele>339.33333333333337</ele><time>2026-04-06T13:43:27.966Z</time></trkpt><trkpt lat="45.648250657361025" lon="8.38579373985754"><ele>341.0</ele><time>2026-04-06T13:43:28.966Z</time></trkpt><trkpt lat="45.64846388802835" lon="8.385768555640267"><ele>341.33333333333337</ele><time>2026-04-06T13:43:29.966Z</time></trkpt><trkpt lat="45.648679331853124" lon="8.385746689848729"><ele>341.6666666666667</ele><time>2026-04-06T13:43:30.966Z</time></trkpt><trkpt lat="45.64889336530603" lon="8.385730419825386"><ele>342.0</ele><time>2026-04-06T13:43:31.966Z</time></trkpt><trkpt lat="45.64910143386671" lon="8.385720594148156"><ele>342.0</ele><time>2026-04-06T13:43:32.966Z</time></trkpt><trkpt lat="45.64930429094983" lon="8.385714624797705"><ele>342.0</ele><time>2026-04-06T13:43:33.966Z</time></trkpt><trkpt lat="45.64950482502771" lon="8.385722250069316"><ele>342.0</ele><time>2026-04-06T13:43:34.966Z</time></trkpt><trkpt lat="45.6497001914924" lon="8.385724925878135"><ele>342.0</ele><time>2026-04-06T13:43:35.966Z</time></trkpt><trkpt lat="45.64988771435325" lon="8.385727876827344"><ele>342.0</ele><time>2026-04-06T13:43:36.966Z</time></trkpt><trkpt lat="45.650069692682784" lon="8.38572804774704"><ele>342.0</ele><time>2026-04-06T13:43:37.966Z</time></trkpt><trkpt lat="45.650249312826496" lon="8.38572197414329"><ele>342.3333333333333</ele><time>2026-04-06T13:43:38.966Z</time></trkpt><trkpt lat="45.650436014356785" lon="8.385710592731373"><ele>342.66666666666663</ele><time>2026-04-06T13:43:39.966Z</time></trkpt><trkpt lat="45.6506298568781" lon="8.385725240926844"><ele>343.0</ele><time>2026-04-06T13:43:40.966Z</time></trkpt><trkpt lat="45.65083079164524" lon="8.385710524353371"><ele>343.0</ele><time>2026-04-06T13:43:41.966Z</time></trkpt><trkpt lat="45.65103710725092" lon="8.385683774647594"><ele>343.0</ele><time>2026-04-06T13:43:42.966Z</time></trkpt><trkpt lat="45.65124473657412" lon="8.385650330919798"><ele>343.0</ele><time>2026-04-06T13:43:43.966Z</time></trkpt><trkpt lat="45.651456058006346" lon="8.385609917379103"><ele>343.0</ele><time>2026-04-06T13:43:44.966Z</time></trkpt><trkpt lat="45.651673195770705" lon="8.385555471198844"><ele>343.0</ele><time>2026-04-06T13:43:45.966Z</time></trkpt><trkpt lat="45.65189063585905" lon="8.385467238964097"><ele>343.0</ele><time>2026-04-06T13:43:46.966Z</time></trkpt><trkpt lat="45.65214737943577" lon="8.385394254320694"><ele>311.0</ele><time>2026-04-06T13:43:48.107Z</time></trkpt><trkpt lat="45.655633705725116" lon="8.382002152559425"><ele>311.0</ele><time>2026-04-06T13:44:08.966Z</time></trkpt><trkpt lat="45.6557724438145" lon="8.38175315006187"><ele>311.0</ele><time>2026-04-06T13:44:09.966Z</time></trkpt><trkpt lat="45.655901029951224" lon="8.381459464927707"><ele>308.5</ele><time>2026-04-06T13:44:10.966Z</time></trkpt><trkpt lat="45.65601838061004" lon="8.381181100062687"><ele>306.0</ele><time>2026-04-06T13:44:11.966Z</time></trkpt><trkpt lat="45.6561331157388" lon="8.380892245930928"><ele>306.0</ele><time>2026-04-06T13:44:12.966Z</time></trkpt><trkpt lat="45.6562502863396" lon="8.380600753453397"><ele>306.0</ele><time>2026-04-06T13:44:13.966Z</time></trkpt><trkpt lat="45.656367641002554" lon="8.380309547552017"><ele>304.0</ele><time>2026-04-06T13:44:14.966Z</time></trkpt><trkpt lat="45.65648603903456" lon="8.38003202165082"><ele>302.0</ele><time>2026-04-06T13:44:15.966Z</time></trkpt><trkpt lat="45.656608462686435" lon="8.379757701040678"><ele>302.0</ele><time>2026-04-06T13:44:16.966Z</time></trkpt><trkpt lat="45.656732732343244" lon="8.379473508647482"><ele>302.0</ele><time>2026-04-06T13:44:17.966Z</time></trkpt><trkpt lat="45.65685346679583" lon="8.379162995395365"><ele>301.5</ele><time>2026-04-06T13:44:18.966Z</time></trkpt><trkpt lat="45.656982632588104" lon="8.378823127087902"><ele>301.0</ele><time>2026-04-06T13:44:19.966Z</time></trkpt><trkpt lat="45.657114744438736" lon="8.3784845398385"><ele>301.0</ele><time>2026-04-06T13:44:20.966Z</time></trkpt><trkpt lat="45.65725432647564" lon="8.378155815923531"><ele>301.0</ele><time>2026-04-06T13:44:21.966Z</time></trkpt><trkpt lat="45.65741262722381" lon="8.37782420358819"><ele>301.0</ele><time>2026-04-06T13:44:22.966Z</time></trkpt><trkpt lat="45.65756666200163" lon="8.377489037103633"><ele>301.0</ele><time>2026-04-06T13:44:23.966Z</time></trkpt><trkpt lat="45.65770924381467" lon="8.37715430729377"><ele>300.0</ele><time>2026-04-06T13:44:24.966Z</time></trkpt><trkpt lat="45.6578518157016" lon="8.376821748205403"><ele>299.0</ele><time>2026-04-06T13:44:25.966Z</time></trkpt><trkpt lat="45.65798992042596" lon="8.376492829946855"><ele>299.0</ele><time>2026-04-06T13:44:26.965Z</time></trkpt><trkpt lat="45.658126310443194" lon="8.376165335811827"><ele>299.0</ele><time>2026-04-06T13:44:27.965Z</time></trkpt><trkpt lat="45.65826079715027" lon="8.37584344142326"><ele>299.0</ele><time>2026-04-06T13:44:28.965Z</time></trkpt><trkpt lat="45.658393944836185" lon="8.375528497566156"><ele>299.0</ele><time>2026-04-06T13:44:29.965Z</time></trkpt><trkpt lat="45.65852858702213" lon="8.375209866475075"><ele>297.0</ele><time>2026-04-06T13:44:30.965Z</time></trkpt><trkpt lat="45.65962123473479" lon="8.375705353177327"><ele>297.5</ele><time>2026-04-06T13:44:31.965Z</time></trkpt><trkpt lat="45.65958730759486" lon="8.375256243658031"><ele>298.0</ele><time>2026-04-06T13:44:32.965Z</time></trkpt><trkpt lat="45.659378527436935" lon="8.374666008234684"><ele>298.0</ele><time>2026-04-06T13:44:33.965Z</time></trkpt><trkpt lat="45.65920402646797" lon="8.374109672674342"><ele>298.0</ele><time>2026-04-06T13:44:34.965Z</time></trkpt><trkpt lat="45.65922994097412" lon="8.373736875081605"><ele>299.5</ele><time>2026-04-06T13:44:35.965Z</time></trkpt><trkpt lat="45.659330727742834" lon="8.373424089916359"><ele>301.0</ele><time>2026-04-06T13:44:36.965Z</time></trkpt><trkpt lat="45.65943712499896" lon="8.37313021823502"><ele>302.0</ele><time>2026-04-06T13:44:37.965Z</time></trkpt><trkpt lat="45.6595501043304" lon="8.372844312681798"><ele>303.0</ele><time>2026-04-06T13:44:38.965Z</time></trkpt><trkpt lat="45.65966405748773" lon="8.372565948975254"><ele>303.0</ele><time>2026-04-06T13:44:39.965Z</time></trkpt><trkpt lat="45.65978339665338" lon="8.372296422318586"><ele>303.0</ele><time>2026-04-06T13:44:40.965Z</time></trkpt><trkpt lat="45.65990755859207" lon="8.372031085353566"><ele>303.0</ele><time>2026-04-06T13:44:41.965Z</time></trkpt><trkpt lat="45.660036589876505" lon="8.37176895290158"><ele>302.0</ele><time>2026-04-06T13:44:42.965Z</time></trkpt><trkpt lat="45.66016725683563" lon="8.371507135496689"><ele>301.0</ele><time>2026-04-06T13:44:43.965Z</time></trkpt><trkpt lat="45.6603067375031" lon="8.371250568047406"><ele>301.0</ele><time>2026-04-06T13:44:44.965Z</time></trkpt><trkpt lat="45.66045086331818" lon="8.370994736156213"><ele>301.0</ele><time>2026-04-06T13:44:45.965Z</time></trkpt><trkpt lat="45.6605991813328" lon="8.370741760688045"><ele>300.0</ele><time>2026-04-06T13:44:46.965Z</time></trkpt><trkpt lat="45.66075152001561" lon="8.370486644510583"><ele>299.0</ele><time>2026-04-06T13:44:47.965Z</time></trkpt><trkpt lat="45.66090645982955" lon="8.370236419315592"><ele>299.0</ele><time>2026-04-06T13:44:48.965Z</time></trkpt><trkpt lat="45.661068075699184" lon="8.369982708231591"><ele>299.0</ele><time>2026-04-06T13:44:49.965Z</time></trkpt><trkpt lat="45.66123219184305" lon="8.369736560917765"><ele>296.0</ele><time>2026-04-06T13:44:50.965Z</time></trkpt><trkpt lat="45.661401600730144" lon="8.369491954145085"><ele>293.0</ele><time>2026-04-06T13:44:51.965Z</time></trkpt><trkpt lat="45.66157413809149" lon="8.369252006273395"><ele>293.0</ele><time>2026-04-06T13:44:52.965Z</time></trkpt><trkpt lat="45.661749615477476" lon="8.369019006967534"><ele>293.0</ele><time>2026-04-06T13:44:53.965Z</time></trkpt><trkpt lat="45.66192743725686" lon="8.368787740605143"><ele>295.0</ele><time>2026-04-06T13:44:54.965Z</time></trkpt><trkpt lat="45.66209990143101" lon="8.368554090082535"><ele>297.0</ele><time>2026-04-06T13:44:55.965Z</time></trkpt><trkpt lat="45.66227908463385" lon="8.368333243922645"><ele>297.0</ele><time>2026-04-06T13:44:56.965Z</time></trkpt><trkpt lat="45.6624508828603" lon="8.368108071849985"><ele>297.0</ele><time>2026-04-06T13:44:57.965Z</time></trkpt><trkpt lat="45.66261916741725" lon="8.367883749655551"><ele>297.0</ele><time>2026-04-06T13:44:58.965Z</time></trkpt><trkpt lat="45.662787298097236" lon="8.367659499344544"><ele>297.0</ele><time>2026-04-06T13:44:59.965Z</time></trkpt><trkpt lat="45.662957704292076" lon="8.367441539050725"><ele>297.0</ele><time>2026-04-06T13:45:00.965Z</time></trkpt><trkpt lat="45.6631304303271" lon="8.367221154334802"><ele>297.0</ele><time>2026-04-06T13:45:01.965Z</time></trkpt><trkpt lat="45.663299116261605" lon="8.366998475645845"><ele>297.0</ele><time>2026-04-06T13:45:02.966Z</time></trkpt><trkpt lat="45.66347189307328" lon="8.36677237110165"><ele>297.0</ele><time>2026-04-06T13:45:03.965Z</time></trkpt><trkpt lat="45.6636389337644" lon="8.366541020991194"><ele>298.0</ele><time>2026-04-06T13:45:04.965Z</time></trkpt><trkpt lat="45.66380636099908" lon="8.366302170034034"><ele>299.0</ele><time>2026-04-06T13:45:05.966Z</time></trkpt><trkpt lat="45.66397984748556" lon="8.366076855843811"><ele>299.0</ele><time>2026-04-06T13:45:06.965Z</time></trkpt><trkpt lat="45.664154355193034" lon="8.365845325431067"><ele>299.0</ele><time>2026-04-06T13:45:07.965Z</time></trkpt><trkpt lat="45.66432786953316" lon="8.365606142604326"><ele>299.5</ele><time>2026-04-06T13:45:08.965Z</time></trkpt><trkpt lat="45.664499530907136" lon="8.365373060008395"><ele>300.0</ele><time>2026-04-06T13:45:09.966Z</time></trkpt><trkpt lat="45.664673152266545" lon="8.365142258493801"><ele>300.0</ele><time>2026-04-06T13:45:10.966Z</time></trkpt><trkpt lat="45.664855829751495" lon="8.36491064526483"><ele>300.0</ele><time>2026-04-06T13:45:11.965Z</time></trkpt><trkpt lat="45.66503409262132" lon="8.36468307532638"><ele>300.0</ele><time>2026-04-06T13:45:12.965Z</time></trkpt><trkpt lat="45.665213687417854" lon="8.364450892042916"><ele>300.0</ele><time>2026-04-06T13:45:13.965Z</time></trkpt><trkpt lat="45.665392975249205" lon="8.364213085413951"><ele>300.0</ele><time>2026-04-06T13:45:14.965Z</time></trkpt><trkpt lat="45.66557127174239" lon="8.36397832807171"><ele>300.0</ele><time>2026-04-06T13:45:15.965Z</time></trkpt><trkpt lat="45.665748261237404" lon="8.363735598954685"><ele>301.5</ele><time>2026-04-06T13:45:16.965Z</time></trkpt><trkpt lat="45.66592559733695" lon="8.36349589684152"><ele>303.0</ele><time>2026-04-06T13:45:17.965Z</time></trkpt><trkpt lat="45.666102340091605" lon="8.363254791643069"><ele>302.0</ele><time>2026-04-06T13:45:18.965Z</time></trkpt><trkpt lat="45.66627867324249" lon="8.36301544495823"><ele>301.0</ele><time>2026-04-06T13:45:19.965Z</time></trkpt><trkpt lat="45.66645551749315" lon="8.362780543151537"><ele>301.0</ele><time>2026-04-06T13:45:20.965Z</time></trkpt><trkpt lat="45.666631343551764" lon="8.362546472140293"><ele>301.0</ele><time>2026-04-06T13:45:21.965Z</time></trkpt><trkpt lat="45.66680638723073" lon="8.362310757848437"><ele>301.0</ele><time>2026-04-06T13:45:22.965Z</time></trkpt><trkpt lat="45.66698068952927" lon="8.362071553311994"><ele>301.0</ele><time>2026-04-06T13:45:23.965Z</time></trkpt><trkpt lat="45.66714756959449" lon="8.361824788453955"><ele>301.0</ele><time>2026-04-06T13:45:24.965Z</time></trkpt><trkpt lat="45.66731513602567" lon="8.361571616440807"><ele>301.0</ele><time>2026-04-06T13:45:25.965Z</time></trkpt><trkpt lat="45.66748059800119" lon="8.36130776685544"><ele>301.0</ele><time>2026-04-06T13:45:26.965Z</time></trkpt><trkpt lat="45.66764325894464" lon="8.3610402863781"><ele>301.0</ele><time>2026-04-06T13:45:27.965Z</time></trkpt><trkpt lat="45.667797257838195" lon="8.36076146072549"><ele>301.5</ele><time>2026-04-06T13:45:28.965Z</time></trkpt><trkpt lat="45.66795044053955" lon="8.360474291078077"><ele>302.0</ele><time>2026-04-06T13:45:29.965Z</time></trkpt><trkpt lat="45.66809499315402" lon="8.360181611966897"><ele>302.0</ele><time>2026-04-06T13:45:30.965Z</time></trkpt><trkpt lat="45.66822522893071" lon="8.359883791833967"><ele>302.0</ele><time>2026-04-06T13:45:31.964Z</time></trkpt><trkpt lat="45.66834799870028" lon="8.359570784267497"><ele>302.5</ele><time>2026-04-06T13:45:32.964Z</time></trkpt><trkpt lat="45.66846167522005" lon="8.359266242849637"><ele>303.0</ele><time>2026-04-06T13:45:33.964Z</time></trkpt><trkpt lat="45.66856989719059" lon="8.358958462690941"><ele>304.5</ele><time>2026-04-06T13:45:34.964Z</time></trkpt><trkpt lat="45.66867634685528" lon="8.35864848503298"><ele>306.0</ele><time>2026-04-06T13:45:35.964Z</time></trkpt><trkpt lat="45.66877042573466" lon="8.35833766503513"><ele>305.0</ele><time>2026-04-06T13:45:36.964Z</time></trkpt><trkpt lat="45.66885960167633" lon="8.358030259610608"><ele>304.0</ele><time>2026-04-06T13:45:37.964Z</time></trkpt><trkpt lat="45.668941373307135" lon="8.357723638930599"><ele>304.0</ele><time>2026-04-06T13:45:38.964Z</time></trkpt><trkpt lat="45.669011488427536" lon="8.35740926474123"><ele>304.0</ele><time>2026-04-06T13:45:39.964Z</time></trkpt><trkpt lat="45.66907842901846" lon="8.357098952225627"><ele>304.3333333333333</ele><time>2026-04-06T13:45:40.964Z</time></trkpt><trkpt lat="45.669142624473096" lon="8.356791875478137"><ele>304.6666666666667</ele><time>2026-04-06T13:45:41.964Z</time></trkpt><trkpt lat="45.66920314213574" lon="8.356489509335338"><ele>305.0</ele><time>2026-04-06T13:45:42.964Z</time></trkpt><trkpt lat="45.66925718795664" lon="8.35619177977309"><ele>305.0</ele><time>2026-04-06T13:45:43.964Z</time></trkpt><trkpt lat="45.66931172956334" lon="8.355891386995614"><ele>305.0</ele><time>2026-04-06T13:45:44.964Z</time></trkpt><trkpt lat="45.66936432967761" lon="8.355600560826524"><ele>305.0</ele><time>2026-04-06T13:45:45.964Z</time></trkpt><trkpt lat="45.669413758428526" lon="8.3553154711953"><ele>305.0</ele><time>2026-04-06T13:45:46.964Z</time></trkpt><trkpt lat="45.66945920952934" lon="8.355035019950021"><ele>305.0</ele><time>2026-04-06T13:45:47.964Z</time></trkpt><trkpt lat="45.66950556327004" lon="8.354758060891273"><ele>305.0</ele><time>2026-04-06T13:45:48.964Z</time></trkpt><trkpt lat="45.669552578322886" lon="8.354488100984414"><ele>305.0</ele><time>2026-04-06T13:45:49.964Z</time></trkpt><trkpt lat="45.66959709166169" lon="8.35421757540703"><ele>305.0</ele><time>2026-04-06T13:45:50.964Z</time></trkpt><trkpt lat="45.669641098461035" lon="8.353950245422329"><ele>305.0</ele><time>2026-04-06T13:45:51.964Z</time></trkpt><trkpt lat="45.669682533870436" lon="8.353695994244873"><ele>304.6666666666667</ele><time>2026-04-06T13:45:52.964Z</time></trkpt><trkpt lat="45.669721179147324" lon="8.353451435873001"><ele>304.3333333333333</ele><time>2026-04-06T13:45:53.964Z</time></trkpt><trkpt lat="45.669760184392054" lon="8.353212213874892"><ele>304.0</ele><time>2026-04-06T13:45:54.964Z</time></trkpt><trkpt lat="45.66979531465382" lon="8.352981153944029"><ele>304.5</ele><time>2026-04-06T13:45:55.964Z</time></trkpt><trkpt lat="45.669829176549385" lon="8.352764553774259"><ele>305.0</ele><time>2026-04-06T13:45:56.964Z</time></trkpt><trkpt lat="45.66986060242779" lon="8.352566724070098"><ele>305.5</ele><time>2026-04-06T13:45:57.964Z</time></trkpt><trkpt lat="45.66989246369576" lon="8.352382280546628"><ele>306.0</ele><time>2026-04-06T13:45:58.964Z</time></trkpt><trkpt lat="45.66992427835551" lon="8.35220888030998"><ele>306.0</ele><time>2026-04-06T13:45:59.964Z</time></trkpt><trkpt lat="45.6699564457262" lon="8.352046632693929"><ele>306.0</ele><time>2026-04-06T13:46:00.964Z</time></trkpt><trkpt lat="45.6699909622239" lon="8.351890121546042"><ele>306.0</ele><time>2026-04-06T13:46:01.964Z</time></trkpt><trkpt lat="45.670029128395974" lon="8.351750511238432"><ele>306.0</ele><time>2026-04-06T13:46:02.964Z</time></trkpt><trkpt lat="45.670072549030664" lon="8.351623250415006"><ele>306.0</ele><time>2026-04-06T13:46:03.964Z</time></trkpt><trkpt lat="45.670119444544106" lon="8.351506748894476"><ele>306.0</ele><time>2026-04-06T13:46:04.964Z</time></trkpt><trkpt lat="45.670167474655365" lon="8.351398133640114"><ele>306.0</ele><time>2026-04-06T13:46:05.964Z</time></trkpt><trkpt lat="45.670215917913936" lon="8.351295097070553"><ele>306.0</ele><time>2026-04-06T13:46:06.964Z</time></trkpt><trkpt lat="45.670268064390974" lon="8.3512029848775"><ele>306.0</ele><time>2026-04-06T13:46:07.964Z</time></trkpt><trkpt lat="45.6703292921305" lon="8.351129392743497"><ele>306.0</ele><time>2026-04-06T13:46:08.964Z</time></trkpt><trkpt lat="45.67039634578219" lon="8.351071328386144"><ele>306.0</ele><time>2026-04-06T13:46:09.964Z</time></trkpt><trkpt lat="45.67046348463321" lon="8.351003110941589"><ele>306.1666666666667</ele><time>2026-04-06T13:46:10.964Z</time></trkpt><trkpt lat="45.67051452076276" lon="8.350911129517886"><ele>306.3333333333333</ele><time>2026-04-06T13:46:11.964Z</time></trkpt><trkpt lat="45.67055236233545" lon="8.350809976394004"><ele>306.5</ele><time>2026-04-06T13:46:12.964Z</time></trkpt><trkpt lat="45.670543688713124" lon="8.350684672149125"><ele>306.66666666666663</ele><time>2026-04-06T13:46:13.964Z</time></trkpt><trkpt lat="45.67050843158444" lon="8.350568958877323"><ele>306.8333333333333</ele><time>2026-04-06T13:46:14.964Z</time></trkpt><trkpt lat="45.67043680180785" lon="8.35046383234606"><ele>307.0</ele><time>2026-04-06T13:46:15.964Z</time></trkpt><trkpt lat="45.670351249177195" lon="8.350395847111118"><ele>307.0</ele><time>2026-04-06T13:46:16.964Z</time></trkpt><trkpt lat="45.67032492040958" lon="8.35021656961842"><ele>307.0</ele><time>2026-04-06T13:46:17.964Z</time></trkpt><trkpt lat="45.670317405656284" lon="8.350055904025709"><ele>307.0</ele><time>2026-04-06T13:46:18.964Z</time></trkpt><trkpt lat="45.670365834901105" lon="8.34988813037246"><ele>307.0</ele><time>2026-04-06T13:46:19.964Z</time></trkpt><trkpt lat="45.67039703697117" lon="8.349697115420922"><ele>307.0</ele><time>2026-04-06T13:46:20.964Z</time></trkpt><trkpt lat="45.6704508951518" lon="8.349502078389277"><ele>307.0</ele><time>2026-04-06T13:46:21.964Z</time></trkpt><trkpt lat="45.67049325433193" lon="8.349286289299114"><ele>307.0</ele><time>2026-04-06T13:46:22.964Z</time></trkpt><trkpt lat="45.670532698207865" lon="8.34906616168117"><ele>306.66666666666663</ele><time>2026-04-06T13:46:23.964Z</time></trkpt><trkpt lat="45.67057579970338" lon="8.348830238397252"><ele>306.3333333333333</ele><time>2026-04-06T13:46:24.964Z</time></trkpt><trkpt lat="45.67061728715603" lon="8.348596404788083"><ele>306.0</ele><time>2026-04-06T13:46:25.964Z</time></trkpt><trkpt lat="45.67065449699902" lon="8.3483811445134"><ele>306.0</ele><time>2026-04-06T13:46:26.964Z</time></trkpt><trkpt lat="45.670693491529995" lon="8.348164911810107"><ele>306.0</ele><time>2026-04-06T13:46:27.964Z</time></trkpt><trkpt lat="45.67073598611059" lon="8.34794981324299"><ele>306.0</ele><time>2026-04-06T13:46:28.964Z</time></trkpt><trkpt lat="45.670776835515966" lon="8.347739861454121"><ele>305.6666666666667</ele><time>2026-04-06T13:46:29.964Z</time></trkpt><trkpt lat="45.67081844051982" lon="8.34753089079559"><ele>305.33333333333337</ele><time>2026-04-06T13:46:30.964Z</time></trkpt><trkpt lat="45.67085898639831" lon="8.347313446544257"><ele>305.0</ele><time>2026-04-06T13:46:31.963Z</time></trkpt><trkpt lat="45.67089581033356" lon="8.347085553846842"><ele>304.0</ele><time>2026-04-06T13:46:32.963Z</time></trkpt><trkpt lat="45.67094314886591" lon="8.346840657500234"><ele>303.0</ele><time>2026-04-06T13:46:33.963Z</time></trkpt><trkpt lat="45.67099416534178" lon="8.346588550587231"><ele>302.0</ele><time>2026-04-06T13:46:34.963Z</time></trkpt><trkpt lat="45.67104462873122" lon="8.34634063937948"><ele>302.0</ele><time>2026-04-06T13:46:35.963Z</time></trkpt><trkpt lat="45.671095721054115" lon="8.346106364258226"><ele>302.0</ele><time>2026-04-06T13:46:36.963Z</time></trkpt><trkpt lat="45.67114061432125" lon="8.345879663310047"><ele>302.0</ele><time>2026-04-06T13:46:37.963Z</time></trkpt><trkpt lat="45.671185362176956" lon="8.345656397778994"><ele>304.6666666666667</ele><time>2026-04-06T13:46:38.963Z</time></trkpt><trkpt lat="45.67122693164905" lon="8.345427634539277"><ele>307.3333333333333</ele><time>2026-04-06T13:46:39.963Z</time></trkpt><trkpt lat="45.671271242036916" lon="8.345187950023027"><ele>310.0</ele><time>2026-04-06T13:46:40.963Z</time></trkpt><trkpt lat="45.67131845743385" lon="8.344934499850764"><ele>308.0</ele><time>2026-04-06T13:46:41.963Z</time></trkpt><trkpt lat="45.67136594040165" lon="8.344657774803935"><ele>306.0</ele><time>2026-04-06T13:46:42.963Z</time></trkpt><trkpt lat="45.67142126892642" lon="8.344360150172257"><ele>304.0</ele><time>2026-04-06T13:46:43.963Z</time></trkpt><trkpt lat="45.67148621041893" lon="8.34403772796598"><ele>301.5</ele><time>2026-04-06T13:46:44.963Z</time></trkpt><trkpt lat="45.671562411782446" lon="8.343700970139336"><ele>299.0</ele><time>2026-04-06T13:46:45.963Z</time></trkpt><trkpt lat="45.67165483814969" lon="8.343355599015183"><ele>299.0</ele><time>2026-04-06T13:46:46.963Z</time></trkpt><trkpt lat="45.671753883612105" lon="8.343028248731839"><ele>299.0</ele><time>2026-04-06T13:46:47.963Z</time></trkpt><trkpt lat="45.671851199746676" lon="8.34272476893434"><ele>301.0</ele><time>2026-04-06T13:46:48.963Z</time></trkpt><trkpt lat="45.671948019256405" lon="8.342427249874556"><ele>303.0</ele><time>2026-04-06T13:46:49.963Z</time></trkpt><trkpt lat="45.672055443590224" lon="8.3421368894799"><ele>303.3333333333333</ele><time>2026-04-06T13:46:50.963Z</time></trkpt><trkpt lat="45.672171542236846" lon="8.341861814855442"><ele>303.66666666666663</ele><time>2026-04-06T13:46:51.963Z</time></trkpt><trkpt lat="45.67228758423347" lon="8.341597660842295"><ele>304.0</ele><time>2026-04-06T13:46:52.963Z</time></trkpt><trkpt lat="45.67240732218094" lon="8.34133970580273"><ele>303.3333333333333</ele><time>2026-04-06T13:46:53.963Z</time></trkpt><trkpt lat="45.672528543297084" lon="8.341087617123566"><ele>302.6666666666667</ele><time>2026-04-06T13:46:54.963Z</time></trkpt><trkpt lat="45.67266209633501" lon="8.340842264993215"><ele>302.0</ele><time>2026-04-06T13:46:55.963Z</time></trkpt><trkpt lat="45.672802156970704" lon="8.340605917746398"><ele>302.0</ele><time>2026-04-06T13:46:56.963Z</time></trkpt><trkpt lat="45.67295058650373" lon="8.340375675768852"><ele>302.0</ele><time>2026-04-06T13:46:57.963Z</time></trkpt><trkpt lat="45.67310374864401" lon="8.340145354476531"><ele>302.0</ele><time>2026-04-06T13:46:58.963Z</time></trkpt><trkpt lat="45.673257937932675" lon="8.339920962169964"><ele>302.33333333333337</ele><time>2026-04-06T13:46:59.963Z</time></trkpt><trkpt lat="45.67341253983213" lon="8.339694623194761"><ele>302.6666666666667</ele><time>2026-04-06T13:47:00.963Z</time></trkpt><trkpt lat="45.67356236324832" lon="8.339464621269634"><ele>303.0</ele><time>2026-04-06T13:47:01.963Z</time></trkpt><trkpt lat="45.67370871972306" lon="8.339236845455934"><ele>303.0</ele><time>2026-04-06T13:47:02.963Z</time></trkpt><trkpt lat="45.673857683319504" lon="8.339023102905186"><ele>303.0</ele><time>2026-04-06T13:47:03.963Z</time></trkpt><trkpt lat="45.674003937314815" lon="8.338803311549832"><ele>303.0</ele><time>2026-04-06T13:47:04.963Z</time></trkpt><trkpt lat="45.67415354763543" lon="8.33859351636237"><ele>303.0</ele><time>2026-04-06T13:47:05.963Z</time></trkpt><trkpt lat="45.6742980534398" lon="8.338378319509058"><ele>303.0</ele><time>2026-04-06T13:47:06.963Z</time></trkpt><trkpt lat="45.674439946613134" lon="8.338167144273122"><ele>303.0</ele><time>2026-04-06T13:47:07.963Z</time></trkpt><trkpt lat="45.67458357849724" lon="8.33795681402373"><ele>303.0</ele><time>2026-04-06T13:47:08.964Z</time></trkpt><trkpt lat="45.67472521101331" lon="8.337738216863983"><ele>303.0</ele><time>2026-04-06T13:47:09.964Z</time></trkpt><trkpt lat="45.6748614352746" lon="8.337510404762664"><ele>303.0</ele><time>2026-04-06T13:47:10.964Z</time></trkpt><trkpt lat="45.674990391936866" lon="8.337266486044893"><ele>303.0</ele><time>2026-04-06T13:47:11.964Z</time></trkpt><trkpt lat="45.675111685764044" lon="8.33700871249449"><ele>303.0</ele><time>2026-04-06T13:47:12.964Z</time></trkpt><trkpt lat="45.675220205788975" lon="8.33673634176535"><ele>303.0</ele><time>2026-04-06T13:47:13.964Z</time></trkpt><trkpt lat="45.6753125405191" lon="8.336443883693802"><ele>303.0</ele><time>2026-04-06T13:47:14.965Z</time></trkpt><trkpt lat="45.67539623291595" lon="8.336140678073107"><ele>303.0</ele><time>2026-04-06T13:47:15.964Z</time></trkpt><trkpt lat="45.67546742889734" lon="8.335829691043648"><ele>303.5</ele><time>2026-04-06T13:47:16.964Z</time></trkpt><trkpt lat="45.67552372240284" lon="8.335514440090954"><ele>304.0</ele><time>2026-04-06T13:47:17.964Z</time></trkpt><trkpt lat="45.67556505603748" lon="8.33520079492849"><ele>304.0</ele><time>2026-04-06T13:47:18.964Z</time></trkpt><trkpt lat="45.67558803507883" lon="8.334883533624565"><ele>304.0</ele><time>2026-04-06T13:47:19.964Z</time></trkpt><trkpt lat="45.67559705486598" lon="8.334565828399858"><ele>304.0</ele><time>2026-04-06T13:47:20.964Z</time></trkpt><trkpt lat="45.6755921039703" lon="8.334249129000035"><ele>303.3333333333333</ele><time>2026-04-06T13:47:21.964Z</time></trkpt><trkpt lat="45.67557282448441" lon="8.333933739506252"><ele>302.6666666666667</ele><time>2026-04-06T13:47:22.964Z</time></trkpt><trkpt lat="45.67554201245004" lon="8.333625077049891"><ele>302.0</ele><time>2026-04-06T13:47:23.964Z</time></trkpt><trkpt lat="45.67549964130472" lon="8.333323688905526"><ele>300.6666666666667</ele><time>2026-04-06T13:47:24.964Z</time></trkpt><trkpt lat="45.675442255477755" lon="8.333032895691327"><ele>299.3333333333333</ele><time>2026-04-06T13:47:25.964Z</time></trkpt><trkpt lat="45.67536926957001" lon="8.33274497286876"><ele>298.0</ele><time>2026-04-06T13:47:26.964Z</time></trkpt><trkpt lat="45.67528570908526" lon="8.332466263468927"><ele>298.3333333333333</ele><time>2026-04-06T13:47:27.964Z</time></trkpt><trkpt lat="45.67519183475789" lon="8.332198718452675"><ele>298.6666666666667</ele><time>2026-04-06T13:47:28.964Z</time></trkpt><trkpt lat="45.67508771846545" lon="8.331935968305443"><ele>299.0</ele><time>2026-04-06T13:47:29.964Z</time></trkpt><trkpt lat="45.674977850003565" lon="8.331675628478308"><ele>299.0</ele><time>2026-04-06T13:47:30.964Z</time></trkpt><trkpt lat="45.6748688649911" lon="8.331419945736142"><ele>299.0</ele><time>2026-04-06T13:47:31.964Z</time></trkpt><trkpt lat="45.6747609833715" lon="8.331168344157929"><ele>299.0</ele><time>2026-04-06T13:47:32.964Z</time></trkpt><trkpt lat="45.67465616771503" lon="8.330922761290404"><ele>299.33333333333337</ele><time>2026-04-06T13:47:33.964Z</time></trkpt><trkpt lat="45.674553324061634" lon="8.330684693236114"><ele>299.6666666666667</ele><time>2026-04-06T13:47:34.964Z</time></trkpt><trkpt lat="45.67445272701864" lon="8.330448189258542"><ele>300.0</ele><time>2026-04-06T13:47:35.964Z</time></trkpt><trkpt lat="45.67435252345368" lon="8.330217346241742"><ele>300.6666666666667</ele><time>2026-04-06T13:47:36.964Z</time></trkpt><trkpt lat="45.67425172188749" lon="8.32998646212731"><ele>301.33333333333337</ele><time>2026-04-06T13:47:37.964Z</time></trkpt><trkpt lat="45.67415121629671" lon="8.329755768045588"><ele>302.0</ele><time>2026-04-06T13:47:38.964Z</time></trkpt><trkpt lat="45.674053280454885" lon="8.329523486988485"><ele>302.6666666666667</ele><time>2026-04-06T13:47:39.964Z</time></trkpt><trkpt lat="45.67395113729206" lon="8.329289702188044"><ele>303.3333333333333</ele><time>2026-04-06T13:47:40.964Z</time></trkpt><trkpt lat="45.67384733313458" lon="8.32905493455162"><ele>304.0</ele><time>2026-04-06T13:47:41.964Z</time></trkpt><trkpt lat="45.67374482413262" lon="8.328822404640453"><ele>305.0</ele><time>2026-04-06T13:47:42.964Z</time></trkpt><trkpt lat="45.6736416517415" lon="8.328590358610287"><ele>306.0</ele><time>2026-04-06T13:47:43.964Z</time></trkpt><trkpt lat="45.67354350421728" lon="8.328358874835779"><ele>307.0</ele><time>2026-04-06T13:47:44.964Z</time></trkpt><trkpt lat="45.673443275573085" lon="8.328130914160047"><ele>306.66666666666663</ele><time>2026-04-06T13:47:45.964Z</time></trkpt><trkpt lat="45.67334784168324" lon="8.327911481404637"><ele>306.3333333333333</ele><time>2026-04-06T13:47:46.964Z</time></trkpt><trkpt lat="45.673258619559874" lon="8.327699912247029"><ele>306.0</ele><time>2026-04-06T13:47:47.964Z</time></trkpt><trkpt lat="45.67317393567454" lon="8.32749653539542"><ele>306.0</ele><time>2026-04-06T13:47:48.964Z</time></trkpt><trkpt lat="45.67309217210405" lon="8.32729957601764"><ele>306.0</ele><time>2026-04-06T13:47:49.964Z</time></trkpt><trkpt lat="45.67300822506159" lon="8.327109322160776"><ele>306.0</ele><time>2026-04-06T13:47:50.964Z</time></trkpt><trkpt lat="45.67292568199777" lon="8.326922307245676"><ele>306.0</ele><time>2026-04-06T13:47:51.964Z</time></trkpt><trkpt lat="45.67284542072392" lon="8.326738159038236"><ele>306.0</ele><time>2026-04-06T13:47:52.963Z</time></trkpt><trkpt lat="45.67276982916353" lon="8.326563460574514"><ele>306.0</ele><time>2026-04-06T13:47:53.963Z</time></trkpt><trkpt lat="45.672697889123704" lon="8.3263927204573"><ele>306.0</ele><time>2026-04-06T13:47:54.963Z</time></trkpt><trkpt lat="45.67262685116074" lon="8.326232057376613"><ele>306.75</ele><time>2026-04-06T13:47:55.963Z</time></trkpt><trkpt lat="45.6725576773367" lon="8.326075643236083"><ele>307.5</ele><time>2026-04-06T13:47:56.963Z</time></trkpt><trkpt lat="45.67248963597292" lon="8.325923276986966"><ele>308.25</ele><time>2026-04-06T13:47:57.963Z</time></trkpt><trkpt lat="45.672426343338905" lon="8.32578155890385"><ele>309.0</ele><time>2026-04-06T13:47:58.963Z</time></trkpt><trkpt lat="45.67236949439414" lon="8.325647950925328"><ele>308.2</ele><time>2026-04-06T13:47:59.963Z</time></trkpt><trkpt lat="45.67231363091868" lon="8.3255200778047"><ele>307.4</ele><time>2026-04-06T13:48:00.963Z</time></trkpt><trkpt lat="45.672262547132256" lon="8.325390751513869"><ele>306.6</ele><time>2026-04-06T13:48:01.963Z</time></trkpt><trkpt lat="45.672216360635666" lon="8.325262796212282"><ele>305.8</ele><time>2026-04-06T13:48:02.963Z</time></trkpt><trkpt lat="45.672177178690035" lon="8.325145013659826"><ele>305.0</ele><time>2026-04-06T13:48:03.963Z</time></trkpt><trkpt lat="45.672163969344005" lon="8.325023618355399"><ele>305.0</ele><time>2026-04-06T13:48:04.963Z</time></trkpt><trkpt lat="45.67217073118845" lon="8.324903032990907"><ele>305.0</ele><time>2026-04-06T13:48:05.963Z</time></trkpt><trkpt lat="45.672189261131784" lon="8.324779788469002"><ele>305.0</ele><time>2026-04-06T13:48:06.963Z</time></trkpt><trkpt lat="45.67220490203724" lon="8.324654461863137"><ele>305.0</ele><time>2026-04-06T13:48:07.963Z</time></trkpt><trkpt lat="45.67220112048728" lon="8.324536561365745"><ele>305.0</ele><time>2026-04-06T13:48:08.963Z</time></trkpt><trkpt lat="45.67218955698658" lon="8.324407074781833"><ele>305.0</ele><time>2026-04-06T13:48:10.963Z</time></trkpt><trkpt lat="45.67224221014021" lon="8.324219179838595"><ele>305.1666666666667</ele><time>2026-04-06T13:48:15.963Z</time></trkpt><trkpt lat="45.672323213702406" lon="8.324137066435314"><ele>305.33333333333337</ele><time>2026-04-06T13:48:17.963Z</time></trkpt><trkpt lat="45.67236974982215" lon="8.324073046358412"><ele>305.5</ele><time>2026-04-06T13:48:18.963Z</time></trkpt><trkpt lat="45.672426137364106" lon="8.324002939567187"><ele>305.6666666666667</ele><time>2026-04-06T13:48:19.963Z</time></trkpt><trkpt lat="45.67248820071544" lon="8.323930065164967"><ele>305.8333333333333</ele><time>2026-04-06T13:48:20.963Z</time></trkpt><trkpt lat="45.67255115113476" lon="8.323863936181287"><ele>306.0</ele><time>2026-04-06T13:48:21.963Z</time></trkpt><trkpt lat="45.67262248973738" lon="8.323794451545544"><ele>306.0</ele><time>2026-04-06T13:48:22.963Z</time></trkpt><trkpt lat="45.672701058039436" lon="8.323723725134512"><ele>306.0</ele><time>2026-04-06T13:48:23.963Z</time></trkpt><trkpt lat="45.672787912051895" lon="8.323650399099288"><ele>306.0</ele><time>2026-04-06T13:48:24.963Z</time></trkpt><trkpt lat="45.672876170519906" lon="8.323573129823286"><ele>306.0</ele><time>2026-04-06T13:48:25.963Z</time></trkpt><trkpt lat="45.67296307304315" lon="8.323497297202852"><ele>306.0</ele><time>2026-04-06T13:48:26.963Z</time></trkpt><trkpt lat="45.673049224586066" lon="8.323418399345295"><ele>306.0</ele><time>2026-04-06T13:48:27.963Z</time></trkpt><trkpt lat="45.67314053463572" lon="8.323336105370622"><ele>306.0</ele><time>2026-04-06T13:48:28.963Z</time></trkpt><trkpt lat="45.67323884923166" lon="8.323250865142356"><ele>306.0</ele><time>2026-04-06T13:48:29.963Z</time></trkpt><trkpt lat="45.67333845784204" lon="8.32315949406991"><ele>306.0</ele><time>2026-04-06T13:48:30.963Z</time></trkpt><trkpt lat="45.6734433421631" lon="8.323070846905269"><ele>306.25</ele><time>2026-04-06T13:48:31.963Z</time></trkpt><trkpt lat="45.6735457430684" lon="8.322974712322571"><ele>306.5</ele><time>2026-04-06T13:48:32.963Z</time></trkpt><trkpt lat="45.673647901573865" lon="8.322882041217886"><ele>306.75</ele><time>2026-04-06T13:48:33.963Z</time></trkpt><trkpt lat="45.67375171776416" lon="8.322785839573045"><ele>307.0</ele><time>2026-04-06T13:48:34.963Z</time></trkpt><trkpt lat="45.673856961665045" lon="8.322691192804768"><ele>307.25</ele><time>2026-04-06T13:48:35.963Z</time></trkpt><trkpt lat="45.673961997149235" lon="8.322598329541668"><ele>307.5</ele><time>2026-04-06T13:48:36.963Z</time></trkpt><trkpt lat="45.67406755402772" lon="8.322504604490225"><ele>307.75</ele><time>2026-04-06T13:48:37.963Z</time></trkpt><trkpt lat="45.6741714753913" lon="8.322407109385344"><ele>308.0</ele><time>2026-04-06T13:48:38.963Z</time></trkpt><trkpt lat="45.674277881368155" lon="8.322315477529038"><ele>308.75</ele><time>2026-04-06T13:48:39.963Z</time></trkpt><trkpt lat="45.67438024998485" lon="8.322226462242963"><ele>309.5</ele><time>2026-04-06T13:48:40.963Z</time></trkpt><trkpt lat="45.674481642271914" lon="8.322135632311367"><ele>310.25</ele><time>2026-04-06T13:48:41.963Z</time></trkpt><trkpt lat="45.67458287627749" lon="8.322046845949197"><ele>311.0</ele><time>2026-04-06T13:48:42.963Z</time></trkpt><trkpt lat="45.674689869028825" lon="8.321960285233049"><ele>311.0</ele><time>2026-04-06T13:48:43.963Z</time></trkpt><trkpt lat="45.67480056505201" lon="8.321876893914936"><ele>311.0</ele><time>2026-04-06T13:48:44.963Z</time></trkpt><trkpt lat="45.674907117687454" lon="8.321781507272325"><ele>311.0</ele><time>2026-04-06T13:48:45.963Z</time></trkpt><trkpt lat="45.67501674507238" lon="8.321689512297072"><ele>311.0</ele><time>2026-04-06T13:48:46.963Z</time></trkpt><trkpt lat="45.67512490909465" lon="8.321596358464253"><ele>311.0</ele><time>2026-04-06T13:48:47.963Z</time></trkpt><trkpt lat="45.67523155795463" lon="8.321501072562679"><ele>311.0</ele><time>2026-04-06T13:48:48.963Z</time></trkpt><trkpt lat="45.67533730658992" lon="8.321404156876987"><ele>311.0</ele><time>2026-04-06T13:48:49.963Z</time></trkpt><trkpt lat="45.675441007382055" lon="8.321300161884855"><ele>311.0</ele><time>2026-04-06T13:48:50.963Z</time></trkpt><trkpt lat="45.675548694870066" lon="8.321201929667534"><ele>311.25</ele><time>2026-04-06T13:48:51.963Z</time></trkpt><trkpt lat="45.675657351167" lon="8.321104916444419"><ele>311.5</ele><time>2026-04-06T13:48:52.962Z</time></trkpt><trkpt lat="45.67576923102903" lon="8.321006764855122"><ele>311.75</ele><time>2026-04-06T13:48:53.962Z</time></trkpt><trkpt lat="45.675882450501994" lon="8.320912287611536"><ele>312.0</ele><time>2026-04-06T13:48:54.962Z</time></trkpt><trkpt lat="45.67599413572881" lon="8.320814546278788"><ele>312.0</ele><time>2026-04-06T13:48:55.962Z</time></trkpt><trkpt lat="45.676105040891684" lon="8.320715431209324"><ele>312.0</ele><time>2026-04-06T13:48:56.962Z</time></trkpt><trkpt lat="45.676215038294124" lon="8.320616785727385"><ele>312.0</ele><time>2026-04-06T13:48:57.962Z</time></trkpt><trkpt lat="45.676324914667916" lon="8.320511328659043"><ele>312.0</ele><time>2026-04-06T13:48:58.962Z</time></trkpt><trkpt lat="45.67643537446872" lon="8.320410819414334"><ele>312.0</ele><time>2026-04-06T13:48:59.962Z</time></trkpt><trkpt lat="45.67654736114839" lon="8.320305785430012"><ele>312.0</ele><time>2026-04-06T13:49:00.962Z</time></trkpt><trkpt lat="45.67666229202848" lon="8.320198716338012"><ele>312.0</ele><time>2026-04-06T13:49:01.962Z</time></trkpt><trkpt lat="45.676781712823036" lon="8.320090071789599"><ele>312.0</ele><time>2026-04-06T13:49:02.962Z</time></trkpt><trkpt lat="45.67690295351796" lon="8.319982665976571"><ele>311.75</ele><time>2026-04-06T13:49:03.962Z</time></trkpt><trkpt lat="45.67702679543063" lon="8.319872421029054"><ele>311.5</ele><time>2026-04-06T13:49:04.962Z</time></trkpt><trkpt lat="45.67714948457232" lon="8.319764859660252"><ele>311.25</ele><time>2026-04-06T13:49:05.962Z</time></trkpt><trkpt lat="45.6772719995414" lon="8.319650201356959"><ele>311.0</ele><time>2026-04-06T13:49:06.962Z</time></trkpt><trkpt lat="45.67739484160483" lon="8.319537032128618"><ele>311.0</ele><time>2026-04-06T13:49:07.962Z</time></trkpt><trkpt lat="45.67751812760727" lon="8.319425058960796"><ele>311.0</ele><time>2026-04-06T13:49:08.962Z</time></trkpt><trkpt lat="45.67764271916486" lon="8.319315611440521"><ele>311.0</ele><time>2026-04-06T13:49:09.962Z</time></trkpt><trkpt lat="45.67776367717606" lon="8.319207481019422"><ele>311.0</ele><time>2026-04-06T13:49:10.962Z</time></trkpt><trkpt lat="45.677894680712235" lon="8.319113341225814"><ele>311.25</ele><time>2026-04-06T13:49:11.962Z</time></trkpt><trkpt lat="45.67801422173514" lon="8.319005444578096"><ele>311.5</ele><time>2026-04-06T13:49:12.962Z</time></trkpt><trkpt lat="45.67813204217955" lon="8.318898059858254"><ele>311.75</ele><time>2026-04-06T13:49:13.962Z</time></trkpt><trkpt lat="45.67825118328279" lon="8.31879113902546"><ele>312.0</ele><time>2026-04-06T13:49:14.963Z</time></trkpt><trkpt lat="45.678370571225045" lon="8.318684167569739"><ele>312.25</ele><time>2026-04-06T13:49:15.962Z</time></trkpt><trkpt lat="45.678488578228844" lon="8.318579896860895"><ele>312.5</ele><time>2026-04-06T13:49:16.962Z</time></trkpt><trkpt lat="45.67860431176658" lon="8.318474663669148"><ele>312.75</ele><time>2026-04-06T13:49:17.963Z</time></trkpt><trkpt lat="45.67871897461903" lon="8.318377340655719"><ele>313.0</ele><time>2026-04-06T13:49:18.962Z</time></trkpt><trkpt lat="45.67882845240107" lon="8.31827982007588"><ele>313.0</ele><time>2026-04-06T13:49:19.962Z</time></trkpt><trkpt lat="45.678937711064606" lon="8.318180703565908"><ele>313.0</ele><time>2026-04-06T13:49:20.963Z</time></trkpt><trkpt lat="45.67904689031128" lon="8.318085122055058"><ele>313.0</ele><time>2026-04-06T13:49:21.962Z</time></trkpt><trkpt lat="45.679154194127406" lon="8.31797574286216"><ele>313.0</ele><time>2026-04-06T13:49:22.962Z</time></trkpt><trkpt lat="45.6792645526038" lon="8.317870509619846"><ele>314.0</ele><time>2026-04-06T13:49:23.962Z</time></trkpt><trkpt lat="45.67937889728624" lon="8.31777675813359"><ele>315.0</ele><time>2026-04-06T13:49:24.963Z</time></trkpt><trkpt lat="45.679490100170106" lon="8.317679474796947"><ele>316.0</ele><time>2026-04-06T13:49:25.963Z</time></trkpt><trkpt lat="45.67960000628338" lon="8.317580832316594"><ele>317.0</ele><time>2026-04-06T13:49:26.962Z</time></trkpt><trkpt lat="45.67971122343746" lon="8.317481794898109"><ele>317.25</ele><time>2026-04-06T13:49:27.962Z</time></trkpt><trkpt lat="45.67982038092784" lon="8.317384438666489"><ele>317.5</ele><time>2026-04-06T13:49:28.962Z</time></trkpt><trkpt lat="45.67992938175784" lon="8.317284971524924"><ele>317.75</ele><time>2026-04-06T13:49:29.962Z</time></trkpt><trkpt lat="45.68003416143618" lon="8.317185863776464"><ele>318.0</ele><time>2026-04-06T13:49:30.962Z</time></trkpt><trkpt lat="45.68013865816167" lon="8.317089845793532"><ele>318.5</ele><time>2026-04-06T13:49:31.962Z</time></trkpt><trkpt lat="45.68024076144408" lon="8.316996070074104"><ele>319.0</ele><time>2026-04-06T13:49:32.962Z</time></trkpt><trkpt lat="45.68035339833154" lon="8.316917108660292"><ele>319.5</ele><time>2026-04-06T13:49:33.962Z</time></trkpt><trkpt lat="45.68045282651652" lon="8.316827099437235"><ele>320.0</ele><time>2026-04-06T13:49:34.962Z</time></trkpt><trkpt lat="45.68054301446545" lon="8.316743158999584"><ele>320.2</ele><time>2026-04-06T13:49:35.962Z</time></trkpt><trkpt lat="45.68062905479161" lon="8.316668780696167"><ele>320.4</ele><time>2026-04-06T13:49:36.962Z</time></trkpt><trkpt lat="45.68071148769529" lon="8.316608153627866"><ele>320.6</ele><time>2026-04-06T13:49:37.962Z</time></trkpt><trkpt lat="45.68078749237228" lon="8.316540935044994"><ele>320.8</ele><time>2026-04-06T13:49:38.962Z</time></trkpt><trkpt lat="45.68085748668099" lon="8.31646988860469"><ele>321.0</ele><time>2026-04-06T13:49:39.962Z</time></trkpt><trkpt lat="45.680924996264935" lon="8.316399698829956"><ele>321.1666666666667</ele><time>2026-04-06T13:49:40.962Z</time></trkpt><trkpt lat="45.68099188496161" lon="8.316330070401746"><ele>321.3333333333333</ele><time>2026-04-06T13:49:41.962Z</time></trkpt><trkpt lat="45.681058282544974" lon="8.31627935719294"><ele>321.5</ele><time>2026-04-06T13:49:42.962Z</time></trkpt><trkpt lat="45.68109950669977" lon="8.31619895402464"><ele>321.66666666666663</ele><time>2026-04-06T13:49:43.962Z</time></trkpt><trkpt lat="45.6811196131385" lon="8.316013310097418"><ele>321.8333333333333</ele><time>2026-04-06T13:49:45.962Z</time></trkpt><trkpt lat="45.68113972283244" lon="8.315909963750071"><ele>322.0</ele><time>2026-04-06T13:49:46.962Z</time></trkpt><trkpt lat="45.68117488361999" lon="8.315793152628228"><ele>322.20000000000005</ele><time>2026-04-06T13:49:47.962Z</time></trkpt><trkpt lat="45.681211341786415" lon="8.3156594953234"><ele>322.4</ele><time>2026-04-06T13:49:48.962Z</time></trkpt><trkpt lat="45.68125610007354" lon="8.315521265309169"><ele>322.6</ele><time>2026-04-06T13:49:49.962Z</time></trkpt><trkpt lat="45.68130483118552" lon="8.315373329337778"><ele>322.79999999999995</ele><time>2026-04-06T13:49:50.962Z</time></trkpt><trkpt lat="45.68135931046038" lon="8.315216346107317"><ele>323.0</ele><time>2026-04-06T13:49:51.962Z</time></trkpt><trkpt lat="45.68142105084931" lon="8.315056186748595"><ele>323.4</ele><time>2026-04-06T13:49:52.962Z</time></trkpt><trkpt lat="45.68148231820003" lon="8.314906521622737"><ele>323.79999999999995</ele><time>2026-04-06T13:49:53.962Z</time></trkpt><trkpt lat="45.68153748923894" lon="8.314767100295931"><ele>324.2</ele><time>2026-04-06T13:49:54.962Z</time></trkpt><trkpt lat="45.681591741592584" lon="8.314639344950958"><ele>324.6</ele><time>2026-04-06T13:49:55.962Z</time></trkpt><trkpt lat="45.68165030008835" lon="8.314513696538532"><ele>325.0</ele><time>2026-04-06T13:49:56.962Z</time></trkpt><trkpt lat="45.68170841186862" lon="8.314389786589686"><ele>325.0</ele><time>2026-04-06T13:49:57.962Z</time></trkpt><trkpt lat="45.68176965481592" lon="8.314269017733547"><ele>325.0</ele><time>2026-04-06T13:49:58.962Z</time></trkpt><trkpt lat="45.681832070938704" lon="8.314154772198396"><ele>325.0</ele><time>2026-04-06T13:49:59.962Z</time></trkpt><trkpt lat="45.681898048742475" lon="8.314038075054224"><ele>325.0</ele><time>2026-04-06T13:50:00.962Z</time></trkpt><trkpt lat="45.681970492409334" lon="8.313919221654496"><ele>325.0</ele><time>2026-04-06T13:50:01.962Z</time></trkpt><trkpt lat="45.682045467721466" lon="8.31379779704032"><ele>325.66666666666663</ele><time>2026-04-06T13:50:02.962Z</time></trkpt><trkpt lat="45.682109888429466" lon="8.313682444634336"><ele>326.3333333333333</ele><time>2026-04-06T13:50:03.962Z</time></trkpt><trkpt lat="45.68215869921081" lon="8.313585247752659"><ele>327.0</ele><time>2026-04-06T13:50:04.962Z</time></trkpt><trkpt lat="45.68219994403934" lon="8.313514706766572"><ele>327.6666666666667</ele><time>2026-04-06T13:50:05.962Z</time></trkpt><trkpt lat="45.682242980543215" lon="8.313433843083025"><ele>328.33333333333337</ele><time>2026-04-06T13:50:07.962Z</time></trkpt><trkpt lat="45.68230304137998" lon="8.313355345094282"><ele>329.0</ele><time>2026-04-06T13:50:22.961Z</time></trkpt><trkpt lat="45.68235699575131" lon="8.313285934852159"><ele>329.0</ele><time>2026-04-06T13:50:24.961Z</time></trkpt><trkpt lat="45.68240480768083" lon="8.313215660368574"><ele>329.0</ele><time>2026-04-06T13:50:25.961Z</time></trkpt><trkpt lat="45.68246142637251" lon="8.313122281768301"><ele>329.0</ele><time>2026-04-06T13:50:26.961Z</time></trkpt><trkpt lat="45.682514848816425" lon="8.313019807336152"><ele>329.0</ele><time>2026-04-06T13:50:27.961Z</time></trkpt><trkpt lat="45.682573821648404" lon="8.312907176991802"><ele>329.0</ele><time>2026-04-06T13:50:28.961Z</time></trkpt><trkpt lat="45.68264119332406" lon="8.312780606584418"><ele>329.0</ele><time>2026-04-06T13:50:29.961Z</time></trkpt><trkpt lat="45.682711923650864" lon="8.312642274466258"><ele>329.0</ele><time>2026-04-06T13:50:30.961Z</time></trkpt><trkpt lat="45.68278829062834" lon="8.312495210476893"><ele>329.0</ele><time>2026-04-06T13:50:31.961Z</time></trkpt><trkpt lat="45.68286918703121" lon="8.312350814867582"><ele>329.0</ele><time>2026-04-06T13:50:32.961Z</time></trkpt><trkpt lat="45.682951995464514" lon="8.312205987218416"><ele>329.75</ele><time>2026-04-06T13:50:33.961Z</time></trkpt><trkpt lat="45.68303599421951" lon="8.312062282406252"><ele>330.5</ele><time>2026-04-06T13:50:34.961Z</time></trkpt><trkpt lat="45.68312279888927" lon="8.311908625313032"><ele>331.25</ele><time>2026-04-06T13:50:35.961Z</time></trkpt><trkpt lat="45.68321601784813" lon="8.311747821853716"><ele>332.0</ele><time>2026-04-06T13:50:36.961Z</time></trkpt><trkpt lat="45.68331138522019" lon="8.31158283200459"><ele>332.0</ele><time>2026-04-06T13:50:37.961Z</time></trkpt><trkpt lat="45.68341138334107" lon="8.311408543035785"><ele>332.0</ele><time>2026-04-06T13:50:38.961Z</time></trkpt><trkpt lat="45.683513279371304" lon="8.311223043566287"><ele>332.0</ele><time>2026-04-06T13:50:39.961Z</time></trkpt><trkpt lat="45.68361840519993" lon="8.311029804934387"><ele>331.33333333333337</ele><time>2026-04-06T13:50:40.961Z</time></trkpt><trkpt lat="45.68372499169549" lon="8.310839947343121"><ele>330.6666666666667</ele><time>2026-04-06T13:50:41.961Z</time></trkpt><trkpt lat="45.683829517380936" lon="8.31065348252241"><ele>330.0</ele><time>2026-04-06T13:50:42.961Z</time></trkpt><trkpt lat="45.683935775782594" lon="8.310463367154203"><ele>330.0</ele><time>2026-04-06T13:50:43.961Z</time></trkpt><trkpt lat="45.68404189346191" lon="8.310265962362397"><ele>330.0</ele><time>2026-04-06T13:50:44.961Z</time></trkpt><trkpt lat="45.6841493522677" lon="8.31006477404552"><ele>330.0</ele><time>2026-04-06T13:50:45.961Z</time></trkpt><trkpt lat="45.68425523126432" lon="8.309868821578675"><ele>330.3333333333333</ele><time>2026-04-06T13:50:46.961Z</time></trkpt><trkpt lat="45.68435856702955" lon="8.309668392689115"><ele>330.66666666666663</ele><time>2026-04-06T13:50:47.961Z</time></trkpt><trkpt lat="45.68446639466384" lon="8.309471069447136"><ele>331.0</ele><time>2026-04-06T13:50:48.961Z</time></trkpt><trkpt lat="45.68457257127221" lon="8.309276785119858"><ele>331.3333333333333</ele><time>2026-04-06T13:50:49.961Z</time></trkpt><trkpt lat="45.68467724235869" lon="8.309078420887309"><ele>331.6666666666667</ele><time>2026-04-06T13:50:50.961Z</time></trkpt><trkpt lat="45.68478053547611" lon="8.308873657157777"><ele>332.0</ele><time>2026-04-06T13:50:51.961Z</time></trkpt><trkpt lat="45.684887864035474" lon="8.308665342858227"><ele>332.33333333333337</ele><time>2026-04-06T13:50:52.961Z</time></trkpt><trkpt lat="45.68498816499723" lon="8.308447861928887"><ele>332.6666666666667</ele><time>2026-04-06T13:50:53.961Z</time></trkpt><trkpt lat="45.68507732244629" lon="8.308219303370192"><ele>333.0</ele><time>2026-04-06T13:50:54.961Z</time></trkpt><trkpt lat="45.685148706056246" lon="8.307978777271119"><ele>333.6666666666667</ele><time>2026-04-06T13:50:55.961Z</time></trkpt><trkpt lat="45.68520840475542" lon="8.307739303938098"><ele>334.33333333333337</ele><time>2026-04-06T13:50:56.961Z</time></trkpt><trkpt lat="45.68525680659732" lon="8.307509801687697"><ele>335.0</ele><time>2026-04-06T13:50:57.961Z</time></trkpt><trkpt lat="45.685306779951674" lon="8.307288974756597"><ele>336.0</ele><time>2026-04-06T13:50:58.961Z</time></trkpt><trkpt lat="45.685385040258545" lon="8.307074284522656"><ele>337.0</ele><time>2026-04-06T13:50:59.961Z</time></trkpt><trkpt lat="45.68545965829504" lon="8.306856120297674"><ele>338.0</ele><time>2026-04-06T13:51:00.961Z</time></trkpt><trkpt lat="45.68554525242784" lon="8.306640889343376"><ele>338.0</ele><time>2026-04-06T13:51:01.961Z</time></trkpt><trkpt lat="45.685647386942314" lon="8.306437646422967"><ele>338.0</ele><time>2026-04-06T13:51:02.961Z</time></trkpt><trkpt lat="45.68576440892473" lon="8.30624557104539"><ele>338.0</ele><time>2026-04-06T13:51:03.961Z</time></trkpt><trkpt lat="45.68589290872997" lon="8.306064564150034"><ele>338.0</ele><time>2026-04-06T13:51:04.961Z</time></trkpt><trkpt lat="45.68603075995334" lon="8.305889527799515"><ele>338.0</ele><time>2026-04-06T13:51:05.961Z</time></trkpt><trkpt lat="45.686168964585136" lon="8.305715448447831"><ele>338.0</ele><time>2026-04-06T13:51:06.961Z</time></trkpt><trkpt lat="45.68630452875811" lon="8.305547000353254"><ele>338.0</ele><time>2026-04-06T13:51:07.961Z</time></trkpt><trkpt lat="45.686439190926116" lon="8.305385930705985"><ele>338.0</ele><time>2026-04-06T13:51:08.961Z</time></trkpt><trkpt lat="45.68658433995094" lon="8.305247678472337"><ele>338.0</ele><time>2026-04-06T13:51:09.961Z</time></trkpt><trkpt lat="45.686744057332916" lon="8.305138030275328"><ele>338.0</ele><time>2026-04-06T13:51:10.961Z</time></trkpt><trkpt lat="45.68691318121096" lon="8.305048609382613"><ele>338.0</ele><time>2026-04-06T13:51:11.961Z</time></trkpt><trkpt lat="45.687087649343304" lon="8.304970012330257"><ele>338.0</ele><time>2026-04-06T13:51:12.961Z</time></trkpt><trkpt lat="45.68726587602127" lon="8.304884690953584"><ele>338.0</ele><time>2026-04-06T13:51:13.961Z</time></trkpt><trkpt lat="45.687445884520486" lon="8.304799464137908"><ele>338.0</ele><time>2026-04-06T13:51:14.961Z</time></trkpt><trkpt lat="45.68762143757595" lon="8.304715451237966"><ele>338.0</ele><time>2026-04-06T13:51:15.961Z</time></trkpt><trkpt lat="45.6877822013583" lon="8.30463474075925"><ele>338.33333333333337</ele><time>2026-04-06T13:51:16.961Z</time></trkpt><trkpt lat="45.68793313537125" lon="8.304555756181065"><ele>338.6666666666667</ele><time>2026-04-06T13:51:17.961Z</time></trkpt><trkpt lat="45.68807489653915" lon="8.304476064911126"><ele>339.0</ele><time>2026-04-06T13:51:18.961Z</time></trkpt><trkpt lat="45.688204010224446" lon="8.304398655309228"><ele>339.0</ele><time>2026-04-06T13:51:19.961Z</time></trkpt><trkpt lat="45.68832764718043" lon="8.304322708528565"><ele>339.0</ele><time>2026-04-06T13:51:20.961Z</time></trkpt><trkpt lat="45.68844869400558" lon="8.304231516706016"><ele>339.0</ele><time>2026-04-06T13:51:21.961Z</time></trkpt><trkpt lat="45.68857238838178" lon="8.304114064981302"><ele>339.0</ele><time>2026-04-06T13:51:22.961Z</time></trkpt><trkpt lat="45.68869538821367" lon="8.303975656034435"><ele>338.3333333333333</ele><time>2026-04-06T13:51:23.961Z</time></trkpt><trkpt lat="45.68883005619719" lon="8.303840655279224"><ele>337.66666666666663</ele><time>2026-04-06T13:51:24.961Z</time></trkpt><trkpt lat="45.688956467439354" lon="8.30367507149038"><ele>337.0</ele><time>2026-04-06T13:51:25.961Z</time></trkpt><trkpt lat="45.68908542925273" lon="8.303495010320107"><ele>337.0</ele><time>2026-04-06T13:51:26.961Z</time></trkpt><trkpt lat="45.6892235586526" lon="8.30330282572396"><ele>337.0</ele><time>2026-04-06T13:51:27.962Z</time></trkpt><trkpt lat="45.68937400023244" lon="8.303096165494786"><ele>337.0</ele><time>2026-04-06T13:51:28.962Z</time></trkpt><trkpt lat="45.689532822050424" lon="8.302877993231151"><ele>338.5</ele><time>2026-04-06T13:51:29.961Z</time></trkpt><trkpt lat="45.68969804799172" lon="8.302650539749555"><ele>340.0</ele><time>2026-04-06T13:51:30.961Z</time></trkpt><trkpt lat="45.68985303836698" lon="8.302415450050086"><ele>338.0</ele><time>2026-04-06T13:51:31.961Z</time></trkpt><trkpt lat="45.69000851555051" lon="8.30220431512828"><ele>336.0</ele><time>2026-04-06T13:51:32.961Z</time></trkpt><trkpt lat="45.69016453939761" lon="8.301998091696978"><ele>334.0</ele><time>2026-04-06T13:51:33.961Z</time></trkpt><trkpt lat="45.690318825239146" lon="8.30178621352933"><ele>334.0</ele><time>2026-04-06T13:51:34.961Z</time></trkpt><trkpt lat="45.69047566376209" lon="8.301563311164026"><ele>334.0</ele><time>2026-04-06T13:51:35.961Z</time></trkpt><trkpt lat="45.69062904922825" lon="8.30135003972774"><ele>334.0</ele><time>2026-04-06T13:51:36.961Z</time></trkpt><trkpt lat="45.690783206948446" lon="8.301139324556864"><ele>334.3333333333333</ele><time>2026-04-06T13:51:37.961Z</time></trkpt><trkpt lat="45.690931973936735" lon="8.30093526345689"><ele>334.6666666666667</ele><time>2026-04-06T13:51:38.961Z</time></trkpt><trkpt lat="45.69106925055503" lon="8.300744000590576"><ele>335.0</ele><time>2026-04-06T13:51:39.961Z</time></trkpt><trkpt lat="45.691202640497295" lon="8.30056846150935"><ele>335.0</ele><time>2026-04-06T13:51:40.961Z</time></trkpt><trkpt lat="45.691328801904994" lon="8.300407245854938"><ele>335.0</ele><time>2026-04-06T13:51:41.961Z</time></trkpt><trkpt lat="45.69146059080673" lon="8.300258093681713"><ele>335.0</ele><time>2026-04-06T13:51:42.961Z</time></trkpt><trkpt lat="45.691607611306125" lon="8.300134779552074"><ele>335.0</ele><time>2026-04-06T13:51:43.961Z</time></trkpt><trkpt lat="45.691763974431865" lon="8.300026319571007"><ele>335.0</ele><time>2026-04-06T13:51:44.961Z</time></trkpt><trkpt lat="45.69191823991717" lon="8.299912940406708"><ele>335.0</ele><time>2026-04-06T13:51:45.961Z</time></trkpt><trkpt lat="45.692071770858526" lon="8.299801073098827"><ele>336.0</ele><time>2026-04-06T13:51:46.961Z</time></trkpt><trkpt lat="45.69222594022645" lon="8.299688565966116"><ele>337.0</ele><time>2026-04-06T13:51:47.961Z</time></trkpt><trkpt lat="45.69238470736343" lon="8.299576682637012"><ele>338.0</ele><time>2026-04-06T13:51:48.961Z</time></trkpt><trkpt lat="45.69254302365728" lon="8.299466743130736"><ele>338.0</ele><time>2026-04-06T13:51:49.961Z</time></trkpt><trkpt lat="45.692697213075775" lon="8.299352032122641"><ele>338.0</ele><time>2026-04-06T13:51:50.961Z</time></trkpt><trkpt lat="45.692850114041015" lon="8.299242358512679"><ele>338.0</ele><time>2026-04-06T13:51:51.961Z</time></trkpt><trkpt lat="45.692999799515846" lon="8.299139702469667"><ele>337.6666666666667</ele><time>2026-04-06T13:51:52.961Z</time></trkpt><trkpt lat="45.69314015280126" lon="8.29903686880949"><ele>337.3333333333333</ele><time>2026-04-06T13:51:53.961Z</time></trkpt><trkpt lat="45.69327421424411" lon="8.298929857226458"><ele>337.0</ele><time>2026-04-06T13:51:54.961Z</time></trkpt><trkpt lat="45.69339783869684" lon="8.298819461445145"><ele>337.0</ele><time>2026-04-06T13:51:55.961Z</time></trkpt><trkpt lat="45.693517244984804" lon="8.298701594446591"><ele>337.0</ele><time>2026-04-06T13:51:56.961Z</time></trkpt><trkpt lat="45.6936478444757" lon="8.298600039757408"><ele>337.0</ele><time>2026-04-06T13:51:57.961Z</time></trkpt><trkpt lat="45.69376497669049" lon="8.29848412816985"><ele>337.0</ele><time>2026-04-06T13:51:58.961Z</time></trkpt><trkpt lat="45.69387042833464" lon="8.298379775218978"><ele>337.0</ele><time>2026-04-06T13:51:59.961Z</time></trkpt><trkpt lat="45.69394353651147" lon="8.29828098709427"><ele>337.0</ele><time>2026-04-06T13:52:00.961Z</time></trkpt><trkpt lat="45.694009140958535" lon="8.29823818222067"><ele>337.0</ele><time>2026-04-06T13:52:01.961Z</time></trkpt><trkpt lat="45.69410099046654" lon="8.298157754717455"><ele>337.0</ele><time>2026-04-06T13:52:16.96Z</time></trkpt><trkpt lat="45.69415941168107" lon="8.298103965446618"><ele>337.0</ele><time>2026-04-06T13:52:17.96Z</time></trkpt><trkpt lat="45.69423371757799" lon="8.298028585873764"><ele>337.0</ele><time>2026-04-06T13:52:18.96Z</time></trkpt><trkpt lat="45.69430961095449" lon="8.29795001448089"><ele>337.0</ele><time>2026-04-06T13:52:19.96Z</time></trkpt><trkpt lat="45.69438577164089" lon="8.29787199845329"><ele>337.0</ele><time>2026-04-06T13:52:20.96Z</time></trkpt><trkpt lat="45.694472787670705" lon="8.297790160502403"><ele>337.0</ele><time>2026-04-06T13:52:21.96Z</time></trkpt><trkpt lat="45.69456927919696" lon="8.297697862723442"><ele>337.0</ele><time>2026-04-06T13:52:22.96Z</time></trkpt><trkpt lat="45.69467275998591" lon="8.297594910779262"><ele>337.0</ele><time>2026-04-06T13:52:23.96Z</time></trkpt><trkpt lat="45.6947744259912" lon="8.297497905864674"><ele>336.75</ele><time>2026-04-06T13:52:24.96Z</time></trkpt><trkpt lat="45.694873446312485" lon="8.297397946098448"><ele>336.5</ele><time>2026-04-06T13:52:25.96Z</time></trkpt><trkpt lat="45.694980088508586" lon="8.297291680724753"><ele>336.25</ele><time>2026-04-06T13:52:26.96Z</time></trkpt><trkpt lat="45.69509215321423" lon="8.297178151068211"><ele>336.0</ele><time>2026-04-06T13:52:27.96Z</time></trkpt><trkpt lat="45.69520935311515" lon="8.297049209687739"><ele>335.6666666666667</ele><time>2026-04-06T13:52:28.96Z</time></trkpt><trkpt lat="45.695327560582946" lon="8.29691151928171"><ele>335.33333333333337</ele><time>2026-04-06T13:52:29.96Z</time></trkpt><trkpt lat="45.695441173267156" lon="8.296763467772754"><ele>335.0</ele><time>2026-04-06T13:52:30.96Z</time></trkpt><trkpt lat="45.69554792038585" lon="8.296608610917474"><ele>335.0</ele><time>2026-04-06T13:52:31.96Z</time></trkpt><trkpt lat="45.69564972049412" lon="8.296445752532163"><ele>335.0</ele><time>2026-04-06T13:52:32.96Z</time></trkpt><trkpt lat="45.69574895572905" lon="8.29627486522082"><ele>335.0</ele><time>2026-04-06T13:52:33.96Z</time></trkpt><trkpt lat="45.6958458701333" lon="8.296098140522405"><ele>335.0</ele><time>2026-04-06T13:52:34.96Z</time></trkpt><trkpt lat="45.695940755302864" lon="8.295912373649953"><ele>335.0</ele><time>2026-04-06T13:52:35.96Z</time></trkpt><trkpt lat="45.696034718733884" lon="8.295721054105858"><ele>335.0</ele><time>2026-04-06T13:52:36.96Z</time></trkpt><trkpt lat="45.69612108922414" lon="8.295518465541287"><ele>335.0</ele><time>2026-04-06T13:52:37.96Z</time></trkpt><trkpt lat="45.69620337853075" lon="8.29530828903478"><ele>335.0</ele><time>2026-04-06T13:52:38.96Z</time></trkpt><trkpt lat="45.696287849223616" lon="8.29509929487217"><ele>335.0</ele><time>2026-04-06T13:52:39.96Z</time></trkpt><trkpt lat="45.69636549880856" lon="8.294888017987004"><ele>335.33333333333337</ele><time>2026-04-06T13:52:40.96Z</time></trkpt><trkpt lat="45.69643807315799" lon="8.294677325274854"><ele>335.6666666666667</ele><time>2026-04-06T13:52:41.96Z</time></trkpt><trkpt lat="45.69650111425501" lon="8.294465219887359"><ele>336.0</ele><time>2026-04-06T13:52:42.96Z</time></trkpt><trkpt lat="45.69655299821869" lon="8.294255943350645"><ele>336.0</ele><time>2026-04-06T13:52:43.96Z</time></trkpt><trkpt lat="45.696599421221116" lon="8.294040846959401"><ele>336.0</ele><time>2026-04-06T13:52:44.96Z</time></trkpt><trkpt lat="45.69663848351862" lon="8.293825471092855"><ele>336.0</ele><time>2026-04-06T13:52:45.96Z</time></trkpt><trkpt lat="45.69667753113465" lon="8.293607745289375"><ele>336.0</ele><time>2026-04-06T13:52:46.96Z</time></trkpt><trkpt lat="45.69670933589935" lon="8.293387945144985"><ele>336.0</ele><time>2026-04-06T13:52:47.96Z</time></trkpt><trkpt lat="45.696732914215886" lon="8.293156643663002"><ele>336.0</ele><time>2026-04-06T13:52:48.96Z</time></trkpt><trkpt lat="45.6967588545895" lon="8.292925135356658"><ele>337.0</ele><time>2026-04-06T13:52:49.96Z</time></trkpt><trkpt lat="45.69679660491852" lon="8.292697543506488"><ele>338.0</ele><time>2026-04-06T13:52:50.96Z</time></trkpt><trkpt lat="45.696819063048046" lon="8.29246805935048"><ele>339.0</ele><time>2026-04-06T13:52:51.96Z</time></trkpt><trkpt lat="45.69684373689257" lon="8.292238121467419"><ele>339.6666666666667</ele><time>2026-04-06T13:52:52.96Z</time></trkpt><trkpt lat="45.69686875614221" lon="8.292003917100525"><ele>340.33333333333337</ele><time>2026-04-06T13:52:53.96Z</time></trkpt><trkpt lat="45.69689439832447" lon="8.29177516906362"><ele>341.0</ele><time>2026-04-06T13:52:54.96Z</time></trkpt><trkpt lat="45.69692242945158" lon="8.29154343511302"><ele>339.33333333333337</ele><time>2026-04-06T13:52:55.96Z</time></trkpt><trkpt lat="45.69695030546032" lon="8.291306992217553"><ele>337.6666666666667</ele><time>2026-04-06T13:52:56.96Z</time></trkpt><trkpt lat="45.696977956821954" lon="8.291066537978931"><ele>336.0</ele><time>2026-04-06T13:52:57.96Z</time></trkpt><trkpt lat="45.69700856271596" lon="8.290827456257238"><ele>336.6666666666667</ele><time>2026-04-06T13:52:58.96Z</time></trkpt><trkpt lat="45.69703766411605" lon="8.29058647650087"><ele>337.33333333333337</ele><time>2026-04-06T13:52:59.96Z</time></trkpt><trkpt lat="45.69706856997285" lon="8.290341624514287"><ele>338.0</ele><time>2026-04-06T13:53:00.96Z</time></trkpt><trkpt lat="45.697098415261316" lon="8.290096152687978"><ele>338.0</ele><time>2026-04-06T13:53:01.96Z</time></trkpt><trkpt lat="45.69712527550755" lon="8.289851755448247"><ele>338.0</ele><time>2026-04-06T13:53:02.96Z</time></trkpt><trkpt lat="45.69714919306087" lon="8.289614642689822"><ele>338.0</ele><time>2026-04-06T13:53:03.96Z</time></trkpt><trkpt lat="45.69716678691954" lon="8.289387946018568"><ele>338.25</ele><time>2026-04-06T13:53:04.96Z</time></trkpt><trkpt lat="45.69717874397891" lon="8.289177240833721"><ele>338.5</ele><time>2026-04-06T13:53:05.96Z</time></trkpt><trkpt lat="45.697186848266654" lon="8.288973806351066"><ele>338.75</ele><time>2026-04-06T13:53:06.96Z</time></trkpt><trkpt lat="45.69719110532044" lon="8.288789847824484"><ele>339.0</ele><time>2026-04-06T13:53:07.96Z</time></trkpt><trkpt lat="45.69718974044384" lon="8.288624128528179"><ele>339.0</ele><time>2026-04-06T13:53:08.96Z</time></trkpt><trkpt lat="45.69717691973369" lon="8.288472801914818"><ele>339.0</ele><time>2026-04-06T13:53:09.96Z</time></trkpt><trkpt lat="45.69715969932182" lon="8.288322142486681"><ele>339.0</ele><time>2026-04-06T13:53:10.96Z</time></trkpt><trkpt lat="45.69715378099233" lon="8.28816679356427"><ele>339.0</ele><time>2026-04-06T13:53:11.96Z</time></trkpt><trkpt lat="45.697153589410235" lon="8.288002968149039"><ele>339.0</ele><time>2026-04-06T13:53:12.96Z</time></trkpt><trkpt lat="45.69715997960288" lon="8.287844355012677"><ele>339.0</ele><time>2026-04-06T13:53:13.96Z</time></trkpt><trkpt lat="45.6971674927153" lon="8.287696019307809"><ele>339.0</ele><time>2026-04-06T13:53:14.96Z</time></trkpt><trkpt lat="45.69717625771424" lon="8.287562325490333"><ele>339.0</ele><time>2026-04-06T13:53:15.959Z</time></trkpt><trkpt lat="45.69720101310278" lon="8.287441795249203"><ele>339.0</ele><time>2026-04-06T13:53:16.959Z</time></trkpt><trkpt lat="45.697229647825765" lon="8.287341368957492"><ele>339.0</ele><time>2026-04-06T13:53:17.959Z</time></trkpt><trkpt lat="45.69726880366475" lon="8.287259296090228"><ele>339.0</ele><time>2026-04-06T13:53:18.959Z</time></trkpt><trkpt lat="45.697313872891165" lon="8.287188939239341"><ele>339.2</ele><time>2026-04-06T13:53:19.959Z</time></trkpt><trkpt lat="45.69736335626637" lon="8.28712839477013"><ele>339.4</ele><time>2026-04-06T13:53:20.959Z</time></trkpt><trkpt lat="45.69745272406893" lon="8.287026786936632"><ele>339.6</ele><time>2026-04-06T13:53:22.959Z</time></trkpt><trkpt lat="45.697520929880355" lon="8.286917172051071"><ele>339.8</ele><time>2026-04-06T13:53:24.959Z</time></trkpt><trkpt lat="45.69749653945272" lon="8.286728340538218"><ele>340.0</ele><time>2026-04-06T13:53:26.959Z</time></trkpt><trkpt lat="45.69747186125876" lon="8.286621304866312"><ele>340.0</ele><time>2026-04-06T13:53:27.96Z</time></trkpt><trkpt lat="45.69744914069315" lon="8.286500066169497"><ele>340.0</ele><time>2026-04-06T13:53:28.96Z</time></trkpt><trkpt lat="45.697434919662825" lon="8.286358965998604"><ele>340.0</ele><time>2026-04-06T13:53:29.96Z</time></trkpt><trkpt lat="45.69741911394554" lon="8.286213006815693"><ele>340.0</ele><time>2026-04-06T13:53:30.96Z</time></trkpt><trkpt lat="45.69740103035311" lon="8.286074922424707"><ele>340.0</ele><time>2026-04-06T13:53:31.96Z</time></trkpt><trkpt lat="45.69738167874933" lon="8.285939648379589"><ele>340.0</ele><time>2026-04-06T13:53:32.959Z</time></trkpt><trkpt lat="45.69736351511529" lon="8.285785794623928"><ele>340.0</ele><time>2026-04-06T13:53:33.96Z</time></trkpt><trkpt lat="45.69736084742122" lon="8.285610979062216"><ele>340.0</ele><time>2026-04-06T13:53:34.96Z</time></trkpt><trkpt lat="45.69733321343116" lon="8.285420455968529"><ele>340.0</ele><time>2026-04-06T13:53:35.959Z</time></trkpt><trkpt lat="45.69730206515142" lon="8.28521808802054"><ele>340.3333333333333</ele><time>2026-04-06T13:53:36.959Z</time></trkpt><trkpt lat="45.69726854352351" lon="8.285003395429387"><ele>340.6666666666667</ele><time>2026-04-06T13:53:37.959Z</time></trkpt><trkpt lat="45.697233745593515" lon="8.284770012074237"><ele>341.0</ele><time>2026-04-06T13:53:38.96Z</time></trkpt><trkpt lat="45.69720023987187" lon="8.284521831794985"><ele>341.0</ele><time>2026-04-06T13:53:39.959Z</time></trkpt><trkpt lat="45.69716743935157" lon="8.28425405339782"><ele>341.0</ele><time>2026-04-06T13:53:40.959Z</time></trkpt><trkpt lat="45.697140514317994" lon="8.283968062254726"><ele>341.0</ele><time>2026-04-06T13:53:41.959Z</time></trkpt><trkpt lat="45.69710788939912" lon="8.283658271068225"><ele>341.0</ele><time>2026-04-06T13:53:42.959Z</time></trkpt><trkpt lat="45.69707238345937" lon="8.283361084002594"><ele>341.0</ele><time>2026-04-06T13:53:43.959Z</time></trkpt><trkpt lat="45.69703618222507" lon="8.283080613138488"><ele>341.0</ele><time>2026-04-06T13:53:44.959Z</time></trkpt><trkpt lat="45.69700108191411" lon="8.282793394389664"><ele>341.0</ele><time>2026-04-06T13:53:45.959Z</time></trkpt><trkpt lat="45.6969675047029" lon="8.282520513279856"><ele>341.0</ele><time>2026-04-06T13:53:46.959Z</time></trkpt><trkpt lat="45.69693158257441" lon="8.282251305697468"><ele>341.0</ele><time>2026-04-06T13:53:47.959Z</time></trkpt><trkpt lat="45.69689728274032" lon="8.28197619102376"><ele>342.0</ele><time>2026-04-06T13:53:48.959Z</time></trkpt><trkpt lat="45.696855441051945" lon="8.281693442552871"><ele>343.0</ele><time>2026-04-06T13:53:49.959Z</time></trkpt><trkpt lat="45.69681749467258" lon="8.281406529431834"><ele>344.0</ele><time>2026-04-06T13:53:50.959Z</time></trkpt><trkpt lat="45.69677959606023" lon="8.28111058079842"><ele>344.0</ele><time>2026-04-06T13:53:51.959Z</time></trkpt><trkpt lat="45.6967421017374" lon="8.280809651762812"><ele>344.0</ele><time>2026-04-06T13:53:52.959Z</time></trkpt><trkpt lat="45.69670390551642" lon="8.280506002719527"><ele>344.0</ele><time>2026-04-06T13:53:53.959Z</time></trkpt><trkpt lat="45.69666401283691" lon="8.280194774887368"><ele>344.0</ele><time>2026-04-06T13:53:54.959Z</time></trkpt><trkpt lat="45.6966231333352" lon="8.279876047712056"><ele>344.0</ele><time>2026-04-06T13:53:55.959Z</time></trkpt><trkpt lat="45.69658157949362" lon="8.279553747742597"><ele>345.0</ele><time>2026-04-06T13:53:56.959Z</time></trkpt><trkpt lat="45.69654292747147" lon="8.279223466551011"><ele>346.0</ele><time>2026-04-06T13:53:57.959Z</time></trkpt><trkpt lat="45.6965015189795" lon="8.278893505185183"><ele>347.3333333333333</ele><time>2026-04-06T13:53:58.959Z</time></trkpt><trkpt lat="45.69646177696124" lon="8.278575078681595"><ele>348.6666666666667</ele><time>2026-04-06T13:53:59.959Z</time></trkpt><trkpt lat="45.69642421330287" lon="8.27826619840519"><ele>350.0</ele><time>2026-04-06T13:54:00.959Z</time></trkpt><trkpt lat="45.696386101028445" lon="8.277953208589699"><ele>350.0</ele><time>2026-04-06T13:54:01.959Z</time></trkpt><trkpt lat="45.69634500437096" lon="8.277642866426413"><ele>350.0</ele><time>2026-04-06T13:54:02.959Z</time></trkpt><trkpt lat="45.69630356321217" lon="8.27732969834118"><ele>350.0</ele><time>2026-04-06T13:54:03.959Z</time></trkpt><trkpt lat="45.6962657140466" lon="8.277011306727006"><ele>348.5</ele><time>2026-04-06T13:54:04.959Z</time></trkpt><trkpt lat="45.69622728348125" lon="8.27669133088708"><ele>347.0</ele><time>2026-04-06T13:54:05.959Z</time></trkpt><trkpt lat="45.696185217254744" lon="8.276373336733407"><ele>347.0</ele><time>2026-04-06T13:54:06.959Z</time></trkpt><trkpt lat="45.696143444299246" lon="8.276055336161654"><ele>347.0</ele><time>2026-04-06T13:54:07.959Z</time></trkpt><trkpt lat="45.6961020795683" lon="8.275736269943875"><ele>352.0</ele><time>2026-04-06T13:54:08.959Z</time></trkpt><trkpt lat="45.69606058325358" lon="8.275416331102695"><ele>357.0</ele><time>2026-04-06T13:54:09.959Z</time></trkpt><trkpt lat="45.69602080483823" lon="8.27509504129119"><ele>357.0</ele><time>2026-04-06T13:54:10.959Z</time></trkpt><trkpt lat="45.69598256076293" lon="8.274774131190771"><ele>357.0</ele><time>2026-04-06T13:54:11.959Z</time></trkpt><trkpt lat="45.695934517253534" lon="8.274458863993493"><ele>357.0</ele><time>2026-04-06T13:54:12.959Z</time></trkpt><trkpt lat="45.695875824075195" lon="8.274145939839183"><ele>357.0</ele><time>2026-04-06T13:54:13.959Z</time></trkpt><trkpt lat="45.69580773774961" lon="8.273838368435628"><ele>357.0</ele><time>2026-04-06T13:54:14.959Z</time></trkpt><trkpt lat="45.69573041899556" lon="8.273529686148443"><ele>357.0</ele><time>2026-04-06T13:54:15.959Z</time></trkpt><trkpt lat="45.69565195061581" lon="8.273212842095012"><ele>356.0</ele><time>2026-04-06T13:54:16.959Z</time></trkpt><trkpt lat="45.69556985839977" lon="8.27289379967674"><ele>355.0</ele><time>2026-04-06T13:54:17.959Z</time></trkpt><trkpt lat="45.69548400395982" lon="8.272575463684982"><ele>353.5</ele><time>2026-04-06T13:54:18.959Z</time></trkpt><trkpt lat="45.69539974149684" lon="8.272255191692748"><ele>352.0</ele><time>2026-04-06T13:54:19.959Z</time></trkpt><trkpt lat="45.6953062290103" lon="8.27193999638362"><ele>353.0</ele><time>2026-04-06T13:54:20.959Z</time></trkpt><trkpt lat="45.69520939007889" lon="8.271620104469893"><ele>354.0</ele><time>2026-04-06T13:54:21.959Z</time></trkpt><trkpt lat="45.695115479887" lon="8.271297282485666"><ele>354.0</ele><time>2026-04-06T13:54:22.959Z</time></trkpt><trkpt lat="45.69502297184503" lon="8.270978925563472"><ele>354.0</ele><time>2026-04-06T13:54:23.959Z</time></trkpt><trkpt lat="45.69493222190432" lon="8.270662113129651"><ele>354.5</ele><time>2026-04-06T13:54:24.959Z</time></trkpt><trkpt lat="45.69484094881195" lon="8.270347666847687"><ele>355.0</ele><time>2026-04-06T13:54:25.959Z</time></trkpt><trkpt lat="45.694750293836925" lon="8.27004193817398"><ele>355.3333333333333</ele><time>2026-04-06T13:54:26.959Z</time></trkpt><trkpt lat="45.694655757569926" lon="8.269749324708831"><ele>355.6666666666667</ele><time>2026-04-06T13:54:27.959Z</time></trkpt><trkpt lat="45.69455564736409" lon="8.269462018249488"><ele>356.0</ele><time>2026-04-06T13:54:28.959Z</time></trkpt><trkpt lat="45.69444135573897" lon="8.269182831419299"><ele>356.0</ele><time>2026-04-06T13:54:29.959Z</time></trkpt><trkpt lat="45.694307619482395" lon="8.268916783996163"><ele>356.0</ele><time>2026-04-06T13:54:30.959Z</time></trkpt><trkpt lat="45.694157749119455" lon="8.268665951058953"><ele>356.0</ele><time>2026-04-06T13:54:31.959Z</time></trkpt><trkpt lat="45.693994361359444" lon="8.26842939506483"><ele>356.0</ele><time>2026-04-06T13:54:32.958Z</time></trkpt><trkpt lat="45.69382373527734" lon="8.26821397737879"><ele>357.0</ele><time>2026-04-06T13:54:33.958Z</time></trkpt><trkpt lat="45.69365516291578" lon="8.268016619678848"><ele>358.0</ele><time>2026-04-06T13:54:34.958Z</time></trkpt><trkpt lat="45.693492434884384" lon="8.267843679366079"><ele>359.0</ele><time>2026-04-06T13:54:35.958Z</time></trkpt><trkpt lat="45.69331656945451" lon="8.267703330094607"><ele>359.0</ele><time>2026-04-06T13:54:36.958Z</time></trkpt><trkpt lat="45.69312793329848" lon="8.26759372559152"><ele>359.0</ele><time>2026-04-06T13:54:37.958Z</time></trkpt><trkpt lat="45.69292567856056" lon="8.267526742958687"><ele>359.0</ele><time>2026-04-06T13:54:38.958Z</time></trkpt><trkpt lat="45.69271198857771" lon="8.267502061199327"><ele>360.33333333333337</ele><time>2026-04-06T13:54:39.958Z</time></trkpt><trkpt lat="45.692494146375516" lon="8.26752789249704"><ele>361.6666666666667</ele><time>2026-04-06T13:54:40.958Z</time></trkpt><trkpt lat="45.6922797046668" lon="8.267589463513415"><ele>363.0</ele><time>2026-04-06T13:54:41.958Z</time></trkpt><trkpt lat="45.69205690875713" lon="8.267643783704866"><ele>364.5</ele><time>2026-04-06T13:54:42.958Z</time></trkpt><trkpt lat="45.69183108198425" lon="8.267650685277193"><ele>366.0</ele><time>2026-04-06T13:54:43.958Z</time></trkpt><trkpt lat="45.691606667355266" lon="8.267644762257108"><ele>366.0</ele><time>2026-04-06T13:54:44.958Z</time></trkpt><trkpt lat="45.69139227399515" lon="8.267616557004775"><ele>366.0</ele><time>2026-04-06T13:54:45.958Z</time></trkpt><trkpt lat="45.69117244077113" lon="8.267595827783884"><ele>366.0</ele><time>2026-04-06T13:54:46.958Z</time></trkpt><trkpt lat="45.69095485015086" lon="8.26749645777058"><ele>369.0</ele><time>2026-04-06T13:54:47.958Z</time></trkpt><trkpt lat="45.69074550032036" lon="8.267375785795576"><ele>372.0</ele><time>2026-04-06T13:54:48.958Z</time></trkpt><trkpt lat="45.69055088533129" lon="8.26720635827388"><ele>369.5</ele><time>2026-04-06T13:54:49.958Z</time></trkpt><trkpt lat="45.690367793773646" lon="8.267007781917592"><ele>367.0</ele><time>2026-04-06T13:54:50.958Z</time></trkpt><trkpt lat="45.69018281543314" lon="8.266810826616966"><ele>367.0</ele><time>2026-04-06T13:54:51.958Z</time></trkpt><trkpt lat="45.689991702041596" lon="8.266615192288338"><ele>367.0</ele><time>2026-04-06T13:54:52.958Z</time></trkpt><trkpt lat="45.68980057395444" lon="8.266415393532158"><ele>366.5</ele><time>2026-04-06T13:54:53.958Z</time></trkpt><trkpt lat="45.689605333300776" lon="8.266213629377697"><ele>366.0</ele><time>2026-04-06T13:54:54.958Z</time></trkpt><trkpt lat="45.68941104789132" lon="8.266007622416856"><ele>366.0</ele><time>2026-04-06T13:54:55.958Z</time></trkpt><trkpt lat="45.68923241834148" lon="8.265776616180862"><ele>366.0</ele><time>2026-04-06T13:54:56.958Z</time></trkpt><trkpt lat="45.6890673856427" lon="8.265522431592553"><ele>363.0</ele><time>2026-04-06T13:54:57.958Z</time></trkpt><trkpt lat="45.688923350329105" lon="8.265246286589543"><ele>360.0</ele><time>2026-04-06T13:54:58.958Z</time></trkpt><trkpt lat="45.68880374684859" lon="8.264944981468766"><ele>359.0</ele><time>2026-04-06T13:54:59.958Z</time></trkpt><trkpt lat="45.68869701648438" lon="8.264634107997106"><ele>358.0</ele><time>2026-04-06T13:55:00.958Z</time></trkpt><trkpt lat="45.68859896533203" lon="8.264318290930264"><ele>366.0</ele><time>2026-04-06T13:55:01.958Z</time></trkpt><trkpt lat="45.688515942395696" lon="8.263993902753402"><ele>374.0</ele><time>2026-04-06T13:55:02.958Z</time></trkpt><trkpt lat="45.68844968915625" lon="8.263662475305688"><ele>374.0</ele><time>2026-04-06T13:55:03.958Z</time></trkpt><trkpt lat="45.68839774483736" lon="8.263330039260277"><ele>374.0</ele><time>2026-04-06T13:55:04.958Z</time></trkpt><trkpt lat="45.688363814137176" lon="8.263000440578507"><ele>373.6666666666667</ele><time>2026-04-06T13:55:05.958Z</time></trkpt><trkpt lat="45.688338526982456" lon="8.26267700816433"><ele>373.3333333333333</ele><time>2026-04-06T13:55:06.958Z</time></trkpt><trkpt lat="45.68831566479276" lon="8.262361285312119"><ele>373.0</ele><time>2026-04-06T13:55:07.958Z</time></trkpt><trkpt lat="45.688292727230234" lon="8.262048954078512"><ele>372.66666666666663</ele><time>2026-04-06T13:55:08.958Z</time></trkpt><trkpt lat="45.68826199312081" lon="8.261742554366732"><ele>372.3333333333333</ele><time>2026-04-06T13:55:09.958Z</time></trkpt><trkpt lat="45.68821673020059" lon="8.261447914884352"><ele>372.0</ele><time>2026-04-06T13:55:10.958Z</time></trkpt><trkpt lat="45.68815731212875" lon="8.26115386405542"><ele>369.3333333333333</ele><time>2026-04-06T13:55:11.958Z</time></trkpt><trkpt lat="45.6880999212509" lon="8.26086310977601"><ele>366.66666666666663</ele><time>2026-04-06T13:55:12.958Z</time></trkpt><trkpt lat="45.688045644733066" lon="8.260580023362552"><ele>364.0</ele><time>2026-04-06T13:55:13.958Z</time></trkpt><trkpt lat="45.687988760859774" lon="8.260316821073632"><ele>363.0</ele><time>2026-04-06T13:55:14.958Z</time></trkpt><trkpt lat="45.68793587798261" lon="8.260056290333326"><ele>362.0</ele><time>2026-04-06T13:55:15.958Z</time></trkpt><trkpt lat="45.68788749450483" lon="8.259791993831008"><ele>361.0</ele><time>2026-04-06T13:55:16.958Z</time></trkpt><trkpt lat="45.68783627272955" lon="8.2595322397393"><ele>361.0</ele><time>2026-04-06T13:55:17.958Z</time></trkpt><trkpt lat="45.68777335183053" lon="8.259276295352027"><ele>361.0</ele><time>2026-04-06T13:55:18.958Z</time></trkpt><trkpt lat="45.68769545281261" lon="8.259025848048129"><ele>361.0</ele><time>2026-04-06T13:55:19.958Z</time></trkpt><trkpt lat="45.68760341200369" lon="8.258786245406998"><ele>363.66666666666663</ele><time>2026-04-06T13:55:20.957Z</time></trkpt><trkpt lat="45.68749652329691" lon="8.258556839657897"><ele>366.3333333333333</ele><time>2026-04-06T13:55:21.957Z</time></trkpt><trkpt lat="45.68738059929624" lon="8.258342077459892"><ele>369.0</ele><time>2026-04-06T13:55:22.957Z</time></trkpt><trkpt lat="45.68725493759204" lon="8.258114104477515"><ele>369.0</ele><time>2026-04-06T13:55:23.957Z</time></trkpt><trkpt lat="45.687127932210934" lon="8.257882474206115"><ele>369.0</ele><time>2026-04-06T13:55:24.957Z</time></trkpt><trkpt lat="45.68700256631011" lon="8.25765353629753"><ele>369.0</ele><time>2026-04-06T13:55:25.956Z</time></trkpt><trkpt lat="45.686877739155285" lon="8.25742422188759"><ele>371.3333333333333</ele><time>2026-04-06T13:55:26.956Z</time></trkpt><trkpt lat="45.68675637779185" lon="8.257193579996798"><ele>373.66666666666663</ele><time>2026-04-06T13:55:27.956Z</time></trkpt><trkpt lat="45.68663675758017" lon="8.256963343266948"><ele>376.0</ele><time>2026-04-06T13:55:28.956Z</time></trkpt><trkpt lat="45.68652323112191" lon="8.256732489671693"><ele>376.0</ele><time>2026-04-06T13:55:29.956Z</time></trkpt><trkpt lat="45.686410093381966" lon="8.256503005462987"><ele>376.0</ele><time>2026-04-06T13:55:30.956Z</time></trkpt><trkpt lat="45.68629606344451" lon="8.256275983789513"><ele>376.0</ele><time>2026-04-06T13:55:31.955Z</time></trkpt><trkpt lat="45.686163025191604" lon="8.25607287705047"><ele>373.66666666666663</ele><time>2026-04-06T13:55:32.956Z</time></trkpt><trkpt lat="45.6860199099181" lon="8.255883705208554"><ele>371.3333333333333</ele><time>2026-04-06T13:55:33.956Z</time></trkpt><trkpt lat="45.68587388215213" lon="8.25568000536762"><ele>369.0</ele><time>2026-04-06T13:55:34.955Z</time></trkpt><trkpt lat="45.68573466498467" lon="8.255467974828406"><ele>369.0</ele><time>2026-04-06T13:55:35.955Z</time></trkpt><trkpt lat="45.68560712816123" lon="8.255236229934374"><ele>369.0</ele><time>2026-04-06T13:55:36.955Z</time></trkpt><trkpt lat="45.685499471660044" lon="8.254990115063352"><ele>369.0</ele><time>2026-04-06T13:55:37.955Z</time></trkpt><trkpt lat="45.68539662279954" lon="8.254737597371003"><ele>367.3333333333333</ele><time>2026-04-06T13:55:38.955Z</time></trkpt><trkpt lat="45.68529780118998" lon="8.254487476498834"><ele>365.66666666666663</ele><time>2026-04-06T13:55:39.955Z</time></trkpt><trkpt lat="45.685195790289214" lon="8.254248457299324"><ele>364.0</ele><time>2026-04-06T13:55:40.955Z</time></trkpt><trkpt lat="45.685079743099465" lon="8.254036190575754"><ele>366.3333333333333</ele><time>2026-04-06T13:55:41.955Z</time></trkpt><trkpt lat="45.68495133486806" lon="8.253824679623735"><ele>368.6666666666667</ele><time>2026-04-06T13:55:42.955Z</time></trkpt><trkpt lat="45.68480895022782" lon="8.253630859786076"><ele>371.0</ele><time>2026-04-06T13:55:43.955Z</time></trkpt><trkpt lat="45.6846616446779" lon="8.25344961108816"><ele>371.0</ele><time>2026-04-06T13:55:44.955Z</time></trkpt><trkpt lat="45.684502667386624" lon="8.253286489969017"><ele>371.0</ele><time>2026-04-06T13:55:45.955Z</time></trkpt><trkpt lat="45.68434414263733" lon="8.253148397605512"><ele>371.0</ele><time>2026-04-06T13:55:46.955Z</time></trkpt><trkpt lat="45.6841697459383" lon="8.253016670713015"><ele>372.33333333333337</ele><time>2026-04-06T13:55:47.955Z</time></trkpt><trkpt lat="45.68399917047556" lon="8.252887218880613"><ele>373.6666666666667</ele><time>2026-04-06T13:55:48.955Z</time></trkpt><trkpt lat="45.683824301601035" lon="8.25276026168434"><ele>375.0</ele><time>2026-04-06T13:55:49.955Z</time></trkpt><trkpt lat="45.68364745280724" lon="8.252633656883658"><ele>375.6666666666667</ele><time>2026-04-06T13:55:50.955Z</time></trkpt><trkpt lat="45.68347850964415" lon="8.252505885180026"><ele>376.33333333333337</ele><time>2026-04-06T13:55:51.954Z</time></trkpt><trkpt lat="45.68331719563375" lon="8.252388184045659"><ele>377.0</ele><time>2026-04-06T13:55:52.954Z</time></trkpt><trkpt lat="45.683165325132514" lon="8.252274176769227"><ele>377.0</ele><time>2026-04-06T13:55:53.954Z</time></trkpt><trkpt lat="45.68301867533533" lon="8.252154581467385"><ele>377.0</ele><time>2026-04-06T13:55:54.954Z</time></trkpt><trkpt lat="45.68287081544162" lon="8.252029835671461"><ele>377.0</ele><time>2026-04-06T13:55:55.954Z</time></trkpt><trkpt lat="45.682729758919756" lon="8.251909836867332"><ele>376.6666666666667</ele><time>2026-04-06T13:55:56.954Z</time></trkpt><trkpt lat="45.68258265753996" lon="8.251758778825705"><ele>376.3333333333333</ele><time>2026-04-06T13:55:57.954Z</time></trkpt><trkpt lat="45.68246543842529" lon="8.251569155521823"><ele>376.0</ele><time>2026-04-06T13:55:58.954Z</time></trkpt><trkpt lat="45.68235482535461" lon="8.251369296284258"><ele>376.0</ele><time>2026-04-06T13:55:59.954Z</time></trkpt><trkpt lat="45.682251660424576" lon="8.251153299923148"><ele>376.0</ele><time>2026-04-06T13:56:00.954Z</time></trkpt><trkpt lat="45.68215235495105" lon="8.250936479868265"><ele>376.0</ele><time>2026-04-06T13:56:01.954Z</time></trkpt><trkpt lat="45.682079419154896" lon="8.250698248371792"><ele>376.0</ele><time>2026-04-06T13:56:02.954Z</time></trkpt><trkpt lat="45.6819927531469" lon="8.250481187012227"><ele>376.0</ele><time>2026-04-06T13:56:03.954Z</time></trkpt><trkpt lat="45.6819124937977" lon="8.250280171597723"><ele>376.0</ele><time>2026-04-06T13:56:04.954Z</time></trkpt><trkpt lat="45.681817601179056" lon="8.250099081318544"><ele>376.5</ele><time>2026-04-06T13:56:05.954Z</time></trkpt><trkpt lat="45.681747761442516" lon="8.249910304266708"><ele>377.0</ele><time>2026-04-06T13:56:06.954Z</time></trkpt><trkpt lat="45.681684122790294" lon="8.249733507068813"><ele>377.5</ele><time>2026-04-06T13:56:07.954Z</time></trkpt><trkpt lat="45.681621184464596" lon="8.249572139100975"><ele>378.0</ele><time>2026-04-06T13:56:08.954Z</time></trkpt><trkpt lat="45.6815779326694" lon="8.249411857874387"><ele>378.0</ele><time>2026-04-06T13:56:09.954Z</time></trkpt><trkpt lat="45.6815253157053" lon="8.249277929832774"><ele>378.0</ele><time>2026-04-06T13:56:10.954Z</time></trkpt><trkpt lat="45.68146114313212" lon="8.24917380261907"><ele>378.0</ele><time>2026-04-06T13:56:11.954Z</time></trkpt><trkpt lat="45.68140968554729" lon="8.249083878762985"><ele>378.0</ele><time>2026-04-06T13:56:12.954Z</time></trkpt><trkpt lat="45.68137548400144" lon="8.24900424051458"><ele>378.0</ele><time>2026-04-06T13:56:13.954Z</time></trkpt><trkpt lat="45.68134824795154" lon="8.248914567672525"><ele>378.0</ele><time>2026-04-06T13:56:14.954Z</time></trkpt><trkpt lat="45.68130235999496" lon="8.24884354985629"><ele>378.0</ele><time>2026-04-06T13:56:15.954Z</time></trkpt><trkpt lat="45.68118710402482" lon="8.248838804790127"><ele>378.0</ele><time>2026-04-06T13:56:17.954Z</time></trkpt><trkpt lat="45.68114110383162" lon="8.248903391601004"><ele>378.0</ele><time>2026-04-06T13:56:18.954Z</time></trkpt><trkpt lat="45.68111711318183" lon="8.249006625465999"><ele>378.0</ele><time>2026-04-06T13:56:19.954Z</time></trkpt><trkpt lat="45.681112270813486" lon="8.249123859643776"><ele>378.0</ele><time>2026-04-06T13:56:20.954Z</time></trkpt><trkpt lat="45.681094575892324" lon="8.249255662071915"><ele>378.0</ele><time>2026-04-06T13:56:21.954Z</time></trkpt><trkpt lat="45.68106300199344" lon="8.24940207284556"><ele>378.25</ele><time>2026-04-06T13:56:22.954Z</time></trkpt><trkpt lat="45.68102239365345" lon="8.249556768303387"><ele>378.5</ele><time>2026-04-06T13:56:23.954Z</time></trkpt><trkpt lat="45.68097897700028" lon="8.24972475203789"><ele>378.75</ele><time>2026-04-06T13:56:24.953Z</time></trkpt><trkpt lat="45.68093344084239" lon="8.249901077026006"><ele>379.0</ele><time>2026-04-06T13:56:25.953Z</time></trkpt><trkpt lat="45.680885734356934" lon="8.250069119554874"><ele>379.25</ele><time>2026-04-06T13:56:26.953Z</time></trkpt><trkpt lat="45.68083030679608" lon="8.250244046832677"><ele>379.5</ele><time>2026-04-06T13:56:27.953Z</time></trkpt><trkpt lat="45.68076142239215" lon="8.250417911522046"><ele>379.75</ele><time>2026-04-06T13:56:28.953Z</time></trkpt><trkpt lat="45.68068150858079" lon="8.250589930540741"><ele>380.0</ele><time>2026-04-06T13:56:29.953Z</time></trkpt><trkpt lat="45.68058413277354" lon="8.250756874602967"><ele>380.6666666666667</ele><time>2026-04-06T13:56:30.953Z</time></trkpt><trkpt lat="45.680472171546995" lon="8.250918721424737"><ele>381.3333333333333</ele><time>2026-04-06T13:56:31.953Z</time></trkpt><trkpt lat="45.6803474793187" lon="8.251069588269042"><ele>382.0</ele><time>2026-04-06T13:56:32.953Z</time></trkpt><trkpt lat="45.680207884266416" lon="8.251208139758747"><ele>383.0</ele><time>2026-04-06T13:56:33.953Z</time></trkpt><trkpt lat="45.680057905810415" lon="8.251335017773878"><ele>384.0</ele><time>2026-04-06T13:56:34.953Z</time></trkpt><trkpt lat="45.67988867006166" lon="8.251418068889008"><ele>385.0</ele><time>2026-04-06T13:56:35.953Z</time></trkpt><trkpt lat="45.6797163467378" lon="8.2515216935201"><ele>385.0</ele><time>2026-04-06T13:56:36.953Z</time></trkpt><trkpt lat="45.679529333198445" lon="8.251594710662713"><ele>385.0</ele><time>2026-04-06T13:56:37.953Z</time></trkpt><trkpt lat="45.67935248202414" lon="8.251675043800043"><ele>385.0</ele><time>2026-04-06T13:56:38.953Z</time></trkpt><trkpt lat="45.679173328311855" lon="8.251758180469512"><ele>385.33333333333337</ele><time>2026-04-06T13:56:39.953Z</time></trkpt><trkpt lat="45.6789895369291" lon="8.251841569974287"><ele>385.66666666666663</ele><time>2026-04-06T13:56:40.953Z</time></trkpt><trkpt lat="45.67880030288128" lon="8.251926938811202"><ele>386.0</ele><time>2026-04-06T13:56:41.953Z</time></trkpt><trkpt lat="45.6786017181595" lon="8.251998084404354"><ele>388.3333333333333</ele><time>2026-04-06T13:56:42.953Z</time></trkpt><trkpt lat="45.67840239669491" lon="8.252093828215356"><ele>390.66666666666663</ele><time>2026-04-06T13:56:43.953Z</time></trkpt><trkpt lat="45.6781976421392" lon="8.252198684009455"><ele>393.0</ele><time>2026-04-06T13:56:44.953Z</time></trkpt><trkpt lat="45.67798878837625" lon="8.252308715574891"><ele>393.0</ele><time>2026-04-06T13:56:45.953Z</time></trkpt><trkpt lat="45.67777785243534" lon="8.252419844022961"><ele>393.0</ele><time>2026-04-06T13:56:46.953Z</time></trkpt><trkpt lat="45.677562500749794" lon="8.252534956021634"><ele>393.33333333333337</ele><time>2026-04-06T13:56:47.953Z</time></trkpt><trkpt lat="45.67735000838021" lon="8.252648792639409"><ele>393.6666666666667</ele><time>2026-04-06T13:56:48.953Z</time></trkpt><trkpt lat="45.67714488109681" lon="8.252758944626299"><ele>394.0</ele><time>2026-04-06T13:56:49.953Z</time></trkpt><trkpt lat="45.6769358434787" lon="8.252871701573156"><ele>395.0</ele><time>2026-04-06T13:56:50.953Z</time></trkpt><trkpt lat="45.67672692380919" lon="8.252984394957183"><ele>396.0</ele><time>2026-04-06T13:56:51.953Z</time></trkpt><trkpt lat="45.67651899232359" lon="8.253096573158794"><ele>397.0</ele><time>2026-04-06T13:56:52.953Z</time></trkpt><trkpt lat="45.676311977847" lon="8.253208480644792"><ele>398.0</ele><time>2026-04-06T13:56:53.953Z</time></trkpt><trkpt lat="45.676105882554815" lon="8.253319435842066"><ele>399.0</ele><time>2026-04-06T13:56:54.953Z</time></trkpt><trkpt lat="45.67589488716991" lon="8.253432095658809"><ele>400.0</ele><time>2026-04-06T13:56:55.953Z</time></trkpt><trkpt lat="45.675683620620376" lon="8.253544900263632"><ele>400.0</ele><time>2026-04-06T13:56:56.953Z</time></trkpt><trkpt lat="45.67547142036736" lon="8.253658244564733"><ele>400.0</ele><time>2026-04-06T13:56:57.953Z</time></trkpt><trkpt lat="45.67525754296666" lon="8.253774238206649"><ele>403.0</ele><time>2026-04-06T13:56:58.953Z</time></trkpt><trkpt lat="45.67504430131638" lon="8.253889887041371"><ele>406.0</ele><time>2026-04-06T13:56:59.953Z</time></trkpt><trkpt lat="45.674831320322994" lon="8.25400631962863"><ele>405.0</ele><time>2026-04-06T13:57:00.953Z</time></trkpt><trkpt lat="45.67462059873075" lon="8.254121731522511"><ele>404.0</ele><time>2026-04-06T13:57:01.953Z</time></trkpt><trkpt lat="45.67440476300063" lon="8.25424176148921"><ele>404.0</ele><time>2026-04-06T13:57:02.953Z</time></trkpt><trkpt lat="45.67419307214529" lon="8.25436410139357"><ele>404.0</ele><time>2026-04-06T13:57:03.953Z</time></trkpt><trkpt lat="45.67398438184584" lon="8.254485657294143"><ele>404.0</ele><time>2026-04-06T13:57:04.953Z</time></trkpt><trkpt lat="45.67377609851381" lon="8.254609902022203"><ele>404.0</ele><time>2026-04-06T13:57:05.953Z</time></trkpt><trkpt lat="45.67357353285516" lon="8.254739798246158"><ele>404.0</ele><time>2026-04-06T13:57:06.953Z</time></trkpt><trkpt lat="45.67337107428866" lon="8.254870142709775"><ele>406.0</ele><time>2026-04-06T13:57:07.953Z</time></trkpt><trkpt lat="45.6731718323281" lon="8.255002508338016"><ele>408.0</ele><time>2026-04-06T13:57:08.953Z</time></trkpt><trkpt lat="45.67297948226153" lon="8.255138399710543"><ele>410.0</ele><time>2026-04-06T13:57:09.953Z</time></trkpt><trkpt lat="45.67278660735485" lon="8.255288206106028"><ele>408.0</ele><time>2026-04-06T13:57:10.953Z</time></trkpt><trkpt lat="45.67260778337568" lon="8.255469534905243"><ele>406.0</ele><time>2026-04-06T13:57:11.953Z</time></trkpt><trkpt lat="45.67243831255148" lon="8.255651487081542"><ele>404.0</ele><time>2026-04-06T13:57:12.953Z</time></trkpt><trkpt lat="45.67226704603769" lon="8.255834994214352"><ele>406.66666666666663</ele><time>2026-04-06T13:57:13.953Z</time></trkpt><trkpt lat="45.672089603596895" lon="8.256020466756805"><ele>409.33333333333337</ele><time>2026-04-06T13:57:14.953Z</time></trkpt><trkpt lat="45.67191214181063" lon="8.256200100248313"><ele>412.0</ele><time>2026-04-06T13:57:15.953Z</time></trkpt><trkpt lat="45.671732080182686" lon="8.256377130664847"><ele>413.6666666666667</ele><time>2026-04-06T13:57:16.953Z</time></trkpt><trkpt lat="45.67155374078195" lon="8.256552533823005"><ele>415.33333333333337</ele><time>2026-04-06T13:57:17.953Z</time></trkpt><trkpt lat="45.671373111916026" lon="8.256730304566789"><ele>417.0</ele><time>2026-04-06T13:57:18.952Z</time></trkpt><trkpt lat="45.67119085848949" lon="8.25690967413235"><ele>418.0</ele><time>2026-04-06T13:57:19.952Z</time></trkpt><trkpt lat="45.67100539943937" lon="8.25709219871864"><ele>419.0</ele><time>2026-04-06T13:57:20.952Z</time></trkpt><trkpt lat="45.67081603302386" lon="8.257278568842683"><ele>422.3333333333333</ele><time>2026-04-06T13:57:21.952Z</time></trkpt><trkpt lat="45.670634341660566" lon="8.2574573852625"><ele>425.66666666666663</ele><time>2026-04-06T13:57:22.952Z</time></trkpt><trkpt lat="45.67045984375115" lon="8.25763008483236"><ele>429.0</ele><time>2026-04-06T13:57:23.952Z</time></trkpt><trkpt lat="45.670302629825436" lon="8.257782429070293"><ele>427.33333333333337</ele><time>2026-04-06T13:57:24.952Z</time></trkpt><trkpt lat="45.67014666138862" lon="8.257907319305652"><ele>425.6666666666667</ele><time>2026-04-06T13:57:25.952Z</time></trkpt><trkpt lat="45.66997827679135" lon="8.25799649563032"><ele>424.0</ele><time>2026-04-06T13:57:26.952Z</time></trkpt><trkpt lat="45.66980141991984" lon="8.258060847338024"><ele>424.0</ele><time>2026-04-06T13:57:27.952Z</time></trkpt><trkpt lat="45.66962493181432" lon="8.258116499602261"><ele>424.0</ele><time>2026-04-06T13:57:28.952Z</time></trkpt><trkpt lat="45.66946199907452" lon="8.258190855634343"><ele>424.0</ele><time>2026-04-06T13:57:29.952Z</time></trkpt><trkpt lat="45.66930541816489" lon="8.258247550972019"><ele>426.6666666666667</ele><time>2026-04-06T13:57:30.952Z</time></trkpt><trkpt lat="45.669155050755464" lon="8.258305564742239"><ele>429.33333333333337</ele><time>2026-04-06T13:57:31.952Z</time></trkpt><trkpt lat="45.669029983464334" lon="8.258435652777665"><ele>432.0</ele><time>2026-04-06T13:57:32.952Z</time></trkpt><trkpt lat="45.66891597522967" lon="8.258615766179197"><ele>432.0</ele><time>2026-04-06T13:57:33.952Z</time></trkpt><trkpt lat="45.668808816472165" lon="8.258805815041649"><ele>432.0</ele><time>2026-04-06T13:57:34.952Z</time></trkpt><trkpt lat="45.66870700474666" lon="8.258986380805384"><ele>432.0</ele><time>2026-04-06T13:57:35.952Z</time></trkpt><trkpt lat="45.66861911999003" lon="8.259155406120074"><ele>439.5</ele><time>2026-04-06T13:57:36.952Z</time></trkpt><trkpt lat="45.668804828856025" lon="8.25959879320868"><ele>447.0</ele><time>2026-04-06T13:57:37.952Z</time></trkpt><trkpt lat="45.668791692635395" lon="8.25981631098279"><ele>446.75</ele><time>2026-04-06T13:57:38.953Z</time></trkpt><trkpt lat="45.66874808484362" lon="8.260004029991755"><ele>446.5</ele><time>2026-04-06T13:57:39.953Z</time></trkpt><trkpt lat="45.66867422959912" lon="8.260167039626443"><ele>446.25</ele><time>2026-04-06T13:57:40.953Z</time></trkpt><trkpt lat="45.668556042241306" lon="8.260293762027"><ele>446.0</ele><time>2026-04-06T13:57:41.953Z</time></trkpt><trkpt lat="45.668411701760874" lon="8.260403453742144"><ele>446.0</ele><time>2026-04-06T13:57:42.953Z</time></trkpt><trkpt lat="45.668258242999954" lon="8.260529812873166"><ele>446.0</ele><time>2026-04-06T13:57:43.953Z</time></trkpt><trkpt lat="45.66809466146434" lon="8.260663260241047"><ele>446.0</ele><time>2026-04-06T13:57:44.953Z</time></trkpt><trkpt lat="45.66793554708856" lon="8.260822746938457"><ele>451.3333333333333</ele><time>2026-04-06T13:57:45.953Z</time></trkpt><trkpt lat="45.66776351207988" lon="8.260972615815804"><ele>456.66666666666663</ele><time>2026-04-06T13:57:46.953Z</time></trkpt><trkpt lat="45.66758641381021" lon="8.261103959459435"><ele>462.0</ele><time>2026-04-06T13:57:47.953Z</time></trkpt><trkpt lat="45.667398106283486" lon="8.261206115815977"><ele>462.0</ele><time>2026-04-06T13:57:48.953Z</time></trkpt><trkpt lat="45.66720953092642" lon="8.261299189135821"><ele>462.0</ele><time>2026-04-06T13:57:49.953Z</time></trkpt><trkpt lat="45.66702338089273" lon="8.261398763523458"><ele>462.0</ele><time>2026-04-06T13:57:50.953Z</time></trkpt><trkpt lat="45.66684069552053" lon="8.2615020284425"><ele>465.0</ele><time>2026-04-06T13:57:51.952Z</time></trkpt><trkpt lat="45.66666181894757" lon="8.261618491870573"><ele>468.0</ele><time>2026-04-06T13:57:52.952Z</time></trkpt><trkpt lat="45.666489064267275" lon="8.261746834382462"><ele>471.0</ele><time>2026-04-06T13:57:53.952Z</time></trkpt><trkpt lat="45.66632569754764" lon="8.261872635508382"><ele>471.0</ele><time>2026-04-06T13:57:54.952Z</time></trkpt><trkpt lat="45.66616298825564" lon="8.261989831421806"><ele>471.0</ele><time>2026-04-06T13:57:55.952Z</time></trkpt><trkpt lat="45.666008192779685" lon="8.262102708174506"><ele>471.0</ele><time>2026-04-06T13:57:56.952Z</time></trkpt><trkpt lat="45.66585955475827" lon="8.262217574039868"><ele>470.0</ele><time>2026-04-06T13:57:57.952Z</time></trkpt><trkpt lat="45.66572369062188" lon="8.262336905753875"><ele>469.0</ele><time>2026-04-06T13:57:58.952Z</time></trkpt><trkpt lat="45.665607076025275" lon="8.262492945506299"><ele>468.0</ele><time>2026-04-06T13:57:59.952Z</time></trkpt><trkpt lat="45.66550997699277" lon="8.26269402807385"><ele>468.0</ele><time>2026-04-06T13:58:00.952Z</time></trkpt><trkpt lat="45.665405953445344" lon="8.262900612909986"><ele>468.0</ele><time>2026-04-06T13:58:01.952Z</time></trkpt><trkpt lat="45.6652681475894" lon="8.263080459683755"><ele>468.0</ele><time>2026-04-06T13:58:02.952Z</time></trkpt><trkpt lat="45.66510139428831" lon="8.263200607805706"><ele>466.66666666666663</ele><time>2026-04-06T13:58:03.952Z</time></trkpt><trkpt lat="45.66493520906303" lon="8.263311542352213"><ele>465.3333333333333</ele><time>2026-04-06T13:58:04.952Z</time></trkpt><trkpt lat="45.664789427046905" lon="8.263407699689855"><ele>464.0</ele><time>2026-04-06T13:58:05.952Z</time></trkpt><trkpt lat="45.66465956462133" lon="8.263519991233139"><ele>464.0</ele><time>2026-04-06T13:58:06.952Z</time></trkpt><trkpt lat="45.66456340020901" lon="8.263685549515026"><ele>464.0</ele><time>2026-04-06T13:58:07.952Z</time></trkpt><trkpt lat="45.66449126897472" lon="8.263886073821824"><ele>464.0</ele><time>2026-04-06T13:58:08.952Z</time></trkpt><trkpt lat="45.66439217801518" lon="8.264065477474025"><ele>459.0</ele><time>2026-04-06T13:58:09.952Z</time></trkpt><trkpt lat="45.664271760092014" lon="8.26418982663494"><ele>454.0</ele><time>2026-04-06T13:58:10.952Z</time></trkpt><trkpt lat="45.664118391527616" lon="8.264256921558845"><ele>449.0</ele><time>2026-04-06T13:58:11.952Z</time></trkpt><trkpt lat="45.66394483646452" lon="8.264286066458228"><ele>449.0</ele><time>2026-04-06T13:58:12.952Z</time></trkpt><trkpt lat="45.66377563821405" lon="8.264340085527175"><ele>449.0</ele><time>2026-04-06T13:58:13.952Z</time></trkpt><trkpt lat="45.66359646414436" lon="8.264412170825137"><ele>449.0</ele><time>2026-04-06T13:58:14.952Z</time></trkpt><trkpt lat="45.663415075530196" lon="8.264533760405172"><ele>451.3333333333333</ele><time>2026-04-06T13:58:15.952Z</time></trkpt><trkpt lat="45.663234232257146" lon="8.264688121875139"><ele>453.66666666666663</ele><time>2026-04-06T13:58:16.952Z</time></trkpt><trkpt lat="45.66303838111135" lon="8.264841945216364"><ele>456.0</ele><time>2026-04-06T13:58:17.952Z</time></trkpt><trkpt lat="45.662829772126294" lon="8.264996533551296"><ele>445.0</ele><time>2026-04-06T13:58:18.952Z</time></trkpt><trkpt lat="45.66262181388385" lon="8.265155721470116"><ele>434.0</ele><time>2026-04-06T13:58:19.952Z</time></trkpt><trkpt lat="45.66241255350408" lon="8.265317286354877"><ele>434.0</ele><time>2026-04-06T13:58:20.952Z</time></trkpt><trkpt lat="45.66221217810337" lon="8.265447613561724"><ele>434.0</ele><time>2026-04-06T13:58:21.952Z</time></trkpt><trkpt lat="45.662009541327784" lon="8.265581670556875"><ele>434.0</ele><time>2026-04-06T13:58:22.952Z</time></trkpt><trkpt lat="45.66179632199618" lon="8.265694814436738"><ele>433.5</ele><time>2026-04-06T13:58:23.952Z</time></trkpt><trkpt lat="45.66158529169875" lon="8.265821584175113"><ele>433.0</ele><time>2026-04-06T13:58:24.952Z</time></trkpt><trkpt lat="45.66137764158683" lon="8.265957807159229"><ele>433.0</ele><time>2026-04-06T13:58:25.952Z</time></trkpt><trkpt lat="45.66116796197973" lon="8.266102713574403"><ele>433.0</ele><time>2026-04-06T13:58:26.952Z</time></trkpt><trkpt lat="45.66095409864869" lon="8.266257333464718"><ele>434.5</ele><time>2026-04-06T13:58:27.952Z</time></trkpt><trkpt lat="45.66074344417226" lon="8.266401497722043"><ele>436.0</ele><time>2026-04-06T13:58:28.952Z</time></trkpt><trkpt lat="45.660537495528004" lon="8.266542197031184"><ele>436.0</ele><time>2026-04-06T13:58:29.952Z</time></trkpt><trkpt lat="45.660333889661" lon="8.266685044791105"><ele>436.0</ele><time>2026-04-06T13:58:30.952Z</time></trkpt><trkpt lat="45.66012746525193" lon="8.266820634906113"><ele>427.0</ele><time>2026-04-06T13:58:31.952Z</time></trkpt><trkpt lat="45.65992004895301" lon="8.266960751663357"><ele>418.0</ele><time>2026-04-06T13:58:32.952Z</time></trkpt><trkpt lat="45.65971435963203" lon="8.267101711237535"><ele>418.0</ele><time>2026-04-06T13:58:33.952Z</time></trkpt><trkpt lat="45.65950844176285" lon="8.267241944072842"><ele>418.0</ele><time>2026-04-06T13:58:34.952Z</time></trkpt><trkpt lat="45.65930185067917" lon="8.267379386288615"><ele>418.0</ele><time>2026-04-06T13:58:35.952Z</time></trkpt><trkpt lat="45.65909713445786" lon="8.267520045818749"><ele>418.0</ele><time>2026-04-06T13:58:36.952Z</time></trkpt><trkpt lat="45.65889491723619" lon="8.267661513701961"><ele>418.0</ele><time>2026-04-06T13:58:37.952Z</time></trkpt><trkpt lat="45.65869099881567" lon="8.267790872854668"><ele>418.0</ele><time>2026-04-06T13:58:38.952Z</time></trkpt><trkpt lat="45.65848512385274" lon="8.267899641077298"><ele>418.0</ele><time>2026-04-06T13:58:39.951Z</time></trkpt><trkpt lat="45.65827874012456" lon="8.268005398754742"><ele>420.6666666666667</ele><time>2026-04-06T13:58:40.951Z</time></trkpt><trkpt lat="45.65807708316165" lon="8.268099352853245"><ele>423.33333333333337</ele><time>2026-04-06T13:58:41.951Z</time></trkpt><trkpt lat="45.65788179985745" lon="8.268191022135513"><ele>426.0</ele><time>2026-04-06T13:58:42.951Z</time></trkpt><trkpt lat="45.65769636089007" lon="8.268272900726483"><ele>420.0</ele><time>2026-04-06T13:58:43.951Z</time></trkpt><trkpt lat="45.65751344883463" lon="8.268339753617079"><ele>414.0</ele><time>2026-04-06T13:58:44.951Z</time></trkpt><trkpt lat="45.657337280103604" lon="8.268387010387633"><ele>408.0</ele><time>2026-04-06T13:58:45.951Z</time></trkpt><trkpt lat="45.65716012571151" lon="8.26839407903679"><ele>408.0</ele><time>2026-04-06T13:58:46.951Z</time></trkpt><trkpt lat="45.65697687638583" lon="8.268361007985598"><ele>408.0</ele><time>2026-04-06T13:58:47.951Z</time></trkpt><trkpt lat="45.65679127982685" lon="8.2682897040437"><ele>408.0</ele><time>2026-04-06T13:58:48.951Z</time></trkpt><trkpt lat="45.65660982392051" lon="8.268189385809855"><ele>404.0</ele><time>2026-04-06T13:58:49.951Z</time></trkpt><trkpt lat="45.656438395197256" lon="8.268068846478895"><ele>400.0</ele><time>2026-04-06T13:58:50.951Z</time></trkpt><trkpt lat="45.65627947082802" lon="8.267952651495882"><ele>396.0</ele><time>2026-04-06T13:58:51.951Z</time></trkpt><trkpt lat="45.65613115630001" lon="8.267860652540447"><ele>397.33333333333337</ele><time>2026-04-06T13:58:52.951Z</time></trkpt><trkpt lat="45.655989581212246" lon="8.267774491602726"><ele>398.6666666666667</ele><time>2026-04-06T13:58:53.951Z</time></trkpt><trkpt lat="45.655851464097644" lon="8.267683419451261"><ele>400.0</ele><time>2026-04-06T13:58:54.951Z</time></trkpt><trkpt lat="45.655715416082614" lon="8.267584109224765"><ele>400.0</ele><time>2026-04-06T13:58:55.951Z</time></trkpt><trkpt lat="45.655572342555864" lon="8.267480823078975"><ele>400.0</ele><time>2026-04-06T13:58:56.951Z</time></trkpt><trkpt lat="45.655419487479364" lon="8.267373888478952"><ele>400.0</ele><time>2026-04-06T13:58:57.951Z</time></trkpt><trkpt lat="45.65525586514011" lon="8.267259655539638"><ele>397.33333333333337</ele><time>2026-04-06T13:58:58.951Z</time></trkpt><trkpt lat="45.655084798222" lon="8.267143357341515"><ele>394.66666666666663</ele><time>2026-04-06T13:58:59.951Z</time></trkpt><trkpt lat="45.65490688423985" lon="8.267023218318483"><ele>392.0</ele><time>2026-04-06T13:59:00.951Z</time></trkpt><trkpt lat="45.654722340233484" lon="8.266899249874724"><ele>392.0</ele><time>2026-04-06T13:59:01.951Z</time></trkpt><trkpt lat="45.65453441298545" lon="8.266769083448121"><ele>392.0</ele><time>2026-04-06T13:59:02.951Z</time></trkpt><trkpt lat="45.65434054278849" lon="8.26663753092995"><ele>392.0</ele><time>2026-04-06T13:59:03.951Z</time></trkpt><trkpt lat="45.65414499333393" lon="8.266517028948709"><ele>392.0</ele><time>2026-04-06T13:59:04.951Z</time></trkpt><trkpt lat="45.653943790502716" lon="8.266415225474262"><ele>392.0</ele><time>2026-04-06T13:59:05.951Z</time></trkpt><trkpt lat="45.653737575674064" lon="8.26633954969263"><ele>392.0</ele><time>2026-04-06T13:59:06.951Z</time></trkpt><trkpt lat="45.65352814907439" lon="8.266278618211533"><ele>392.0</ele><time>2026-04-06T13:59:07.951Z</time></trkpt><trkpt lat="45.65331718895376" lon="8.266227093209382"><ele>392.0</ele><time>2026-04-06T13:59:08.951Z</time></trkpt><trkpt lat="45.653107095260815" lon="8.266182622949241"><ele>392.0</ele><time>2026-04-06T13:59:09.951Z</time></trkpt><trkpt lat="45.65290267875709" lon="8.266138893431457"><ele>393.66666666666663</ele><time>2026-04-06T13:59:10.951Z</time></trkpt><trkpt lat="45.652708393682296" lon="8.266092343756464"><ele>395.33333333333337</ele><time>2026-04-06T13:59:11.951Z</time></trkpt><trkpt lat="45.652523396032166" lon="8.266064900408644"><ele>397.0</ele><time>2026-04-06T13:59:12.951Z</time></trkpt><trkpt lat="45.65234562750821" lon="8.266072348323787"><ele>397.0</ele><time>2026-04-06T13:59:13.951Z</time></trkpt><trkpt lat="45.652169600744294" lon="8.266109236283238"><ele>397.0</ele><time>2026-04-06T13:59:14.951Z</time></trkpt><trkpt lat="45.65199546236945" lon="8.26619051798158"><ele>397.0</ele><time>2026-04-06T13:59:15.951Z</time></trkpt><trkpt lat="45.65182641407501" lon="8.266309368560341"><ele>399.0</ele><time>2026-04-06T13:59:16.951Z</time></trkpt><trkpt lat="45.65166639432809" lon="8.266462267939692"><ele>401.0</ele><time>2026-04-06T13:59:17.951Z</time></trkpt><trkpt lat="45.65151731067817" lon="8.266651455480826"><ele>403.0</ele><time>2026-04-06T13:59:18.951Z</time></trkpt><trkpt lat="45.65138598403408" lon="8.266861793554332"><ele>403.0</ele><time>2026-04-06T13:59:19.951Z</time></trkpt><trkpt lat="45.651277899074515" lon="8.267107214907455"><ele>403.0</ele><time>2026-04-06T13:59:20.951Z</time></trkpt><trkpt lat="45.651188653531634" lon="8.267373381860704"><ele>403.0</ele><time>2026-04-06T13:59:21.951Z</time></trkpt><trkpt lat="45.65110760457462" lon="8.26765408232184"><ele>399.6666666666667</ele><time>2026-04-06T13:59:22.951Z</time></trkpt><trkpt lat="45.65102948783588" lon="8.267941957255058"><ele>396.33333333333337</ele><time>2026-04-06T13:59:23.951Z</time></trkpt><trkpt lat="45.65095163629413" lon="8.268232819323703"><ele>393.0</ele><time>2026-04-06T13:59:24.951Z</time></trkpt><trkpt lat="45.650872221518334" lon="8.26852290579916"><ele>393.0</ele><time>2026-04-06T13:59:25.951Z</time></trkpt><trkpt lat="45.65078764992164" lon="8.268817596970003"><ele>393.0</ele><time>2026-04-06T13:59:26.951Z</time></trkpt><trkpt lat="45.65070577077377" lon="8.26911349183242"><ele>393.0</ele><time>2026-04-06T13:59:27.951Z</time></trkpt><trkpt lat="45.65062183195984" lon="8.269410037159524"><ele>393.0</ele><time>2026-04-06T13:59:28.951Z</time></trkpt><trkpt lat="45.65054087139586" lon="8.26970297096847"><ele>393.0</ele><time>2026-04-06T13:59:29.951Z</time></trkpt><trkpt lat="45.6504655049885" lon="8.269995872201605"><ele>393.0</ele><time>2026-04-06T13:59:30.951Z</time></trkpt><trkpt lat="45.65039033831106" lon="8.270288750282806"><ele>392.0</ele><time>2026-04-06T13:59:31.951Z</time></trkpt><trkpt lat="45.65031256388027" lon="8.270577312009538"><ele>391.0</ele><time>2026-04-06T13:59:32.951Z</time></trkpt><trkpt lat="45.65023621593063" lon="8.270869508292114"><ele>390.0</ele><time>2026-04-06T13:59:33.951Z</time></trkpt><trkpt lat="45.65015719170145" lon="8.271158891168522"><ele>389.33333333333337</ele><time>2026-04-06T13:59:34.951Z</time></trkpt><trkpt lat="45.650072663616726" lon="8.271446053268152"><ele>388.6666666666667</ele><time>2026-04-06T13:59:35.95Z</time></trkpt><trkpt lat="45.64999078332855" lon="8.27173450760359"><ele>388.0</ele><time>2026-04-06T13:59:36.95Z</time></trkpt><trkpt lat="45.64990864484619" lon="8.272021553354936"><ele>387.6666666666667</ele><time>2026-04-06T13:59:37.95Z</time></trkpt><trkpt lat="45.649827695915" lon="8.272305005222805"><ele>387.33333333333337</ele><time>2026-04-06T13:59:38.95Z</time></trkpt><trkpt lat="45.64975036595226" lon="8.272590371271974"><ele>387.0</ele><time>2026-04-06T13:59:39.95Z</time></trkpt><trkpt lat="45.649672693004675" lon="8.272876241991044"><ele>387.66666666666663</ele><time>2026-04-06T13:59:40.95Z</time></trkpt><trkpt lat="45.64959477598368" lon="8.273159150051432"><ele>388.3333333333333</ele><time>2026-04-06T13:59:41.95Z</time></trkpt><trkpt lat="45.64951562889465" lon="8.27343995586077"><ele>389.0</ele><time>2026-04-06T13:59:42.95Z</time></trkpt><trkpt lat="45.64943734224189" lon="8.273718716504355"><ele>385.0</ele><time>2026-04-06T13:59:43.95Z</time></trkpt><trkpt lat="45.649363392972894" lon="8.273992101796988"><ele>381.0</ele><time>2026-04-06T13:59:44.952Z</time></trkpt><trkpt lat="45.64929145884874" lon="8.274258122397443"><ele>377.0</ele><time>2026-04-06T13:59:45.951Z</time></trkpt><trkpt lat="45.64922090772903" lon="8.274507214416705"><ele>377.0</ele><time>2026-04-06T13:59:46.951Z</time></trkpt><trkpt lat="45.64914432254023" lon="8.274738512693258"><ele>377.0</ele><time>2026-04-06T13:59:47.951Z</time></trkpt><trkpt lat="45.649042872808074" lon="8.274934954482696"><ele>377.0</ele><time>2026-04-06T13:59:48.952Z</time></trkpt><trkpt lat="45.64891777049713" lon="8.275099300736725"><ele>376.0</ele><time>2026-04-06T13:59:49.952Z</time></trkpt><trkpt lat="45.648768327131044" lon="8.275217532193924"><ele>375.0</ele><time>2026-04-06T13:59:50.951Z</time></trkpt><trkpt lat="45.64859809549088" lon="8.2752867067319"><ele>374.0</ele><time>2026-04-06T13:59:51.952Z</time></trkpt><trkpt lat="45.648418659355265" lon="8.275316961327375"><ele>373.0</ele><time>2026-04-06T13:59:52.952Z</time></trkpt><trkpt lat="45.64823116161889" lon="8.27530817595023"><ele>372.0</ele><time>2026-04-06T13:59:53.952Z</time></trkpt><trkpt lat="45.648038386484934" lon="8.2752445812881"><ele>371.0</ele><time>2026-04-06T13:59:54.951Z</time></trkpt><trkpt lat="45.64785267470985" lon="8.275127303944549"><ele>372.0</ele><time>2026-04-06T13:59:55.951Z</time></trkpt><trkpt lat="45.647675618907286" lon="8.274961541745004"><ele>373.0</ele><time>2026-04-06T13:59:56.951Z</time></trkpt><trkpt lat="45.64750718088868" lon="8.274773688096289"><ele>374.0</ele><time>2026-04-06T13:59:57.951Z</time></trkpt><trkpt lat="45.64734341087171" lon="8.27459556662929"><ele>374.0</ele><time>2026-04-06T13:59:58.951Z</time></trkpt><trkpt lat="45.64718536135833" lon="8.274433365796977"><ele>374.0</ele><time>2026-04-06T13:59:59.951Z</time></trkpt><trkpt lat="45.64703424744218" lon="8.27428503858632"><ele>374.0</ele><time>2026-04-06T14:00:00.951Z</time></trkpt><trkpt lat="45.64689080675902" lon="8.27416513448427"><ele>374.0</ele><time>2026-04-06T14:00:01.951Z</time></trkpt><trkpt lat="45.64676138319715" lon="8.274075719038644"><ele>374.0</ele><time>2026-04-06T14:00:02.951Z</time></trkpt><trkpt lat="45.646618633202294" lon="8.274041100236024"><ele>374.0</ele><time>2026-04-06T14:00:03.951Z</time></trkpt><trkpt lat="45.64646504055655" lon="8.27406611973318"><ele>374.0</ele><time>2026-04-06T14:00:04.951Z</time></trkpt><trkpt lat="45.646286338583806" lon="8.274127591406852"><ele>372.0</ele><time>2026-04-06T14:00:05.951Z</time></trkpt><trkpt lat="45.64612479449437" lon="8.27418269156294"><ele>370.0</ele><time>2026-04-06T14:00:06.951Z</time></trkpt><trkpt lat="45.645962881864214" lon="8.274209550314508"><ele>368.0</ele><time>2026-04-06T14:00:07.951Z</time></trkpt><trkpt lat="45.64579870977194" lon="8.274182919456946"><ele>368.0</ele><time>2026-04-06T14:00:08.951Z</time></trkpt><trkpt lat="45.64563319213433" lon="8.274126072696061"><ele>368.0</ele><time>2026-04-06T14:00:09.951Z</time></trkpt><trkpt lat="45.64546632703079" lon="8.274031090711123"><ele>368.0</ele><time>2026-04-06T14:00:10.951Z</time></trkpt><trkpt lat="45.645321775111405" lon="8.273905075908228"><ele>367.33333333333337</ele><time>2026-04-06T14:00:11.951Z</time></trkpt><trkpt lat="45.64518835620859" lon="8.273774306249676"><ele>366.6666666666667</ele><time>2026-04-06T14:00:12.951Z</time></trkpt><trkpt lat="45.64505289348841" lon="8.2736504578083"><ele>366.0</ele><time>2026-04-06T14:00:13.951Z</time></trkpt><trkpt lat="45.644917934648724" lon="8.27354216879376"><ele>366.0</ele><time>2026-04-06T14:00:14.951Z</time></trkpt><trkpt lat="45.64477941949546" lon="8.273461061388486"><ele>366.0</ele><time>2026-04-06T14:00:15.951Z</time></trkpt><trkpt lat="45.6446183462198" lon="8.273427745091787"><ele>366.0</ele><time>2026-04-06T14:00:16.951Z</time></trkpt><trkpt lat="45.64444149328573" lon="8.273437327902204"><ele>365.6666666666667</ele><time>2026-04-06T14:00:17.951Z</time></trkpt><trkpt lat="45.644257064386956" lon="8.273474267499813"><ele>365.33333333333337</ele><time>2026-04-06T14:00:18.951Z</time></trkpt><trkpt lat="45.644076695868385" lon="8.273502995421886"><ele>365.0</ele><time>2026-04-06T14:00:19.951Z</time></trkpt><trkpt lat="45.64390016296528" lon="8.27349782505812"><ele>365.0</ele><time>2026-04-06T14:00:20.951Z</time></trkpt><trkpt lat="45.64373011953209" lon="8.273450136032675"><ele>365.0</ele><time>2026-04-06T14:00:21.951Z</time></trkpt><trkpt lat="45.6435534289015" lon="8.273366383659479"><ele>365.0</ele><time>2026-04-06T14:00:22.951Z</time></trkpt><trkpt lat="45.64336663159132" lon="8.273282555367496"><ele>363.6666666666667</ele><time>2026-04-06T14:00:23.951Z</time></trkpt><trkpt lat="45.643176440771484" lon="8.273210067218573"><ele>362.3333333333333</ele><time>2026-04-06T14:00:24.951Z</time></trkpt><trkpt lat="45.64298998363569" lon="8.273151408923864"><ele>361.0</ele><time>2026-04-06T14:00:25.951Z</time></trkpt><trkpt lat="45.642808900092696" lon="8.273130571628172"><ele>360.3333333333333</ele><time>2026-04-06T14:00:26.951Z</time></trkpt><trkpt lat="45.64262807983842" lon="8.273149530199106"><ele>359.6666666666667</ele><time>2026-04-06T14:00:27.951Z</time></trkpt><trkpt lat="45.642448775483665" lon="8.27320005588966"><ele>359.0</ele><time>2026-04-06T14:00:28.951Z</time></trkpt><trkpt lat="45.64226974273033" lon="8.27326422003345"><ele>359.0</ele><time>2026-04-06T14:00:29.951Z</time></trkpt><trkpt lat="45.64209402079442" lon="8.273324331368974"><ele>359.0</ele><time>2026-04-06T14:00:30.951Z</time></trkpt><trkpt lat="45.64192679059854" lon="8.273377263500487"><ele>359.0</ele><time>2026-04-06T14:00:31.951Z</time></trkpt><trkpt lat="45.64176957265775" lon="8.27342473492736"><ele>358.5</ele><time>2026-04-06T14:00:32.951Z</time></trkpt><trkpt lat="45.641629498554785" lon="8.273468193128343"><ele>358.0</ele><time>2026-04-06T14:00:33.951Z</time></trkpt><trkpt lat="45.641504114336044" lon="8.27350166369706"><ele>357.5</ele><time>2026-04-06T14:00:34.951Z</time></trkpt><trkpt lat="45.641388279462944" lon="8.273494956596101"><ele>357.0</ele><time>2026-04-06T14:00:35.951Z</time></trkpt><trkpt lat="45.641273546617356" lon="8.273437007094264"><ele>357.0</ele><time>2026-04-06T14:00:36.951Z</time></trkpt><trkpt lat="45.641169815480346" lon="8.273313355534198"><ele>357.0</ele><time>2026-04-06T14:00:37.951Z</time></trkpt><trkpt lat="45.64108284564831" lon="8.27313932809991"><ele>357.0</ele><time>2026-04-06T14:00:38.951Z</time></trkpt><trkpt lat="45.64100480030026" lon="8.272953454427803"><ele>357.0</ele><time>2026-04-06T14:00:39.951Z</time></trkpt><trkpt lat="45.64091818083954" lon="8.272812328194725"><ele>355.75</ele><time>2026-04-06T14:00:40.951Z</time></trkpt><trkpt lat="45.64081204523785" lon="8.272720544780334"><ele>354.5</ele><time>2026-04-06T14:00:41.951Z</time></trkpt><trkpt lat="45.64068140989477" lon="8.272675683704739"><ele>353.25</ele><time>2026-04-06T14:00:42.95Z</time></trkpt><trkpt lat="45.6405413068559" lon="8.272686343821917"><ele>352.0</ele><time>2026-04-06T14:00:43.95Z</time></trkpt><trkpt lat="45.640412844257554" lon="8.272753170635504"><ele>352.0</ele><time>2026-04-06T14:00:44.95Z</time></trkpt><trkpt lat="45.64030362322911" lon="8.272848891004466"><ele>352.0</ele><time>2026-04-06T14:00:45.95Z</time></trkpt><trkpt lat="45.6401968331737" lon="8.272941604224908"><ele>352.0</ele><time>2026-04-06T14:00:46.95Z</time></trkpt><trkpt lat="45.6400733790173" lon="8.272998950443194"><ele>352.0</ele><time>2026-04-06T14:00:47.95Z</time></trkpt><trkpt lat="45.63993891546718" lon="8.27300659847074"><ele>350.66666666666663</ele><time>2026-04-06T14:00:48.95Z</time></trkpt><trkpt lat="45.639804786982786" lon="8.272956508580464"><ele>349.3333333333333</ele><time>2026-04-06T14:00:49.95Z</time></trkpt><trkpt lat="45.63967228383962" lon="8.272846168337109"><ele>348.0</ele><time>2026-04-06T14:00:50.95Z</time></trkpt><trkpt lat="45.63953534070299" lon="8.272698127584672"><ele>346.0</ele><time>2026-04-06T14:00:51.95Z</time></trkpt><trkpt lat="45.63939469555011" lon="8.272540675176545"><ele>344.0</ele><time>2026-04-06T14:00:52.95Z</time></trkpt><trkpt lat="45.63924695113423" lon="8.27237892049128"><ele>342.0</ele><time>2026-04-06T14:00:53.95Z</time></trkpt><trkpt lat="45.63910265498343" lon="8.272222498398445"><ele>342.0</ele><time>2026-04-06T14:00:54.95Z</time></trkpt><trkpt lat="45.638969296603214" lon="8.272080930429881"><ele>342.0</ele><time>2026-04-06T14:00:55.95Z</time></trkpt><trkpt lat="45.638836506778844" lon="8.271963053179393"><ele>342.0</ele><time>2026-04-06T14:00:56.95Z</time></trkpt><trkpt lat="45.638687691071596" lon="8.271879223641136"><ele>340.6666666666667</ele><time>2026-04-06T14:00:57.95Z</time></trkpt><trkpt lat="45.638523814231036" lon="8.271833945386593"><ele>339.33333333333337</ele><time>2026-04-06T14:00:58.95Z</time></trkpt><trkpt lat="45.63835751532176" lon="8.271814112319634"><ele>338.0</ele><time>2026-04-06T14:00:59.95Z</time></trkpt><trkpt lat="45.638186646183605" lon="8.271798208328077"><ele>338.0</ele><time>2026-04-06T14:01:00.95Z</time></trkpt><trkpt lat="45.63802001666361" lon="8.27178094577392"><ele>338.0</ele><time>2026-04-06T14:01:01.95Z</time></trkpt><trkpt lat="45.63785793601626" lon="8.271765251494461"><ele>338.0</ele><time>2026-04-06T14:01:02.95Z</time></trkpt><trkpt lat="45.6376980640544" lon="8.271757908085357"><ele>337.6666666666667</ele><time>2026-04-06T14:01:03.95Z</time></trkpt><trkpt lat="45.637542939905444" lon="8.27178718762487"><ele>337.3333333333333</ele><time>2026-04-06T14:01:04.95Z</time></trkpt><trkpt lat="45.63739041056381" lon="8.271838320509145"><ele>337.0</ele><time>2026-04-06T14:01:05.95Z</time></trkpt><trkpt lat="45.637244418277234" lon="8.271912466116"><ele>337.0</ele><time>2026-04-06T14:01:06.95Z</time></trkpt><trkpt lat="45.637105671564406" lon="8.272006984518535"><ele>337.0</ele><time>2026-04-06T14:01:07.95Z</time></trkpt><trkpt lat="45.636961683815976" lon="8.27210044357043"><ele>337.0</ele><time>2026-04-06T14:01:08.95Z</time></trkpt><trkpt lat="45.63682051226826" lon="8.272198454849129"><ele>335.0</ele><time>2026-04-06T14:01:09.95Z</time></trkpt><trkpt lat="45.6366845384863" lon="8.272295776207182"><ele>333.0</ele><time>2026-04-06T14:01:10.95Z</time></trkpt><trkpt lat="45.63654959603291" lon="8.2723872251771"><ele>331.0</ele><time>2026-04-06T14:01:11.95Z</time></trkpt><trkpt lat="45.6364341346214" lon="8.2724657773381"><ele>329.0</ele><time>2026-04-06T14:01:12.95Z</time></trkpt><trkpt lat="45.63632247458983" lon="8.272547122461319"><ele>329.0</ele><time>2026-04-06T14:01:13.95Z</time></trkpt><trkpt lat="45.63621875862992" lon="8.272653535831328"><ele>329.0</ele><time>2026-04-06T14:01:14.95Z</time></trkpt><trkpt lat="45.636126021202536" lon="8.272790472907843"><ele>329.0</ele><time>2026-04-06T14:01:15.95Z</time></trkpt><trkpt lat="45.63605372421195" lon="8.2729578272492"><ele>329.0</ele><time>2026-04-06T14:01:16.95Z</time></trkpt><trkpt lat="45.63598333315034" lon="8.273135269824477"><ele>329.0</ele><time>2026-04-06T14:01:17.95Z</time></trkpt><trkpt lat="45.63591376655961" lon="8.273301059463916"><ele>329.0</ele><time>2026-04-06T14:01:18.95Z</time></trkpt><trkpt lat="45.63585046255027" lon="8.273457930502332"><ele>329.0</ele><time>2026-04-06T14:01:19.95Z</time></trkpt><trkpt lat="45.63579187997893" lon="8.273603041751894"><ele>329.0</ele><time>2026-04-06T14:01:20.95Z</time></trkpt><trkpt lat="45.63572517998474" lon="8.273738024112049"><ele>329.0</ele><time>2026-04-06T14:01:21.95Z</time></trkpt><trkpt lat="45.63564895745686" lon="8.273864521198488"><ele>329.0</ele><time>2026-04-06T14:01:22.95Z</time></trkpt><trkpt lat="45.635552920980935" lon="8.273953306185273"><ele>329.0</ele><time>2026-04-06T14:01:23.95Z</time></trkpt><trkpt lat="45.6354440017047" lon="8.273996375551409"><ele>329.0</ele><time>2026-04-06T14:01:24.95Z</time></trkpt><trkpt lat="45.63531359313909" lon="8.274004253895779"><ele>328.25</ele><time>2026-04-06T14:01:25.95Z</time></trkpt><trkpt lat="45.63517293590671" lon="8.273990576314015"><ele>327.5</ele><time>2026-04-06T14:01:26.95Z</time></trkpt><trkpt lat="45.63502736461366" lon="8.273960290718728"><ele>326.75</ele><time>2026-04-06T14:01:27.95Z</time></trkpt><trkpt lat="45.63488501732686" lon="8.273916224234537"><ele>326.0</ele><time>2026-04-06T14:01:28.95Z</time></trkpt><trkpt lat="45.63474763795471" lon="8.273864205402418"><ele>326.0</ele><time>2026-04-06T14:01:29.95Z</time></trkpt><trkpt lat="45.634614221484675" lon="8.273805343953196"><ele>326.0</ele><time>2026-04-06T14:01:30.95Z</time></trkpt><trkpt lat="45.63448689857509" lon="8.273738520095547"><ele>326.0</ele><time>2026-04-06T14:01:31.95Z</time></trkpt><trkpt lat="45.634362957513815" lon="8.273654758984215"><ele>326.0</ele><time>2026-04-06T14:01:32.95Z</time></trkpt><trkpt lat="45.63424378199268" lon="8.273563677474066"><ele>326.0</ele><time>2026-04-06T14:01:33.95Z</time></trkpt><trkpt lat="45.634121732770055" lon="8.2734812532749"><ele>326.0</ele><time>2026-04-06T14:01:34.95Z</time></trkpt><trkpt lat="45.63400301968355" lon="8.273399118521189"><ele>326.0</ele><time>2026-04-06T14:01:35.95Z</time></trkpt><trkpt lat="45.63388274977399" lon="8.273321550170081"><ele>326.0</ele><time>2026-04-06T14:01:36.95Z</time></trkpt><trkpt lat="45.633758262583335" lon="8.273262308852097"><ele>325.75</ele><time>2026-04-06T14:01:37.95Z</time></trkpt><trkpt lat="45.6336287038467" lon="8.273226367356125"><ele>325.5</ele><time>2026-04-06T14:01:38.95Z</time></trkpt><trkpt lat="45.63349686401936" lon="8.273210999863812"><ele>325.25</ele><time>2026-04-06T14:01:39.949Z</time></trkpt><trkpt lat="45.633362340980725" lon="8.273215577761261"><ele>325.0</ele><time>2026-04-06T14:01:40.949Z</time></trkpt><trkpt lat="45.633222269177296" lon="8.27323820314053"><ele>325.0</ele><time>2026-04-06T14:01:41.949Z</time></trkpt><trkpt lat="45.63307920384069" lon="8.273276466371511"><ele>325.0</ele><time>2026-04-06T14:01:42.949Z</time></trkpt><trkpt lat="45.63293276226917" lon="8.27334906766745"><ele>325.0</ele><time>2026-04-06T14:01:43.949Z</time></trkpt><trkpt lat="45.63277079644167" lon="8.27346209220191"><ele>326.0</ele><time>2026-04-06T14:01:44.949Z</time></trkpt><trkpt lat="45.63259316458192" lon="8.273599879298047"><ele>327.0</ele><time>2026-04-06T14:01:45.949Z</time></trkpt><trkpt lat="45.63240575090296" lon="8.27374353532632"><ele>328.0</ele><time>2026-04-06T14:01:46.949Z</time></trkpt><trkpt lat="45.63221330594735" lon="8.273871713223985"><ele>324.66666666666663</ele><time>2026-04-06T14:01:47.949Z</time></trkpt><trkpt lat="45.632030352722424" lon="8.273991271886414"><ele>321.3333333333333</ele><time>2026-04-06T14:01:48.949Z</time></trkpt><trkpt lat="45.63186919598834" lon="8.274109055859617"><ele>318.0</ele><time>2026-04-06T14:01:49.949Z</time></trkpt><trkpt lat="45.63172811529687" lon="8.274235377799437"><ele>317.0</ele><time>2026-04-06T14:01:50.95Z</time></trkpt><trkpt lat="45.63161076206852" lon="8.274393891514022"><ele>316.0</ele><time>2026-04-06T14:01:51.95Z</time></trkpt><trkpt lat="45.631512878037164" lon="8.274609766407433"><ele>315.0</ele><time>2026-04-06T14:01:52.95Z</time></trkpt><trkpt lat="45.631436475812045" lon="8.27486130739869"><ele>314.0</ele><time>2026-04-06T14:01:53.95Z</time></trkpt><trkpt lat="45.63137545968395" lon="8.27513325642242"><ele>313.0</ele><time>2026-04-06T14:01:54.95Z</time></trkpt><trkpt lat="45.631326629142684" lon="8.275436574118642"><ele>312.0</ele><time>2026-04-06T14:01:55.95Z</time></trkpt><trkpt lat="45.6312841577063" lon="8.275758195071997"><ele>311.0</ele><time>2026-04-06T14:01:56.95Z</time></trkpt><trkpt lat="45.63124246782089" lon="8.276086256803936"><ele>310.0</ele><time>2026-04-06T14:01:57.95Z</time></trkpt><trkpt lat="45.6312035317415" lon="8.276394499435701"><ele>309.66666666666663</ele><time>2026-04-06T14:01:58.95Z</time></trkpt><trkpt lat="45.631163884664964" lon="8.276688289065872"><ele>309.3333333333333</ele><time>2026-04-06T14:01:59.95Z</time></trkpt><trkpt lat="45.63112228516101" lon="8.276971076659924"><ele>309.0</ele><time>2026-04-06T14:02:00.95Z</time></trkpt><trkpt lat="45.631085702812946" lon="8.277240312051335"><ele>309.6666666666667</ele><time>2026-04-06T14:02:01.949Z</time></trkpt><trkpt lat="45.63104387378958" lon="8.277490218250543"><ele>310.33333333333337</ele><time>2026-04-06T14:02:02.95Z</time></trkpt><trkpt lat="45.63098361928464" lon="8.277716099631945"><ele>311.0</ele><time>2026-04-06T14:02:03.95Z</time></trkpt><trkpt lat="45.63090106505098" lon="8.277911038708439"><ele>311.0</ele><time>2026-04-06T14:02:04.95Z</time></trkpt><trkpt lat="45.630785199908914" lon="8.278069308026765"><ele>311.0</ele><time>2026-04-06T14:02:05.95Z</time></trkpt><trkpt lat="45.63065215000774" lon="8.278212764825378"><ele>311.0</ele><time>2026-04-06T14:02:06.95Z</time></trkpt><trkpt lat="45.630512421458135" lon="8.27836145764063"><ele>310.0</ele><time>2026-04-06T14:02:07.95Z</time></trkpt><trkpt lat="45.63037355884598" lon="8.278522845774383"><ele>309.0</ele><time>2026-04-06T14:02:08.95Z</time></trkpt><trkpt lat="45.63023285457418" lon="8.278688867815562"><ele>308.0</ele><time>2026-04-06T14:02:09.95Z</time></trkpt><trkpt lat="45.63008889869311" lon="8.278859294958256"><ele>310.6666666666667</ele><time>2026-04-06T14:02:10.95Z</time></trkpt><trkpt lat="45.62993890961401" lon="8.279026569554254"><ele>313.3333333333333</ele><time>2026-04-06T14:02:11.95Z</time></trkpt><trkpt lat="45.62978452874009" lon="8.279202597467885"><ele>316.0</ele><time>2026-04-06T14:02:12.95Z</time></trkpt><trkpt lat="45.62963141323627" lon="8.279382844162267"><ele>316.0</ele><time>2026-04-06T14:02:13.95Z</time></trkpt><trkpt lat="45.6294781160263" lon="8.279564084579766"><ele>316.0</ele><time>2026-04-06T14:02:14.95Z</time></trkpt><trkpt lat="45.62932082420303" lon="8.27974500203511"><ele>316.0</ele><time>2026-04-06T14:02:15.95Z</time></trkpt><trkpt lat="45.62916142542473" lon="8.279932280183171"><ele>313.66666666666663</ele><time>2026-04-06T14:02:16.95Z</time></trkpt><trkpt lat="45.629003764467015" lon="8.280113696772906"><ele>311.3333333333333</ele><time>2026-04-06T14:02:17.95Z</time></trkpt><trkpt lat="45.62885639266432" lon="8.28028616685949"><ele>309.0</ele><time>2026-04-06T14:02:18.95Z</time></trkpt><trkpt lat="45.62870791640708" lon="8.28044237524969"><ele>308.0</ele><time>2026-04-06T14:02:19.95Z</time></trkpt><trkpt lat="45.62855404059827" lon="8.280572925585075"><ele>307.0</ele><time>2026-04-06T14:02:20.95Z</time></trkpt><trkpt lat="45.62838731595453" lon="8.280667187454577"><ele>306.0</ele><time>2026-04-06T14:02:21.95Z</time></trkpt><trkpt lat="45.62820835430388" lon="8.280723191685768"><ele>306.0</ele><time>2026-04-06T14:02:22.95Z</time></trkpt><trkpt lat="45.62802217426753" lon="8.280739608071737"><ele>306.0</ele><time>2026-04-06T14:02:23.95Z</time></trkpt><trkpt lat="45.62783264454578" lon="8.280742228715372"><ele>306.0</ele><time>2026-04-06T14:02:24.95Z</time></trkpt><trkpt lat="45.62764014298087" lon="8.280757795804796"><ele>305.0</ele><time>2026-04-06T14:02:25.95Z</time></trkpt><trkpt lat="45.62744907575809" lon="8.280773036166849"><ele>304.0</ele><time>2026-04-06T14:02:26.95Z</time></trkpt><trkpt lat="45.627259441876525" lon="8.280777623857144"><ele>303.0</ele><time>2026-04-06T14:02:27.95Z</time></trkpt><trkpt lat="45.62707062908376" lon="8.280774305164393"><ele>302.0</ele><time>2026-04-06T14:02:28.95Z</time></trkpt><trkpt lat="45.62688294503477" lon="8.280749690440945"><ele>301.0</ele><time>2026-04-06T14:02:29.95Z</time></trkpt><trkpt lat="45.626702660766206" lon="8.280697941470379"><ele>300.0</ele><time>2026-04-06T14:02:30.95Z</time></trkpt><trkpt lat="45.6265257394208" lon="8.280633876446396"><ele>301.0</ele><time>2026-04-06T14:02:31.95Z</time></trkpt><trkpt lat="45.62635031174609" lon="8.280575665063191"><ele>302.0</ele><time>2026-04-06T14:02:32.95Z</time></trkpt><trkpt lat="45.626175328831614" lon="8.280515156284881"><ele>303.0</ele><time>2026-04-06T14:02:33.95Z</time></trkpt><trkpt lat="45.62600217649126" lon="8.280450119471901"><ele>303.0</ele><time>2026-04-06T14:02:34.95Z</time></trkpt><trkpt lat="45.62583482868917" lon="8.280381536814579"><ele>303.0</ele><time>2026-04-06T14:02:35.95Z</time></trkpt><trkpt lat="45.625668350062824" lon="8.280316590477645"><ele>303.0</ele><time>2026-04-06T14:02:36.95Z</time></trkpt><trkpt lat="45.625504978486724" lon="8.28025236682798"><ele>303.0</ele><time>2026-04-06T14:02:37.949Z</time></trkpt><trkpt lat="45.62534503899576" lon="8.280189400133759"><ele>303.0</ele><time>2026-04-06T14:02:38.949Z</time></trkpt><trkpt lat="45.625185351042" lon="8.28014731463532"><ele>303.0</ele><time>2026-04-06T14:02:39.949Z</time></trkpt><trkpt lat="45.625023317516636" lon="8.280140010801986"><ele>302.6666666666667</ele><time>2026-04-06T14:02:40.949Z</time></trkpt><trkpt lat="45.62485992837155" lon="8.280162927904993"><ele>302.33333333333337</ele><time>2026-04-06T14:02:41.949Z</time></trkpt><trkpt lat="45.6246956180617" lon="8.280222198422164"><ele>302.0</ele><time>2026-04-06T14:02:42.949Z</time></trkpt><trkpt lat="45.62453632447775" lon="8.280306449896848"><ele>301.33333333333337</ele><time>2026-04-06T14:02:43.949Z</time></trkpt><trkpt lat="45.62438161109444" lon="8.280403721473796"><ele>300.6666666666667</ele><time>2026-04-06T14:02:44.949Z</time></trkpt><trkpt lat="45.62422867995244" lon="8.280514358101227"><ele>300.0</ele><time>2026-04-06T14:02:45.949Z</time></trkpt><trkpt lat="45.62408117401163" lon="8.280627744484622"><ele>300.0</ele><time>2026-04-06T14:02:46.949Z</time></trkpt><trkpt lat="45.6239341975553" lon="8.280738467040976"><ele>300.0</ele><time>2026-04-06T14:02:47.949Z</time></trkpt><trkpt lat="45.62378921904307" lon="8.280846913349286"><ele>300.0</ele><time>2026-04-06T14:02:48.949Z</time></trkpt><trkpt lat="45.623646002170005" lon="8.280953057335386"><ele>302.0</ele><time>2026-04-06T14:02:49.949Z</time></trkpt><trkpt lat="45.623510907252154" lon="8.281052943991224"><ele>304.0</ele><time>2026-04-06T14:02:50.949Z</time></trkpt><trkpt lat="45.62338139940045" lon="8.281148617806577"><ele>306.0</ele><time>2026-04-06T14:02:51.949Z</time></trkpt><trkpt lat="45.62325825190892" lon="8.28124005911165"><ele>308.0</ele><time>2026-04-06T14:02:52.949Z</time></trkpt><trkpt lat="45.62313837183322" lon="8.281330232760968"><ele>308.0</ele><time>2026-04-06T14:02:53.949Z</time></trkpt><trkpt lat="45.623021890207546" lon="8.281415858896121"><ele>308.0</ele><time>2026-04-06T14:02:54.949Z</time></trkpt><trkpt lat="45.62290003249646" lon="8.281499754872822"><ele>308.0</ele><time>2026-04-06T14:02:55.949Z</time></trkpt><trkpt lat="45.62276713818613" lon="8.281595203655455"><ele>308.0</ele><time>2026-04-06T14:02:56.949Z</time></trkpt><trkpt lat="45.62263236417663" lon="8.281695343535805"><ele>304.6666666666667</ele><time>2026-04-06T14:02:57.949Z</time></trkpt><trkpt lat="45.62248786361859" lon="8.281803531714704"><ele>301.3333333333333</ele><time>2026-04-06T14:02:58.949Z</time></trkpt><trkpt lat="45.622340099116855" lon="8.281914515794904"><ele>298.0</ele><time>2026-04-06T14:02:59.949Z</time></trkpt><trkpt lat="45.622187248292555" lon="8.28202690290576"><ele>298.0</ele><time>2026-04-06T14:03:00.949Z</time></trkpt><trkpt lat="45.62203620550599" lon="8.282135887344447"><ele>298.0</ele><time>2026-04-06T14:03:01.949Z</time></trkpt><trkpt lat="45.62188305975688" lon="8.28224630509993"><ele>298.0</ele><time>2026-04-06T14:03:02.949Z</time></trkpt><trkpt lat="45.62172868109324" lon="8.282355860317983"><ele>296.66666666666663</ele><time>2026-04-06T14:03:03.949Z</time></trkpt><trkpt lat="45.62157432346806" lon="8.282462257457372"><ele>295.3333333333333</ele><time>2026-04-06T14:03:04.949Z</time></trkpt><trkpt lat="45.62141796579179" lon="8.282574126008418"><ele>294.0</ele><time>2026-04-06T14:03:05.949Z</time></trkpt><trkpt lat="45.62126504065399" lon="8.282692075222363"><ele>295.0</ele><time>2026-04-06T14:03:06.949Z</time></trkpt><trkpt lat="45.62111447429113" lon="8.28280581510566"><ele>296.0</ele><time>2026-04-06T14:03:07.949Z</time></trkpt><trkpt lat="45.62096545975694" lon="8.282907405494067"><ele>297.0</ele><time>2026-04-06T14:03:08.949Z</time></trkpt><trkpt lat="45.62081787200624" lon="8.282989579656343"><ele>297.0</ele><time>2026-04-06T14:03:09.949Z</time></trkpt><trkpt lat="45.620673606202224" lon="8.283076901099376"><ele>297.0</ele><time>2026-04-06T14:03:10.949Z</time></trkpt><trkpt lat="45.62053634343467" lon="8.283187594354532"><ele>297.0</ele><time>2026-04-06T14:03:11.949Z</time></trkpt><trkpt lat="45.6204059599575" lon="8.283324181874846"><ele>296.3333333333333</ele><time>2026-04-06T14:03:12.949Z</time></trkpt><trkpt lat="45.62028058308998" lon="8.283482972737277"><ele>295.66666666666663</ele><time>2026-04-06T14:03:13.949Z</time></trkpt><trkpt lat="45.62017008611065" lon="8.283666406456275"><ele>295.0</ele><time>2026-04-06T14:03:14.949Z</time></trkpt><trkpt lat="45.62006725215155" lon="8.28386394215504"><ele>293.66666666666663</ele><time>2026-04-06T14:03:15.949Z</time></trkpt><trkpt lat="45.61995802913862" lon="8.284060697624758"><ele>292.3333333333333</ele><time>2026-04-06T14:03:16.949Z</time></trkpt><trkpt lat="45.61983033083552" lon="8.284237514767124"><ele>291.0</ele><time>2026-04-06T14:03:17.949Z</time></trkpt><trkpt lat="45.61968416119929" lon="8.28439279130397"><ele>291.0</ele><time>2026-04-06T14:03:18.949Z</time></trkpt><trkpt lat="45.619523423232664" lon="8.284523109752355"><ele>291.0</ele><time>2026-04-06T14:03:19.949Z</time></trkpt><trkpt lat="45.61934949555691" lon="8.284624512069877"><ele>291.0</ele><time>2026-04-06T14:03:20.949Z</time></trkpt><trkpt lat="45.61916300650297" lon="8.284688620665872"><ele>291.6666666666667</ele><time>2026-04-06T14:03:21.949Z</time></trkpt><trkpt lat="45.618973466703856" lon="8.284721023443167"><ele>292.33333333333337</ele><time>2026-04-06T14:03:22.949Z</time></trkpt><trkpt lat="45.61878825586056" lon="8.284717975308574"><ele>293.0</ele><time>2026-04-06T14:03:23.949Z</time></trkpt><trkpt lat="45.61860445063784" lon="8.28467864197418"><ele>293.0</ele><time>2026-04-06T14:03:24.949Z</time></trkpt><trkpt lat="45.61843308818025" lon="8.284600858409686"><ele>293.0</ele><time>2026-04-06T14:03:25.949Z</time></trkpt><trkpt lat="45.61827802758587" lon="8.284502722144966"><ele>293.0</ele><time>2026-04-06T14:03:26.949Z</time></trkpt><trkpt lat="45.618143447966176" lon="8.284408495855663"><ele>293.0</ele><time>2026-04-06T14:03:27.949Z</time></trkpt><trkpt lat="45.61801636804123" lon="8.284339699268585"><ele>293.0</ele><time>2026-04-06T14:03:28.949Z</time></trkpt><trkpt lat="45.617890439769226" lon="8.284323283637123"><ele>293.0</ele><time>2026-04-06T14:03:29.949Z</time></trkpt><trkpt lat="45.617771907262345" lon="8.28436697010765"><ele>293.0</ele><time>2026-04-06T14:03:30.949Z</time></trkpt><trkpt lat="45.61766533085107" lon="8.284446334821101"><ele>293.0</ele><time>2026-04-06T14:03:31.949Z</time></trkpt><trkpt lat="45.61755992527177" lon="8.28452783898205"><ele>293.0</ele><time>2026-04-06T14:03:32.949Z</time></trkpt><trkpt lat="45.61745536964917" lon="8.284602726560266"><ele>293.0</ele><time>2026-04-06T14:03:33.949Z</time></trkpt><trkpt lat="45.617357222571314" lon="8.284667940618627"><ele>293.0</ele><time>2026-04-06T14:03:34.948Z</time></trkpt><trkpt lat="45.617267235395985" lon="8.28473334467093"><ele>293.0</ele><time>2026-04-06T14:03:35.948Z</time></trkpt><trkpt lat="45.61718891741811" lon="8.284789629827449"><ele>292.6666666666667</ele><time>2026-04-06T14:03:36.948Z</time></trkpt><trkpt lat="45.61712495365564" lon="8.284825232540978"><ele>292.33333333333337</ele><time>2026-04-06T14:03:37.948Z</time></trkpt><trkpt lat="45.61703585051618" lon="8.28488030324187"><ele>292.0</ele><time>2026-04-06T14:03:39.948Z</time></trkpt><trkpt lat="45.616976041664266" lon="8.284918429084174"><ele>291.6666666666667</ele><time>2026-04-06T14:03:41.948Z</time></trkpt><trkpt lat="45.616913351067204" lon="8.284971347259816"><ele>291.3333333333333</ele><time>2026-04-06T14:03:45.948Z</time></trkpt><trkpt lat="45.61684877568976" lon="8.285037303810633"><ele>291.0</ele><time>2026-04-06T14:03:47.948Z</time></trkpt><trkpt lat="45.61678565981114" lon="8.285071865570162"><ele>291.0</ele><time>2026-04-06T14:03:48.948Z</time></trkpt><trkpt lat="45.61670738064055" lon="8.285119152356906"><ele>291.0</ele><time>2026-04-06T14:03:49.948Z</time></trkpt><trkpt lat="45.61662473602088" lon="8.285181897520738"><ele>291.0</ele><time>2026-04-06T14:03:50.948Z</time></trkpt><trkpt lat="45.61655198102213" lon="8.285239985934028"><ele>291.0</ele><time>2026-04-06T14:03:51.948Z</time></trkpt><trkpt lat="45.61646871445851" lon="8.285308211648644"><ele>291.0</ele><time>2026-04-06T14:03:52.948Z</time></trkpt><trkpt lat="45.61637333227213" lon="8.285386071324613"><ele>291.0</ele><time>2026-04-06T14:03:53.948Z</time></trkpt><trkpt lat="45.61627029977321" lon="8.28546608671458"><ele>291.0</ele><time>2026-04-06T14:03:54.948Z</time></trkpt><trkpt lat="45.61615810671202" lon="8.28555686396968"><ele>291.0</ele><time>2026-04-06T14:03:55.948Z</time></trkpt><trkpt lat="45.61604948636602" lon="8.285644880446347"><ele>291.0</ele><time>2026-04-06T14:03:56.948Z</time></trkpt><trkpt lat="45.615944314280235" lon="8.285739102194587"><ele>292.5</ele><time>2026-04-06T14:03:57.949Z</time></trkpt><trkpt lat="45.61583687239629" lon="8.285836889300603"><ele>294.0</ele><time>2026-04-06T14:03:58.949Z</time></trkpt><trkpt lat="45.61573071494107" lon="8.285931076769062"><ele>295.5</ele><time>2026-04-06T14:03:59.949Z</time></trkpt><trkpt lat="45.61562716509652" lon="8.286028304241693"><ele>297.0</ele><time>2026-04-06T14:04:00.949Z</time></trkpt><trkpt lat="45.615523129637474" lon="8.286127139745421"><ele>297.0</ele><time>2026-04-06T14:04:01.949Z</time></trkpt><trkpt lat="45.61541587680552" lon="8.286222564910465"><ele>297.0</ele><time>2026-04-06T14:04:02.949Z</time></trkpt><trkpt lat="45.615303229598105" lon="8.286321506841574"><ele>297.0</ele><time>2026-04-06T14:04:03.949Z</time></trkpt><trkpt lat="45.61518805158796" lon="8.286421400556694"><ele>297.0</ele><time>2026-04-06T14:04:04.949Z</time></trkpt><trkpt lat="45.615069197403386" lon="8.286529175077995"><ele>296.25</ele><time>2026-04-06T14:04:05.949Z</time></trkpt><trkpt lat="45.61494479388933" lon="8.286637150754323"><ele>295.5</ele><time>2026-04-06T14:04:06.949Z</time></trkpt><trkpt lat="45.614813584868564" lon="8.286743650243134"><ele>294.75</ele><time>2026-04-06T14:04:07.949Z</time></trkpt><trkpt lat="45.614680779279674" lon="8.286836746690403"><ele>294.0</ele><time>2026-04-06T14:04:08.949Z</time></trkpt><trkpt lat="45.61454612072213" lon="8.286918230685918"><ele>295.25</ele><time>2026-04-06T14:04:09.948Z</time></trkpt><trkpt lat="45.61441017846499" lon="8.28699546557106"><ele>296.5</ele><time>2026-04-06T14:04:10.948Z</time></trkpt><trkpt lat="45.61427278144619" lon="8.28706665839648"><ele>297.75</ele><time>2026-04-06T14:04:11.948Z</time></trkpt><trkpt lat="45.61413396464687" lon="8.287136377017987"><ele>299.0</ele><time>2026-04-06T14:04:12.948Z</time></trkpt><trkpt lat="45.61399400208602" lon="8.287208254988736"><ele>297.33333333333337</ele><time>2026-04-06T14:04:13.948Z</time></trkpt><trkpt lat="45.61385199568721" lon="8.287275851455435"><ele>295.6666666666667</ele><time>2026-04-06T14:04:14.948Z</time></trkpt><trkpt lat="45.613707455728445" lon="8.28732948836637"><ele>294.0</ele><time>2026-04-06T14:04:15.948Z</time></trkpt><trkpt lat="45.613558964788524" lon="8.287382082248241"><ele>294.0</ele><time>2026-04-06T14:04:16.948Z</time></trkpt><trkpt lat="45.61340954712737" lon="8.287429173056504"><ele>294.0</ele><time>2026-04-06T14:04:17.948Z</time></trkpt><trkpt lat="45.61325492020136" lon="8.287487087661516"><ele>294.0</ele><time>2026-04-06T14:04:18.948Z</time></trkpt><trkpt lat="45.61309678971599" lon="8.287556040995426"><ele>294.0</ele><time>2026-04-06T14:04:19.948Z</time></trkpt><trkpt lat="45.61294626750891" lon="8.28763655208727"><ele>294.0</ele><time>2026-04-06T14:04:20.948Z</time></trkpt><trkpt lat="45.61279657730709" lon="8.287728257522243"><ele>294.0</ele><time>2026-04-06T14:04:21.948Z</time></trkpt><trkpt lat="45.61265376340493" lon="8.287825042708198"><ele>293.3333333333333</ele><time>2026-04-06T14:04:22.948Z</time></trkpt><trkpt lat="45.61251074199379" lon="8.287919370133372"><ele>292.66666666666663</ele><time>2026-04-06T14:04:23.948Z</time></trkpt><trkpt lat="45.61236709809893" lon="8.288010156893147"><ele>292.0</ele><time>2026-04-06T14:04:24.948Z</time></trkpt><trkpt lat="45.612224187156116" lon="8.288098526175778"><ele>292.0</ele><time>2026-04-06T14:04:25.948Z</time></trkpt><trkpt lat="45.612080257500054" lon="8.288183758338294"><ele>292.0</ele><time>2026-04-06T14:04:26.948Z</time></trkpt><trkpt lat="45.611934921285034" lon="8.288275887752771"><ele>292.0</ele><time>2026-04-06T14:04:27.948Z</time></trkpt><trkpt lat="45.61179311579926" lon="8.288368501313846"><ele>290.5</ele><time>2026-04-06T14:04:28.948Z</time></trkpt><trkpt lat="45.61165579208263" lon="8.288456143188903"><ele>289.0</ele><time>2026-04-06T14:04:29.948Z</time></trkpt><trkpt lat="45.61152373816603" lon="8.288535373226136"><ele>287.5</ele><time>2026-04-06T14:04:30.948Z</time></trkpt><trkpt lat="45.61139565429182" lon="8.288594156442041"><ele>286.0</ele><time>2026-04-06T14:04:31.948Z</time></trkpt><trkpt lat="45.61126633577642" lon="8.288623369768285"><ele>285.5</ele><time>2026-04-06T14:04:32.948Z</time></trkpt><trkpt lat="45.61113654271076" lon="8.288626605859017"><ele>285.0</ele><time>2026-04-06T14:04:33.948Z</time></trkpt><trkpt lat="45.6110055087872" lon="8.28863048597881"><ele>284.5</ele><time>2026-04-06T14:04:34.948Z</time></trkpt><trkpt lat="45.61087047710511" lon="8.288635647991233"><ele>284.0</ele><time>2026-04-06T14:04:35.948Z</time></trkpt><trkpt lat="45.61073425757679" lon="8.288638259733442"><ele>284.0</ele><time>2026-04-06T14:04:36.948Z</time></trkpt><trkpt lat="45.61059796210873" lon="8.288650280058992"><ele>284.0</ele><time>2026-04-06T14:04:37.948Z</time></trkpt><trkpt lat="45.610462660848114" lon="8.288667590679713"><ele>284.0</ele><time>2026-04-06T14:04:38.948Z</time></trkpt><trkpt lat="45.610326289090594" lon="8.288687092430287"><ele>284.0</ele><time>2026-04-06T14:04:39.948Z</time></trkpt><trkpt lat="45.61019626214165" lon="8.2887073362124"><ele>284.25</ele><time>2026-04-06T14:04:40.948Z</time></trkpt><trkpt lat="45.610067068108805" lon="8.288714857658647"><ele>284.5</ele><time>2026-04-06T14:04:41.948Z</time></trkpt><trkpt lat="45.609940796750195" lon="8.288722880400952"><ele>284.75</ele><time>2026-04-06T14:04:42.948Z</time></trkpt><trkpt lat="45.60981310508846" lon="8.28873053136025"><ele>285.0</ele><time>2026-04-06T14:04:43.948Z</time></trkpt><trkpt lat="45.609680495097415" lon="8.288737603084835"><ele>285.0</ele><time>2026-04-06T14:04:44.948Z</time></trkpt><trkpt lat="45.6095587545486" lon="8.288749461022181"><ele>285.0</ele><time>2026-04-06T14:04:45.948Z</time></trkpt><trkpt lat="45.609445874097034" lon="8.288757530270566"><ele>285.0</ele><time>2026-04-06T14:04:46.948Z</time></trkpt><trkpt lat="45.60934293438656" lon="8.288769521381884"><ele>285.0</ele><time>2026-04-06T14:04:47.948Z</time></trkpt><trkpt lat="45.609241638276735" lon="8.288722316457923"><ele>285.0</ele><time>2026-04-06T14:04:48.948Z</time></trkpt><trkpt lat="45.609135755465324" lon="8.288729732448363"><ele>285.4</ele><time>2026-04-06T14:04:49.948Z</time></trkpt><trkpt lat="45.609025595293495" lon="8.288737448022154"><ele>285.8</ele><time>2026-04-06T14:04:50.948Z</time></trkpt><trkpt lat="45.60891284249089" lon="8.28874534518276"><ele>286.2</ele><time>2026-04-06T14:04:51.948Z</time></trkpt><trkpt lat="45.60880573069823" lon="8.288752847249711"><ele>286.6</ele><time>2026-04-06T14:04:52.948Z</time></trkpt><trkpt lat="45.60870131270116" lon="8.288778988195338"><ele>287.0</ele><time>2026-04-06T14:04:53.948Z</time></trkpt><trkpt lat="45.608595515536464" lon="8.288776201602076"><ele>287.25</ele><time>2026-04-06T14:04:54.948Z</time></trkpt><trkpt lat="45.60848227553551" lon="8.288790830805002"><ele>287.5</ele><time>2026-04-06T14:04:55.948Z</time></trkpt><trkpt lat="45.60836960115675" lon="8.288797882939784"><ele>287.75</ele><time>2026-04-06T14:04:56.948Z</time></trkpt><trkpt lat="45.60825280930883" lon="8.288808384689755"><ele>288.0</ele><time>2026-04-06T14:04:57.948Z</time></trkpt><trkpt lat="45.60812731456709" lon="8.288820816691887"><ele>288.0</ele><time>2026-04-06T14:04:58.948Z</time></trkpt><trkpt lat="45.608001510436814" lon="8.288828690485332"><ele>288.0</ele><time>2026-04-06T14:04:59.948Z</time></trkpt><trkpt lat="45.60787407589243" lon="8.2888363441498"><ele>288.0</ele><time>2026-04-06T14:05:00.948Z</time></trkpt><trkpt lat="45.60774288586111" lon="8.288844657962887"><ele>288.0</ele><time>2026-04-06T14:05:01.947Z</time></trkpt><trkpt lat="45.607608765256266" lon="8.288857796320892"><ele>288.25</ele><time>2026-04-06T14:05:02.947Z</time></trkpt><trkpt lat="45.6074748567354" lon="8.288868756909906"><ele>288.5</ele><time>2026-04-06T14:05:03.947Z</time></trkpt><trkpt lat="45.60734563740734" lon="8.288875040833217"><ele>288.75</ele><time>2026-04-06T14:05:04.947Z</time></trkpt><trkpt lat="45.607227622301025" lon="8.288880078146954"><ele>289.0</ele><time>2026-04-06T14:05:05.947Z</time></trkpt><trkpt lat="45.60711599790033" lon="8.28888417033501"><ele>289.0</ele><time>2026-04-06T14:05:06.947Z</time></trkpt><trkpt lat="45.60700942115674" lon="8.288890318276835"><ele>289.0</ele><time>2026-04-06T14:05:07.947Z</time></trkpt><trkpt lat="45.60690205384386" lon="8.288900092707435"><ele>289.0</ele><time>2026-04-06T14:05:08.947Z</time></trkpt><trkpt lat="45.606787720059764" lon="8.288908542892738"><ele>289.0</ele><time>2026-04-06T14:05:09.947Z</time></trkpt><trkpt lat="45.60667417063995" lon="8.288925022436118"><ele>289.0</ele><time>2026-04-06T14:05:10.947Z</time></trkpt><trkpt lat="45.60654909153548" lon="8.288919629656876"><ele>287.5</ele><time>2026-04-06T14:05:11.947Z</time></trkpt><trkpt lat="45.60642523612858" lon="8.288938176241794"><ele>286.0</ele><time>2026-04-06T14:05:12.947Z</time></trkpt><trkpt lat="45.60629972170823" lon="8.288971832915934"><ele>284.5</ele><time>2026-04-06T14:05:13.947Z</time></trkpt><trkpt lat="45.60617897538562" lon="8.289017338449582"><ele>283.0</ele><time>2026-04-06T14:05:14.947Z</time></trkpt><trkpt lat="45.606052648559555" lon="8.289065011662352"><ele>283.0</ele><time>2026-04-06T14:05:15.947Z</time></trkpt><trkpt lat="45.60592463916692" lon="8.289113319836495"><ele>283.0</ele><time>2026-04-06T14:05:16.947Z</time></trkpt><trkpt lat="45.605795896531745" lon="8.289178006559737"><ele>283.0</ele><time>2026-04-06T14:05:17.947Z</time></trkpt><trkpt lat="45.60566060825267" lon="8.289211789919422"><ele>283.0</ele><time>2026-04-06T14:05:18.947Z</time></trkpt><trkpt lat="45.605518858655095" lon="8.28923282660581"><ele>283.0</ele><time>2026-04-06T14:05:19.947Z</time></trkpt><trkpt lat="45.605376501164514" lon="8.289247501761741"><ele>283.0</ele><time>2026-04-06T14:05:20.947Z</time></trkpt><trkpt lat="45.60522740162337" lon="8.28926791915699"><ele>283.0</ele><time>2026-04-06T14:05:21.947Z</time></trkpt><trkpt lat="45.60508073826589" lon="8.28928868176594"><ele>283.0</ele><time>2026-04-06T14:05:22.947Z</time></trkpt><trkpt lat="45.60493505367338" lon="8.289280362626064"><ele>282.75</ele><time>2026-04-06T14:05:23.947Z</time></trkpt><trkpt lat="45.604792975172124" lon="8.289293622807609"><ele>282.5</ele><time>2026-04-06T14:05:24.947Z</time></trkpt><trkpt lat="45.604656530163666" lon="8.289306405754985"><ele>282.25</ele><time>2026-04-06T14:05:25.947Z</time></trkpt><trkpt lat="45.60451526558295" lon="8.289319623492707"><ele>282.0</ele><time>2026-04-06T14:05:26.947Z</time></trkpt><trkpt lat="45.604375334948536" lon="8.289332716417002"><ele>282.0</ele><time>2026-04-06T14:05:27.947Z</time></trkpt><trkpt lat="45.604231409127635" lon="8.289347299401339"><ele>282.0</ele><time>2026-04-06T14:05:28.947Z</time></trkpt><trkpt lat="45.60408874736844" lon="8.28936231479092"><ele>282.0</ele><time>2026-04-06T14:05:29.947Z</time></trkpt><trkpt lat="45.60394467065377" lon="8.289377479108532"><ele>282.0</ele><time>2026-04-06T14:05:30.947Z</time></trkpt><trkpt lat="45.603798701034684" lon="8.28939677078363"><ele>283.5</ele><time>2026-04-06T14:05:31.947Z</time></trkpt><trkpt lat="45.60365916245884" lon="8.289450538266456"><ele>285.0</ele><time>2026-04-06T14:05:32.947Z</time></trkpt><trkpt lat="45.603517570291686" lon="8.289502281251833"><ele>286.5</ele><time>2026-04-06T14:05:33.947Z</time></trkpt><trkpt lat="45.6033766789316" lon="8.289561294133257"><ele>288.0</ele><time>2026-04-06T14:05:34.947Z</time></trkpt><trkpt lat="45.603235952512094" lon="8.289625164643628"><ele>288.0</ele><time>2026-04-06T14:05:35.947Z</time></trkpt><trkpt lat="45.603099930821045" lon="8.28970371632221"><ele>288.0</ele><time>2026-04-06T14:05:36.947Z</time></trkpt><trkpt lat="45.602967199561924" lon="8.289782937125462"><ele>288.0</ele><time>2026-04-06T14:05:37.947Z</time></trkpt><trkpt lat="45.60283498883558" lon="8.28986587612818"><ele>288.0</ele><time>2026-04-06T14:05:38.947Z</time></trkpt><trkpt lat="45.60270328878206" lon="8.289938474418953"><ele>286.5</ele><time>2026-04-06T14:05:39.947Z</time></trkpt><trkpt lat="45.602569772807286" lon="8.290010883139171"><ele>285.0</ele><time>2026-04-06T14:05:40.947Z</time></trkpt><trkpt lat="45.60243281328006" lon="8.290087502554591"><ele>283.5</ele><time>2026-04-06T14:05:41.947Z</time></trkpt><trkpt lat="45.60229452632504" lon="8.290160233396659"><ele>282.0</ele><time>2026-04-06T14:05:42.947Z</time></trkpt><trkpt lat="45.60215821903799" lon="8.290232652805866"><ele>282.0</ele><time>2026-04-06T14:05:43.947Z</time></trkpt><trkpt lat="45.60201957222242" lon="8.29030894177008"><ele>282.0</ele><time>2026-04-06T14:05:44.947Z</time></trkpt><trkpt lat="45.60188338902338" lon="8.290384203891236"><ele>282.0</ele><time>2026-04-06T14:05:45.947Z</time></trkpt><trkpt lat="45.60174822443636" lon="8.290461393626282"><ele>282.0</ele><time>2026-04-06T14:05:46.947Z</time></trkpt><trkpt lat="45.6016133178617" lon="8.290536802940746"><ele>280.5</ele><time>2026-04-06T14:05:47.947Z</time></trkpt><trkpt lat="45.60147780733228" lon="8.290607069237828"><ele>279.0</ele><time>2026-04-06T14:05:48.947Z</time></trkpt><trkpt lat="45.601352895598346" lon="8.290668550870594"><ele>277.5</ele><time>2026-04-06T14:05:49.947Z</time></trkpt><trkpt lat="45.601232711140554" lon="8.290727827699369"><ele>276.0</ele><time>2026-04-06T14:05:50.947Z</time></trkpt><trkpt lat="45.601121179959335" lon="8.290787663470626"><ele>275.40000000000003</ele><time>2026-04-06T14:05:51.947Z</time></trkpt><trkpt lat="45.601015518587815" lon="8.290846598577398"><ele>274.8</ele><time>2026-04-06T14:05:52.947Z</time></trkpt><trkpt lat="45.60091223141508" lon="8.290906693436074"><ele>274.20000000000005</ele><time>2026-04-06T14:05:53.947Z</time></trkpt><trkpt lat="45.60081292801086" lon="8.290965311585865"><ele>273.6</ele><time>2026-04-06T14:05:54.947Z</time></trkpt><trkpt lat="45.60071649280914" lon="8.291016807753635"><ele>273.0</ele><time>2026-04-06T14:05:55.947Z</time></trkpt><trkpt lat="45.600617371356" lon="8.291074922600444"><ele>273.0</ele><time>2026-04-06T14:05:56.947Z</time></trkpt><trkpt lat="45.60051605325754" lon="8.291134230119928"><ele>273.0</ele><time>2026-04-06T14:05:57.947Z</time></trkpt><trkpt lat="45.60041359950619" lon="8.291190651231764"><ele>273.0</ele><time>2026-04-06T14:05:58.947Z</time></trkpt><trkpt lat="45.6003116787057" lon="8.291234930722577"><ele>273.0</ele><time>2026-04-06T14:05:59.947Z</time></trkpt><trkpt lat="45.600209071925235" lon="8.29129231163085"><ele>273.0</ele><time>2026-04-06T14:06:00.946Z</time></trkpt><trkpt lat="45.60010711900509" lon="8.291351113030014"><ele>272.8</ele><time>2026-04-06T14:06:01.946Z</time></trkpt><trkpt lat="45.60000356950129" lon="8.291410674712766"><ele>272.6</ele><time>2026-04-06T14:06:02.948Z</time></trkpt><trkpt lat="45.599899367324454" lon="8.291464711856852"><ele>272.4</ele><time>2026-04-06T14:06:03.947Z</time></trkpt><trkpt lat="45.59979810585721" lon="8.291519442829436"><ele>272.2</ele><time>2026-04-06T14:06:04.947Z</time></trkpt><trkpt lat="45.599695895107764" lon="8.291572698266597"><ele>272.0</ele><time>2026-04-06T14:06:05.947Z</time></trkpt><trkpt lat="45.59959310867223" lon="8.291611493619499"><ele>271.6666666666667</ele><time>2026-04-06T14:06:06.948Z</time></trkpt><trkpt lat="45.59950017521304" lon="8.291635693877897"><ele>271.33333333333337</ele><time>2026-04-06T14:06:07.948Z</time></trkpt><trkpt lat="45.599420890063335" lon="8.291648230685627"><ele>271.0</ele><time>2026-04-06T14:06:08.948Z</time></trkpt><trkpt lat="45.59934638087254" lon="8.291629256015959"><ele>270.6666666666667</ele><time>2026-04-06T14:06:09.947Z</time></trkpt><trkpt lat="45.59927872006836" lon="8.291587226424385"><ele>270.3333333333333</ele><time>2026-04-06T14:06:10.947Z</time></trkpt><trkpt lat="45.59921294377855" lon="8.291527084295135"><ele>270.0</ele><time>2026-04-06T14:06:11.947Z</time></trkpt><trkpt lat="45.59914225235559" lon="8.291448768903676"><ele>270.6</ele><time>2026-04-06T14:06:12.947Z</time></trkpt><trkpt lat="45.59907834772882" lon="8.291339738487391"><ele>271.2</ele><time>2026-04-06T14:06:13.947Z</time></trkpt><trkpt lat="45.599013918485205" lon="8.29122640237298"><ele>271.8</ele><time>2026-04-06T14:06:14.947Z</time></trkpt><trkpt lat="45.59898190370162" lon="8.291049938937412"><ele>272.4</ele><time>2026-04-06T14:06:15.947Z</time></trkpt><trkpt lat="45.59894101235714" lon="8.290894041064048"><ele>273.0</ele><time>2026-04-06T14:06:16.947Z</time></trkpt><trkpt lat="45.59889921542319" lon="8.29074807421407"><ele>273.0</ele><time>2026-04-06T14:06:17.947Z</time></trkpt><trkpt lat="45.59885269531496" lon="8.290591915434945"><ele>273.0</ele><time>2026-04-06T14:06:18.947Z</time></trkpt><trkpt lat="45.59880307158689" lon="8.290430082122377"><ele>273.0</ele><time>2026-04-06T14:06:19.947Z</time></trkpt><trkpt lat="45.598749680593045" lon="8.290259454572487"><ele>273.0</ele><time>2026-04-06T14:06:20.947Z</time></trkpt><trkpt lat="45.59869360070347" lon="8.29007977296778"><ele>273.0</ele><time>2026-04-06T14:06:21.947Z</time></trkpt><trkpt lat="45.5986359984019" lon="8.28989537215571"><ele>273.0</ele><time>2026-04-06T14:06:22.947Z</time></trkpt><trkpt lat="45.598581959072355" lon="8.289717014240795"><ele>273.0</ele><time>2026-04-06T14:06:23.947Z</time></trkpt><trkpt lat="45.59852427140569" lon="8.289537389117232"><ele>273.0</ele><time>2026-04-06T14:06:24.947Z</time></trkpt><trkpt lat="45.59846477351755" lon="8.289353065199915"><ele>273.0</ele><time>2026-04-06T14:06:25.947Z</time></trkpt><trkpt lat="45.59840758384023" lon="8.289159731359693"><ele>273.0</ele><time>2026-04-06T14:06:26.947Z</time></trkpt><trkpt lat="45.59834940933628" lon="8.288960789891878"><ele>273.0</ele><time>2026-04-06T14:06:27.947Z</time></trkpt><trkpt lat="45.598290694455685" lon="8.288759104754343"><ele>273.6666666666667</ele><time>2026-04-06T14:06:28.947Z</time></trkpt><trkpt lat="45.598228385894004" lon="8.288555098075028"><ele>274.33333333333337</ele><time>2026-04-06T14:06:29.947Z</time></trkpt><trkpt lat="45.59816359602562" lon="8.28834655536216"><ele>275.0</ele><time>2026-04-06T14:06:30.947Z</time></trkpt><trkpt lat="45.59809958307258" lon="8.288133603070142"><ele>275.0</ele><time>2026-04-06T14:06:31.947Z</time></trkpt><trkpt lat="45.598034797457835" lon="8.287917838538041"><ele>275.0</ele><time>2026-04-06T14:06:32.947Z</time></trkpt><trkpt lat="45.597978380184735" lon="8.287701628124662"><ele>275.0</ele><time>2026-04-06T14:06:33.947Z</time></trkpt><trkpt lat="45.59790605860629" lon="8.287483933121948"><ele>275.0</ele><time>2026-04-06T14:06:34.947Z</time></trkpt><trkpt lat="45.59783637240468" lon="8.287263228684376"><ele>275.0</ele><time>2026-04-06T14:06:35.947Z</time></trkpt><trkpt lat="45.597774781919625" lon="8.287036197969577"><ele>275.0</ele><time>2026-04-06T14:06:36.947Z</time></trkpt><trkpt lat="45.59770641120297" lon="8.28681013895931"><ele>275.0</ele><time>2026-04-06T14:06:37.947Z</time></trkpt><trkpt lat="45.597642200320244" lon="8.286588844998981"><ele>275.0</ele><time>2026-04-06T14:06:38.947Z</time></trkpt><trkpt lat="45.597574837404224" lon="8.286373202982848"><ele>275.0</ele><time>2026-04-06T14:06:39.947Z</time></trkpt><trkpt lat="45.597510845839956" lon="8.28615360371093"><ele>275.0</ele><time>2026-04-06T14:06:40.947Z</time></trkpt><trkpt lat="45.59744535574432" lon="8.285934494938624"><ele>275.0</ele><time>2026-04-06T14:06:41.947Z</time></trkpt><trkpt lat="45.597382880865204" lon="8.285724696206692"><ele>275.0</ele><time>2026-04-06T14:06:42.947Z</time></trkpt><trkpt lat="45.59732304276125" lon="8.285530686184806"><ele>275.25</ele><time>2026-04-06T14:06:43.947Z</time></trkpt><trkpt lat="45.597269134012706" lon="8.285354920293164"><ele>275.5</ele><time>2026-04-06T14:06:44.947Z</time></trkpt><trkpt lat="45.59722142891708" lon="8.28519702787109"><ele>275.75</ele><time>2026-04-06T14:06:45.946Z</time></trkpt><trkpt lat="45.59717150353316" lon="8.285046352709406"><ele>276.0</ele><time>2026-04-06T14:06:46.946Z</time></trkpt><trkpt lat="45.59712154116457" lon="8.284898890572013"><ele>276.0</ele><time>2026-04-06T14:06:47.946Z</time></trkpt><trkpt lat="45.59707855635469" lon="8.284745490739365"><ele>276.0</ele><time>2026-04-06T14:06:48.946Z</time></trkpt><trkpt lat="45.59703682231449" lon="8.284578892781834"><ele>276.0</ele><time>2026-04-06T14:06:49.946Z</time></trkpt><trkpt lat="45.59698261821668" lon="8.284409085687214"><ele>276.0</ele><time>2026-04-06T14:06:50.946Z</time></trkpt><trkpt lat="45.59692537382346" lon="8.284234199449486"><ele>275.25</ele><time>2026-04-06T14:06:51.946Z</time></trkpt><trkpt lat="45.59686571024444" lon="8.284047601546666"><ele>274.5</ele><time>2026-04-06T14:06:52.946Z</time></trkpt><trkpt lat="45.59682452213018" lon="8.283853320652556"><ele>273.75</ele><time>2026-04-06T14:06:53.946Z</time></trkpt><trkpt lat="45.596768560974034" lon="8.28366683284632"><ele>273.0</ele><time>2026-04-06T14:06:54.946Z</time></trkpt><trkpt lat="45.59671047386876" lon="8.283471915159176"><ele>272.6666666666667</ele><time>2026-04-06T14:06:55.946Z</time></trkpt><trkpt lat="45.596650757701894" lon="8.283271530997094"><ele>272.33333333333337</ele><time>2026-04-06T14:06:56.946Z</time></trkpt><trkpt lat="45.59658833108055" lon="8.283062051612927"><ele>272.0</ele><time>2026-04-06T14:06:57.946Z</time></trkpt><trkpt lat="45.59652322505682" lon="8.282843581178895"><ele>272.0</ele><time>2026-04-06T14:06:58.946Z</time></trkpt><trkpt lat="45.596456202027255" lon="8.282618678048886"><ele>272.0</ele><time>2026-04-06T14:06:59.946Z</time></trkpt><trkpt lat="45.596387816274394" lon="8.282389202128817"><ele>272.0</ele><time>2026-04-06T14:07:00.946Z</time></trkpt><trkpt lat="45.59631901577886" lon="8.282158334503533"><ele>271.6666666666667</ele><time>2026-04-06T14:07:01.946Z</time></trkpt><trkpt lat="45.596249142198054" lon="8.281923866027842"><ele>271.3333333333333</ele><time>2026-04-06T14:07:02.946Z</time></trkpt><trkpt lat="45.596177670099976" lon="8.281687467967936"><ele>271.0</ele><time>2026-04-06T14:07:03.946Z</time></trkpt><trkpt lat="45.59610497681425" lon="8.28144742450393"><ele>272.0</ele><time>2026-04-06T14:07:04.946Z</time></trkpt><trkpt lat="45.59603101014632" lon="8.281203176151408"><ele>273.0</ele><time>2026-04-06T14:07:05.946Z</time></trkpt><trkpt lat="45.59595632624081" lon="8.280956559382549"><ele>274.0</ele><time>2026-04-06T14:07:06.946Z</time></trkpt><trkpt lat="45.59588100167902" lon="8.280707827077155"><ele>274.0</ele><time>2026-04-06T14:07:07.946Z</time></trkpt><trkpt lat="45.595805513011705" lon="8.280458552879903"><ele>274.0</ele><time>2026-04-06T14:07:08.946Z</time></trkpt><trkpt lat="45.59572928117707" lon="8.280206824626022"><ele>274.0</ele><time>2026-04-06T14:07:09.946Z</time></trkpt><trkpt lat="45.595655944338205" lon="8.279964656056992"><ele>274.66666666666663</ele><time>2026-04-06T14:07:10.946Z</time></trkpt><trkpt lat="45.59558420021286" lon="8.279728175463081"><ele>275.3333333333333</ele><time>2026-04-06T14:07:11.946Z</time></trkpt><trkpt lat="45.59551121761143" lon="8.279486956318497"><ele>276.0</ele><time>2026-04-06T14:07:12.946Z</time></trkpt><trkpt lat="45.59543758921857" lon="8.279242903712086"><ele>276.0</ele><time>2026-04-06T14:07:13.946Z</time></trkpt><trkpt lat="45.595364076366145" lon="8.278999234049355"><ele>276.0</ele><time>2026-04-06T14:07:14.946Z</time></trkpt><trkpt lat="45.59527445410339" lon="8.27876000134999"><ele>276.0</ele><time>2026-04-06T14:07:15.946Z</time></trkpt><trkpt lat="45.59521304389941" lon="8.27849861382606"><ele>276.0</ele><time>2026-04-06T14:07:16.946Z</time></trkpt><trkpt lat="45.5951364112105" lon="8.278244603150036"><ele>276.0</ele><time>2026-04-06T14:07:17.946Z</time></trkpt><trkpt lat="45.5950585757355" lon="8.277986605231531"><ele>276.0</ele><time>2026-04-06T14:07:18.946Z</time></trkpt><trkpt lat="45.59498130270855" lon="8.277729407514029"><ele>276.0</ele><time>2026-04-06T14:07:19.946Z</time></trkpt><trkpt lat="45.59490519036631" lon="8.277476068157473"><ele>276.0</ele><time>2026-04-06T14:07:20.946Z</time></trkpt><trkpt lat="45.594828437011635" lon="8.277220579920018"><ele>276.0</ele><time>2026-04-06T14:07:21.946Z</time></trkpt><trkpt lat="45.594750854324076" lon="8.276966239379492"><ele>276.6666666666667</ele><time>2026-04-06T14:07:22.946Z</time></trkpt><trkpt lat="45.59467315615651" lon="8.2767120683424"><ele>277.33333333333337</ele><time>2026-04-06T14:07:23.946Z</time></trkpt><trkpt lat="45.59458214295299" lon="8.2764704747613"><ele>278.0</ele><time>2026-04-06T14:07:24.946Z</time></trkpt><trkpt lat="45.59450795768147" lon="8.276226124099976"><ele>276.33333333333337</ele><time>2026-04-06T14:07:25.946Z</time></trkpt><trkpt lat="45.59443687839999" lon="8.275991328282984"><ele>274.6666666666667</ele><time>2026-04-06T14:07:26.946Z</time></trkpt><trkpt lat="45.5943739843753" lon="8.27576105644787"><ele>273.0</ele><time>2026-04-06T14:07:27.946Z</time></trkpt><trkpt lat="45.594302940133225" lon="8.275543653250068"><ele>273.0</ele><time>2026-04-06T14:07:28.946Z</time></trkpt><trkpt lat="45.59422320290358" lon="8.275350750615402"><ele>273.0</ele><time>2026-04-06T14:07:29.946Z</time></trkpt><trkpt lat="45.594125895601714" lon="8.275174813216182"><ele>273.0</ele><time>2026-04-06T14:07:30.946Z</time></trkpt><trkpt lat="45.59400454466999" lon="8.275026452584253"><ele>273.0</ele><time>2026-04-06T14:07:31.946Z</time></trkpt><trkpt lat="45.59386118327219" lon="8.274915453831243"><ele>273.0</ele><time>2026-04-06T14:07:32.946Z</time></trkpt><trkpt lat="45.5937014056543" lon="8.27481837305884"><ele>273.0</ele><time>2026-04-06T14:07:33.946Z</time></trkpt><trkpt lat="45.59353310335208" lon="8.274720690165932"><ele>271.6666666666667</ele><time>2026-04-06T14:07:34.946Z</time></trkpt><trkpt lat="45.5933627659582" lon="8.274609200027092"><ele>270.33333333333337</ele><time>2026-04-06T14:07:35.946Z</time></trkpt><trkpt lat="45.593201082439" lon="8.27446053353715"><ele>269.0</ele><time>2026-04-06T14:07:36.946Z</time></trkpt><trkpt lat="45.5930158735004" lon="8.274378240817342"><ele>269.0</ele><time>2026-04-06T14:07:37.946Z</time></trkpt><trkpt lat="45.592842906827634" lon="8.274261370869672"><ele>269.0</ele><time>2026-04-06T14:07:38.946Z</time></trkpt><trkpt lat="45.59266899535414" lon="8.27414963204184"><ele>269.0</ele><time>2026-04-06T14:07:39.946Z</time></trkpt><trkpt lat="45.592495989219785" lon="8.274036584833388"><ele>269.33333333333337</ele><time>2026-04-06T14:07:40.946Z</time></trkpt><trkpt lat="45.592332493765646" lon="8.273898968764412"><ele>269.6666666666667</ele><time>2026-04-06T14:07:41.945Z</time></trkpt><trkpt lat="45.59216054382935" lon="8.273787573127104"><ele>270.0</ele><time>2026-04-06T14:07:42.945Z</time></trkpt><trkpt lat="45.5919842130464" lon="8.273698196968622"><ele>270.3333333333333</ele><time>2026-04-06T14:07:43.945Z</time></trkpt><trkpt lat="45.59181384103098" lon="8.27358724508086"><ele>270.66666666666663</ele><time>2026-04-06T14:07:44.945Z</time></trkpt><trkpt lat="45.591649915017456" lon="8.273455864484164"><ele>271.0</ele><time>2026-04-06T14:07:45.945Z</time></trkpt><trkpt lat="45.59147741257715" lon="8.27334290477751"><ele>271.0</ele><time>2026-04-06T14:07:46.945Z</time></trkpt><trkpt lat="45.591305941285356" lon="8.273230620302819"><ele>271.0</ele><time>2026-04-06T14:07:47.945Z</time></trkpt><trkpt lat="45.591132438972885" lon="8.273117838369199"><ele>271.0</ele><time>2026-04-06T14:07:48.945Z</time></trkpt><trkpt lat="45.59095845229479" lon="8.273005852463996"><ele>269.3333333333333</ele><time>2026-04-06T14:07:49.945Z</time></trkpt><trkpt lat="45.59078630040575" lon="8.272896213818449"><ele>267.6666666666667</ele><time>2026-04-06T14:07:50.945Z</time></trkpt><trkpt lat="45.59061640066662" lon="8.27278576982839"><ele>266.0</ele><time>2026-04-06T14:07:51.945Z</time></trkpt><trkpt lat="45.590446948863466" lon="8.2726747623422"><ele>266.0</ele><time>2026-04-06T14:07:52.945Z</time></trkpt><trkpt lat="45.59027920782063" lon="8.27256628086869"><ele>266.0</ele><time>2026-04-06T14:07:53.945Z</time></trkpt><trkpt lat="45.59011767919861" lon="8.272461817091129"><ele>266.0</ele><time>2026-04-06T14:07:54.945Z</time></trkpt><trkpt lat="45.58995774362443" lon="8.272358383569104"><ele>265.6666666666667</ele><time>2026-04-06T14:07:55.945Z</time></trkpt><trkpt lat="45.589797853468646" lon="8.272254979417424"><ele>265.3333333333333</ele><time>2026-04-06T14:07:56.945Z</time></trkpt><trkpt lat="45.58963907325639" lon="8.272152293096728"><ele>265.0</ele><time>2026-04-06T14:07:57.945Z</time></trkpt><trkpt lat="45.589475033646835" lon="8.27206539188745"><ele>264.66666666666663</ele><time>2026-04-06T14:07:58.945Z</time></trkpt><trkpt lat="45.58931426227711" lon="8.271961077785958"><ele>264.3333333333333</ele><time>2026-04-06T14:07:59.945Z</time></trkpt><trkpt lat="45.58916005198879" lon="8.271859591209928"><ele>264.0</ele><time>2026-04-06T14:08:00.945Z</time></trkpt><trkpt lat="45.589008034160564" lon="8.271760722613083"><ele>264.0</ele><time>2026-04-06T14:08:01.945Z</time></trkpt><trkpt lat="45.588855773009854" lon="8.271665364912"><ele>264.0</ele><time>2026-04-06T14:08:02.945Z</time></trkpt><trkpt lat="45.58871054123059" lon="8.271560739479492"><ele>264.0</ele><time>2026-04-06T14:08:03.945Z</time></trkpt><trkpt lat="45.588563341633716" lon="8.27146382528228"><ele>263.6666666666667</ele><time>2026-04-06T14:08:04.945Z</time></trkpt><trkpt lat="45.58841557170068" lon="8.271365392411248"><ele>263.33333333333337</ele><time>2026-04-06T14:08:05.945Z</time></trkpt><trkpt lat="45.588270999411016" lon="8.271271204619099"><ele>263.0</ele><time>2026-04-06T14:08:06.945Z</time></trkpt><trkpt lat="45.58812369362109" lon="8.271175121034966"><ele>263.0</ele><time>2026-04-06T14:08:07.945Z</time></trkpt><trkpt lat="45.5879802815186" lon="8.271080999096014"><ele>263.0</ele><time>2026-04-06T14:08:08.946Z</time></trkpt><trkpt lat="45.58783287717809" lon="8.270990500909091"><ele>263.0</ele><time>2026-04-06T14:08:09.945Z</time></trkpt><trkpt lat="45.58767697837141" lon="8.27089593926645"><ele>263.33333333333337</ele><time>2026-04-06T14:08:10.945Z</time></trkpt><trkpt lat="45.58752103055951" lon="8.270777420720096"><ele>263.6666666666667</ele><time>2026-04-06T14:08:11.945Z</time></trkpt><trkpt lat="45.587345639407424" lon="8.270664866554679"><ele>264.0</ele><time>2026-04-06T14:08:12.945Z</time></trkpt><trkpt lat="45.58715855889754" lon="8.27054386779797"><ele>264.3333333333333</ele><time>2026-04-06T14:08:13.945Z</time></trkpt><trkpt lat="45.58696470394836" lon="8.270418584090875"><ele>264.66666666666663</ele><time>2026-04-06T14:08:14.945Z</time></trkpt><trkpt lat="45.58676710955175" lon="8.270290904527023"><ele>265.0</ele><time>2026-04-06T14:08:15.946Z</time></trkpt><trkpt lat="45.58656503320225" lon="8.270160328861422"><ele>265.0</ele><time>2026-04-06T14:08:16.946Z</time></trkpt><trkpt lat="45.586357865783576" lon="8.27005153396798"><ele>265.0</ele><time>2026-04-06T14:08:17.946Z</time></trkpt><trkpt lat="45.586175110632524" lon="8.269910305680495"><ele>265.0</ele><time>2026-04-06T14:08:18.945Z</time></trkpt><trkpt lat="45.58598979251951" lon="8.269790372638484"><ele>264.66666666666663</ele><time>2026-04-06T14:08:19.945Z</time></trkpt><trkpt lat="45.58580807001896" lon="8.269696972997952"><ele>264.3333333333333</ele><time>2026-04-06T14:08:20.946Z</time></trkpt><trkpt lat="45.585641205958396" lon="8.269584305718015"><ele>264.0</ele><time>2026-04-06T14:08:21.946Z</time></trkpt><trkpt lat="45.58548484097989" lon="8.269472767974902"><ele>264.0</ele><time>2026-04-06T14:08:22.946Z</time></trkpt><trkpt lat="45.58534276635049" lon="8.269357823744656"><ele>264.0</ele><time>2026-04-06T14:08:23.946Z</time></trkpt><trkpt lat="45.585216499809206" lon="8.269238081694027"><ele>264.0</ele><time>2026-04-06T14:08:24.946Z</time></trkpt><trkpt lat="45.585106631883534" lon="8.26910910356089"><ele>264.0</ele><time>2026-04-06T14:08:25.946Z</time></trkpt><trkpt lat="45.58501786982369" lon="8.26898215322387"><ele>264.0</ele><time>2026-04-06T14:08:26.946Z</time></trkpt><trkpt lat="45.584938996101165" lon="8.268863250178752"><ele>264.0</ele><time>2026-04-06T14:08:27.946Z</time></trkpt><trkpt lat="45.58486387500641" lon="8.268746560222754"><ele>264.0</ele><time>2026-04-06T14:08:28.946Z</time></trkpt><trkpt lat="45.58480101951528" lon="8.2686339366129"><ele>264.0</ele><time>2026-04-06T14:08:29.946Z</time></trkpt><trkpt lat="45.58474269149959" lon="8.268532073178164"><ele>264.0</ele><time>2026-04-06T14:08:30.945Z</time></trkpt><trkpt lat="45.58469440298806" lon="8.268443347412118"><ele>264.0</ele><time>2026-04-06T14:08:31.945Z</time></trkpt><trkpt lat="45.584637823896905" lon="8.268347233573309"><ele>264.0</ele><time>2026-04-06T14:08:32.945Z</time></trkpt><trkpt lat="45.58456827212846" lon="8.268234317053878"><ele>264.0</ele><time>2026-04-06T14:08:33.945Z</time></trkpt><trkpt lat="45.5844903327788" lon="8.26810551883436"><ele>264.0</ele><time>2026-04-06T14:08:34.945Z</time></trkpt><trkpt lat="45.584406090690806" lon="8.267958075582007"><ele>264.0</ele><time>2026-04-06T14:08:35.945Z</time></trkpt><trkpt lat="45.58431846641785" lon="8.267801024791435"><ele>264.0</ele><time>2026-04-06T14:08:36.945Z</time></trkpt><trkpt lat="45.58422791584019" lon="8.267634055291392"><ele>264.0</ele><time>2026-04-06T14:08:37.945Z</time></trkpt><trkpt lat="45.584128808899685" lon="8.26745964984974"><ele>265.0</ele><time>2026-04-06T14:08:38.945Z</time></trkpt><trkpt lat="45.58403044538434" lon="8.267263411250156"><ele>266.0</ele><time>2026-04-06T14:08:39.945Z</time></trkpt><trkpt lat="45.58391722580089" lon="8.267063260682404"><ele>267.0</ele><time>2026-04-06T14:08:40.945Z</time></trkpt><trkpt lat="45.58379849637555" lon="8.266853485049388"><ele>266.0</ele><time>2026-04-06T14:08:41.945Z</time></trkpt><trkpt lat="45.58367168712748" lon="8.266631476221441"><ele>265.0</ele><time>2026-04-06T14:08:42.945Z</time></trkpt><trkpt lat="45.58353939767861" lon="8.26639827357425"><ele>264.0</ele><time>2026-04-06T14:08:43.945Z</time></trkpt><trkpt lat="45.58340443021273" lon="8.266156553372262"><ele>264.0</ele><time>2026-04-06T14:08:44.945Z</time></trkpt><trkpt lat="45.58327746097315" lon="8.265923978766525"><ele>264.0</ele><time>2026-04-06T14:08:45.945Z</time></trkpt><trkpt lat="45.58315624708942" lon="8.265705655637015"><ele>264.0</ele><time>2026-04-06T14:08:46.945Z</time></trkpt><trkpt lat="45.5830362945064" lon="8.26548879455403"><ele>264.0</ele><time>2026-04-06T14:08:47.945Z</time></trkpt><trkpt lat="45.582916808425686" lon="8.265270898741088"><ele>264.0</ele><time>2026-04-06T14:08:48.945Z</time></trkpt><trkpt lat="45.58279356943342" lon="8.265052201353548"><ele>264.0</ele><time>2026-04-06T14:08:49.945Z</time></trkpt><trkpt lat="45.58266724846729" lon="8.264831322072359"><ele>264.6666666666667</ele><time>2026-04-06T14:08:50.945Z</time></trkpt><trkpt lat="45.582538474897405" lon="8.26460579656108"><ele>265.33333333333337</ele><time>2026-04-06T14:08:51.945Z</time></trkpt><trkpt lat="45.582405722760555" lon="8.26437178140746"><ele>266.0</ele><time>2026-04-06T14:08:52.945Z</time></trkpt><trkpt lat="45.58227063659132" lon="8.264135041111064"><ele>266.0</ele><time>2026-04-06T14:08:53.945Z</time></trkpt><trkpt lat="45.58213172069136" lon="8.263892057794905"><ele>266.0</ele><time>2026-04-06T14:08:54.945Z</time></trkpt><trkpt lat="45.58199655123066" lon="8.263654822868462"><ele>266.0</ele><time>2026-04-06T14:08:55.945Z</time></trkpt><trkpt lat="45.58186756619871" lon="8.263424424008889"><ele>265.6666666666667</ele><time>2026-04-06T14:08:56.945Z</time></trkpt><trkpt lat="45.58174011969819" lon="8.263196996724407"><ele>265.3333333333333</ele><time>2026-04-06T14:08:57.945Z</time></trkpt><trkpt lat="45.58161511798763" lon="8.262967527009039"><ele>265.0</ele><time>2026-04-06T14:08:58.945Z</time></trkpt><trkpt lat="45.58147986443658" lon="8.262738863266465"><ele>265.0</ele><time>2026-04-06T14:08:59.945Z</time></trkpt><trkpt lat="45.58134241591689" lon="8.262500143621187"><ele>265.0</ele><time>2026-04-06T14:09:00.945Z</time></trkpt><trkpt lat="45.58120756138609" lon="8.262252284693488"><ele>265.0</ele><time>2026-04-06T14:09:01.945Z</time></trkpt><trkpt lat="45.581071687130084" lon="8.262005875502153"><ele>264.0</ele><time>2026-04-06T14:09:02.945Z</time></trkpt><trkpt lat="45.58093338664551" lon="8.261761153941128"><ele>263.0</ele><time>2026-04-06T14:09:03.945Z</time></trkpt><trkpt lat="45.58079459431549" lon="8.26151702432135"><ele>262.0</ele><time>2026-04-06T14:09:04.945Z</time></trkpt><trkpt lat="45.58065701046628" lon="8.26127178373363"><ele>261.66666666666663</ele><time>2026-04-06T14:09:05.945Z</time></trkpt><trkpt lat="45.58051903153245" lon="8.261025331378988"><ele>261.3333333333333</ele><time>2026-04-06T14:09:06.945Z</time></trkpt><trkpt lat="45.58038031720304" lon="8.260779878594732"><ele>261.0</ele><time>2026-04-06T14:09:07.945Z</time></trkpt><trkpt lat="45.58024113954029" lon="8.260535102449225"><ele>261.0</ele><time>2026-04-06T14:09:08.945Z</time></trkpt><trkpt lat="45.58011162398758" lon="8.260285787918106"><ele>261.0</ele><time>2026-04-06T14:09:09.945Z</time></trkpt><trkpt lat="45.57997845922124" lon="8.260046125634291"><ele>261.0</ele><time>2026-04-06T14:09:10.945Z</time></trkpt><trkpt lat="45.57984658159781" lon="8.259809548407743"><ele>261.3333333333333</ele><time>2026-04-06T14:09:11.945Z</time></trkpt><trkpt lat="45.579717073171516" lon="8.259575982994788"><ele>261.66666666666663</ele><time>2026-04-06T14:09:12.945Z</time></trkpt><trkpt lat="45.579589824237026" lon="8.259349718570816"><ele>262.0</ele><time>2026-04-06T14:09:13.945Z</time></trkpt><trkpt lat="45.579463926062694" lon="8.25912586997952"><ele>262.3333333333333</ele><time>2026-04-06T14:09:14.945Z</time></trkpt><trkpt lat="45.579340941207946" lon="8.258906046648663"><ele>262.6666666666667</ele><time>2026-04-06T14:09:15.945Z</time></trkpt><trkpt lat="45.57921696199101" lon="8.258691094272741"><ele>263.0</ele><time>2026-04-06T14:09:16.945Z</time></trkpt><trkpt lat="45.57909410048133" lon="8.258475830554941"><ele>263.0</ele><time>2026-04-06T14:09:17.945Z</time></trkpt><trkpt lat="45.57896990714893" lon="8.258259809126738"><ele>263.0</ele><time>2026-04-06T14:09:18.945Z</time></trkpt><trkpt lat="45.57884596190039" lon="8.258044364028702"><ele>263.0</ele><time>2026-04-06T14:09:19.945Z</time></trkpt><trkpt lat="45.578723344161894" lon="8.25782960691416"><ele>262.6666666666667</ele><time>2026-04-06T14:09:20.945Z</time></trkpt><trkpt lat="45.57860047433484" lon="8.257612130485171"><ele>262.3333333333333</ele><time>2026-04-06T14:09:21.945Z</time></trkpt><trkpt lat="45.57847834676396" lon="8.2573926211719"><ele>262.0</ele><time>2026-04-06T14:09:22.945Z</time></trkpt><trkpt lat="45.578353404045096" lon="8.257169167058588"><ele>262.66666666666663</ele><time>2026-04-06T14:09:23.945Z</time></trkpt><trkpt lat="45.57822615444576" lon="8.256943154471651"><ele>263.3333333333333</ele><time>2026-04-06T14:09:24.945Z</time></trkpt><trkpt lat="45.57809816884388" lon="8.256716289370571"><ele>264.0</ele><time>2026-04-06T14:09:25.945Z</time></trkpt><trkpt lat="45.5779705253815" lon="8.256489728604326"><ele>263.0</ele><time>2026-04-06T14:09:26.944Z</time></trkpt><trkpt lat="45.57784366202328" lon="8.256269025472166"><ele>262.0</ele><time>2026-04-06T14:09:27.944Z</time></trkpt><trkpt lat="45.57772148752834" lon="8.25605449878605"><ele>261.0</ele><time>2026-04-06T14:09:28.944Z</time></trkpt><trkpt lat="45.57760293820548" lon="8.255846408988717"><ele>261.0</ele><time>2026-04-06T14:09:29.944Z</time></trkpt><trkpt lat="45.57748654085638" lon="8.25564220980689"><ele>261.0</ele><time>2026-04-06T14:09:30.944Z</time></trkpt><trkpt lat="45.57737894731364" lon="8.255450427347375"><ele>261.0</ele><time>2026-04-06T14:09:31.944Z</time></trkpt><trkpt lat="45.57728428182856" lon="8.255277780878004"><ele>261.0</ele><time>2026-04-06T14:09:32.944Z</time></trkpt><trkpt lat="45.57720242149967" lon="8.255131755353554"><ele>261.0</ele><time>2026-04-06T14:09:33.944Z</time></trkpt><trkpt lat="45.577137794552996" lon="8.255006087511"><ele>261.0</ele><time>2026-04-06T14:09:34.944Z</time></trkpt><trkpt lat="45.577096848383995" lon="8.25489063957402"><ele>261.0</ele><time>2026-04-06T14:09:35.944Z</time></trkpt><trkpt lat="45.577076559179375" lon="8.254764179371616"><ele>261.0</ele><time>2026-04-06T14:09:37.944Z</time></trkpt><trkpt lat="45.57709311657855" lon="8.254612836221655"><ele>261.0</ele><time>2026-04-06T14:09:42.944Z</time></trkpt><trkpt lat="45.57711048225308" lon="8.254516903254753"><ele>261.0</ele><time>2026-04-06T14:09:43.944Z</time></trkpt><trkpt lat="45.577099218416656" lon="8.25441391458348"><ele>261.0</ele><time>2026-04-06T14:09:44.944Z</time></trkpt><trkpt lat="45.577059497543424" lon="8.254338784323457"><ele>261.0</ele><time>2026-04-06T14:09:45.944Z</time></trkpt><trkpt lat="45.57699494967365" lon="8.254307934010928"><ele>261.0</ele><time>2026-04-06T14:09:46.944Z</time></trkpt><trkpt lat="45.57690995556648" lon="8.254312537994942"><ele>261.0</ele><time>2026-04-06T14:09:47.944Z</time></trkpt><trkpt lat="45.57681255430652" lon="8.254303719805371"><ele>260.75</ele><time>2026-04-06T14:09:48.944Z</time></trkpt><trkpt lat="45.57671486539893" lon="8.254238547541194"><ele>260.5</ele><time>2026-04-06T14:09:49.944Z</time></trkpt><trkpt lat="45.57662320070807" lon="8.254122639284855"><ele>260.25</ele><time>2026-04-06T14:09:50.944Z</time></trkpt><trkpt lat="45.57652004111111" lon="8.253995706025457"><ele>260.0</ele><time>2026-04-06T14:09:51.944Z</time></trkpt><trkpt lat="45.57641802518443" lon="8.253882230969873"><ele>260.0</ele><time>2026-04-06T14:09:52.944Z</time></trkpt><trkpt lat="45.576313757479184" lon="8.253776530230368"><ele>260.0</ele><time>2026-04-06T14:09:53.944Z</time></trkpt><trkpt lat="45.576203217782435" lon="8.253664189718044"><ele>260.0</ele><time>2026-04-06T14:09:54.944Z</time></trkpt><trkpt lat="45.57607846699929" lon="8.253561630146338"><ele>260.0</ele><time>2026-04-06T14:09:55.944Z</time></trkpt><trkpt lat="45.575949515784366" lon="8.253449086485476"><ele>260.33333333333337</ele><time>2026-04-06T14:09:56.944Z</time></trkpt><trkpt lat="45.57580784941996" lon="8.253336769349954"><ele>260.6666666666667</ele><time>2026-04-06T14:09:57.944Z</time></trkpt><trkpt lat="45.575659520911785" lon="8.253218075282907"><ele>261.0</ele><time>2026-04-06T14:09:58.944Z</time></trkpt><trkpt lat="45.575505465166955" lon="8.253095495674138"><ele>260.3333333333333</ele><time>2026-04-06T14:09:59.944Z</time></trkpt><trkpt lat="45.575349598185696" lon="8.25297236245867"><ele>259.66666666666663</ele><time>2026-04-06T14:10:00.944Z</time></trkpt><trkpt lat="45.575199547209984" lon="8.252854569563187"><ele>259.0</ele><time>2026-04-06T14:10:01.944Z</time></trkpt><trkpt lat="45.57505003774955" lon="8.252742469478411"><ele>259.0</ele><time>2026-04-06T14:10:02.944Z</time></trkpt><trkpt lat="45.57489583313747" lon="8.252624349722929"><ele>259.0</ele><time>2026-04-06T14:10:03.944Z</time></trkpt><trkpt lat="45.574738585791756" lon="8.2524990545336"><ele>259.0</ele><time>2026-04-06T14:10:04.944Z</time></trkpt><trkpt lat="45.574576782833546" lon="8.252371242465886"><ele>259.3333333333333</ele><time>2026-04-06T14:10:05.944Z</time></trkpt><trkpt lat="45.574412591046965" lon="8.25224285833673"><ele>259.6666666666667</ele><time>2026-04-06T14:10:06.944Z</time></trkpt><trkpt lat="45.574251236410625" lon="8.252119395105677"><ele>260.0</ele><time>2026-04-06T14:10:07.944Z</time></trkpt><trkpt lat="45.5740930540055" lon="8.251998364291858"><ele>260.0</ele><time>2026-04-06T14:10:08.944Z</time></trkpt><trkpt lat="45.57393157752236" lon="8.251867169525632"><ele>260.0</ele><time>2026-04-06T14:10:09.944Z</time></trkpt><trkpt lat="45.57377062101805" lon="8.251732958232155"><ele>260.0</ele><time>2026-04-06T14:10:10.944Z</time></trkpt><trkpt lat="45.57360680706067" lon="8.25160099009742"><ele>259.33333333333337</ele><time>2026-04-06T14:10:11.944Z</time></trkpt><trkpt lat="45.57344260471012" lon="8.251468777513296"><ele>258.6666666666667</ele><time>2026-04-06T14:10:12.944Z</time></trkpt><trkpt lat="45.57327307415497" lon="8.2513370384802"><ele>258.0</ele><time>2026-04-06T14:10:13.944Z</time></trkpt><trkpt lat="45.573102721695804" lon="8.251205040281365"><ele>258.0</ele><time>2026-04-06T14:10:14.945Z</time></trkpt><trkpt lat="45.57293298049857" lon="8.25107248297033"><ele>258.0</ele><time>2026-04-06T14:10:15.944Z</time></trkpt><trkpt lat="45.5727645725763" lon="8.250940099273537"><ele>258.0</ele><time>2026-04-06T14:10:16.944Z</time></trkpt><trkpt lat="45.572594797302735" lon="8.250808073647901"><ele>257.0</ele><time>2026-04-06T14:10:17.944Z</time></trkpt><trkpt lat="45.57242677773363" lon="8.25067762696679"><ele>256.0</ele><time>2026-04-06T14:10:18.944Z</time></trkpt><trkpt lat="45.572259140951765" lon="8.250546692056082"><ele>255.0</ele><time>2026-04-06T14:10:19.944Z</time></trkpt><trkpt lat="45.572092985919674" lon="8.250416097883754"><ele>255.0</ele><time>2026-04-06T14:10:20.944Z</time></trkpt><trkpt lat="45.571926752090995" lon="8.250286546833992"><ele>255.0</ele><time>2026-04-06T14:10:21.944Z</time></trkpt><trkpt lat="45.57176068974299" lon="8.250154921487356"><ele>255.0</ele><time>2026-04-06T14:10:22.944Z</time></trkpt><trkpt lat="45.571597032022616" lon="8.250024256962254"><ele>255.0</ele><time>2026-04-06T14:10:23.944Z</time></trkpt><trkpt lat="45.57143357343501" lon="8.249894331674065"><ele>255.0</ele><time>2026-04-06T14:10:24.944Z</time></trkpt><trkpt lat="45.57126900945432" lon="8.249765773829887"><ele>255.0</ele><time>2026-04-06T14:10:25.944Z</time></trkpt><trkpt lat="45.57110369152913" lon="8.249637148700218"><ele>254.33333333333331</ele><time>2026-04-06T14:10:26.944Z</time></trkpt><trkpt lat="45.570937709712645" lon="8.249506931399246"><ele>253.66666666666666</ele><time>2026-04-06T14:10:27.944Z</time></trkpt><trkpt lat="45.57077235509684" lon="8.249375588408551"><ele>253.0</ele><time>2026-04-06T14:10:28.944Z</time></trkpt><trkpt lat="45.57060756522712" lon="8.249245393347897"><ele>253.0</ele><time>2026-04-06T14:10:29.944Z</time></trkpt><trkpt lat="45.57043949526104" lon="8.249117153815513"><ele>253.0</ele><time>2026-04-06T14:10:30.944Z</time></trkpt><trkpt lat="45.570277184229944" lon="8.248958265898528"><ele>253.0</ele><time>2026-04-06T14:10:31.944Z</time></trkpt><trkpt lat="45.57010288616617" lon="8.248820764418419"><ele>253.0</ele><time>2026-04-06T14:10:32.944Z</time></trkpt><trkpt lat="45.56992633413081" lon="8.248681056870142"><ele>253.0</ele><time>2026-04-06T14:10:33.944Z</time></trkpt><trkpt lat="45.56974821878883" lon="8.248539033205187"><ele>253.0</ele><time>2026-04-06T14:10:34.944Z</time></trkpt><trkpt lat="45.569559566192915" lon="8.248424824525612"><ele>252.66666666666666</ele><time>2026-04-06T14:10:35.944Z</time></trkpt><trkpt lat="45.56938300347338" lon="8.248282487988876"><ele>252.33333333333331</ele><time>2026-04-06T14:10:36.944Z</time></trkpt><trkpt lat="45.56920633202823" lon="8.248142249790366"><ele>252.0</ele><time>2026-04-06T14:10:37.944Z</time></trkpt><trkpt lat="45.5690317350057" lon="8.248000635192318"><ele>252.0</ele><time>2026-04-06T14:10:38.944Z</time></trkpt><trkpt lat="45.56886089533406" lon="8.247863005709458"><ele>252.0</ele><time>2026-04-06T14:10:39.944Z</time></trkpt><trkpt lat="45.56870022095063" lon="8.247705931016037"><ele>252.0</ele><time>2026-04-06T14:10:40.944Z</time></trkpt><trkpt lat="45.568533667149175" lon="8.247574429275215"><ele>252.0</ele><time>2026-04-06T14:10:41.944Z</time></trkpt><trkpt lat="45.56837753169013" lon="8.247451153278485"><ele>252.0</ele><time>2026-04-06T14:10:42.944Z</time></trkpt><trkpt lat="45.56823598726713" lon="8.24733939762582"><ele>252.0</ele><time>2026-04-06T14:10:43.944Z</time></trkpt><trkpt lat="45.56810242191968" lon="8.247232566587133"><ele>252.0</ele><time>2026-04-06T14:10:44.944Z</time></trkpt><trkpt lat="45.56797593070658" lon="8.247131346459732"><ele>252.0</ele><time>2026-04-06T14:10:45.944Z</time></trkpt><trkpt lat="45.567852502966815" lon="8.247033875530576"><ele>252.0</ele><time>2026-04-06T14:10:46.944Z</time></trkpt><trkpt lat="45.567724353913995" lon="8.246933590641428"><ele>252.0</ele><time>2026-04-06T14:10:47.944Z</time></trkpt><trkpt lat="45.56759014774308" lon="8.246828227210896"><ele>252.0</ele><time>2026-04-06T14:10:48.944Z</time></trkpt><trkpt lat="45.567449718746325" lon="8.246716879510185"><ele>252.0</ele><time>2026-04-06T14:10:49.944Z</time></trkpt><trkpt lat="45.567303685014934" lon="8.24660108775181"><ele>252.0</ele><time>2026-04-06T14:10:50.944Z</time></trkpt><trkpt lat="45.567155084683684" lon="8.246483260924288"><ele>252.0</ele><time>2026-04-06T14:10:51.944Z</time></trkpt><trkpt lat="45.567002275330736" lon="8.24636209670203"><ele>252.0</ele><time>2026-04-06T14:10:52.944Z</time></trkpt><trkpt lat="45.56684758631826" lon="8.246239673772564"><ele>252.0</ele><time>2026-04-06T14:10:53.944Z</time></trkpt><trkpt lat="45.5666914199252" lon="8.246116169888442"><ele>252.0</ele><time>2026-04-06T14:10:54.944Z</time></trkpt><trkpt lat="45.566532982856764" lon="8.245990869710637"><ele>252.0</ele><time>2026-04-06T14:10:55.944Z</time></trkpt><trkpt lat="45.566369482183724" lon="8.24588591861988"><ele>252.0</ele><time>2026-04-06T14:10:56.944Z</time></trkpt><trkpt lat="45.56621521852429" lon="8.245765466849901"><ele>251.33333333333331</ele><time>2026-04-06T14:10:57.944Z</time></trkpt><trkpt lat="45.566063823808776" lon="8.245645044620344"><ele>250.66666666666666</ele><time>2026-04-06T14:10:58.944Z</time></trkpt><trkpt lat="45.56591388015673" lon="8.245527025803158"><ele>250.0</ele><time>2026-04-06T14:10:59.944Z</time></trkpt><trkpt lat="45.565764709453916" lon="8.245409781357232"><ele>250.0</ele><time>2026-04-06T14:11:00.943Z</time></trkpt><trkpt lat="45.56561656499456" lon="8.24529362543905"><ele>250.0</ele><time>2026-04-06T14:11:01.943Z</time></trkpt><trkpt lat="45.565470608191184" lon="8.245180698339432"><ele>250.0</ele><time>2026-04-06T14:11:02.944Z</time></trkpt><trkpt lat="45.56532613277697" lon="8.245068505824923"><ele>249.66666666666666</ele><time>2026-04-06T14:11:03.944Z</time></trkpt><trkpt lat="45.565190599335715" lon="8.244928312255341"><ele>249.33333333333331</ele><time>2026-04-06T14:11:04.945Z</time></trkpt><trkpt lat="45.565045084999824" lon="8.244813193815132"><ele>249.0</ele><time>2026-04-06T14:11:05.945Z</time></trkpt><trkpt lat="45.56490377852193" lon="8.244701406031378"><ele>248.75</ele><time>2026-04-06T14:11:06.946Z</time></trkpt><trkpt lat="45.564767145353706" lon="8.244593315252045"><ele>248.5</ele><time>2026-04-06T14:11:07.946Z</time></trkpt><trkpt lat="45.56462633243956" lon="8.244519546307188"><ele>248.25</ele><time>2026-04-06T14:11:08.947Z</time></trkpt><trkpt lat="45.56450084958906" lon="8.24442393212581"><ele>248.0</ele><time>2026-04-06T14:11:09.947Z</time></trkpt><trkpt lat="45.56438189979351" lon="8.244329761837754"><ele>247.5</ele><time>2026-04-06T14:11:10.948Z</time></trkpt><trkpt lat="45.56426727206534" lon="8.244238104206158"><ele>247.0</ele><time>2026-04-06T14:11:11.948Z</time></trkpt><trkpt lat="45.564167453931105" lon="8.244118715550902"><ele>246.5</ele><time>2026-04-06T14:11:12.948Z</time></trkpt><trkpt lat="45.56405694700731" lon="8.244031255177662"><ele>246.0</ele><time>2026-04-06T14:11:13.948Z</time></trkpt><trkpt lat="45.563952631809705" lon="8.243948694174076"><ele>245.8</ele><time>2026-04-06T14:11:14.949Z</time></trkpt><trkpt lat="45.56386197100265" lon="8.243869050520571"><ele>245.60000000000002</ele><time>2026-04-06T14:11:15.949Z</time></trkpt><trkpt lat="45.563778968640825" lon="8.243792386408597"><ele>245.4</ele><time>2026-04-06T14:11:16.949Z</time></trkpt><trkpt lat="45.563705684263105" lon="8.243717788706904"><ele>245.2</ele><time>2026-04-06T14:11:17.949Z</time></trkpt><trkpt lat="45.563637323056525" lon="8.243642197427395"><ele>245.0</ele><time>2026-04-06T14:11:18.95Z</time></trkpt><trkpt lat="45.56357020924171" lon="8.243588718027127"><ele>244.85714285714286</ele><time>2026-04-06T14:11:19.95Z</time></trkpt><trkpt lat="45.56353208606745" lon="8.24349781683419"><ele>244.71428571428572</ele><time>2026-04-06T14:11:20.95Z</time></trkpt><trkpt lat="45.56350997580928" lon="8.2434049557601"><ele>244.57142857142856</ele><time>2026-04-06T14:11:21.95Z</time></trkpt><trkpt lat="45.563490719270035" lon="8.243314955395107"><ele>244.42857142857142</ele><time>2026-04-06T14:11:22.95Z</time></trkpt><trkpt lat="45.563454213390976" lon="8.243228953789986"><ele>244.28571428571428</ele><time>2026-04-06T14:11:23.951Z</time></trkpt><trkpt lat="45.56340198694539" lon="8.24316505778797"><ele>244.1428571428571</ele><time>2026-04-06T14:11:24.951Z</time></trkpt><trkpt lat="45.563332009645926" lon="8.243135861881695"><ele>243.99999999999997</ele><time>2026-04-06T14:11:25.951Z</time></trkpt><trkpt lat="45.56325764962914" lon="8.243133858502695"><ele>243.99999999999997</ele><time>2026-04-06T14:11:26.951Z</time></trkpt><trkpt lat="45.563190049149576" lon="8.243179046592036"><ele>244.0</ele><time>2026-04-06T14:11:27.951Z</time></trkpt><trkpt lat="45.56311980906476" lon="8.24322352105421"><ele>244.0</ele><time>2026-04-06T14:11:28.951Z</time></trkpt><trkpt lat="45.56303737650749" lon="8.243227048362373"><ele>244.0</ele><time>2026-04-06T14:11:29.951Z</time></trkpt><trkpt lat="45.56295087836853" lon="8.243189453285003"><ele>243.99999999999997</ele><time>2026-04-06T14:11:30.951Z</time></trkpt><trkpt lat="45.56286894776862" lon="8.243128514881345"><ele>244.0</ele><time>2026-04-06T14:11:31.951Z</time></trkpt><trkpt lat="45.56278578542009" lon="8.243067324109518"><ele>244.6</ele><time>2026-04-06T14:11:32.952Z</time></trkpt><trkpt lat="45.56270540325316" lon="8.24300766678046"><ele>245.2</ele><time>2026-04-06T14:11:33.952Z</time></trkpt><trkpt lat="45.562628593079225" lon="8.242948622238481"><ele>245.79999999999998</ele><time>2026-04-06T14:11:34.952Z</time></trkpt><trkpt lat="45.56255140371996" lon="8.242888916640249"><ele>246.39999999999998</ele><time>2026-04-06T14:11:35.952Z</time></trkpt><trkpt lat="45.56246995269883" lon="8.24282515615581"><ele>247.0</ele><time>2026-04-06T14:11:36.952Z</time></trkpt><trkpt lat="45.562382270064724" lon="8.242754490275258"><ele>247.0</ele><time>2026-04-06T14:11:37.952Z</time></trkpt><trkpt lat="45.562288852599046" lon="8.242677671642022"><ele>247.0</ele><time>2026-04-06T14:11:38.952Z</time></trkpt><trkpt lat="45.5621864653056" lon="8.242595814830414"><ele>247.0</ele><time>2026-04-06T14:11:39.952Z</time></trkpt><trkpt lat="45.56207902968811" lon="8.242509689533955"><ele>247.0</ele><time>2026-04-06T14:11:40.952Z</time></trkpt><trkpt lat="45.561968491775595" lon="8.242421873672628"><ele>246.5</ele><time>2026-04-06T14:11:41.952Z</time></trkpt><trkpt lat="45.561859837992586" lon="8.242311814915508"><ele>246.0</ele><time>2026-04-06T14:11:42.952Z</time></trkpt><trkpt lat="45.561747266087146" lon="8.242222204416167"><ele>245.5</ele><time>2026-04-06T14:11:43.952Z</time></trkpt><trkpt lat="45.56163765896479" lon="8.242134953975826"><ele>245.0</ele><time>2026-04-06T14:11:44.952Z</time></trkpt><trkpt lat="45.56153151590818" lon="8.242050461031004"><ele>244.5</ele><time>2026-04-06T14:11:45.952Z</time></trkpt><trkpt lat="45.56141095008821" lon="8.241992693808267"><ele>244.0</ele><time>2026-04-06T14:11:46.952Z</time></trkpt><trkpt lat="45.56129969942873" lon="8.241899276944304"><ele>243.5</ele><time>2026-04-06T14:11:47.952Z</time></trkpt><trkpt lat="45.56118360639789" lon="8.241806656419117"><ele>243.0</ele><time>2026-04-06T14:11:48.952Z</time></trkpt><trkpt lat="45.561065046138786" lon="8.241714350988477"><ele>242.75</ele><time>2026-04-06T14:11:49.952Z</time></trkpt><trkpt lat="45.560962520989726" lon="8.241594081119079"><ele>242.5</ele><time>2026-04-06T14:11:50.952Z</time></trkpt><trkpt lat="45.56085527348193" lon="8.241509249732912"><ele>242.25</ele><time>2026-04-06T14:11:51.952Z</time></trkpt><trkpt lat="45.56075548730737" lon="8.241430320221559"><ele>242.0</ele><time>2026-04-06T14:11:52.952Z</time></trkpt><trkpt lat="45.56066060884881" lon="8.241353944052111"><ele>242.0</ele><time>2026-04-06T14:11:53.952Z</time></trkpt><trkpt lat="45.560581670993294" lon="8.241286565847318"><ele>241.99999999999997</ele><time>2026-04-06T14:11:54.952Z</time></trkpt><trkpt lat="45.560518206839035" lon="8.241221754041756"><ele>242.0</ele><time>2026-04-06T14:11:55.952Z</time></trkpt><trkpt lat="45.56047882859665" lon="8.241131079957775"><ele>242.0</ele><time>2026-04-06T14:11:56.952Z</time></trkpt><trkpt lat="45.560440096492684" lon="8.241052650646846"><ele>241.99999999999997</ele><time>2026-04-06T14:11:57.952Z</time></trkpt><trkpt lat="45.56038023008875" lon="8.241011810344242"><ele>242.0</ele><time>2026-04-06T14:11:58.952Z</time></trkpt><trkpt lat="45.5603168938424" lon="8.241011486957584"><ele>242.0</ele><time>2026-04-06T14:11:59.952Z</time></trkpt><trkpt lat="45.560259965600565" lon="8.241050977539663"><ele>242.0</ele><time>2026-04-06T14:12:00.952Z</time></trkpt><trkpt lat="45.56019704059149" lon="8.241106324733563"><ele>242.0</ele><time>2026-04-06T14:12:01.952Z</time></trkpt><trkpt lat="45.56011193900538" lon="8.241135121913473"><ele>242.0</ele><time>2026-04-06T14:12:02.952Z</time></trkpt><trkpt lat="45.560011838009466" lon="8.241159512779777"><ele>242.0</ele><time>2026-04-06T14:12:03.952Z</time></trkpt><trkpt lat="45.55989956452559" lon="8.241176996002258"><ele>242.0</ele><time>2026-04-06T14:12:04.952Z</time></trkpt><trkpt lat="45.55978158264202" lon="8.241193323521937"><ele>242.0</ele><time>2026-04-06T14:12:05.952Z</time></trkpt><trkpt lat="45.559667049741236" lon="8.241216408952276"><ele>242.0</ele><time>2026-04-06T14:12:06.952Z</time></trkpt><trkpt lat="45.55954319498119" lon="8.241227015033065"><ele>242.0</ele><time>2026-04-06T14:12:07.952Z</time></trkpt><trkpt lat="45.559412878247166" lon="8.2412473895419"><ele>242.0</ele><time>2026-04-06T14:12:08.952Z</time></trkpt><trkpt lat="45.55927447651405" lon="8.241271617948344"><ele>241.5</ele><time>2026-04-06T14:12:09.952Z</time></trkpt><trkpt lat="45.559136468144544" lon="8.241295808424967"><ele>241.0</ele><time>2026-04-06T14:12:10.952Z</time></trkpt><trkpt lat="45.558997784451876" lon="8.241318437828749"><ele>240.5</ele><time>2026-04-06T14:12:11.952Z</time></trkpt><trkpt lat="45.558852835437605" lon="8.241341752927466"><ele>240.0</ele><time>2026-04-06T14:12:12.952Z</time></trkpt><trkpt lat="45.55870129427587" lon="8.24136778888934"><ele>239.0</ele><time>2026-04-06T14:12:13.952Z</time></trkpt><trkpt lat="45.558545610783106" lon="8.241392575892185"><ele>238.0</ele><time>2026-04-06T14:12:14.952Z</time></trkpt><trkpt lat="45.5583850544191" lon="8.241421136125433"><ele>237.0</ele><time>2026-04-06T14:12:15.952Z</time></trkpt><trkpt lat="45.558221391033484" lon="8.241448861655023"><ele>237.66666666666669</ele><time>2026-04-06T14:12:16.952Z</time></trkpt><trkpt lat="45.55805552782377" lon="8.241474768398978"><ele>238.33333333333334</ele><time>2026-04-06T14:12:17.952Z</time></trkpt><trkpt lat="45.55789340502391" lon="8.241497138813635"><ele>239.0</ele><time>2026-04-06T14:12:18.952Z</time></trkpt><trkpt lat="45.55773400604643" lon="8.24151716336495"><ele>239.0</ele><time>2026-04-06T14:12:19.952Z</time></trkpt><trkpt lat="45.55757435588032" lon="8.241526749962876"><ele>239.0</ele><time>2026-04-06T14:12:20.953Z</time></trkpt><trkpt lat="45.55741879056505" lon="8.24155086009754"><ele>239.0</ele><time>2026-04-06T14:12:21.953Z</time></trkpt><trkpt lat="45.5572606146268" lon="8.24156962017436"><ele>239.0</ele><time>2026-04-06T14:12:22.953Z</time></trkpt><trkpt lat="45.557104345799864" lon="8.241591869153856"><ele>239.0</ele><time>2026-04-06T14:12:23.953Z</time></trkpt><trkpt lat="45.55695573034444" lon="8.241624523608506"><ele>239.0</ele><time>2026-04-06T14:12:24.953Z</time></trkpt><trkpt lat="45.55680019342858" lon="8.241656938660284"><ele>240.0</ele><time>2026-04-06T14:12:25.953Z</time></trkpt><trkpt lat="45.556641222458836" lon="8.241681641683915"><ele>241.0</ele><time>2026-04-06T14:12:26.953Z</time></trkpt><trkpt lat="45.55648085859209" lon="8.241707580604409"><ele>242.0</ele><time>2026-04-06T14:12:27.953Z</time></trkpt><trkpt lat="45.55632203297186" lon="8.241733615642659"><ele>242.0</ele><time>2026-04-06T14:12:28.953Z</time></trkpt><trkpt lat="45.55616032778297" lon="8.24175952887681"><ele>242.0</ele><time>2026-04-06T14:12:29.952Z</time></trkpt><trkpt lat="45.55600592606339" lon="8.241786267923757"><ele>242.0</ele><time>2026-04-06T14:12:30.953Z</time></trkpt><trkpt lat="45.55585423803848" lon="8.241810062782509"><ele>242.0</ele><time>2026-04-06T14:12:31.953Z</time></trkpt><trkpt lat="45.55570605688867" lon="8.241832345091138"><ele>242.0</ele><time>2026-04-06T14:12:32.953Z</time></trkpt><trkpt lat="45.5555591526641" lon="8.241853505193834"><ele>242.0</ele><time>2026-04-06T14:12:33.953Z</time></trkpt><trkpt lat="45.555413939164104" lon="8.241877518260926"><ele>242.0</ele><time>2026-04-06T14:12:34.953Z</time></trkpt><trkpt lat="45.55526897761852" lon="8.241898300798029"><ele>241.5</ele><time>2026-04-06T14:12:35.953Z</time></trkpt><trkpt lat="45.55512266948886" lon="8.241922240089867"><ele>241.0</ele><time>2026-04-06T14:12:36.953Z</time></trkpt><trkpt lat="45.55497681853418" lon="8.241946592735262"><ele>240.5</ele><time>2026-04-06T14:12:37.953Z</time></trkpt><trkpt lat="45.55483115897979" lon="8.241969248837158"><ele>240.0</ele><time>2026-04-06T14:12:38.953Z</time></trkpt><trkpt lat="45.55468489179551" lon="8.241990066085505"><ele>240.0</ele><time>2026-04-06T14:12:39.953Z</time></trkpt><trkpt lat="45.55453925604745" lon="8.24201161120387"><ele>240.0</ele><time>2026-04-06T14:12:40.953Z</time></trkpt><trkpt lat="45.55439187297599" lon="8.242037570360377"><ele>240.0</ele><time>2026-04-06T14:12:41.953Z</time></trkpt><trkpt lat="45.554244201866894" lon="8.24205906874639"><ele>240.0</ele><time>2026-04-06T14:12:42.953Z</time></trkpt><trkpt lat="45.55409380184372" lon="8.242082023207097"><ele>240.5</ele><time>2026-04-06T14:12:43.953Z</time></trkpt><trkpt lat="45.553948626705534" lon="8.242102949298332"><ele>241.0</ele><time>2026-04-06T14:12:44.953Z</time></trkpt><trkpt lat="45.55380985382777" lon="8.242121325346204"><ele>241.5</ele><time>2026-04-06T14:12:45.953Z</time></trkpt><trkpt lat="45.5536799419045" lon="8.242141281055064"><ele>242.0</ele><time>2026-04-06T14:12:46.953Z</time></trkpt><trkpt lat="45.553550633052495" lon="8.242157226856529"><ele>240.75</ele><time>2026-04-06T14:12:47.953Z</time></trkpt><trkpt lat="45.553423029047515" lon="8.242149333607951"><ele>239.5</ele><time>2026-04-06T14:12:48.953Z</time></trkpt><trkpt lat="45.55330364972594" lon="8.242126620861228"><ele>238.25</ele><time>2026-04-06T14:12:49.953Z</time></trkpt><trkpt lat="45.553197282591555" lon="8.242086948976393"><ele>237.0</ele><time>2026-04-06T14:12:50.952Z</time></trkpt><trkpt lat="45.553111343130034" lon="8.242039447011992"><ele>237.0</ele><time>2026-04-06T14:12:51.952Z</time></trkpt><trkpt lat="45.55304751633522" lon="8.241966117052721"><ele>237.0</ele><time>2026-04-06T14:12:52.952Z</time></trkpt><trkpt lat="45.553005834071115" lon="8.241873091502391"><ele>237.0</ele><time>2026-04-06T14:12:53.952Z</time></trkpt><trkpt lat="45.552985270215366" lon="8.241768178099099"><ele>237.0</ele><time>2026-04-06T14:12:54.952Z</time></trkpt><trkpt lat="45.55297016496786" lon="8.24165545622028"><ele>237.0</ele><time>2026-04-06T14:12:55.952Z</time></trkpt><trkpt lat="45.55294696759326" lon="8.241541440919644"><ele>237.0</ele><time>2026-04-06T14:12:56.952Z</time></trkpt><trkpt lat="45.55290690293756" lon="8.241435536034606"><ele>236.33333333333334</ele><time>2026-04-06T14:12:57.952Z</time></trkpt><trkpt lat="45.55285467307677" lon="8.24134786140197"><ele>235.66666666666669</ele><time>2026-04-06T14:12:58.952Z</time></trkpt><trkpt lat="45.55279242376399" lon="8.241278767753117"><ele>235.0</ele><time>2026-04-06T14:12:59.952Z</time></trkpt><trkpt lat="45.55272225952683" lon="8.241236726813723"><ele>234.33333333333334</ele><time>2026-04-06T14:13:00.952Z</time></trkpt><trkpt lat="45.55264828539623" lon="8.241215805504371"><ele>233.66666666666669</ele><time>2026-04-06T14:13:01.952Z</time></trkpt><trkpt lat="45.55257442124602" lon="8.241214928226098"><ele>233.0</ele><time>2026-04-06T14:13:02.952Z</time></trkpt><trkpt lat="45.55250450579344" lon="8.241241834870486"><ele>233.00000000000003</ele><time>2026-04-06T14:13:03.952Z</time></trkpt><trkpt lat="45.55243614680028" lon="8.241292396669508"><ele>233.0</ele><time>2026-04-06T14:13:04.952Z</time></trkpt><trkpt lat="45.55237156403985" lon="8.241369160015612"><ele>233.0</ele><time>2026-04-06T14:13:05.952Z</time></trkpt><trkpt lat="45.55231825982748" lon="8.241475784054947"><ele>233.0</ele><time>2026-04-06T14:13:06.952Z</time></trkpt><trkpt lat="45.552289433659126" lon="8.24160063574023"><ele>233.00000000000003</ele><time>2026-04-06T14:13:07.952Z</time></trkpt><trkpt lat="45.55227771297891" lon="8.241727077753549"><ele>233.0</ele><time>2026-04-06T14:13:08.952Z</time></trkpt><trkpt lat="45.552276732247876" lon="8.24184580120362"><ele>233.33333333333334</ele><time>2026-04-06T14:13:09.952Z</time></trkpt><trkpt lat="45.552271535614935" lon="8.241963931768984"><ele>233.66666666666669</ele><time>2026-04-06T14:13:10.952Z</time></trkpt><trkpt lat="45.55227282502898" lon="8.242067789234655"><ele>234.0</ele><time>2026-04-06T14:13:11.952Z</time></trkpt><trkpt lat="45.55220545550067" lon="8.242181764686267"><ele>234.33333333333331</ele><time>2026-04-06T14:13:12.952Z</time></trkpt><trkpt lat="45.552143422109154" lon="8.24226852563992"><ele>234.66666666666666</ele><time>2026-04-06T14:13:13.952Z</time></trkpt><trkpt lat="45.5520589954063" lon="8.242337100336766"><ele>235.0</ele><time>2026-04-06T14:13:14.952Z</time></trkpt><trkpt lat="45.55195591839668" lon="8.242392190860619"><ele>235.0</ele><time>2026-04-06T14:13:15.952Z</time></trkpt><trkpt lat="45.5518341566554" lon="8.242438725941128"><ele>235.0</ele><time>2026-04-06T14:13:16.952Z</time></trkpt><trkpt lat="45.55169308041391" lon="8.242471534449715"><ele>235.0</ele><time>2026-04-06T14:13:17.952Z</time></trkpt><trkpt lat="45.55153822649454" lon="8.242499637576838"><ele>235.0</ele><time>2026-04-06T14:13:18.952Z</time></trkpt><trkpt lat="45.551365981071946" lon="8.242517332503265"><ele>235.66666666666666</ele><time>2026-04-06T14:13:19.952Z</time></trkpt><trkpt lat="45.55117990497367" lon="8.242548548740778"><ele>236.33333333333331</ele><time>2026-04-06T14:13:20.952Z</time></trkpt><trkpt lat="45.55097987535355" lon="8.242579512436858"><ele>237.0</ele><time>2026-04-06T14:13:21.952Z</time></trkpt><trkpt lat="45.55077149614617" lon="8.242607698970854"><ele>237.0</ele><time>2026-04-06T14:13:22.952Z</time></trkpt><trkpt lat="45.550561413525436" lon="8.242631694118753"><ele>237.0</ele><time>2026-04-06T14:13:23.952Z</time></trkpt><trkpt lat="45.5503457266856" lon="8.242659355802445"><ele>237.0</ele><time>2026-04-06T14:13:24.952Z</time></trkpt><trkpt lat="45.55012659527967" lon="8.242697504677551"><ele>235.5</ele><time>2026-04-06T14:13:25.952Z</time></trkpt><trkpt lat="45.5498977575282" lon="8.242739545906197"><ele>234.0</ele><time>2026-04-06T14:13:26.952Z</time></trkpt><trkpt lat="45.54966317436794" lon="8.242778395181421"><ele>234.33333333333331</ele><time>2026-04-06T14:13:27.952Z</time></trkpt><trkpt lat="45.54943818238053" lon="8.24281975045016"><ele>234.66666666666666</ele><time>2026-04-06T14:13:28.952Z</time></trkpt><trkpt lat="45.549217814714176" lon="8.242859481463022"><ele>235.0</ele><time>2026-04-06T14:13:29.952Z</time></trkpt><trkpt lat="45.548998780208365" lon="8.242893688053599"><ele>235.0</ele><time>2026-04-06T14:13:30.952Z</time></trkpt><trkpt lat="45.54877876839876" lon="8.24292377948605"><ele>235.0</ele><time>2026-04-06T14:13:31.952Z</time></trkpt><trkpt lat="45.54855698138466" lon="8.242948424992235"><ele>235.0</ele><time>2026-04-06T14:13:32.952Z</time></trkpt><trkpt lat="45.54833326301238" lon="8.242969201032105"><ele>235.0</ele><time>2026-04-06T14:13:33.952Z</time></trkpt><trkpt lat="45.54810777150841" lon="8.242973370855015"><ele>235.0</ele><time>2026-04-06T14:13:34.952Z</time></trkpt><trkpt lat="45.54787727864881" lon="8.242964791565482"><ele>234.5</ele><time>2026-04-06T14:13:35.952Z</time></trkpt><trkpt lat="45.54763911833196" lon="8.242926631692239"><ele>234.0</ele><time>2026-04-06T14:13:36.952Z</time></trkpt><trkpt lat="45.54738804791218" lon="8.242904356947557"><ele>234.0</ele><time>2026-04-06T14:13:37.952Z</time></trkpt><trkpt lat="45.54713102764822" lon="8.242882242048044"><ele>234.0</ele><time>2026-04-06T14:13:38.952Z</time></trkpt><trkpt lat="45.54688404707555" lon="8.242881517080395"><ele>233.5</ele><time>2026-04-06T14:13:39.952Z</time></trkpt><trkpt lat="45.54665206946243" lon="8.24285251047437"><ele>233.0</ele><time>2026-04-06T14:13:40.952Z</time></trkpt><trkpt lat="45.54642937288064" lon="8.242831466159876"><ele>232.5</ele><time>2026-04-06T14:13:41.952Z</time></trkpt><trkpt lat="45.54619524964246" lon="8.242820138260441"><ele>232.0</ele><time>2026-04-06T14:13:42.952Z</time></trkpt><trkpt lat="45.54595421737801" lon="8.242777197233078"><ele>232.0</ele><time>2026-04-06T14:13:43.952Z</time></trkpt><trkpt lat="45.54569928259163" lon="8.242778087131782"><ele>232.0</ele><time>2026-04-06T14:13:44.952Z</time></trkpt><trkpt lat="45.54543748021373" lon="8.242742549722097"><ele>232.0</ele><time>2026-04-06T14:13:45.952Z</time></trkpt><trkpt lat="45.545166228615855" lon="8.242716220511955"><ele>232.0</ele><time>2026-04-06T14:13:46.952Z</time></trkpt><trkpt lat="45.54488718188933" lon="8.242692925821228"><ele>232.0</ele><time>2026-04-06T14:13:47.952Z</time></trkpt><trkpt lat="45.544603310411965" lon="8.242665690643598"><ele>232.0</ele><time>2026-04-06T14:13:48.952Z</time></trkpt><trkpt lat="45.544316311543106" lon="8.242639507305325"><ele>232.5</ele><time>2026-04-06T14:13:49.952Z</time></trkpt><trkpt lat="45.54404012217853" lon="8.242615179838078"><ele>233.0</ele><time>2026-04-06T14:13:50.952Z</time></trkpt><trkpt lat="45.54376679904041" lon="8.24259347753837"><ele>232.0</ele><time>2026-04-06T14:13:51.952Z</time></trkpt><trkpt lat="45.54349218682858" lon="8.242571162998278"><ele>231.0</ele><time>2026-04-06T14:13:52.952Z</time></trkpt><trkpt lat="45.543220972992074" lon="8.242549919744842"><ele>231.0</ele><time>2026-04-06T14:13:53.952Z</time></trkpt><trkpt lat="45.54294553877194" lon="8.242528048885466"><ele>231.0</ele><time>2026-04-06T14:13:54.952Z</time></trkpt><trkpt lat="45.542672904341394" lon="8.24250235699591"><ele>231.0</ele><time>2026-04-06T14:13:55.951Z</time></trkpt><trkpt lat="45.54239789478055" lon="8.242476618034102"><ele>231.0</ele><time>2026-04-06T14:13:56.951Z</time></trkpt><trkpt lat="45.54212092850412" lon="8.242453355006266"><ele>230.0</ele><time>2026-04-06T14:13:57.951Z</time></trkpt><trkpt lat="45.541842179797705" lon="8.242429127718598"><ele>229.0</ele><time>2026-04-06T14:13:58.951Z</time></trkpt><trkpt lat="45.541561916917495" lon="8.242406245028503"><ele>229.0</ele><time>2026-04-06T14:13:59.951Z</time></trkpt><trkpt lat="45.541278211203334" lon="8.242381453176323"><ele>229.0</ele><time>2026-04-06T14:14:00.951Z</time></trkpt><trkpt lat="45.54099503717606" lon="8.242356083589899"><ele>229.0</ele><time>2026-04-06T14:14:01.951Z</time></trkpt><trkpt lat="45.54070859812342" lon="8.242331768895854"><ele>229.0</ele><time>2026-04-06T14:14:02.951Z</time></trkpt><trkpt lat="45.54041800242751" lon="8.242306809293142"><ele>229.5</ele><time>2026-04-06T14:14:03.951Z</time></trkpt><trkpt lat="45.54012277442332" lon="8.242279942912068"><ele>230.0</ele><time>2026-04-06T14:14:04.951Z</time></trkpt><trkpt lat="45.539827876187466" lon="8.24225451958295"><ele>229.0</ele><time>2026-04-06T14:14:05.951Z</time></trkpt><trkpt lat="45.53953148746924" lon="8.24222911344156"><ele>228.0</ele><time>2026-04-06T14:14:06.951Z</time></trkpt><trkpt lat="45.539234012802176" lon="8.242204109619928"><ele>228.0</ele><time>2026-04-06T14:14:07.951Z</time></trkpt><trkpt lat="45.538932457786856" lon="8.242178437587015"><ele>228.0</ele><time>2026-04-06T14:14:08.951Z</time></trkpt><trkpt lat="45.53862626430289" lon="8.242152519229684"><ele>227.5</ele><time>2026-04-06T14:14:09.951Z</time></trkpt><trkpt lat="45.53831954993437" lon="8.242121604341621"><ele>227.0</ele><time>2026-04-06T14:14:10.951Z</time></trkpt><trkpt lat="45.5380167672757" lon="8.242094502702052"><ele>226.0</ele><time>2026-04-06T14:14:11.951Z</time></trkpt><trkpt lat="45.537723291035626" lon="8.242070139719875"><ele>225.0</ele><time>2026-04-06T14:14:12.951Z</time></trkpt><trkpt lat="45.53743679623855" lon="8.242049873005513"><ele>225.0</ele><time>2026-04-06T14:14:13.951Z</time></trkpt><trkpt lat="45.537159480081414" lon="8.242024613575241"><ele>225.0</ele><time>2026-04-06T14:14:14.951Z</time></trkpt><trkpt lat="45.53689023939099" lon="8.242001015382673"><ele>225.0</ele><time>2026-04-06T14:14:15.951Z</time></trkpt><trkpt lat="45.536629332283155" lon="8.24198354511222"><ele>225.0</ele><time>2026-04-06T14:14:16.951Z</time></trkpt><trkpt lat="45.536374125405516" lon="8.241964091880734"><ele>225.5</ele><time>2026-04-06T14:14:17.951Z</time></trkpt><trkpt lat="45.536123466350624" lon="8.241926721482281"><ele>226.0</ele><time>2026-04-06T14:14:18.951Z</time></trkpt><trkpt lat="45.5358740828192" lon="8.241907531820473"><ele>226.0</ele><time>2026-04-06T14:14:19.951Z</time></trkpt><trkpt lat="45.535624627286005" lon="8.241887346551538"><ele>226.0</ele><time>2026-04-06T14:14:20.951Z</time></trkpt><trkpt lat="45.53537520295662" lon="8.241865052694084"><ele>226.0</ele><time>2026-04-06T14:14:21.951Z</time></trkpt><trkpt lat="45.53512589489434" lon="8.241846044830538"><ele>226.0</ele><time>2026-04-06T14:14:22.951Z</time></trkpt><trkpt lat="45.53487754050289" lon="8.241825542479994"><ele>226.0</ele><time>2026-04-06T14:14:23.951Z</time></trkpt><trkpt lat="45.534628068112525" lon="8.24180125840488"><ele>226.0</ele><time>2026-04-06T14:14:24.951Z</time></trkpt><trkpt lat="45.53438153607596" lon="8.241780760985103"><ele>226.0</ele><time>2026-04-06T14:14:25.951Z</time></trkpt><trkpt lat="45.5341342113058" lon="8.241761383087411"><ele>226.0</ele><time>2026-04-06T14:14:26.952Z</time></trkpt><trkpt lat="45.53388726270774" lon="8.24173785911228"><ele>224.5</ele><time>2026-04-06T14:14:27.952Z</time></trkpt><trkpt lat="45.53364215914629" lon="8.241713709817867"><ele>223.0</ele><time>2026-04-06T14:14:28.952Z</time></trkpt><trkpt lat="45.53340045022844" lon="8.241688402090583"><ele>223.0</ele><time>2026-04-06T14:14:29.952Z</time></trkpt><trkpt lat="45.533162873719874" lon="8.241664659499328"><ele>223.0</ele><time>2026-04-06T14:14:30.951Z</time></trkpt><trkpt lat="45.53292678298896" lon="8.241646265271406"><ele>223.5</ele><time>2026-04-06T14:14:31.951Z</time></trkpt><trkpt lat="45.53268975132688" lon="8.241631871785566"><ele>224.0</ele><time>2026-04-06T14:14:32.951Z</time></trkpt><trkpt lat="45.53244878044821" lon="8.241614120056724"><ele>224.0</ele><time>2026-04-06T14:14:33.951Z</time></trkpt><trkpt lat="45.532205416484075" lon="8.241593343248885"><ele>224.0</ele><time>2026-04-06T14:14:34.951Z</time></trkpt><trkpt lat="45.53196411386211" lon="8.241571992029328"><ele>223.0</ele><time>2026-04-06T14:14:35.952Z</time></trkpt><trkpt lat="45.53172507294028" lon="8.241553160631883"><ele>222.0</ele><time>2026-04-06T14:14:36.951Z</time></trkpt><trkpt lat="45.531490771980444" lon="8.241530250072417"><ele>222.0</ele><time>2026-04-06T14:14:37.951Z</time></trkpt><trkpt lat="45.53126185955314" lon="8.241495987390302"><ele>222.0</ele><time>2026-04-06T14:14:38.952Z</time></trkpt><trkpt lat="45.531036418206334" lon="8.241450987678064"><ele>222.0</ele><time>2026-04-06T14:14:39.952Z</time></trkpt><trkpt lat="45.53081363042716" lon="8.241406627710878"><ele>222.0</ele><time>2026-04-06T14:14:40.952Z</time></trkpt><trkpt lat="45.530594484652134" lon="8.241367164177495"><ele>222.0</ele><time>2026-04-06T14:14:41.952Z</time></trkpt><trkpt lat="45.530374469240456" lon="8.241343511547798"><ele>222.66666666666669</ele><time>2026-04-06T14:14:42.952Z</time></trkpt><trkpt lat="45.5301509815105" lon="8.24132497821828"><ele>223.33333333333334</ele><time>2026-04-06T14:14:43.952Z</time></trkpt><trkpt lat="45.52992649560543" lon="8.241306503564836"><ele>224.0</ele><time>2026-04-06T14:14:44.952Z</time></trkpt><trkpt lat="45.52969825346921" lon="8.24128731228633"><ele>223.0</ele><time>2026-04-06T14:14:45.952Z</time></trkpt><trkpt lat="45.52946907944246" lon="8.241274740212539"><ele>222.0</ele><time>2026-04-06T14:14:46.952Z</time></trkpt><trkpt lat="45.529239461823174" lon="8.241273320353917"><ele>222.0</ele><time>2026-04-06T14:14:47.952Z</time></trkpt><trkpt lat="45.52900903117889" lon="8.24127932273787"><ele>222.0</ele><time>2026-04-06T14:14:48.952Z</time></trkpt><trkpt lat="45.528778719308924" lon="8.241279327601736"><ele>222.5</ele><time>2026-04-06T14:14:49.952Z</time></trkpt><trkpt lat="45.52854582476904" lon="8.241265748159607"><ele>223.0</ele><time>2026-04-06T14:14:50.952Z</time></trkpt><trkpt lat="45.528312838163615" lon="8.24124945307696"><ele>223.0</ele><time>2026-04-06T14:14:51.952Z</time></trkpt><trkpt lat="45.5280799892392" lon="8.241231099890003"><ele>223.0</ele><time>2026-04-06T14:14:52.952Z</time></trkpt><trkpt lat="45.52784582516638" lon="8.241209431285496"><ele>222.0</ele><time>2026-04-06T14:14:53.952Z</time></trkpt><trkpt lat="45.52761012176189" lon="8.241184941193842"><ele>221.0</ele><time>2026-04-06T14:14:54.952Z</time></trkpt><trkpt lat="45.52737142226155" lon="8.241161563016572"><ele>221.0</ele><time>2026-04-06T14:14:55.952Z</time></trkpt><trkpt lat="45.52713230479549" lon="8.241141680048202"><ele>221.0</ele><time>2026-04-06T14:14:56.952Z</time></trkpt><trkpt lat="45.52689284028359" lon="8.241120779092098"><ele>221.5</ele><time>2026-04-06T14:14:57.952Z</time></trkpt><trkpt lat="45.526653747611405" lon="8.241098249899013"><ele>222.0</ele><time>2026-04-06T14:14:58.952Z</time></trkpt><trkpt lat="45.52641518080413" lon="8.24107550975223"><ele>221.0</ele><time>2026-04-06T14:14:59.952Z</time></trkpt><trkpt lat="45.52617576938772" lon="8.241057737699135"><ele>220.0</ele><time>2026-04-06T14:15:00.952Z</time></trkpt><trkpt lat="45.52593730870491" lon="8.241039177596345"><ele>220.0</ele><time>2026-04-06T14:15:01.952Z</time></trkpt><trkpt lat="45.52569948938381" lon="8.241016485104508"><ele>220.0</ele><time>2026-04-06T14:15:02.951Z</time></trkpt><trkpt lat="45.525462625239506" lon="8.240998423890645"><ele>220.5</ele><time>2026-04-06T14:15:03.951Z</time></trkpt><trkpt lat="45.52522918423308" lon="8.240978859818236"><ele>221.0</ele><time>2026-04-06T14:15:04.951Z</time></trkpt><trkpt lat="45.52499573463378" lon="8.240958106891267"><ele>221.0</ele><time>2026-04-06T14:15:05.951Z</time></trkpt><trkpt lat="45.52476214343458" lon="8.2409354453181"><ele>221.0</ele><time>2026-04-06T14:15:06.951Z</time></trkpt><trkpt lat="45.52452829456143" lon="8.240917736191465"><ele>219.0</ele><time>2026-04-06T14:15:07.951Z</time></trkpt><trkpt lat="45.524295279325045" lon="8.240897577361604"><ele>217.0</ele><time>2026-04-06T14:15:08.951Z</time></trkpt><trkpt lat="45.52406175562985" lon="8.240872706675535"><ele>217.0</ele><time>2026-04-06T14:15:09.951Z</time></trkpt><trkpt lat="45.523830193759814" lon="8.240850865107607"><ele>217.0</ele><time>2026-04-06T14:15:10.951Z</time></trkpt><trkpt lat="45.52359874059925" lon="8.240834902067188"><ele>217.5</ele><time>2026-04-06T14:15:11.951Z</time></trkpt><trkpt lat="45.523366587782924" lon="8.240814380570136"><ele>218.0</ele><time>2026-04-06T14:15:12.951Z</time></trkpt><trkpt lat="45.52313033533434" lon="8.240789264702899"><ele>218.0</ele><time>2026-04-06T14:15:13.951Z</time></trkpt><trkpt lat="45.52288986917858" lon="8.240762030291386"><ele>218.0</ele><time>2026-04-06T14:15:14.951Z</time></trkpt><trkpt lat="45.522646859307976" lon="8.240737589082382"><ele>218.0</ele><time>2026-04-06T14:15:15.951Z</time></trkpt><trkpt lat="45.52239642110814" lon="8.240715183325104"><ele>218.0</ele><time>2026-04-06T14:15:16.951Z</time></trkpt><trkpt lat="45.52214316583186" lon="8.24069720349475"><ele>218.5</ele><time>2026-04-06T14:15:17.951Z</time></trkpt><trkpt lat="45.5218902391355" lon="8.24067554799555"><ele>219.0</ele><time>2026-04-06T14:15:18.951Z</time></trkpt><trkpt lat="45.52164160253175" lon="8.240655395767668"><ele>219.0</ele><time>2026-04-06T14:15:19.951Z</time></trkpt><trkpt lat="45.521397040854126" lon="8.24063528592349"><ele>219.0</ele><time>2026-04-06T14:15:20.951Z</time></trkpt><trkpt lat="45.521158889738054" lon="8.240616413777866"><ele>220.0</ele><time>2026-04-06T14:15:21.951Z</time></trkpt><trkpt lat="45.52092038680346" lon="8.240597053718158"><ele>221.0</ele><time>2026-04-06T14:15:22.951Z</time></trkpt><trkpt lat="45.52068350295059" lon="8.240580547450199"><ele>221.0</ele><time>2026-04-06T14:15:23.951Z</time></trkpt><trkpt lat="45.52044997647858" lon="8.240558295210395"><ele>221.0</ele><time>2026-04-06T14:15:24.951Z</time></trkpt><trkpt lat="45.520220687295904" lon="8.240534077919111"><ele>219.66666666666669</ele><time>2026-04-06T14:15:25.951Z</time></trkpt><trkpt lat="45.519997530301886" lon="8.240510510079877"><ele>218.33333333333331</ele><time>2026-04-06T14:15:26.951Z</time></trkpt><trkpt lat="45.51978056302925" lon="8.240482383846825"><ele>217.0</ele><time>2026-04-06T14:15:27.951Z</time></trkpt><trkpt lat="45.51957175803806" lon="8.240446986327992"><ele>216.0</ele><time>2026-04-06T14:15:28.951Z</time></trkpt><trkpt lat="45.51937036007579" lon="8.240397677161113"><ele>215.0</ele><time>2026-04-06T14:15:29.951Z</time></trkpt><trkpt lat="45.51917324080472" lon="8.240341349750535"><ele>214.0</ele><time>2026-04-06T14:15:30.951Z</time></trkpt><trkpt lat="45.51898367549043" lon="8.240283225166097"><ele>214.0</ele><time>2026-04-06T14:15:31.951Z</time></trkpt><trkpt lat="45.51879861702679" lon="8.2402260935769"><ele>214.0</ele><time>2026-04-06T14:15:32.951Z</time></trkpt><trkpt lat="45.518616117982226" lon="8.24016836397027"><ele>214.0</ele><time>2026-04-06T14:15:33.951Z</time></trkpt><trkpt lat="45.51843291394655" lon="8.240109763504924"><ele>213.66666666666666</ele><time>2026-04-06T14:15:34.951Z</time></trkpt><trkpt lat="45.51824391240571" lon="8.240051719983892"><ele>213.33333333333331</ele><time>2026-04-06T14:15:35.951Z</time></trkpt><trkpt lat="45.518055807515" lon="8.239986585934217"><ele>213.0</ele><time>2026-04-06T14:15:36.951Z</time></trkpt><trkpt lat="45.51787008177574" lon="8.239916740815666"><ele>213.0</ele><time>2026-04-06T14:15:37.951Z</time></trkpt><trkpt lat="45.51768616044837" lon="8.239842190306952"><ele>213.0</ele><time>2026-04-06T14:15:38.951Z</time></trkpt><trkpt lat="45.51750825115219" lon="8.23976395384367"><ele>213.0</ele><time>2026-04-06T14:15:39.951Z</time></trkpt><trkpt lat="45.51733813174779" lon="8.239684819428637"><ele>213.0</ele><time>2026-04-06T14:15:40.951Z</time></trkpt><trkpt lat="45.5171764974179" lon="8.239604754193621"><ele>213.0</ele><time>2026-04-06T14:15:41.951Z</time></trkpt><trkpt lat="45.517018333725346" lon="8.239529088563502"><ele>213.0</ele><time>2026-04-06T14:15:42.951Z</time></trkpt><trkpt lat="45.516876753288024" lon="8.239426784522603"><ele>213.0</ele><time>2026-04-06T14:15:43.951Z</time></trkpt><trkpt lat="45.516736225240784" lon="8.239359921901025"><ele>213.0</ele><time>2026-04-06T14:15:44.951Z</time></trkpt><trkpt lat="45.516601938162374" lon="8.239296547590339"><ele>213.0</ele><time>2026-04-06T14:15:45.951Z</time></trkpt><trkpt lat="45.51647578798563" lon="8.239238623834533"><ele>213.0</ele><time>2026-04-06T14:15:46.951Z</time></trkpt><trkpt lat="45.516351656235805" lon="8.239191138069765"><ele>213.0</ele><time>2026-04-06T14:15:47.951Z</time></trkpt><trkpt lat="45.51622268267979" lon="8.239172789145616"><ele>213.0</ele><time>2026-04-06T14:15:48.951Z</time></trkpt><trkpt lat="45.51609428849072" lon="8.239179059717605"><ele>213.0</ele><time>2026-04-06T14:15:49.951Z</time></trkpt><trkpt lat="45.51595666778594" lon="8.239170205322287"><ele>213.0</ele><time>2026-04-06T14:15:50.951Z</time></trkpt><trkpt lat="45.51581555637954" lon="8.23914284935123"><ele>213.0</ele><time>2026-04-06T14:15:51.951Z</time></trkpt><trkpt lat="45.51567396739132" lon="8.239122532751818"><ele>213.0</ele><time>2026-04-06T14:15:52.951Z</time></trkpt><trkpt lat="45.515522529045036" lon="8.239104013140043"><ele>213.0</ele><time>2026-04-06T14:15:53.951Z</time></trkpt><trkpt lat="45.51536383028469" lon="8.239091687417128"><ele>213.0</ele><time>2026-04-06T14:15:54.951Z</time></trkpt><trkpt lat="45.5152087256357" lon="8.239078071923435"><ele>213.0</ele><time>2026-04-06T14:15:55.951Z</time></trkpt><trkpt lat="45.51506015754297" lon="8.239074633995264"><ele>213.0</ele><time>2026-04-06T14:15:56.951Z</time></trkpt><trkpt lat="45.51491527270843" lon="8.239059973643633"><ele>213.0</ele><time>2026-04-06T14:15:57.951Z</time></trkpt><trkpt lat="45.514780371549755" lon="8.23912774015937"><ele>213.0</ele><time>2026-04-06T14:15:58.951Z</time></trkpt><trkpt lat="45.5146409003392" lon="8.239160153669417"><ele>213.0</ele><time>2026-04-06T14:15:59.951Z</time></trkpt><trkpt lat="45.51450252803091" lon="8.239221411049167"><ele>213.0</ele><time>2026-04-06T14:16:00.951Z</time></trkpt><trkpt lat="45.51436977800551" lon="8.23929462397751"><ele>213.0</ele><time>2026-04-06T14:16:01.951Z</time></trkpt><trkpt lat="45.51424515725445" lon="8.23935861107154"><ele>212.8</ele><time>2026-04-06T14:16:02.951Z</time></trkpt><trkpt lat="45.51413118955854" lon="8.239406758865222"><ele>212.60000000000002</ele><time>2026-04-06T14:16:03.951Z</time></trkpt><trkpt lat="45.51402502246589" lon="8.239432822425382"><ele>212.39999999999998</ele><time>2026-04-06T14:16:04.951Z</time></trkpt><trkpt lat="45.51392154893553" lon="8.23944568163603"><ele>212.2</ele><time>2026-04-06T14:16:05.951Z</time></trkpt><trkpt lat="45.51382167779951" lon="8.239451890219843"><ele>212.0</ele><time>2026-04-06T14:16:06.95Z</time></trkpt><trkpt lat="45.513725602137136" lon="8.239466378989475"><ele>212.00000000000003</ele><time>2026-04-06T14:16:07.95Z</time></trkpt><trkpt lat="45.513637199430214" lon="8.239494706794801"><ele>212.0</ele><time>2026-04-06T14:16:08.95Z</time></trkpt><trkpt lat="45.513558491920456" lon="8.239547005164148"><ele>212.0</ele><time>2026-04-06T14:16:09.95Z</time></trkpt><trkpt lat="45.513477056080426" lon="8.239555840784684"><ele>212.0</ele><time>2026-04-06T14:16:10.95Z</time></trkpt><trkpt lat="45.51341653459191" lon="8.239584898332504"><ele>212.00000000000003</ele><time>2026-04-06T14:16:11.95Z</time></trkpt><trkpt lat="45.51335130039232" lon="8.239593548570937"><ele>212.0</ele><time>2026-04-06T14:16:13.95Z</time></trkpt><trkpt lat="45.51326915787948" lon="8.239346587260128"><ele>212.0</ele><time>2026-04-06T14:16:18.95Z</time></trkpt><trkpt lat="45.513253086312936" lon="8.239229841703485"><ele>212.0</ele><time>2026-04-06T14:16:21.95Z</time></trkpt><trkpt lat="45.513313657438204" lon="8.239146288588195"><ele>212.0</ele><time>2026-04-06T14:16:25.95Z</time></trkpt></trkseg><trkseg><trkpt lat="45.51326990232659" lon="8.239122385626354"><ele>212.00000000000003</ele><time>2026-04-06T14:29:52.937Z</time></trkpt><trkpt lat="45.51323252037484" lon="8.239258537882405"><ele>212.0</ele><time>2026-04-06T14:29:55.937Z</time></trkpt><trkpt lat="45.51324899170413" lon="8.23936505784274"><ele>212.0</ele><time>2026-04-06T14:29:57.937Z</time></trkpt><trkpt lat="45.51327830931416" lon="8.23945810976354"><ele>212.0</ele><time>2026-04-06T14:29:59.937Z</time></trkpt><trkpt lat="45.513306768775564" lon="8.23955120892865"><ele>212.00000000000003</ele><time>2026-04-06T14:30:03.937Z</time></trkpt><trkpt lat="45.513300116041776" lon="8.239641339192447"><ele>212.0</ele><time>2026-04-06T14:30:09.937Z</time></trkpt><trkpt lat="45.51320305328582" lon="8.23968677412555"><ele>212.00000000000003</ele><time>2026-04-06T14:30:11.937Z</time></trkpt><trkpt lat="45.51312583376894" lon="8.239713852922685"><ele>212.0</ele><time>2026-04-06T14:30:12.937Z</time></trkpt><trkpt lat="45.5130348419294" lon="8.239750316482521"><ele>212.0</ele><time>2026-04-06T14:30:13.937Z</time></trkpt><trkpt lat="45.51294541254519" lon="8.239782757130374"><ele>212.0</ele><time>2026-04-06T14:30:14.937Z</time></trkpt><trkpt lat="45.51285923578481" lon="8.239811510058807"><ele>212.00000000000003</ele><time>2026-04-06T14:30:15.937Z</time></trkpt><trkpt lat="45.51277503490061" lon="8.239849651108456"><ele>212.0</ele><time>2026-04-06T14:30:16.937Z</time></trkpt><trkpt lat="45.512689634293935" lon="8.239884788539602"><ele>211.6</ele><time>2026-04-06T14:30:17.937Z</time></trkpt><trkpt lat="45.512607364868614" lon="8.239924375796116"><ele>211.2</ele><time>2026-04-06T14:30:18.937Z</time></trkpt><trkpt lat="45.5125297340952" lon="8.23995939944513"><ele>210.8</ele><time>2026-04-06T14:30:19.937Z</time></trkpt><trkpt lat="45.51245786116352" lon="8.239989120263987"><ele>210.4</ele><time>2026-04-06T14:30:20.937Z</time></trkpt><trkpt lat="45.51235255559729" lon="8.240070711708615"><ele>210.0</ele><time>2026-04-06T14:30:22.937Z</time></trkpt><trkpt lat="45.51230945652387" lon="8.2402381864028"><ele>210.0</ele><time>2026-04-06T14:30:24.937Z</time></trkpt><trkpt lat="45.51230279726547" lon="8.240407097774053"><ele>210.0</ele><time>2026-04-06T14:30:25.937Z</time></trkpt><trkpt lat="45.51229631945733" lon="8.240569836807277"><ele>210.0</ele><time>2026-04-06T14:30:26.937Z</time></trkpt><trkpt lat="45.51230421875725" lon="8.240730600065874"><ele>210.0</ele><time>2026-04-06T14:30:27.937Z</time></trkpt><trkpt lat="45.51232176415945" lon="8.240884660401933"><ele>209.5</ele><time>2026-04-06T14:30:28.937Z</time></trkpt><trkpt lat="45.512351757196576" lon="8.241036891388129"><ele>209.0</ele><time>2026-04-06T14:30:29.937Z</time></trkpt><trkpt lat="45.51238772091781" lon="8.241192533102858"><ele>208.5</ele><time>2026-04-06T14:30:30.937Z</time></trkpt><trkpt lat="45.512405060978665" lon="8.241350500476129"><ele>208.0</ele><time>2026-04-06T14:30:31.937Z</time></trkpt><trkpt lat="45.51239592731867" lon="8.241514213436108"><ele>206.75</ele><time>2026-04-06T14:30:32.936Z</time></trkpt><trkpt lat="45.51236653737318" lon="8.241666418319776"><ele>205.5</ele><time>2026-04-06T14:30:33.936Z</time></trkpt><trkpt lat="45.512309108789154" lon="8.241801676997827"><ele>204.25</ele><time>2026-04-06T14:30:34.936Z</time></trkpt><trkpt lat="45.512221823155116" lon="8.241916964018559"><ele>203.0</ele><time>2026-04-06T14:30:35.936Z</time></trkpt><trkpt lat="45.51212828735139" lon="8.242006864067719"><ele>202.5</ele><time>2026-04-06T14:30:36.936Z</time></trkpt><trkpt lat="45.51201584192538" lon="8.242084251225144"><ele>202.0</ele><time>2026-04-06T14:30:37.936Z</time></trkpt><trkpt lat="45.51191011947625" lon="8.242169256546559"><ele>201.5</ele><time>2026-04-06T14:30:38.936Z</time></trkpt><trkpt lat="45.51180297171983" lon="8.242247467465583"><ele>201.0</ele><time>2026-04-06T14:30:39.936Z</time></trkpt><trkpt lat="45.51169495333946" lon="8.24234959385201"><ele>202.25</ele><time>2026-04-06T14:30:40.936Z</time></trkpt><trkpt lat="45.5115964372972" lon="8.242466805345599"><ele>203.5</ele><time>2026-04-06T14:30:41.936Z</time></trkpt><trkpt lat="45.51150971353248" lon="8.242587697998594"><ele>204.75</ele><time>2026-04-06T14:30:42.936Z</time></trkpt><trkpt lat="45.51143887085894" lon="8.242726191500417"><ele>206.0</ele><time>2026-04-06T14:30:43.936Z</time></trkpt><trkpt lat="45.51137272883671" lon="8.242868653776775"><ele>206.0</ele><time>2026-04-06T14:30:44.936Z</time></trkpt><trkpt lat="45.51130452464016" lon="8.243026282750739"><ele>206.0</ele><time>2026-04-06T14:30:45.936Z</time></trkpt><trkpt lat="45.5112300305189" lon="8.24317599726825"><ele>206.0</ele><time>2026-04-06T14:30:46.936Z</time></trkpt><trkpt lat="45.51114526951629" lon="8.243327069853478"><ele>206.0</ele><time>2026-04-06T14:30:47.936Z</time></trkpt><trkpt lat="45.511060421726576" lon="8.243471466711314"><ele>207.25</ele><time>2026-04-06T14:30:48.936Z</time></trkpt><trkpt lat="45.51099313162552" lon="8.243624407699462"><ele>208.5</ele><time>2026-04-06T14:30:49.936Z</time></trkpt><trkpt lat="45.51093794196491" lon="8.24377443512317"><ele>209.75</ele><time>2026-04-06T14:30:50.936Z</time></trkpt><trkpt lat="45.51089284699482" lon="8.243940202312022"><ele>211.0</ele><time>2026-04-06T14:30:51.936Z</time></trkpt><trkpt lat="45.51085746660423" lon="8.244102139893291"><ele>210.99999999999997</ele><time>2026-04-06T14:30:52.936Z</time></trkpt><trkpt lat="45.51083022908635" lon="8.244224751993125"><ele>211.0</ele><time>2026-04-06T14:30:53.936Z</time></trkpt><trkpt lat="45.51080018104684" lon="8.244331282538974"><ele>211.0</ele><time>2026-04-06T14:30:54.936Z</time></trkpt><trkpt lat="45.5107735064986" lon="8.244435828245745"><ele>211.0</ele><time>2026-04-06T14:30:55.936Z</time></trkpt><trkpt lat="45.51075301951454" lon="8.24454102880412"><ele>210.99999999999997</ele><time>2026-04-06T14:30:56.936Z</time></trkpt><trkpt lat="45.51072874640039" lon="8.244657892417449"><ele>211.0</ele><time>2026-04-06T14:30:57.936Z</time></trkpt><trkpt lat="45.510690834462295" lon="8.244773789750859"><ele>211.0</ele><time>2026-04-06T14:30:58.936Z</time></trkpt><trkpt lat="45.51064118260691" lon="8.244888583429821"><ele>211.0</ele><time>2026-04-06T14:30:59.936Z</time></trkpt><trkpt lat="45.51058220294601" lon="8.244994309711267"><ele>211.0</ele><time>2026-04-06T14:31:00.936Z</time></trkpt><trkpt lat="45.51049909915756" lon="8.245080742945397"><ele>211.0</ele><time>2026-04-06T14:31:01.936Z</time></trkpt><trkpt lat="45.51041024931706" lon="8.24515481033957"><ele>211.0</ele><time>2026-04-06T14:31:02.936Z</time></trkpt><trkpt lat="45.510315256726365" lon="8.24522858094476"><ele>211.60000000000002</ele><time>2026-04-06T14:31:03.936Z</time></trkpt><trkpt lat="45.51022067267243" lon="8.245303599038607"><ele>212.2</ele><time>2026-04-06T14:31:04.936Z</time></trkpt><trkpt lat="45.51012903493678" lon="8.24538325940248"><ele>212.79999999999998</ele><time>2026-04-06T14:31:05.936Z</time></trkpt><trkpt lat="45.510062799998444" lon="8.245459443849452"><ele>213.39999999999998</ele><time>2026-04-06T14:31:06.936Z</time></trkpt><trkpt lat="45.5100094180513" lon="8.245514704616575"><ele>214.0</ele><time>2026-04-06T14:31:07.936Z</time></trkpt><trkpt lat="45.50992398034988" lon="8.245604304831621"><ele>214.0</ele><time>2026-04-06T14:31:09.936Z</time></trkpt><trkpt lat="45.509827992925715" lon="8.245729044295688"><ele>213.99999999999997</ele><time>2026-04-06T14:31:11.936Z</time></trkpt><trkpt lat="45.5097637597612" lon="8.245798714292922"><ele>213.99999999999997</ele><time>2026-04-06T14:31:12.936Z</time></trkpt><trkpt lat="45.509692900400964" lon="8.245868417232634"><ele>214.0</ele><time>2026-04-06T14:31:13.934Z</time></trkpt><trkpt lat="45.50961023060522" lon="8.245928322556658"><ele>214.0</ele><time>2026-04-06T14:31:14.935Z</time></trkpt><trkpt lat="45.50952298508801" lon="8.24597743783628"><ele>213.6</ele><time>2026-04-06T14:31:15.935Z</time></trkpt><trkpt lat="45.50942602735524" lon="8.246025012722422"><ele>213.2</ele><time>2026-04-06T14:31:16.935Z</time></trkpt><trkpt lat="45.509329010763935" lon="8.246074085514255"><ele>212.79999999999998</ele><time>2026-04-06T14:31:17.935Z</time></trkpt><trkpt lat="45.5092366485253" lon="8.24611443839329"><ele>212.39999999999998</ele><time>2026-04-06T14:31:18.935Z</time></trkpt><trkpt lat="45.509153496034386" lon="8.246145784485467"><ele>212.0</ele><time>2026-04-06T14:31:19.934Z</time></trkpt><trkpt lat="45.50908687327853" lon="8.246171892666615"><ele>212.0</ele><time>2026-04-06T14:31:20.934Z</time></trkpt><trkpt lat="45.5089806093007" lon="8.24622257419631"><ele>212.0</ele><time>2026-04-06T14:31:22.934Z</time></trkpt><trkpt lat="45.50885910668826" lon="8.246285423640995"><ele>212.0</ele><time>2026-04-06T14:31:24.934Z</time></trkpt><trkpt lat="45.50878411489258" lon="8.246330375381485"><ele>212.0</ele><time>2026-04-06T14:31:25.934Z</time></trkpt><trkpt lat="45.508698202384686" lon="8.246377542892661"><ele>212.0</ele><time>2026-04-06T14:31:26.934Z</time></trkpt><trkpt lat="45.50861252038548" lon="8.246421333046463"><ele>211.0</ele><time>2026-04-06T14:31:27.934Z</time></trkpt><trkpt lat="45.508536019411686" lon="8.24646239663199"><ele>211.0</ele><time>2026-04-06T14:31:28.934Z</time></trkpt><trkpt lat="45.50846824109339" lon="8.246496730295789"><ele>211.0</ele><time>2026-04-06T14:31:29.934Z</time></trkpt><trkpt lat="45.50840663098138" lon="8.246523720278695"><ele>211.0</ele><time>2026-04-06T14:31:30.934Z</time></trkpt><trkpt lat="45.508319941619476" lon="8.246566045408306"><ele>211.0</ele><time>2026-04-06T14:31:32.934Z</time></trkpt></trkseg><trkseg><trkpt lat="45.508250119411635" lon="8.246590383680948"><ele>211.0</ele><time>2026-04-06T14:48:03.828Z</time></trkpt><trkpt lat="45.50813788117774" lon="8.246647132858868"><ele>211.0</ele><time>2026-04-06T14:48:05.828Z</time></trkpt><trkpt lat="45.50806811277118" lon="8.246693022190101"><ele>211.0</ele><time>2026-04-06T14:48:06.828Z</time></trkpt><trkpt lat="45.5079641777426" lon="8.246732436733959"><ele>211.0</ele><time>2026-04-06T14:48:07.828Z</time></trkpt><trkpt lat="45.50788895521746" lon="8.246774505101024"><ele>211.0</ele><time>2026-04-06T14:48:08.829Z</time></trkpt><trkpt lat="45.50779446837052" lon="8.24682103680251"><ele>211.0</ele><time>2026-04-06T14:48:09.828Z</time></trkpt><trkpt lat="45.50770252162981" lon="8.246857675415002"><ele>211.0</ele><time>2026-04-06T14:48:10.828Z</time></trkpt><trkpt lat="45.507602485742716" lon="8.2468962056973"><ele>211.0</ele><time>2026-04-06T14:48:11.828Z</time></trkpt><trkpt lat="45.50748484162341" lon="8.246939481239485"><ele>211.0</ele><time>2026-04-06T14:48:12.829Z</time></trkpt><trkpt lat="45.50737071258909" lon="8.246978480579102"><ele>211.0</ele><time>2026-04-06T14:48:21.828Z</time></trkpt><trkpt lat="45.50728655154817" lon="8.247013260228092"><ele>211.0</ele><time>2026-04-06T14:48:22.828Z</time></trkpt><trkpt lat="45.50712727209621" lon="8.24708367936286"><ele>211.0</ele><time>2026-04-06T14:48:23.828Z</time></trkpt><trkpt lat="45.506180829939844" lon="8.24752040171081"><ele>210.8</ele><time>2026-04-06T14:48:24.828Z</time></trkpt><trkpt lat="45.50608651128576" lon="8.247615413144286"><ele>210.60000000000002</ele><time>2026-04-06T14:48:25.828Z</time></trkpt><trkpt lat="45.50599546381643" lon="8.24770916964334"><ele>210.4</ele><time>2026-04-06T14:48:26.828Z</time></trkpt><trkpt lat="45.50590820028709" lon="8.247797654606828"><ele>210.2</ele><time>2026-04-06T14:48:27.828Z</time></trkpt><trkpt lat="45.50581919652399" lon="8.247893372215032"><ele>210.0</ele><time>2026-04-06T14:48:28.828Z</time></trkpt><trkpt lat="45.50573250300928" lon="8.247997527273537"><ele>210.0</ele><time>2026-04-06T14:48:29.828Z</time></trkpt><trkpt lat="45.505645065237566" lon="8.248098821216994"><ele>210.0</ele><time>2026-04-06T14:48:30.828Z</time></trkpt><trkpt lat="45.50555751105016" lon="8.248186872324693"><ele>210.0</ele><time>2026-04-06T14:48:31.828Z</time></trkpt><trkpt lat="45.50547859014217" lon="8.248271617403615"><ele>210.0</ele><time>2026-04-06T14:48:32.828Z</time></trkpt><trkpt lat="45.505387797257946" lon="8.24833120676622"><ele>210.0</ele><time>2026-04-06T14:48:33.828Z</time></trkpt><trkpt lat="45.50528879089818" lon="8.248374476715387"><ele>209.4</ele><time>2026-04-06T14:48:34.828Z</time></trkpt><trkpt lat="45.50518378875743" lon="8.248396977255245"><ele>208.8</ele><time>2026-04-06T14:48:35.828Z</time></trkpt><trkpt lat="45.50507513044367" lon="8.248406094201798"><ele>208.2</ele><time>2026-04-06T14:48:36.828Z</time></trkpt><trkpt lat="45.504972401891905" lon="8.248392308024842"><ele>207.6</ele><time>2026-04-06T14:48:37.828Z</time></trkpt><trkpt lat="45.50487724982648" lon="8.248383938812742"><ele>207.0</ele><time>2026-04-06T14:48:38.828Z</time></trkpt><trkpt lat="45.504783827250705" lon="8.248413290460862"><ele>207.0</ele><time>2026-04-06T14:48:39.828Z</time></trkpt><trkpt lat="45.50469417701826" lon="8.248464554315088"><ele>207.0</ele><time>2026-04-06T14:48:40.828Z</time></trkpt><trkpt lat="45.50461435682018" lon="8.248546495378068"><ele>207.0</ele><time>2026-04-06T14:48:41.828Z</time></trkpt><trkpt lat="45.504539257068956" lon="8.248643076445967"><ele>207.0</ele><time>2026-04-06T14:48:42.828Z</time></trkpt><trkpt lat="45.50445705342974" lon="8.248754931366513"><ele>207.0</ele><time>2026-04-06T14:48:43.828Z</time></trkpt><trkpt lat="45.50436397234459" lon="8.248883430168297"><ele>205.0</ele><time>2026-04-06T14:48:44.828Z</time></trkpt><trkpt lat="45.504262637480785" lon="8.249013538537197"><ele>203.0</ele><time>2026-04-06T14:48:45.828Z</time></trkpt><trkpt lat="45.50415914347756" lon="8.249148674083862"><ele>201.0</ele><time>2026-04-06T14:48:46.828Z</time></trkpt><trkpt lat="45.50406324510167" lon="8.249253812648508"><ele>199.0</ele><time>2026-04-06T14:48:47.828Z</time></trkpt><trkpt lat="45.503965855459704" lon="8.249342815423615"><ele>199.0</ele><time>2026-04-06T14:48:48.828Z</time></trkpt><trkpt lat="45.503867375958386" lon="8.24941159684595"><ele>199.0</ele><time>2026-04-06T14:48:49.827Z</time></trkpt><trkpt lat="45.503789653225304" lon="8.24945591348514"><ele>199.0</ele><time>2026-04-06T14:48:50.827Z</time></trkpt><trkpt lat="45.50366632064181" lon="8.249455915658114"><ele>199.0</ele><time>2026-04-06T14:48:52.827Z</time></trkpt><trkpt lat="45.503600759678704" lon="8.249429403778915"><ele>199.0</ele><time>2026-04-06T14:48:53.827Z</time></trkpt><trkpt lat="45.5035142759216" lon="8.249399335906656"><ele>196.79999999999998</ele><time>2026-04-06T14:48:54.827Z</time></trkpt><trkpt lat="45.503447815396314" lon="8.249323725478217"><ele>194.6</ele><time>2026-04-06T14:48:55.827Z</time></trkpt><trkpt lat="45.50337831175052" lon="8.249219882261496"><ele>192.4</ele><time>2026-04-06T14:48:56.827Z</time></trkpt><trkpt lat="45.50330481972925" lon="8.249104425709445"><ele>190.2</ele><time>2026-04-06T14:48:57.827Z</time></trkpt><trkpt lat="45.50322253055674" lon="8.248984483185643"><ele>188.0</ele><time>2026-04-06T14:48:58.827Z</time></trkpt><trkpt lat="45.50313398779154" lon="8.248855726917416"><ele>187.5</ele><time>2026-04-06T14:48:59.827Z</time></trkpt><trkpt lat="45.50304037139717" lon="8.248728401966746"><ele>187.0</ele><time>2026-04-06T14:49:00.827Z</time></trkpt><trkpt lat="45.5029428381372" lon="8.24860669906395"><ele>186.5</ele><time>2026-04-06T14:49:01.827Z</time></trkpt><trkpt lat="45.50284145046565" lon="8.248483485692283"><ele>186.0</ele><time>2026-04-06T14:49:02.827Z</time></trkpt><trkpt lat="45.50274081556944" lon="8.248364008219756"><ele>185.5</ele><time>2026-04-06T14:49:03.827Z</time></trkpt><trkpt lat="45.502643052766665" lon="8.248251104642558"><ele>185.0</ele><time>2026-04-06T14:49:04.827Z</time></trkpt><trkpt lat="45.50255360012424" lon="8.248139791661758"><ele>184.5</ele><time>2026-04-06T14:49:05.827Z</time></trkpt><trkpt lat="45.502464667016824" lon="8.248033876570162"><ele>184.0</ele><time>2026-04-06T14:49:06.827Z</time></trkpt><trkpt lat="45.50238200537435" lon="8.247926235538035"><ele>183.83333333333334</ele><time>2026-04-06T14:49:07.827Z</time></trkpt><trkpt lat="45.50230476461029" lon="8.247826394764104"><ele>183.66666666666669</ele><time>2026-04-06T14:49:08.827Z</time></trkpt><trkpt lat="45.50224175476099" lon="8.247735378569912"><ele>183.5</ele><time>2026-04-06T14:49:09.827Z</time></trkpt><trkpt lat="45.50219681735436" lon="8.24765104769385"><ele>183.33333333333334</ele><time>2026-04-06T14:49:10.827Z</time></trkpt><trkpt lat="45.50215843551045" lon="8.247521150903651"><ele>183.16666666666666</ele><time>2026-04-06T14:49:12.827Z</time></trkpt><trkpt lat="45.50217237228987" lon="8.247412126415812"><ele>183.0</ele><time>2026-04-06T14:49:16.827Z</time></trkpt><trkpt lat="45.50220178784791" lon="8.247275571450357"><ele>183.0</ele><time>2026-04-06T14:49:18.827Z</time></trkpt><trkpt lat="45.502217440596965" lon="8.247185161610824"><ele>183.0</ele><time>2026-04-06T14:49:19.827Z</time></trkpt><trkpt lat="45.50224583532664" lon="8.247081930098284"><ele>183.0</ele><time>2026-04-06T14:49:20.827Z</time></trkpt><trkpt lat="45.50228903573581" lon="8.246977008607123"><ele>183.0</ele><time>2026-04-06T14:49:21.827Z</time></trkpt><trkpt lat="45.50233646161594" lon="8.246890296124898"><ele>183.0</ele><time>2026-04-06T14:49:22.826Z</time></trkpt><trkpt lat="45.502395451979794" lon="8.246794827091405"><ele>183.0</ele><time>2026-04-06T14:49:23.826Z</time></trkpt><trkpt lat="45.502469360052615" lon="8.246690379794384"><ele>183.0</ele><time>2026-04-06T14:49:24.826Z</time></trkpt><trkpt lat="45.50255419833207" lon="8.246576565970715"><ele>183.0</ele><time>2026-04-06T14:49:25.826Z</time></trkpt><trkpt lat="45.50263391817464" lon="8.246467674955033"><ele>183.0</ele><time>2026-04-06T14:49:26.826Z</time></trkpt><trkpt lat="45.50271407815127" lon="8.246358609140609"><ele>183.0</ele><time>2026-04-06T14:49:27.826Z</time></trkpt><trkpt lat="45.50280491355794" lon="8.24623428295607"><ele>183.0</ele><time>2026-04-06T14:49:28.826Z</time></trkpt><trkpt lat="45.50290687042502" lon="8.246097198964106"><ele>183.0</ele><time>2026-04-06T14:49:29.826Z</time></trkpt><trkpt lat="45.50302112473641" lon="8.245949505932808"><ele>183.0</ele><time>2026-04-06T14:49:30.826Z</time></trkpt><trkpt lat="45.50314444856349" lon="8.245788236462184"><ele>183.0</ele><time>2026-04-06T14:49:31.826Z</time></trkpt><trkpt lat="45.50327531265034" lon="8.24561554182906"><ele>183.0</ele><time>2026-04-06T14:49:32.826Z</time></trkpt><trkpt lat="45.50341800922499" lon="8.245433988571145"><ele>183.0</ele><time>2026-04-06T14:49:33.826Z</time></trkpt><trkpt lat="45.503562993644785" lon="8.245255748576822"><ele>183.0</ele><time>2026-04-06T14:49:34.826Z</time></trkpt><trkpt lat="45.5037008251606" lon="8.245085823214593"><ele>183.0</ele><time>2026-04-06T14:49:35.826Z</time></trkpt><trkpt lat="45.50384094619292" lon="8.244923995010923"><ele>183.0</ele><time>2026-04-06T14:49:36.826Z</time></trkpt><trkpt lat="45.50397936721196" lon="8.244754095385776"><ele>183.0</ele><time>2026-04-06T14:49:37.826Z</time></trkpt><trkpt lat="45.50411594089377" lon="8.244581418723909"><ele>183.0</ele><time>2026-04-06T14:49:38.826Z</time></trkpt><trkpt lat="45.50424690679119" lon="8.244416071064059"><ele>183.0</ele><time>2026-04-06T14:49:39.826Z</time></trkpt><trkpt lat="45.504369615557124" lon="8.244255294878917"><ele>183.0</ele><time>2026-04-06T14:49:40.826Z</time></trkpt><trkpt lat="45.50448950079883" lon="8.244105439485846"><ele>183.0</ele><time>2026-04-06T14:49:41.826Z</time></trkpt><trkpt lat="45.5046040518307" lon="8.243961474268064"><ele>183.0</ele><time>2026-04-06T14:49:42.826Z</time></trkpt><trkpt lat="45.50471172089021" lon="8.243821734496764"><ele>183.75</ele><time>2026-04-06T14:49:43.826Z</time></trkpt><trkpt lat="45.50481318797974" lon="8.24369380015844"><ele>184.5</ele><time>2026-04-06T14:49:44.826Z</time></trkpt><trkpt lat="45.50491072197378" lon="8.243571013576785"><ele>185.25</ele><time>2026-04-06T14:49:45.826Z</time></trkpt><trkpt lat="45.50501026758468" lon="8.24344604559109"><ele>186.0</ele><time>2026-04-06T14:49:46.826Z</time></trkpt><trkpt lat="45.505116916271135" lon="8.243316828290988"><ele>186.0</ele><time>2026-04-06T14:49:47.826Z</time></trkpt><trkpt lat="45.50522488545444" lon="8.243181498696359"><ele>186.0</ele><time>2026-04-06T14:49:48.826Z</time></trkpt><trkpt lat="45.50533610069149" lon="8.2430337762866"><ele>186.0</ele><time>2026-04-06T14:49:49.826Z</time></trkpt><trkpt lat="45.50545311875862" lon="8.242885980637057"><ele>186.33333333333334</ele><time>2026-04-06T14:49:50.826Z</time></trkpt><trkpt lat="45.505571984802074" lon="8.242731116508047"><ele>186.66666666666669</ele><time>2026-04-06T14:49:51.826Z</time></trkpt><trkpt lat="45.505698240903" lon="8.242574260939206"><ele>187.0</ele><time>2026-04-06T14:49:52.826Z</time></trkpt><trkpt lat="45.50583041248307" lon="8.242409091726481"><ele>186.33333333333334</ele><time>2026-04-06T14:49:53.826Z</time></trkpt><trkpt lat="45.50596281067336" lon="8.242231875799302"><ele>185.66666666666666</ele><time>2026-04-06T14:49:54.826Z</time></trkpt><trkpt lat="45.50610120377297" lon="8.242050925876848"><ele>185.0</ele><time>2026-04-06T14:49:55.825Z</time></trkpt><trkpt lat="45.506244667793275" lon="8.24186495605493"><ele>185.0</ele><time>2026-04-06T14:49:56.825Z</time></trkpt><trkpt lat="45.506390569534844" lon="8.241672480412348"><ele>185.0</ele><time>2026-04-06T14:49:57.825Z</time></trkpt><trkpt lat="45.50653901850214" lon="8.241475887426004"><ele>185.0</ele><time>2026-04-06T14:49:58.825Z</time></trkpt><trkpt lat="45.50669211644877" lon="8.241279909833931"><ele>185.0</ele><time>2026-04-06T14:49:59.825Z</time></trkpt><trkpt lat="45.50684969060497" lon="8.241075673803214"><ele>185.0</ele><time>2026-04-06T14:50:00.825Z</time></trkpt><trkpt lat="45.50701285654661" lon="8.240864914164131"><ele>185.0</ele><time>2026-04-06T14:50:01.825Z</time></trkpt><trkpt lat="45.5071891876694" lon="8.240641938415912"><ele>185.5</ele><time>2026-04-06T14:50:02.825Z</time></trkpt><trkpt lat="45.50737365422489" lon="8.240404452788242"><ele>186.0</ele><time>2026-04-06T14:50:03.825Z</time></trkpt><trkpt lat="45.50756913582138" lon="8.240155098874629"><ele>186.0</ele><time>2026-04-06T14:50:04.825Z</time></trkpt><trkpt lat="45.50776932564656" lon="8.239903466811661"><ele>186.0</ele><time>2026-04-06T14:50:05.824Z</time></trkpt><trkpt lat="45.50799409241446" lon="8.239651691790167"><ele>186.5</ele><time>2026-04-06T14:50:06.824Z</time></trkpt><trkpt lat="45.50821145166029" lon="8.2393897171009"><ele>187.0</ele><time>2026-04-06T14:50:07.824Z</time></trkpt><trkpt lat="45.508409731005834" lon="8.239139037442422"><ele>187.0</ele><time>2026-04-06T14:50:08.824Z</time></trkpt><trkpt lat="45.50860226430713" lon="8.238891069500381"><ele>187.0</ele><time>2026-04-06T14:50:09.824Z</time></trkpt><trkpt lat="45.508792694229925" lon="8.238649038214291"><ele>187.0</ele><time>2026-04-06T14:50:10.824Z</time></trkpt><trkpt lat="45.50897941477164" lon="8.238413384093501"><ele>187.0</ele><time>2026-04-06T14:50:11.824Z</time></trkpt><trkpt lat="45.50915778864291" lon="8.23818758248338"><ele>187.0</ele><time>2026-04-06T14:50:12.824Z</time></trkpt><trkpt lat="45.50932532656791" lon="8.237978045893934"><ele>187.0</ele><time>2026-04-06T14:50:13.824Z</time></trkpt><trkpt lat="45.50948222705366" lon="8.237780305955898"><ele>187.0</ele><time>2026-04-06T14:50:14.824Z</time></trkpt><trkpt lat="45.50962614868304" lon="8.237595605223957"><ele>187.33333333333334</ele><time>2026-04-06T14:50:15.824Z</time></trkpt><trkpt lat="45.5097595919582" lon="8.237424500377998"><ele>187.66666666666666</ele><time>2026-04-06T14:50:16.824Z</time></trkpt><trkpt lat="45.50988746846483" lon="8.237267096544928"><ele>188.0</ele><time>2026-04-06T14:50:17.824Z</time></trkpt><trkpt lat="45.510002267372855" lon="8.237143520036973"><ele>188.2</ele><time>2026-04-06T14:50:18.824Z</time></trkpt><trkpt lat="45.510109330028044" lon="8.237062721866598"><ele>188.4</ele><time>2026-04-06T14:50:19.824Z</time></trkpt><trkpt lat="45.51021816869967" lon="8.237013378874272"><ele>188.6</ele><time>2026-04-06T14:50:20.824Z</time></trkpt><trkpt lat="45.51032219429239" lon="8.237008865991005"><ele>188.79999999999998</ele><time>2026-04-06T14:50:21.824Z</time></trkpt><trkpt lat="45.51040977284565" lon="8.237020231803669"><ele>189.0</ele><time>2026-04-06T14:50:22.824Z</time></trkpt><trkpt lat="45.510474980314996" lon="8.236989661702642"><ele>189.0</ele><time>2026-04-06T14:50:23.824Z</time></trkpt><trkpt lat="45.51051412686133" lon="8.236908271641315"><ele>189.0</ele><time>2026-04-06T14:50:24.824Z</time></trkpt><trkpt lat="45.51052371956327" lon="8.236803475061373"><ele>189.0</ele><time>2026-04-06T14:50:25.824Z</time></trkpt><trkpt lat="45.51050737967178" lon="8.236696044882331"><ele>189.0</ele><time>2026-04-06T14:50:26.824Z</time></trkpt><trkpt lat="45.51050738652697" lon="8.236564882707325"><ele>189.0</ele><time>2026-04-06T14:50:27.824Z</time></trkpt><trkpt lat="45.51054993278608" lon="8.236429105750418"><ele>189.0</ele><time>2026-04-06T14:50:28.824Z</time></trkpt><trkpt lat="45.510631647835154" lon="8.236317343092924"><ele>189.0</ele><time>2026-04-06T14:50:29.824Z</time></trkpt><trkpt lat="45.51073257594729" lon="8.236212414849508"><ele>189.0</ele><time>2026-04-06T14:50:30.824Z</time></trkpt><trkpt lat="45.51083294188195" lon="8.236090653529997"><ele>189.0</ele><time>2026-04-06T14:50:31.823Z</time></trkpt><trkpt lat="45.51093795816435" lon="8.235957329069636"><ele>189.0</ele><time>2026-04-06T14:50:32.823Z</time></trkpt><trkpt lat="45.51105010044255" lon="8.235813267516306"><ele>189.0</ele><time>2026-04-06T14:50:33.823Z</time></trkpt><trkpt lat="45.51117106270623" lon="8.235665149549266"><ele>189.0</ele><time>2026-04-06T14:50:34.823Z</time></trkpt><trkpt lat="45.51129392522957" lon="8.235503698795945"><ele>189.0</ele><time>2026-04-06T14:50:35.823Z</time></trkpt><trkpt lat="45.51142406065903" lon="8.235333775478743"><ele>189.0</ele><time>2026-04-06T14:50:36.823Z</time></trkpt><trkpt lat="45.51155948482066" lon="8.235160461773475"><ele>189.0</ele><time>2026-04-06T14:50:37.823Z</time></trkpt><trkpt lat="45.51168607477065" lon="8.234997305685148"><ele>189.0</ele><time>2026-04-06T14:50:38.823Z</time></trkpt><trkpt lat="45.51180891120523" lon="8.234841029978476"><ele>189.66666666666666</ele><time>2026-04-06T14:50:39.823Z</time></trkpt><trkpt lat="45.51193518439806" lon="8.234683587775892"><ele>190.33333333333331</ele><time>2026-04-06T14:50:40.823Z</time></trkpt><trkpt lat="45.51206955685646" lon="8.23452801773709"><ele>191.0</ele><time>2026-04-06T14:50:41.823Z</time></trkpt><trkpt lat="45.512212640999515" lon="8.23437780412295"><ele>191.66666666666666</ele><time>2026-04-06T14:50:42.823Z</time></trkpt><trkpt lat="45.51236475049585" lon="8.234238303238287"><ele>192.33333333333331</ele><time>2026-04-06T14:50:43.823Z</time></trkpt><trkpt lat="45.51252784071473" lon="8.23411377890805"><ele>193.0</ele><time>2026-04-06T14:50:44.823Z</time></trkpt><trkpt lat="45.51269719506689" lon="8.233990660656707"><ele>193.0</ele><time>2026-04-06T14:50:45.823Z</time></trkpt><trkpt lat="45.51286902376725" lon="8.233871159996891"><ele>193.0</ele><time>2026-04-06T14:50:46.823Z</time></trkpt><trkpt lat="45.5130262116172" lon="8.23375787724525"><ele>193.0</ele><time>2026-04-06T14:50:47.823Z</time></trkpt><trkpt lat="45.5131834446908" lon="8.23364502345479"><ele>193.33333333333331</ele><time>2026-04-06T14:50:48.823Z</time></trkpt><trkpt lat="45.51333443207015" lon="8.233513304366333"><ele>193.66666666666669</ele><time>2026-04-06T14:50:49.823Z</time></trkpt><trkpt lat="45.51347771723196" lon="8.233359687891616"><ele>194.0</ele><time>2026-04-06T14:50:50.823Z</time></trkpt><trkpt lat="45.51360034900316" lon="8.233169761293844"><ele>193.66666666666669</ele><time>2026-04-06T14:50:51.823Z</time></trkpt><trkpt lat="45.51369905313836" lon="8.23294041183478"><ele>193.33333333333331</ele><time>2026-04-06T14:50:52.823Z</time></trkpt><trkpt lat="45.513788594666046" lon="8.232688601759756"><ele>193.0</ele><time>2026-04-06T14:50:53.823Z</time></trkpt><trkpt lat="45.5138773054543" lon="8.232425447245994"><ele>192.33333333333331</ele><time>2026-04-06T14:50:54.823Z</time></trkpt><trkpt lat="45.51397227916855" lon="8.232165311817555"><ele>191.66666666666666</ele><time>2026-04-06T14:50:55.823Z</time></trkpt><trkpt lat="45.51407052793444" lon="8.231900754361961"><ele>191.0</ele><time>2026-04-06T14:50:56.823Z</time></trkpt><trkpt lat="45.51416710353359" lon="8.231643450789317"><ele>192.0</ele><time>2026-04-06T14:50:57.823Z</time></trkpt><trkpt lat="45.514261697416586" lon="8.231392634346212"><ele>193.0</ele><time>2026-04-06T14:50:58.823Z</time></trkpt><trkpt lat="45.514347788043274" lon="8.23114687788727"><ele>194.0</ele><time>2026-04-06T14:50:59.823Z</time></trkpt><trkpt lat="45.51440005152767" lon="8.23089531669254"><ele>194.33333333333334</ele><time>2026-04-06T14:51:00.823Z</time></trkpt><trkpt lat="45.51441909768" lon="8.230635703607275"><ele>194.66666666666669</ele><time>2026-04-06T14:51:01.823Z</time></trkpt><trkpt lat="45.51442382858289" lon="8.230368135009458"><ele>195.0</ele><time>2026-04-06T14:51:02.823Z</time></trkpt><trkpt lat="45.51443367706755" lon="8.230092889487038"><ele>195.0</ele><time>2026-04-06T14:51:03.823Z</time></trkpt><trkpt lat="45.514435766903865" lon="8.229821045155024"><ele>195.0</ele><time>2026-04-06T14:51:04.822Z</time></trkpt><trkpt lat="45.51443958236714" lon="8.229544097882135"><ele>195.0</ele><time>2026-04-06T14:51:05.822Z</time></trkpt><trkpt lat="45.51444417481867" lon="8.229281011206682"><ele>195.0</ele><time>2026-04-06T14:51:06.822Z</time></trkpt><trkpt lat="45.51445063505218" lon="8.229018138589325"><ele>195.0</ele><time>2026-04-06T14:51:07.822Z</time></trkpt><trkpt lat="45.514460086450526" lon="8.228754783791631"><ele>195.0</ele><time>2026-04-06T14:51:08.822Z</time></trkpt><trkpt lat="45.5144724315679" lon="8.228495187689022"><ele>195.0</ele><time>2026-04-06T14:51:09.822Z</time></trkpt><trkpt lat="45.51448928719211" lon="8.228240745009577"><ele>195.0</ele><time>2026-04-06T14:51:10.822Z</time></trkpt><trkpt lat="45.51450475128645" lon="8.228000754261622"><ele>195.0</ele><time>2026-04-06T14:51:11.822Z</time></trkpt><trkpt lat="45.514521404245656" lon="8.227783439803046"><ele>194.75</ele><time>2026-04-06T14:51:12.822Z</time></trkpt><trkpt lat="45.51453578625708" lon="8.227588712581055"><ele>194.5</ele><time>2026-04-06T14:51:13.822Z</time></trkpt><trkpt lat="45.51455070283938" lon="8.22741423331823"><ele>194.25</ele><time>2026-04-06T14:51:14.822Z</time></trkpt><trkpt lat="45.51456705857775" lon="8.227256874551177"><ele>194.0</ele><time>2026-04-06T14:51:15.822Z</time></trkpt><trkpt lat="45.51459405846549" lon="8.22713478896127"><ele>193.83333333333334</ele><time>2026-04-06T14:51:16.822Z</time></trkpt><trkpt lat="45.514633898736015" lon="8.22704346027786"><ele>193.66666666666669</ele><time>2026-04-06T14:51:17.822Z</time></trkpt><trkpt lat="45.514707870971826" lon="8.226955645777165"><ele>193.5</ele><time>2026-04-06T14:51:19.822Z</time></trkpt><trkpt lat="45.514724112394006" lon="8.226850860884573"><ele>193.33333333333331</ele><time>2026-04-06T14:51:22.822Z</time></trkpt><trkpt lat="45.51463688319029" lon="8.226758719128274"><ele>193.16666666666666</ele><time>2026-04-06T14:51:24.822Z</time></trkpt><trkpt lat="45.51457211529204" lon="8.226712340517269"><ele>193.0</ele><time>2026-04-06T14:51:25.822Z</time></trkpt><trkpt lat="45.51450731086457" lon="8.22664836159834"><ele>193.0</ele><time>2026-04-06T14:51:26.822Z</time></trkpt><trkpt lat="45.51442944025306" lon="8.22659972177967"><ele>193.0</ele><time>2026-04-06T14:51:27.822Z</time></trkpt><trkpt lat="45.514339711638435" lon="8.226569688493411"><ele>193.0</ele><time>2026-04-06T14:51:28.822Z</time></trkpt><trkpt lat="45.51424141597181" lon="8.226555271533162"><ele>193.0</ele><time>2026-04-06T14:51:29.822Z</time></trkpt><trkpt lat="45.514137512851256" lon="8.226541361673998"><ele>193.0</ele><time>2026-04-06T14:51:30.822Z</time></trkpt><trkpt lat="45.51403798403046" lon="8.226509935347908"><ele>192.8</ele><time>2026-04-06T14:51:31.822Z</time></trkpt><trkpt lat="45.51394708284544" lon="8.226456177636184"><ele>192.60000000000002</ele><time>2026-04-06T14:51:32.822Z</time></trkpt><trkpt lat="45.513863378060336" lon="8.226386670985756"><ele>192.39999999999998</ele><time>2026-04-06T14:51:33.822Z</time></trkpt><trkpt lat="45.51377401102994" lon="8.226316517563724"><ele>192.2</ele><time>2026-04-06T14:51:34.822Z</time></trkpt><trkpt lat="45.5136813337942" lon="8.226243003178629"><ele>192.0</ele><time>2026-04-06T14:51:35.822Z</time></trkpt><trkpt lat="45.51358607582062" lon="8.226161972529864"><ele>191.25</ele><time>2026-04-06T14:51:36.821Z</time></trkpt><trkpt lat="45.51348741706517" lon="8.226073005147637"><ele>190.5</ele><time>2026-04-06T14:51:37.821Z</time></trkpt><trkpt lat="45.5133832811964" lon="8.225979911945858"><ele>189.75</ele><time>2026-04-06T14:51:38.821Z</time></trkpt><trkpt lat="45.513278873460315" lon="8.225884988381733"><ele>189.0</ele><time>2026-04-06T14:51:39.821Z</time></trkpt><trkpt lat="45.513173734302256" lon="8.225790826251615"><ele>189.0</ele><time>2026-04-06T14:51:40.821Z</time></trkpt><trkpt lat="45.51306778100049" lon="8.225700036085268"><ele>189.0</ele><time>2026-04-06T14:51:41.821Z</time></trkpt><trkpt lat="45.51296189294665" lon="8.225611331323758"><ele>189.0</ele><time>2026-04-06T14:51:42.821Z</time></trkpt><trkpt lat="45.512857805089794" lon="8.22552741850367"><ele>189.0</ele><time>2026-04-06T14:51:43.821Z</time></trkpt><trkpt lat="45.512752508639224" lon="8.225445788297899"><ele>189.0</ele><time>2026-04-06T14:51:44.821Z</time></trkpt><trkpt lat="45.51264151971483" lon="8.225356863673749"><ele>189.0</ele><time>2026-04-06T14:51:45.821Z</time></trkpt><trkpt lat="45.51252298268283" lon="8.225258532286334"><ele>189.0</ele><time>2026-04-06T14:51:46.821Z</time></trkpt><trkpt lat="45.51239837729152" lon="8.225153131282879"><ele>189.0</ele><time>2026-04-06T14:51:47.821Z</time></trkpt><trkpt lat="45.51226843566335" lon="8.225033147006089"><ele>189.0</ele><time>2026-04-06T14:51:48.821Z</time></trkpt><trkpt lat="45.51213144187691" lon="8.224906604749009"><ele>189.0</ele><time>2026-04-06T14:51:49.821Z</time></trkpt><trkpt lat="45.51198865702611" lon="8.224771515817068"><ele>189.0</ele><time>2026-04-06T14:51:50.821Z</time></trkpt><trkpt lat="45.51184752324912" lon="8.224628688204335"><ele>189.33333333333334</ele><time>2026-04-06T14:51:51.821Z</time></trkpt><trkpt lat="45.51171638755313" lon="8.22448602493239"><ele>189.66666666666669</ele><time>2026-04-06T14:51:52.821Z</time></trkpt><trkpt lat="45.51159430994381" lon="8.224334998171141"><ele>190.0</ele><time>2026-04-06T14:51:53.821Z</time></trkpt><trkpt lat="45.51148279000641" lon="8.224159417160871"><ele>190.66666666666669</ele><time>2026-04-06T14:51:54.821Z</time></trkpt><trkpt lat="45.511378929978534" lon="8.223973384888163"><ele>191.33333333333334</ele><time>2026-04-06T14:51:55.821Z</time></trkpt><trkpt lat="45.51128516533955" lon="8.223777682551903"><ele>192.0</ele><time>2026-04-06T14:51:56.821Z</time></trkpt><trkpt lat="45.51120442416698" lon="8.223564382159179"><ele>192.0</ele><time>2026-04-06T14:51:57.821Z</time></trkpt><trkpt lat="45.51112872575774" lon="8.223339935403317"><ele>192.0</ele><time>2026-04-06T14:51:58.821Z</time></trkpt><trkpt lat="45.511054833911516" lon="8.223112680245366"><ele>192.0</ele><time>2026-04-06T14:51:59.821Z</time></trkpt><trkpt lat="45.510979163422476" lon="8.222880877489242"><ele>192.0</ele><time>2026-04-06T14:52:00.821Z</time></trkpt><trkpt lat="45.510903549069525" lon="8.222647833187144"><ele>192.0</ele><time>2026-04-06T14:52:01.821Z</time></trkpt><trkpt lat="45.51082866861959" lon="8.222424166862796"><ele>192.0</ele><time>2026-04-06T14:52:02.821Z</time></trkpt><trkpt lat="45.510754823348904" lon="8.222201744601216"><ele>192.0</ele><time>2026-04-06T14:52:03.821Z</time></trkpt><trkpt lat="45.51067931214637" lon="8.221971694397045"><ele>192.0</ele><time>2026-04-06T14:52:04.821Z</time></trkpt><trkpt lat="45.51060252615192" lon="8.221734873517288"><ele>192.0</ele><time>2026-04-06T14:52:05.821Z</time></trkpt><trkpt lat="45.51052455399522" lon="8.221495063747632"><ele>192.0</ele><time>2026-04-06T14:52:06.821Z</time></trkpt><trkpt lat="45.51044336215913" lon="8.221258660771827"><ele>192.0</ele><time>2026-04-06T14:52:07.821Z</time></trkpt><trkpt lat="45.51036118888221" lon="8.221019712227903"><ele>192.0</ele><time>2026-04-06T14:52:08.821Z</time></trkpt><trkpt lat="45.51028295187159" lon="8.220777631495784"><ele>192.33333333333331</ele><time>2026-04-06T14:52:09.82Z</time></trkpt><trkpt lat="45.51020859231917" lon="8.220535309222058"><ele>192.66666666666666</ele><time>2026-04-06T14:52:10.82Z</time></trkpt><trkpt lat="45.510140916064806" lon="8.220297754167667"><ele>193.0</ele><time>2026-04-06T14:52:11.82Z</time></trkpt><trkpt lat="45.51008107845793" lon="8.220059733399662"><ele>193.33333333333331</ele><time>2026-04-06T14:52:12.82Z</time></trkpt><trkpt lat="45.51003865814663" lon="8.219814792382463"><ele>193.66666666666669</ele><time>2026-04-06T14:52:13.82Z</time></trkpt><trkpt lat="45.51000119354756" lon="8.219567701233618"><ele>194.0</ele><time>2026-04-06T14:52:14.82Z</time></trkpt><trkpt lat="45.509964552357616" lon="8.219316706161186"><ele>194.0</ele><time>2026-04-06T14:52:15.82Z</time></trkpt><trkpt lat="45.50992526718416" lon="8.21906395856737"><ele>194.0</ele><time>2026-04-06T14:52:16.82Z</time></trkpt><trkpt lat="45.50987931249263" lon="8.218812295603348"><ele>194.0</ele><time>2026-04-06T14:52:17.82Z</time></trkpt><trkpt lat="45.509816653944455" lon="8.218567036919506"><ele>194.0</ele><time>2026-04-06T14:52:18.82Z</time></trkpt><trkpt lat="45.50973553574289" lon="8.218330273083923"><ele>194.0</ele><time>2026-04-06T14:52:19.82Z</time></trkpt><trkpt lat="45.50964225409728" lon="8.21810358199964"><ele>194.0</ele><time>2026-04-06T14:52:20.82Z</time></trkpt><trkpt lat="45.509534809062586" lon="8.217883135751169"><ele>194.0</ele><time>2026-04-06T14:52:21.82Z</time></trkpt><trkpt lat="45.50942232202759" lon="8.217666944901124"><ele>194.0</ele><time>2026-04-06T14:52:22.82Z</time></trkpt><trkpt lat="45.5093210203761" lon="8.217461149957114"><ele>194.0</ele><time>2026-04-06T14:52:23.82Z</time></trkpt><trkpt lat="45.509224398544184" lon="8.2172583686997"><ele>194.33333333333334</ele><time>2026-04-06T14:52:24.82Z</time></trkpt><trkpt lat="45.50912964759474" lon="8.217061177454068"><ele>194.66666666666669</ele><time>2026-04-06T14:52:25.82Z</time></trkpt><trkpt lat="45.50904049881725" lon="8.216880471479266"><ele>195.0</ele><time>2026-04-06T14:52:26.82Z</time></trkpt><trkpt lat="45.50895461928611" lon="8.216705021968755"><ele>195.0</ele><time>2026-04-06T14:52:27.82Z</time></trkpt><trkpt lat="45.5088774410614" lon="8.216526054525566"><ele>195.0</ele><time>2026-04-06T14:52:28.82Z</time></trkpt><trkpt lat="45.508801569966664" lon="8.216341915873434"><ele>195.0</ele><time>2026-04-06T14:52:29.82Z</time></trkpt><trkpt lat="45.50871573061052" lon="8.216156489866627"><ele>195.0</ele><time>2026-04-06T14:52:30.82Z</time></trkpt><trkpt lat="45.50862729411088" lon="8.215968928071534"><ele>195.0</ele><time>2026-04-06T14:52:31.82Z</time></trkpt><trkpt lat="45.5085353624895" lon="8.215774969207384"><ele>195.0</ele><time>2026-04-06T14:52:32.82Z</time></trkpt><trkpt lat="45.508440196962" lon="8.215577634415203"><ele>195.33333333333331</ele><time>2026-04-06T14:52:33.82Z</time></trkpt><trkpt lat="45.50834578685773" lon="8.215372600299084"><ele>195.66666666666666</ele><time>2026-04-06T14:52:34.82Z</time></trkpt><trkpt lat="45.50825305231727" lon="8.215165787319963"><ele>196.0</ele><time>2026-04-06T14:52:35.82Z</time></trkpt><trkpt lat="45.50815800865977" lon="8.214960895911965"><ele>196.0</ele><time>2026-04-06T14:52:36.82Z</time></trkpt><trkpt lat="45.50806367937403" lon="8.21475449005474"><ele>196.0</ele><time>2026-04-06T14:52:37.82Z</time></trkpt><trkpt lat="45.50796733261517" lon="8.214550619089103"><ele>196.0</ele><time>2026-04-06T14:52:38.82Z</time></trkpt><trkpt lat="45.507871806505456" lon="8.214348161566235"><ele>196.33333333333331</ele><time>2026-04-06T14:52:39.82Z</time></trkpt><trkpt lat="45.50778092238047" lon="8.214156286339701"><ele>196.66666666666669</ele><time>2026-04-06T14:52:40.82Z</time></trkpt><trkpt lat="45.507695573944254" lon="8.213974770351038"><ele>197.0</ele><time>2026-04-06T14:52:41.82Z</time></trkpt><trkpt lat="45.50761542970744" lon="8.21379904716609"><ele>197.25</ele><time>2026-04-06T14:52:42.82Z</time></trkpt><trkpt lat="45.50754336001867" lon="8.213631232527318"><ele>197.5</ele><time>2026-04-06T14:52:43.82Z</time></trkpt><trkpt lat="45.50747106282583" lon="8.21347256877987"><ele>197.75</ele><time>2026-04-06T14:52:44.82Z</time></trkpt><trkpt lat="45.50739855129047" lon="8.213325951591846"><ele>198.0</ele><time>2026-04-06T14:52:45.82Z</time></trkpt><trkpt lat="45.5073210291663" lon="8.213191875427338"><ele>198.0</ele><time>2026-04-06T14:52:46.819Z</time></trkpt><trkpt lat="45.507234645211796" lon="8.213083474221762"><ele>198.0</ele><time>2026-04-06T14:52:47.819Z</time></trkpt><trkpt lat="45.50713744251555" lon="8.212998382027621"><ele>198.0</ele><time>2026-04-06T14:52:48.819Z</time></trkpt><trkpt lat="45.50702454307718" lon="8.21295158072746"><ele>198.0</ele><time>2026-04-06T14:52:49.819Z</time></trkpt><trkpt lat="45.506904244524264" lon="8.212928393177926"><ele>198.25</ele><time>2026-04-06T14:52:50.819Z</time></trkpt><trkpt lat="45.506775120074316" lon="8.212932095079216"><ele>198.5</ele><time>2026-04-06T14:52:51.819Z</time></trkpt><trkpt lat="45.50663704573595" lon="8.212951299866726"><ele>198.75</ele><time>2026-04-06T14:52:52.819Z</time></trkpt><trkpt lat="45.506491676411365" lon="8.21298152197428"><ele>199.0</ele><time>2026-04-06T14:52:53.819Z</time></trkpt><trkpt lat="45.50634254089626" lon="8.213014218045803"><ele>199.0</ele><time>2026-04-06T14:52:54.819Z</time></trkpt><trkpt lat="45.506194074528835" lon="8.213037664567853"><ele>199.0</ele><time>2026-04-06T14:52:55.819Z</time></trkpt><trkpt lat="45.5060519353146" lon="8.213059287649152"><ele>199.0</ele><time>2026-04-06T14:52:56.819Z</time></trkpt><trkpt lat="45.505921779262" lon="8.213081737726577"><ele>199.0</ele><time>2026-04-06T14:52:57.819Z</time></trkpt><trkpt lat="45.50580109800788" lon="8.21311860517682"><ele>198.39999999999998</ele><time>2026-04-06T14:52:58.819Z</time></trkpt><trkpt lat="45.50569381136941" lon="8.213185085900172"><ele>197.8</ele><time>2026-04-06T14:52:59.819Z</time></trkpt><trkpt lat="45.50559527329606" lon="8.213269887340564"><ele>197.2</ele><time>2026-04-06T14:53:00.819Z</time></trkpt><trkpt lat="45.50551926598814" lon="8.213383742771848"><ele>196.60000000000002</ele><time>2026-04-06T14:53:01.819Z</time></trkpt><trkpt lat="45.505462485221116" lon="8.21349636306314"><ele>196.0</ele><time>2026-04-06T14:53:02.819Z</time></trkpt><trkpt lat="45.505398734805844" lon="8.21359215650127"><ele>195.99999999999997</ele><time>2026-04-06T14:53:03.819Z</time></trkpt><trkpt lat="45.50532109812065" lon="8.213647373407781"><ele>196.0</ele><time>2026-04-06T14:53:04.819Z</time></trkpt><trkpt lat="45.505245760562545" lon="8.213649994035231"><ele>196.0</ele><time>2026-04-06T14:53:05.819Z</time></trkpt><trkpt lat="45.50517963839295" lon="8.213616181190366"><ele>196.0</ele><time>2026-04-06T14:53:06.819Z</time></trkpt><trkpt lat="45.50512536576155" lon="8.213542866496962"><ele>195.99999999999997</ele><time>2026-04-06T14:53:07.819Z</time></trkpt><trkpt lat="45.505087539773854" lon="8.21344097620673"><ele>196.0</ele><time>2026-04-06T14:53:08.819Z</time></trkpt><trkpt lat="45.50507535732191" lon="8.213330079487665"><ele>196.0</ele><time>2026-04-06T14:53:09.819Z</time></trkpt><trkpt lat="45.50508440323215" lon="8.213212119911612"><ele>196.0</ele><time>2026-04-06T14:53:10.819Z</time></trkpt><trkpt lat="45.505086876467864" lon="8.213081112483554"><ele>196.0</ele><time>2026-04-06T14:53:11.819Z</time></trkpt><trkpt lat="45.50508482740584" lon="8.212938703940306"><ele>196.0</ele><time>2026-04-06T14:53:12.819Z</time></trkpt><trkpt lat="45.505035569650914" lon="8.212811867481332"><ele>196.0</ele><time>2026-04-06T14:53:13.819Z</time></trkpt><trkpt lat="45.50501279479201" lon="8.21269138780191"><ele>196.16666666666666</ele><time>2026-04-06T14:53:14.819Z</time></trkpt><trkpt lat="45.505012371295784" lon="8.212572925895968"><ele>196.33333333333331</ele><time>2026-04-06T14:53:15.819Z</time></trkpt><trkpt lat="45.50503192519466" lon="8.212464266678518"><ele>196.5</ele><time>2026-04-06T14:53:16.819Z</time></trkpt><trkpt lat="45.505052442039755" lon="8.21237672800057"><ele>196.66666666666669</ele><time>2026-04-06T14:53:17.819Z</time></trkpt><trkpt lat="45.50514593254705" lon="8.212335758014591"><ele>196.83333333333334</ele><time>2026-04-06T14:53:18.819Z</time></trkpt><trkpt lat="45.505230236330384" lon="8.21232828449604"><ele>197.0</ele><time>2026-04-06T14:53:19.818Z</time></trkpt><trkpt lat="45.50530768224383" lon="8.212370345624981"><ele>197.0</ele><time>2026-04-06T14:53:20.818Z</time></trkpt><trkpt lat="45.50537541381165" lon="8.212448163620818"><ele>197.0</ele><time>2026-04-06T14:53:21.818Z</time></trkpt><trkpt lat="45.50544391418554" lon="8.21254650948697"><ele>197.0</ele><time>2026-04-06T14:53:22.818Z</time></trkpt><trkpt lat="45.50552884249443" lon="8.212624915364668"><ele>197.0</ele><time>2026-04-06T14:53:23.818Z</time></trkpt><trkpt lat="45.50563439589999" lon="8.212665103612984"><ele>197.0</ele><time>2026-04-06T14:53:24.818Z</time></trkpt><trkpt lat="45.50574723984694" lon="8.212675446797853"><ele>197.5</ele><time>2026-04-06T14:53:25.818Z</time></trkpt><trkpt lat="45.50586291701714" lon="8.212658874942216"><ele>198.0</ele><time>2026-04-06T14:53:26.818Z</time></trkpt><trkpt lat="45.5059865254222" lon="8.21261203256194"><ele>198.5</ele><time>2026-04-06T14:53:27.818Z</time></trkpt><trkpt lat="45.506111799082056" lon="8.21255878051607"><ele>199.0</ele><time>2026-04-06T14:53:28.818Z</time></trkpt><trkpt lat="45.506243910320386" lon="8.212511181179687"><ele>199.0</ele><time>2026-04-06T14:53:29.818Z</time></trkpt><trkpt lat="45.50637929302396" lon="8.212483625908623"><ele>199.0</ele><time>2026-04-06T14:53:30.818Z</time></trkpt><trkpt lat="45.50650601669625" lon="8.212437735935485"><ele>199.0</ele><time>2026-04-06T14:53:31.818Z</time></trkpt><trkpt lat="45.50661691495198" lon="8.212392425151545"><ele>199.0</ele><time>2026-04-06T14:53:32.818Z</time></trkpt><trkpt lat="45.5067099125491" lon="8.212362856339018"><ele>199.0</ele><time>2026-04-06T14:53:33.818Z</time></trkpt><trkpt lat="45.50678131848613" lon="8.212336597196115"><ele>199.0</ele><time>2026-04-06T14:53:34.818Z</time></trkpt><trkpt lat="45.506865322830855" lon="8.212318489934047"><ele>199.0</ele><time>2026-04-06T14:53:36.818Z</time></trkpt><trkpt lat="45.50683190255955" lon="8.212103177412006"><ele>199.0</ele><time>2026-04-06T14:53:38.818Z</time></trkpt><trkpt lat="45.50679022843436" lon="8.212017283170418"><ele>199.0</ele><time>2026-04-06T14:53:39.818Z</time></trkpt><trkpt lat="45.50675738619608" lon="8.211907942941293"><ele>199.0</ele><time>2026-04-06T14:53:40.818Z</time></trkpt><trkpt lat="45.50670697184326" lon="8.211796045405634"><ele>199.0</ele><time>2026-04-06T14:53:41.818Z</time></trkpt><trkpt lat="45.50665355237697" lon="8.21167747798804"><ele>199.0</ele><time>2026-04-06T14:53:42.818Z</time></trkpt><trkpt lat="45.50658466262444" lon="8.211560457539171"><ele>199.0</ele><time>2026-04-06T14:53:43.818Z</time></trkpt><trkpt lat="45.50653480753633" lon="8.21142875202919"><ele>199.0</ele><time>2026-04-06T14:53:44.818Z</time></trkpt><trkpt lat="45.50648381770674" lon="8.211304714459596"><ele>199.0</ele><time>2026-04-06T14:53:45.818Z</time></trkpt><trkpt lat="45.5064236162369" lon="8.211176044916067"><ele>199.0</ele><time>2026-04-06T14:53:46.818Z</time></trkpt><trkpt lat="45.506358241125625" lon="8.211035811718823"><ele>199.0</ele><time>2026-04-06T14:53:47.818Z</time></trkpt><trkpt lat="45.506288110901174" lon="8.210888673961223"><ele>199.0</ele><time>2026-04-06T14:53:48.818Z</time></trkpt><trkpt lat="45.50621877116101" lon="8.210740433262217"><ele>199.6</ele><time>2026-04-06T14:53:49.818Z</time></trkpt><trkpt lat="45.50615331589679" lon="8.210599390437824"><ele>200.2</ele><time>2026-04-06T14:53:50.818Z</time></trkpt><trkpt lat="45.506095505208734" lon="8.210475832307042"><ele>200.79999999999998</ele><time>2026-04-06T14:53:51.817Z</time></trkpt><trkpt lat="45.506042693640325" lon="8.210365654606974"><ele>201.39999999999998</ele><time>2026-04-06T14:53:52.888Z</time></trkpt><trkpt lat="45.50599379965496" lon="8.2102605587774"><ele>202.0</ele><time>2026-04-06T14:53:53.888Z</time></trkpt><trkpt lat="45.505949922319374" lon="8.210162419029476"><ele>202.0</ele><time>2026-04-06T14:53:54.888Z</time></trkpt><trkpt lat="45.50590735773426" lon="8.210065847913834"><ele>202.0</ele><time>2026-04-06T14:53:55.888Z</time></trkpt><trkpt lat="45.505864624071634" lon="8.20996648296592"><ele>202.0</ele><time>2026-04-06T14:53:56.888Z</time></trkpt><trkpt lat="45.50581907415197" lon="8.20985302220426"><ele>202.0</ele><time>2026-04-06T14:53:57.888Z</time></trkpt><trkpt lat="45.50577491589928" lon="8.209726053737564"><ele>202.0</ele><time>2026-04-06T14:53:58.888Z</time></trkpt><trkpt lat="45.505758176415064" lon="8.209581596977454"><ele>202.0</ele><time>2026-04-06T14:53:59.888Z</time></trkpt><trkpt lat="45.50574955483224" lon="8.209428430903314"><ele>202.0</ele><time>2026-04-06T14:54:00.888Z</time></trkpt><trkpt lat="45.50574245243401" lon="8.209275006626116"><ele>202.0</ele><time>2026-04-06T14:54:01.888Z</time></trkpt><trkpt lat="45.505734622679974" lon="8.209113164448212"><ele>202.0</ele><time>2026-04-06T14:54:02.888Z</time></trkpt><trkpt lat="45.505726837563735" lon="8.208953616761546"><ele>202.0</ele><time>2026-04-06T14:54:03.888Z</time></trkpt><trkpt lat="45.50571929115385" lon="8.208798960926304"><ele>202.66666666666666</ele><time>2026-04-06T14:54:04.888Z</time></trkpt><trkpt lat="45.505711993499006" lon="8.208649403270611"><ele>203.33333333333331</ele><time>2026-04-06T14:54:05.888Z</time></trkpt><trkpt lat="45.50570519397901" lon="8.208510053891978"><ele>204.0</ele><time>2026-04-06T14:54:06.888Z</time></trkpt><trkpt lat="45.50569907706286" lon="8.208389172246955"><ele>204.66666666666669</ele><time>2026-04-06T14:54:07.888Z</time></trkpt><trkpt lat="45.50569252883943" lon="8.208291025993928"><ele>205.33333333333334</ele><time>2026-04-06T14:54:08.888Z</time></trkpt><trkpt lat="45.505682537334074" lon="8.208161409855375"><ele>206.0</ele><time>2026-04-06T14:54:10.887Z</time></trkpt><trkpt lat="45.50569644013433" lon="8.208055566441468"><ele>206.66666666666669</ele><time>2026-04-06T14:54:14.887Z</time></trkpt><trkpt lat="45.50580022618861" lon="8.208034514920417"><ele>207.33333333333334</ele><time>2026-04-06T14:54:15.887Z</time></trkpt><trkpt lat="45.50586273822791" lon="8.20801630306386"><ele>208.0</ele><time>2026-04-06T14:54:16.887Z</time></trkpt><trkpt lat="45.50593675098525" lon="8.207976704000034"><ele>208.66666666666669</ele><time>2026-04-06T14:54:17.887Z</time></trkpt><trkpt lat="45.50601217682993" lon="8.207944282279838"><ele>209.33333333333334</ele><time>2026-04-06T14:54:18.888Z</time></trkpt><trkpt lat="45.5060933737286" lon="8.20791050817929"><ele>210.0</ele><time>2026-04-06T14:54:19.888Z</time></trkpt><trkpt lat="45.50618336066994" lon="8.207872676112762"><ele>209.8</ele><time>2026-04-06T14:54:20.888Z</time></trkpt><trkpt lat="45.50627491643181" lon="8.207834914996711"><ele>209.6</ele><time>2026-04-06T14:54:21.887Z</time></trkpt><trkpt lat="45.50636746191577" lon="8.20779818338219"><ele>209.39999999999998</ele><time>2026-04-06T14:54:22.887Z</time></trkpt><trkpt lat="45.506458140292814" lon="8.207759613804926"><ele>209.2</ele><time>2026-04-06T14:54:23.888Z</time></trkpt><trkpt lat="45.50654854668262" lon="8.207736096650947"><ele>209.0</ele><time>2026-04-06T14:54:24.887Z</time></trkpt><trkpt lat="45.50662803090629" lon="8.207724600176677"><ele>209.0</ele><time>2026-04-06T14:54:25.887Z</time></trkpt><trkpt lat="45.506696055403985" lon="8.207707741769745"><ele>209.0</ele><time>2026-04-06T14:54:26.888Z</time></trkpt><trkpt lat="45.50679883839313" lon="8.207692257315056"><ele>209.0</ele><time>2026-04-06T14:54:28.887Z</time></trkpt><trkpt lat="45.50687179434083" lon="8.2076903531338"><ele>209.0</ele><time>2026-04-06T14:54:31.888Z</time></trkpt><trkpt lat="45.506883297057335" lon="8.207503977445713"><ele>209.0</ele><time>2026-04-06T14:54:34.888Z</time></trkpt><trkpt lat="45.50687143795457" lon="8.20737573701675"><ele>209.0</ele><time>2026-04-06T14:54:36.887Z</time></trkpt><trkpt lat="45.50686167106403" lon="8.207270158096991"><ele>217.0</ele><time>2026-04-06T14:54:38.887Z</time></trkpt><trkpt lat="45.50692895030239" lon="8.207240491570115"><ele>217.0</ele><time>2026-04-06T14:54:43.887Z</time></trkpt></trkseg></trk></gpx>